<?xml version='1.0' encoding='UTF-8'?><gpx version="1.1" creator="JPX - https://github.com/jenetics/jpx" xmlns="http://www.topografix.com/GPX/1/1"><trk><trkseg><trkpt lat="39.7944107" lon="8.5473177"><ele>10.0</ele><time>2026-05-01T06:32:05.835Z</time></trkpt><trkpt lat="39.7943983" lon="8.5474167"><ele>10.0</ele><time>2026-05-01T06:44:01.831Z</time></trkpt><trkpt lat="39.7944417" lon="8.54751"><ele>10.0</ele><time>2026-05-01T06:44:14.83Z</time></trkpt><trkpt lat="39.79441" lon="8.5475983"><ele>10.0</ele><time>2026-05-01T06:44:33.831Z</time></trkpt><trkpt lat="39.79439" lon="8.5476833"><ele>10.0</ele><time>2026-05-01T06:44:35.83Z</time></trkpt><trkpt lat="39.7944067" lon="8.54779"><ele>10.0</ele><time>2026-05-01T06:44:37.83Z</time></trkpt><trkpt lat="39.7944117" lon="8.5479283"><ele>10.4</ele><time>2026-05-01T06:44:39.83Z</time></trkpt><trkpt lat="39.7944083" lon="8.5480567"><ele>10.8</ele><time>2026-05-01T06:44:41.831Z</time></trkpt><trkpt lat="39.7944133" lon="8.548185"><ele>11.2</ele><time>2026-05-01T06:44:43.831Z</time></trkpt><trkpt lat="39.7944183" lon="8.5483167"><ele>11.6</ele><time>2026-05-01T06:44:45.831Z</time></trkpt><trkpt lat="39.7944217" lon="8.54843"><ele>12.0</ele><time>2026-05-01T06:44:47.83Z</time></trkpt><trkpt lat="39.79442" lon="8.5485183"><ele>11.999999999999998</ele><time>2026-05-01T06:44:49.83Z</time></trkpt><trkpt lat="39.7944133" lon="8.5486"><ele>12.0</ele><time>2026-05-01T06:44:51.831Z</time></trkpt><trkpt lat="39.7944133" lon="8.5486867"><ele>12.0</ele><time>2026-05-01T06:44:54.83Z</time></trkpt><trkpt lat="39.7944267" lon="8.5487683"><ele>12.0</ele><time>2026-05-01T06:45:18.831Z</time></trkpt><trkpt lat="39.7944217" lon="8.54887"><ele>12.0</ele><time>2026-05-01T06:45:20.831Z</time></trkpt><trkpt lat="39.7944167" lon="8.5489567"><ele>11.999999999999998</ele><time>2026-05-01T06:45:24.83Z</time></trkpt><trkpt lat="39.794435" lon="8.5490467"><ele>12.0</ele><time>2026-05-01T06:45:52.83Z</time></trkpt><trkpt lat="39.794425" lon="8.5491467"><ele>11.5</ele><time>2026-05-01T06:45:54.83Z</time></trkpt><trkpt lat="39.794425" lon="8.5492867"><ele>11.0</ele><time>2026-05-01T06:45:56.83Z</time></trkpt><trkpt lat="39.7944233" lon="8.54943"><ele>10.5</ele><time>2026-05-01T06:45:58.83Z</time></trkpt><trkpt lat="39.7944217" lon="8.5495767"><ele>10.0</ele><time>2026-05-01T06:46:00.83Z</time></trkpt><trkpt lat="39.79442" lon="8.5497467"><ele>10.0</ele><time>2026-05-01T06:46:02.831Z</time></trkpt><trkpt lat="39.7944167" lon="8.5498483"><ele>10.0</ele><time>2026-05-01T06:46:03.83Z</time></trkpt><trkpt lat="39.7944133" lon="8.5499367"><ele>10.0</ele><time>2026-05-01T06:46:04.83Z</time></trkpt><trkpt lat="39.7944067" lon="8.55009"><ele>10.0</ele><time>2026-05-01T06:46:06.83Z</time></trkpt><trkpt lat="39.7944" lon="8.5501783"><ele>10.0</ele><time>2026-05-01T06:46:07.83Z</time></trkpt><trkpt lat="39.794385" lon="8.550325"><ele>10.0</ele><time>2026-05-01T06:46:09.83Z</time></trkpt><trkpt lat="39.79439" lon="8.5504133"><ele>9.4</ele><time>2026-05-01T06:46:10.831Z</time></trkpt><trkpt lat="39.7943967" lon="8.5505617"><ele>8.8</ele><time>2026-05-01T06:46:12.831Z</time></trkpt><trkpt lat="39.7944067" lon="8.5507017"><ele>8.2</ele><time>2026-05-01T06:46:14.83Z</time></trkpt><trkpt lat="39.7944217" lon="8.550815"><ele>7.6</ele><time>2026-05-01T06:46:16.83Z</time></trkpt><trkpt lat="39.794445" lon="8.5509167"><ele>7.0</ele><time>2026-05-01T06:46:19.831Z</time></trkpt><trkpt lat="39.7944317" lon="8.5510017"><ele>7.000000000000001</ele><time>2026-05-01T06:46:23.83Z</time></trkpt><trkpt lat="39.79442" lon="8.551085"><ele>7.0</ele><time>2026-05-01T06:46:26.831Z</time></trkpt><trkpt lat="39.79444" lon="8.55124"><ele>7.0</ele><time>2026-05-01T06:51:55.829Z</time></trkpt><trkpt lat="39.7944433" lon="8.5513333"><ele>7.0</ele><time>2026-05-01T06:51:56.829Z</time></trkpt><trkpt lat="39.7944433" lon="8.5514217"><ele>7.000000000000001</ele><time>2026-05-01T06:51:57.829Z</time></trkpt><trkpt lat="39.79445" lon="8.5515217"><ele>7.0</ele><time>2026-05-01T06:51:58.829Z</time></trkpt><trkpt lat="39.7944583" lon="8.5516517"><ele>7.0</ele><time>2026-05-01T06:51:59.829Z</time></trkpt><trkpt lat="39.7944567" lon="8.5518033"><ele>7.0</ele><time>2026-05-01T06:52:00.829Z</time></trkpt><trkpt lat="39.79445" lon="8.5519733"><ele>7.0</ele><time>2026-05-01T06:52:01.828Z</time></trkpt><trkpt lat="39.794445" lon="8.55213"><ele>7.0</ele><time>2026-05-01T06:52:02.829Z</time></trkpt><trkpt lat="39.794445" lon="8.55227"><ele>7.000000000000001</ele><time>2026-05-01T06:52:03.828Z</time></trkpt><trkpt lat="39.794445" lon="8.55239"><ele>7.0</ele><time>2026-05-01T06:52:04.828Z</time></trkpt><trkpt lat="39.79445" lon="8.5524983"><ele>7.0</ele><time>2026-05-01T06:52:05.828Z</time></trkpt><trkpt lat="39.7944533" lon="8.552595"><ele>7.0</ele><time>2026-05-01T06:52:06.829Z</time></trkpt><trkpt lat="39.7944517" lon="8.5527067"><ele>7.000000000000001</ele><time>2026-05-01T06:52:07.828Z</time></trkpt><trkpt lat="39.7944433" lon="8.5528417"><ele>7.0</ele><time>2026-05-01T06:52:08.829Z</time></trkpt><trkpt lat="39.7944317" lon="8.552995"><ele>6.0</ele><time>2026-05-01T06:52:09.828Z</time></trkpt><trkpt lat="39.7944267" lon="8.5531433"><ele>5.0</ele><time>2026-05-01T06:52:10.828Z</time></trkpt><trkpt lat="39.7944333" lon="8.5532967"><ele>4.0</ele><time>2026-05-01T06:52:11.829Z</time></trkpt><trkpt lat="39.7944383" lon="8.553455"><ele>3.0</ele><time>2026-05-01T06:52:12.828Z</time></trkpt><trkpt lat="39.7944567" lon="8.5535983"><ele>3.0</ele><time>2026-05-01T06:52:13.828Z</time></trkpt><trkpt lat="39.7944483" lon="8.553765"><ele>3.0</ele><time>2026-05-01T06:52:14.828Z</time></trkpt><trkpt lat="39.7944417" lon="8.5539333"><ele>3.0</ele><time>2026-05-01T06:52:15.828Z</time></trkpt><trkpt lat="39.7944433" lon="8.5541117"><ele>3.0</ele><time>2026-05-01T06:52:16.828Z</time></trkpt><trkpt lat="39.7944433" lon="8.5542867"><ele>3.0</ele><time>2026-05-01T06:52:17.828Z</time></trkpt><trkpt lat="39.79445" lon="8.554455"><ele>3.0</ele><time>2026-05-01T06:52:18.828Z</time></trkpt><trkpt lat="39.79445" lon="8.5546017"><ele>3.0</ele><time>2026-05-01T06:52:19.828Z</time></trkpt><trkpt lat="39.79445" lon="8.55474"><ele>3.0</ele><time>2026-05-01T06:52:20.828Z</time></trkpt><trkpt lat="39.7944483" lon="8.55485"><ele>3.0</ele><time>2026-05-01T06:52:21.828Z</time></trkpt><trkpt lat="39.7944533" lon="8.5549333"><ele>3.2</ele><time>2026-05-01T06:52:22.828Z</time></trkpt><trkpt lat="39.794465" lon="8.55506"><ele>3.4</ele><time>2026-05-01T06:52:24.829Z</time></trkpt><trkpt lat="39.794445" lon="8.5552433"><ele>3.6000000000000005</ele><time>2026-05-01T06:52:26.829Z</time></trkpt><trkpt lat="39.7944367" lon="8.5553733"><ele>3.8000000000000003</ele><time>2026-05-01T06:52:27.828Z</time></trkpt><trkpt lat="39.7944383" lon="8.55551"><ele>4.0</ele><time>2026-05-01T06:52:28.828Z</time></trkpt><trkpt lat="39.794445" lon="8.5556567"><ele>4.2</ele><time>2026-05-01T06:52:29.828Z</time></trkpt><trkpt lat="39.7944467" lon="8.5558033"><ele>4.4</ele><time>2026-05-01T06:52:30.828Z</time></trkpt><trkpt lat="39.794445" lon="8.55594"><ele>4.6</ele><time>2026-05-01T06:52:31.828Z</time></trkpt><trkpt lat="39.7944467" lon="8.5560733"><ele>4.8</ele><time>2026-05-01T06:52:32.829Z</time></trkpt><trkpt lat="39.7944467" lon="8.5562183"><ele>5.0</ele><time>2026-05-01T06:52:33.828Z</time></trkpt><trkpt lat="39.794435" lon="8.5563717"><ele>5.0</ele><time>2026-05-01T06:52:34.828Z</time></trkpt><trkpt lat="39.7944267" lon="8.5565467"><ele>5.0</ele><time>2026-05-01T06:52:35.828Z</time></trkpt><trkpt lat="39.7944333" lon="8.55673"><ele>5.0</ele><time>2026-05-01T06:52:36.829Z</time></trkpt><trkpt lat="39.7944383" lon="8.5569217"><ele>5.0</ele><time>2026-05-01T06:52:37.828Z</time></trkpt><trkpt lat="39.7944467" lon="8.55713"><ele>5.333333333333334</ele><time>2026-05-01T06:52:38.828Z</time></trkpt><trkpt lat="39.7944517" lon="8.5573533"><ele>5.666666666666667</ele><time>2026-05-01T06:52:39.828Z</time></trkpt><trkpt lat="39.7944533" lon="8.5575783"><ele>6.0</ele><time>2026-05-01T06:52:40.828Z</time></trkpt><trkpt lat="39.7944517" lon="8.557805"><ele>6.0</ele><time>2026-05-01T06:52:41.829Z</time></trkpt><trkpt lat="39.7944483" lon="8.558025"><ele>6.0</ele><time>2026-05-01T06:52:42.828Z</time></trkpt><trkpt lat="39.7944467" lon="8.5582417"><ele>6.0</ele><time>2026-05-01T06:52:43.829Z</time></trkpt><trkpt lat="39.7944467" lon="8.5584567"><ele>6.0</ele><time>2026-05-01T06:52:44.828Z</time></trkpt><trkpt lat="39.7944483" lon="8.558675"><ele>6.0</ele><time>2026-05-01T06:52:45.829Z</time></trkpt><trkpt lat="39.79445" lon="8.558895"><ele>6.0</ele><time>2026-05-01T06:52:46.829Z</time></trkpt><trkpt lat="39.7944467" lon="8.55912"><ele>5.666666666666667</ele><time>2026-05-01T06:52:47.828Z</time></trkpt><trkpt lat="39.794445" lon="8.5593483"><ele>5.333333333333334</ele><time>2026-05-01T06:52:48.828Z</time></trkpt><trkpt lat="39.794445" lon="8.559575"><ele>5.0</ele><time>2026-05-01T06:52:49.829Z</time></trkpt><trkpt lat="39.794445" lon="8.559795"><ele>4.666666666666667</ele><time>2026-05-01T06:52:50.828Z</time></trkpt><trkpt lat="39.7944467" lon="8.56001"><ele>4.333333333333333</ele><time>2026-05-01T06:52:51.828Z</time></trkpt><trkpt lat="39.7944483" lon="8.5602267"><ele>4.0</ele><time>2026-05-01T06:52:52.828Z</time></trkpt><trkpt lat="39.79445" lon="8.560445"><ele>3.6666666666666665</ele><time>2026-05-01T06:52:53.828Z</time></trkpt><trkpt lat="39.7944517" lon="8.560665"><ele>3.333333333333333</ele><time>2026-05-01T06:52:54.828Z</time></trkpt><trkpt lat="39.7944433" lon="8.560885"><ele>3.0</ele><time>2026-05-01T06:52:55.828Z</time></trkpt><trkpt lat="39.7944367" lon="8.5611033"><ele>2.6666666666666665</ele><time>2026-05-01T06:52:56.828Z</time></trkpt><trkpt lat="39.7944367" lon="8.5613283"><ele>2.333333333333333</ele><time>2026-05-01T06:52:57.828Z</time></trkpt><trkpt lat="39.7944367" lon="8.5615467"><ele>2.0</ele><time>2026-05-01T06:52:58.828Z</time></trkpt><trkpt lat="39.79444" lon="8.5617667"><ele>2.0</ele><time>2026-05-01T06:52:59.829Z</time></trkpt><trkpt lat="39.7944417" lon="8.5619867"><ele>2.0</ele><time>2026-05-01T06:53:00.828Z</time></trkpt><trkpt lat="39.794445" lon="8.5622117"><ele>2.0</ele><time>2026-05-01T06:53:01.828Z</time></trkpt><trkpt lat="39.7944517" lon="8.5624367"><ele>2.6666666666666665</ele><time>2026-05-01T06:53:02.828Z</time></trkpt><trkpt lat="39.7944483" lon="8.5626567"><ele>3.333333333333333</ele><time>2026-05-01T06:53:03.828Z</time></trkpt><trkpt lat="39.7944467" lon="8.5628767"><ele>4.0</ele><time>2026-05-01T06:53:04.829Z</time></trkpt><trkpt lat="39.79445" lon="8.5630883"><ele>4.0</ele><time>2026-05-01T06:53:05.828Z</time></trkpt><trkpt lat="39.7944533" lon="8.5632967"><ele>4.0</ele><time>2026-05-01T06:53:06.828Z</time></trkpt><trkpt lat="39.7944517" lon="8.5635083"><ele>4.0</ele><time>2026-05-01T06:53:07.828Z</time></trkpt><trkpt lat="39.794445" lon="8.5637117"><ele>4.0</ele><time>2026-05-01T06:53:08.829Z</time></trkpt><trkpt lat="39.79445" lon="8.5639183"><ele>4.0</ele><time>2026-05-01T06:53:09.828Z</time></trkpt><trkpt lat="39.79445" lon="8.564125"><ele>4.0</ele><time>2026-05-01T06:53:10.829Z</time></trkpt><trkpt lat="39.7944533" lon="8.5643317"><ele>4.0</ele><time>2026-05-01T06:53:11.828Z</time></trkpt><trkpt lat="39.7944517" lon="8.5645367"><ele>4.0</ele><time>2026-05-01T06:53:12.828Z</time></trkpt><trkpt lat="39.7944533" lon="8.5647433"><ele>4.0</ele><time>2026-05-01T06:53:13.828Z</time></trkpt><trkpt lat="39.7944567" lon="8.5649517"><ele>4.0</ele><time>2026-05-01T06:53:14.828Z</time></trkpt><trkpt lat="39.7944517" lon="8.5651667"><ele>4.0</ele><time>2026-05-01T06:53:15.828Z</time></trkpt><trkpt lat="39.79445" lon="8.5653867"><ele>4.0</ele><time>2026-05-01T06:53:16.829Z</time></trkpt><trkpt lat="39.7944483" lon="8.5656033"><ele>4.333333333333333</ele><time>2026-05-01T06:53:17.828Z</time></trkpt><trkpt lat="39.7944517" lon="8.5658133"><ele>4.666666666666667</ele><time>2026-05-01T06:53:18.828Z</time></trkpt><trkpt lat="39.7944483" lon="8.5660267"><ele>5.0</ele><time>2026-05-01T06:53:19.828Z</time></trkpt><trkpt lat="39.7944517" lon="8.56624"><ele>5.0</ele><time>2026-05-01T06:53:20.828Z</time></trkpt><trkpt lat="39.7944467" lon="8.56646"><ele>5.0</ele><time>2026-05-01T06:53:21.829Z</time></trkpt><trkpt lat="39.794445" lon="8.5666783"><ele>5.0</ele><time>2026-05-01T06:53:22.828Z</time></trkpt><trkpt lat="39.794445" lon="8.56689"><ele>5.333333333333334</ele><time>2026-05-01T06:53:23.829Z</time></trkpt><trkpt lat="39.7944467" lon="8.567105"><ele>5.666666666666667</ele><time>2026-05-01T06:53:24.828Z</time></trkpt><trkpt lat="39.79445" lon="8.5673267"><ele>6.0</ele><time>2026-05-01T06:53:25.828Z</time></trkpt><trkpt lat="39.794455" lon="8.5675517"><ele>6.0</ele><time>2026-05-01T06:53:26.828Z</time></trkpt><trkpt lat="39.7944567" lon="8.56777"><ele>6.0</ele><time>2026-05-01T06:53:27.829Z</time></trkpt><trkpt lat="39.7944583" lon="8.5679967"><ele>6.0</ele><time>2026-05-01T06:53:28.828Z</time></trkpt><trkpt lat="39.7944567" lon="8.5682217"><ele>5.333333333333333</ele><time>2026-05-01T06:53:29.828Z</time></trkpt><trkpt lat="39.7944517" lon="8.5684483"><ele>4.666666666666666</ele><time>2026-05-01T06:53:30.829Z</time></trkpt><trkpt lat="39.794455" lon="8.56867"><ele>4.0</ele><time>2026-05-01T06:53:31.828Z</time></trkpt><trkpt lat="39.794455" lon="8.568885"><ele>4.0</ele><time>2026-05-01T06:53:32.828Z</time></trkpt><trkpt lat="39.7944517" lon="8.5690983"><ele>4.0</ele><time>2026-05-01T06:53:33.828Z</time></trkpt><trkpt lat="39.79445" lon="8.5693183"><ele>4.0</ele><time>2026-05-01T06:53:34.828Z</time></trkpt><trkpt lat="39.79445" lon="8.5695483"><ele>4.333333333333333</ele><time>2026-05-01T06:53:35.828Z</time></trkpt><trkpt lat="39.794455" lon="8.56978"><ele>4.666666666666667</ele><time>2026-05-01T06:53:36.828Z</time></trkpt><trkpt lat="39.7944483" lon="8.5700067"><ele>5.0</ele><time>2026-05-01T06:53:37.829Z</time></trkpt><trkpt lat="39.7944517" lon="8.5702417"><ele>5.333333333333334</ele><time>2026-05-01T06:53:38.828Z</time></trkpt><trkpt lat="39.79445" lon="8.570475"><ele>5.666666666666667</ele><time>2026-05-01T06:53:39.829Z</time></trkpt><trkpt lat="39.794445" lon="8.5707067"><ele>6.0</ele><time>2026-05-01T06:53:40.828Z</time></trkpt><trkpt lat="39.79445" lon="8.570935"><ele>6.0</ele><time>2026-05-01T06:53:41.829Z</time></trkpt><trkpt lat="39.7944517" lon="8.5711667"><ele>6.0</ele><time>2026-05-01T06:53:42.828Z</time></trkpt><trkpt lat="39.794465" lon="8.5714033"><ele>6.0</ele><time>2026-05-01T06:53:43.828Z</time></trkpt><trkpt lat="39.794475" lon="8.57164"><ele>6.666666666666666</ele><time>2026-05-01T06:53:44.828Z</time></trkpt><trkpt lat="39.7944817" lon="8.5718767"><ele>7.333333333333333</ele><time>2026-05-01T06:53:45.828Z</time></trkpt><trkpt lat="39.7944767" lon="8.5721033"><ele>8.0</ele><time>2026-05-01T06:53:46.828Z</time></trkpt><trkpt lat="39.794475" lon="8.572335"><ele>8.0</ele><time>2026-05-01T06:53:47.828Z</time></trkpt><trkpt lat="39.794475" lon="8.5725667"><ele>8.0</ele><time>2026-05-01T06:53:48.828Z</time></trkpt><trkpt lat="39.794475" lon="8.57279"><ele>8.0</ele><time>2026-05-01T06:53:49.828Z</time></trkpt><trkpt lat="39.7944733" lon="8.573005"><ele>8.0</ele><time>2026-05-01T06:53:50.828Z</time></trkpt><trkpt lat="39.7944717" lon="8.5732183"><ele>8.0</ele><time>2026-05-01T06:53:51.828Z</time></trkpt><trkpt lat="39.79447" lon="8.57343"><ele>8.0</ele><time>2026-05-01T06:53:52.828Z</time></trkpt><trkpt lat="39.7944717" lon="8.5736483"><ele>7.333333333333333</ele><time>2026-05-01T06:53:53.828Z</time></trkpt><trkpt lat="39.7944667" lon="8.57386"><ele>6.666666666666666</ele><time>2026-05-01T06:53:54.827Z</time></trkpt><trkpt lat="39.7944667" lon="8.574075"><ele>6.0</ele><time>2026-05-01T06:53:55.828Z</time></trkpt><trkpt lat="39.7944683" lon="8.5742833"><ele>6.0</ele><time>2026-05-01T06:53:56.827Z</time></trkpt><trkpt lat="39.79447" lon="8.574505"><ele>6.0</ele><time>2026-05-01T06:53:57.827Z</time></trkpt><trkpt lat="39.7944717" lon="8.57472"><ele>6.0</ele><time>2026-05-01T06:53:58.827Z</time></trkpt><trkpt lat="39.7944733" lon="8.5749367"><ele>6.0</ele><time>2026-05-01T06:53:59.827Z</time></trkpt><trkpt lat="39.79447" lon="8.5751533"><ele>6.0</ele><time>2026-05-01T06:54:00.827Z</time></trkpt><trkpt lat="39.7944683" lon="8.57537"><ele>6.0</ele><time>2026-05-01T06:54:01.827Z</time></trkpt><trkpt lat="39.7944683" lon="8.57559"><ele>5.666666666666667</ele><time>2026-05-01T06:54:02.828Z</time></trkpt><trkpt lat="39.7944667" lon="8.57581"><ele>5.333333333333334</ele><time>2026-05-01T06:54:03.827Z</time></trkpt><trkpt lat="39.7944683" lon="8.57603"><ele>5.0</ele><time>2026-05-01T06:54:04.827Z</time></trkpt><trkpt lat="39.7944683" lon="8.576245"><ele>5.0</ele><time>2026-05-01T06:54:05.827Z</time></trkpt><trkpt lat="39.7944717" lon="8.576475"><ele>5.0</ele><time>2026-05-01T06:54:06.828Z</time></trkpt><trkpt lat="39.7944767" lon="8.5767083"><ele>5.0</ele><time>2026-05-01T06:54:07.827Z</time></trkpt><trkpt lat="39.7944783" lon="8.57694"><ele>5.0</ele><time>2026-05-01T06:54:08.827Z</time></trkpt><trkpt lat="39.79448" lon="8.577175"><ele>5.0</ele><time>2026-05-01T06:54:09.828Z</time></trkpt><trkpt lat="39.7944767" lon="8.5774083"><ele>5.0</ele><time>2026-05-01T06:54:10.827Z</time></trkpt><trkpt lat="39.7944783" lon="8.57764"><ele>5.666666666666667</ele><time>2026-05-01T06:54:11.827Z</time></trkpt><trkpt lat="39.7944783" lon="8.5778683"><ele>6.333333333333334</ele><time>2026-05-01T06:54:12.827Z</time></trkpt><trkpt lat="39.79448" lon="8.5780933"><ele>7.0</ele><time>2026-05-01T06:54:13.827Z</time></trkpt><trkpt lat="39.7944783" lon="8.57832"><ele>7.0</ele><time>2026-05-01T06:54:14.827Z</time></trkpt><trkpt lat="39.7944783" lon="8.57854"><ele>7.0</ele><time>2026-05-01T06:54:15.828Z</time></trkpt><trkpt lat="39.7944833" lon="8.5787583"><ele>7.0</ele><time>2026-05-01T06:54:16.828Z</time></trkpt><trkpt lat="39.79448" lon="8.57897"><ele>7.0</ele><time>2026-05-01T06:54:17.827Z</time></trkpt><trkpt lat="39.79448" lon="8.5791867"><ele>7.0</ele><time>2026-05-01T06:54:18.828Z</time></trkpt><trkpt lat="39.7944817" lon="8.5794017"><ele>7.0</ele><time>2026-05-01T06:54:19.827Z</time></trkpt><trkpt lat="39.79449" lon="8.5796133"><ele>7.0</ele><time>2026-05-01T06:54:20.827Z</time></trkpt><trkpt lat="39.7944883" lon="8.5798183"><ele>7.0</ele><time>2026-05-01T06:54:21.827Z</time></trkpt><trkpt lat="39.7944883" lon="8.5800217"><ele>7.0</ele><time>2026-05-01T06:54:22.827Z</time></trkpt><trkpt lat="39.7944833" lon="8.5802217"><ele>6.0</ele><time>2026-05-01T06:54:23.827Z</time></trkpt><trkpt lat="39.79448" lon="8.580425"><ele>5.0</ele><time>2026-05-01T06:54:24.827Z</time></trkpt><trkpt lat="39.7944783" lon="8.5806283"><ele>4.0</ele><time>2026-05-01T06:54:25.827Z</time></trkpt><trkpt lat="39.7944817" lon="8.5808267"><ele>4.0</ele><time>2026-05-01T06:54:26.827Z</time></trkpt><trkpt lat="39.7944817" lon="8.581015"><ele>4.0</ele><time>2026-05-01T06:54:27.827Z</time></trkpt><trkpt lat="39.7944867" lon="8.5812033"><ele>4.0</ele><time>2026-05-01T06:54:28.827Z</time></trkpt><trkpt lat="39.7944867" lon="8.5813883"><ele>4.0</ele><time>2026-05-01T06:54:29.827Z</time></trkpt><trkpt lat="39.794485" lon="8.58155"><ele>5.0</ele><time>2026-05-01T06:54:30.828Z</time></trkpt><trkpt lat="39.7944883" lon="8.5816967"><ele>6.0</ele><time>2026-05-01T06:54:31.827Z</time></trkpt><trkpt lat="39.7944867" lon="8.5818133"><ele>7.0</ele><time>2026-05-01T06:54:32.827Z</time></trkpt><trkpt lat="39.7944867" lon="8.5819167"><ele>8.0</ele><time>2026-05-01T06:54:33.827Z</time></trkpt><trkpt lat="39.79446" lon="8.58206"><ele>9.0</ele><time>2026-05-01T06:54:35.827Z</time></trkpt><trkpt lat="39.7943533" lon="8.5821567"><ele>9.2</ele><time>2026-05-01T06:54:37.827Z</time></trkpt><trkpt lat="39.7942817" lon="8.58218"><ele>9.4</ele><time>2026-05-01T06:54:38.828Z</time></trkpt><trkpt lat="39.7941967" lon="8.582185"><ele>9.6</ele><time>2026-05-01T06:54:39.827Z</time></trkpt><trkpt lat="39.7940933" lon="8.58219"><ele>9.8</ele><time>2026-05-01T06:54:40.827Z</time></trkpt><trkpt lat="39.7939817" lon="8.5821983"><ele>10.0</ele><time>2026-05-01T06:54:41.827Z</time></trkpt><trkpt lat="39.7938667" lon="8.5822033"><ele>10.0</ele><time>2026-05-01T06:54:42.827Z</time></trkpt><trkpt lat="39.7937533" lon="8.5822033"><ele>10.0</ele><time>2026-05-01T06:54:43.828Z</time></trkpt><trkpt lat="39.79364" lon="8.5822033"><ele>10.0</ele><time>2026-05-01T06:54:44.828Z</time></trkpt><trkpt lat="39.79352" lon="8.5822033"><ele>10.0</ele><time>2026-05-01T06:54:45.828Z</time></trkpt><trkpt lat="39.7933883" lon="8.582205"><ele>9.5</ele><time>2026-05-01T06:54:46.827Z</time></trkpt><trkpt lat="39.793255" lon="8.5822033"><ele>9.0</ele><time>2026-05-01T06:54:47.827Z</time></trkpt><trkpt lat="39.793125" lon="8.5822"><ele>8.5</ele><time>2026-05-01T06:54:48.827Z</time></trkpt><trkpt lat="39.7929883" lon="8.582205"><ele>8.0</ele><time>2026-05-01T06:54:49.828Z</time></trkpt><trkpt lat="39.7928467" lon="8.582205"><ele>8.0</ele><time>2026-05-01T06:54:50.828Z</time></trkpt><trkpt lat="39.7927033" lon="8.582205"><ele>8.0</ele><time>2026-05-01T06:54:51.827Z</time></trkpt><trkpt lat="39.792555" lon="8.582205"><ele>8.0</ele><time>2026-05-01T06:54:52.827Z</time></trkpt><trkpt lat="39.7924067" lon="8.5822133"><ele>8.0</ele><time>2026-05-01T06:54:53.828Z</time></trkpt><trkpt lat="39.7922517" lon="8.582225"><ele>8.0</ele><time>2026-05-01T06:54:54.827Z</time></trkpt><trkpt lat="39.7920933" lon="8.5822217"><ele>8.0</ele><time>2026-05-01T06:54:55.828Z</time></trkpt><trkpt lat="39.7919333" lon="8.5822233"><ele>8.0</ele><time>2026-05-01T06:54:56.827Z</time></trkpt><trkpt lat="39.791775" lon="8.5822217"><ele>8.0</ele><time>2026-05-01T06:54:57.828Z</time></trkpt><trkpt lat="39.7916167" lon="8.5822167"><ele>8.0</ele><time>2026-05-01T06:54:58.827Z</time></trkpt><trkpt lat="39.791455" lon="8.582215"><ele>8.0</ele><time>2026-05-01T06:54:59.828Z</time></trkpt><trkpt lat="39.791285" lon="8.5822233"><ele>8.0</ele><time>2026-05-01T06:55:00.827Z</time></trkpt><trkpt lat="39.7911167" lon="8.5822333"><ele>8.0</ele><time>2026-05-01T06:55:01.827Z</time></trkpt><trkpt lat="39.7909517" lon="8.58223"><ele>8.0</ele><time>2026-05-01T06:55:02.827Z</time></trkpt><trkpt lat="39.7907917" lon="8.5822317"><ele>8.0</ele><time>2026-05-01T06:55:03.828Z</time></trkpt><trkpt lat="39.7906283" lon="8.582235"><ele>8.0</ele><time>2026-05-01T06:55:04.827Z</time></trkpt><trkpt lat="39.7904667" lon="8.582235"><ele>8.0</ele><time>2026-05-01T06:55:05.827Z</time></trkpt><trkpt lat="39.79031" lon="8.582235"><ele>8.0</ele><time>2026-05-01T06:55:06.827Z</time></trkpt><trkpt lat="39.7901517" lon="8.5822383"><ele>8.0</ele><time>2026-05-01T06:55:07.827Z</time></trkpt><trkpt lat="39.7899933" lon="8.5822383"><ele>8.0</ele><time>2026-05-01T06:55:08.828Z</time></trkpt><trkpt lat="39.7898333" lon="8.5822383"><ele>8.0</ele><time>2026-05-01T06:55:09.827Z</time></trkpt><trkpt lat="39.78967" lon="8.5822317"><ele>8.0</ele><time>2026-05-01T06:55:10.828Z</time></trkpt><trkpt lat="39.78951" lon="8.5822333"><ele>8.0</ele><time>2026-05-01T06:55:11.827Z</time></trkpt><trkpt lat="39.7893467" lon="8.5822317"><ele>8.333333333333332</ele><time>2026-05-01T06:55:12.828Z</time></trkpt><trkpt lat="39.78918" lon="8.582235"><ele>8.666666666666666</ele><time>2026-05-01T06:55:13.827Z</time></trkpt><trkpt lat="39.7890083" lon="8.58224"><ele>9.0</ele><time>2026-05-01T06:55:14.827Z</time></trkpt><trkpt lat="39.7888433" lon="8.58224"><ele>9.0</ele><time>2026-05-01T06:55:15.827Z</time></trkpt><trkpt lat="39.788685" lon="8.5822433"><ele>9.0</ele><time>2026-05-01T06:55:16.827Z</time></trkpt><trkpt lat="39.788525" lon="8.582245"><ele>9.0</ele><time>2026-05-01T06:55:17.827Z</time></trkpt><trkpt lat="39.788365" lon="8.582245"><ele>9.0</ele><time>2026-05-01T06:55:18.827Z</time></trkpt><trkpt lat="39.7882067" lon="8.5822517"><ele>9.0</ele><time>2026-05-01T06:55:19.827Z</time></trkpt><trkpt lat="39.7880333" lon="8.58225"><ele>9.0</ele><time>2026-05-01T06:55:20.828Z</time></trkpt><trkpt lat="39.7878667" lon="8.5822467"><ele>9.0</ele><time>2026-05-01T06:55:21.827Z</time></trkpt><trkpt lat="39.7876983" lon="8.5822483"><ele>9.0</ele><time>2026-05-01T06:55:22.828Z</time></trkpt><trkpt lat="39.7875367" lon="8.5822467"><ele>9.0</ele><time>2026-05-01T06:55:23.827Z</time></trkpt><trkpt lat="39.78737" lon="8.5822583"><ele>9.333333333333334</ele><time>2026-05-01T06:55:24.827Z</time></trkpt><trkpt lat="39.7872033" lon="8.5822617"><ele>9.666666666666668</ele><time>2026-05-01T06:55:25.827Z</time></trkpt><trkpt lat="39.7870383" lon="8.5822683"><ele>10.0</ele><time>2026-05-01T06:55:26.827Z</time></trkpt><trkpt lat="39.7868733" lon="8.5822717"><ele>9.666666666666668</ele><time>2026-05-01T06:55:27.827Z</time></trkpt><trkpt lat="39.7866967" lon="8.58227"><ele>9.333333333333334</ele><time>2026-05-01T06:55:28.827Z</time></trkpt><trkpt lat="39.78652" lon="8.58227"><ele>9.0</ele><time>2026-05-01T06:55:29.827Z</time></trkpt><trkpt lat="39.78635" lon="8.5822733"><ele>9.0</ele><time>2026-05-01T06:55:30.828Z</time></trkpt><trkpt lat="39.7861717" lon="8.58227"><ele>9.0</ele><time>2026-05-01T06:55:31.827Z</time></trkpt><trkpt lat="39.78599" lon="8.5822667"><ele>9.0</ele><time>2026-05-01T06:55:32.827Z</time></trkpt><trkpt lat="39.78581" lon="8.5822633"><ele>8.0</ele><time>2026-05-01T06:55:33.828Z</time></trkpt><trkpt lat="39.7856317" lon="8.5822583"><ele>7.0</ele><time>2026-05-01T06:55:34.827Z</time></trkpt><trkpt lat="39.7854617" lon="8.58225"><ele>6.0</ele><time>2026-05-01T06:55:35.828Z</time></trkpt><trkpt lat="39.7852917" lon="8.5822633"><ele>6.0</ele><time>2026-05-01T06:55:36.827Z</time></trkpt><trkpt lat="39.78512" lon="8.5822667"><ele>6.0</ele><time>2026-05-01T06:55:37.827Z</time></trkpt><trkpt lat="39.784945" lon="8.5822683"><ele>6.0</ele><time>2026-05-01T06:55:38.827Z</time></trkpt><trkpt lat="39.7847767" lon="8.5822717"><ele>6.0</ele><time>2026-05-01T06:55:39.827Z</time></trkpt><trkpt lat="39.7846133" lon="8.582275"><ele>6.0</ele><time>2026-05-01T06:55:40.827Z</time></trkpt><trkpt lat="39.784445" lon="8.5822717"><ele>6.0</ele><time>2026-05-01T06:55:41.827Z</time></trkpt><trkpt lat="39.7842767" lon="8.5822683"><ele>6.0</ele><time>2026-05-01T06:55:42.827Z</time></trkpt><trkpt lat="39.78411" lon="8.58227"><ele>6.0</ele><time>2026-05-01T06:55:43.828Z</time></trkpt><trkpt lat="39.7839467" lon="8.5822683"><ele>6.0</ele><time>2026-05-01T06:55:44.827Z</time></trkpt><trkpt lat="39.7837833" lon="8.5822717"><ele>6.0</ele><time>2026-05-01T06:55:45.827Z</time></trkpt><trkpt lat="39.78362" lon="8.5822717"><ele>6.0</ele><time>2026-05-01T06:55:46.827Z</time></trkpt><trkpt lat="39.7834483" lon="8.5822633"><ele>6.0</ele><time>2026-05-01T06:55:47.828Z</time></trkpt><trkpt lat="39.7832817" lon="8.58227"><ele>6.333333333333334</ele><time>2026-05-01T06:55:48.827Z</time></trkpt><trkpt lat="39.7831167" lon="8.58228"><ele>6.666666666666667</ele><time>2026-05-01T06:55:49.828Z</time></trkpt><trkpt lat="39.7829517" lon="8.5822767"><ele>7.0</ele><time>2026-05-01T06:55:50.827Z</time></trkpt><trkpt lat="39.7827833" lon="8.58228"><ele>7.0</ele><time>2026-05-01T06:55:51.827Z</time></trkpt><trkpt lat="39.7826183" lon="8.5822767"><ele>7.0</ele><time>2026-05-01T06:55:52.827Z</time></trkpt><trkpt lat="39.7824483" lon="8.5822733"><ele>7.0</ele><time>2026-05-01T06:55:53.828Z</time></trkpt><trkpt lat="39.7822767" lon="8.5822717"><ele>7.0</ele><time>2026-05-01T06:55:54.827Z</time></trkpt><trkpt lat="39.7821083" lon="8.58227"><ele>7.0</ele><time>2026-05-01T06:55:55.828Z</time></trkpt><trkpt lat="39.78193" lon="8.58228"><ele>7.0</ele><time>2026-05-01T06:55:56.827Z</time></trkpt><trkpt lat="39.7817533" lon="8.5822883"><ele>7.666666666666667</ele><time>2026-05-01T06:55:57.828Z</time></trkpt><trkpt lat="39.7815733" lon="8.58229"><ele>8.333333333333334</ele><time>2026-05-01T06:55:58.828Z</time></trkpt><trkpt lat="39.7813983" lon="8.582285"><ele>9.0</ele><time>2026-05-01T06:55:59.827Z</time></trkpt><trkpt lat="39.78122" lon="8.58228"><ele>9.0</ele><time>2026-05-01T06:56:00.827Z</time></trkpt><trkpt lat="39.7810433" lon="8.582285"><ele>9.0</ele><time>2026-05-01T06:56:01.827Z</time></trkpt><trkpt lat="39.780875" lon="8.582285"><ele>9.0</ele><time>2026-05-01T06:56:02.827Z</time></trkpt><trkpt lat="39.7807133" lon="8.5822833"><ele>8.666666666666666</ele><time>2026-05-01T06:56:03.828Z</time></trkpt><trkpt lat="39.780555" lon="8.58228"><ele>8.333333333333332</ele><time>2026-05-01T06:56:04.827Z</time></trkpt><trkpt lat="39.7803917" lon="8.5822833"><ele>8.0</ele><time>2026-05-01T06:56:05.827Z</time></trkpt><trkpt lat="39.7802267" lon="8.5822983"><ele>8.333333333333332</ele><time>2026-05-01T06:56:06.827Z</time></trkpt><trkpt lat="39.7800667" lon="8.582305"><ele>8.666666666666666</ele><time>2026-05-01T06:56:07.828Z</time></trkpt><trkpt lat="39.7799133" lon="8.5823017"><ele>9.0</ele><time>2026-05-01T06:56:08.827Z</time></trkpt><trkpt lat="39.7797567" lon="8.5823017"><ele>9.0</ele><time>2026-05-01T06:56:09.828Z</time></trkpt><trkpt lat="39.7796" lon="8.5822983"><ele>9.0</ele><time>2026-05-01T06:56:10.828Z</time></trkpt><trkpt lat="39.779435" lon="8.5823067"><ele>9.0</ele><time>2026-05-01T06:56:11.827Z</time></trkpt><trkpt lat="39.7792717" lon="8.5823033"><ele>9.333333333333334</ele><time>2026-05-01T06:56:12.827Z</time></trkpt><trkpt lat="39.7791167" lon="8.5823033"><ele>9.666666666666668</ele><time>2026-05-01T06:56:13.827Z</time></trkpt><trkpt lat="39.7789617" lon="8.5823"><ele>10.0</ele><time>2026-05-01T06:56:14.828Z</time></trkpt><trkpt lat="39.7788117" lon="8.5823133"><ele>10.0</ele><time>2026-05-01T06:56:15.827Z</time></trkpt><trkpt lat="39.77866" lon="8.5823117"><ele>10.0</ele><time>2026-05-01T06:56:16.828Z</time></trkpt><trkpt lat="39.7785133" lon="8.5823017"><ele>10.0</ele><time>2026-05-01T06:56:17.828Z</time></trkpt><trkpt lat="39.77837" lon="8.5822983"><ele>10.0</ele><time>2026-05-01T06:56:18.827Z</time></trkpt><trkpt lat="39.7782283" lon="8.582295"><ele>10.5</ele><time>2026-05-01T06:56:19.827Z</time></trkpt><trkpt lat="39.7780967" lon="8.5822933"><ele>11.0</ele><time>2026-05-01T06:56:20.827Z</time></trkpt><trkpt lat="39.7779633" lon="8.5822933"><ele>11.5</ele><time>2026-05-01T06:56:21.828Z</time></trkpt><trkpt lat="39.7778333" lon="8.5822933"><ele>12.0</ele><time>2026-05-01T06:56:22.827Z</time></trkpt><trkpt lat="39.7776867" lon="8.58229"><ele>11.5</ele><time>2026-05-01T06:56:23.827Z</time></trkpt><trkpt lat="39.7775383" lon="8.5822967"><ele>11.0</ele><time>2026-05-01T06:56:24.828Z</time></trkpt><trkpt lat="39.777395" lon="8.5823"><ele>10.5</ele><time>2026-05-01T06:56:25.828Z</time></trkpt><trkpt lat="39.77726" lon="8.5823067"><ele>10.0</ele><time>2026-05-01T06:56:26.828Z</time></trkpt><trkpt lat="39.777135" lon="8.5823133"><ele>10.0</ele><time>2026-05-01T06:56:27.827Z</time></trkpt><trkpt lat="39.7770183" lon="8.5823183"><ele>10.0</ele><time>2026-05-01T06:56:28.827Z</time></trkpt><trkpt lat="39.7769133" lon="8.5823217"><ele>10.0</ele><time>2026-05-01T06:56:29.827Z</time></trkpt><trkpt lat="39.7768167" lon="8.5823233"><ele>10.0</ele><time>2026-05-01T06:56:30.828Z</time></trkpt><trkpt lat="39.7767233" lon="8.5823217"><ele>10.0</ele><time>2026-05-01T06:56:31.827Z</time></trkpt><trkpt lat="39.7766317" lon="8.582315"><ele>10.4</ele><time>2026-05-01T06:56:32.827Z</time></trkpt><trkpt lat="39.7765333" lon="8.5823167"><ele>10.8</ele><time>2026-05-01T06:56:33.827Z</time></trkpt><trkpt lat="39.7764217" lon="8.58232"><ele>11.2</ele><time>2026-05-01T06:56:34.827Z</time></trkpt><trkpt lat="39.7763183" lon="8.58232"><ele>11.6</ele><time>2026-05-01T06:56:35.827Z</time></trkpt><trkpt lat="39.7762067" lon="8.5823217"><ele>12.0</ele><time>2026-05-01T06:56:36.828Z</time></trkpt><trkpt lat="39.7760883" lon="8.5823183"><ele>11.75</ele><time>2026-05-01T06:56:37.827Z</time></trkpt><trkpt lat="39.775975" lon="8.582315"><ele>11.5</ele><time>2026-05-01T06:56:38.827Z</time></trkpt><trkpt lat="39.7758583" lon="8.58232"><ele>11.25</ele><time>2026-05-01T06:56:39.827Z</time></trkpt><trkpt lat="39.7757333" lon="8.582335"><ele>11.0</ele><time>2026-05-01T06:56:40.827Z</time></trkpt><trkpt lat="39.77561" lon="8.5823467"><ele>11.0</ele><time>2026-05-01T06:56:41.827Z</time></trkpt><trkpt lat="39.7754817" lon="8.582345"><ele>11.0</ele><time>2026-05-01T06:56:42.827Z</time></trkpt><trkpt lat="39.7753517" lon="8.5823417"><ele>11.0</ele><time>2026-05-01T06:56:43.827Z</time></trkpt><trkpt lat="39.7752267" lon="8.5823467"><ele>11.0</ele><time>2026-05-01T06:56:44.827Z</time></trkpt><trkpt lat="39.775095" lon="8.582345"><ele>10.75</ele><time>2026-05-01T06:56:45.827Z</time></trkpt><trkpt lat="39.774965" lon="8.5823483"><ele>10.5</ele><time>2026-05-01T06:56:46.827Z</time></trkpt><trkpt lat="39.7748267" lon="8.5823533"><ele>10.25</ele><time>2026-05-01T06:56:47.827Z</time></trkpt><trkpt lat="39.774695" lon="8.5823583"><ele>10.0</ele><time>2026-05-01T06:56:48.827Z</time></trkpt><trkpt lat="39.7745767" lon="8.58236"><ele>10.0</ele><time>2026-05-01T06:56:49.827Z</time></trkpt><trkpt lat="39.774455" lon="8.5823417"><ele>10.0</ele><time>2026-05-01T06:56:50.828Z</time></trkpt><trkpt lat="39.7743283" lon="8.582335"><ele>10.0</ele><time>2026-05-01T06:56:51.827Z</time></trkpt><trkpt lat="39.7742017" lon="8.582345"><ele>10.0</ele><time>2026-05-01T06:56:52.828Z</time></trkpt><trkpt lat="39.7740783" lon="8.5823567"><ele>10.4</ele><time>2026-05-01T06:56:53.827Z</time></trkpt><trkpt lat="39.77397" lon="8.5823567"><ele>10.8</ele><time>2026-05-01T06:56:54.827Z</time></trkpt><trkpt lat="39.7738883" lon="8.5823533"><ele>11.2</ele><time>2026-05-01T06:56:55.827Z</time></trkpt><trkpt lat="39.7738217" lon="8.5823567"><ele>11.6</ele><time>2026-05-01T06:56:56.827Z</time></trkpt><trkpt lat="39.7737183" lon="8.5823583"><ele>12.0</ele><time>2026-05-01T06:56:58.827Z</time></trkpt><trkpt lat="39.7736083" lon="8.58237"><ele>11.6</ele><time>2026-05-01T06:57:00.826Z</time></trkpt><trkpt lat="39.7734767" lon="8.5823733"><ele>11.2</ele><time>2026-05-01T06:57:02.826Z</time></trkpt><trkpt lat="39.7734" lon="8.5823667"><ele>10.8</ele><time>2026-05-01T06:57:03.826Z</time></trkpt><trkpt lat="39.7733183" lon="8.58237"><ele>10.4</ele><time>2026-05-01T06:57:04.826Z</time></trkpt><trkpt lat="39.7732383" lon="8.58237"><ele>10.0</ele><time>2026-05-01T06:57:05.827Z</time></trkpt><trkpt lat="39.7731533" lon="8.58237"><ele>10.0</ele><time>2026-05-01T06:57:06.827Z</time></trkpt><trkpt lat="39.7730583" lon="8.5823717"><ele>10.0</ele><time>2026-05-01T06:57:07.826Z</time></trkpt><trkpt lat="39.77295" lon="8.5823717"><ele>10.0</ele><time>2026-05-01T06:57:08.826Z</time></trkpt><trkpt lat="39.77284" lon="8.58237"><ele>10.0</ele><time>2026-05-01T06:57:09.827Z</time></trkpt><trkpt lat="39.7727267" lon="8.58237"><ele>10.0</ele><time>2026-05-01T06:57:10.827Z</time></trkpt><trkpt lat="39.7726133" lon="8.5823667"><ele>9.75</ele><time>2026-05-01T06:57:11.827Z</time></trkpt><trkpt lat="39.7725" lon="8.5823667"><ele>9.5</ele><time>2026-05-01T06:57:12.827Z</time></trkpt><trkpt lat="39.7723833" lon="8.58237"><ele>9.25</ele><time>2026-05-01T06:57:13.826Z</time></trkpt><trkpt lat="39.7722617" lon="8.5823717"><ele>9.0</ele><time>2026-05-01T06:57:14.826Z</time></trkpt><trkpt lat="39.772145" lon="8.582365"><ele>9.0</ele><time>2026-05-01T06:57:15.827Z</time></trkpt><trkpt lat="39.7720217" lon="8.582365"><ele>9.0</ele><time>2026-05-01T06:57:16.827Z</time></trkpt><trkpt lat="39.77189" lon="8.582365"><ele>9.0</ele><time>2026-05-01T06:57:17.826Z</time></trkpt><trkpt lat="39.77175" lon="8.58237"><ele>9.0</ele><time>2026-05-01T06:57:18.827Z</time></trkpt><trkpt lat="39.7716183" lon="8.5823667"><ele>9.0</ele><time>2026-05-01T06:57:19.826Z</time></trkpt><trkpt lat="39.7714817" lon="8.58237"><ele>9.0</ele><time>2026-05-01T06:57:20.827Z</time></trkpt><trkpt lat="39.7713433" lon="8.5823683"><ele>9.0</ele><time>2026-05-01T06:57:21.827Z</time></trkpt><trkpt lat="39.7712083" lon="8.5823717"><ele>9.0</ele><time>2026-05-01T06:57:22.826Z</time></trkpt><trkpt lat="39.7710767" lon="8.582375"><ele>9.25</ele><time>2026-05-01T06:57:23.826Z</time></trkpt><trkpt lat="39.7709467" lon="8.5823683"><ele>9.5</ele><time>2026-05-01T06:57:24.826Z</time></trkpt><trkpt lat="39.7708333" lon="8.5823767"><ele>9.75</ele><time>2026-05-01T06:57:25.826Z</time></trkpt><trkpt lat="39.77073" lon="8.582385"><ele>10.0</ele><time>2026-05-01T06:57:26.826Z</time></trkpt><trkpt lat="39.7706233" lon="8.582385"><ele>10.0</ele><time>2026-05-01T06:57:27.826Z</time></trkpt><trkpt lat="39.7705167" lon="8.582385"><ele>10.0</ele><time>2026-05-01T06:57:28.826Z</time></trkpt><trkpt lat="39.7704033" lon="8.5823933"><ele>10.0</ele><time>2026-05-01T06:57:29.827Z</time></trkpt><trkpt lat="39.7702917" lon="8.5823933"><ele>10.0</ele><time>2026-05-01T06:57:30.826Z</time></trkpt><trkpt lat="39.770175" lon="8.58239"><ele>10.0</ele><time>2026-05-01T06:57:31.827Z</time></trkpt><trkpt lat="39.7700517" lon="8.5823933"><ele>10.25</ele><time>2026-05-01T06:57:32.826Z</time></trkpt><trkpt lat="39.76993" lon="8.582395"><ele>10.5</ele><time>2026-05-01T06:57:33.826Z</time></trkpt><trkpt lat="39.76981" lon="8.5823867"><ele>10.75</ele><time>2026-05-01T06:57:34.827Z</time></trkpt><trkpt lat="39.769695" lon="8.5823783"><ele>11.0</ele><time>2026-05-01T06:57:35.826Z</time></trkpt><trkpt lat="39.7695717" lon="8.5823817"><ele>11.0</ele><time>2026-05-01T06:57:36.826Z</time></trkpt><trkpt lat="39.7694383" lon="8.5823833"><ele>11.0</ele><time>2026-05-01T06:57:37.826Z</time></trkpt><trkpt lat="39.7692933" lon="8.5823867"><ele>11.0</ele><time>2026-05-01T06:57:38.826Z</time></trkpt><trkpt lat="39.769145" lon="8.58239"><ele>11.0</ele><time>2026-05-01T06:57:39.826Z</time></trkpt><trkpt lat="39.7689883" lon="8.5823833"><ele>11.0</ele><time>2026-05-01T06:57:40.826Z</time></trkpt><trkpt lat="39.7688283" lon="8.5823767"><ele>11.0</ele><time>2026-05-01T06:57:41.827Z</time></trkpt><trkpt lat="39.768675" lon="8.5823783"><ele>11.0</ele><time>2026-05-01T06:57:42.826Z</time></trkpt><trkpt lat="39.768535" lon="8.5823783"><ele>11.333333333333332</ele><time>2026-05-01T06:57:43.826Z</time></trkpt><trkpt lat="39.76839" lon="8.5823783"><ele>11.666666666666666</ele><time>2026-05-01T06:57:44.827Z</time></trkpt><trkpt lat="39.7682367" lon="8.58238"><ele>12.0</ele><time>2026-05-01T06:57:45.826Z</time></trkpt><trkpt lat="39.7680833" lon="8.5823783"><ele>12.0</ele><time>2026-05-01T06:57:46.826Z</time></trkpt><trkpt lat="39.767935" lon="8.582375"><ele>12.0</ele><time>2026-05-01T06:57:47.826Z</time></trkpt><trkpt lat="39.7677783" lon="8.5823817"><ele>12.0</ele><time>2026-05-01T06:57:48.826Z</time></trkpt><trkpt lat="39.76762" lon="8.5823883"><ele>11.666666666666666</ele><time>2026-05-01T06:57:49.826Z</time></trkpt><trkpt lat="39.7674533" lon="8.582385"><ele>11.333333333333332</ele><time>2026-05-01T06:57:50.827Z</time></trkpt><trkpt lat="39.7672933" lon="8.58238"><ele>11.0</ele><time>2026-05-01T06:57:51.826Z</time></trkpt><trkpt lat="39.7671383" lon="8.5823783"><ele>11.0</ele><time>2026-05-01T06:57:52.826Z</time></trkpt><trkpt lat="39.76698" lon="8.5823817"><ele>11.0</ele><time>2026-05-01T06:57:53.826Z</time></trkpt><trkpt lat="39.7668183" lon="8.5823833"><ele>11.0</ele><time>2026-05-01T06:57:54.827Z</time></trkpt><trkpt lat="39.7666583" lon="8.58239"><ele>10.666666666666666</ele><time>2026-05-01T06:57:55.827Z</time></trkpt><trkpt lat="39.7665" lon="8.5823933"><ele>10.333333333333334</ele><time>2026-05-01T06:57:56.827Z</time></trkpt><trkpt lat="39.7663433" lon="8.5823867"><ele>10.0</ele><time>2026-05-01T06:57:57.827Z</time></trkpt><trkpt lat="39.7661933" lon="8.582385"><ele>10.0</ele><time>2026-05-01T06:57:58.826Z</time></trkpt><trkpt lat="39.76605" lon="8.5823883"><ele>10.0</ele><time>2026-05-01T06:57:59.826Z</time></trkpt><trkpt lat="39.7659033" lon="8.5823883"><ele>10.0</ele><time>2026-05-01T06:58:00.826Z</time></trkpt><trkpt lat="39.765745" lon="8.5823983"><ele>10.0</ele><time>2026-05-01T06:58:01.827Z</time></trkpt><trkpt lat="39.76559" lon="8.5823917"><ele>10.0</ele><time>2026-05-01T06:58:02.826Z</time></trkpt><trkpt lat="39.76544" lon="8.58239"><ele>10.0</ele><time>2026-05-01T06:58:03.826Z</time></trkpt><trkpt lat="39.76529" lon="8.5823917"><ele>10.0</ele><time>2026-05-01T06:58:04.826Z</time></trkpt><trkpt lat="39.7651333" lon="8.582395"><ele>10.666666666666668</ele><time>2026-05-01T06:58:05.827Z</time></trkpt><trkpt lat="39.7649767" lon="8.5823983"><ele>11.333333333333334</ele><time>2026-05-01T06:58:06.827Z</time></trkpt><trkpt lat="39.76482" lon="8.5824017"><ele>12.0</ele><time>2026-05-01T06:58:07.826Z</time></trkpt><trkpt lat="39.764665" lon="8.5824"><ele>12.0</ele><time>2026-05-01T06:58:08.826Z</time></trkpt><trkpt lat="39.7645083" lon="8.5823917"><ele>12.0</ele><time>2026-05-01T06:58:09.826Z</time></trkpt><trkpt lat="39.764345" lon="8.5824"><ele>12.0</ele><time>2026-05-01T06:58:10.826Z</time></trkpt><trkpt lat="39.7641783" lon="8.5824083"><ele>11.333333333333334</ele><time>2026-05-01T06:58:11.826Z</time></trkpt><trkpt lat="39.7640083" lon="8.58241"><ele>10.666666666666668</ele><time>2026-05-01T06:58:12.827Z</time></trkpt><trkpt lat="39.763835" lon="8.5824083"><ele>10.0</ele><time>2026-05-01T06:58:13.826Z</time></trkpt><trkpt lat="39.7636617" lon="8.5824083"><ele>9.333333333333334</ele><time>2026-05-01T06:58:14.826Z</time></trkpt><trkpt lat="39.76349" lon="8.5824117"><ele>8.666666666666666</ele><time>2026-05-01T06:58:15.826Z</time></trkpt><trkpt lat="39.7633233" lon="8.582415"><ele>8.0</ele><time>2026-05-01T06:58:16.826Z</time></trkpt><trkpt lat="39.763155" lon="8.582415"><ele>8.0</ele><time>2026-05-01T06:58:17.826Z</time></trkpt><trkpt lat="39.762985" lon="8.5824233"><ele>8.0</ele><time>2026-05-01T06:58:18.827Z</time></trkpt><trkpt lat="39.7628167" lon="8.58243"><ele>8.0</ele><time>2026-05-01T06:58:19.826Z</time></trkpt><trkpt lat="39.76265" lon="8.5824283"><ele>7.666666666666666</ele><time>2026-05-01T06:58:20.826Z</time></trkpt><trkpt lat="39.762485" lon="8.5824333"><ele>7.333333333333334</ele><time>2026-05-01T06:58:21.826Z</time></trkpt><trkpt lat="39.7623183" lon="8.5824367"><ele>7.0</ele><time>2026-05-01T06:58:22.826Z</time></trkpt><trkpt lat="39.7621567" lon="8.5824367"><ele>7.0</ele><time>2026-05-01T06:58:23.826Z</time></trkpt><trkpt lat="39.762" lon="8.58244"><ele>7.0</ele><time>2026-05-01T06:58:24.826Z</time></trkpt><trkpt lat="39.7618483" lon="8.5824367"><ele>7.0</ele><time>2026-05-01T06:58:25.826Z</time></trkpt><trkpt lat="39.7616967" lon="8.5824383"><ele>7.333333333333334</ele><time>2026-05-01T06:58:26.827Z</time></trkpt><trkpt lat="39.7615433" lon="8.5824417"><ele>7.666666666666666</ele><time>2026-05-01T06:58:27.827Z</time></trkpt><trkpt lat="39.7613867" lon="8.5824383"><ele>8.0</ele><time>2026-05-01T06:58:28.826Z</time></trkpt><trkpt lat="39.761235" lon="8.582435"><ele>8.0</ele><time>2026-05-01T06:58:29.826Z</time></trkpt><trkpt lat="39.7610817" lon="8.5824283"><ele>8.0</ele><time>2026-05-01T06:58:30.826Z</time></trkpt><trkpt lat="39.7609283" lon="8.5824317"><ele>8.0</ele><time>2026-05-01T06:58:31.826Z</time></trkpt><trkpt lat="39.7607733" lon="8.5824317"><ele>8.0</ele><time>2026-05-01T06:58:32.826Z</time></trkpt><trkpt lat="39.7606133" lon="8.5824367"><ele>8.0</ele><time>2026-05-01T06:58:33.826Z</time></trkpt><trkpt lat="39.7604433" lon="8.5824417"><ele>8.0</ele><time>2026-05-01T06:58:34.826Z</time></trkpt><trkpt lat="39.7602767" lon="8.5824383"><ele>9.0</ele><time>2026-05-01T06:58:35.826Z</time></trkpt><trkpt lat="39.760115" lon="8.5824417"><ele>10.0</ele><time>2026-05-01T06:58:36.826Z</time></trkpt><trkpt lat="39.7599583" lon="8.5824467"><ele>11.0</ele><time>2026-05-01T06:58:37.826Z</time></trkpt><trkpt lat="39.7597917" lon="8.5824533"><ele>11.0</ele><time>2026-05-01T06:58:38.827Z</time></trkpt><trkpt lat="39.7596217" lon="8.5824533"><ele>11.0</ele><time>2026-05-01T06:58:39.826Z</time></trkpt><trkpt lat="39.7594517" lon="8.5824533"><ele>11.0</ele><time>2026-05-01T06:58:40.826Z</time></trkpt><trkpt lat="39.7592883" lon="8.5824617"><ele>10.333333333333332</ele><time>2026-05-01T06:58:41.826Z</time></trkpt><trkpt lat="39.759115" lon="8.5824667"><ele>9.666666666666666</ele><time>2026-05-01T06:58:42.826Z</time></trkpt><trkpt lat="39.758955" lon="8.5824717"><ele>9.0</ele><time>2026-05-01T06:58:43.826Z</time></trkpt><trkpt lat="39.7587983" lon="8.5824733"><ele>9.0</ele><time>2026-05-01T06:58:44.826Z</time></trkpt><trkpt lat="39.7586467" lon="8.582475"><ele>9.0</ele><time>2026-05-01T06:58:45.826Z</time></trkpt><trkpt lat="39.7585" lon="8.5824667"><ele>9.0</ele><time>2026-05-01T06:58:46.826Z</time></trkpt><trkpt lat="39.7583533" lon="8.5824633"><ele>9.0</ele><time>2026-05-01T06:58:47.826Z</time></trkpt><trkpt lat="39.758205" lon="8.5824683"><ele>9.0</ele><time>2026-05-01T06:58:48.826Z</time></trkpt><trkpt lat="39.7580617" lon="8.5824617"><ele>9.0</ele><time>2026-05-01T06:58:49.826Z</time></trkpt><trkpt lat="39.7579233" lon="8.5824483"><ele>9.0</ele><time>2026-05-01T06:58:50.827Z</time></trkpt><trkpt lat="39.7578017" lon="8.582405"><ele>9.0</ele><time>2026-05-01T06:58:51.826Z</time></trkpt><trkpt lat="39.7576867" lon="8.5823367"><ele>9.0</ele><time>2026-05-01T06:58:52.827Z</time></trkpt><trkpt lat="39.7575817" lon="8.5822567"><ele>9.0</ele><time>2026-05-01T06:58:53.826Z</time></trkpt><trkpt lat="39.7574717" lon="8.5822067"><ele>9.0</ele><time>2026-05-01T06:58:54.827Z</time></trkpt><trkpt lat="39.7573683" lon="8.5821767"><ele>9.0</ele><time>2026-05-01T06:58:55.827Z</time></trkpt><trkpt lat="39.7572717" lon="8.5821933"><ele>9.0</ele><time>2026-05-01T06:58:56.826Z</time></trkpt><trkpt lat="39.7571883" lon="8.5822333"><ele>9.0</ele><time>2026-05-01T06:58:57.826Z</time></trkpt><trkpt lat="39.7571" lon="8.5823117"><ele>9.0</ele><time>2026-05-01T06:58:58.826Z</time></trkpt><trkpt lat="39.7570067" lon="8.58239"><ele>9.0</ele><time>2026-05-01T06:58:59.826Z</time></trkpt><trkpt lat="39.75689" lon="8.58244"><ele>9.0</ele><time>2026-05-01T06:59:00.826Z</time></trkpt><trkpt lat="39.75676" lon="8.5824633"><ele>9.0</ele><time>2026-05-01T06:59:01.826Z</time></trkpt><trkpt lat="39.7566133" lon="8.5824767"><ele>9.0</ele><time>2026-05-01T06:59:02.826Z</time></trkpt><trkpt lat="39.7564533" lon="8.5824833"><ele>9.0</ele><time>2026-05-01T06:59:03.826Z</time></trkpt><trkpt lat="39.756295" lon="8.5824817"><ele>9.0</ele><time>2026-05-01T06:59:04.827Z</time></trkpt><trkpt lat="39.75614" lon="8.582475"><ele>9.0</ele><time>2026-05-01T06:59:05.827Z</time></trkpt><trkpt lat="39.755985" lon="8.58248"><ele>9.0</ele><time>2026-05-01T06:59:06.826Z</time></trkpt><trkpt lat="39.7558333" lon="8.58248"><ele>9.0</ele><time>2026-05-01T06:59:07.826Z</time></trkpt><trkpt lat="39.755675" lon="8.5824917"><ele>9.0</ele><time>2026-05-01T06:59:08.826Z</time></trkpt><trkpt lat="39.7555217" lon="8.582485"><ele>9.0</ele><time>2026-05-01T06:59:09.827Z</time></trkpt><trkpt lat="39.75537" lon="8.5824667"><ele>9.0</ele><time>2026-05-01T06:59:10.826Z</time></trkpt><trkpt lat="39.7552083" lon="8.582475"><ele>9.0</ele><time>2026-05-01T06:59:11.827Z</time></trkpt><trkpt lat="39.7550467" lon="8.58248"><ele>9.0</ele><time>2026-05-01T06:59:12.827Z</time></trkpt><trkpt lat="39.7548867" lon="8.5824767"><ele>9.0</ele><time>2026-05-01T06:59:13.827Z</time></trkpt><trkpt lat="39.7547317" lon="8.58247"><ele>9.0</ele><time>2026-05-01T06:59:14.827Z</time></trkpt><trkpt lat="39.7545717" lon="8.582475"><ele>9.0</ele><time>2026-05-01T06:59:15.826Z</time></trkpt><trkpt lat="39.7544083" lon="8.5824733"><ele>9.333333333333334</ele><time>2026-05-01T06:59:16.827Z</time></trkpt><trkpt lat="39.7542533" lon="8.5824783"><ele>9.666666666666668</ele><time>2026-05-01T06:59:17.826Z</time></trkpt><trkpt lat="39.754095" lon="8.5824733"><ele>10.0</ele><time>2026-05-01T06:59:18.826Z</time></trkpt><trkpt lat="39.7539333" lon="8.5824783"><ele>10.0</ele><time>2026-05-01T06:59:19.827Z</time></trkpt><trkpt lat="39.7537817" lon="8.582485"><ele>10.0</ele><time>2026-05-01T06:59:20.827Z</time></trkpt><trkpt lat="39.7536233" lon="8.5824917"><ele>10.0</ele><time>2026-05-01T06:59:21.826Z</time></trkpt><trkpt lat="39.7534617" lon="8.58249"><ele>10.0</ele><time>2026-05-01T06:59:22.827Z</time></trkpt><trkpt lat="39.753305" lon="8.5824933"><ele>10.0</ele><time>2026-05-01T06:59:23.826Z</time></trkpt><trkpt lat="39.7531433" lon="8.5824967"><ele>10.0</ele><time>2026-05-01T06:59:24.826Z</time></trkpt><trkpt lat="39.752985" lon="8.582495"><ele>10.0</ele><time>2026-05-01T06:59:25.826Z</time></trkpt><trkpt lat="39.7528283" lon="8.5824933"><ele>10.0</ele><time>2026-05-01T06:59:26.826Z</time></trkpt><trkpt lat="39.7526667" lon="8.582495"><ele>10.0</ele><time>2026-05-01T06:59:27.826Z</time></trkpt><trkpt lat="39.7525033" lon="8.5824983"><ele>10.0</ele><time>2026-05-01T06:59:28.827Z</time></trkpt><trkpt lat="39.7523433" lon="8.5824983"><ele>10.0</ele><time>2026-05-01T06:59:29.826Z</time></trkpt><trkpt lat="39.7521833" lon="8.582495"><ele>10.0</ele><time>2026-05-01T06:59:30.826Z</time></trkpt><trkpt lat="39.7520183" lon="8.582505"><ele>9.333333333333334</ele><time>2026-05-01T06:59:31.826Z</time></trkpt><trkpt lat="39.75185" lon="8.5825083"><ele>8.666666666666666</ele><time>2026-05-01T06:59:32.827Z</time></trkpt><trkpt lat="39.7516817" lon="8.5825117"><ele>8.0</ele><time>2026-05-01T06:59:33.827Z</time></trkpt><trkpt lat="39.7515167" lon="8.582515"><ele>8.0</ele><time>2026-05-01T06:59:34.826Z</time></trkpt><trkpt lat="39.7513567" lon="8.5825167"><ele>8.0</ele><time>2026-05-01T06:59:35.826Z</time></trkpt><trkpt lat="39.7512" lon="8.58252"><ele>8.0</ele><time>2026-05-01T06:59:36.826Z</time></trkpt><trkpt lat="39.7510417" lon="8.5825233"><ele>8.0</ele><time>2026-05-01T06:59:37.826Z</time></trkpt><trkpt lat="39.75089" lon="8.5825283"><ele>8.0</ele><time>2026-05-01T06:59:38.827Z</time></trkpt><trkpt lat="39.7507367" lon="8.582535"><ele>8.0</ele><time>2026-05-01T06:59:39.827Z</time></trkpt><trkpt lat="39.7505883" lon="8.5825467"><ele>8.0</ele><time>2026-05-01T06:59:40.826Z</time></trkpt><trkpt lat="39.7504533" lon="8.5825567"><ele>8.0</ele><time>2026-05-01T06:59:41.826Z</time></trkpt><trkpt lat="39.7503333" lon="8.5825567"><ele>8.0</ele><time>2026-05-01T06:59:42.826Z</time></trkpt><trkpt lat="39.750225" lon="8.5825467"><ele>8.0</ele><time>2026-05-01T06:59:43.827Z</time></trkpt><trkpt lat="39.75013" lon="8.5825033"><ele>8.0</ele><time>2026-05-01T06:59:44.826Z</time></trkpt><trkpt lat="39.75003" lon="8.58246"><ele>8.0</ele><time>2026-05-01T06:59:45.826Z</time></trkpt><trkpt lat="39.74993" lon="8.5824367"><ele>8.0</ele><time>2026-05-01T06:59:46.827Z</time></trkpt><trkpt lat="39.7498383" lon="8.582455"><ele>8.0</ele><time>2026-05-01T06:59:47.826Z</time></trkpt><trkpt lat="39.7497383" lon="8.58251"><ele>8.0</ele><time>2026-05-01T06:59:48.826Z</time></trkpt><trkpt lat="39.7496167" lon="8.5825533"><ele>8.0</ele><time>2026-05-01T06:59:49.826Z</time></trkpt><trkpt lat="39.7494733" lon="8.5825467"><ele>8.0</ele><time>2026-05-01T06:59:50.826Z</time></trkpt><trkpt lat="39.749325" lon="8.5825333"><ele>8.0</ele><time>2026-05-01T06:59:51.826Z</time></trkpt><trkpt lat="39.7491717" lon="8.58253"><ele>8.0</ele><time>2026-05-01T06:59:52.826Z</time></trkpt><trkpt lat="39.7490167" lon="8.5825267"><ele>8.666666666666666</ele><time>2026-05-01T06:59:53.826Z</time></trkpt><trkpt lat="39.7488617" lon="8.5825267"><ele>9.333333333333334</ele><time>2026-05-01T06:59:54.827Z</time></trkpt><trkpt lat="39.7487017" lon="8.5825233"><ele>10.0</ele><time>2026-05-01T06:59:55.826Z</time></trkpt><trkpt lat="39.7485383" lon="8.5825217"><ele>10.333333333333334</ele><time>2026-05-01T06:59:56.827Z</time></trkpt><trkpt lat="39.7483717" lon="8.5825233"><ele>10.666666666666666</ele><time>2026-05-01T06:59:57.827Z</time></trkpt><trkpt lat="39.7482" lon="8.582515"><ele>11.0</ele><time>2026-05-01T06:59:58.825Z</time></trkpt><trkpt lat="39.7480283" lon="8.58251"><ele>11.0</ele><time>2026-05-01T06:59:59.825Z</time></trkpt><trkpt lat="39.7478617" lon="8.5825133"><ele>11.0</ele><time>2026-05-01T07:00:00.825Z</time></trkpt><trkpt lat="39.7476983" lon="8.5825167"><ele>11.0</ele><time>2026-05-01T07:00:01.825Z</time></trkpt><trkpt lat="39.747525" lon="8.5825317"><ele>11.333333333333332</ele><time>2026-05-01T07:00:02.825Z</time></trkpt><trkpt lat="39.7473483" lon="8.582545"><ele>11.666666666666666</ele><time>2026-05-01T07:00:03.825Z</time></trkpt><trkpt lat="39.7471717" lon="8.5825483"><ele>12.0</ele><time>2026-05-01T07:00:04.826Z</time></trkpt><trkpt lat="39.747" lon="8.582545"><ele>11.666666666666666</ele><time>2026-05-01T07:00:05.825Z</time></trkpt><trkpt lat="39.7468267" lon="8.5825417"><ele>11.333333333333332</ele><time>2026-05-01T07:00:06.825Z</time></trkpt><trkpt lat="39.74666" lon="8.5825483"><ele>11.0</ele><time>2026-05-01T07:00:07.825Z</time></trkpt><trkpt lat="39.7464817" lon="8.58254"><ele>11.0</ele><time>2026-05-01T07:00:08.825Z</time></trkpt><trkpt lat="39.7463067" lon="8.5825417"><ele>11.0</ele><time>2026-05-01T07:00:09.825Z</time></trkpt><trkpt lat="39.7461283" lon="8.5825367"><ele>11.0</ele><time>2026-05-01T07:00:10.826Z</time></trkpt><trkpt lat="39.745955" lon="8.5825367"><ele>11.333333333333332</ele><time>2026-05-01T07:00:11.825Z</time></trkpt><trkpt lat="39.74579" lon="8.582535"><ele>11.666666666666666</ele><time>2026-05-01T07:00:12.825Z</time></trkpt><trkpt lat="39.745625" lon="8.5825483"><ele>12.0</ele><time>2026-05-01T07:00:13.824Z</time></trkpt><trkpt lat="39.7454667" lon="8.5825417"><ele>12.0</ele><time>2026-05-01T07:00:14.825Z</time></trkpt><trkpt lat="39.7453067" lon="8.58254"><ele>12.0</ele><time>2026-05-01T07:00:15.825Z</time></trkpt><trkpt lat="39.7451433" lon="8.5825433"><ele>12.0</ele><time>2026-05-01T07:00:16.825Z</time></trkpt><trkpt lat="39.744975" lon="8.5825483"><ele>12.0</ele><time>2026-05-01T07:00:17.826Z</time></trkpt><trkpt lat="39.7448083" lon="8.582545"><ele>12.0</ele><time>2026-05-01T07:00:18.825Z</time></trkpt><trkpt lat="39.7446367" lon="8.5825467"><ele>12.0</ele><time>2026-05-01T07:00:19.826Z</time></trkpt><trkpt lat="39.7444783" lon="8.58254"><ele>12.333333333333332</ele><time>2026-05-01T07:00:20.825Z</time></trkpt><trkpt lat="39.74431" lon="8.582545"><ele>12.666666666666666</ele><time>2026-05-01T07:00:21.825Z</time></trkpt><trkpt lat="39.7441483" lon="8.582555"><ele>13.0</ele><time>2026-05-01T07:00:22.826Z</time></trkpt><trkpt lat="39.7439883" lon="8.58256"><ele>13.0</ele><time>2026-05-01T07:00:23.825Z</time></trkpt><trkpt lat="39.7438317" lon="8.582565"><ele>13.0</ele><time>2026-05-01T07:00:24.825Z</time></trkpt><trkpt lat="39.7436733" lon="8.5825683"><ele>13.0</ele><time>2026-05-01T07:00:25.825Z</time></trkpt><trkpt lat="39.743515" lon="8.58257"><ele>12.666666666666666</ele><time>2026-05-01T07:00:26.825Z</time></trkpt><trkpt lat="39.743355" lon="8.58257"><ele>12.333333333333332</ele><time>2026-05-01T07:00:27.825Z</time></trkpt><trkpt lat="39.743195" lon="8.582575"><ele>12.0</ele><time>2026-05-01T07:00:28.825Z</time></trkpt><trkpt lat="39.743035" lon="8.5825817"><ele>12.0</ele><time>2026-05-01T07:00:29.825Z</time></trkpt><trkpt lat="39.742865" lon="8.5825783"><ele>12.0</ele><time>2026-05-01T07:00:30.826Z</time></trkpt><trkpt lat="39.7426983" lon="8.582575"><ele>12.0</ele><time>2026-05-01T07:00:31.825Z</time></trkpt><trkpt lat="39.7425267" lon="8.5825817"><ele>11.333333333333334</ele><time>2026-05-01T07:00:32.826Z</time></trkpt><trkpt lat="39.7423483" lon="8.5825783"><ele>10.666666666666668</ele><time>2026-05-01T07:00:33.826Z</time></trkpt><trkpt lat="39.7421833" lon="8.5825767"><ele>10.0</ele><time>2026-05-01T07:00:34.825Z</time></trkpt><trkpt lat="39.7420183" lon="8.5825733"><ele>10.0</ele><time>2026-05-01T07:00:35.826Z</time></trkpt><trkpt lat="39.7418583" lon="8.5825683"><ele>10.0</ele><time>2026-05-01T07:00:36.825Z</time></trkpt><trkpt lat="39.7417017" lon="8.5825633"><ele>10.0</ele><time>2026-05-01T07:00:37.825Z</time></trkpt><trkpt lat="39.7415417" lon="8.58256"><ele>10.0</ele><time>2026-05-01T07:00:38.826Z</time></trkpt><trkpt lat="39.7413783" lon="8.5825683"><ele>10.0</ele><time>2026-05-01T07:00:39.825Z</time></trkpt><trkpt lat="39.741215" lon="8.5825783"><ele>10.0</ele><time>2026-05-01T07:00:40.826Z</time></trkpt><trkpt lat="39.7410517" lon="8.5825833"><ele>10.0</ele><time>2026-05-01T07:00:41.825Z</time></trkpt><trkpt lat="39.74089" lon="8.58258"><ele>10.0</ele><time>2026-05-01T07:00:42.825Z</time></trkpt><trkpt lat="39.7407267" lon="8.582575"><ele>10.0</ele><time>2026-05-01T07:00:43.825Z</time></trkpt><trkpt lat="39.7405733" lon="8.582575"><ele>10.0</ele><time>2026-05-01T07:00:44.825Z</time></trkpt><trkpt lat="39.740415" lon="8.5825683"><ele>10.0</ele><time>2026-05-01T07:00:45.825Z</time></trkpt><trkpt lat="39.7402583" lon="8.5825717"><ele>10.0</ele><time>2026-05-01T07:00:46.826Z</time></trkpt><trkpt lat="39.7400967" lon="8.5825683"><ele>10.333333333333334</ele><time>2026-05-01T07:00:47.825Z</time></trkpt><trkpt lat="39.7399333" lon="8.5825733"><ele>10.666666666666666</ele><time>2026-05-01T07:00:48.825Z</time></trkpt><trkpt lat="39.7397617" lon="8.58258"><ele>11.0</ele><time>2026-05-01T07:00:49.826Z</time></trkpt><trkpt lat="39.7395967" lon="8.58259"><ele>11.0</ele><time>2026-05-01T07:00:50.826Z</time></trkpt><trkpt lat="39.7394283" lon="8.5825917"><ele>11.0</ele><time>2026-05-01T07:00:51.825Z</time></trkpt><trkpt lat="39.7392717" lon="8.5825883"><ele>11.0</ele><time>2026-05-01T07:00:52.826Z</time></trkpt><trkpt lat="39.73911" lon="8.5825867"><ele>11.333333333333332</ele><time>2026-05-01T07:00:53.825Z</time></trkpt><trkpt lat="39.7389367" lon="8.582585"><ele>11.666666666666666</ele><time>2026-05-01T07:00:54.825Z</time></trkpt><trkpt lat="39.7387683" lon="8.5825833"><ele>12.0</ele><time>2026-05-01T07:00:55.825Z</time></trkpt><trkpt lat="39.7386067" lon="8.5825833"><ele>11.333333333333334</ele><time>2026-05-01T07:00:56.826Z</time></trkpt><trkpt lat="39.73845" lon="8.5825833"><ele>10.666666666666668</ele><time>2026-05-01T07:00:57.825Z</time></trkpt><trkpt lat="39.7382933" lon="8.5825883"><ele>10.0</ele><time>2026-05-01T07:00:58.825Z</time></trkpt><trkpt lat="39.7381333" lon="8.582585"><ele>10.0</ele><time>2026-05-01T07:00:59.826Z</time></trkpt><trkpt lat="39.7379783" lon="8.582585"><ele>10.0</ele><time>2026-05-01T07:01:00.826Z</time></trkpt><trkpt lat="39.7378133" lon="8.5825883"><ele>10.0</ele><time>2026-05-01T07:01:01.825Z</time></trkpt><trkpt lat="39.7376517" lon="8.5825933"><ele>10.333333333333334</ele><time>2026-05-01T07:01:02.826Z</time></trkpt><trkpt lat="39.73749" lon="8.582595"><ele>10.666666666666666</ele><time>2026-05-01T07:01:03.825Z</time></trkpt><trkpt lat="39.7373433" lon="8.5825917"><ele>11.0</ele><time>2026-05-01T07:01:04.825Z</time></trkpt><trkpt lat="39.7371883" lon="8.5825883"><ele>11.0</ele><time>2026-05-01T07:01:05.825Z</time></trkpt><trkpt lat="39.7370267" lon="8.582585"><ele>11.0</ele><time>2026-05-01T07:01:06.825Z</time></trkpt><trkpt lat="39.73686" lon="8.582585"><ele>11.0</ele><time>2026-05-01T07:01:07.826Z</time></trkpt><trkpt lat="39.7367067" lon="8.5825833"><ele>10.75</ele><time>2026-05-01T07:01:08.826Z</time></trkpt><trkpt lat="39.7365633" lon="8.5825733"><ele>10.5</ele><time>2026-05-01T07:01:09.826Z</time></trkpt><trkpt lat="39.7364217" lon="8.582565"><ele>10.25</ele><time>2026-05-01T07:01:10.826Z</time></trkpt><trkpt lat="39.7362867" lon="8.582555"><ele>10.0</ele><time>2026-05-01T07:01:11.825Z</time></trkpt><trkpt lat="39.736155" lon="8.582555"><ele>10.0</ele><time>2026-05-01T07:01:12.825Z</time></trkpt><trkpt lat="39.73606" lon="8.5825633"><ele>10.0</ele><time>2026-05-01T07:01:13.826Z</time></trkpt><trkpt lat="39.7359617" lon="8.5825617"><ele>10.0</ele><time>2026-05-01T07:01:14.825Z</time></trkpt><trkpt lat="39.735865" lon="8.5825583"><ele>10.0</ele><time>2026-05-01T07:01:15.825Z</time></trkpt><trkpt lat="39.7357817" lon="8.58253"><ele>10.0</ele><time>2026-05-01T07:01:16.825Z</time></trkpt><trkpt lat="39.735725" lon="8.582485"><ele>10.0</ele><time>2026-05-01T07:01:17.825Z</time></trkpt><trkpt lat="39.7356767" lon="8.58243"><ele>10.0</ele><time>2026-05-01T07:01:18.826Z</time></trkpt><trkpt lat="39.7356467" lon="8.5823533"><ele>10.0</ele><time>2026-05-01T07:01:19.826Z</time></trkpt><trkpt lat="39.7356333" lon="8.582245"><ele>10.0</ele><time>2026-05-01T07:01:20.825Z</time></trkpt><trkpt lat="39.7356317" lon="8.5821167"><ele>10.0</ele><time>2026-05-01T07:01:21.826Z</time></trkpt><trkpt lat="39.7356417" lon="8.5819667"><ele>10.0</ele><time>2026-05-01T07:01:22.826Z</time></trkpt><trkpt lat="39.7356517" lon="8.5818067"><ele>10.0</ele><time>2026-05-01T07:01:23.826Z</time></trkpt><trkpt lat="39.735655" lon="8.5816567"><ele>10.0</ele><time>2026-05-01T07:01:24.826Z</time></trkpt><trkpt lat="39.73565" lon="8.5814683"><ele>10.0</ele><time>2026-05-01T07:01:25.825Z</time></trkpt><trkpt lat="39.73565" lon="8.5812733"><ele>10.0</ele><time>2026-05-01T07:01:26.825Z</time></trkpt><trkpt lat="39.735645" lon="8.581075"><ele>10.0</ele><time>2026-05-01T07:01:27.825Z</time></trkpt><trkpt lat="39.7356467" lon="8.5808783"><ele>10.0</ele><time>2026-05-01T07:01:28.826Z</time></trkpt><trkpt lat="39.7356383" lon="8.5806817"><ele>10.0</ele><time>2026-05-01T07:01:29.826Z</time></trkpt><trkpt lat="39.7356317" lon="8.580485"><ele>10.0</ele><time>2026-05-01T07:01:30.826Z</time></trkpt><trkpt lat="39.7356383" lon="8.5802867"><ele>10.0</ele><time>2026-05-01T07:01:31.825Z</time></trkpt><trkpt lat="39.7356417" lon="8.5801"><ele>10.0</ele><time>2026-05-01T07:01:32.825Z</time></trkpt><trkpt lat="39.7356383" lon="8.5799267"><ele>10.0</ele><time>2026-05-01T07:01:33.825Z</time></trkpt><trkpt lat="39.73564" lon="8.5797583"><ele>10.0</ele><time>2026-05-01T07:01:34.825Z</time></trkpt><trkpt lat="39.735635" lon="8.5796083"><ele>10.0</ele><time>2026-05-01T07:01:35.826Z</time></trkpt><trkpt lat="39.7356367" lon="8.57945"><ele>10.0</ele><time>2026-05-01T07:01:36.825Z</time></trkpt><trkpt lat="39.735635" lon="8.5792867"><ele>10.0</ele><time>2026-05-01T07:01:37.825Z</time></trkpt><trkpt lat="39.7356317" lon="8.5791233"><ele>10.0</ele><time>2026-05-01T07:01:38.825Z</time></trkpt><trkpt lat="39.73563" lon="8.5789533"><ele>10.0</ele><time>2026-05-01T07:01:39.825Z</time></trkpt><trkpt lat="39.7356217" lon="8.57878"><ele>10.0</ele><time>2026-05-01T07:01:40.826Z</time></trkpt><trkpt lat="39.73562" lon="8.5785983"><ele>10.0</ele><time>2026-05-01T07:01:41.826Z</time></trkpt><trkpt lat="39.7356217" lon="8.5784267"><ele>10.0</ele><time>2026-05-01T07:01:42.825Z</time></trkpt><trkpt lat="39.73562" lon="8.5782483"><ele>10.0</ele><time>2026-05-01T07:01:43.825Z</time></trkpt><trkpt lat="39.735625" lon="8.5780617"><ele>10.0</ele><time>2026-05-01T07:01:44.825Z</time></trkpt><trkpt lat="39.7356233" lon="8.57788"><ele>10.0</ele><time>2026-05-01T07:01:45.825Z</time></trkpt><trkpt lat="39.7356283" lon="8.5776883"><ele>9.75</ele><time>2026-05-01T07:01:46.825Z</time></trkpt><trkpt lat="39.7356233" lon="8.5775033"><ele>9.5</ele><time>2026-05-01T07:01:47.826Z</time></trkpt><trkpt lat="39.735625" lon="8.5773217"><ele>9.25</ele><time>2026-05-01T07:01:48.826Z</time></trkpt><trkpt lat="39.7356267" lon="8.5771583"><ele>9.0</ele><time>2026-05-01T07:01:49.825Z</time></trkpt><trkpt lat="39.73563" lon="8.5769983"><ele>8.8</ele><time>2026-05-01T07:01:50.825Z</time></trkpt><trkpt lat="39.73563" lon="8.576835"><ele>8.600000000000001</ele><time>2026-05-01T07:01:51.825Z</time></trkpt><trkpt lat="39.7356317" lon="8.5767083"><ele>8.4</ele><time>2026-05-01T07:01:52.826Z</time></trkpt><trkpt lat="39.7356317" lon="8.5766033"><ele>8.200000000000001</ele><time>2026-05-01T07:01:53.825Z</time></trkpt><trkpt lat="39.7356" lon="8.5764767"><ele>8.0</ele><time>2026-05-01T07:01:55.825Z</time></trkpt><trkpt lat="39.73553" lon="8.5764533"><ele>8.0</ele><time>2026-05-01T07:01:57.825Z</time></trkpt><trkpt lat="39.7354017" lon="8.576455"><ele>8.0</ele><time>2026-05-01T07:01:59.825Z</time></trkpt><trkpt lat="39.7353183" lon="8.5764583"><ele>8.0</ele><time>2026-05-01T07:02:00.825Z</time></trkpt><trkpt lat="39.7352383" lon="8.5764617"><ele>8.0</ele><time>2026-05-01T07:02:01.826Z</time></trkpt><trkpt lat="39.73515" lon="8.5764667"><ele>8.0</ele><time>2026-05-01T07:02:02.825Z</time></trkpt><trkpt lat="39.73506" lon="8.5764717"><ele>8.0</ele><time>2026-05-01T07:02:03.825Z</time></trkpt><trkpt lat="39.7349667" lon="8.5764683"><ele>8.0</ele><time>2026-05-01T07:02:04.825Z</time></trkpt><trkpt lat="39.73487" lon="8.57647"><ele>8.0</ele><time>2026-05-01T07:02:05.826Z</time></trkpt><trkpt lat="39.734775" lon="8.5764733"><ele>8.0</ele><time>2026-05-01T07:02:06.825Z</time></trkpt><trkpt lat="39.7346783" lon="8.5764733"><ele>8.0</ele><time>2026-05-01T07:02:07.825Z</time></trkpt><trkpt lat="39.734585" lon="8.5764717"><ele>8.0</ele><time>2026-05-01T07:02:08.826Z</time></trkpt><trkpt lat="39.73449" lon="8.5764667"><ele>8.0</ele><time>2026-05-01T07:02:09.825Z</time></trkpt><trkpt lat="39.7343983" lon="8.5764633"><ele>8.0</ele><time>2026-05-01T07:02:10.825Z</time></trkpt><trkpt lat="39.7343033" lon="8.5764667"><ele>8.0</ele><time>2026-05-01T07:02:11.826Z</time></trkpt><trkpt lat="39.7342133" lon="8.5764633"><ele>8.0</ele><time>2026-05-01T07:02:12.825Z</time></trkpt><trkpt lat="39.7341217" lon="8.5764583"><ele>8.200000000000001</ele><time>2026-05-01T07:02:13.825Z</time></trkpt><trkpt lat="39.73403" lon="8.5764567"><ele>8.4</ele><time>2026-05-01T07:02:14.826Z</time></trkpt><trkpt lat="39.73394" lon="8.576455"><ele>8.600000000000001</ele><time>2026-05-01T07:02:15.825Z</time></trkpt><trkpt lat="39.73385" lon="8.5764533"><ele>8.8</ele><time>2026-05-01T07:02:16.825Z</time></trkpt><trkpt lat="39.7337583" lon="8.5764433"><ele>9.0</ele><time>2026-05-01T07:02:17.825Z</time></trkpt><trkpt lat="39.7336633" lon="8.576425"><ele>9.0</ele><time>2026-05-01T07:02:18.826Z</time></trkpt><trkpt lat="39.7335567" lon="8.5764317"><ele>9.0</ele><time>2026-05-01T07:02:19.825Z</time></trkpt><trkpt lat="39.7334567" lon="8.576435"><ele>9.0</ele><time>2026-05-01T07:02:20.825Z</time></trkpt><trkpt lat="39.7333633" lon="8.5764467"><ele>9.0</ele><time>2026-05-01T07:02:21.825Z</time></trkpt><trkpt lat="39.7332833" lon="8.5764483"><ele>9.0</ele><time>2026-05-01T07:02:22.825Z</time></trkpt><trkpt lat="39.7332" lon="8.5764617"><ele>9.0</ele><time>2026-05-01T07:02:23.825Z</time></trkpt><trkpt lat="39.7331367" lon="8.57646"><ele>9.0</ele><time>2026-05-01T07:02:24.825Z</time></trkpt><trkpt lat="39.7330483" lon="8.5764517"><ele>9.0</ele><time>2026-05-01T07:02:26.825Z</time></trkpt><trkpt lat="39.7330167" lon="8.5763767"><ele>9.0</ele><time>2026-05-01T07:02:28.825Z</time></trkpt><trkpt lat="39.7330267" lon="8.57621"><ele>9.0</ele><time>2026-05-01T07:02:30.825Z</time></trkpt><trkpt lat="39.7330283" lon="8.5761117"><ele>9.0</ele><time>2026-05-01T07:02:31.826Z</time></trkpt><trkpt lat="39.7330283" lon="8.5760033"><ele>9.0</ele><time>2026-05-01T07:02:32.825Z</time></trkpt><trkpt lat="39.7330267" lon="8.5758883"><ele>9.0</ele><time>2026-05-01T07:02:33.825Z</time></trkpt><trkpt lat="39.7330233" lon="8.57576"><ele>9.0</ele><time>2026-05-01T07:02:34.825Z</time></trkpt><trkpt lat="39.7330267" lon="8.5756283"><ele>9.0</ele><time>2026-05-01T07:02:35.825Z</time></trkpt><trkpt lat="39.7330283" lon="8.575495"><ele>9.0</ele><time>2026-05-01T07:02:36.826Z</time></trkpt><trkpt lat="39.7330267" lon="8.57537"><ele>8.6</ele><time>2026-05-01T07:02:37.825Z</time></trkpt><trkpt lat="39.733025" lon="8.57524"><ele>8.2</ele><time>2026-05-01T07:02:38.826Z</time></trkpt><trkpt lat="39.733025" lon="8.5751033"><ele>7.799999999999999</ele><time>2026-05-01T07:02:39.825Z</time></trkpt><trkpt lat="39.7330217" lon="8.574975"><ele>7.3999999999999995</ele><time>2026-05-01T07:02:40.826Z</time></trkpt><trkpt lat="39.7330217" lon="8.574835"><ele>7.0</ele><time>2026-05-01T07:02:41.825Z</time></trkpt><trkpt lat="39.73302" lon="8.574685"><ele>7.0</ele><time>2026-05-01T07:02:42.826Z</time></trkpt><trkpt lat="39.7330183" lon="8.5745417"><ele>6.999999999999999</ele><time>2026-05-01T07:02:43.825Z</time></trkpt><trkpt lat="39.7330183" lon="8.5744"><ele>6.999999999999999</ele><time>2026-05-01T07:02:44.826Z</time></trkpt><trkpt lat="39.7330183" lon="8.574255"><ele>7.0</ele><time>2026-05-01T07:02:45.825Z</time></trkpt><trkpt lat="39.7330117" lon="8.5741117"><ele>7.0</ele><time>2026-05-01T07:02:46.825Z</time></trkpt><trkpt lat="39.7330133" lon="8.573955"><ele>7.25</ele><time>2026-05-01T07:02:47.825Z</time></trkpt><trkpt lat="39.7330067" lon="8.5738033"><ele>7.5</ele><time>2026-05-01T07:02:48.825Z</time></trkpt><trkpt lat="39.73301" lon="8.5736517"><ele>7.75</ele><time>2026-05-01T07:02:49.826Z</time></trkpt><trkpt lat="39.7330167" lon="8.5734933"><ele>8.0</ele><time>2026-05-01T07:02:50.825Z</time></trkpt><trkpt lat="39.733015" lon="8.5733367"><ele>7.5</ele><time>2026-05-01T07:02:51.825Z</time></trkpt><trkpt lat="39.733015" lon="8.57319"><ele>7.0</ele><time>2026-05-01T07:02:52.826Z</time></trkpt><trkpt lat="39.7330117" lon="8.5730417"><ele>6.5</ele><time>2026-05-01T07:02:53.825Z</time></trkpt><trkpt lat="39.7330083" lon="8.5728867"><ele>6.0</ele><time>2026-05-01T07:02:54.825Z</time></trkpt><trkpt lat="39.7330083" lon="8.5727317"><ele>5.5</ele><time>2026-05-01T07:02:55.825Z</time></trkpt><trkpt lat="39.7330067" lon="8.5725633"><ele>5.0</ele><time>2026-05-01T07:02:56.825Z</time></trkpt><trkpt lat="39.7330017" lon="8.5723983"><ele>4.5</ele><time>2026-05-01T07:02:57.825Z</time></trkpt><trkpt lat="39.733" lon="8.5722417"><ele>4.0</ele><time>2026-05-01T07:02:58.826Z</time></trkpt><trkpt lat="39.733005" lon="8.5720867"><ele>4.0</ele><time>2026-05-01T07:02:59.825Z</time></trkpt><trkpt lat="39.733005" lon="8.5719283"><ele>4.0</ele><time>2026-05-01T07:03:00.825Z</time></trkpt><trkpt lat="39.7330083" lon="8.5717917"><ele>4.0</ele><time>2026-05-01T07:03:01.825Z</time></trkpt><trkpt lat="39.733005" lon="8.5716617"><ele>4.0</ele><time>2026-05-01T07:03:02.826Z</time></trkpt><trkpt lat="39.733" lon="8.5715317"><ele>4.0</ele><time>2026-05-01T07:03:03.825Z</time></trkpt><trkpt lat="39.7329983" lon="8.5714067"><ele>4.0</ele><time>2026-05-01T07:03:04.826Z</time></trkpt><trkpt lat="39.7329967" lon="8.5712767"><ele>4.0</ele><time>2026-05-01T07:03:05.825Z</time></trkpt><trkpt lat="39.7330067" lon="8.5711417"><ele>4.0</ele><time>2026-05-01T07:03:06.826Z</time></trkpt><trkpt lat="39.7330183" lon="8.5709933"><ele>4.0</ele><time>2026-05-01T07:03:07.825Z</time></trkpt><trkpt lat="39.7330233" lon="8.570845"><ele>4.0</ele><time>2026-05-01T07:03:08.824Z</time></trkpt><trkpt lat="39.7330233" lon="8.570695"><ele>4.2</ele><time>2026-05-01T07:03:09.825Z</time></trkpt><trkpt lat="39.73302" lon="8.570545"><ele>4.4</ele><time>2026-05-01T07:03:10.825Z</time></trkpt><trkpt lat="39.73302" lon="8.5703967"><ele>4.6</ele><time>2026-05-01T07:03:11.824Z</time></trkpt><trkpt lat="39.7330167" lon="8.570255"><ele>4.8</ele><time>2026-05-01T07:03:12.824Z</time></trkpt><trkpt lat="39.7330133" lon="8.5701167"><ele>5.0</ele><time>2026-05-01T07:03:13.824Z</time></trkpt><trkpt lat="39.7330133" lon="8.56998"><ele>5.0</ele><time>2026-05-01T07:03:14.825Z</time></trkpt><trkpt lat="39.7330133" lon="8.5698417"><ele>5.0</ele><time>2026-05-01T07:03:15.824Z</time></trkpt><trkpt lat="39.7330117" lon="8.5697017"><ele>5.0</ele><time>2026-05-01T07:03:16.825Z</time></trkpt><trkpt lat="39.73301" lon="8.56956"><ele>5.0</ele><time>2026-05-01T07:03:17.824Z</time></trkpt><trkpt lat="39.7330067" lon="8.569425"><ele>5.0</ele><time>2026-05-01T07:03:18.825Z</time></trkpt><trkpt lat="39.7330067" lon="8.56929"><ele>5.0</ele><time>2026-05-01T07:03:19.824Z</time></trkpt><trkpt lat="39.7330067" lon="8.5691417"><ele>5.0</ele><time>2026-05-01T07:03:20.825Z</time></trkpt><trkpt lat="39.7330033" lon="8.568995"><ele>5.0</ele><time>2026-05-01T07:03:21.824Z</time></trkpt><trkpt lat="39.733005" lon="8.5688517"><ele>5.0</ele><time>2026-05-01T07:03:22.825Z</time></trkpt><trkpt lat="39.7330017" lon="8.5687067"><ele>5.0</ele><time>2026-05-01T07:03:23.824Z</time></trkpt><trkpt lat="39.7330033" lon="8.5685567"><ele>5.5</ele><time>2026-05-01T07:03:24.825Z</time></trkpt><trkpt lat="39.733" lon="8.5684033"><ele>6.0</ele><time>2026-05-01T07:03:25.824Z</time></trkpt><trkpt lat="39.7329967" lon="8.568245"><ele>6.5</ele><time>2026-05-01T07:03:26.824Z</time></trkpt><trkpt lat="39.732995" lon="8.5680783"><ele>7.0</ele><time>2026-05-01T07:03:27.824Z</time></trkpt><trkpt lat="39.7329967" lon="8.56791"><ele>7.25</ele><time>2026-05-01T07:03:28.825Z</time></trkpt><trkpt lat="39.7329967" lon="8.56775"><ele>7.5</ele><time>2026-05-01T07:03:29.825Z</time></trkpt><trkpt lat="39.7329967" lon="8.567595"><ele>7.75</ele><time>2026-05-01T07:03:30.824Z</time></trkpt><trkpt lat="39.7329933" lon="8.56744"><ele>8.0</ele><time>2026-05-01T07:03:31.825Z</time></trkpt><trkpt lat="39.7329967" lon="8.5672767"><ele>8.0</ele><time>2026-05-01T07:03:32.824Z</time></trkpt><trkpt lat="39.732995" lon="8.5671133"><ele>8.0</ele><time>2026-05-01T07:03:33.824Z</time></trkpt><trkpt lat="39.7329917" lon="8.56696"><ele>8.0</ele><time>2026-05-01T07:03:34.824Z</time></trkpt><trkpt lat="39.7329883" lon="8.5668117"><ele>8.0</ele><time>2026-05-01T07:03:35.824Z</time></trkpt><trkpt lat="39.73299" lon="8.5666683"><ele>7.800000000000001</ele><time>2026-05-01T07:03:36.824Z</time></trkpt><trkpt lat="39.73299" lon="8.56653"><ele>7.6000000000000005</ele><time>2026-05-01T07:03:37.825Z</time></trkpt><trkpt lat="39.73299" lon="8.566405"><ele>7.3999999999999995</ele><time>2026-05-01T07:03:38.824Z</time></trkpt><trkpt lat="39.7329883" lon="8.5662817"><ele>7.199999999999999</ele><time>2026-05-01T07:03:39.824Z</time></trkpt><trkpt lat="39.7329883" lon="8.56616"><ele>7.0</ele><time>2026-05-01T07:03:40.824Z</time></trkpt><trkpt lat="39.7329867" lon="8.566035"><ele>7.0</ele><time>2026-05-01T07:03:41.824Z</time></trkpt><trkpt lat="39.73299" lon="8.565905"><ele>6.999999999999999</ele><time>2026-05-01T07:03:42.824Z</time></trkpt><trkpt lat="39.7329867" lon="8.5657783"><ele>6.999999999999999</ele><time>2026-05-01T07:03:43.824Z</time></trkpt><trkpt lat="39.732985" lon="8.56564"><ele>7.0</ele><time>2026-05-01T07:03:44.825Z</time></trkpt><trkpt lat="39.7329767" lon="8.565505"><ele>7.0</ele><time>2026-05-01T07:03:45.824Z</time></trkpt><trkpt lat="39.7329817" lon="8.565355"><ele>6.75</ele><time>2026-05-01T07:03:46.824Z</time></trkpt><trkpt lat="39.7329833" lon="8.5652083"><ele>6.5</ele><time>2026-05-01T07:03:47.825Z</time></trkpt><trkpt lat="39.7329817" lon="8.5650533"><ele>6.25</ele><time>2026-05-01T07:03:48.824Z</time></trkpt><trkpt lat="39.732985" lon="8.5649067"><ele>6.0</ele><time>2026-05-01T07:03:49.824Z</time></trkpt><trkpt lat="39.7329883" lon="8.5647633"><ele>6.0</ele><time>2026-05-01T07:03:50.825Z</time></trkpt><trkpt lat="39.732985" lon="8.5646167"><ele>6.0</ele><time>2026-05-01T07:03:51.824Z</time></trkpt><trkpt lat="39.7329817" lon="8.5644683"><ele>6.0</ele><time>2026-05-01T07:03:52.824Z</time></trkpt><trkpt lat="39.73298" lon="8.5643233"><ele>6.0</ele><time>2026-05-01T07:03:53.825Z</time></trkpt><trkpt lat="39.7329817" lon="8.56418"><ele>6.0</ele><time>2026-05-01T07:03:54.824Z</time></trkpt><trkpt lat="39.7329783" lon="8.5640333"><ele>6.199999999999999</ele><time>2026-05-01T07:03:55.824Z</time></trkpt><trkpt lat="39.7329783" lon="8.5638933"><ele>6.3999999999999995</ele><time>2026-05-01T07:03:56.824Z</time></trkpt><trkpt lat="39.7329733" lon="8.56375"><ele>6.6</ele><time>2026-05-01T07:03:57.824Z</time></trkpt><trkpt lat="39.732975" lon="8.563605"><ele>6.8</ele><time>2026-05-01T07:03:58.825Z</time></trkpt><trkpt lat="39.7329717" lon="8.5634533"><ele>7.0</ele><time>2026-05-01T07:03:59.825Z</time></trkpt><trkpt lat="39.73297" lon="8.5633"><ele>7.0</ele><time>2026-05-01T07:04:00.824Z</time></trkpt><trkpt lat="39.73297" lon="8.5631467"><ele>7.0</ele><time>2026-05-01T07:04:01.824Z</time></trkpt><trkpt lat="39.7329667" lon="8.5629917"><ele>7.0</ele><time>2026-05-01T07:04:02.825Z</time></trkpt><trkpt lat="39.7329617" lon="8.5628367"><ele>7.0</ele><time>2026-05-01T07:04:03.825Z</time></trkpt><trkpt lat="39.73296" lon="8.5626817"><ele>7.199999999999999</ele><time>2026-05-01T07:04:04.824Z</time></trkpt><trkpt lat="39.7329633" lon="8.56253"><ele>7.3999999999999995</ele><time>2026-05-01T07:04:05.825Z</time></trkpt><trkpt lat="39.7329633" lon="8.5623833"><ele>7.6000000000000005</ele><time>2026-05-01T07:04:06.824Z</time></trkpt><trkpt lat="39.73296" lon="8.5622467"><ele>7.800000000000001</ele><time>2026-05-01T07:04:07.825Z</time></trkpt><trkpt lat="39.7329617" lon="8.5621"><ele>8.0</ele><time>2026-05-01T07:04:08.825Z</time></trkpt><trkpt lat="39.732965" lon="8.5619517"><ele>8.200000000000001</ele><time>2026-05-01T07:04:09.824Z</time></trkpt><trkpt lat="39.73297" lon="8.5617967"><ele>8.4</ele><time>2026-05-01T07:04:10.825Z</time></trkpt><trkpt lat="39.732965" lon="8.561655"><ele>8.600000000000001</ele><time>2026-05-01T07:04:11.824Z</time></trkpt><trkpt lat="39.7329617" lon="8.5615067"><ele>8.8</ele><time>2026-05-01T07:04:12.824Z</time></trkpt><trkpt lat="39.7329533" lon="8.5613717"><ele>9.0</ele><time>2026-05-01T07:04:13.824Z</time></trkpt><trkpt lat="39.73295" lon="8.5612267"><ele>8.8</ele><time>2026-05-01T07:04:14.825Z</time></trkpt><trkpt lat="39.73295" lon="8.5610783"><ele>8.600000000000001</ele><time>2026-05-01T07:04:15.825Z</time></trkpt><trkpt lat="39.7329483" lon="8.56093"><ele>8.4</ele><time>2026-05-01T07:04:16.824Z</time></trkpt><trkpt lat="39.7329467" lon="8.5607867"><ele>8.200000000000001</ele><time>2026-05-01T07:04:17.825Z</time></trkpt><trkpt lat="39.732945" lon="8.560645"><ele>8.0</ele><time>2026-05-01T07:04:18.824Z</time></trkpt><trkpt lat="39.7329433" lon="8.5605017"><ele>8.0</ele><time>2026-05-01T07:04:19.824Z</time></trkpt><trkpt lat="39.7329333" lon="8.56036"><ele>8.0</ele><time>2026-05-01T07:04:20.824Z</time></trkpt><trkpt lat="39.732925" lon="8.5602083"><ele>8.0</ele><time>2026-05-01T07:04:21.825Z</time></trkpt><trkpt lat="39.732925" lon="8.56006"><ele>8.0</ele><time>2026-05-01T07:04:22.825Z</time></trkpt><trkpt lat="39.7329267" lon="8.5599083"><ele>8.0</ele><time>2026-05-01T07:04:23.824Z</time></trkpt><trkpt lat="39.7329233" lon="8.559755"><ele>8.0</ele><time>2026-05-01T07:04:24.824Z</time></trkpt><trkpt lat="39.7329267" lon="8.5596083"><ele>8.0</ele><time>2026-05-01T07:04:25.825Z</time></trkpt><trkpt lat="39.7329267" lon="8.55947"><ele>8.0</ele><time>2026-05-01T07:04:26.824Z</time></trkpt><trkpt lat="39.7329317" lon="8.5593367"><ele>8.0</ele><time>2026-05-01T07:04:27.824Z</time></trkpt><trkpt lat="39.7329417" lon="8.5592067"><ele>8.0</ele><time>2026-05-01T07:04:28.824Z</time></trkpt><trkpt lat="39.73295" lon="8.559085"><ele>8.0</ele><time>2026-05-01T07:04:29.824Z</time></trkpt><trkpt lat="39.7329617" lon="8.5589567"><ele>8.0</ele><time>2026-05-01T07:04:30.824Z</time></trkpt><trkpt lat="39.7329617" lon="8.55883"><ele>8.0</ele><time>2026-05-01T07:04:31.824Z</time></trkpt><trkpt lat="39.7329533" lon="8.5587067"><ele>8.0</ele><time>2026-05-01T07:04:32.824Z</time></trkpt><trkpt lat="39.7329483" lon="8.5585783"><ele>7.75</ele><time>2026-05-01T07:04:33.824Z</time></trkpt><trkpt lat="39.7329517" lon="8.55844"><ele>7.5</ele><time>2026-05-01T07:04:34.824Z</time></trkpt><trkpt lat="39.732955" lon="8.5582983"><ele>7.25</ele><time>2026-05-01T07:04:35.825Z</time></trkpt><trkpt lat="39.7329567" lon="8.5581383"><ele>7.0</ele><time>2026-05-01T07:04:36.824Z</time></trkpt><trkpt lat="39.7329567" lon="8.55799"><ele>7.0</ele><time>2026-05-01T07:04:37.825Z</time></trkpt><trkpt lat="39.73296" lon="8.5578467"><ele>7.0</ele><time>2026-05-01T07:04:38.824Z</time></trkpt><trkpt lat="39.7329517" lon="8.5576883"><ele>7.0</ele><time>2026-05-01T07:04:39.825Z</time></trkpt><trkpt lat="39.7329533" lon="8.5575283"><ele>7.0</ele><time>2026-05-01T07:04:40.825Z</time></trkpt><trkpt lat="39.7329467" lon="8.5573667"><ele>7.0</ele><time>2026-05-01T07:04:41.824Z</time></trkpt><trkpt lat="39.7329433" lon="8.5572117"><ele>6.999999999999999</ele><time>2026-05-01T07:04:42.824Z</time></trkpt><trkpt lat="39.7329433" lon="8.55706"><ele>6.999999999999999</ele><time>2026-05-01T07:04:43.825Z</time></trkpt><trkpt lat="39.732945" lon="8.5569133"><ele>7.0</ele><time>2026-05-01T07:04:44.825Z</time></trkpt><trkpt lat="39.73294" lon="8.556785"><ele>7.0</ele><time>2026-05-01T07:04:45.824Z</time></trkpt><trkpt lat="39.732945" lon="8.55666"><ele>6.833333333333334</ele><time>2026-05-01T07:04:46.824Z</time></trkpt><trkpt lat="39.732945" lon="8.5565383"><ele>6.666666666666667</ele><time>2026-05-01T07:04:47.825Z</time></trkpt><trkpt lat="39.73294" lon="8.5564267"><ele>6.5</ele><time>2026-05-01T07:04:48.824Z</time></trkpt><trkpt lat="39.7329367" lon="8.5563217"><ele>6.333333333333334</ele><time>2026-05-01T07:04:49.825Z</time></trkpt><trkpt lat="39.7329367" lon="8.5562317"><ele>6.166666666666667</ele><time>2026-05-01T07:04:50.824Z</time></trkpt><trkpt lat="39.7329367" lon="8.5561383"><ele>6.0</ele><time>2026-05-01T07:04:51.825Z</time></trkpt><trkpt lat="39.7329333" lon="8.55597"><ele>5.8</ele><time>2026-05-01T07:04:53.824Z</time></trkpt><trkpt lat="39.7329333" lon="8.55588"><ele>5.6</ele><time>2026-05-01T07:04:54.825Z</time></trkpt><trkpt lat="39.732935" lon="8.55573"><ele>5.4</ele><time>2026-05-01T07:04:56.825Z</time></trkpt><trkpt lat="39.7329367" lon="8.55562"><ele>5.2</ele><time>2026-05-01T07:04:58.824Z</time></trkpt><trkpt lat="39.7329417" lon="8.5554367"><ele>5.0</ele><time>2026-05-01T07:07:30.824Z</time></trkpt><trkpt lat="39.7328417" lon="8.5554217"><ele>5.0</ele><time>2026-05-01T07:08:34.823Z</time></trkpt><trkpt lat="39.7327783" lon="8.5554283"><ele>5.0</ele><time>2026-05-01T07:08:35.823Z</time></trkpt><trkpt lat="39.7327017" lon="8.5554233"><ele>5.0</ele><time>2026-05-01T07:08:36.823Z</time></trkpt><trkpt lat="39.7326183" lon="8.5554317"><ele>5.0</ele><time>2026-05-01T07:08:37.823Z</time></trkpt><trkpt lat="39.7325383" lon="8.55544"><ele>5.0</ele><time>2026-05-01T07:08:38.823Z</time></trkpt><trkpt lat="39.7324517" lon="8.555445"><ele>5.0</ele><time>2026-05-01T07:08:39.823Z</time></trkpt><trkpt lat="39.73236" lon="8.555445"><ele>5.0</ele><time>2026-05-01T07:08:40.823Z</time></trkpt><trkpt lat="39.7322517" lon="8.5554433"><ele>5.0</ele><time>2026-05-01T07:08:41.824Z</time></trkpt><trkpt lat="39.7321367" lon="8.5554417"><ele>5.0</ele><time>2026-05-01T07:08:42.824Z</time></trkpt><trkpt lat="39.73201" lon="8.5554417"><ele>5.0</ele><time>2026-05-01T07:08:43.823Z</time></trkpt><trkpt lat="39.7318667" lon="8.55545"><ele>5.666666666666667</ele><time>2026-05-01T07:08:44.823Z</time></trkpt><trkpt lat="39.7317133" lon="8.5554583"><ele>6.333333333333334</ele><time>2026-05-01T07:08:45.823Z</time></trkpt><trkpt lat="39.731555" lon="8.5554517"><ele>7.0</ele><time>2026-05-01T07:08:46.823Z</time></trkpt><trkpt lat="39.7313967" lon="8.55545"><ele>7.0</ele><time>2026-05-01T07:08:47.823Z</time></trkpt><trkpt lat="39.731245" lon="8.5554467"><ele>7.0</ele><time>2026-05-01T07:08:48.823Z</time></trkpt><trkpt lat="39.73109" lon="8.5554483"><ele>7.0</ele><time>2026-05-01T07:08:49.823Z</time></trkpt><trkpt lat="39.7309333" lon="8.55547"><ele>7.666666666666667</ele><time>2026-05-01T07:08:50.823Z</time></trkpt><trkpt lat="39.7307767" lon="8.5554717"><ele>8.333333333333334</ele><time>2026-05-01T07:08:51.823Z</time></trkpt><trkpt lat="39.73062" lon="8.55547"><ele>9.0</ele><time>2026-05-01T07:08:52.824Z</time></trkpt><trkpt lat="39.7304633" lon="8.5554667"><ele>9.0</ele><time>2026-05-01T07:08:53.823Z</time></trkpt><trkpt lat="39.7303083" lon="8.555465"><ele>9.0</ele><time>2026-05-01T07:08:54.823Z</time></trkpt><trkpt lat="39.73016" lon="8.5554667"><ele>9.0</ele><time>2026-05-01T07:08:55.824Z</time></trkpt><trkpt lat="39.7300167" lon="8.5554717"><ele>9.0</ele><time>2026-05-01T07:08:56.823Z</time></trkpt><trkpt lat="39.7298817" lon="8.5554667"><ele>9.0</ele><time>2026-05-01T07:08:57.824Z</time></trkpt><trkpt lat="39.7297567" lon="8.5554667"><ele>9.0</ele><time>2026-05-01T07:08:58.823Z</time></trkpt><trkpt lat="39.7296417" lon="8.5554683"><ele>9.0</ele><time>2026-05-01T07:08:59.823Z</time></trkpt><trkpt lat="39.7295483" lon="8.555465"><ele>9.0</ele><time>2026-05-01T07:09:00.823Z</time></trkpt><trkpt lat="39.7294683" lon="8.55547"><ele>9.0</ele><time>2026-05-01T07:09:01.824Z</time></trkpt><trkpt lat="39.7293967" lon="8.5554617"><ele>8.8</ele><time>2026-05-01T07:09:02.823Z</time></trkpt><trkpt lat="39.729305" lon="8.5553867"><ele>8.600000000000001</ele><time>2026-05-01T07:09:04.823Z</time></trkpt><trkpt lat="39.72928" lon="8.5553067"><ele>8.4</ele><time>2026-05-01T07:09:05.823Z</time></trkpt><trkpt lat="39.7292583" lon="8.5551883"><ele>8.200000000000001</ele><time>2026-05-01T07:09:06.824Z</time></trkpt><trkpt lat="39.7292533" lon="8.5550483"><ele>8.0</ele><time>2026-05-01T07:09:07.824Z</time></trkpt><trkpt lat="39.7292517" lon="8.5548917"><ele>7.75</ele><time>2026-05-01T07:09:08.823Z</time></trkpt><trkpt lat="39.7292433" lon="8.554725"><ele>7.5</ele><time>2026-05-01T07:09:09.824Z</time></trkpt><trkpt lat="39.7292333" lon="8.5545483"><ele>7.25</ele><time>2026-05-01T07:09:10.823Z</time></trkpt><trkpt lat="39.72923" lon="8.5543517"><ele>7.0</ele><time>2026-05-01T07:09:11.823Z</time></trkpt><trkpt lat="39.72923" lon="8.5541467"><ele>6.666666666666667</ele><time>2026-05-01T07:09:12.824Z</time></trkpt><trkpt lat="39.7292233" lon="8.5539233"><ele>6.333333333333334</ele><time>2026-05-01T07:09:13.823Z</time></trkpt><trkpt lat="39.72922" lon="8.5537"><ele>6.0</ele><time>2026-05-01T07:09:14.823Z</time></trkpt><trkpt lat="39.7292217" lon="8.5534667"><ele>5.666666666666667</ele><time>2026-05-01T07:09:15.823Z</time></trkpt><trkpt lat="39.7292233" lon="8.5532267"><ele>5.333333333333334</ele><time>2026-05-01T07:09:16.823Z</time></trkpt><trkpt lat="39.7292217" lon="8.5529833"><ele>5.0</ele><time>2026-05-01T07:09:17.823Z</time></trkpt><trkpt lat="39.72922" lon="8.5527333"><ele>5.0</ele><time>2026-05-01T07:09:18.824Z</time></trkpt><trkpt lat="39.7292183" lon="8.5524917"><ele>5.0</ele><time>2026-05-01T07:09:19.824Z</time></trkpt><trkpt lat="39.7292183" lon="8.55224"><ele>5.0</ele><time>2026-05-01T07:09:20.824Z</time></trkpt><trkpt lat="39.729215" lon="8.55199"><ele>5.0</ele><time>2026-05-01T07:09:21.824Z</time></trkpt><trkpt lat="39.7292167" lon="8.5517533"><ele>5.0</ele><time>2026-05-01T07:09:22.823Z</time></trkpt><trkpt lat="39.7292117" lon="8.5515033"><ele>5.0</ele><time>2026-05-01T07:09:23.823Z</time></trkpt><trkpt lat="39.7292083" lon="8.551255"><ele>5.0</ele><time>2026-05-01T07:09:24.823Z</time></trkpt><trkpt lat="39.729215" lon="8.5510083"><ele>5.0</ele><time>2026-05-01T07:09:25.823Z</time></trkpt><trkpt lat="39.729215" lon="8.5507633"><ele>5.0</ele><time>2026-05-01T07:09:26.823Z</time></trkpt><trkpt lat="39.729215" lon="8.5505183"><ele>4.666666666666667</ele><time>2026-05-01T07:09:27.824Z</time></trkpt><trkpt lat="39.7292083" lon="8.5502783"><ele>4.333333333333333</ele><time>2026-05-01T07:09:28.824Z</time></trkpt><trkpt lat="39.729205" lon="8.5500417"><ele>4.0</ele><time>2026-05-01T07:09:29.823Z</time></trkpt><trkpt lat="39.7292033" lon="8.5498083"><ele>4.0</ele><time>2026-05-01T07:09:30.823Z</time></trkpt><trkpt lat="39.7292033" lon="8.54958"><ele>4.0</ele><time>2026-05-01T07:09:31.823Z</time></trkpt><trkpt lat="39.729195" lon="8.5493467"><ele>4.0</ele><time>2026-05-01T07:09:32.823Z</time></trkpt><trkpt lat="39.7291967" lon="8.549115"><ele>3.6666666666666665</ele><time>2026-05-01T07:09:33.823Z</time></trkpt><trkpt lat="39.7291933" lon="8.54888"><ele>3.333333333333333</ele><time>2026-05-01T07:09:34.823Z</time></trkpt><trkpt lat="39.7291917" lon="8.5486433"><ele>3.0</ele><time>2026-05-01T07:09:35.823Z</time></trkpt><trkpt lat="39.7291833" lon="8.5484033"><ele>3.0</ele><time>2026-05-01T07:09:36.823Z</time></trkpt><trkpt lat="39.7291817" lon="8.54816"><ele>3.0</ele><time>2026-05-01T07:09:37.823Z</time></trkpt><trkpt lat="39.7291817" lon="8.5479133"><ele>3.0</ele><time>2026-05-01T07:09:38.823Z</time></trkpt><trkpt lat="39.72918" lon="8.5476783"><ele>3.666666666666667</ele><time>2026-05-01T07:09:39.824Z</time></trkpt><trkpt lat="39.7291783" lon="8.54744"><ele>4.333333333333334</ele><time>2026-05-01T07:09:40.823Z</time></trkpt><trkpt lat="39.72917" lon="8.54722"><ele>5.0</ele><time>2026-05-01T07:09:41.823Z</time></trkpt><trkpt lat="39.7291667" lon="8.5469917"><ele>5.333333333333334</ele><time>2026-05-01T07:09:42.823Z</time></trkpt><trkpt lat="39.7291633" lon="8.5467583"><ele>5.666666666666667</ele><time>2026-05-01T07:09:43.823Z</time></trkpt><trkpt lat="39.72917" lon="8.5465267"><ele>6.0</ele><time>2026-05-01T07:09:44.823Z</time></trkpt><trkpt lat="39.729175" lon="8.5462917"><ele>6.666666666666666</ele><time>2026-05-01T07:09:45.823Z</time></trkpt><trkpt lat="39.72917" lon="8.546055"><ele>7.333333333333333</ele><time>2026-05-01T07:09:46.824Z</time></trkpt><trkpt lat="39.7291667" lon="8.5458233"><ele>8.0</ele><time>2026-05-01T07:09:47.824Z</time></trkpt><trkpt lat="39.72917" lon="8.545585"><ele>8.0</ele><time>2026-05-01T07:09:48.823Z</time></trkpt><trkpt lat="39.7291667" lon="8.54534"><ele>8.0</ele><time>2026-05-01T07:09:49.823Z</time></trkpt><trkpt lat="39.72917" lon="8.5451"><ele>8.0</ele><time>2026-05-01T07:09:50.823Z</time></trkpt><trkpt lat="39.72917" lon="8.5448533"><ele>8.0</ele><time>2026-05-01T07:09:51.823Z</time></trkpt><trkpt lat="39.72917" lon="8.5445983"><ele>8.0</ele><time>2026-05-01T07:09:52.823Z</time></trkpt><trkpt lat="39.7291733" lon="8.5443417"><ele>8.0</ele><time>2026-05-01T07:09:53.823Z</time></trkpt><trkpt lat="39.7291717" lon="8.54408"><ele>7.666666666666666</ele><time>2026-05-01T07:09:54.823Z</time></trkpt><trkpt lat="39.7291667" lon="8.5438067"><ele>7.333333333333334</ele><time>2026-05-01T07:09:55.823Z</time></trkpt><trkpt lat="39.7291683" lon="8.54354"><ele>7.0</ele><time>2026-05-01T07:09:56.823Z</time></trkpt><trkpt lat="39.72917" lon="8.54326"><ele>7.0</ele><time>2026-05-01T07:09:57.823Z</time></trkpt><trkpt lat="39.7291683" lon="8.5429867"><ele>7.0</ele><time>2026-05-01T07:09:58.824Z</time></trkpt><trkpt lat="39.7291667" lon="8.542705"><ele>7.0</ele><time>2026-05-01T07:09:59.823Z</time></trkpt><trkpt lat="39.7291667" lon="8.54243"><ele>7.0</ele><time>2026-05-01T07:10:00.824Z</time></trkpt><trkpt lat="39.72917" lon="8.542165"><ele>7.0</ele><time>2026-05-01T07:10:01.823Z</time></trkpt><trkpt lat="39.7291717" lon="8.541905"><ele>7.0</ele><time>2026-05-01T07:10:02.824Z</time></trkpt><trkpt lat="39.7291667" lon="8.5416483"><ele>6.666666666666667</ele><time>2026-05-01T07:10:03.823Z</time></trkpt><trkpt lat="39.7291667" lon="8.541385"><ele>6.333333333333334</ele><time>2026-05-01T07:10:04.823Z</time></trkpt><trkpt lat="39.729165" lon="8.5411233"><ele>6.0</ele><time>2026-05-01T07:10:05.823Z</time></trkpt><trkpt lat="39.7291617" lon="8.5408633"><ele>6.0</ele><time>2026-05-01T07:10:06.823Z</time></trkpt><trkpt lat="39.7291617" lon="8.5405983"><ele>6.0</ele><time>2026-05-01T07:10:07.823Z</time></trkpt><trkpt lat="39.7291617" lon="8.540335"><ele>6.0</ele><time>2026-05-01T07:10:08.823Z</time></trkpt><trkpt lat="39.72916" lon="8.54008"><ele>6.333333333333334</ele><time>2026-05-01T07:10:09.823Z</time></trkpt><trkpt lat="39.7291617" lon="8.5398183"><ele>6.666666666666667</ele><time>2026-05-01T07:10:10.823Z</time></trkpt><trkpt lat="39.7291567" lon="8.5395583"><ele>7.0</ele><time>2026-05-01T07:10:11.824Z</time></trkpt><trkpt lat="39.7291583" lon="8.539305"><ele>7.0</ele><time>2026-05-01T07:10:12.823Z</time></trkpt><trkpt lat="39.72916" lon="8.5390533"><ele>7.0</ele><time>2026-05-01T07:10:13.823Z</time></trkpt><trkpt lat="39.7291617" lon="8.53881"><ele>7.0</ele><time>2026-05-01T07:10:14.824Z</time></trkpt><trkpt lat="39.72916" lon="8.5385567"><ele>6.666666666666667</ele><time>2026-05-01T07:10:15.823Z</time></trkpt><trkpt lat="39.72916" lon="8.5383"><ele>6.333333333333334</ele><time>2026-05-01T07:10:16.823Z</time></trkpt><trkpt lat="39.7291583" lon="8.538035"><ele>6.0</ele><time>2026-05-01T07:10:17.823Z</time></trkpt><trkpt lat="39.7291533" lon="8.53777"><ele>6.0</ele><time>2026-05-01T07:10:18.823Z</time></trkpt><trkpt lat="39.7291617" lon="8.5375067"><ele>6.0</ele><time>2026-05-01T07:10:19.823Z</time></trkpt><trkpt lat="39.7291583" lon="8.5372483"><ele>6.0</ele><time>2026-05-01T07:10:20.824Z</time></trkpt><trkpt lat="39.72915" lon="8.536995"><ele>5.666666666666667</ele><time>2026-05-01T07:10:21.824Z</time></trkpt><trkpt lat="39.7291467" lon="8.5367317"><ele>5.333333333333334</ele><time>2026-05-01T07:10:22.822Z</time></trkpt><trkpt lat="39.72914" lon="8.5364683"><ele>5.0</ele><time>2026-05-01T07:10:23.822Z</time></trkpt><trkpt lat="39.7291383" lon="8.5362117"><ele>4.666666666666667</ele><time>2026-05-01T07:10:24.822Z</time></trkpt><trkpt lat="39.729135" lon="8.535955"><ele>4.333333333333333</ele><time>2026-05-01T07:10:25.822Z</time></trkpt><trkpt lat="39.7291333" lon="8.5357"><ele>4.0</ele><time>2026-05-01T07:10:26.822Z</time></trkpt><trkpt lat="39.7291333" lon="8.5354433"><ele>4.666666666666666</ele><time>2026-05-01T07:10:27.823Z</time></trkpt><trkpt lat="39.729135" lon="8.535185"><ele>5.333333333333333</ele><time>2026-05-01T07:10:28.822Z</time></trkpt><trkpt lat="39.7291317" lon="8.5349417"><ele>6.0</ele><time>2026-05-01T07:10:29.822Z</time></trkpt><trkpt lat="39.7291267" lon="8.5347183"><ele>6.0</ele><time>2026-05-01T07:10:30.822Z</time></trkpt><trkpt lat="39.729125" lon="8.5345083"><ele>6.0</ele><time>2026-05-01T07:10:31.823Z</time></trkpt><trkpt lat="39.729125" lon="8.5343083"><ele>6.0</ele><time>2026-05-01T07:10:32.823Z</time></trkpt><trkpt lat="39.7291217" lon="8.53412"><ele>6.0</ele><time>2026-05-01T07:10:33.823Z</time></trkpt><trkpt lat="39.72912" lon="8.53394"><ele>6.0</ele><time>2026-05-01T07:10:34.823Z</time></trkpt><trkpt lat="39.7291217" lon="8.53378"><ele>6.0</ele><time>2026-05-01T07:10:35.823Z</time></trkpt><trkpt lat="39.7291183" lon="8.5336283"><ele>6.0</ele><time>2026-05-01T07:10:36.823Z</time></trkpt><trkpt lat="39.7291133" lon="8.533495"><ele>6.0</ele><time>2026-05-01T07:10:37.822Z</time></trkpt><trkpt lat="39.7290983" lon="8.5333817"><ele>6.0</ele><time>2026-05-01T07:10:38.822Z</time></trkpt><trkpt lat="39.729075" lon="8.53329"><ele>6.0</ele><time>2026-05-01T07:10:39.822Z</time></trkpt><trkpt lat="39.72899" lon="8.5332033"><ele>6.0</ele><time>2026-05-01T07:10:41.822Z</time></trkpt><trkpt lat="39.7289183" lon="8.5331883"><ele>6.0</ele><time>2026-05-01T07:10:42.823Z</time></trkpt><trkpt lat="39.7288217" lon="8.53318"><ele>6.0</ele><time>2026-05-01T07:10:43.822Z</time></trkpt><trkpt lat="39.7287083" lon="8.53319"><ele>6.0</ele><time>2026-05-01T07:10:44.822Z</time></trkpt><trkpt lat="39.72859" lon="8.5332017"><ele>6.0</ele><time>2026-05-01T07:10:45.822Z</time></trkpt><trkpt lat="39.728465" lon="8.5332067"><ele>6.0</ele><time>2026-05-01T07:10:46.823Z</time></trkpt><trkpt lat="39.7283317" lon="8.5332217"><ele>6.0</ele><time>2026-05-01T07:10:47.823Z</time></trkpt><trkpt lat="39.7282017" lon="8.5332183"><ele>6.25</ele><time>2026-05-01T07:10:48.822Z</time></trkpt><trkpt lat="39.7280717" lon="8.5332167"><ele>6.5</ele><time>2026-05-01T07:10:49.823Z</time></trkpt><trkpt lat="39.72794" lon="8.5332167"><ele>6.75</ele><time>2026-05-01T07:10:50.822Z</time></trkpt><trkpt lat="39.72781" lon="8.5332233"><ele>7.0</ele><time>2026-05-01T07:10:51.822Z</time></trkpt><trkpt lat="39.7276667" lon="8.5332283"><ele>6.25</ele><time>2026-05-01T07:10:52.823Z</time></trkpt><trkpt lat="39.7275283" lon="8.5332183"><ele>5.5</ele><time>2026-05-01T07:10:53.823Z</time></trkpt><trkpt lat="39.7273933" lon="8.533225"><ele>4.75</ele><time>2026-05-01T07:10:54.822Z</time></trkpt><trkpt lat="39.7272567" lon="8.5332233"><ele>4.0</ele><time>2026-05-01T07:10:55.822Z</time></trkpt><trkpt lat="39.7271117" lon="8.5332233"><ele>4.0</ele><time>2026-05-01T07:10:56.822Z</time></trkpt><trkpt lat="39.7269567" lon="8.53323"><ele>4.0</ele><time>2026-05-01T07:10:57.823Z</time></trkpt><trkpt lat="39.7267967" lon="8.5332283"><ele>4.0</ele><time>2026-05-01T07:10:58.822Z</time></trkpt><trkpt lat="39.72663" lon="8.5332283"><ele>4.333333333333333</ele><time>2026-05-01T07:10:59.822Z</time></trkpt><trkpt lat="39.7264633" lon="8.5332367"><ele>4.666666666666667</ele><time>2026-05-01T07:11:00.822Z</time></trkpt><trkpt lat="39.7263" lon="8.5332417"><ele>5.0</ele><time>2026-05-01T07:11:01.822Z</time></trkpt><trkpt lat="39.72614" lon="8.5332383"><ele>5.666666666666667</ele><time>2026-05-01T07:11:02.822Z</time></trkpt><trkpt lat="39.7259817" lon="8.5332383"><ele>6.333333333333334</ele><time>2026-05-01T07:11:03.822Z</time></trkpt><trkpt lat="39.7258233" lon="8.5332417"><ele>7.0</ele><time>2026-05-01T07:11:04.822Z</time></trkpt><trkpt lat="39.7256583" lon="8.533245"><ele>7.0</ele><time>2026-05-01T07:11:05.822Z</time></trkpt><trkpt lat="39.7254867" lon="8.5332467"><ele>7.0</ele><time>2026-05-01T07:11:06.822Z</time></trkpt><trkpt lat="39.7253217" lon="8.5332517"><ele>7.0</ele><time>2026-05-01T07:11:07.822Z</time></trkpt><trkpt lat="39.725155" lon="8.5332517"><ele>6.666666666666667</ele><time>2026-05-01T07:11:08.822Z</time></trkpt><trkpt lat="39.7249883" lon="8.5332517"><ele>6.333333333333334</ele><time>2026-05-01T07:11:09.822Z</time></trkpt><trkpt lat="39.7248183" lon="8.5332517"><ele>6.0</ele><time>2026-05-01T07:11:10.822Z</time></trkpt><trkpt lat="39.7246483" lon="8.5332567"><ele>6.0</ele><time>2026-05-01T07:11:11.822Z</time></trkpt><trkpt lat="39.7244783" lon="8.533255"><ele>6.0</ele><time>2026-05-01T07:11:12.823Z</time></trkpt><trkpt lat="39.7243033" lon="8.5332567"><ele>6.0</ele><time>2026-05-01T07:11:13.822Z</time></trkpt><trkpt lat="39.7241317" lon="8.5332617"><ele>6.0</ele><time>2026-05-01T07:11:14.823Z</time></trkpt><trkpt lat="39.72395" lon="8.5332567"><ele>6.0</ele><time>2026-05-01T07:11:15.823Z</time></trkpt><trkpt lat="39.7237683" lon="8.5332583"><ele>6.0</ele><time>2026-05-01T07:11:16.822Z</time></trkpt><trkpt lat="39.7235867" lon="8.5332617"><ele>5.666666666666667</ele><time>2026-05-01T07:11:17.822Z</time></trkpt><trkpt lat="39.7234067" lon="8.53327"><ele>5.333333333333334</ele><time>2026-05-01T07:11:18.823Z</time></trkpt><trkpt lat="39.7232333" lon="8.5332683"><ele>5.0</ele><time>2026-05-01T07:11:19.822Z</time></trkpt><trkpt lat="39.7230633" lon="8.533265"><ele>5.0</ele><time>2026-05-01T07:11:20.822Z</time></trkpt><trkpt lat="39.722895" lon="8.5332667"><ele>5.0</ele><time>2026-05-01T07:11:21.822Z</time></trkpt><trkpt lat="39.7227283" lon="8.53327"><ele>5.0</ele><time>2026-05-01T07:11:22.822Z</time></trkpt><trkpt lat="39.7225733" lon="8.5332733"><ele>4.75</ele><time>2026-05-01T07:11:23.822Z</time></trkpt><trkpt lat="39.7224267" lon="8.5332767"><ele>4.5</ele><time>2026-05-01T07:11:24.823Z</time></trkpt><trkpt lat="39.72229" lon="8.5332767"><ele>4.25</ele><time>2026-05-01T07:11:25.822Z</time></trkpt><trkpt lat="39.7221717" lon="8.5332817"><ele>4.0</ele><time>2026-05-01T07:11:26.822Z</time></trkpt><trkpt lat="39.7220683" lon="8.5332783"><ele>3.9999999999999996</ele><time>2026-05-01T07:11:27.822Z</time></trkpt><trkpt lat="39.7219767" lon="8.5332767"><ele>4.0</ele><time>2026-05-01T07:11:28.822Z</time></trkpt><trkpt lat="39.7218933" lon="8.5332633"><ele>4.0</ele><time>2026-05-01T07:11:29.822Z</time></trkpt><trkpt lat="39.7218133" lon="8.5332317"><ele>4.0</ele><time>2026-05-01T07:11:30.822Z</time></trkpt><trkpt lat="39.7217517" lon="8.5331667"><ele>3.9999999999999996</ele><time>2026-05-01T07:11:31.822Z</time></trkpt><trkpt lat="39.7217183" lon="8.53309"><ele>4.0</ele><time>2026-05-01T07:11:32.823Z</time></trkpt><trkpt lat="39.7217" lon="8.5330017"><ele>4.5</ele><time>2026-05-01T07:11:33.823Z</time></trkpt><trkpt lat="39.7217017" lon="8.53288"><ele>5.0</ele><time>2026-05-01T07:11:34.823Z</time></trkpt><trkpt lat="39.7217083" lon="8.532735"><ele>5.5</ele><time>2026-05-01T07:11:35.822Z</time></trkpt><trkpt lat="39.72171" lon="8.5325733"><ele>6.0</ele><time>2026-05-01T07:11:36.822Z</time></trkpt><trkpt lat="39.7217117" lon="8.532395"><ele>6.0</ele><time>2026-05-01T07:11:37.822Z</time></trkpt><trkpt lat="39.7217133" lon="8.5322067"><ele>6.0</ele><time>2026-05-01T07:11:38.823Z</time></trkpt><trkpt lat="39.721715" lon="8.5320117"><ele>6.0</ele><time>2026-05-01T07:11:39.822Z</time></trkpt><trkpt lat="39.7217183" lon="8.53181"><ele>6.0</ele><time>2026-05-01T07:11:40.822Z</time></trkpt><trkpt lat="39.7217183" lon="8.5316033"><ele>6.0</ele><time>2026-05-01T07:11:41.823Z</time></trkpt><trkpt lat="39.7217233" lon="8.531395"><ele>6.0</ele><time>2026-05-01T07:11:42.823Z</time></trkpt><trkpt lat="39.721725" lon="8.5311917"><ele>6.0</ele><time>2026-05-01T07:11:43.822Z</time></trkpt><trkpt lat="39.721725" lon="8.5309767"><ele>6.0</ele><time>2026-05-01T07:11:44.822Z</time></trkpt><trkpt lat="39.72172" lon="8.5307617"><ele>6.0</ele><time>2026-05-01T07:11:45.823Z</time></trkpt><trkpt lat="39.721715" lon="8.5305483"><ele>6.0</ele><time>2026-05-01T07:11:46.822Z</time></trkpt><trkpt lat="39.7217217" lon="8.5303283"><ele>6.0</ele><time>2026-05-01T07:11:47.823Z</time></trkpt><trkpt lat="39.7217217" lon="8.5301183"><ele>6.0</ele><time>2026-05-01T07:11:48.822Z</time></trkpt><trkpt lat="39.721725" lon="8.5299083"><ele>6.0</ele><time>2026-05-01T07:11:49.822Z</time></trkpt><trkpt lat="39.7217233" lon="8.5296933"><ele>6.0</ele><time>2026-05-01T07:11:50.822Z</time></trkpt><trkpt lat="39.72172" lon="8.5294817"><ele>6.0</ele><time>2026-05-01T07:11:51.822Z</time></trkpt><trkpt lat="39.7217167" lon="8.5292667"><ele>6.0</ele><time>2026-05-01T07:11:52.822Z</time></trkpt><trkpt lat="39.72172" lon="8.5290583"><ele>6.0</ele><time>2026-05-01T07:11:53.822Z</time></trkpt><trkpt lat="39.7217133" lon="8.5288483"><ele>6.0</ele><time>2026-05-01T07:11:54.822Z</time></trkpt><trkpt lat="39.7217117" lon="8.5286367"><ele>5.333333333333333</ele><time>2026-05-01T07:11:55.822Z</time></trkpt><trkpt lat="39.7217083" lon="8.528425"><ele>4.666666666666666</ele><time>2026-05-01T07:11:56.822Z</time></trkpt><trkpt lat="39.7217033" lon="8.528205"><ele>4.0</ele><time>2026-05-01T07:11:57.822Z</time></trkpt><trkpt lat="39.7217017" lon="8.527985"><ele>3.6666666666666665</ele><time>2026-05-01T07:11:58.822Z</time></trkpt><trkpt lat="39.7217033" lon="8.527755"><ele>3.333333333333333</ele><time>2026-05-01T07:11:59.823Z</time></trkpt><trkpt lat="39.721705" lon="8.5275283"><ele>3.0</ele><time>2026-05-01T07:12:00.822Z</time></trkpt><trkpt lat="39.721705" lon="8.527295"><ele>3.0</ele><time>2026-05-01T07:12:01.823Z</time></trkpt><trkpt lat="39.7217083" lon="8.5270583"><ele>3.0</ele><time>2026-05-01T07:12:02.823Z</time></trkpt><trkpt lat="39.7217017" lon="8.526825"><ele>3.0</ele><time>2026-05-01T07:12:03.822Z</time></trkpt><trkpt lat="39.7217017" lon="8.526595"><ele>3.0</ele><time>2026-05-01T07:12:04.823Z</time></trkpt><trkpt lat="39.7217017" lon="8.5263517"><ele>3.0</ele><time>2026-05-01T07:12:05.823Z</time></trkpt><trkpt lat="39.7217067" lon="8.52612"><ele>3.0</ele><time>2026-05-01T07:12:06.822Z</time></trkpt><trkpt lat="39.7217017" lon="8.5258833"><ele>3.0</ele><time>2026-05-01T07:12:07.822Z</time></trkpt><trkpt lat="39.7217017" lon="8.52564"><ele>3.0</ele><time>2026-05-01T07:12:08.822Z</time></trkpt><trkpt lat="39.7216983" lon="8.5253967"><ele>3.0</ele><time>2026-05-01T07:12:09.823Z</time></trkpt><trkpt lat="39.7217017" lon="8.52516"><ele>3.0</ele><time>2026-05-01T07:12:10.822Z</time></trkpt><trkpt lat="39.7216967" lon="8.524925"><ele>3.0</ele><time>2026-05-01T07:12:11.822Z</time></trkpt><trkpt lat="39.7216917" lon="8.52468"><ele>3.0</ele><time>2026-05-01T07:12:12.822Z</time></trkpt><trkpt lat="39.7216883" lon="8.5244433"><ele>3.0</ele><time>2026-05-01T07:12:13.823Z</time></trkpt><trkpt lat="39.721685" lon="8.5242133"><ele>3.0</ele><time>2026-05-01T07:12:14.823Z</time></trkpt><trkpt lat="39.72169" lon="8.5239717"><ele>3.0</ele><time>2026-05-01T07:12:15.823Z</time></trkpt><trkpt lat="39.7216867" lon="8.523735"><ele>3.0</ele><time>2026-05-01T07:12:16.822Z</time></trkpt><trkpt lat="39.7216817" lon="8.5235"><ele>3.0</ele><time>2026-05-01T07:12:17.823Z</time></trkpt><trkpt lat="39.7216817" lon="8.523265"><ele>3.0</ele><time>2026-05-01T07:12:18.822Z</time></trkpt><trkpt lat="39.72168" lon="8.5230233"><ele>3.0</ele><time>2026-05-01T07:12:19.822Z</time></trkpt><trkpt lat="39.7216783" lon="8.52279"><ele>3.0</ele><time>2026-05-01T07:12:20.823Z</time></trkpt><trkpt lat="39.7216733" lon="8.5225433"><ele>3.0</ele><time>2026-05-01T07:12:21.822Z</time></trkpt><trkpt lat="39.7216733" lon="8.522305"><ele>3.0</ele><time>2026-05-01T07:12:22.822Z</time></trkpt><trkpt lat="39.72167" lon="8.5220783"><ele>3.0</ele><time>2026-05-01T07:12:23.822Z</time></trkpt><trkpt lat="39.7216767" lon="8.5218367"><ele>3.0</ele><time>2026-05-01T07:12:24.823Z</time></trkpt><trkpt lat="39.721675" lon="8.5216"><ele>3.0</ele><time>2026-05-01T07:12:25.822Z</time></trkpt><trkpt lat="39.721675" lon="8.5213617"><ele>3.0</ele><time>2026-05-01T07:12:26.822Z</time></trkpt><trkpt lat="39.72167" lon="8.5211267"><ele>3.0</ele><time>2026-05-01T07:12:27.822Z</time></trkpt><trkpt lat="39.7216683" lon="8.52089"><ele>3.0</ele><time>2026-05-01T07:12:28.822Z</time></trkpt><trkpt lat="39.7216667" lon="8.5206517"><ele>3.0</ele><time>2026-05-01T07:12:29.822Z</time></trkpt><trkpt lat="39.7216717" lon="8.5204183"><ele>3.0</ele><time>2026-05-01T07:12:30.822Z</time></trkpt><trkpt lat="39.72167" lon="8.5201817"><ele>3.0</ele><time>2026-05-01T07:12:31.822Z</time></trkpt><trkpt lat="39.721665" lon="8.5199467"><ele>3.0</ele><time>2026-05-01T07:12:32.822Z</time></trkpt><trkpt lat="39.7216667" lon="8.51971"><ele>3.0</ele><time>2026-05-01T07:12:33.822Z</time></trkpt><trkpt lat="39.721665" lon="8.5194767"><ele>2.6666666666666665</ele><time>2026-05-01T07:12:34.822Z</time></trkpt><trkpt lat="39.721665" lon="8.51924"><ele>2.333333333333333</ele><time>2026-05-01T07:12:35.822Z</time></trkpt><trkpt lat="39.721665" lon="8.519005"><ele>2.0</ele><time>2026-05-01T07:12:36.823Z</time></trkpt><trkpt lat="39.7216667" lon="8.5187717"><ele>1.3333333333333333</ele><time>2026-05-01T07:12:37.822Z</time></trkpt><trkpt lat="39.7216633" lon="8.5185483"><ele>0.6666666666666666</ele><time>2026-05-01T07:12:38.823Z</time></trkpt><trkpt lat="39.7216583" lon="8.5183233"><ele>0.0</ele><time>2026-05-01T07:12:39.822Z</time></trkpt><trkpt lat="39.7216533" lon="8.518095"><ele>0.6666666666666666</ele><time>2026-05-01T07:12:40.822Z</time></trkpt><trkpt lat="39.7216533" lon="8.5178617"><ele>1.3333333333333333</ele><time>2026-05-01T07:12:41.822Z</time></trkpt><trkpt lat="39.72165" lon="8.5176283"><ele>2.0</ele><time>2026-05-01T07:12:42.822Z</time></trkpt><trkpt lat="39.72165" lon="8.5173983"><ele>2.0</ele><time>2026-05-01T07:12:43.822Z</time></trkpt><trkpt lat="39.721655" lon="8.517155"><ele>2.0</ele><time>2026-05-01T07:12:44.822Z</time></trkpt><trkpt lat="39.7216567" lon="8.5169167"><ele>2.0</ele><time>2026-05-01T07:12:45.822Z</time></trkpt><trkpt lat="39.7216567" lon="8.5166767"><ele>1.6666666666666665</ele><time>2026-05-01T07:12:46.822Z</time></trkpt><trkpt lat="39.7216633" lon="8.5164417"><ele>1.3333333333333333</ele><time>2026-05-01T07:12:47.823Z</time></trkpt><trkpt lat="39.7216583" lon="8.51621"><ele>1.0</ele><time>2026-05-01T07:12:48.822Z</time></trkpt><trkpt lat="39.7216567" lon="8.515975"><ele>1.6666666666666665</ele><time>2026-05-01T07:12:49.822Z</time></trkpt><trkpt lat="39.7216533" lon="8.5157417"><ele>2.3333333333333335</ele><time>2026-05-01T07:12:50.822Z</time></trkpt><trkpt lat="39.721655" lon="8.515505"><ele>3.0</ele><time>2026-05-01T07:12:51.822Z</time></trkpt><trkpt lat="39.721655" lon="8.51528"><ele>4.0</ele><time>2026-05-01T07:12:52.822Z</time></trkpt><trkpt lat="39.7216567" lon="8.51505"><ele>5.0</ele><time>2026-05-01T07:12:53.823Z</time></trkpt><trkpt lat="39.7216533" lon="8.5148233"><ele>6.0</ele><time>2026-05-01T07:12:54.823Z</time></trkpt><trkpt lat="39.72165" lon="8.5145967"><ele>7.0</ele><time>2026-05-01T07:12:55.823Z</time></trkpt><trkpt lat="39.72165" lon="8.514375"><ele>8.0</ele><time>2026-05-01T07:12:56.822Z</time></trkpt><trkpt lat="39.7216417" lon="8.5141617"><ele>9.0</ele><time>2026-05-01T07:12:57.823Z</time></trkpt><trkpt lat="39.7216433" lon="8.5139467"><ele>9.0</ele><time>2026-05-01T07:12:58.823Z</time></trkpt><trkpt lat="39.721645" lon="8.5137383"><ele>9.0</ele><time>2026-05-01T07:12:59.822Z</time></trkpt><trkpt lat="39.7216317" lon="8.5135367"><ele>9.0</ele><time>2026-05-01T07:13:00.823Z</time></trkpt><trkpt lat="39.7216083" lon="8.5133317"><ele>9.0</ele><time>2026-05-01T07:13:01.822Z</time></trkpt><trkpt lat="39.7215733" lon="8.51312"><ele>9.0</ele><time>2026-05-01T07:13:02.822Z</time></trkpt><trkpt lat="39.7215283" lon="8.5129117"><ele>9.0</ele><time>2026-05-01T07:13:03.822Z</time></trkpt><trkpt lat="39.7214933" lon="8.5126917"><ele>7.666666666666667</ele><time>2026-05-01T07:13:04.822Z</time></trkpt><trkpt lat="39.7214567" lon="8.512475"><ele>6.333333333333334</ele><time>2026-05-01T07:13:05.823Z</time></trkpt><trkpt lat="39.7214267" lon="8.5122533"><ele>5.0</ele><time>2026-05-01T07:13:06.823Z</time></trkpt><trkpt lat="39.7213883" lon="8.5120367"><ele>4.666666666666667</ele><time>2026-05-01T07:13:07.822Z</time></trkpt><trkpt lat="39.7213517" lon="8.5118183"><ele>4.333333333333333</ele><time>2026-05-01T07:13:08.822Z</time></trkpt><trkpt lat="39.7213183" lon="8.5115967"><ele>4.0</ele><time>2026-05-01T07:13:09.822Z</time></trkpt><trkpt lat="39.721285" lon="8.5113683"><ele>4.333333333333333</ele><time>2026-05-01T07:13:10.822Z</time></trkpt><trkpt lat="39.7212483" lon="8.5111467"><ele>4.666666666666667</ele><time>2026-05-01T07:13:11.822Z</time></trkpt><trkpt lat="39.7212067" lon="8.5109267"><ele>5.0</ele><time>2026-05-01T07:13:12.822Z</time></trkpt><trkpt lat="39.7211683" lon="8.510705"><ele>5.0</ele><time>2026-05-01T07:13:13.822Z</time></trkpt><trkpt lat="39.72113" lon="8.51049"><ele>5.0</ele><time>2026-05-01T07:13:14.823Z</time></trkpt><trkpt lat="39.7210967" lon="8.510275"><ele>5.0</ele><time>2026-05-01T07:13:15.822Z</time></trkpt><trkpt lat="39.7210617" lon="8.5100733"><ele>4.75</ele><time>2026-05-01T07:13:16.822Z</time></trkpt><trkpt lat="39.72103" lon="8.5098783"><ele>4.5</ele><time>2026-05-01T07:13:17.823Z</time></trkpt><trkpt lat="39.721" lon="8.5096883"><ele>4.25</ele><time>2026-05-01T07:13:18.822Z</time></trkpt><trkpt lat="39.7209717" lon="8.5095017"><ele>4.0</ele><time>2026-05-01T07:13:19.822Z</time></trkpt><trkpt lat="39.72095" lon="8.5093167"><ele>3.75</ele><time>2026-05-01T07:13:20.823Z</time></trkpt><trkpt lat="39.7209217" lon="8.509145"><ele>3.5</ele><time>2026-05-01T07:13:21.823Z</time></trkpt><trkpt lat="39.7208867" lon="8.5089683"><ele>3.25</ele><time>2026-05-01T07:13:22.822Z</time></trkpt><trkpt lat="39.7208467" lon="8.508805"><ele>3.0</ele><time>2026-05-01T07:13:23.823Z</time></trkpt><trkpt lat="39.7207867" lon="8.5086417"><ele>3.0</ele><time>2026-05-01T07:13:24.823Z</time></trkpt><trkpt lat="39.7207233" lon="8.5084833"><ele>3.0</ele><time>2026-05-01T07:13:25.822Z</time></trkpt><trkpt lat="39.7206617" lon="8.50833"><ele>3.0</ele><time>2026-05-01T07:13:26.822Z</time></trkpt><trkpt lat="39.7206033" lon="8.50819"><ele>3.0</ele><time>2026-05-01T07:13:27.823Z</time></trkpt><trkpt lat="39.7205467" lon="8.5080583"><ele>3.0</ele><time>2026-05-01T07:13:28.822Z</time></trkpt><trkpt lat="39.7204917" lon="8.5079333"><ele>3.0</ele><time>2026-05-01T07:13:29.822Z</time></trkpt><trkpt lat="39.7204367" lon="8.5078117"><ele>3.0</ele><time>2026-05-01T07:13:30.823Z</time></trkpt><trkpt lat="39.72038" lon="8.5077017"><ele>3.0</ele><time>2026-05-01T07:13:31.822Z</time></trkpt><trkpt lat="39.7203317" lon="8.507605"><ele>3.0</ele><time>2026-05-01T07:13:32.823Z</time></trkpt><trkpt lat="39.72029" lon="8.50753"><ele>3.0</ele><time>2026-05-01T07:13:33.822Z</time></trkpt><trkpt lat="39.7202417" lon="8.5074683"><ele>3.0</ele><time>2026-05-01T07:13:35.822Z</time></trkpt><trkpt lat="39.720185" lon="8.50738"><ele>3.0</ele><time>2026-05-01T07:13:52.821Z</time></trkpt><trkpt lat="39.7201183" lon="8.50729"><ele>3.0</ele><time>2026-05-01T07:13:53.821Z</time></trkpt><trkpt lat="39.7200417" lon="8.5072033"><ele>3.0</ele><time>2026-05-01T07:13:54.822Z</time></trkpt><trkpt lat="39.719975" lon="8.50712"><ele>3.0</ele><time>2026-05-01T07:13:55.822Z</time></trkpt><trkpt lat="39.7199317" lon="8.50705"><ele>2.6</ele><time>2026-05-01T07:13:56.821Z</time></trkpt><trkpt lat="39.719905" lon="8.5069717"><ele>2.1999999999999997</ele><time>2026-05-01T07:13:57.821Z</time></trkpt><trkpt lat="39.7198633" lon="8.506845"><ele>1.8</ele><time>2026-05-01T07:13:59.821Z</time></trkpt><trkpt lat="39.7197717" lon="8.5067633"><ele>1.4</ele><time>2026-05-01T07:14:01.821Z</time></trkpt><trkpt lat="39.7197017" lon="8.5067133"><ele>1.0</ele><time>2026-05-01T07:14:02.821Z</time></trkpt><trkpt lat="39.7196133" lon="8.5066533"><ele>1.0</ele><time>2026-05-01T07:14:03.822Z</time></trkpt><trkpt lat="39.71951" lon="8.5065867"><ele>1.0</ele><time>2026-05-01T07:14:04.821Z</time></trkpt><trkpt lat="39.7194017" lon="8.5065133"><ele>1.0</ele><time>2026-05-01T07:14:05.822Z</time></trkpt><trkpt lat="39.7192917" lon="8.5064383"><ele>1.0</ele><time>2026-05-01T07:14:06.821Z</time></trkpt><trkpt lat="39.7191867" lon="8.5063683"><ele>0.8</ele><time>2026-05-01T07:14:07.821Z</time></trkpt><trkpt lat="39.7190767" lon="8.5063033"><ele>0.6000000000000001</ele><time>2026-05-01T07:14:08.821Z</time></trkpt><trkpt lat="39.7189733" lon="8.5062383"><ele>0.4</ele><time>2026-05-01T07:14:09.821Z</time></trkpt><trkpt lat="39.7188783" lon="8.5061733"><ele>0.2</ele><time>2026-05-01T07:14:10.822Z</time></trkpt><trkpt lat="39.7187883" lon="8.5061133"><ele>0.0</ele><time>2026-05-01T07:14:11.821Z</time></trkpt><trkpt lat="39.71871" lon="8.5060633"><ele>0.0</ele><time>2026-05-01T07:14:12.821Z</time></trkpt><trkpt lat="39.7186283" lon="8.5060083"><ele>0.0</ele><time>2026-05-01T07:14:13.821Z</time></trkpt><trkpt lat="39.7185417" lon="8.5059467"><ele>0.0</ele><time>2026-05-01T07:14:14.822Z</time></trkpt><trkpt lat="39.718455" lon="8.5058867"><ele>0.0</ele><time>2026-05-01T07:14:15.822Z</time></trkpt><trkpt lat="39.7183667" lon="8.505825"><ele>0.0</ele><time>2026-05-01T07:14:16.822Z</time></trkpt><trkpt lat="39.7182817" lon="8.5057667"><ele>0.0</ele><time>2026-05-01T07:14:17.822Z</time></trkpt><trkpt lat="39.718195" lon="8.5057117"><ele>0.0</ele><time>2026-05-01T07:14:18.821Z</time></trkpt><trkpt lat="39.7181117" lon="8.5056617"><ele>0.0</ele><time>2026-05-01T07:14:19.821Z</time></trkpt><trkpt lat="39.7180267" lon="8.5056067"><ele>0.0</ele><time>2026-05-01T07:14:20.821Z</time></trkpt><trkpt lat="39.7179417" lon="8.5055517"><ele>0.0</ele><time>2026-05-01T07:14:21.821Z</time></trkpt><trkpt lat="39.7178533" lon="8.5054967"><ele>0.0</ele><time>2026-05-01T07:14:22.822Z</time></trkpt><trkpt lat="39.7177567" lon="8.5054317"><ele>0.0</ele><time>2026-05-01T07:14:23.821Z</time></trkpt><trkpt lat="39.7176583" lon="8.5053633"><ele>0.0</ele><time>2026-05-01T07:14:24.821Z</time></trkpt><trkpt lat="39.7175567" lon="8.5052983"><ele>0.0</ele><time>2026-05-01T07:14:25.822Z</time></trkpt><trkpt lat="39.7174533" lon="8.5052317"><ele>0.0</ele><time>2026-05-01T07:14:26.821Z</time></trkpt><trkpt lat="39.71735" lon="8.5051633"><ele>0.0</ele><time>2026-05-01T07:14:27.821Z</time></trkpt><trkpt lat="39.717245" lon="8.5050917"><ele>0.0</ele><time>2026-05-01T07:14:28.821Z</time></trkpt><trkpt lat="39.717145" lon="8.5050217"><ele>0.0</ele><time>2026-05-01T07:14:29.822Z</time></trkpt><trkpt lat="39.7170367" lon="8.50495"><ele>0.0</ele><time>2026-05-01T07:14:30.822Z</time></trkpt><trkpt lat="39.7169333" lon="8.5048867"><ele>0.0</ele><time>2026-05-01T07:14:31.821Z</time></trkpt><trkpt lat="39.7168333" lon="8.5048217"><ele>0.0</ele><time>2026-05-01T07:14:32.821Z</time></trkpt><trkpt lat="39.716735" lon="8.5047583"><ele>0.0</ele><time>2026-05-01T07:14:33.822Z</time></trkpt><trkpt lat="39.7166417" lon="8.504695"><ele>0.0</ele><time>2026-05-01T07:14:34.821Z</time></trkpt><trkpt lat="39.716545" lon="8.5046367"><ele>0.0</ele><time>2026-05-01T07:14:35.822Z</time></trkpt><trkpt lat="39.7164517" lon="8.5045767"><ele>0.0</ele><time>2026-05-01T07:14:36.821Z</time></trkpt><trkpt lat="39.7163617" lon="8.504515"><ele>0.0</ele><time>2026-05-01T07:14:37.821Z</time></trkpt><trkpt lat="39.7162733" lon="8.5044583"><ele>0.0</ele><time>2026-05-01T07:14:38.821Z</time></trkpt><trkpt lat="39.7161833" lon="8.5043967"><ele>0.0</ele><time>2026-05-01T07:14:39.821Z</time></trkpt><trkpt lat="39.7160833" lon="8.5043333"><ele>0.0</ele><time>2026-05-01T07:14:40.821Z</time></trkpt><trkpt lat="39.7159733" lon="8.5042717"><ele>0.0</ele><time>2026-05-01T07:14:41.821Z</time></trkpt><trkpt lat="39.7158617" lon="8.5042067"><ele>0.0</ele><time>2026-05-01T07:14:42.822Z</time></trkpt><trkpt lat="39.7157433" lon="8.5041283"><ele>0.0</ele><time>2026-05-01T07:14:43.822Z</time></trkpt><trkpt lat="39.7156233" lon="8.504045"><ele>0.0</ele><time>2026-05-01T07:14:44.821Z</time></trkpt><trkpt lat="39.7155033" lon="8.503955"><ele>0.0</ele><time>2026-05-01T07:14:45.822Z</time></trkpt><trkpt lat="39.71537" lon="8.5038617"><ele>0.0</ele><time>2026-05-01T07:14:46.822Z</time></trkpt><trkpt lat="39.7152333" lon="8.50377"><ele>0.0</ele><time>2026-05-01T07:14:47.821Z</time></trkpt><trkpt lat="39.71511" lon="8.5036883"><ele>0.0</ele><time>2026-05-01T07:14:48.821Z</time></trkpt><trkpt lat="39.7149933" lon="8.5036133"><ele>0.0</ele><time>2026-05-01T07:14:49.821Z</time></trkpt><trkpt lat="39.7148817" lon="8.503545"><ele>0.0</ele><time>2026-05-01T07:14:50.821Z</time></trkpt><trkpt lat="39.7147667" lon="8.5034767"><ele>0.0</ele><time>2026-05-01T07:14:51.821Z</time></trkpt><trkpt lat="39.714655" lon="8.5033983"><ele>0.0</ele><time>2026-05-01T07:14:52.822Z</time></trkpt><trkpt lat="39.7145417" lon="8.503325"><ele>0.0</ele><time>2026-05-01T07:14:53.821Z</time></trkpt><trkpt lat="39.7144317" lon="8.503245"><ele>0.0</ele><time>2026-05-01T07:14:54.821Z</time></trkpt><trkpt lat="39.71432" lon="8.50317"><ele>0.0</ele><time>2026-05-01T07:14:55.821Z</time></trkpt><trkpt lat="39.7142117" lon="8.5030983"><ele>0.0</ele><time>2026-05-01T07:14:56.822Z</time></trkpt><trkpt lat="39.714105" lon="8.5030283"><ele>0.25</ele><time>2026-05-01T07:14:57.821Z</time></trkpt><trkpt lat="39.7139933" lon="8.5029567"><ele>0.5</ele><time>2026-05-01T07:14:58.821Z</time></trkpt><trkpt lat="39.7138767" lon="8.50288"><ele>0.75</ele><time>2026-05-01T07:14:59.821Z</time></trkpt><trkpt lat="39.7137633" lon="8.50279"><ele>1.0</ele><time>2026-05-01T07:15:00.822Z</time></trkpt><trkpt lat="39.7136483" lon="8.5027083"><ele>1.0</ele><time>2026-05-01T07:15:01.821Z</time></trkpt><trkpt lat="39.7135367" lon="8.5026333"><ele>1.0</ele><time>2026-05-01T07:15:02.821Z</time></trkpt><trkpt lat="39.7134367" lon="8.5025683"><ele>1.0</ele><time>2026-05-01T07:15:03.822Z</time></trkpt><trkpt lat="39.7133433" lon="8.5025033"><ele>1.0</ele><time>2026-05-01T07:15:04.821Z</time></trkpt><trkpt lat="39.7132533" lon="8.502445"><ele>1.0</ele><time>2026-05-01T07:15:05.822Z</time></trkpt><trkpt lat="39.71317" lon="8.50239"><ele>0.9999999999999999</ele><time>2026-05-01T07:15:06.821Z</time></trkpt><trkpt lat="39.7130967" lon="8.5023467"><ele>1.0</ele><time>2026-05-01T07:15:07.822Z</time></trkpt><trkpt lat="39.7130317" lon="8.5023067"><ele>1.0</ele><time>2026-05-01T07:15:08.821Z</time></trkpt><trkpt lat="39.7129667" lon="8.5022633"><ele>1.0</ele><time>2026-05-01T07:15:09.822Z</time></trkpt><trkpt lat="39.7129067" lon="8.5022267"><ele>0.9999999999999999</ele><time>2026-05-01T07:15:10.822Z</time></trkpt><trkpt lat="39.7128033" lon="8.5021533"><ele>1.0</ele><time>2026-05-01T07:15:12.821Z</time></trkpt><trkpt lat="39.712695" lon="8.5020733"><ele>1.4</ele><time>2026-05-01T07:15:14.821Z</time></trkpt><trkpt lat="39.7125933" lon="8.5019867"><ele>1.8</ele><time>2026-05-01T07:15:16.821Z</time></trkpt><trkpt lat="39.7125033" lon="8.5019"><ele>2.1999999999999997</ele><time>2026-05-01T07:15:18.822Z</time></trkpt><trkpt lat="39.7124833" lon="8.501755"><ele>2.6</ele><time>2026-05-01T07:15:20.821Z</time></trkpt><trkpt lat="39.7125" lon="8.5016467"><ele>3.0</ele><time>2026-05-01T07:15:21.821Z</time></trkpt><trkpt lat="39.7125183" lon="8.5015133"><ele>3.0</ele><time>2026-05-01T07:15:22.821Z</time></trkpt><trkpt lat="39.71254" lon="8.5013683"><ele>3.0</ele><time>2026-05-01T07:15:23.821Z</time></trkpt><trkpt lat="39.7125733" lon="8.501215"><ele>3.0</ele><time>2026-05-01T07:15:24.822Z</time></trkpt><trkpt lat="39.7126283" lon="8.5010617"><ele>3.0</ele><time>2026-05-01T07:15:25.822Z</time></trkpt><trkpt lat="39.712705" lon="8.5009117"><ele>3.333333333333333</ele><time>2026-05-01T07:15:26.821Z</time></trkpt><trkpt lat="39.7127917" lon="8.500745"><ele>3.6666666666666665</ele><time>2026-05-01T07:15:27.822Z</time></trkpt><trkpt lat="39.71287" lon="8.5005733"><ele>4.0</ele><time>2026-05-01T07:15:28.822Z</time></trkpt><trkpt lat="39.7129583" lon="8.5004083"><ele>4.0</ele><time>2026-05-01T07:15:29.822Z</time></trkpt><trkpt lat="39.7130583" lon="8.5002467"><ele>4.0</ele><time>2026-05-01T07:15:30.821Z</time></trkpt><trkpt lat="39.7131667" lon="8.50008"><ele>4.0</ele><time>2026-05-01T07:15:31.822Z</time></trkpt><trkpt lat="39.7132717" lon="8.4999067"><ele>4.0</ele><time>2026-05-01T07:15:32.821Z</time></trkpt><trkpt lat="39.7133767" lon="8.499725"><ele>4.0</ele><time>2026-05-01T07:15:33.821Z</time></trkpt><trkpt lat="39.713475" lon="8.4995433"><ele>4.0</ele><time>2026-05-01T07:15:34.821Z</time></trkpt><trkpt lat="39.7135733" lon="8.4993633"><ele>3.0</ele><time>2026-05-01T07:15:35.821Z</time></trkpt><trkpt lat="39.713655" lon="8.4991733"><ele>2.0</ele><time>2026-05-01T07:15:36.822Z</time></trkpt><trkpt lat="39.713725" lon="8.4989833"><ele>1.0</ele><time>2026-05-01T07:15:37.821Z</time></trkpt><trkpt lat="39.7137933" lon="8.4988017"><ele>1.0</ele><time>2026-05-01T07:15:38.822Z</time></trkpt><trkpt lat="39.7138417" lon="8.4986267"><ele>1.0</ele><time>2026-05-01T07:15:39.821Z</time></trkpt><trkpt lat="39.7138633" lon="8.4984633"><ele>1.0</ele><time>2026-05-01T07:15:40.821Z</time></trkpt><trkpt lat="39.7138667" lon="8.4982917"><ele>1.0</ele><time>2026-05-01T07:15:41.821Z</time></trkpt><trkpt lat="39.7138583" lon="8.4981033"><ele>1.0</ele><time>2026-05-01T07:15:42.821Z</time></trkpt><trkpt lat="39.7138467" lon="8.497905"><ele>1.0</ele><time>2026-05-01T07:15:43.822Z</time></trkpt><trkpt lat="39.7138517" lon="8.4977017"><ele>1.0</ele><time>2026-05-01T07:15:44.822Z</time></trkpt><trkpt lat="39.7138683" lon="8.4974817"><ele>1.0</ele><time>2026-05-01T07:15:45.821Z</time></trkpt><trkpt lat="39.7138933" lon="8.4972733"><ele>1.0</ele><time>2026-05-01T07:15:46.821Z</time></trkpt><trkpt lat="39.713915" lon="8.4970783"><ele>1.0</ele><time>2026-05-01T07:15:47.821Z</time></trkpt><trkpt lat="39.7139217" lon="8.4969083"><ele>1.0</ele><time>2026-05-01T07:15:48.821Z</time></trkpt><trkpt lat="39.7139067" lon="8.4967533"><ele>0.75</ele><time>2026-05-01T07:15:49.822Z</time></trkpt><trkpt lat="39.713865" lon="8.49662"><ele>0.5</ele><time>2026-05-01T07:15:50.821Z</time></trkpt><trkpt lat="39.7138033" lon="8.4964933"><ele>0.25</ele><time>2026-05-01T07:15:51.821Z</time></trkpt><trkpt lat="39.7137167" lon="8.49639"><ele>0.0</ele><time>2026-05-01T07:15:52.821Z</time></trkpt><trkpt lat="39.7136083" lon="8.4963217"><ele>0.5</ele><time>2026-05-01T07:15:53.821Z</time></trkpt><trkpt lat="39.7134817" lon="8.4962717"><ele>1.0</ele><time>2026-05-01T07:15:54.821Z</time></trkpt><trkpt lat="39.7133417" lon="8.4962267"><ele>1.5</ele><time>2026-05-01T07:15:55.822Z</time></trkpt><trkpt lat="39.7132067" lon="8.4962083"><ele>2.0</ele><time>2026-05-01T07:15:56.821Z</time></trkpt><trkpt lat="39.7130833" lon="8.4962233"><ele>2.0</ele><time>2026-05-01T07:15:57.821Z</time></trkpt><trkpt lat="39.712975" lon="8.4962233"><ele>2.0</ele><time>2026-05-01T07:15:58.822Z</time></trkpt><trkpt lat="39.7128817" lon="8.4961917"><ele>2.0</ele><time>2026-05-01T07:15:59.822Z</time></trkpt><trkpt lat="39.71282" lon="8.49614"><ele>2.0</ele><time>2026-05-01T07:16:00.821Z</time></trkpt><trkpt lat="39.7127833" lon="8.496065"><ele>2.0</ele><time>2026-05-01T07:16:01.821Z</time></trkpt><trkpt lat="39.712765" lon="8.49591"><ele>2.0</ele><time>2026-05-01T07:16:03.822Z</time></trkpt><trkpt lat="39.7127917" lon="8.4958133"><ele>2.0</ele><time>2026-05-01T07:16:04.822Z</time></trkpt><trkpt lat="39.7128417" lon="8.4956967"><ele>2.0</ele><time>2026-05-01T07:16:05.821Z</time></trkpt><trkpt lat="39.712905" lon="8.495575"><ele>2.0</ele><time>2026-05-01T07:16:06.822Z</time></trkpt><trkpt lat="39.7129683" lon="8.4954317"><ele>2.0</ele><time>2026-05-01T07:16:07.821Z</time></trkpt><trkpt lat="39.7130267" lon="8.4952883"><ele>1.75</ele><time>2026-05-01T07:16:08.821Z</time></trkpt><trkpt lat="39.71309" lon="8.4951283"><ele>1.5</ele><time>2026-05-01T07:16:09.822Z</time></trkpt><trkpt lat="39.7131517" lon="8.4949583"><ele>1.25</ele><time>2026-05-01T07:16:10.821Z</time></trkpt><trkpt lat="39.71321" lon="8.4947883"><ele>1.0</ele><time>2026-05-01T07:16:11.822Z</time></trkpt><trkpt lat="39.71327" lon="8.4946183"><ele>2.0</ele><time>2026-05-01T07:16:12.821Z</time></trkpt><trkpt lat="39.7133383" lon="8.4944517"><ele>3.0</ele><time>2026-05-01T07:16:13.821Z</time></trkpt><trkpt lat="39.7134067" lon="8.4942833"><ele>4.0</ele><time>2026-05-01T07:16:14.821Z</time></trkpt><trkpt lat="39.71348" lon="8.494115"><ele>5.0</ele><time>2026-05-01T07:16:15.822Z</time></trkpt><trkpt lat="39.7135483" lon="8.493945"><ele>4.5</ele><time>2026-05-01T07:16:16.821Z</time></trkpt><trkpt lat="39.7136167" lon="8.4937817"><ele>4.0</ele><time>2026-05-01T07:16:17.821Z</time></trkpt><trkpt lat="39.71368" lon="8.49362"><ele>3.5</ele><time>2026-05-01T07:16:18.821Z</time></trkpt><trkpt lat="39.7137383" lon="8.493465"><ele>3.0</ele><time>2026-05-01T07:16:19.821Z</time></trkpt><trkpt lat="39.713795" lon="8.49331"><ele>2.75</ele><time>2026-05-01T07:16:20.821Z</time></trkpt><trkpt lat="39.713855" lon="8.4931583"><ele>2.5</ele><time>2026-05-01T07:16:21.821Z</time></trkpt><trkpt lat="39.7139233" lon="8.4930117"><ele>2.25</ele><time>2026-05-01T07:16:22.821Z</time></trkpt><trkpt lat="39.713995" lon="8.4928617"><ele>2.0</ele><time>2026-05-01T07:16:23.821Z</time></trkpt><trkpt lat="39.7140683" lon="8.4927133"><ele>3.25</ele><time>2026-05-01T07:16:24.821Z</time></trkpt><trkpt lat="39.7141433" lon="8.4925567"><ele>4.5</ele><time>2026-05-01T07:16:25.821Z</time></trkpt><trkpt lat="39.7142267" lon="8.4924"><ele>5.75</ele><time>2026-05-01T07:16:26.821Z</time></trkpt><trkpt lat="39.7143117" lon="8.4922367"><ele>7.0</ele><time>2026-05-01T07:16:27.821Z</time></trkpt><trkpt lat="39.7143933" lon="8.49208"><ele>5.25</ele><time>2026-05-01T07:16:28.822Z</time></trkpt><trkpt lat="39.7144717" lon="8.4919267"><ele>3.5</ele><time>2026-05-01T07:16:29.822Z</time></trkpt><trkpt lat="39.71455" lon="8.4917683"><ele>1.75</ele><time>2026-05-01T07:16:30.822Z</time></trkpt><trkpt lat="39.71462" lon="8.4916017"><ele>0.0</ele><time>2026-05-01T07:16:31.822Z</time></trkpt><trkpt lat="39.714685" lon="8.4914183"><ele>0.3333333333333333</ele><time>2026-05-01T07:16:32.821Z</time></trkpt><trkpt lat="39.71474" lon="8.4912167"><ele>0.6666666666666666</ele><time>2026-05-01T07:16:33.822Z</time></trkpt><trkpt lat="39.714785" lon="8.4909983"><ele>1.0</ele><time>2026-05-01T07:16:34.821Z</time></trkpt><trkpt lat="39.7148267" lon="8.4907717"><ele>1.0</ele><time>2026-05-01T07:16:35.821Z</time></trkpt><trkpt lat="39.714865" lon="8.49055"><ele>1.0</ele><time>2026-05-01T07:16:36.821Z</time></trkpt><trkpt lat="39.7149067" lon="8.4903383"><ele>1.0</ele><time>2026-05-01T07:16:37.821Z</time></trkpt><trkpt lat="39.7149483" lon="8.4901383"><ele>1.25</ele><time>2026-05-01T07:16:38.821Z</time></trkpt><trkpt lat="39.7149883" lon="8.489945"><ele>1.5</ele><time>2026-05-01T07:16:39.821Z</time></trkpt><trkpt lat="39.7150217" lon="8.4897517"><ele>1.75</ele><time>2026-05-01T07:16:40.821Z</time></trkpt><trkpt lat="39.7150533" lon="8.4895717"><ele>2.0</ele><time>2026-05-01T07:16:41.821Z</time></trkpt><trkpt lat="39.7150867" lon="8.4893883"><ele>2.25</ele><time>2026-05-01T07:16:42.821Z</time></trkpt><trkpt lat="39.7151117" lon="8.4892117"><ele>2.5</ele><time>2026-05-01T07:16:43.821Z</time></trkpt><trkpt lat="39.7151217" lon="8.4890283"><ele>2.75</ele><time>2026-05-01T07:16:44.822Z</time></trkpt><trkpt lat="39.7151133" lon="8.48884"><ele>3.0</ele><time>2026-05-01T07:16:45.82Z</time></trkpt><trkpt lat="39.7150833" lon="8.48865"><ele>2.3333333333333335</ele><time>2026-05-01T07:16:46.821Z</time></trkpt><trkpt lat="39.7150317" lon="8.4884583"><ele>1.6666666666666665</ele><time>2026-05-01T07:16:47.82Z</time></trkpt><trkpt lat="39.714965" lon="8.488275"><ele>1.0</ele><time>2026-05-01T07:16:48.82Z</time></trkpt><trkpt lat="39.7148817" lon="8.48809"><ele>1.0</ele><time>2026-05-01T07:16:49.821Z</time></trkpt><trkpt lat="39.7147733" lon="8.487915"><ele>1.0</ele><time>2026-05-01T07:16:50.82Z</time></trkpt><trkpt lat="39.7146567" lon="8.4877533"><ele>1.0</ele><time>2026-05-01T07:16:51.82Z</time></trkpt><trkpt lat="39.714545" lon="8.4876"><ele>1.0</ele><time>2026-05-01T07:16:52.82Z</time></trkpt><trkpt lat="39.7144383" lon="8.4874467"><ele>1.0</ele><time>2026-05-01T07:16:53.82Z</time></trkpt><trkpt lat="39.7143433" lon="8.4873033"><ele>1.0</ele><time>2026-05-01T07:16:54.821Z</time></trkpt><trkpt lat="39.7142533" lon="8.48717"><ele>1.0</ele><time>2026-05-01T07:16:55.82Z</time></trkpt><trkpt lat="39.7141683" lon="8.48705"><ele>1.5</ele><time>2026-05-01T07:16:56.82Z</time></trkpt><trkpt lat="39.7140967" lon="8.486945"><ele>2.0</ele><time>2026-05-01T07:16:57.82Z</time></trkpt><trkpt lat="39.7140333" lon="8.486855"><ele>2.5</ele><time>2026-05-01T07:16:58.82Z</time></trkpt><trkpt lat="39.7139783" lon="8.4867783"><ele>3.0</ele><time>2026-05-01T07:16:59.82Z</time></trkpt><trkpt lat="39.7139367" lon="8.486715"><ele>3.4999999999999996</ele><time>2026-05-01T07:17:00.82Z</time></trkpt><trkpt lat="39.713895" lon="8.4866517"><ele>4.0</ele><time>2026-05-01T07:17:01.821Z</time></trkpt><trkpt lat="39.71383" lon="8.4865467"><ele>4.0</ele><time>2026-05-01T07:17:03.82Z</time></trkpt><trkpt lat="39.71378" lon="8.4864583"><ele>4.0</ele><time>2026-05-01T07:17:05.82Z</time></trkpt><trkpt lat="39.713725" lon="8.4863617"><ele>4.0</ele><time>2026-05-01T07:17:07.82Z</time></trkpt><trkpt lat="39.7136917" lon="8.48624"><ele>4.0</ele><time>2026-05-01T07:17:09.821Z</time></trkpt><trkpt lat="39.7137033" lon="8.4860967"><ele>4.0</ele><time>2026-05-01T07:17:11.82Z</time></trkpt><trkpt lat="39.7137217" lon="8.485975"><ele>3.833333333333333</ele><time>2026-05-01T07:17:13.82Z</time></trkpt><trkpt lat="39.7137333" lon="8.485865"><ele>3.6666666666666665</ele><time>2026-05-01T07:17:15.82Z</time></trkpt><trkpt lat="39.7137033" lon="8.4857567"><ele>3.5</ele><time>2026-05-01T07:17:17.82Z</time></trkpt><trkpt lat="39.71367" lon="8.4856817"><ele>3.333333333333333</ele><time>2026-05-01T07:17:18.82Z</time></trkpt><trkpt lat="39.7136483" lon="8.4855933"><ele>3.1666666666666665</ele><time>2026-05-01T07:17:19.82Z</time></trkpt><trkpt lat="39.7136483" lon="8.4854967"><ele>3.0</ele><time>2026-05-01T07:17:20.82Z</time></trkpt><trkpt lat="39.7136633" lon="8.4854117"><ele>2.8</ele><time>2026-05-01T07:17:21.82Z</time></trkpt><trkpt lat="39.713685" lon="8.4852917"><ele>2.5999999999999996</ele><time>2026-05-01T07:17:23.821Z</time></trkpt><trkpt lat="39.713705" lon="8.4851317"><ele>2.4000000000000004</ele><time>2026-05-01T07:17:25.82Z</time></trkpt><trkpt lat="39.7137267" lon="8.4850067"><ele>2.2</ele><time>2026-05-01T07:17:26.82Z</time></trkpt><trkpt lat="39.7137483" lon="8.4848583"><ele>2.0</ele><time>2026-05-01T07:17:27.821Z</time></trkpt><trkpt lat="39.7137733" lon="8.4846883"><ele>1.5</ele><time>2026-05-01T07:17:28.82Z</time></trkpt><trkpt lat="39.7137983" lon="8.4845117"><ele>1.0</ele><time>2026-05-01T07:17:29.82Z</time></trkpt><trkpt lat="39.7138217" lon="8.4843283"><ele>0.5</ele><time>2026-05-01T07:17:30.821Z</time></trkpt><trkpt lat="39.71385" lon="8.4841317"><ele>0.0</ele><time>2026-05-01T07:17:31.82Z</time></trkpt><trkpt lat="39.7138683" lon="8.4839517"><ele>0.0</ele><time>2026-05-01T07:17:32.82Z</time></trkpt><trkpt lat="39.7138933" lon="8.4837683"><ele>0.0</ele><time>2026-05-01T07:17:33.82Z</time></trkpt><trkpt lat="39.71393" lon="8.4835783"><ele>0.0</ele><time>2026-05-01T07:17:34.821Z</time></trkpt><trkpt lat="39.7139683" lon="8.48338"><ele>0.6666666666666666</ele><time>2026-05-01T07:17:35.82Z</time></trkpt><trkpt lat="39.714015" lon="8.48318"><ele>1.3333333333333333</ele><time>2026-05-01T07:17:36.82Z</time></trkpt><trkpt lat="39.7140633" lon="8.482985"><ele>2.0</ele><time>2026-05-01T07:17:37.821Z</time></trkpt><trkpt lat="39.7141017" lon="8.4827667"><ele>2.0</ele><time>2026-05-01T07:17:38.82Z</time></trkpt><trkpt lat="39.714135" lon="8.4825533"><ele>2.0</ele><time>2026-05-01T07:17:39.821Z</time></trkpt><trkpt lat="39.7141617" lon="8.4823517"><ele>2.0</ele><time>2026-05-01T07:17:40.82Z</time></trkpt><trkpt lat="39.7141817" lon="8.4821533"><ele>2.5</ele><time>2026-05-01T07:17:41.82Z</time></trkpt><trkpt lat="39.714205" lon="8.4819483"><ele>3.0</ele><time>2026-05-01T07:17:42.821Z</time></trkpt><trkpt lat="39.7142017" lon="8.4817733"><ele>3.5</ele><time>2026-05-01T07:17:43.82Z</time></trkpt><trkpt lat="39.7141917" lon="8.4815733"><ele>4.0</ele><time>2026-05-01T07:17:44.821Z</time></trkpt><trkpt lat="39.7141717" lon="8.4813783"><ele>4.0</ele><time>2026-05-01T07:17:45.82Z</time></trkpt><trkpt lat="39.71415" lon="8.4811633"><ele>4.0</ele><time>2026-05-01T07:17:46.821Z</time></trkpt><trkpt lat="39.71412" lon="8.480965"><ele>4.0</ele><time>2026-05-01T07:17:47.82Z</time></trkpt><trkpt lat="39.7140933" lon="8.4807733"><ele>4.0</ele><time>2026-05-01T07:17:48.82Z</time></trkpt><trkpt lat="39.71407" lon="8.4805817"><ele>4.0</ele><time>2026-05-01T07:17:49.821Z</time></trkpt><trkpt lat="39.714055" lon="8.4803933"><ele>4.0</ele><time>2026-05-01T07:17:50.82Z</time></trkpt><trkpt lat="39.7140633" lon="8.4802067"><ele>4.0</ele><time>2026-05-01T07:17:51.821Z</time></trkpt><trkpt lat="39.714085" lon="8.480015"><ele>3.6666666666666665</ele><time>2026-05-01T07:17:52.82Z</time></trkpt><trkpt lat="39.714115" lon="8.47982"><ele>3.333333333333333</ele><time>2026-05-01T07:17:53.82Z</time></trkpt><trkpt lat="39.7141533" lon="8.479625"><ele>3.0</ele><time>2026-05-01T07:17:54.82Z</time></trkpt><trkpt lat="39.7141967" lon="8.479425"><ele>3.0</ele><time>2026-05-01T07:17:55.821Z</time></trkpt><trkpt lat="39.7142133" lon="8.4792133"><ele>3.0</ele><time>2026-05-01T07:17:56.82Z</time></trkpt><trkpt lat="39.7142183" lon="8.4790083"><ele>3.0</ele><time>2026-05-01T07:17:57.821Z</time></trkpt><trkpt lat="39.7141983" lon="8.4787867"><ele>2.3333333333333335</ele><time>2026-05-01T07:17:58.82Z</time></trkpt><trkpt lat="39.7141617" lon="8.4785617"><ele>1.6666666666666665</ele><time>2026-05-01T07:17:59.821Z</time></trkpt><trkpt lat="39.7141233" lon="8.4783383"><ele>1.0</ele><time>2026-05-01T07:18:00.821Z</time></trkpt><trkpt lat="39.71409" lon="8.47812"><ele>2.0</ele><time>2026-05-01T07:18:01.82Z</time></trkpt><trkpt lat="39.71406" lon="8.4779017"><ele>3.0</ele><time>2026-05-01T07:18:02.821Z</time></trkpt><trkpt lat="39.71404" lon="8.4776783"><ele>4.0</ele><time>2026-05-01T07:18:03.82Z</time></trkpt><trkpt lat="39.71402" lon="8.4774583"><ele>4.0</ele><time>2026-05-01T07:18:04.82Z</time></trkpt><trkpt lat="39.7139967" lon="8.47724"><ele>4.0</ele><time>2026-05-01T07:18:05.82Z</time></trkpt><trkpt lat="39.71398" lon="8.477025"><ele>4.0</ele><time>2026-05-01T07:18:06.82Z</time></trkpt><trkpt lat="39.7139683" lon="8.4768167"><ele>4.0</ele><time>2026-05-01T07:18:07.82Z</time></trkpt><trkpt lat="39.7139633" lon="8.4766083"><ele>4.0</ele><time>2026-05-01T07:18:08.82Z</time></trkpt><trkpt lat="39.71397" lon="8.4764067"><ele>4.0</ele><time>2026-05-01T07:18:09.821Z</time></trkpt><trkpt lat="39.7139867" lon="8.4762183"><ele>4.0</ele><time>2026-05-01T07:18:10.82Z</time></trkpt><trkpt lat="39.7140017" lon="8.476025"><ele>4.0</ele><time>2026-05-01T07:18:11.82Z</time></trkpt><trkpt lat="39.7140033" lon="8.4758283"><ele>4.0</ele><time>2026-05-01T07:18:12.821Z</time></trkpt><trkpt lat="39.7140067" lon="8.475635"><ele>4.0</ele><time>2026-05-01T07:18:13.821Z</time></trkpt><trkpt lat="39.7140017" lon="8.4754467"><ele>4.25</ele><time>2026-05-01T07:18:14.821Z</time></trkpt><trkpt lat="39.7139733" lon="8.4752733"><ele>4.5</ele><time>2026-05-01T07:18:15.821Z</time></trkpt><trkpt lat="39.7139217" lon="8.4751033"><ele>4.75</ele><time>2026-05-01T07:18:16.82Z</time></trkpt><trkpt lat="39.7138433" lon="8.4749583"><ele>5.0</ele><time>2026-05-01T07:18:17.82Z</time></trkpt><trkpt lat="39.7137317" lon="8.4748333"><ele>5.0</ele><time>2026-05-01T07:18:18.82Z</time></trkpt><trkpt lat="39.7136117" lon="8.4747233"><ele>5.0</ele><time>2026-05-01T07:18:19.82Z</time></trkpt><trkpt lat="39.7134817" lon="8.4746067"><ele>5.0</ele><time>2026-05-01T07:18:20.82Z</time></trkpt><trkpt lat="39.7133467" lon="8.474495"><ele>6.0</ele><time>2026-05-01T07:18:21.821Z</time></trkpt><trkpt lat="39.7132117" lon="8.4743633"><ele>7.0</ele><time>2026-05-01T07:18:22.82Z</time></trkpt><trkpt lat="39.71307" lon="8.4742317"><ele>8.0</ele><time>2026-05-01T07:18:23.82Z</time></trkpt><trkpt lat="39.7129233" lon="8.4741033"><ele>8.0</ele><time>2026-05-01T07:18:24.821Z</time></trkpt><trkpt lat="39.7127783" lon="8.4739733"><ele>8.0</ele><time>2026-05-01T07:18:25.82Z</time></trkpt><trkpt lat="39.7126333" lon="8.4738517"><ele>8.0</ele><time>2026-05-01T07:18:26.821Z</time></trkpt><trkpt lat="39.7124933" lon="8.47374"><ele>8.0</ele><time>2026-05-01T07:18:27.82Z</time></trkpt><trkpt lat="39.7123617" lon="8.473635"><ele>8.0</ele><time>2026-05-01T07:18:28.82Z</time></trkpt><trkpt lat="39.7122367" lon="8.4735317"><ele>8.0</ele><time>2026-05-01T07:18:29.821Z</time></trkpt><trkpt lat="39.7121267" lon="8.47341"><ele>8.0</ele><time>2026-05-01T07:18:30.82Z</time></trkpt><trkpt lat="39.7120383" lon="8.4732733"><ele>8.0</ele><time>2026-05-01T07:18:31.82Z</time></trkpt><trkpt lat="39.7119733" lon="8.4730983"><ele>8.0</ele><time>2026-05-01T07:18:32.82Z</time></trkpt><trkpt lat="39.7119283" lon="8.472905"><ele>8.0</ele><time>2026-05-01T07:18:33.82Z</time></trkpt><trkpt lat="39.7118867" lon="8.4726967"><ele>8.333333333333332</ele><time>2026-05-01T07:18:34.82Z</time></trkpt><trkpt lat="39.7118483" lon="8.472475"><ele>8.666666666666666</ele><time>2026-05-01T07:18:35.82Z</time></trkpt><trkpt lat="39.7118117" lon="8.47225"><ele>9.0</ele><time>2026-05-01T07:18:36.82Z</time></trkpt><trkpt lat="39.711775" lon="8.4720267"><ele>9.0</ele><time>2026-05-01T07:18:37.82Z</time></trkpt><trkpt lat="39.7117367" lon="8.4718083"><ele>9.0</ele><time>2026-05-01T07:18:38.82Z</time></trkpt><trkpt lat="39.7116967" lon="8.471595"><ele>9.0</ele><time>2026-05-01T07:18:39.82Z</time></trkpt><trkpt lat="39.7116583" lon="8.47139"><ele>9.333333333333334</ele><time>2026-05-01T07:18:40.82Z</time></trkpt><trkpt lat="39.7116267" lon="8.4711717"><ele>9.666666666666668</ele><time>2026-05-01T07:18:41.82Z</time></trkpt><trkpt lat="39.7115983" lon="8.4709533"><ele>10.0</ele><time>2026-05-01T07:18:42.82Z</time></trkpt><trkpt lat="39.71158" lon="8.4707283"><ele>10.0</ele><time>2026-05-01T07:18:43.821Z</time></trkpt><trkpt lat="39.7115633" lon="8.4705083"><ele>10.0</ele><time>2026-05-01T07:18:44.82Z</time></trkpt><trkpt lat="39.71155" lon="8.4702883"><ele>10.0</ele><time>2026-05-01T07:18:45.82Z</time></trkpt><trkpt lat="39.7115367" lon="8.4700617"><ele>11.0</ele><time>2026-05-01T07:18:46.82Z</time></trkpt><trkpt lat="39.7115383" lon="8.4698467"><ele>12.0</ele><time>2026-05-01T07:18:47.82Z</time></trkpt><trkpt lat="39.7115417" lon="8.4696283"><ele>13.0</ele><time>2026-05-01T07:18:48.82Z</time></trkpt><trkpt lat="39.7115483" lon="8.4694067"><ele>13.333333333333332</ele><time>2026-05-01T07:18:49.82Z</time></trkpt><trkpt lat="39.7115583" lon="8.4691883"><ele>13.666666666666668</ele><time>2026-05-01T07:18:50.821Z</time></trkpt><trkpt lat="39.7115633" lon="8.4689583"><ele>14.0</ele><time>2026-05-01T07:18:51.82Z</time></trkpt><trkpt lat="39.7115767" lon="8.46873"><ele>14.0</ele><time>2026-05-01T07:18:52.82Z</time></trkpt><trkpt lat="39.71158" lon="8.4685033"><ele>14.0</ele><time>2026-05-01T07:18:53.82Z</time></trkpt><trkpt lat="39.71157" lon="8.4682667"><ele>14.0</ele><time>2026-05-01T07:18:54.821Z</time></trkpt><trkpt lat="39.7115467" lon="8.468035"><ele>14.333333333333334</ele><time>2026-05-01T07:18:55.82Z</time></trkpt><trkpt lat="39.711515" lon="8.4678017"><ele>14.666666666666668</ele><time>2026-05-01T07:18:56.82Z</time></trkpt><trkpt lat="39.71148" lon="8.4675717"><ele>15.0</ele><time>2026-05-01T07:18:57.82Z</time></trkpt><trkpt lat="39.711445" lon="8.4673467"><ele>15.0</ele><time>2026-05-01T07:18:58.82Z</time></trkpt><trkpt lat="39.7114183" lon="8.4671133"><ele>15.0</ele><time>2026-05-01T07:18:59.82Z</time></trkpt><trkpt lat="39.7113883" lon="8.4668833"><ele>15.0</ele><time>2026-05-01T07:19:00.82Z</time></trkpt><trkpt lat="39.7113633" lon="8.4666683"><ele>15.6</ele><time>2026-05-01T07:19:01.82Z</time></trkpt><trkpt lat="39.7113333" lon="8.4664733"><ele>16.2</ele><time>2026-05-01T07:19:02.82Z</time></trkpt><trkpt lat="39.7113133" lon="8.4663233"><ele>16.8</ele><time>2026-05-01T07:19:03.82Z</time></trkpt><trkpt lat="39.7112967" lon="8.466205"><ele>17.4</ele><time>2026-05-01T07:19:04.82Z</time></trkpt><trkpt lat="39.7112817" lon="8.4661083"><ele>18.0</ele><time>2026-05-01T07:19:05.82Z</time></trkpt><trkpt lat="39.71127" lon="8.466025"><ele>18.0</ele><time>2026-05-01T07:19:06.82Z</time></trkpt><trkpt lat="39.711265" lon="8.4659267"><ele>18.0</ele><time>2026-05-01T07:19:08.82Z</time></trkpt><trkpt lat="39.7112233" lon="8.4658583"><ele>18.0</ele><time>2026-05-01T07:19:11.821Z</time></trkpt><trkpt lat="39.7111417" lon="8.465875"><ele>18.0</ele><time>2026-05-01T07:19:32.821Z</time></trkpt><trkpt lat="39.7110167" lon="8.4659583"><ele>18.0</ele><time>2026-05-01T07:19:34.82Z</time></trkpt><trkpt lat="39.71094" lon="8.466025"><ele>18.6</ele><time>2026-05-01T07:19:35.82Z</time></trkpt><trkpt lat="39.7108567" lon="8.466105"><ele>19.200000000000003</ele><time>2026-05-01T07:19:36.821Z</time></trkpt><trkpt lat="39.710775" lon="8.4661967"><ele>19.8</ele><time>2026-05-01T07:19:37.82Z</time></trkpt><trkpt lat="39.7106933" lon="8.4662833"><ele>20.400000000000002</ele><time>2026-05-01T07:19:38.821Z</time></trkpt><trkpt lat="39.71061" lon="8.4663783"><ele>21.0</ele><time>2026-05-01T07:19:39.821Z</time></trkpt><trkpt lat="39.710535" lon="8.466465"><ele>21.0</ele><time>2026-05-01T07:19:40.82Z</time></trkpt><trkpt lat="39.710465" lon="8.4665383"><ele>21.0</ele><time>2026-05-01T07:19:41.82Z</time></trkpt><trkpt lat="39.710405" lon="8.4665817"><ele>21.0</ele><time>2026-05-01T07:19:42.82Z</time></trkpt><trkpt lat="39.7103367" lon="8.466605"><ele>21.0</ele><time>2026-05-01T07:19:43.82Z</time></trkpt><trkpt lat="39.7102683" lon="8.4665917"><ele>21.0</ele><time>2026-05-01T07:19:44.82Z</time></trkpt><trkpt lat="39.7102017" lon="8.4665333"><ele>21.0</ele><time>2026-05-01T07:19:45.82Z</time></trkpt><trkpt lat="39.71013" lon="8.466435"><ele>21.75</ele><time>2026-05-01T07:19:46.821Z</time></trkpt><trkpt lat="39.71004" lon="8.46632"><ele>22.5</ele><time>2026-05-01T07:19:47.821Z</time></trkpt><trkpt lat="39.7099383" lon="8.4662133"><ele>23.25</ele><time>2026-05-01T07:19:48.82Z</time></trkpt><trkpt lat="39.70984" lon="8.4661033"><ele>24.0</ele><time>2026-05-01T07:19:49.82Z</time></trkpt><trkpt lat="39.7097333" lon="8.465985"><ele>24.5</ele><time>2026-05-01T07:19:50.82Z</time></trkpt><trkpt lat="39.7096233" lon="8.46586"><ele>25.0</ele><time>2026-05-01T07:19:51.82Z</time></trkpt><trkpt lat="39.7095233" lon="8.465755"><ele>25.5</ele><time>2026-05-01T07:19:52.821Z</time></trkpt><trkpt lat="39.70942" lon="8.4656683"><ele>26.0</ele><time>2026-05-01T07:19:53.82Z</time></trkpt><trkpt lat="39.7093083" lon="8.4655933"><ele>27.0</ele><time>2026-05-01T07:19:54.82Z</time></trkpt><trkpt lat="39.7092017" lon="8.46552"><ele>28.0</ele><time>2026-05-01T07:19:55.819Z</time></trkpt><trkpt lat="39.70911" lon="8.4654333"><ele>29.0</ele><time>2026-05-01T07:19:56.819Z</time></trkpt><trkpt lat="39.7090167" lon="8.465345"><ele>30.0</ele><time>2026-05-01T07:19:57.819Z</time></trkpt><trkpt lat="39.70893" lon="8.4652433"><ele>30.75</ele><time>2026-05-01T07:19:58.82Z</time></trkpt><trkpt lat="39.7088567" lon="8.4651267"><ele>31.5</ele><time>2026-05-01T07:19:59.819Z</time></trkpt><trkpt lat="39.70878" lon="8.4650033"><ele>32.25</ele><time>2026-05-01T07:20:00.819Z</time></trkpt><trkpt lat="39.7087083" lon="8.4648817"><ele>33.0</ele><time>2026-05-01T07:20:01.82Z</time></trkpt><trkpt lat="39.7086317" lon="8.4647683"><ele>33.4</ele><time>2026-05-01T07:20:02.819Z</time></trkpt><trkpt lat="39.7085567" lon="8.4646683"><ele>33.8</ele><time>2026-05-01T07:20:03.819Z</time></trkpt><trkpt lat="39.7084867" lon="8.46456"><ele>34.2</ele><time>2026-05-01T07:20:04.819Z</time></trkpt><trkpt lat="39.7084183" lon="8.464445"><ele>34.6</ele><time>2026-05-01T07:20:05.819Z</time></trkpt><trkpt lat="39.7083467" lon="8.4643333"><ele>35.0</ele><time>2026-05-01T07:20:06.819Z</time></trkpt><trkpt lat="39.7082783" lon="8.4642283"><ele>35.0</ele><time>2026-05-01T07:20:07.819Z</time></trkpt><trkpt lat="39.708205" lon="8.464145"><ele>35.0</ele><time>2026-05-01T07:20:08.82Z</time></trkpt><trkpt lat="39.708135" lon="8.4640667"><ele>35.0</ele><time>2026-05-01T07:20:09.82Z</time></trkpt><trkpt lat="39.7080617" lon="8.4639983"><ele>35.0</ele><time>2026-05-01T07:20:10.819Z</time></trkpt><trkpt lat="39.7079867" lon="8.4639467"><ele>35.0</ele><time>2026-05-01T07:20:11.819Z</time></trkpt><trkpt lat="39.7079" lon="8.4638983"><ele>35.0</ele><time>2026-05-01T07:20:12.819Z</time></trkpt><trkpt lat="39.707815" lon="8.4638683"><ele>35.0</ele><time>2026-05-01T07:20:13.819Z</time></trkpt><trkpt lat="39.707735" lon="8.4638617"><ele>35.0</ele><time>2026-05-01T07:20:14.819Z</time></trkpt><trkpt lat="39.70766" lon="8.4638783"><ele>35.0</ele><time>2026-05-01T07:20:15.819Z</time></trkpt><trkpt lat="39.707595" lon="8.4639033"><ele>35.0</ele><time>2026-05-01T07:20:16.819Z</time></trkpt><trkpt lat="39.707525" lon="8.4639317"><ele>35.0</ele><time>2026-05-01T07:20:17.82Z</time></trkpt><trkpt lat="39.707435" lon="8.4639467"><ele>36.33333333333333</ele><time>2026-05-01T07:20:18.819Z</time></trkpt><trkpt lat="39.70734" lon="8.4639533"><ele>37.666666666666664</ele><time>2026-05-01T07:20:19.819Z</time></trkpt><trkpt lat="39.7072583" lon="8.4639533"><ele>39.0</ele><time>2026-05-01T07:20:20.819Z</time></trkpt><trkpt lat="39.707185" lon="8.4639633"><ele>40.333333333333336</ele><time>2026-05-01T07:20:21.819Z</time></trkpt><trkpt lat="39.7071167" lon="8.46399"><ele>41.66666666666667</ele><time>2026-05-01T07:20:22.819Z</time></trkpt><trkpt lat="39.7070433" lon="8.4640217"><ele>43.0</ele><time>2026-05-01T07:20:23.819Z</time></trkpt><trkpt lat="39.7069617" lon="8.46406"><ele>44.0</ele><time>2026-05-01T07:20:24.819Z</time></trkpt><trkpt lat="39.706865" lon="8.4640933"><ele>45.0</ele><time>2026-05-01T07:20:25.819Z</time></trkpt><trkpt lat="39.7067783" lon="8.4641317"><ele>46.0</ele><time>2026-05-01T07:20:26.819Z</time></trkpt><trkpt lat="39.7067" lon="8.464165"><ele>47.0</ele><time>2026-05-01T07:20:27.819Z</time></trkpt><trkpt lat="39.7066233" lon="8.4642017"><ele>47.99999999999999</ele><time>2026-05-01T07:20:28.819Z</time></trkpt><trkpt lat="39.7065483" lon="8.4642433"><ele>49.0</ele><time>2026-05-01T07:20:29.819Z</time></trkpt><trkpt lat="39.7064683" lon="8.4642933"><ele>49.0</ele><time>2026-05-01T07:20:30.819Z</time></trkpt><trkpt lat="39.7063883" lon="8.4643517"><ele>49.0</ele><time>2026-05-01T07:20:31.819Z</time></trkpt><trkpt lat="39.706315" lon="8.46441"><ele>49.0</ele><time>2026-05-01T07:20:32.82Z</time></trkpt><trkpt lat="39.70625" lon="8.464455"><ele>49.0</ele><time>2026-05-01T07:20:33.82Z</time></trkpt><trkpt lat="39.7061383" lon="8.4644517"><ele>49.0</ele><time>2026-05-01T07:20:35.819Z</time></trkpt><trkpt lat="39.7060233" lon="8.46438"><ele>49.800000000000004</ele><time>2026-05-01T07:20:37.82Z</time></trkpt><trkpt lat="39.7059467" lon="8.4643383"><ele>50.6</ele><time>2026-05-01T07:20:38.819Z</time></trkpt><trkpt lat="39.7058533" lon="8.46429"><ele>51.4</ele><time>2026-05-01T07:20:39.819Z</time></trkpt><trkpt lat="39.7057633" lon="8.4642383"><ele>52.2</ele><time>2026-05-01T07:20:40.819Z</time></trkpt><trkpt lat="39.705675" lon="8.4641817"><ele>53.0</ele><time>2026-05-01T07:20:41.82Z</time></trkpt><trkpt lat="39.7056017" lon="8.464115"><ele>53.0</ele><time>2026-05-01T07:20:42.819Z</time></trkpt><trkpt lat="39.705525" lon="8.4640317"><ele>53.0</ele><time>2026-05-01T07:20:43.82Z</time></trkpt><trkpt lat="39.705435" lon="8.4639467"><ele>53.0</ele><time>2026-05-01T07:20:44.82Z</time></trkpt><trkpt lat="39.705335" lon="8.4638633"><ele>53.0</ele><time>2026-05-01T07:20:45.819Z</time></trkpt><trkpt lat="39.705225" lon="8.46379"><ele>55.0</ele><time>2026-05-01T07:20:46.82Z</time></trkpt><trkpt lat="39.7051167" lon="8.4637183"><ele>57.0</ele><time>2026-05-01T07:20:47.82Z</time></trkpt><trkpt lat="39.7050283" lon="8.4636617"><ele>59.0</ele><time>2026-05-01T07:20:48.819Z</time></trkpt><trkpt lat="39.70495" lon="8.463625"><ele>61.0</ele><time>2026-05-01T07:20:49.82Z</time></trkpt><trkpt lat="39.7048683" lon="8.4635983"><ele>63.0</ele><time>2026-05-01T07:20:50.819Z</time></trkpt><trkpt lat="39.7047817" lon="8.463575"><ele>63.0</ele><time>2026-05-01T07:20:51.819Z</time></trkpt><trkpt lat="39.7046867" lon="8.4635433"><ele>63.0</ele><time>2026-05-01T07:20:52.82Z</time></trkpt><trkpt lat="39.7045933" lon="8.4635083"><ele>63.0</ele><time>2026-05-01T07:20:53.819Z</time></trkpt><trkpt lat="39.7045217" lon="8.4634717"><ele>63.0</ele><time>2026-05-01T07:20:54.819Z</time></trkpt><trkpt lat="39.7044517" lon="8.4634533"><ele>63.0</ele><time>2026-05-01T07:20:55.82Z</time></trkpt><trkpt lat="39.7043833" lon="8.463445"><ele>63.0</ele><time>2026-05-01T07:20:56.819Z</time></trkpt><trkpt lat="39.7043083" lon="8.46343"><ele>63.333333333333336</ele><time>2026-05-01T07:20:57.819Z</time></trkpt><trkpt lat="39.7042283" lon="8.4634067"><ele>63.66666666666667</ele><time>2026-05-01T07:20:58.82Z</time></trkpt><trkpt lat="39.70414" lon="8.4633867"><ele>64.0</ele><time>2026-05-01T07:20:59.819Z</time></trkpt><trkpt lat="39.70406" lon="8.4633683"><ele>64.33333333333334</ele><time>2026-05-01T07:21:00.819Z</time></trkpt><trkpt lat="39.7039833" lon="8.4633433"><ele>64.66666666666667</ele><time>2026-05-01T07:21:01.819Z</time></trkpt><trkpt lat="39.703905" lon="8.4633017"><ele>65.0</ele><time>2026-05-01T07:21:02.819Z</time></trkpt><trkpt lat="39.7038333" lon="8.4632567"><ele>65.0</ele><time>2026-05-01T07:21:03.819Z</time></trkpt><trkpt lat="39.703775" lon="8.4632117"><ele>65.0</ele><time>2026-05-01T07:21:04.819Z</time></trkpt><trkpt lat="39.703675" lon="8.4631667"><ele>65.0</ele><time>2026-05-01T07:21:06.819Z</time></trkpt><trkpt lat="39.7035633" lon="8.4631433"><ele>65.0</ele><time>2026-05-01T07:21:08.819Z</time></trkpt><trkpt lat="39.7034667" lon="8.4631717"><ele>65.0</ele><time>2026-05-01T07:21:10.82Z</time></trkpt><trkpt lat="39.7033967" lon="8.4632233"><ele>65.33333333333334</ele><time>2026-05-01T07:21:12.819Z</time></trkpt><trkpt lat="39.703315" lon="8.4633267"><ele>65.66666666666667</ele><time>2026-05-01T07:21:14.819Z</time></trkpt><trkpt lat="39.7032633" lon="8.46338"><ele>66.0</ele><time>2026-05-01T07:21:15.819Z</time></trkpt><trkpt lat="39.7032067" lon="8.4634433"><ele>66.33333333333333</ele><time>2026-05-01T07:21:16.819Z</time></trkpt><trkpt lat="39.70315" lon="8.4634967"><ele>66.66666666666666</ele><time>2026-05-01T07:21:17.819Z</time></trkpt><trkpt lat="39.7030833" lon="8.46357"><ele>67.0</ele><time>2026-05-01T07:21:18.819Z</time></trkpt><trkpt lat="39.7030133" lon="8.4636433"><ele>67.0</ele><time>2026-05-01T07:21:19.819Z</time></trkpt><trkpt lat="39.7029467" lon="8.4637133"><ele>67.0</ele><time>2026-05-01T07:21:20.819Z</time></trkpt><trkpt lat="39.7028833" lon="8.4637783"><ele>67.0</ele><time>2026-05-01T07:21:21.819Z</time></trkpt><trkpt lat="39.70282" lon="8.4638367"><ele>67.0</ele><time>2026-05-01T07:21:22.819Z</time></trkpt><trkpt lat="39.702735" lon="8.4639217"><ele>67.0</ele><time>2026-05-01T07:21:24.819Z</time></trkpt><trkpt lat="39.702675" lon="8.464025"><ele>67.8</ele><time>2026-05-01T07:26:16.818Z</time></trkpt><trkpt lat="39.7025983" lon="8.4641333"><ele>68.6</ele><time>2026-05-01T07:26:18.819Z</time></trkpt><trkpt lat="39.7024983" lon="8.4642433"><ele>69.39999999999999</ele><time>2026-05-01T07:26:20.818Z</time></trkpt><trkpt lat="39.7024433" lon="8.4642917"><ele>70.2</ele><time>2026-05-01T07:26:21.818Z</time></trkpt><trkpt lat="39.7023417" lon="8.464335"><ele>71.0</ele><time>2026-05-01T07:26:23.818Z</time></trkpt><trkpt lat="39.70226" lon="8.46436"><ele>71.0</ele><time>2026-05-01T07:26:24.818Z</time></trkpt><trkpt lat="39.702175" lon="8.4643983"><ele>71.0</ele><time>2026-05-01T07:26:25.818Z</time></trkpt><trkpt lat="39.70209" lon="8.464445"><ele>71.0</ele><time>2026-05-01T07:26:26.818Z</time></trkpt><trkpt lat="39.7020067" lon="8.4644933"><ele>71.0</ele><time>2026-05-01T07:26:27.819Z</time></trkpt><trkpt lat="39.7019167" lon="8.4645333"><ele>71.0</ele><time>2026-05-01T07:26:28.818Z</time></trkpt><trkpt lat="39.7018383" lon="8.464555"><ele>71.0</ele><time>2026-05-01T07:26:29.818Z</time></trkpt><trkpt lat="39.7017583" lon="8.4645783"><ele>71.2</ele><time>2026-05-01T07:26:30.818Z</time></trkpt><trkpt lat="39.7016783" lon="8.46461"><ele>71.39999999999999</ele><time>2026-05-01T07:26:31.819Z</time></trkpt><trkpt lat="39.7015933" lon="8.4646383"><ele>71.6</ele><time>2026-05-01T07:26:32.819Z</time></trkpt><trkpt lat="39.7015" lon="8.4646483"><ele>71.8</ele><time>2026-05-01T07:26:33.819Z</time></trkpt><trkpt lat="39.7013983" lon="8.4646583"><ele>72.0</ele><time>2026-05-01T07:26:34.818Z</time></trkpt><trkpt lat="39.701295" lon="8.4646717"><ele>72.0</ele><time>2026-05-01T07:26:35.819Z</time></trkpt><trkpt lat="39.70121" lon="8.4646933"><ele>72.0</ele><time>2026-05-01T07:26:36.818Z</time></trkpt><trkpt lat="39.7011283" lon="8.46473"><ele>72.0</ele><time>2026-05-01T07:26:37.818Z</time></trkpt><trkpt lat="39.7010433" lon="8.46478"><ele>72.0</ele><time>2026-05-01T07:26:38.818Z</time></trkpt><trkpt lat="39.7009617" lon="8.4648533"><ele>72.0</ele><time>2026-05-01T07:26:39.819Z</time></trkpt><trkpt lat="39.70088" lon="8.4649417"><ele>72.0</ele><time>2026-05-01T07:26:40.818Z</time></trkpt><trkpt lat="39.7007967" lon="8.465035"><ele>72.0</ele><time>2026-05-01T07:26:41.818Z</time></trkpt><trkpt lat="39.7007117" lon="8.4651267"><ele>72.0</ele><time>2026-05-01T07:26:42.818Z</time></trkpt><trkpt lat="39.70062" lon="8.4652183"><ele>72.0</ele><time>2026-05-01T07:26:43.818Z</time></trkpt><trkpt lat="39.70053" lon="8.4653033"><ele>72.0</ele><time>2026-05-01T07:26:44.818Z</time></trkpt><trkpt lat="39.700435" lon="8.46539"><ele>72.4</ele><time>2026-05-01T07:26:45.819Z</time></trkpt><trkpt lat="39.70035" lon="8.4654633"><ele>72.80000000000001</ele><time>2026-05-01T07:26:46.818Z</time></trkpt><trkpt lat="39.7002667" lon="8.465525"><ele>73.2</ele><time>2026-05-01T07:26:47.818Z</time></trkpt><trkpt lat="39.7001883" lon="8.4655717"><ele>73.60000000000001</ele><time>2026-05-01T07:26:48.819Z</time></trkpt><trkpt lat="39.7001067" lon="8.4655983"><ele>74.0</ele><time>2026-05-01T07:26:49.818Z</time></trkpt><trkpt lat="39.700015" lon="8.4656067"><ele>74.0</ele><time>2026-05-01T07:26:50.818Z</time></trkpt><trkpt lat="39.6999183" lon="8.4656067"><ele>74.0</ele><time>2026-05-01T07:26:51.817Z</time></trkpt><trkpt lat="39.69983" lon="8.46562"><ele>74.0</ele><time>2026-05-01T07:26:52.817Z</time></trkpt><trkpt lat="39.6997517" lon="8.465645"><ele>74.0</ele><time>2026-05-01T07:26:53.817Z</time></trkpt><trkpt lat="39.69968" lon="8.4656833"><ele>74.0</ele><time>2026-05-01T07:26:54.817Z</time></trkpt><trkpt lat="39.6996033" lon="8.4657333"><ele>74.0</ele><time>2026-05-01T07:26:55.817Z</time></trkpt><trkpt lat="39.6995183" lon="8.4657967"><ele>74.0</ele><time>2026-05-01T07:26:56.817Z</time></trkpt><trkpt lat="39.6994317" lon="8.4658567"><ele>74.0</ele><time>2026-05-01T07:26:57.817Z</time></trkpt><trkpt lat="39.6993517" lon="8.4659033"><ele>74.0</ele><time>2026-05-01T07:26:58.818Z</time></trkpt><trkpt lat="39.6992783" lon="8.4659467"><ele>74.0</ele><time>2026-05-01T07:26:59.818Z</time></trkpt><trkpt lat="39.6992183" lon="8.46599"><ele>74.0</ele><time>2026-05-01T07:27:00.818Z</time></trkpt><trkpt lat="39.699115" lon="8.4661217"><ele>74.2</ele><time>2026-05-01T07:27:02.817Z</time></trkpt><trkpt lat="39.69906" lon="8.4662183"><ele>74.4</ele><time>2026-05-01T07:27:03.818Z</time></trkpt><trkpt lat="39.6990033" lon="8.466325"><ele>74.6</ele><time>2026-05-01T07:27:04.817Z</time></trkpt><trkpt lat="39.698935" lon="8.466445"><ele>74.8</ele><time>2026-05-01T07:27:05.818Z</time></trkpt><trkpt lat="39.6988683" lon="8.4665783"><ele>75.0</ele><time>2026-05-01T07:27:06.817Z</time></trkpt><trkpt lat="39.6988117" lon="8.4667067"><ele>75.0</ele><time>2026-05-01T07:27:07.817Z</time></trkpt><trkpt lat="39.6987533" lon="8.466835"><ele>75.0</ele><time>2026-05-01T07:27:08.818Z</time></trkpt><trkpt lat="39.6986967" lon="8.4669667"><ele>75.0</ele><time>2026-05-01T07:27:09.817Z</time></trkpt><trkpt lat="39.6986367" lon="8.4671067"><ele>75.0</ele><time>2026-05-01T07:27:10.817Z</time></trkpt><trkpt lat="39.698575" lon="8.4672383"><ele>74.75</ele><time>2026-05-01T07:27:11.817Z</time></trkpt><trkpt lat="39.6985017" lon="8.4673783"><ele>74.5</ele><time>2026-05-01T07:27:12.817Z</time></trkpt><trkpt lat="39.6984333" lon="8.467515"><ele>74.25</ele><time>2026-05-01T07:27:13.818Z</time></trkpt><trkpt lat="39.6983717" lon="8.46764"><ele>74.0</ele><time>2026-05-01T07:27:14.817Z</time></trkpt><trkpt lat="39.6983167" lon="8.4677383"><ele>74.0</ele><time>2026-05-01T07:27:15.817Z</time></trkpt><trkpt lat="39.6982517" lon="8.46782"><ele>74.0</ele><time>2026-05-01T07:27:16.817Z</time></trkpt><trkpt lat="39.6981817" lon="8.467885"><ele>74.0</ele><time>2026-05-01T07:27:17.817Z</time></trkpt><trkpt lat="39.6981" lon="8.46793"><ele>74.0</ele><time>2026-05-01T07:27:18.817Z</time></trkpt><trkpt lat="39.698" lon="8.4679717"><ele>74.0</ele><time>2026-05-01T07:27:19.817Z</time></trkpt><trkpt lat="39.697885" lon="8.4680167"><ele>74.0</ele><time>2026-05-01T07:27:20.818Z</time></trkpt><trkpt lat="39.6977633" lon="8.4680583"><ele>74.0</ele><time>2026-05-01T07:27:21.817Z</time></trkpt><trkpt lat="39.697635" lon="8.4681033"><ele>74.0</ele><time>2026-05-01T07:27:22.818Z</time></trkpt><trkpt lat="39.6975083" lon="8.4681483"><ele>74.0</ele><time>2026-05-01T07:27:23.817Z</time></trkpt><trkpt lat="39.6973833" lon="8.4682"><ele>75.6</ele><time>2026-05-01T07:27:24.817Z</time></trkpt><trkpt lat="39.6972767" lon="8.468255"><ele>77.2</ele><time>2026-05-01T07:27:25.817Z</time></trkpt><trkpt lat="39.69717" lon="8.4683183"><ele>78.8</ele><time>2026-05-01T07:27:26.818Z</time></trkpt><trkpt lat="39.6970733" lon="8.4683883"><ele>80.39999999999999</ele><time>2026-05-01T07:27:27.817Z</time></trkpt><trkpt lat="39.696985" lon="8.468465"><ele>82.0</ele><time>2026-05-01T07:27:28.817Z</time></trkpt><trkpt lat="39.696885" lon="8.4685567"><ele>82.0</ele><time>2026-05-01T07:27:29.817Z</time></trkpt><trkpt lat="39.6967767" lon="8.4686567"><ele>82.0</ele><time>2026-05-01T07:27:30.817Z</time></trkpt><trkpt lat="39.696665" lon="8.4687583"><ele>82.0</ele><time>2026-05-01T07:27:31.817Z</time></trkpt><trkpt lat="39.69656" lon="8.4688467"><ele>82.0</ele><time>2026-05-01T07:27:32.818Z</time></trkpt><trkpt lat="39.6964567" lon="8.4689167"><ele>82.0</ele><time>2026-05-01T07:27:33.818Z</time></trkpt><trkpt lat="39.6963517" lon="8.4689817"><ele>82.0</ele><time>2026-05-01T07:27:34.817Z</time></trkpt><trkpt lat="39.6962367" lon="8.4690467"><ele>82.0</ele><time>2026-05-01T07:27:35.818Z</time></trkpt><trkpt lat="39.6961283" lon="8.4691083"><ele>82.0</ele><time>2026-05-01T07:27:36.817Z</time></trkpt><trkpt lat="39.6960233" lon="8.4691783"><ele>82.0</ele><time>2026-05-01T07:27:37.818Z</time></trkpt><trkpt lat="39.6959233" lon="8.4692617"><ele>82.0</ele><time>2026-05-01T07:27:38.817Z</time></trkpt><trkpt lat="39.6958283" lon="8.4693417"><ele>82.0</ele><time>2026-05-01T07:27:39.817Z</time></trkpt><trkpt lat="39.6957283" lon="8.46943"><ele>82.0</ele><time>2026-05-01T07:27:40.817Z</time></trkpt><trkpt lat="39.69563" lon="8.469515"><ele>82.0</ele><time>2026-05-01T07:27:41.817Z</time></trkpt><trkpt lat="39.6955367" lon="8.4696033"><ele>82.0</ele><time>2026-05-01T07:27:42.817Z</time></trkpt><trkpt lat="39.6954467" lon="8.46967"><ele>82.0</ele><time>2026-05-01T07:27:43.818Z</time></trkpt><trkpt lat="39.6953683" lon="8.46972"><ele>82.0</ele><time>2026-05-01T07:27:44.817Z</time></trkpt><trkpt lat="39.695295" lon="8.4697583"><ele>82.0</ele><time>2026-05-01T07:27:45.817Z</time></trkpt><trkpt lat="39.6952167" lon="8.4697833"><ele>81.5</ele><time>2026-05-01T07:27:46.817Z</time></trkpt><trkpt lat="39.695125" lon="8.4698017"><ele>81.0</ele><time>2026-05-01T07:27:47.817Z</time></trkpt><trkpt lat="39.6950383" lon="8.4698017"><ele>80.5</ele><time>2026-05-01T07:27:48.817Z</time></trkpt><trkpt lat="39.6949683" lon="8.4698067"><ele>80.0</ele><time>2026-05-01T07:27:49.818Z</time></trkpt><trkpt lat="39.6948983" lon="8.4698233"><ele>79.5</ele><time>2026-05-01T07:27:50.818Z</time></trkpt><trkpt lat="39.6948283" lon="8.46983"><ele>79.0</ele><time>2026-05-01T07:27:51.817Z</time></trkpt><trkpt lat="39.694745" lon="8.4698183"><ele>79.0</ele><time>2026-05-01T07:27:52.817Z</time></trkpt><trkpt lat="39.694655" lon="8.46978"><ele>79.0</ele><time>2026-05-01T07:27:53.817Z</time></trkpt><trkpt lat="39.6945683" lon="8.469735"><ele>79.0</ele><time>2026-05-01T07:27:54.817Z</time></trkpt><trkpt lat="39.6944867" lon="8.46971"><ele>79.0</ele><time>2026-05-01T07:27:55.818Z</time></trkpt><trkpt lat="39.6944117" lon="8.4697033"><ele>79.0</ele><time>2026-05-01T07:27:56.817Z</time></trkpt><trkpt lat="39.694325" lon="8.4697033"><ele>79.0</ele><time>2026-05-01T07:27:57.818Z</time></trkpt><trkpt lat="39.6942533" lon="8.4697083"><ele>79.0</ele><time>2026-05-01T07:27:58.817Z</time></trkpt><trkpt lat="39.6941267" lon="8.4697017"><ele>79.0</ele><time>2026-05-01T07:28:00.817Z</time></trkpt><trkpt lat="39.6940517" lon="8.46968"><ele>79.0</ele><time>2026-05-01T07:28:01.817Z</time></trkpt><trkpt lat="39.6939817" lon="8.469645"><ele>79.0</ele><time>2026-05-01T07:28:02.818Z</time></trkpt><trkpt lat="39.6939117" lon="8.469605"><ele>79.0</ele><time>2026-05-01T07:28:03.818Z</time></trkpt><trkpt lat="39.6938317" lon="8.4695467"><ele>79.0</ele><time>2026-05-01T07:28:04.818Z</time></trkpt><trkpt lat="39.6937417" lon="8.4694783"><ele>78.25</ele><time>2026-05-01T07:28:05.818Z</time></trkpt><trkpt lat="39.6936417" lon="8.4694083"><ele>77.5</ele><time>2026-05-01T07:28:06.817Z</time></trkpt><trkpt lat="39.693535" lon="8.4693333"><ele>76.75</ele><time>2026-05-01T07:28:07.817Z</time></trkpt><trkpt lat="39.69343" lon="8.469255"><ele>76.0</ele><time>2026-05-01T07:28:08.818Z</time></trkpt><trkpt lat="39.6933283" lon="8.4691783"><ele>76.0</ele><time>2026-05-01T07:28:09.817Z</time></trkpt><trkpt lat="39.6932267" lon="8.4690983"><ele>76.0</ele><time>2026-05-01T07:28:10.818Z</time></trkpt><trkpt lat="39.69314" lon="8.4690267"><ele>76.0</ele><time>2026-05-01T07:28:11.817Z</time></trkpt><trkpt lat="39.6930483" lon="8.468955"><ele>76.0</ele><time>2026-05-01T07:28:12.818Z</time></trkpt><trkpt lat="39.6929567" lon="8.4688867"><ele>76.0</ele><time>2026-05-01T07:28:13.818Z</time></trkpt><trkpt lat="39.6928717" lon="8.4688133"><ele>76.39999999999999</ele><time>2026-05-01T07:28:14.818Z</time></trkpt><trkpt lat="39.6928083" lon="8.4687233"><ele>76.8</ele><time>2026-05-01T07:28:15.817Z</time></trkpt><trkpt lat="39.6927333" lon="8.468645"><ele>77.19999999999999</ele><time>2026-05-01T07:28:16.817Z</time></trkpt><trkpt lat="39.6926717" lon="8.46857"><ele>77.6</ele><time>2026-05-01T07:28:17.817Z</time></trkpt><trkpt lat="39.6925967" lon="8.4685217"><ele>78.0</ele><time>2026-05-01T07:28:18.818Z</time></trkpt><trkpt lat="39.6925033" lon="8.468485"><ele>79.0</ele><time>2026-05-01T07:28:19.817Z</time></trkpt><trkpt lat="39.6924117" lon="8.4684717"><ele>80.0</ele><time>2026-05-01T07:28:20.817Z</time></trkpt><trkpt lat="39.6922967" lon="8.46848"><ele>81.0</ele><time>2026-05-01T07:28:21.817Z</time></trkpt><trkpt lat="39.69217" lon="8.4684983"><ele>82.0</ele><time>2026-05-01T07:28:22.817Z</time></trkpt><trkpt lat="39.692045" lon="8.4685233"><ele>82.6</ele><time>2026-05-01T07:28:23.817Z</time></trkpt><trkpt lat="39.6919183" lon="8.4685517"><ele>83.19999999999999</ele><time>2026-05-01T07:28:24.817Z</time></trkpt><trkpt lat="39.6918067" lon="8.46858"><ele>83.8</ele><time>2026-05-01T07:28:25.817Z</time></trkpt><trkpt lat="39.69171" lon="8.468615"><ele>84.4</ele><time>2026-05-01T07:28:26.817Z</time></trkpt><trkpt lat="39.6916167" lon="8.4686617"><ele>85.0</ele><time>2026-05-01T07:28:27.817Z</time></trkpt><trkpt lat="39.6915217" lon="8.4687017"><ele>85.0</ele><time>2026-05-01T07:28:28.818Z</time></trkpt><trkpt lat="39.6914417" lon="8.46874"><ele>85.0</ele><time>2026-05-01T07:28:29.817Z</time></trkpt><trkpt lat="39.6913783" lon="8.4687617"><ele>85.0</ele><time>2026-05-01T07:28:30.817Z</time></trkpt><trkpt lat="39.6913017" lon="8.468835"><ele>85.0</ele><time>2026-05-01T07:28:32.818Z</time></trkpt><trkpt lat="39.6912317" lon="8.468935"><ele>85.0</ele><time>2026-05-01T07:28:34.817Z</time></trkpt><trkpt lat="39.6911867" lon="8.4689933"><ele>85.0</ele><time>2026-05-01T07:28:35.818Z</time></trkpt><trkpt lat="39.6911383" lon="8.4690533"><ele>84.5</ele><time>2026-05-01T07:28:36.818Z</time></trkpt><trkpt lat="39.6910917" lon="8.4691133"><ele>84.0</ele><time>2026-05-01T07:28:37.818Z</time></trkpt><trkpt lat="39.691045" lon="8.4691783"><ele>83.5</ele><time>2026-05-01T07:28:38.817Z</time></trkpt><trkpt lat="39.69099" lon="8.46924"><ele>83.0</ele><time>2026-05-01T07:28:39.817Z</time></trkpt><trkpt lat="39.6908933" lon="8.4693467"><ele>82.5</ele><time>2026-05-01T07:28:41.817Z</time></trkpt><trkpt lat="39.6908483" lon="8.469405"><ele>82.0</ele><time>2026-05-01T07:28:42.818Z</time></trkpt><trkpt lat="39.6908033" lon="8.4694683"><ele>82.0</ele><time>2026-05-01T07:28:43.817Z</time></trkpt><trkpt lat="39.69073" lon="8.4696033"><ele>82.0</ele><time>2026-05-01T07:28:45.817Z</time></trkpt><trkpt lat="39.690695" lon="8.46968"><ele>82.0</ele><time>2026-05-01T07:28:46.817Z</time></trkpt><trkpt lat="39.6906683" lon="8.4697633"><ele>82.0</ele><time>2026-05-01T07:28:47.817Z</time></trkpt><trkpt lat="39.6906433" lon="8.46984"><ele>82.0</ele><time>2026-05-01T07:28:48.818Z</time></trkpt><trkpt lat="39.6906067" lon="8.4699917"><ele>82.0</ele><time>2026-05-01T07:28:50.817Z</time></trkpt><trkpt lat="39.690615" lon="8.4701133"><ele>82.0</ele><time>2026-05-01T07:28:52.818Z</time></trkpt><trkpt lat="39.690625" lon="8.470195"><ele>82.0</ele><time>2026-05-01T07:28:55.817Z</time></trkpt><trkpt lat="39.6905967" lon="8.4703533"><ele>82.0</ele><time>2026-05-01T07:28:58.817Z</time></trkpt><trkpt lat="39.690585" lon="8.4704517"><ele>82.0</ele><time>2026-05-01T07:28:59.818Z</time></trkpt><trkpt lat="39.6905733" lon="8.470565"><ele>82.0</ele><time>2026-05-01T07:29:00.817Z</time></trkpt><trkpt lat="39.6905617" lon="8.4706983"><ele>82.19999999999999</ele><time>2026-05-01T07:29:01.817Z</time></trkpt><trkpt lat="39.6905433" lon="8.470835"><ele>82.4</ele><time>2026-05-01T07:29:02.817Z</time></trkpt><trkpt lat="39.6905217" lon="8.4709633"><ele>82.6</ele><time>2026-05-01T07:29:03.817Z</time></trkpt><trkpt lat="39.6904883" lon="8.471085"><ele>82.80000000000001</ele><time>2026-05-01T07:29:04.817Z</time></trkpt><trkpt lat="39.6904367" lon="8.4712"><ele>83.0</ele><time>2026-05-01T07:29:05.818Z</time></trkpt><trkpt lat="39.6903667" lon="8.4713283"><ele>83.0</ele><time>2026-05-01T07:29:06.818Z</time></trkpt><trkpt lat="39.6902917" lon="8.4714583"><ele>83.0</ele><time>2026-05-01T07:29:07.818Z</time></trkpt><trkpt lat="39.6902083" lon="8.471595"><ele>83.0</ele><time>2026-05-01T07:29:08.817Z</time></trkpt><trkpt lat="39.6901233" lon="8.4717317"><ele>83.0</ele><time>2026-05-01T07:29:09.817Z</time></trkpt><trkpt lat="39.6900483" lon="8.4718783"><ele>84.5</ele><time>2026-05-01T07:29:10.817Z</time></trkpt><trkpt lat="39.6899867" lon="8.47203"><ele>86.0</ele><time>2026-05-01T07:29:11.817Z</time></trkpt><trkpt lat="39.689935" lon="8.472185"><ele>87.5</ele><time>2026-05-01T07:29:12.817Z</time></trkpt><trkpt lat="39.689885" lon="8.4723433"><ele>89.0</ele><time>2026-05-01T07:29:13.817Z</time></trkpt><trkpt lat="39.68983" lon="8.47251"><ele>89.25</ele><time>2026-05-01T07:29:14.817Z</time></trkpt><trkpt lat="39.6897733" lon="8.4726767"><ele>89.5</ele><time>2026-05-01T07:29:15.818Z</time></trkpt><trkpt lat="39.68972" lon="8.4728417"><ele>89.75</ele><time>2026-05-01T07:29:16.818Z</time></trkpt><trkpt lat="39.689675" lon="8.47301"><ele>90.0</ele><time>2026-05-01T07:29:17.817Z</time></trkpt><trkpt lat="39.6896383" lon="8.4731783"><ele>90.25</ele><time>2026-05-01T07:29:18.818Z</time></trkpt><trkpt lat="39.6896033" lon="8.4733433"><ele>90.5</ele><time>2026-05-01T07:29:19.817Z</time></trkpt><trkpt lat="39.68957" lon="8.47351"><ele>90.75</ele><time>2026-05-01T07:29:20.817Z</time></trkpt><trkpt lat="39.689535" lon="8.473675"><ele>91.0</ele><time>2026-05-01T07:29:21.818Z</time></trkpt><trkpt lat="39.6895067" lon="8.4738517"><ele>91.5</ele><time>2026-05-01T07:29:22.817Z</time></trkpt><trkpt lat="39.6894833" lon="8.474035"><ele>92.0</ele><time>2026-05-01T07:29:23.818Z</time></trkpt><trkpt lat="39.6894717" lon="8.4742183"><ele>92.5</ele><time>2026-05-01T07:29:24.817Z</time></trkpt><trkpt lat="39.6894567" lon="8.4744083"><ele>93.0</ele><time>2026-05-01T07:29:25.817Z</time></trkpt><trkpt lat="39.6894417" lon="8.474595"><ele>94.25</ele><time>2026-05-01T07:29:26.817Z</time></trkpt><trkpt lat="39.6894283" lon="8.4747717"><ele>95.5</ele><time>2026-05-01T07:29:27.817Z</time></trkpt><trkpt lat="39.6894117" lon="8.4749417"><ele>96.75</ele><time>2026-05-01T07:29:28.818Z</time></trkpt><trkpt lat="39.689395" lon="8.475105"><ele>98.0</ele><time>2026-05-01T07:29:29.817Z</time></trkpt><trkpt lat="39.68938" lon="8.4752767"><ele>98.5</ele><time>2026-05-01T07:29:30.818Z</time></trkpt><trkpt lat="39.6893633" lon="8.4754483"><ele>99.0</ele><time>2026-05-01T07:29:31.818Z</time></trkpt><trkpt lat="39.689345" lon="8.4756283"><ele>99.5</ele><time>2026-05-01T07:29:32.817Z</time></trkpt><trkpt lat="39.6893333" lon="8.4758117"><ele>100.0</ele><time>2026-05-01T07:29:33.817Z</time></trkpt><trkpt lat="39.6893217" lon="8.4759917"><ele>100.0</ele><time>2026-05-01T07:29:34.818Z</time></trkpt><trkpt lat="39.689315" lon="8.4761667"><ele>100.0</ele><time>2026-05-01T07:29:35.818Z</time></trkpt><trkpt lat="39.689325" lon="8.4763367"><ele>100.0</ele><time>2026-05-01T07:29:36.817Z</time></trkpt><trkpt lat="39.6893383" lon="8.4764967"><ele>100.0</ele><time>2026-05-01T07:29:37.817Z</time></trkpt><trkpt lat="39.6893417" lon="8.4766417"><ele>99.6</ele><time>2026-05-01T07:29:38.817Z</time></trkpt><trkpt lat="39.6893233" lon="8.4767767"><ele>99.2</ele><time>2026-05-01T07:29:39.817Z</time></trkpt><trkpt lat="39.6892867" lon="8.4768933"><ele>98.80000000000001</ele><time>2026-05-01T07:29:40.817Z</time></trkpt><trkpt lat="39.6892367" lon="8.4770117"><ele>98.4</ele><time>2026-05-01T07:29:41.817Z</time></trkpt><trkpt lat="39.6891733" lon="8.4771517"><ele>98.0</ele><time>2026-05-01T07:29:42.817Z</time></trkpt><trkpt lat="39.6891" lon="8.4773067"><ele>99.5</ele><time>2026-05-01T07:29:43.817Z</time></trkpt><trkpt lat="39.6890333" lon="8.4774583"><ele>101.0</ele><time>2026-05-01T07:29:44.817Z</time></trkpt><trkpt lat="39.6889733" lon="8.47761"><ele>102.5</ele><time>2026-05-01T07:29:45.817Z</time></trkpt><trkpt lat="39.68892" lon="8.4777467"><ele>104.0</ele><time>2026-05-01T07:29:46.818Z</time></trkpt><trkpt lat="39.6888633" lon="8.4778783"><ele>104.0</ele><time>2026-05-01T07:29:47.818Z</time></trkpt><trkpt lat="39.6887983" lon="8.4779933"><ele>104.0</ele><time>2026-05-01T07:29:48.817Z</time></trkpt><trkpt lat="39.6887167" lon="8.4781033"><ele>104.0</ele><time>2026-05-01T07:29:49.817Z</time></trkpt><trkpt lat="39.6886167" lon="8.4782117"><ele>104.0</ele><time>2026-05-01T07:29:50.818Z</time></trkpt><trkpt lat="39.6885133" lon="8.4783317"><ele>104.0</ele><time>2026-05-01T07:29:51.818Z</time></trkpt><trkpt lat="39.6884183" lon="8.478465"><ele>104.0</ele><time>2026-05-01T07:29:52.818Z</time></trkpt><trkpt lat="39.68832" lon="8.4786133"><ele>104.0</ele><time>2026-05-01T07:29:53.817Z</time></trkpt><trkpt lat="39.6882233" lon="8.4787733"><ele>104.0</ele><time>2026-05-01T07:29:54.818Z</time></trkpt><trkpt lat="39.68813" lon="8.47894"><ele>105.66666666666666</ele><time>2026-05-01T07:29:55.818Z</time></trkpt><trkpt lat="39.6880317" lon="8.4791067"><ele>107.33333333333334</ele><time>2026-05-01T07:29:56.817Z</time></trkpt><trkpt lat="39.687935" lon="8.479275"><ele>109.0</ele><time>2026-05-01T07:29:57.817Z</time></trkpt><trkpt lat="39.6878433" lon="8.4794433"><ele>108.5</ele><time>2026-05-01T07:29:58.817Z</time></trkpt><trkpt lat="39.6877517" lon="8.47961"><ele>108.0</ele><time>2026-05-01T07:29:59.817Z</time></trkpt><trkpt lat="39.687665" lon="8.479755"><ele>107.5</ele><time>2026-05-01T07:30:00.817Z</time></trkpt><trkpt lat="39.6875783" lon="8.4798717"><ele>107.0</ele><time>2026-05-01T07:30:01.817Z</time></trkpt><trkpt lat="39.68749" lon="8.4799683"><ele>107.0</ele><time>2026-05-01T07:30:02.818Z</time></trkpt><trkpt lat="39.6874" lon="8.4800633"><ele>106.99999999999999</ele><time>2026-05-01T07:30:03.817Z</time></trkpt><trkpt lat="39.6873117" lon="8.4801617"><ele>106.99999999999999</ele><time>2026-05-01T07:30:04.817Z</time></trkpt><trkpt lat="39.6872383" lon="8.4802667"><ele>107.0</ele><time>2026-05-01T07:30:05.817Z</time></trkpt><trkpt lat="39.6871833" lon="8.4803733"><ele>107.0</ele><time>2026-05-01T07:30:06.817Z</time></trkpt><trkpt lat="39.6871417" lon="8.4804967"><ele>107.0</ele><time>2026-05-01T07:30:07.818Z</time></trkpt><trkpt lat="39.6870917" lon="8.4806467"><ele>107.0</ele><time>2026-05-01T07:30:08.818Z</time></trkpt><trkpt lat="39.6870367" lon="8.4808117"><ele>107.0</ele><time>2026-05-01T07:30:09.817Z</time></trkpt><trkpt lat="39.6869767" lon="8.4809717"><ele>107.0</ele><time>2026-05-01T07:30:10.817Z</time></trkpt><trkpt lat="39.6869183" lon="8.481115"><ele>107.0</ele><time>2026-05-01T07:30:11.818Z</time></trkpt><trkpt lat="39.68686" lon="8.4812267"><ele>106.99999999999999</ele><time>2026-05-01T07:30:12.816Z</time></trkpt><trkpt lat="39.6867967" lon="8.4813067"><ele>106.99999999999999</ele><time>2026-05-01T07:30:13.816Z</time></trkpt><trkpt lat="39.6867167" lon="8.4813767"><ele>107.0</ele><time>2026-05-01T07:30:14.816Z</time></trkpt><trkpt lat="39.6866183" lon="8.4814467"><ele>107.0</ele><time>2026-05-01T07:30:15.816Z</time></trkpt><trkpt lat="39.686505" lon="8.4815217"><ele>107.0</ele><time>2026-05-01T07:30:16.816Z</time></trkpt><trkpt lat="39.6863933" lon="8.481605"><ele>107.0</ele><time>2026-05-01T07:30:17.816Z</time></trkpt><trkpt lat="39.6862767" lon="8.481685"><ele>107.0</ele><time>2026-05-01T07:30:18.816Z</time></trkpt><trkpt lat="39.68616" lon="8.4817717"><ele>107.0</ele><time>2026-05-01T07:30:19.816Z</time></trkpt><trkpt lat="39.68604" lon="8.48186"><ele>107.5</ele><time>2026-05-01T07:30:20.817Z</time></trkpt><trkpt lat="39.6859317" lon="8.4819417"><ele>108.0</ele><time>2026-05-01T07:30:21.816Z</time></trkpt><trkpt lat="39.68583" lon="8.48203"><ele>108.5</ele><time>2026-05-01T07:30:22.816Z</time></trkpt><trkpt lat="39.6857317" lon="8.4821417"><ele>109.0</ele><time>2026-05-01T07:30:23.816Z</time></trkpt><trkpt lat="39.6856333" lon="8.4822567"><ele>109.75</ele><time>2026-05-01T07:30:24.817Z</time></trkpt><trkpt lat="39.6855283" lon="8.48238"><ele>110.5</ele><time>2026-05-01T07:30:25.816Z</time></trkpt><trkpt lat="39.6854183" lon="8.4825033"><ele>111.25</ele><time>2026-05-01T07:30:26.817Z</time></trkpt><trkpt lat="39.6853067" lon="8.4826233"><ele>112.0</ele><time>2026-05-01T07:30:27.816Z</time></trkpt><trkpt lat="39.685205" lon="8.4827383"><ele>112.0</ele><time>2026-05-01T07:30:28.816Z</time></trkpt><trkpt lat="39.6851" lon="8.482855"><ele>112.0</ele><time>2026-05-01T07:30:29.817Z</time></trkpt><trkpt lat="39.6850067" lon="8.48298"><ele>112.0</ele><time>2026-05-01T07:30:30.817Z</time></trkpt><trkpt lat="39.6849133" lon="8.4831183"><ele>112.0</ele><time>2026-05-01T07:30:31.817Z</time></trkpt><trkpt lat="39.6848267" lon="8.4832683"><ele>112.75</ele><time>2026-05-01T07:30:32.817Z</time></trkpt><trkpt lat="39.6847433" lon="8.4834133"><ele>113.5</ele><time>2026-05-01T07:30:33.817Z</time></trkpt><trkpt lat="39.6846617" lon="8.4835633"><ele>114.25</ele><time>2026-05-01T07:30:34.817Z</time></trkpt><trkpt lat="39.684585" lon="8.48371"><ele>115.0</ele><time>2026-05-01T07:30:35.816Z</time></trkpt><trkpt lat="39.6844983" lon="8.4838617"><ele>115.5</ele><time>2026-05-01T07:30:36.816Z</time></trkpt><trkpt lat="39.6844133" lon="8.48401"><ele>116.0</ele><time>2026-05-01T07:30:37.816Z</time></trkpt><trkpt lat="39.6843233" lon="8.4841567"><ele>116.5</ele><time>2026-05-01T07:30:38.817Z</time></trkpt><trkpt lat="39.6842333" lon="8.4843"><ele>117.0</ele><time>2026-05-01T07:30:39.816Z</time></trkpt><trkpt lat="39.6841417" lon="8.4844383"><ele>117.0</ele><time>2026-05-01T07:30:40.817Z</time></trkpt><trkpt lat="39.6840433" lon="8.4845667"><ele>117.0</ele><time>2026-05-01T07:30:41.816Z</time></trkpt><trkpt lat="39.683935" lon="8.4846867"><ele>117.0</ele><time>2026-05-01T07:30:42.816Z</time></trkpt><trkpt lat="39.6838183" lon="8.4847917"><ele>117.0</ele><time>2026-05-01T07:30:43.816Z</time></trkpt><trkpt lat="39.6837033" lon="8.48488"><ele>117.25</ele><time>2026-05-01T07:30:44.816Z</time></trkpt><trkpt lat="39.6835867" lon="8.48498"><ele>117.5</ele><time>2026-05-01T07:30:45.816Z</time></trkpt><trkpt lat="39.683475" lon="8.48509"><ele>117.75</ele><time>2026-05-01T07:30:46.816Z</time></trkpt><trkpt lat="39.6833683" lon="8.4851983"><ele>118.0</ele><time>2026-05-01T07:30:47.817Z</time></trkpt><trkpt lat="39.683265" lon="8.4853017"><ele>118.0</ele><time>2026-05-01T07:30:48.817Z</time></trkpt><trkpt lat="39.6831717" lon="8.4853983"><ele>118.00000000000001</ele><time>2026-05-01T07:30:49.817Z</time></trkpt><trkpt lat="39.6831" lon="8.485465"><ele>118.00000000000001</ele><time>2026-05-01T07:30:50.816Z</time></trkpt><trkpt lat="39.6829983" lon="8.4855217"><ele>118.0</ele><time>2026-05-01T07:30:52.817Z</time></trkpt><trkpt lat="39.6829133" lon="8.4854567"><ele>118.0</ele><time>2026-05-01T07:30:54.816Z</time></trkpt><trkpt lat="39.6828667" lon="8.4853783"><ele>118.00000000000001</ele><time>2026-05-01T07:30:55.817Z</time></trkpt><trkpt lat="39.6828117" lon="8.4852883"><ele>118.0</ele><time>2026-05-01T07:30:56.816Z</time></trkpt><trkpt lat="39.68275" lon="8.48521"><ele>118.0</ele><time>2026-05-01T07:30:57.816Z</time></trkpt><trkpt lat="39.6826867" lon="8.4851533"><ele>118.0</ele><time>2026-05-01T07:30:58.817Z</time></trkpt><trkpt lat="39.6825883" lon="8.48513"><ele>118.00000000000001</ele><time>2026-05-01T07:31:00.816Z</time></trkpt><trkpt lat="39.682505" lon="8.485195"><ele>118.0</ele><time>2026-05-01T07:31:02.816Z</time></trkpt><trkpt lat="39.6824667" lon="8.4852667"><ele>118.33333333333334</ele><time>2026-05-01T07:31:03.817Z</time></trkpt><trkpt lat="39.68242" lon="8.485365"><ele>118.66666666666667</ele><time>2026-05-01T07:31:04.817Z</time></trkpt><trkpt lat="39.68237" lon="8.4854633"><ele>119.0</ele><time>2026-05-01T07:31:05.816Z</time></trkpt><trkpt lat="39.6823217" lon="8.4855567"><ele>119.33333333333334</ele><time>2026-05-01T07:31:06.816Z</time></trkpt><trkpt lat="39.6822767" lon="8.4856417"><ele>119.66666666666667</ele><time>2026-05-01T07:31:07.816Z</time></trkpt><trkpt lat="39.68224" lon="8.4857133"><ele>120.0</ele><time>2026-05-01T07:31:08.817Z</time></trkpt><trkpt lat="39.6821767" lon="8.4858317"><ele>120.66666666666667</ele><time>2026-05-01T07:31:10.817Z</time></trkpt><trkpt lat="39.6821" lon="8.485905"><ele>121.33333333333334</ele><time>2026-05-01T07:31:12.816Z</time></trkpt><trkpt lat="39.681985" lon="8.485935"><ele>122.0</ele><time>2026-05-01T07:31:14.816Z</time></trkpt><trkpt lat="39.6819183" lon="8.4859667"><ele>122.66666666666667</ele><time>2026-05-01T07:31:15.816Z</time></trkpt><trkpt lat="39.6818667" lon="8.4860183"><ele>123.33333333333334</ele><time>2026-05-01T07:31:16.816Z</time></trkpt><trkpt lat="39.6818267" lon="8.4860817"><ele>124.0</ele><time>2026-05-01T07:31:17.816Z</time></trkpt><trkpt lat="39.6817983" lon="8.4861617"><ele>124.66666666666667</ele><time>2026-05-01T07:31:18.817Z</time></trkpt><trkpt lat="39.6817667" lon="8.4862483"><ele>125.33333333333334</ele><time>2026-05-01T07:31:19.817Z</time></trkpt><trkpt lat="39.6817267" lon="8.48634"><ele>126.0</ele><time>2026-05-01T07:31:20.816Z</time></trkpt><trkpt lat="39.6816767" lon="8.48643"><ele>126.66666666666666</ele><time>2026-05-01T07:31:21.817Z</time></trkpt><trkpt lat="39.68162" lon="8.48652"><ele>127.33333333333333</ele><time>2026-05-01T07:31:22.816Z</time></trkpt><trkpt lat="39.6815533" lon="8.486625"><ele>128.0</ele><time>2026-05-01T07:31:23.817Z</time></trkpt><trkpt lat="39.6814883" lon="8.4867233"><ele>128.0</ele><time>2026-05-01T07:31:24.817Z</time></trkpt><trkpt lat="39.681435" lon="8.4868017"><ele>127.99999999999999</ele><time>2026-05-01T07:31:25.816Z</time></trkpt><trkpt lat="39.681385" lon="8.4868567"><ele>128.0</ele><time>2026-05-01T07:31:26.816Z</time></trkpt><trkpt lat="39.68133" lon="8.4869017"><ele>128.0</ele><time>2026-05-01T07:31:27.816Z</time></trkpt><trkpt lat="39.6812617" lon="8.4869417"><ele>127.99999999999999</ele><time>2026-05-01T07:31:28.817Z</time></trkpt><trkpt lat="39.68119" lon="8.4869767"><ele>128.0</ele><time>2026-05-01T07:31:29.817Z</time></trkpt><trkpt lat="39.6811267" lon="8.487025"><ele>128.0</ele><time>2026-05-01T07:31:30.817Z</time></trkpt><trkpt lat="39.6810667" lon="8.4870833"><ele>128.16666666666666</ele><time>2026-05-01T07:31:31.816Z</time></trkpt><trkpt lat="39.6809967" lon="8.4871567"><ele>128.33333333333331</ele><time>2026-05-01T07:31:32.817Z</time></trkpt><trkpt lat="39.6809233" lon="8.487235"><ele>128.5</ele><time>2026-05-01T07:31:33.816Z</time></trkpt><trkpt lat="39.680855" lon="8.487305"><ele>128.66666666666666</ele><time>2026-05-01T07:31:34.816Z</time></trkpt><trkpt lat="39.6807883" lon="8.487375"><ele>128.83333333333334</ele><time>2026-05-01T07:31:35.816Z</time></trkpt><trkpt lat="39.6807267" lon="8.4874433"><ele>129.0</ele><time>2026-05-01T07:31:36.816Z</time></trkpt><trkpt lat="39.680675" lon="8.487515"><ele>128.99999999999997</ele><time>2026-05-01T07:31:37.817Z</time></trkpt><trkpt lat="39.680625" lon="8.487575"><ele>129.0</ele><time>2026-05-01T07:31:38.816Z</time></trkpt><trkpt lat="39.6805767" lon="8.4876367"><ele>129.0</ele><time>2026-05-01T07:31:39.816Z</time></trkpt><trkpt lat="39.6805267" lon="8.4877017"><ele>129.0</ele><time>2026-05-01T07:31:40.817Z</time></trkpt><trkpt lat="39.68048" lon="8.4877733"><ele>129.0</ele><time>2026-05-01T07:31:41.816Z</time></trkpt><trkpt lat="39.6804367" lon="8.48785"><ele>128.99999999999997</ele><time>2026-05-01T07:31:42.817Z</time></trkpt><trkpt lat="39.6803917" lon="8.4879467"><ele>129.0</ele><time>2026-05-01T07:31:43.816Z</time></trkpt><trkpt lat="39.6803467" lon="8.4880433"><ele>128.83333333333334</ele><time>2026-05-01T07:31:44.816Z</time></trkpt><trkpt lat="39.680295" lon="8.48813"><ele>128.66666666666666</ele><time>2026-05-01T07:31:45.816Z</time></trkpt><trkpt lat="39.6802383" lon="8.4882133"><ele>128.5</ele><time>2026-05-01T07:31:46.816Z</time></trkpt><trkpt lat="39.680175" lon="8.4882867"><ele>128.33333333333331</ele><time>2026-05-01T07:31:47.816Z</time></trkpt><trkpt lat="39.6801133" lon="8.488355"><ele>128.16666666666666</ele><time>2026-05-01T07:31:48.816Z</time></trkpt><trkpt lat="39.68006" lon="8.4884233"><ele>128.0</ele><time>2026-05-01T07:31:49.817Z</time></trkpt><trkpt lat="39.6800117" lon="8.4884917"><ele>128.16666666666666</ele><time>2026-05-01T07:31:50.816Z</time></trkpt><trkpt lat="39.6799667" lon="8.488565"><ele>128.33333333333331</ele><time>2026-05-01T07:31:51.816Z</time></trkpt><trkpt lat="39.67991" lon="8.4886317"><ele>128.5</ele><time>2026-05-01T07:31:52.817Z</time></trkpt><trkpt lat="39.679845" lon="8.4886983"><ele>128.66666666666666</ele><time>2026-05-01T07:31:53.816Z</time></trkpt><trkpt lat="39.6797767" lon="8.4887567"><ele>128.83333333333334</ele><time>2026-05-01T07:31:54.817Z</time></trkpt><trkpt lat="39.67971" lon="8.4888183"><ele>129.0</ele><time>2026-05-01T07:31:55.816Z</time></trkpt><trkpt lat="39.679645" lon="8.4888883"><ele>128.99999999999997</ele><time>2026-05-01T07:31:56.816Z</time></trkpt><trkpt lat="39.67958" lon="8.4889617"><ele>129.0</ele><time>2026-05-01T07:31:57.816Z</time></trkpt><trkpt lat="39.6795283" lon="8.489025"><ele>129.0</ele><time>2026-05-01T07:31:58.817Z</time></trkpt><trkpt lat="39.6794867" lon="8.48909"><ele>129.0</ele><time>2026-05-01T07:31:59.816Z</time></trkpt><trkpt lat="39.6794467" lon="8.4891617"><ele>129.0</ele><time>2026-05-01T07:32:00.816Z</time></trkpt><trkpt lat="39.6794" lon="8.4892267"><ele>128.99999999999997</ele><time>2026-05-01T07:32:01.817Z</time></trkpt><trkpt lat="39.6793467" lon="8.4892783"><ele>129.0</ele><time>2026-05-01T07:32:02.817Z</time></trkpt><trkpt lat="39.6792867" lon="8.489315"><ele>129.85714285714283</ele><time>2026-05-01T07:32:03.816Z</time></trkpt><trkpt lat="39.679215" lon="8.4893417"><ele>130.71428571428572</ele><time>2026-05-01T07:32:04.816Z</time></trkpt><trkpt lat="39.6791417" lon="8.48935"><ele>131.57142857142856</ele><time>2026-05-01T07:32:05.817Z</time></trkpt><trkpt lat="39.679065" lon="8.4893583"><ele>132.42857142857142</ele><time>2026-05-01T07:32:06.817Z</time></trkpt><trkpt lat="39.6790017" lon="8.4893783"><ele>133.28571428571428</ele><time>2026-05-01T07:32:07.817Z</time></trkpt><trkpt lat="39.678945" lon="8.4894217"><ele>134.14285714285714</ele><time>2026-05-01T07:32:08.816Z</time></trkpt><trkpt lat="39.6788883" lon="8.48947"><ele>135.0</ele><time>2026-05-01T07:32:09.816Z</time></trkpt><trkpt lat="39.678835" lon="8.48952"><ele>135.0</ele><time>2026-05-01T07:32:10.816Z</time></trkpt><trkpt lat="39.67878" lon="8.4895633"><ele>135.0</ele><time>2026-05-01T07:32:11.816Z</time></trkpt><trkpt lat="39.6786867" lon="8.48963"><ele>135.0</ele><time>2026-05-01T07:32:13.816Z</time></trkpt><trkpt lat="39.6786433" lon="8.48969"><ele>135.0</ele><time>2026-05-01T07:32:14.817Z</time></trkpt><trkpt lat="39.6785933" lon="8.4897683"><ele>135.0</ele><time>2026-05-01T07:32:15.817Z</time></trkpt><trkpt lat="39.6785467" lon="8.4898467"><ele>135.0</ele><time>2026-05-01T07:32:16.817Z</time></trkpt><trkpt lat="39.6784917" lon="8.48993"><ele>136.33333333333334</ele><time>2026-05-01T07:32:17.816Z</time></trkpt><trkpt lat="39.6784283" lon="8.49001"><ele>137.66666666666666</ele><time>2026-05-01T07:32:18.817Z</time></trkpt><trkpt lat="39.678365" lon="8.4900883"><ele>139.0</ele><time>2026-05-01T07:32:19.816Z</time></trkpt><trkpt lat="39.6782983" lon="8.4901683"><ele>140.33333333333331</ele><time>2026-05-01T07:32:20.817Z</time></trkpt><trkpt lat="39.6782267" lon="8.490235"><ele>141.66666666666666</ele><time>2026-05-01T07:32:21.816Z</time></trkpt><trkpt lat="39.6781617" lon="8.4902883"><ele>143.0</ele><time>2026-05-01T07:32:22.816Z</time></trkpt><trkpt lat="39.6780967" lon="8.4903483"><ele>143.0</ele><time>2026-05-01T07:32:23.816Z</time></trkpt><trkpt lat="39.6780317" lon="8.490415"><ele>143.0</ele><time>2026-05-01T07:32:24.816Z</time></trkpt><trkpt lat="39.67798" lon="8.4904667"><ele>143.0</ele><time>2026-05-01T07:32:25.817Z</time></trkpt><trkpt lat="39.6779317" lon="8.490525"><ele>143.0</ele><time>2026-05-01T07:32:26.816Z</time></trkpt><trkpt lat="39.677865" lon="8.49065"><ele>143.0</ele><time>2026-05-01T07:32:28.816Z</time></trkpt><trkpt lat="39.6778433" lon="8.4907917"><ele>143.0</ele><time>2026-05-01T07:32:30.817Z</time></trkpt><trkpt lat="39.6778517" lon="8.4909583"><ele>142.6</ele><time>2026-05-01T07:32:32.817Z</time></trkpt><trkpt lat="39.67784" lon="8.4910967"><ele>142.20000000000002</ele><time>2026-05-01T07:32:34.816Z</time></trkpt><trkpt lat="39.67779" lon="8.4911767"><ele>141.8</ele><time>2026-05-01T07:32:36.816Z</time></trkpt><trkpt lat="39.6776917" lon="8.49122"><ele>141.4</ele><time>2026-05-01T07:32:38.817Z</time></trkpt><trkpt lat="39.6775583" lon="8.4912367"><ele>141.0</ele><time>2026-05-01T07:32:40.816Z</time></trkpt><trkpt lat="39.6774817" lon="8.4912433"><ele>142.42857142857144</ele><time>2026-05-01T07:32:41.816Z</time></trkpt><trkpt lat="39.67741" lon="8.4912567"><ele>143.85714285714286</ele><time>2026-05-01T07:32:42.816Z</time></trkpt><trkpt lat="39.6773467" lon="8.4912683"><ele>145.28571428571428</ele><time>2026-05-01T07:32:43.817Z</time></trkpt><trkpt lat="39.6772833" lon="8.4912783"><ele>146.71428571428572</ele><time>2026-05-01T07:32:44.816Z</time></trkpt><trkpt lat="39.67722" lon="8.4913"><ele>148.14285714285714</ele><time>2026-05-01T07:32:45.816Z</time></trkpt><trkpt lat="39.6771517" lon="8.4913267"><ele>149.57142857142858</ele><time>2026-05-01T07:32:46.816Z</time></trkpt><trkpt lat="39.677085" lon="8.49136"><ele>151.0</ele><time>2026-05-01T07:32:47.817Z</time></trkpt><trkpt lat="39.6770233" lon="8.4914083"><ele>151.0</ele><time>2026-05-01T07:32:48.816Z</time></trkpt><trkpt lat="39.6769533" lon="8.4914767"><ele>151.0</ele><time>2026-05-01T07:32:49.816Z</time></trkpt><trkpt lat="39.6768817" lon="8.49156"><ele>151.0</ele><time>2026-05-01T07:32:50.816Z</time></trkpt><trkpt lat="39.67681" lon="8.4916433"><ele>151.0</ele><time>2026-05-01T07:32:51.817Z</time></trkpt><trkpt lat="39.676735" lon="8.491735"><ele>151.0</ele><time>2026-05-01T07:32:52.816Z</time></trkpt><trkpt lat="39.67667" lon="8.4918283"><ele>152.66666666666669</ele><time>2026-05-01T07:32:53.817Z</time></trkpt><trkpt lat="39.6766233" lon="8.49192"><ele>154.33333333333334</ele><time>2026-05-01T07:32:54.817Z</time></trkpt><trkpt lat="39.6765817" lon="8.4920117"><ele>156.0</ele><time>2026-05-01T07:32:55.816Z</time></trkpt><trkpt lat="39.676545" lon="8.4921"><ele>157.66666666666666</ele><time>2026-05-01T07:32:56.816Z</time></trkpt><trkpt lat="39.676505" lon="8.492195"><ele>159.33333333333331</ele><time>2026-05-01T07:32:57.816Z</time></trkpt><trkpt lat="39.67647" lon="8.492295"><ele>161.0</ele><time>2026-05-01T07:32:58.816Z</time></trkpt><trkpt lat="39.676435" lon="8.4923933"><ele>161.66666666666666</ele><time>2026-05-01T07:32:59.816Z</time></trkpt><trkpt lat="39.6764033" lon="8.49248"><ele>162.33333333333331</ele><time>2026-05-01T07:33:00.817Z</time></trkpt><trkpt lat="39.6763683" lon="8.4925517"><ele>163.0</ele><time>2026-05-01T07:33:01.816Z</time></trkpt><trkpt lat="39.6763067" lon="8.4926417"><ele>163.66666666666666</ele><time>2026-05-01T07:33:03.816Z</time></trkpt><trkpt lat="39.676235" lon="8.4926817"><ele>164.33333333333334</ele><time>2026-05-01T07:33:05.816Z</time></trkpt><trkpt lat="39.676145" lon="8.4926683"><ele>165.0</ele><time>2026-05-01T07:33:07.816Z</time></trkpt><trkpt lat="39.6760583" lon="8.4926067"><ele>165.5</ele><time>2026-05-01T07:33:09.817Z</time></trkpt><trkpt lat="39.6759433" lon="8.492555"><ele>166.0</ele><time>2026-05-01T07:33:11.817Z</time></trkpt><trkpt lat="39.6758783" lon="8.4925283"><ele>166.5</ele><time>2026-05-01T07:33:12.816Z</time></trkpt><trkpt lat="39.6758033" lon="8.492495"><ele>167.0</ele><time>2026-05-01T07:33:13.816Z</time></trkpt><trkpt lat="39.67572" lon="8.492455"><ele>167.5</ele><time>2026-05-01T07:33:14.816Z</time></trkpt><trkpt lat="39.67564" lon="8.4924117"><ele>168.0</ele><time>2026-05-01T07:33:15.816Z</time></trkpt><trkpt lat="39.6755667" lon="8.4923767"><ele>168.0</ele><time>2026-05-01T07:33:16.816Z</time></trkpt><trkpt lat="39.6755017" lon="8.49236"><ele>168.0</ele><time>2026-05-01T07:33:17.816Z</time></trkpt><trkpt lat="39.6754317" lon="8.49235"><ele>168.0</ele><time>2026-05-01T07:33:18.816Z</time></trkpt><trkpt lat="39.67535" lon="8.492345"><ele>168.0</ele><time>2026-05-01T07:33:19.816Z</time></trkpt><trkpt lat="39.6752567" lon="8.4923317"><ele>168.0</ele><time>2026-05-01T07:33:20.816Z</time></trkpt><trkpt lat="39.6751583" lon="8.4923183"><ele>168.0</ele><time>2026-05-01T07:33:21.816Z</time></trkpt><trkpt lat="39.6750617" lon="8.492285"><ele>168.0</ele><time>2026-05-01T07:33:22.816Z</time></trkpt><trkpt lat="39.67498" lon="8.492255"><ele>168.0</ele><time>2026-05-01T07:33:23.816Z</time></trkpt><trkpt lat="39.6749033" lon="8.4922217"><ele>168.0</ele><time>2026-05-01T07:33:24.816Z</time></trkpt><trkpt lat="39.6748333" lon="8.4921817"><ele>168.0</ele><time>2026-05-01T07:33:25.816Z</time></trkpt><trkpt lat="39.6747683" lon="8.4921283"><ele>168.0</ele><time>2026-05-01T07:33:26.816Z</time></trkpt><trkpt lat="39.6747083" lon="8.492065"><ele>168.0</ele><time>2026-05-01T07:33:27.817Z</time></trkpt><trkpt lat="39.674655" lon="8.4920033"><ele>168.0</ele><time>2026-05-01T07:33:28.816Z</time></trkpt><trkpt lat="39.674545" lon="8.491925"><ele>168.0</ele><time>2026-05-01T07:33:30.817Z</time></trkpt><trkpt lat="39.6744633" lon="8.4919"><ele>168.0</ele><time>2026-05-01T07:33:31.816Z</time></trkpt><trkpt lat="39.6743683" lon="8.4918767"><ele>168.0</ele><time>2026-05-01T07:33:32.816Z</time></trkpt><trkpt lat="39.6742783" lon="8.4918467"><ele>168.0</ele><time>2026-05-01T07:33:33.816Z</time></trkpt><trkpt lat="39.6741817" lon="8.491805"><ele>168.0</ele><time>2026-05-01T07:33:34.815Z</time></trkpt><trkpt lat="39.6741" lon="8.4917567"><ele>168.0</ele><time>2026-05-01T07:33:35.816Z</time></trkpt><trkpt lat="39.6740317" lon="8.4917083"><ele>168.0</ele><time>2026-05-01T07:33:36.815Z</time></trkpt><trkpt lat="39.6739717" lon="8.49167"><ele>168.0</ele><time>2026-05-01T07:33:37.815Z</time></trkpt><trkpt lat="39.6738833" lon="8.4916333"><ele>168.0</ele><time>2026-05-01T07:33:39.815Z</time></trkpt><trkpt lat="39.6737967" lon="8.4916567"><ele>168.0</ele><time>2026-05-01T07:33:42.815Z</time></trkpt><trkpt lat="39.6737467" lon="8.4917433"><ele>168.0</ele><time>2026-05-01T07:33:44.815Z</time></trkpt><trkpt lat="39.6736883" lon="8.4918717"><ele>168.0</ele><time>2026-05-01T07:33:46.815Z</time></trkpt><trkpt lat="39.6736467" lon="8.49194"><ele>168.0</ele><time>2026-05-01T07:33:47.815Z</time></trkpt><trkpt lat="39.6735817" lon="8.4920467"><ele>168.0</ele><time>2026-05-01T07:33:49.815Z</time></trkpt><trkpt lat="39.6735467" lon="8.492115"><ele>168.0</ele><time>2026-05-01T07:33:50.816Z</time></trkpt><trkpt lat="39.6734967" lon="8.4922067"><ele>168.0</ele><time>2026-05-01T07:33:51.815Z</time></trkpt><trkpt lat="39.6734417" lon="8.492305"><ele>170.0</ele><time>2026-05-01T07:33:52.815Z</time></trkpt><trkpt lat="39.6733867" lon="8.49241"><ele>172.0</ele><time>2026-05-01T07:33:53.816Z</time></trkpt><trkpt lat="39.673335" lon="8.4925033"><ele>174.0</ele><time>2026-05-01T07:33:54.815Z</time></trkpt><trkpt lat="39.6732883" lon="8.4925933"><ele>176.0</ele><time>2026-05-01T07:33:55.815Z</time></trkpt><trkpt lat="39.67324" lon="8.49267"><ele>178.0</ele><time>2026-05-01T07:33:56.816Z</time></trkpt><trkpt lat="39.6731833" lon="8.4927333"><ele>180.0</ele><time>2026-05-01T07:33:57.815Z</time></trkpt><trkpt lat="39.6731117" lon="8.492795"><ele>180.0</ele><time>2026-05-01T07:33:58.816Z</time></trkpt><trkpt lat="39.673035" lon="8.4928617"><ele>180.0</ele><time>2026-05-01T07:33:59.815Z</time></trkpt><trkpt lat="39.6729633" lon="8.4929283"><ele>180.0</ele><time>2026-05-01T07:34:00.815Z</time></trkpt><trkpt lat="39.6729" lon="8.4929917"><ele>180.0</ele><time>2026-05-01T07:34:01.816Z</time></trkpt><trkpt lat="39.6728367" lon="8.49305"><ele>180.0</ele><time>2026-05-01T07:34:02.815Z</time></trkpt><trkpt lat="39.6727733" lon="8.4931167"><ele>180.0</ele><time>2026-05-01T07:34:03.815Z</time></trkpt><trkpt lat="39.672715" lon="8.4931883"><ele>180.83333333333334</ele><time>2026-05-01T07:34:04.815Z</time></trkpt><trkpt lat="39.672655" lon="8.4932667"><ele>181.66666666666666</ele><time>2026-05-01T07:34:05.815Z</time></trkpt><trkpt lat="39.6725883" lon="8.4933367"><ele>182.5</ele><time>2026-05-01T07:34:06.816Z</time></trkpt><trkpt lat="39.672525" lon="8.4933967"><ele>183.33333333333331</ele><time>2026-05-01T07:34:07.815Z</time></trkpt><trkpt lat="39.67247" lon="8.4934667"><ele>184.16666666666666</ele><time>2026-05-01T07:34:08.815Z</time></trkpt><trkpt lat="39.6724233" lon="8.4935583"><ele>185.0</ele><time>2026-05-01T07:34:09.815Z</time></trkpt><trkpt lat="39.67238" lon="8.4936667"><ele>185.4</ele><time>2026-05-01T07:34:10.816Z</time></trkpt><trkpt lat="39.6723417" lon="8.493785"><ele>185.8</ele><time>2026-05-01T07:34:11.815Z</time></trkpt><trkpt lat="39.6722983" lon="8.493915"><ele>186.2</ele><time>2026-05-01T07:34:12.815Z</time></trkpt><trkpt lat="39.6722517" lon="8.4940567"><ele>186.6</ele><time>2026-05-01T07:34:13.816Z</time></trkpt><trkpt lat="39.6722117" lon="8.4942017"><ele>187.0</ele><time>2026-05-01T07:34:14.815Z</time></trkpt><trkpt lat="39.6721733" lon="8.4943217"><ele>187.0</ele><time>2026-05-01T07:34:15.815Z</time></trkpt><trkpt lat="39.6721367" lon="8.4944233"><ele>187.0</ele><time>2026-05-01T07:34:16.816Z</time></trkpt><trkpt lat="39.6720983" lon="8.49452"><ele>187.0</ele><time>2026-05-01T07:34:17.815Z</time></trkpt><trkpt lat="39.6720617" lon="8.4946033"><ele>187.0</ele><time>2026-05-01T07:34:18.815Z</time></trkpt><trkpt lat="39.6720233" lon="8.494675"><ele>187.0</ele><time>2026-05-01T07:34:19.816Z</time></trkpt><trkpt lat="39.6719683" lon="8.4947483"><ele>187.0</ele><time>2026-05-01T07:34:20.815Z</time></trkpt><trkpt lat="39.6719033" lon="8.4948183"><ele>186.6</ele><time>2026-05-01T07:34:21.815Z</time></trkpt><trkpt lat="39.6718267" lon="8.4948967"><ele>186.2</ele><time>2026-05-01T07:34:22.815Z</time></trkpt><trkpt lat="39.6717483" lon="8.49498"><ele>185.8</ele><time>2026-05-01T07:34:23.815Z</time></trkpt><trkpt lat="39.6716767" lon="8.4950583"><ele>185.4</ele><time>2026-05-01T07:34:24.815Z</time></trkpt><trkpt lat="39.671605" lon="8.4951133"><ele>185.0</ele><time>2026-05-01T07:34:25.815Z</time></trkpt><trkpt lat="39.6715383" lon="8.4951583"><ele>185.0</ele><time>2026-05-01T07:34:26.816Z</time></trkpt><trkpt lat="39.6714683" lon="8.4951983"><ele>185.0</ele><time>2026-05-01T07:34:27.816Z</time></trkpt><trkpt lat="39.6713917" lon="8.4952483"><ele>185.0</ele><time>2026-05-01T07:34:28.815Z</time></trkpt><trkpt lat="39.6713033" lon="8.49529"><ele>185.0</ele><time>2026-05-01T07:34:29.815Z</time></trkpt><trkpt lat="39.6712133" lon="8.495325"><ele>185.0</ele><time>2026-05-01T07:34:30.815Z</time></trkpt><trkpt lat="39.6711267" lon="8.4953567"><ele>185.0</ele><time>2026-05-01T07:34:31.816Z</time></trkpt><trkpt lat="39.6710367" lon="8.4953833"><ele>184.6</ele><time>2026-05-01T07:34:32.816Z</time></trkpt><trkpt lat="39.6709467" lon="8.495405"><ele>184.2</ele><time>2026-05-01T07:34:33.815Z</time></trkpt><trkpt lat="39.6708517" lon="8.4954183"><ele>183.8</ele><time>2026-05-01T07:34:34.815Z</time></trkpt><trkpt lat="39.6707533" lon="8.4954233"><ele>183.4</ele><time>2026-05-01T07:34:35.815Z</time></trkpt><trkpt lat="39.6706617" lon="8.4954383"><ele>183.0</ele><time>2026-05-01T07:34:36.815Z</time></trkpt><trkpt lat="39.6705783" lon="8.4954417"><ele>183.0</ele><time>2026-05-01T07:34:37.815Z</time></trkpt><trkpt lat="39.6704967" lon="8.495425"><ele>183.0</ele><time>2026-05-01T07:34:38.816Z</time></trkpt><trkpt lat="39.6704117" lon="8.495375"><ele>183.0</ele><time>2026-05-01T07:34:39.815Z</time></trkpt><trkpt lat="39.670325" lon="8.4953033"><ele>183.0</ele><time>2026-05-01T07:34:40.816Z</time></trkpt><trkpt lat="39.6702417" lon="8.495235"><ele>183.0</ele><time>2026-05-01T07:34:41.816Z</time></trkpt><trkpt lat="39.670165" lon="8.49517"><ele>181.33333333333334</ele><time>2026-05-01T07:34:42.815Z</time></trkpt><trkpt lat="39.67009" lon="8.4951067"><ele>179.66666666666666</ele><time>2026-05-01T07:34:43.815Z</time></trkpt><trkpt lat="39.6700167" lon="8.4950483"><ele>178.0</ele><time>2026-05-01T07:34:44.815Z</time></trkpt><trkpt lat="39.6699483" lon="8.4949933"><ele>176.33333333333331</ele><time>2026-05-01T07:34:45.815Z</time></trkpt><trkpt lat="39.6698917" lon="8.4949267"><ele>174.66666666666666</ele><time>2026-05-01T07:34:46.815Z</time></trkpt><trkpt lat="39.6698333" lon="8.4948667"><ele>173.0</ele><time>2026-05-01T07:34:47.816Z</time></trkpt><trkpt lat="39.6697733" lon="8.4948183"><ele>173.0</ele><time>2026-05-01T07:34:48.815Z</time></trkpt><trkpt lat="39.669715" lon="8.49477"><ele>173.0</ele><time>2026-05-01T07:34:49.815Z</time></trkpt><trkpt lat="39.6696583" lon="8.4947267"><ele>173.0</ele><time>2026-05-01T07:34:50.815Z</time></trkpt><trkpt lat="39.6696" lon="8.494685"><ele>173.0</ele><time>2026-05-01T07:34:51.815Z</time></trkpt><trkpt lat="39.6695333" lon="8.4946367"><ele>173.0</ele><time>2026-05-01T07:34:52.815Z</time></trkpt><trkpt lat="39.66947" lon="8.4945817"><ele>173.0</ele><time>2026-05-01T07:34:53.816Z</time></trkpt><trkpt lat="39.669415" lon="8.4945217"><ele>173.0</ele><time>2026-05-01T07:34:54.816Z</time></trkpt><trkpt lat="39.669365" lon="8.4944667"><ele>172.16666666666666</ele><time>2026-05-01T07:34:55.815Z</time></trkpt><trkpt lat="39.6693183" lon="8.4944083"><ele>171.33333333333331</ele><time>2026-05-01T07:34:56.816Z</time></trkpt><trkpt lat="39.66924" lon="8.4943217"><ele>170.5</ele><time>2026-05-01T07:34:58.816Z</time></trkpt><trkpt lat="39.669175" lon="8.4942833"><ele>169.66666666666666</ele><time>2026-05-01T07:35:02.815Z</time></trkpt><trkpt lat="39.6690967" lon="8.4942867"><ele>168.83333333333334</ele><time>2026-05-01T07:35:13.815Z</time></trkpt><trkpt lat="39.669135" lon="8.4943633"><ele>168.0</ele><time>2026-05-01T07:35:17.815Z</time></trkpt><trkpt lat="39.669225" lon="8.494415"><ele>168.0</ele><time>2026-05-01T07:35:19.815Z</time></trkpt><trkpt lat="39.6692933" lon="8.4944533"><ele>168.0</ele><time>2026-05-01T07:35:20.816Z</time></trkpt><trkpt lat="39.6693683" lon="8.4945"><ele>168.0</ele><time>2026-05-01T07:35:21.815Z</time></trkpt><trkpt lat="39.669445" lon="8.494555"><ele>168.0</ele><time>2026-05-01T07:35:22.815Z</time></trkpt><trkpt lat="39.6695217" lon="8.4946133"><ele>168.0</ele><time>2026-05-01T07:35:23.815Z</time></trkpt><trkpt lat="39.6695983" lon="8.4946767"><ele>168.0</ele><time>2026-05-01T07:35:24.815Z</time></trkpt><trkpt lat="39.66968" lon="8.4947417"><ele>168.83333333333334</ele><time>2026-05-01T07:35:25.815Z</time></trkpt><trkpt lat="39.6697433" lon="8.4947967"><ele>169.66666666666666</ele><time>2026-05-01T07:35:26.815Z</time></trkpt><trkpt lat="39.6698433" lon="8.4948817"><ele>170.5</ele><time>2026-05-01T07:35:28.815Z</time></trkpt><trkpt lat="39.6699133" lon="8.4949533"><ele>171.33333333333331</ele><time>2026-05-01T07:35:30.815Z</time></trkpt><trkpt lat="39.66997" lon="8.4950217"><ele>172.16666666666666</ele><time>2026-05-01T07:35:33.815Z</time></trkpt><trkpt lat="39.67002" lon="8.4950917"><ele>173.0</ele><time>2026-05-01T07:35:36.815Z</time></trkpt><trkpt lat="39.6701033" lon="8.4951467"><ele>173.0</ele><time>2026-05-01T07:35:38.816Z</time></trkpt><trkpt lat="39.6701967" lon="8.4952133"><ele>173.0</ele><time>2026-05-01T07:35:40.815Z</time></trkpt><trkpt lat="39.6703067" lon="8.4953"><ele>173.0</ele><time>2026-05-01T07:35:42.815Z</time></trkpt><trkpt lat="39.67036" lon="8.4953483"><ele>173.0</ele><time>2026-05-01T07:35:43.815Z</time></trkpt><trkpt lat="39.6704233" lon="8.4954017"><ele>173.0</ele><time>2026-05-01T07:35:45.815Z</time></trkpt><trkpt lat="39.6705167" lon="8.4954483"><ele>173.83333333333331</ele><time>2026-05-01T07:35:53.815Z</time></trkpt><trkpt lat="39.6706367" lon="8.495465"><ele>174.66666666666666</ele><time>2026-05-01T07:35:55.815Z</time></trkpt><trkpt lat="39.6707083" lon="8.4954633"><ele>175.5</ele><time>2026-05-01T07:35:56.816Z</time></trkpt><trkpt lat="39.6707783" lon="8.4954567"><ele>176.33333333333334</ele><time>2026-05-01T07:35:57.815Z</time></trkpt><trkpt lat="39.670855" lon="8.4954383"><ele>177.16666666666669</ele><time>2026-05-01T07:35:58.816Z</time></trkpt><trkpt lat="39.6709283" lon="8.4954183"><ele>178.0</ele><time>2026-05-01T07:35:59.816Z</time></trkpt><trkpt lat="39.6709983" lon="8.4954083"><ele>178.0</ele><time>2026-05-01T07:36:00.815Z</time></trkpt><trkpt lat="39.671075" lon="8.495395"><ele>178.0</ele><time>2026-05-01T07:36:02.816Z</time></trkpt><trkpt lat="39.6711467" lon="8.4953733"><ele>178.0</ele><time>2026-05-01T07:36:16.815Z</time></trkpt><trkpt lat="39.6712767" lon="8.4953117"><ele>178.0</ele><time>2026-05-01T07:36:18.816Z</time></trkpt><trkpt lat="39.67135" lon="8.495275"><ele>178.0</ele><time>2026-05-01T07:36:19.815Z</time></trkpt><trkpt lat="39.6714217" lon="8.4952417"><ele>178.0</ele><time>2026-05-01T07:36:20.815Z</time></trkpt><trkpt lat="39.6715183" lon="8.495195"><ele>178.99999999999997</ele><time>2026-05-01T07:36:22.815Z</time></trkpt><trkpt lat="39.6715767" lon="8.4951567"><ele>180.0</ele><time>2026-05-01T07:36:24.815Z</time></trkpt><trkpt lat="39.67165" lon="8.495145"><ele>181.0</ele><time>2026-05-01T07:36:27.815Z</time></trkpt><trkpt lat="39.6716633" lon="8.495065"><ele>182.0</ele><time>2026-05-01T07:37:55.814Z</time></trkpt><trkpt lat="39.6716467" lon="8.4951617"><ele>183.0</ele><time>2026-05-01T07:38:08.814Z</time></trkpt><trkpt lat="39.6716483" lon="8.495275"><ele>183.99999999999997</ele><time>2026-05-01T07:38:10.814Z</time></trkpt><trkpt lat="39.671625" lon="8.4953683"><ele>185.0</ele><time>2026-05-01T07:38:12.814Z</time></trkpt><trkpt lat="39.67159" lon="8.4954467"><ele>185.2</ele><time>2026-05-01T07:38:14.815Z</time></trkpt><trkpt lat="39.6715567" lon="8.4955217"><ele>185.4</ele><time>2026-05-01T07:38:16.814Z</time></trkpt><trkpt lat="39.6715117" lon="8.49562"><ele>185.60000000000002</ele><time>2026-05-01T07:38:18.815Z</time></trkpt><trkpt lat="39.6714567" lon="8.4957417"><ele>185.8</ele><time>2026-05-01T07:38:20.815Z</time></trkpt><trkpt lat="39.67139" lon="8.495885"><ele>186.0</ele><time>2026-05-01T07:38:22.814Z</time></trkpt><trkpt lat="39.671365" lon="8.4959617"><ele>186.0</ele><time>2026-05-01T07:38:23.814Z</time></trkpt><trkpt lat="39.671345" lon="8.4960433"><ele>186.0</ele><time>2026-05-01T07:38:24.815Z</time></trkpt><trkpt lat="39.67134" lon="8.4961867"><ele>186.0</ele><time>2026-05-01T07:38:26.814Z</time></trkpt><trkpt lat="39.6713383" lon="8.49627"><ele>186.0</ele><time>2026-05-01T07:38:27.814Z</time></trkpt><trkpt lat="39.6713317" lon="8.4963683"><ele>186.0</ele><time>2026-05-01T07:38:28.814Z</time></trkpt><trkpt lat="39.6713267" lon="8.4964717"><ele>186.0</ele><time>2026-05-01T07:38:29.814Z</time></trkpt><trkpt lat="39.6713167" lon="8.4965683"><ele>185.20000000000002</ele><time>2026-05-01T07:38:30.814Z</time></trkpt><trkpt lat="39.6712983" lon="8.4966783"><ele>184.4</ele><time>2026-05-01T07:38:31.814Z</time></trkpt><trkpt lat="39.6712733" lon="8.4967883"><ele>183.6</ele><time>2026-05-01T07:38:32.815Z</time></trkpt><trkpt lat="39.67125" lon="8.4969033"><ele>182.8</ele><time>2026-05-01T07:38:33.814Z</time></trkpt><trkpt lat="39.6712217" lon="8.4970217"><ele>182.0</ele><time>2026-05-01T07:38:34.814Z</time></trkpt><trkpt lat="39.6711967" lon="8.4971367"><ele>182.0</ele><time>2026-05-01T07:38:35.814Z</time></trkpt><trkpt lat="39.6711733" lon="8.497255"><ele>182.0</ele><time>2026-05-01T07:38:36.815Z</time></trkpt><trkpt lat="39.671155" lon="8.4973567"><ele>182.0</ele><time>2026-05-01T07:38:37.814Z</time></trkpt><trkpt lat="39.6711333" lon="8.4974483"><ele>182.0</ele><time>2026-05-01T07:38:38.815Z</time></trkpt><trkpt lat="39.67105" lon="8.4976"><ele>182.0</ele><time>2026-05-01T07:38:40.814Z</time></trkpt><trkpt lat="39.6709783" lon="8.49769"><ele>182.0</ele><time>2026-05-01T07:38:41.814Z</time></trkpt><trkpt lat="39.6709083" lon="8.49778"><ele>182.0</ele><time>2026-05-01T07:38:42.814Z</time></trkpt><trkpt lat="39.6708383" lon="8.49787"><ele>182.0</ele><time>2026-05-01T07:38:43.815Z</time></trkpt><trkpt lat="39.67078" lon="8.4979517"><ele>182.0</ele><time>2026-05-01T07:38:44.814Z</time></trkpt><trkpt lat="39.6707283" lon="8.49802"><ele>182.0</ele><time>2026-05-01T07:38:45.814Z</time></trkpt><trkpt lat="39.6706767" lon="8.4980733"><ele>182.0</ele><time>2026-05-01T07:38:46.814Z</time></trkpt><trkpt lat="39.6706183" lon="8.498125"><ele>181.8</ele><time>2026-05-01T07:38:47.814Z</time></trkpt><trkpt lat="39.6705583" lon="8.4981533"><ele>181.6</ele><time>2026-05-01T07:38:48.815Z</time></trkpt><trkpt lat="39.6704383" lon="8.49815"><ele>181.4</ele><time>2026-05-01T07:38:50.815Z</time></trkpt><trkpt lat="39.6703233" lon="8.498165"><ele>181.20000000000002</ele><time>2026-05-01T07:38:52.814Z</time></trkpt><trkpt lat="39.6702167" lon="8.4982333"><ele>181.0</ele><time>2026-05-01T07:38:54.814Z</time></trkpt><trkpt lat="39.67011" lon="8.498315"><ele>180.66666666666669</ele><time>2026-05-01T07:38:56.815Z</time></trkpt><trkpt lat="39.67005" lon="8.49835"><ele>180.33333333333334</ele><time>2026-05-01T07:38:57.815Z</time></trkpt><trkpt lat="39.6699467" lon="8.4984117"><ele>180.0</ele><time>2026-05-01T07:38:59.814Z</time></trkpt><trkpt lat="39.6698717" lon="8.49848"><ele>179.66666666666666</ele><time>2026-05-01T07:39:01.814Z</time></trkpt><trkpt lat="39.6698017" lon="8.4985567"><ele>179.33333333333331</ele><time>2026-05-01T07:39:03.815Z</time></trkpt><trkpt lat="39.669755" lon="8.498615"><ele>179.0</ele><time>2026-05-01T07:39:04.814Z</time></trkpt><trkpt lat="39.6697017" lon="8.498675"><ele>179.00000000000003</ele><time>2026-05-01T07:39:05.815Z</time></trkpt><trkpt lat="39.6696417" lon="8.4987383"><ele>179.0</ele><time>2026-05-01T07:39:06.815Z</time></trkpt><trkpt lat="39.66958" lon="8.4987983"><ele>179.0</ele><time>2026-05-01T07:39:07.814Z</time></trkpt><trkpt lat="39.6695167" lon="8.49885"><ele>179.0</ele><time>2026-05-01T07:39:08.814Z</time></trkpt><trkpt lat="39.66945" lon="8.4988917"><ele>179.0</ele><time>2026-05-01T07:39:09.815Z</time></trkpt><trkpt lat="39.669385" lon="8.49892"><ele>179.00000000000003</ele><time>2026-05-01T07:39:10.814Z</time></trkpt><trkpt lat="39.669315" lon="8.498935"><ele>179.0</ele><time>2026-05-01T07:39:11.814Z</time></trkpt><trkpt lat="39.669245" lon="8.4989483"><ele>180.0</ele><time>2026-05-01T07:39:12.814Z</time></trkpt><trkpt lat="39.6691833" lon="8.4989667"><ele>181.0</ele><time>2026-05-01T07:39:13.815Z</time></trkpt><trkpt lat="39.6690683" lon="8.49902"><ele>182.0</ele><time>2026-05-01T07:39:15.815Z</time></trkpt><trkpt lat="39.66899" lon="8.4991033"><ele>183.0</ele><time>2026-05-01T07:39:17.815Z</time></trkpt><trkpt lat="39.66895" lon="8.4991717"><ele>184.0</ele><time>2026-05-01T07:39:18.815Z</time></trkpt><trkpt lat="39.668895" lon="8.4992533"><ele>185.0</ele><time>2026-05-01T07:39:19.814Z</time></trkpt><trkpt lat="39.6688367" lon="8.49934"><ele>185.0</ele><time>2026-05-01T07:39:20.814Z</time></trkpt><trkpt lat="39.6687867" lon="8.49943"><ele>185.0</ele><time>2026-05-01T07:39:21.814Z</time></trkpt><trkpt lat="39.6687417" lon="8.4995"><ele>185.0</ele><time>2026-05-01T07:39:22.814Z</time></trkpt><trkpt lat="39.6686567" lon="8.4996133"><ele>185.0</ele><time>2026-05-01T07:39:24.815Z</time></trkpt><trkpt lat="39.6685833" lon="8.4996933"><ele>185.0</ele><time>2026-05-01T07:39:26.814Z</time></trkpt><trkpt lat="39.6685267" lon="8.49974"><ele>185.0</ele><time>2026-05-01T07:39:29.814Z</time></trkpt><trkpt lat="39.6684667" lon="8.49977"><ele>185.0</ele><time>2026-05-01T07:39:32.814Z</time></trkpt><trkpt lat="39.6685283" lon="8.4998"><ele>185.0</ele><time>2026-05-01T07:39:56.815Z</time></trkpt><trkpt lat="39.66859" lon="8.4997067"><ele>185.0</ele><time>2026-05-01T07:39:58.814Z</time></trkpt><trkpt lat="39.6686383" lon="8.49965"><ele>185.0</ele><time>2026-05-01T07:39:59.813Z</time></trkpt><trkpt lat="39.6686983" lon="8.4995883"><ele>185.0</ele><time>2026-05-01T07:40:00.814Z</time></trkpt><trkpt lat="39.668755" lon="8.4995133"><ele>185.0</ele><time>2026-05-01T07:40:01.814Z</time></trkpt><trkpt lat="39.6687983" lon="8.499445"><ele>185.0</ele><time>2026-05-01T07:40:02.813Z</time></trkpt><trkpt lat="39.6688617" lon="8.4993433"><ele>185.0</ele><time>2026-05-01T07:40:04.813Z</time></trkpt><trkpt lat="39.6689267" lon="8.4992417"><ele>185.0</ele><time>2026-05-01T07:40:06.813Z</time></trkpt><trkpt lat="39.668995" lon="8.49914"><ele>185.0</ele><time>2026-05-01T07:40:08.814Z</time></trkpt><trkpt lat="39.6690483" lon="8.499065"><ele>185.0</ele><time>2026-05-01T07:40:10.813Z</time></trkpt><trkpt lat="39.6691033" lon="8.4990217"><ele>185.0</ele><time>2026-05-01T07:40:12.813Z</time></trkpt><trkpt lat="39.669195" lon="8.4989883"><ele>185.0</ele><time>2026-05-01T07:40:14.813Z</time></trkpt><trkpt lat="39.6692617" lon="8.498965"><ele>185.0</ele><time>2026-05-01T07:40:16.814Z</time></trkpt><trkpt lat="39.669325" lon="8.4989517"><ele>185.0</ele><time>2026-05-01T07:40:18.813Z</time></trkpt><trkpt lat="39.6694133" lon="8.4989417"><ele>185.0</ele><time>2026-05-01T07:40:20.813Z</time></trkpt><trkpt lat="39.6695017" lon="8.4988967"><ele>185.0</ele><time>2026-05-01T07:40:22.813Z</time></trkpt><trkpt lat="39.669585" lon="8.498825"><ele>185.0</ele><time>2026-05-01T07:40:24.813Z</time></trkpt><trkpt lat="39.669665" lon="8.4987533"><ele>184.0</ele><time>2026-05-01T07:40:26.813Z</time></trkpt><trkpt lat="39.6697333" lon="8.4986767"><ele>183.0</ele><time>2026-05-01T07:40:28.814Z</time></trkpt><trkpt lat="39.6697933" lon="8.4985983"><ele>182.0</ele><time>2026-05-01T07:40:30.813Z</time></trkpt><trkpt lat="39.6698033" lon="8.4985"><ele>181.0</ele><time>2026-05-01T07:40:32.813Z</time></trkpt><trkpt lat="39.6697517" lon="8.4984383"><ele>180.0</ele><time>2026-05-01T07:40:34.814Z</time></trkpt><trkpt lat="39.6696667" lon="8.49839"><ele>179.0</ele><time>2026-05-01T07:40:36.813Z</time></trkpt><trkpt lat="39.66957" lon="8.498295"><ele>179.0</ele><time>2026-05-01T07:40:38.813Z</time></trkpt><trkpt lat="39.66951" lon="8.49824"><ele>179.0</ele><time>2026-05-01T07:40:39.814Z</time></trkpt><trkpt lat="39.6694533" lon="8.498185"><ele>179.0</ele><time>2026-05-01T07:40:40.813Z</time></trkpt><trkpt lat="39.6693667" lon="8.4980867"><ele>179.0</ele><time>2026-05-01T07:40:42.814Z</time></trkpt><trkpt lat="39.6692783" lon="8.4980133"><ele>179.0</ele><time>2026-05-01T07:40:44.814Z</time></trkpt><trkpt lat="39.669185" lon="8.49799"><ele>178.0</ele><time>2026-05-01T07:40:46.813Z</time></trkpt><trkpt lat="39.6690967" lon="8.498005"><ele>177.0</ele><time>2026-05-01T07:40:48.813Z</time></trkpt><trkpt lat="39.6690183" lon="8.49801"><ele>176.0</ele><time>2026-05-01T07:40:50.814Z</time></trkpt><trkpt lat="39.668945" lon="8.49803"><ele>175.0</ele><time>2026-05-01T07:40:52.814Z</time></trkpt><trkpt lat="39.668875" lon="8.4980133"><ele>174.0</ele><time>2026-05-01T07:40:54.814Z</time></trkpt><trkpt lat="39.6688283" lon="8.4979583"><ele>173.0</ele><time>2026-05-01T07:40:56.813Z</time></trkpt><trkpt lat="39.6687917" lon="8.497875"><ele>171.4</ele><time>2026-05-01T07:40:58.813Z</time></trkpt><trkpt lat="39.6687633" lon="8.49777"><ele>169.8</ele><time>2026-05-01T07:41:00.814Z</time></trkpt><trkpt lat="39.6687717" lon="8.49765"><ele>168.2</ele><time>2026-05-01T07:41:02.813Z</time></trkpt><trkpt lat="39.6687767" lon="8.4975033"><ele>166.6</ele><time>2026-05-01T07:41:04.814Z</time></trkpt><trkpt lat="39.6687767" lon="8.4973517"><ele>165.0</ele><time>2026-05-01T07:41:06.813Z</time></trkpt><trkpt lat="39.66878" lon="8.4972033"><ele>164.4</ele><time>2026-05-01T07:41:08.813Z</time></trkpt><trkpt lat="39.6687667" lon="8.49706"><ele>163.8</ele><time>2026-05-01T07:41:10.813Z</time></trkpt><trkpt lat="39.668725" lon="8.496905"><ele>163.2</ele><time>2026-05-01T07:41:12.813Z</time></trkpt><trkpt lat="39.668685" lon="8.4968267"><ele>162.6</ele><time>2026-05-01T07:41:13.813Z</time></trkpt><trkpt lat="39.66864" lon="8.4967517"><ele>162.0</ele><time>2026-05-01T07:41:14.814Z</time></trkpt><trkpt lat="39.6685917" lon="8.4966783"><ele>161.16666666666666</ele><time>2026-05-01T07:41:15.813Z</time></trkpt><trkpt lat="39.6685483" lon="8.4966033"><ele>160.33333333333334</ele><time>2026-05-01T07:41:16.813Z</time></trkpt><trkpt lat="39.668515" lon="8.4965267"><ele>159.5</ele><time>2026-05-01T07:41:17.813Z</time></trkpt><trkpt lat="39.6684883" lon="8.4964517"><ele>158.66666666666669</ele><time>2026-05-01T07:41:18.813Z</time></trkpt><trkpt lat="39.6684383" lon="8.4963283"><ele>157.83333333333334</ele><time>2026-05-01T07:41:20.813Z</time></trkpt><trkpt lat="39.66837" lon="8.4962117"><ele>157.0</ele><time>2026-05-01T07:41:22.813Z</time></trkpt><trkpt lat="39.66831" lon="8.4961"><ele>155.79999999999998</ele><time>2026-05-01T07:41:24.813Z</time></trkpt><trkpt lat="39.6682783" lon="8.4959817"><ele>154.6</ele><time>2026-05-01T07:41:26.813Z</time></trkpt><trkpt lat="39.66824" lon="8.4958267"><ele>153.39999999999998</ele><time>2026-05-01T07:41:28.814Z</time></trkpt><trkpt lat="39.668155" lon="8.4957317"><ele>152.2</ele><time>2026-05-01T07:41:30.813Z</time></trkpt><trkpt lat="39.66807" lon="8.4956867"><ele>151.0</ele><time>2026-05-01T07:41:32.813Z</time></trkpt><trkpt lat="39.6680267" lon="8.495625"><ele>151.0</ele><time>2026-05-01T07:41:34.814Z</time></trkpt><trkpt lat="39.6679967" lon="8.4955383"><ele>151.0</ele><time>2026-05-01T07:41:36.814Z</time></trkpt><trkpt lat="39.667915" lon="8.4954467"><ele>151.0</ele><time>2026-05-01T07:41:38.814Z</time></trkpt><trkpt lat="39.667815" lon="8.4953817"><ele>151.0</ele><time>2026-05-01T07:41:40.814Z</time></trkpt><trkpt lat="39.6677533" lon="8.49534"><ele>151.0</ele><time>2026-05-01T07:41:41.813Z</time></trkpt><trkpt lat="39.6676833" lon="8.4952933"><ele>151.0</ele><time>2026-05-01T07:41:42.814Z</time></trkpt><trkpt lat="39.6676117" lon="8.495245"><ele>150.4</ele><time>2026-05-01T07:41:43.813Z</time></trkpt><trkpt lat="39.6675433" lon="8.49519"><ele>149.8</ele><time>2026-05-01T07:41:44.814Z</time></trkpt><trkpt lat="39.6674783" lon="8.49507"><ele>149.20000000000002</ele><time>2026-05-01T07:41:46.814Z</time></trkpt><trkpt lat="39.6674967" lon="8.494885"><ele>148.6</ele><time>2026-05-01T07:41:48.813Z</time></trkpt><trkpt lat="39.667525" lon="8.4947683"><ele>148.0</ele><time>2026-05-01T07:41:49.814Z</time></trkpt><trkpt lat="39.6675617" lon="8.49465"><ele>148.33333333333334</ele><time>2026-05-01T07:41:50.813Z</time></trkpt><trkpt lat="39.6675883" lon="8.49455"><ele>148.66666666666669</ele><time>2026-05-01T07:41:51.813Z</time></trkpt><trkpt lat="39.66762" lon="8.494465"><ele>149.0</ele><time>2026-05-01T07:41:52.813Z</time></trkpt><trkpt lat="39.6676583" lon="8.4943867"><ele>149.33333333333334</ele><time>2026-05-01T07:41:53.813Z</time></trkpt><trkpt lat="39.6677283" lon="8.49429"><ele>149.66666666666666</ele><time>2026-05-01T07:41:55.814Z</time></trkpt><trkpt lat="39.667675" lon="8.4943867"><ele>150.0</ele><time>2026-05-01T07:42:23.813Z</time></trkpt><trkpt lat="39.6676167" lon="8.494485"><ele>150.0</ele><time>2026-05-01T07:42:25.813Z</time></trkpt><trkpt lat="39.66757" lon="8.4945767"><ele>150.0</ele><time>2026-05-01T07:42:27.813Z</time></trkpt><trkpt lat="39.66754" lon="8.49468"><ele>150.0</ele><time>2026-05-01T07:42:29.813Z</time></trkpt><trkpt lat="39.6675283" lon="8.49481"><ele>150.0</ele><time>2026-05-01T07:42:31.813Z</time></trkpt><trkpt lat="39.6675033" lon="8.4949583"><ele>150.0</ele><time>2026-05-01T07:42:33.813Z</time></trkpt><trkpt lat="39.6675017" lon="8.4950833"><ele>150.2</ele><time>2026-05-01T07:42:35.813Z</time></trkpt><trkpt lat="39.66755" lon="8.49519"><ele>150.4</ele><time>2026-05-01T07:42:37.814Z</time></trkpt><trkpt lat="39.667655" lon="8.49527"><ele>150.6</ele><time>2026-05-01T07:42:39.813Z</time></trkpt><trkpt lat="39.66773" lon="8.4953167"><ele>150.8</ele><time>2026-05-01T07:42:40.813Z</time></trkpt><trkpt lat="39.6678167" lon="8.4953683"><ele>151.0</ele><time>2026-05-01T07:42:41.814Z</time></trkpt><trkpt lat="39.6678967" lon="8.4954333"><ele>151.0</ele><time>2026-05-01T07:42:42.814Z</time></trkpt><trkpt lat="39.66796" lon="8.4954817"><ele>151.0</ele><time>2026-05-01T07:42:43.813Z</time></trkpt><trkpt lat="39.6680333" lon="8.4955617"><ele>151.0</ele><time>2026-05-01T07:42:45.813Z</time></trkpt><trkpt lat="39.6679783" lon="8.4956467"><ele>151.0</ele><time>2026-05-01T07:42:48.812Z</time></trkpt><trkpt lat="39.66788" lon="8.4956117"><ele>151.0</ele><time>2026-05-01T07:42:50.813Z</time></trkpt><trkpt lat="39.66782" lon="8.49556"><ele>151.0</ele><time>2026-05-01T07:42:51.813Z</time></trkpt><trkpt lat="39.667745" lon="8.4955117"><ele>150.4</ele><time>2026-05-01T07:42:52.812Z</time></trkpt><trkpt lat="39.66766" lon="8.49547"><ele>149.8</ele><time>2026-05-01T07:42:53.813Z</time></trkpt><trkpt lat="39.667575" lon="8.4954367"><ele>149.20000000000002</ele><time>2026-05-01T07:42:54.812Z</time></trkpt><trkpt lat="39.6675067" lon="8.4954183"><ele>148.6</ele><time>2026-05-01T07:42:55.812Z</time></trkpt><trkpt lat="39.6674017" lon="8.4954083"><ele>148.0</ele><time>2026-05-01T07:42:57.812Z</time></trkpt><trkpt lat="39.6673067" lon="8.49535"><ele>148.0</ele><time>2026-05-01T07:42:59.812Z</time></trkpt><trkpt lat="39.6672583" lon="8.495235"><ele>148.0</ele><time>2026-05-01T07:43:01.813Z</time></trkpt><trkpt lat="39.6672267" lon="8.4950633"><ele>148.0</ele><time>2026-05-01T07:43:03.812Z</time></trkpt><trkpt lat="39.6672117" lon="8.4949533"><ele>148.0</ele><time>2026-05-01T07:43:04.812Z</time></trkpt><trkpt lat="39.6671883" lon="8.4948167"><ele>148.0</ele><time>2026-05-01T07:43:05.812Z</time></trkpt><trkpt lat="39.66716" lon="8.4946767"><ele>148.4</ele><time>2026-05-01T07:43:06.812Z</time></trkpt><trkpt lat="39.6671317" lon="8.4945383"><ele>148.8</ele><time>2026-05-01T07:43:07.812Z</time></trkpt><trkpt lat="39.667105" lon="8.4944083"><ele>149.2</ele><time>2026-05-01T07:43:08.812Z</time></trkpt><trkpt lat="39.6670733" lon="8.4942783"><ele>149.6</ele><time>2026-05-01T07:43:09.812Z</time></trkpt><trkpt lat="39.6670367" lon="8.4941483"><ele>150.0</ele><time>2026-05-01T07:43:10.813Z</time></trkpt><trkpt lat="39.6669933" lon="8.4940233"><ele>150.0</ele><time>2026-05-01T07:43:11.813Z</time></trkpt><trkpt lat="39.6669533" lon="8.4939017"><ele>150.0</ele><time>2026-05-01T07:43:12.812Z</time></trkpt><trkpt lat="39.66692" lon="8.4937867"><ele>150.0</ele><time>2026-05-01T07:43:13.812Z</time></trkpt><trkpt lat="39.6668883" lon="8.4936783"><ele>150.0</ele><time>2026-05-01T07:43:14.812Z</time></trkpt><trkpt lat="39.666865" lon="8.4935583"><ele>150.0</ele><time>2026-05-01T07:43:15.812Z</time></trkpt><trkpt lat="39.6668483" lon="8.4934217"><ele>148.16666666666666</ele><time>2026-05-01T07:43:16.812Z</time></trkpt><trkpt lat="39.6668383" lon="8.49328"><ele>146.33333333333334</ele><time>2026-05-01T07:43:17.813Z</time></trkpt><trkpt lat="39.6668333" lon="8.4931617"><ele>144.5</ele><time>2026-05-01T07:43:18.812Z</time></trkpt><trkpt lat="39.6668183" lon="8.4930533"><ele>142.66666666666669</ele><time>2026-05-01T07:43:19.812Z</time></trkpt><trkpt lat="39.66679" lon="8.4929667"><ele>140.83333333333334</ele><time>2026-05-01T07:43:20.813Z</time></trkpt><trkpt lat="39.6667417" lon="8.49288"><ele>139.0</ele><time>2026-05-01T07:43:21.812Z</time></trkpt><trkpt lat="39.6666817" lon="8.4927817"><ele>138.0</ele><time>2026-05-01T07:43:22.813Z</time></trkpt><trkpt lat="39.6666117" lon="8.49268"><ele>137.0</ele><time>2026-05-01T07:43:23.812Z</time></trkpt><trkpt lat="39.6665433" lon="8.4925717"><ele>136.0</ele><time>2026-05-01T07:43:24.812Z</time></trkpt><trkpt lat="39.6664767" lon="8.4924683"><ele>135.0</ele><time>2026-05-01T07:43:25.812Z</time></trkpt><trkpt lat="39.6664117" lon="8.4923633"><ele>134.0</ele><time>2026-05-01T07:43:26.812Z</time></trkpt><trkpt lat="39.6663583" lon="8.4922633"><ele>134.0</ele><time>2026-05-01T07:43:27.812Z</time></trkpt><trkpt lat="39.6663133" lon="8.4921767"><ele>134.0</ele><time>2026-05-01T07:43:28.812Z</time></trkpt><trkpt lat="39.66627" lon="8.4920783"><ele>134.0</ele><time>2026-05-01T07:43:29.813Z</time></trkpt><trkpt lat="39.6662283" lon="8.4919683"><ele>134.0</ele><time>2026-05-01T07:43:30.812Z</time></trkpt><trkpt lat="39.666185" lon="8.491845"><ele>134.0</ele><time>2026-05-01T07:43:31.813Z</time></trkpt><trkpt lat="39.666165" lon="8.4916967"><ele>134.0</ele><time>2026-05-01T07:43:32.812Z</time></trkpt><trkpt lat="39.6661283" lon="8.4915783"><ele>134.0</ele><time>2026-05-01T07:43:33.812Z</time></trkpt><trkpt lat="39.666085" lon="8.49147"><ele>134.0</ele><time>2026-05-01T07:43:34.812Z</time></trkpt><trkpt lat="39.666035" lon="8.4913783"><ele>134.0</ele><time>2026-05-01T07:43:35.812Z</time></trkpt><trkpt lat="39.6659833" lon="8.4912733"><ele>134.0</ele><time>2026-05-01T07:43:36.812Z</time></trkpt><trkpt lat="39.6659333" lon="8.4911617"><ele>135.0</ele><time>2026-05-01T07:43:37.812Z</time></trkpt><trkpt lat="39.6658717" lon="8.491055"><ele>136.0</ele><time>2026-05-01T07:43:38.812Z</time></trkpt><trkpt lat="39.6658083" lon="8.49095"><ele>137.0</ele><time>2026-05-01T07:43:39.813Z</time></trkpt><trkpt lat="39.6657467" lon="8.4908583"><ele>138.0</ele><time>2026-05-01T07:43:40.813Z</time></trkpt><trkpt lat="39.6656883" lon="8.490765"><ele>139.0</ele><time>2026-05-01T07:43:41.812Z</time></trkpt><trkpt lat="39.66565" lon="8.490675"><ele>139.0</ele><time>2026-05-01T07:43:42.813Z</time></trkpt><trkpt lat="39.6656067" lon="8.4905217"><ele>139.0</ele><time>2026-05-01T07:43:44.812Z</time></trkpt><trkpt lat="39.6656333" lon="8.4904433"><ele>139.0</ele><time>2026-05-01T07:43:45.812Z</time></trkpt><trkpt lat="39.6656867" lon="8.490335"><ele>139.0</ele><time>2026-05-01T07:43:46.813Z</time></trkpt><trkpt lat="39.66573" lon="8.4902117"><ele>139.0</ele><time>2026-05-01T07:43:47.812Z</time></trkpt><trkpt lat="39.665755" lon="8.4901033"><ele>139.4</ele><time>2026-05-01T07:43:48.813Z</time></trkpt><trkpt lat="39.6657683" lon="8.4900183"><ele>139.8</ele><time>2026-05-01T07:43:49.812Z</time></trkpt><trkpt lat="39.6657767" lon="8.4899033"><ele>140.2</ele><time>2026-05-01T07:43:51.812Z</time></trkpt><trkpt lat="39.6657067" lon="8.48982"><ele>140.6</ele><time>2026-05-01T07:43:54.813Z</time></trkpt><trkpt lat="39.66559" lon="8.4897783"><ele>141.0</ele><time>2026-05-01T07:43:56.812Z</time></trkpt><trkpt lat="39.665515" lon="8.4896917"><ele>141.75</ele><time>2026-05-01T07:43:58.812Z</time></trkpt><trkpt lat="39.6654767" lon="8.4895667"><ele>142.5</ele><time>2026-05-01T07:44:00.812Z</time></trkpt><trkpt lat="39.6654117" lon="8.4894333"><ele>143.25</ele><time>2026-05-01T07:44:02.813Z</time></trkpt><trkpt lat="39.665365" lon="8.4893083"><ele>144.0</ele><time>2026-05-01T07:44:04.812Z</time></trkpt><trkpt lat="39.6653383" lon="8.4891433"><ele>144.0</ele><time>2026-05-01T07:44:06.812Z</time></trkpt><trkpt lat="39.665325" lon="8.4890367"><ele>144.0</ele><time>2026-05-01T07:44:07.813Z</time></trkpt><trkpt lat="39.6653167" lon="8.4889283"><ele>144.0</ele><time>2026-05-01T07:44:08.812Z</time></trkpt><trkpt lat="39.6653167" lon="8.4888233"><ele>144.0</ele><time>2026-05-01T07:44:09.812Z</time></trkpt><trkpt lat="39.6653217" lon="8.48872"><ele>144.0</ele><time>2026-05-01T07:44:10.812Z</time></trkpt><trkpt lat="39.66533" lon="8.48862"><ele>144.0</ele><time>2026-05-01T07:44:11.812Z</time></trkpt><trkpt lat="39.66535" lon="8.4885283"><ele>142.83333333333334</ele><time>2026-05-01T07:44:12.812Z</time></trkpt><trkpt lat="39.6653817" lon="8.4884533"><ele>141.66666666666666</ele><time>2026-05-01T07:44:13.813Z</time></trkpt><trkpt lat="39.6654417" lon="8.4883367"><ele>140.5</ele><time>2026-05-01T07:44:15.812Z</time></trkpt><trkpt lat="39.6654733" lon="8.48826"><ele>139.33333333333331</ele><time>2026-05-01T07:44:17.812Z</time></trkpt><trkpt lat="39.6655083" lon="8.4881817"><ele>138.16666666666666</ele><time>2026-05-01T07:44:22.812Z</time></trkpt><trkpt lat="39.665545" lon="8.4881067"><ele>137.0</ele><time>2026-05-01T07:44:24.812Z</time></trkpt><trkpt lat="39.6655983" lon="8.4880067"><ele>135.5</ele><time>2026-05-01T07:44:26.812Z</time></trkpt><trkpt lat="39.6656517" lon="8.48792"><ele>134.0</ele><time>2026-05-01T07:44:28.812Z</time></trkpt><trkpt lat="39.665705" lon="8.4878433"><ele>132.5</ele><time>2026-05-01T07:44:30.812Z</time></trkpt><trkpt lat="39.6657417" lon="8.48776"><ele>131.0</ele><time>2026-05-01T07:44:32.812Z</time></trkpt><trkpt lat="39.665745" lon="8.487665"><ele>129.5</ele><time>2026-05-01T07:44:34.812Z</time></trkpt><trkpt lat="39.6657267" lon="8.4875067"><ele>128.0</ele><time>2026-05-01T07:44:36.812Z</time></trkpt><trkpt lat="39.665715" lon="8.48741"><ele>128.0</ele><time>2026-05-01T07:44:37.813Z</time></trkpt><trkpt lat="39.6657033" lon="8.4873217"><ele>127.99999999999999</ele><time>2026-05-01T07:44:38.812Z</time></trkpt><trkpt lat="39.6656967" lon="8.48723"><ele>128.0</ele><time>2026-05-01T07:44:39.812Z</time></trkpt><trkpt lat="39.6656933" lon="8.4871333"><ele>128.0</ele><time>2026-05-01T07:44:40.813Z</time></trkpt><trkpt lat="39.6656917" lon="8.4870417"><ele>127.99999999999999</ele><time>2026-05-01T07:44:41.813Z</time></trkpt><trkpt lat="39.6656983" lon="8.4869483"><ele>128.0</ele><time>2026-05-01T07:44:42.812Z</time></trkpt><trkpt lat="39.665695" lon="8.486845"><ele>128.0</ele><time>2026-05-01T07:44:43.812Z</time></trkpt><trkpt lat="39.6656967" lon="8.4867367"><ele>126.33333333333333</ele><time>2026-05-01T07:44:44.813Z</time></trkpt><trkpt lat="39.6657033" lon="8.4866333"><ele>124.66666666666666</ele><time>2026-05-01T07:44:45.812Z</time></trkpt><trkpt lat="39.6657267" lon="8.4865267"><ele>123.0</ele><time>2026-05-01T07:44:46.812Z</time></trkpt><trkpt lat="39.6657583" lon="8.486425"><ele>121.33333333333334</ele><time>2026-05-01T07:44:47.812Z</time></trkpt><trkpt lat="39.6658" lon="8.4863367"><ele>119.66666666666667</ele><time>2026-05-01T07:44:48.813Z</time></trkpt><trkpt lat="39.66586" lon="8.4862517"><ele>118.0</ele><time>2026-05-01T07:44:49.812Z</time></trkpt><trkpt lat="39.6659317" lon="8.486175"><ele>117.80000000000001</ele><time>2026-05-01T07:44:50.812Z</time></trkpt><trkpt lat="39.666005" lon="8.4861033"><ele>117.60000000000001</ele><time>2026-05-01T07:44:51.813Z</time></trkpt><trkpt lat="39.6660633" lon="8.48602"><ele>117.39999999999999</ele><time>2026-05-01T07:44:52.812Z</time></trkpt><trkpt lat="39.6660967" lon="8.4859183"><ele>117.19999999999999</ele><time>2026-05-01T07:44:53.812Z</time></trkpt><trkpt lat="39.66611" lon="8.485805"><ele>117.0</ele><time>2026-05-01T07:44:54.812Z</time></trkpt><trkpt lat="39.66611" lon="8.4856767"><ele>117.0</ele><time>2026-05-01T07:44:55.812Z</time></trkpt><trkpt lat="39.6660967" lon="8.4855317"><ele>117.0</ele><time>2026-05-01T07:44:56.812Z</time></trkpt><trkpt lat="39.6660833" lon="8.4853733"><ele>117.0</ele><time>2026-05-01T07:44:57.813Z</time></trkpt><trkpt lat="39.666075" lon="8.4852067"><ele>117.0</ele><time>2026-05-01T07:44:58.813Z</time></trkpt><trkpt lat="39.6660717" lon="8.4850383"><ele>118.5</ele><time>2026-05-01T07:44:59.812Z</time></trkpt><trkpt lat="39.66606" lon="8.48487"><ele>120.0</ele><time>2026-05-01T07:45:00.813Z</time></trkpt><trkpt lat="39.6660467" lon="8.4847183"><ele>121.5</ele><time>2026-05-01T07:45:01.813Z</time></trkpt><trkpt lat="39.6660333" lon="8.4845733"><ele>123.0</ele><time>2026-05-01T07:45:02.812Z</time></trkpt><trkpt lat="39.666025" lon="8.484425"><ele>123.0</ele><time>2026-05-01T07:45:03.812Z</time></trkpt><trkpt lat="39.6660133" lon="8.484265"><ele>123.0</ele><time>2026-05-01T07:45:04.812Z</time></trkpt><trkpt lat="39.6660233" lon="8.484105"><ele>123.0</ele><time>2026-05-01T07:45:05.812Z</time></trkpt><trkpt lat="39.66604" lon="8.4839517"><ele>123.0</ele><time>2026-05-01T07:45:06.812Z</time></trkpt><trkpt lat="39.6660567" lon="8.483815"><ele>121.25</ele><time>2026-05-01T07:45:07.812Z</time></trkpt><trkpt lat="39.666085" lon="8.4836817"><ele>119.5</ele><time>2026-05-01T07:45:08.812Z</time></trkpt><trkpt lat="39.6661233" lon="8.483535"><ele>117.75</ele><time>2026-05-01T07:45:09.812Z</time></trkpt><trkpt lat="39.6661483" lon="8.483385"><ele>116.0</ele><time>2026-05-01T07:45:10.812Z</time></trkpt><trkpt lat="39.6661667" lon="8.483225"><ele>112.0</ele><time>2026-05-01T07:45:11.812Z</time></trkpt><trkpt lat="39.66617" lon="8.48306"><ele>108.0</ele><time>2026-05-01T07:45:12.812Z</time></trkpt><trkpt lat="39.6661667" lon="8.4828983"><ele>104.0</ele><time>2026-05-01T07:45:13.812Z</time></trkpt><trkpt lat="39.6661567" lon="8.48274"><ele>100.0</ele><time>2026-05-01T07:45:14.813Z</time></trkpt><trkpt lat="39.666145" lon="8.4825917"><ele>100.0</ele><time>2026-05-01T07:45:15.813Z</time></trkpt><trkpt lat="39.6661217" lon="8.4824317"><ele>100.0</ele><time>2026-05-01T07:45:16.813Z</time></trkpt><trkpt lat="39.6660983" lon="8.4822633"><ele>100.0</ele><time>2026-05-01T07:45:17.812Z</time></trkpt><trkpt lat="39.6660683" lon="8.48209"><ele>100.0</ele><time>2026-05-01T07:45:18.813Z</time></trkpt><trkpt lat="39.66604" lon="8.4819233"><ele>102.2</ele><time>2026-05-01T07:45:19.812Z</time></trkpt><trkpt lat="39.6660217" lon="8.4817867"><ele>104.4</ele><time>2026-05-01T07:45:20.813Z</time></trkpt><trkpt lat="39.6660217" lon="8.4816617"><ele>106.6</ele><time>2026-05-01T07:45:21.812Z</time></trkpt><trkpt lat="39.666025" lon="8.4815217"><ele>108.8</ele><time>2026-05-01T07:45:22.813Z</time></trkpt><trkpt lat="39.6660383" lon="8.4813667"><ele>111.0</ele><time>2026-05-01T07:45:23.812Z</time></trkpt><trkpt lat="39.66605" lon="8.4812033"><ele>111.0</ele><time>2026-05-01T07:45:24.812Z</time></trkpt><trkpt lat="39.6660567" lon="8.4810333"><ele>111.0</ele><time>2026-05-01T07:45:25.812Z</time></trkpt><trkpt lat="39.66605" lon="8.4808533"><ele>111.0</ele><time>2026-05-01T07:45:26.812Z</time></trkpt><trkpt lat="39.66604" lon="8.4806617"><ele>111.0</ele><time>2026-05-01T07:45:27.813Z</time></trkpt><trkpt lat="39.6660233" lon="8.480455"><ele>109.66666666666666</ele><time>2026-05-01T07:45:28.812Z</time></trkpt><trkpt lat="39.6660083" lon="8.4802533"><ele>108.33333333333333</ele><time>2026-05-01T07:45:29.812Z</time></trkpt><trkpt lat="39.665995" lon="8.4800533"><ele>107.0</ele><time>2026-05-01T07:45:30.812Z</time></trkpt><trkpt lat="39.6659783" lon="8.4798633"><ele>107.0</ele><time>2026-05-01T07:45:31.812Z</time></trkpt><trkpt lat="39.6659767" lon="8.4796783"><ele>107.0</ele><time>2026-05-01T07:45:32.812Z</time></trkpt><trkpt lat="39.6659783" lon="8.4794933"><ele>107.0</ele><time>2026-05-01T07:45:33.813Z</time></trkpt><trkpt lat="39.66598" lon="8.4793133"><ele>107.0</ele><time>2026-05-01T07:45:34.812Z</time></trkpt><trkpt lat="39.6659783" lon="8.4791333"><ele>106.8</ele><time>2026-05-01T07:45:35.813Z</time></trkpt><trkpt lat="39.6659833" lon="8.4789783"><ele>106.6</ele><time>2026-05-01T07:45:36.811Z</time></trkpt><trkpt lat="39.6659833" lon="8.4788567"><ele>106.39999999999999</ele><time>2026-05-01T07:45:37.811Z</time></trkpt><trkpt lat="39.665985" lon="8.47875"><ele>106.19999999999999</ele><time>2026-05-01T07:45:38.811Z</time></trkpt><trkpt lat="39.6659967" lon="8.4786517"><ele>106.0</ele><time>2026-05-01T07:45:39.811Z</time></trkpt><trkpt lat="39.6660233" lon="8.478555"><ele>105.6</ele><time>2026-05-01T07:45:40.812Z</time></trkpt><trkpt lat="39.6660583" lon="8.4784483"><ele>105.19999999999999</ele><time>2026-05-01T07:45:41.811Z</time></trkpt><trkpt lat="39.6661" lon="8.4783467"><ele>104.80000000000001</ele><time>2026-05-01T07:45:42.811Z</time></trkpt><trkpt lat="39.6661317" lon="8.47823"><ele>104.4</ele><time>2026-05-01T07:45:43.811Z</time></trkpt><trkpt lat="39.66616" lon="8.4781017"><ele>104.0</ele><time>2026-05-01T07:45:44.812Z</time></trkpt><trkpt lat="39.666185" lon="8.4779783"><ele>100.16666666666666</ele><time>2026-05-01T07:45:45.812Z</time></trkpt><trkpt lat="39.6662017" lon="8.4778717"><ele>96.33333333333333</ele><time>2026-05-01T07:45:46.811Z</time></trkpt><trkpt lat="39.666215" lon="8.4777683"><ele>92.5</ele><time>2026-05-01T07:45:47.811Z</time></trkpt><trkpt lat="39.6662317" lon="8.4776583"><ele>88.66666666666666</ele><time>2026-05-01T07:45:48.811Z</time></trkpt><trkpt lat="39.6662483" lon="8.4775367"><ele>84.83333333333333</ele><time>2026-05-01T07:45:49.812Z</time></trkpt><trkpt lat="39.666255" lon="8.4774167"><ele>81.0</ele><time>2026-05-01T07:45:50.811Z</time></trkpt><trkpt lat="39.66626" lon="8.4773133"><ele>81.0</ele><time>2026-05-01T07:45:51.811Z</time></trkpt><trkpt lat="39.6662633" lon="8.47722"><ele>81.0</ele><time>2026-05-01T07:45:52.811Z</time></trkpt><trkpt lat="39.66628" lon="8.477125"><ele>81.0</ele><time>2026-05-01T07:45:53.811Z</time></trkpt><trkpt lat="39.6662933" lon="8.4770233"><ele>81.0</ele><time>2026-05-01T07:45:54.811Z</time></trkpt><trkpt lat="39.66631" lon="8.47692"><ele>81.0</ele><time>2026-05-01T07:45:55.811Z</time></trkpt><trkpt lat="39.666355" lon="8.4767967"><ele>81.0</ele><time>2026-05-01T07:45:56.811Z</time></trkpt><trkpt lat="39.6664067" lon="8.47666"><ele>79.8</ele><time>2026-05-01T07:45:57.811Z</time></trkpt><trkpt lat="39.6664433" lon="8.4765333"><ele>78.6</ele><time>2026-05-01T07:45:58.811Z</time></trkpt><trkpt lat="39.6664733" lon="8.4764133"><ele>77.4</ele><time>2026-05-01T07:45:59.811Z</time></trkpt><trkpt lat="39.6664967" lon="8.4762667"><ele>76.2</ele><time>2026-05-01T07:46:00.811Z</time></trkpt><trkpt lat="39.6665367" lon="8.476135"><ele>75.0</ele><time>2026-05-01T07:46:01.812Z</time></trkpt><trkpt lat="39.6665867" lon="8.4760033"><ele>73.8</ele><time>2026-05-01T07:46:02.811Z</time></trkpt><trkpt lat="39.6666283" lon="8.4758717"><ele>72.6</ele><time>2026-05-01T07:46:03.811Z</time></trkpt><trkpt lat="39.6666667" lon="8.4757433"><ele>71.4</ele><time>2026-05-01T07:46:04.812Z</time></trkpt><trkpt lat="39.6667017" lon="8.4756083"><ele>70.2</ele><time>2026-05-01T07:46:05.811Z</time></trkpt><trkpt lat="39.6667317" lon="8.4754733"><ele>69.0</ele><time>2026-05-01T07:46:06.811Z</time></trkpt><trkpt lat="39.6667717" lon="8.4753417"><ele>68.4</ele><time>2026-05-01T07:46:07.811Z</time></trkpt><trkpt lat="39.6668117" lon="8.4752183"><ele>67.80000000000001</ele><time>2026-05-01T07:46:08.812Z</time></trkpt><trkpt lat="39.6668467" lon="8.475085"><ele>67.19999999999999</ele><time>2026-05-01T07:46:09.812Z</time></trkpt><trkpt lat="39.6668867" lon="8.4749433"><ele>66.6</ele><time>2026-05-01T07:46:10.811Z</time></trkpt><trkpt lat="39.66692" lon="8.474805"><ele>66.0</ele><time>2026-05-01T07:46:11.811Z</time></trkpt><trkpt lat="39.6669467" lon="8.4746817"><ele>65.6</ele><time>2026-05-01T07:46:12.811Z</time></trkpt><trkpt lat="39.6669533" lon="8.4745633"><ele>65.19999999999999</ele><time>2026-05-01T07:46:13.812Z</time></trkpt><trkpt lat="39.66695" lon="8.47444"><ele>64.80000000000001</ele><time>2026-05-01T07:46:14.811Z</time></trkpt><trkpt lat="39.6669417" lon="8.4743083"><ele>64.4</ele><time>2026-05-01T07:46:15.811Z</time></trkpt><trkpt lat="39.666925" lon="8.4741833"><ele>64.0</ele><time>2026-05-01T07:46:16.812Z</time></trkpt><trkpt lat="39.6669133" lon="8.4740783"><ele>63.99999999999999</ele><time>2026-05-01T07:46:17.811Z</time></trkpt><trkpt lat="39.6669133" lon="8.473975"><ele>64.0</ele><time>2026-05-01T07:46:18.811Z</time></trkpt><trkpt lat="39.6669183" lon="8.4738683"><ele>64.0</ele><time>2026-05-01T07:46:19.811Z</time></trkpt><trkpt lat="39.6669283" lon="8.4737617"><ele>64.0</ele><time>2026-05-01T07:46:20.811Z</time></trkpt><trkpt lat="39.6669317" lon="8.4736667"><ele>63.99999999999999</ele><time>2026-05-01T07:46:21.811Z</time></trkpt><trkpt lat="39.6669317" lon="8.4735833"><ele>64.0</ele><time>2026-05-01T07:46:22.811Z</time></trkpt><trkpt lat="39.6669167" lon="8.47349"><ele>62.6</ele><time>2026-05-01T07:46:23.812Z</time></trkpt><trkpt lat="39.6669017" lon="8.4734"><ele>61.2</ele><time>2026-05-01T07:46:24.811Z</time></trkpt><trkpt lat="39.6668967" lon="8.4732417"><ele>59.800000000000004</ele><time>2026-05-01T07:46:26.811Z</time></trkpt><trkpt lat="39.6668867" lon="8.473155"><ele>58.400000000000006</ele><time>2026-05-01T07:46:27.811Z</time></trkpt><trkpt lat="39.6668683" lon="8.473015"><ele>57.0</ele><time>2026-05-01T07:46:29.812Z</time></trkpt><trkpt lat="39.6668867" lon="8.4728783"><ele>55.2</ele><time>2026-05-01T07:46:31.811Z</time></trkpt><trkpt lat="39.6669433" lon="8.4727683"><ele>53.400000000000006</ele><time>2026-05-01T07:46:33.811Z</time></trkpt><trkpt lat="39.66702" lon="8.472665"><ele>51.599999999999994</ele><time>2026-05-01T07:46:35.812Z</time></trkpt><trkpt lat="39.6670617" lon="8.4726033"><ele>49.8</ele><time>2026-05-01T07:46:36.811Z</time></trkpt><trkpt lat="39.6671433" lon="8.472505"><ele>48.0</ele><time>2026-05-01T07:46:38.812Z</time></trkpt><trkpt lat="39.6672317" lon="8.47245"><ele>47.5</ele><time>2026-05-01T07:46:40.812Z</time></trkpt><trkpt lat="39.6672967" lon="8.4724433"><ele>47.0</ele><time>2026-05-01T07:46:42.811Z</time></trkpt><trkpt lat="39.667355" lon="8.4724083"><ele>46.5</ele><time>2026-05-01T07:46:44.811Z</time></trkpt><trkpt lat="39.667335" lon="8.47229"><ele>46.0</ele><time>2026-05-01T07:46:47.811Z</time></trkpt><trkpt lat="39.6672367" lon="8.472195"><ele>45.5</ele><time>2026-05-01T07:46:49.812Z</time></trkpt><trkpt lat="39.6671683" lon="8.472165"><ele>45.0</ele><time>2026-05-01T07:46:50.811Z</time></trkpt><trkpt lat="39.66711" lon="8.4721317"><ele>43.2</ele><time>2026-05-01T07:46:51.811Z</time></trkpt><trkpt lat="39.66702" lon="8.47208"><ele>41.4</ele><time>2026-05-01T07:46:53.812Z</time></trkpt><trkpt lat="39.6669983" lon="8.471985"><ele>39.6</ele><time>2026-05-01T07:46:55.811Z</time></trkpt><trkpt lat="39.667015" lon="8.4718683"><ele>37.8</ele><time>2026-05-01T07:46:57.811Z</time></trkpt><trkpt lat="39.6670667" lon="8.4717117"><ele>36.0</ele><time>2026-05-01T07:46:59.811Z</time></trkpt><trkpt lat="39.66711" lon="8.47163"><ele>36.0</ele><time>2026-05-01T07:47:00.812Z</time></trkpt><trkpt lat="39.6671733" lon="8.4715583"><ele>36.0</ele><time>2026-05-01T07:47:01.812Z</time></trkpt><trkpt lat="39.6672217" lon="8.471475"><ele>36.0</ele><time>2026-05-01T07:47:02.811Z</time></trkpt><trkpt lat="39.6673133" lon="8.4713867"><ele>36.0</ele><time>2026-05-01T07:47:04.811Z</time></trkpt><trkpt lat="39.6674167" lon="8.471335"><ele>36.0</ele><time>2026-05-01T07:47:06.812Z</time></trkpt><trkpt lat="39.66748" lon="8.471225"><ele>35.666666666666664</ele><time>2026-05-01T07:47:08.812Z</time></trkpt><trkpt lat="39.6675233" lon="8.4711383"><ele>35.333333333333336</ele><time>2026-05-01T07:47:09.811Z</time></trkpt><trkpt lat="39.6676117" lon="8.4710267"><ele>35.0</ele><time>2026-05-01T07:47:11.811Z</time></trkpt><trkpt lat="39.6677167" lon="8.4709617"><ele>34.66666666666667</ele><time>2026-05-01T07:47:13.811Z</time></trkpt><trkpt lat="39.66778" lon="8.47096"><ele>34.333333333333336</ele><time>2026-05-01T07:47:14.811Z</time></trkpt><trkpt lat="39.667845" lon="8.47097"><ele>34.0</ele><time>2026-05-01T07:47:15.811Z</time></trkpt><trkpt lat="39.66791" lon="8.4709817"><ele>35.0</ele><time>2026-05-01T07:47:16.812Z</time></trkpt><trkpt lat="39.6680117" lon="8.4709367"><ele>36.0</ele><time>2026-05-01T07:47:18.811Z</time></trkpt><trkpt lat="39.6680917" lon="8.4708283"><ele>37.0</ele><time>2026-05-01T07:47:20.812Z</time></trkpt><trkpt lat="39.6681267" lon="8.4707233"><ele>38.0</ele><time>2026-05-01T07:47:21.811Z</time></trkpt><trkpt lat="39.6681567" lon="8.4706"><ele>39.0</ele><time>2026-05-01T07:47:22.812Z</time></trkpt><trkpt lat="39.6681733" lon="8.4705"><ele>38.8</ele><time>2026-05-01T07:47:23.812Z</time></trkpt><trkpt lat="39.66821" lon="8.4703917"><ele>38.599999999999994</ele><time>2026-05-01T07:47:24.811Z</time></trkpt><trkpt lat="39.668255" lon="8.4702917"><ele>38.4</ele><time>2026-05-01T07:47:25.811Z</time></trkpt><trkpt lat="39.6683133" lon="8.47018"><ele>38.199999999999996</ele><time>2026-05-01T07:47:26.812Z</time></trkpt><trkpt lat="39.6683917" lon="8.47006"><ele>38.0</ele><time>2026-05-01T07:47:27.811Z</time></trkpt><trkpt lat="39.668455" lon="8.4699483"><ele>38.0</ele><time>2026-05-01T07:47:28.812Z</time></trkpt><trkpt lat="39.6685267" lon="8.4698467"><ele>38.0</ele><time>2026-05-01T07:47:29.811Z</time></trkpt><trkpt lat="39.6686067" lon="8.4697517"><ele>38.0</ele><time>2026-05-01T07:47:30.811Z</time></trkpt><trkpt lat="39.6686867" lon="8.4696483"><ele>38.0</ele><time>2026-05-01T07:47:31.812Z</time></trkpt><trkpt lat="39.6687733" lon="8.4695483"><ele>38.0</ele><time>2026-05-01T07:47:32.811Z</time></trkpt><trkpt lat="39.6688533" lon="8.46944"><ele>38.4</ele><time>2026-05-01T07:47:33.811Z</time></trkpt><trkpt lat="39.6689167" lon="8.469345"><ele>38.8</ele><time>2026-05-01T07:47:34.812Z</time></trkpt><trkpt lat="39.6689733" lon="8.469255"><ele>39.2</ele><time>2026-05-01T07:47:35.812Z</time></trkpt><trkpt lat="39.6690367" lon="8.46916"><ele>39.6</ele><time>2026-05-01T07:47:36.811Z</time></trkpt><trkpt lat="39.669115" lon="8.469065"><ele>40.0</ele><time>2026-05-01T07:47:37.811Z</time></trkpt><trkpt lat="39.6691933" lon="8.46897"><ele>40.0</ele><time>2026-05-01T07:47:38.811Z</time></trkpt><trkpt lat="39.6692783" lon="8.46888"><ele>40.0</ele><time>2026-05-01T07:47:39.811Z</time></trkpt><trkpt lat="39.6693667" lon="8.4687933"><ele>40.0</ele><time>2026-05-01T07:47:40.811Z</time></trkpt><trkpt lat="39.6694433" lon="8.4687133"><ele>40.0</ele><time>2026-05-01T07:47:41.811Z</time></trkpt><trkpt lat="39.6695133" lon="8.4686367"><ele>40.0</ele><time>2026-05-01T07:47:42.811Z</time></trkpt><trkpt lat="39.6695783" lon="8.46858"><ele>39.5</ele><time>2026-05-01T07:47:43.812Z</time></trkpt><trkpt lat="39.6696417" lon="8.46853"><ele>39.0</ele><time>2026-05-01T07:47:44.812Z</time></trkpt><trkpt lat="39.6697167" lon="8.4685017"><ele>38.5</ele><time>2026-05-01T07:47:45.812Z</time></trkpt><trkpt lat="39.6697883" lon="8.4684783"><ele>38.0</ele><time>2026-05-01T07:47:46.812Z</time></trkpt><trkpt lat="39.6698583" lon="8.4684483"><ele>37.5</ele><time>2026-05-01T07:47:47.811Z</time></trkpt><trkpt lat="39.66991" lon="8.4683983"><ele>37.0</ele><time>2026-05-01T07:47:48.811Z</time></trkpt><trkpt lat="39.6699967" lon="8.4682383"><ele>37.0</ele><time>2026-05-01T07:47:50.811Z</time></trkpt><trkpt lat="39.6700483" lon="8.4681133"><ele>37.0</ele><time>2026-05-01T07:47:51.811Z</time></trkpt><trkpt lat="39.670105" lon="8.4679833"><ele>37.0</ele><time>2026-05-01T07:47:52.812Z</time></trkpt><trkpt lat="39.6701683" lon="8.4678717"><ele>37.0</ele><time>2026-05-01T07:47:53.812Z</time></trkpt><trkpt lat="39.6702183" lon="8.4677867"><ele>37.0</ele><time>2026-05-01T07:47:54.812Z</time></trkpt><trkpt lat="39.6702617" lon="8.4677267"><ele>37.0</ele><time>2026-05-01T07:47:55.812Z</time></trkpt><trkpt lat="39.67027" lon="8.4675933"><ele>37.0</ele><time>2026-05-01T07:47:57.812Z</time></trkpt><trkpt lat="39.6701817" lon="8.4674967"><ele>37.0</ele><time>2026-05-01T07:47:59.811Z</time></trkpt><trkpt lat="39.6700833" lon="8.4674367"><ele>37.0</ele><time>2026-05-01T07:48:00.812Z</time></trkpt><trkpt lat="39.6699733" lon="8.467375"><ele>37.0</ele><time>2026-05-01T07:48:01.811Z</time></trkpt><trkpt lat="39.669855" lon="8.4673033"><ele>37.0</ele><time>2026-05-01T07:48:02.811Z</time></trkpt><trkpt lat="39.6697367" lon="8.4672283"><ele>37.0</ele><time>2026-05-01T07:48:03.811Z</time></trkpt><trkpt lat="39.6696283" lon="8.4671717"><ele>37.0</ele><time>2026-05-01T07:48:04.812Z</time></trkpt><trkpt lat="39.6695167" lon="8.4671167"><ele>37.0</ele><time>2026-05-01T07:48:05.811Z</time></trkpt><trkpt lat="39.6694117" lon="8.46707"><ele>35.2</ele><time>2026-05-01T07:48:06.812Z</time></trkpt><trkpt lat="39.66931" lon="8.467025"><ele>33.400000000000006</ele><time>2026-05-01T07:48:07.811Z</time></trkpt><trkpt lat="39.669205" lon="8.46697"><ele>31.599999999999998</ele><time>2026-05-01T07:48:08.812Z</time></trkpt><trkpt lat="39.66911" lon="8.4668933"><ele>29.799999999999997</ele><time>2026-05-01T07:48:09.811Z</time></trkpt><trkpt lat="39.669035" lon="8.4668133"><ele>28.0</ele><time>2026-05-01T07:48:10.811Z</time></trkpt><trkpt lat="39.6689733" lon="8.46672"><ele>28.0</ele><time>2026-05-01T07:48:11.812Z</time></trkpt><trkpt lat="39.6689267" lon="8.46662"><ele>27.999999999999996</ele><time>2026-05-01T07:48:12.812Z</time></trkpt><trkpt lat="39.6688833" lon="8.4665083"><ele>27.999999999999996</ele><time>2026-05-01T07:48:13.812Z</time></trkpt><trkpt lat="39.668845" lon="8.4663667"><ele>28.0</ele><time>2026-05-01T07:48:14.811Z</time></trkpt><trkpt lat="39.6688167" lon="8.4662317"><ele>28.0</ele><time>2026-05-01T07:48:15.811Z</time></trkpt><trkpt lat="39.6687983" lon="8.4660783"><ele>28.0</ele><time>2026-05-01T07:48:16.811Z</time></trkpt><trkpt lat="39.6687767" lon="8.46592"><ele>27.999999999999996</ele><time>2026-05-01T07:48:17.812Z</time></trkpt><trkpt lat="39.6687533" lon="8.4657833"><ele>27.999999999999996</ele><time>2026-05-01T07:48:18.811Z</time></trkpt><trkpt lat="39.6687383" lon="8.4656683"><ele>28.0</ele><time>2026-05-01T07:48:19.811Z</time></trkpt><trkpt lat="39.6687317" lon="8.4655783"><ele>28.0</ele><time>2026-05-01T07:48:20.812Z</time></trkpt><trkpt lat="39.6687283" lon="8.4654717"><ele>27.4</ele><time>2026-05-01T07:48:22.811Z</time></trkpt><trkpt lat="39.6686367" lon="8.4654067"><ele>26.799999999999997</ele><time>2026-05-01T07:48:25.81Z</time></trkpt><trkpt lat="39.6685733" lon="8.46538"><ele>26.2</ele><time>2026-05-01T07:48:26.81Z</time></trkpt><trkpt lat="39.66849" lon="8.4653317"><ele>25.6</ele><time>2026-05-01T07:48:27.81Z</time></trkpt><trkpt lat="39.668415" lon="8.4652517"><ele>25.0</ele><time>2026-05-01T07:48:28.811Z</time></trkpt><trkpt lat="39.668355" lon="8.465135"><ele>24.75</ele><time>2026-05-01T07:48:29.81Z</time></trkpt><trkpt lat="39.6683167" lon="8.4649967"><ele>24.5</ele><time>2026-05-01T07:48:30.81Z</time></trkpt><trkpt lat="39.6683017" lon="8.4648483"><ele>24.25</ele><time>2026-05-01T07:48:31.81Z</time></trkpt><trkpt lat="39.6683183" lon="8.46469"><ele>24.0</ele><time>2026-05-01T07:48:32.811Z</time></trkpt><trkpt lat="39.66835" lon="8.4645283"><ele>25.0</ele><time>2026-05-01T07:48:33.81Z</time></trkpt><trkpt lat="39.6683883" lon="8.4643517"><ele>26.0</ele><time>2026-05-01T07:48:34.81Z</time></trkpt><trkpt lat="39.6684317" lon="8.464155"><ele>27.0</ele><time>2026-05-01T07:48:35.81Z</time></trkpt><trkpt lat="39.66848" lon="8.463945"><ele>29.333333333333336</ele><time>2026-05-01T07:48:36.811Z</time></trkpt><trkpt lat="39.6685217" lon="8.4637333"><ele>31.666666666666668</ele><time>2026-05-01T07:48:37.811Z</time></trkpt><trkpt lat="39.66857" lon="8.4635317"><ele>34.0</ele><time>2026-05-01T07:48:38.811Z</time></trkpt><trkpt lat="39.668625" lon="8.463345"><ele>30.25</ele><time>2026-05-01T07:48:39.81Z</time></trkpt><trkpt lat="39.6686567" lon="8.4631667"><ele>26.5</ele><time>2026-05-01T07:48:40.811Z</time></trkpt><trkpt lat="39.6686917" lon="8.4629983"><ele>22.75</ele><time>2026-05-01T07:48:41.81Z</time></trkpt><trkpt lat="39.6687267" lon="8.4628283"><ele>19.0</ele><time>2026-05-01T07:48:42.81Z</time></trkpt><trkpt lat="39.6687583" lon="8.4626533"><ele>19.0</ele><time>2026-05-01T07:48:43.811Z</time></trkpt><trkpt lat="39.6687817" lon="8.46247"><ele>19.0</ele><time>2026-05-01T07:48:44.81Z</time></trkpt><trkpt lat="39.6688017" lon="8.462285"><ele>19.0</ele><time>2026-05-01T07:48:45.811Z</time></trkpt><trkpt lat="39.6688067" lon="8.4620933"><ele>19.0</ele><time>2026-05-01T07:48:46.81Z</time></trkpt><trkpt lat="39.66879" lon="8.4619083"><ele>18.25</ele><time>2026-05-01T07:48:47.81Z</time></trkpt><trkpt lat="39.6687533" lon="8.461745"><ele>17.5</ele><time>2026-05-01T07:48:48.81Z</time></trkpt><trkpt lat="39.6686933" lon="8.4616083"><ele>16.75</ele><time>2026-05-01T07:48:49.811Z</time></trkpt><trkpt lat="39.66862" lon="8.46149"><ele>16.0</ele><time>2026-05-01T07:48:50.81Z</time></trkpt><trkpt lat="39.6685233" lon="8.4613717"><ele>16.75</ele><time>2026-05-01T07:48:51.81Z</time></trkpt><trkpt lat="39.668415" lon="8.4612633"><ele>17.5</ele><time>2026-05-01T07:48:52.81Z</time></trkpt><trkpt lat="39.6683017" lon="8.4611533"><ele>18.25</ele><time>2026-05-01T07:48:53.81Z</time></trkpt><trkpt lat="39.668185" lon="8.4610417"><ele>19.0</ele><time>2026-05-01T07:48:54.811Z</time></trkpt><trkpt lat="39.6680733" lon="8.4609333"><ele>19.0</ele><time>2026-05-01T07:48:55.81Z</time></trkpt><trkpt lat="39.6679667" lon="8.46085"><ele>19.0</ele><time>2026-05-01T07:48:56.81Z</time></trkpt><trkpt lat="39.667865" lon="8.4608117"><ele>19.0</ele><time>2026-05-01T07:48:57.81Z</time></trkpt><trkpt lat="39.6677683" lon="8.46081"><ele>19.0</ele><time>2026-05-01T07:48:58.81Z</time></trkpt><trkpt lat="39.66767" lon="8.4608417"><ele>19.0</ele><time>2026-05-01T07:48:59.81Z</time></trkpt><trkpt lat="39.66758" lon="8.46092"><ele>21.75</ele><time>2026-05-01T07:49:00.811Z</time></trkpt><trkpt lat="39.6675017" lon="8.46103"><ele>24.5</ele><time>2026-05-01T07:49:01.81Z</time></trkpt><trkpt lat="39.6674283" lon="8.46116"><ele>27.25</ele><time>2026-05-01T07:49:02.811Z</time></trkpt><trkpt lat="39.6673683" lon="8.4613083"><ele>30.0</ele><time>2026-05-01T07:49:03.81Z</time></trkpt><trkpt lat="39.6673217" lon="8.46147"><ele>34.5</ele><time>2026-05-01T07:49:04.81Z</time></trkpt><trkpt lat="39.6672917" lon="8.4616383"><ele>39.0</ele><time>2026-05-01T07:49:05.81Z</time></trkpt><trkpt lat="39.667285" lon="8.46182"><ele>43.5</ele><time>2026-05-01T07:49:06.81Z</time></trkpt><trkpt lat="39.667295" lon="8.4620183"><ele>48.0</ele><time>2026-05-01T07:49:07.81Z</time></trkpt><trkpt lat="39.6673133" lon="8.4622133"><ele>48.75</ele><time>2026-05-01T07:49:08.811Z</time></trkpt><trkpt lat="39.6673283" lon="8.462395"><ele>49.5</ele><time>2026-05-01T07:49:09.81Z</time></trkpt><trkpt lat="39.6673417" lon="8.4625483"><ele>50.25</ele><time>2026-05-01T07:49:10.81Z</time></trkpt><trkpt lat="39.667355" lon="8.46269"><ele>51.0</ele><time>2026-05-01T07:49:11.81Z</time></trkpt><trkpt lat="39.66737" lon="8.4628333"><ele>51.199999999999996</ele><time>2026-05-01T07:49:12.81Z</time></trkpt><trkpt lat="39.6673867" lon="8.4629683"><ele>51.4</ele><time>2026-05-01T07:49:13.81Z</time></trkpt><trkpt lat="39.6674017" lon="8.4631017"><ele>51.6</ele><time>2026-05-01T07:49:14.81Z</time></trkpt><trkpt lat="39.6674133" lon="8.4632333"><ele>51.8</ele><time>2026-05-01T07:49:15.81Z</time></trkpt><trkpt lat="39.6674233" lon="8.4633567"><ele>52.0</ele><time>2026-05-01T07:49:16.811Z</time></trkpt><trkpt lat="39.6674317" lon="8.4634817"><ele>52.0</ele><time>2026-05-01T07:49:17.81Z</time></trkpt><trkpt lat="39.66744" lon="8.4636033"><ele>52.0</ele><time>2026-05-01T07:49:18.81Z</time></trkpt><trkpt lat="39.6674517" lon="8.4637267"><ele>52.0</ele><time>2026-05-01T07:49:19.811Z</time></trkpt><trkpt lat="39.6674617" lon="8.46385"><ele>52.0</ele><time>2026-05-01T07:49:20.81Z</time></trkpt><trkpt lat="39.6674667" lon="8.463965"><ele>52.0</ele><time>2026-05-01T07:49:21.81Z</time></trkpt><trkpt lat="39.66747" lon="8.4640817"><ele>52.2</ele><time>2026-05-01T07:49:22.811Z</time></trkpt><trkpt lat="39.6674783" lon="8.4641967"><ele>52.400000000000006</ele><time>2026-05-01T07:49:23.811Z</time></trkpt><trkpt lat="39.6674733" lon="8.4643"><ele>52.599999999999994</ele><time>2026-05-01T07:49:24.81Z</time></trkpt><trkpt lat="39.667465" lon="8.4644133"><ele>52.8</ele><time>2026-05-01T07:49:25.81Z</time></trkpt><trkpt lat="39.6674483" lon="8.464535"><ele>53.0</ele><time>2026-05-01T07:49:26.81Z</time></trkpt><trkpt lat="39.66741" lon="8.4646633"><ele>52.599999999999994</ele><time>2026-05-01T07:49:27.81Z</time></trkpt><trkpt lat="39.6673583" lon="8.4647883"><ele>52.199999999999996</ele><time>2026-05-01T07:49:28.81Z</time></trkpt><trkpt lat="39.6672967" lon="8.4649133"><ele>51.8</ele><time>2026-05-01T07:49:29.81Z</time></trkpt><trkpt lat="39.6672267" lon="8.46502"><ele>51.4</ele><time>2026-05-01T07:49:30.81Z</time></trkpt><trkpt lat="39.6671533" lon="8.4651233"><ele>51.0</ele><time>2026-05-01T07:49:31.81Z</time></trkpt><trkpt lat="39.667085" lon="8.4652233"><ele>51.0</ele><time>2026-05-01T07:49:32.811Z</time></trkpt><trkpt lat="39.667015" lon="8.4653167"><ele>51.0</ele><time>2026-05-01T07:49:33.81Z</time></trkpt><trkpt lat="39.66694" lon="8.4654117"><ele>51.0</ele><time>2026-05-01T07:49:34.81Z</time></trkpt><trkpt lat="39.6668617" lon="8.46552"><ele>51.0</ele><time>2026-05-01T07:49:35.81Z</time></trkpt><trkpt lat="39.66678" lon="8.465635"><ele>51.0</ele><time>2026-05-01T07:49:36.811Z</time></trkpt><trkpt lat="39.6667" lon="8.4657567"><ele>57.5</ele><time>2026-05-01T07:49:37.81Z</time></trkpt><trkpt lat="39.6666167" lon="8.4658817"><ele>64.0</ele><time>2026-05-01T07:49:38.81Z</time></trkpt><trkpt lat="39.6665283" lon="8.4660033"><ele>70.5</ele><time>2026-05-01T07:49:39.81Z</time></trkpt><trkpt lat="39.6664383" lon="8.4661283"><ele>77.0</ele><time>2026-05-01T07:49:40.81Z</time></trkpt><trkpt lat="39.6663433" lon="8.4662633"><ele>79.25</ele><time>2026-05-01T07:49:41.81Z</time></trkpt><trkpt lat="39.6662483" lon="8.466395"><ele>81.5</ele><time>2026-05-01T07:49:42.81Z</time></trkpt><trkpt lat="39.6661567" lon="8.46652"><ele>83.75</ele><time>2026-05-01T07:49:43.811Z</time></trkpt><trkpt lat="39.6660667" lon="8.46665"><ele>86.0</ele><time>2026-05-01T07:49:44.81Z</time></trkpt><trkpt lat="39.6659833" lon="8.4667783"><ele>86.0</ele><time>2026-05-01T07:49:45.811Z</time></trkpt><trkpt lat="39.6659" lon="8.4668967"><ele>86.0</ele><time>2026-05-01T07:49:46.811Z</time></trkpt><trkpt lat="39.6658233" lon="8.467015"><ele>86.0</ele><time>2026-05-01T07:49:47.81Z</time></trkpt><trkpt lat="39.66574" lon="8.4671317"><ele>86.0</ele><time>2026-05-01T07:49:48.811Z</time></trkpt><trkpt lat="39.66566" lon="8.46725"><ele>83.0</ele><time>2026-05-01T07:49:49.81Z</time></trkpt><trkpt lat="39.6655783" lon="8.4673733"><ele>80.0</ele><time>2026-05-01T07:49:50.811Z</time></trkpt><trkpt lat="39.6654933" lon="8.467495"><ele>77.0</ele><time>2026-05-01T07:49:51.81Z</time></trkpt><trkpt lat="39.6654017" lon="8.4676167"><ele>74.0</ele><time>2026-05-01T07:49:52.811Z</time></trkpt><trkpt lat="39.665305" lon="8.467735"><ele>77.0</ele><time>2026-05-01T07:49:53.81Z</time></trkpt><trkpt lat="39.6652083" lon="8.46785"><ele>80.0</ele><time>2026-05-01T07:49:54.81Z</time></trkpt><trkpt lat="39.6651133" lon="8.4679533"><ele>83.0</ele><time>2026-05-01T07:49:55.811Z</time></trkpt><trkpt lat="39.6650267" lon="8.4680517"><ele>86.0</ele><time>2026-05-01T07:49:56.81Z</time></trkpt><trkpt lat="39.6649467" lon="8.4681517"><ele>86.0</ele><time>2026-05-01T07:49:57.811Z</time></trkpt><trkpt lat="39.6648733" lon="8.4682517"><ele>86.0</ele><time>2026-05-01T07:49:58.81Z</time></trkpt><trkpt lat="39.66481" lon="8.4683483"><ele>86.0</ele><time>2026-05-01T07:49:59.811Z</time></trkpt><trkpt lat="39.6647433" lon="8.468455"><ele>86.0</ele><time>2026-05-01T07:50:00.811Z</time></trkpt><trkpt lat="39.6646783" lon="8.468565"><ele>86.0</ele><time>2026-05-01T07:50:01.81Z</time></trkpt><trkpt lat="39.66462" lon="8.4686783"><ele>85.4</ele><time>2026-05-01T07:50:02.81Z</time></trkpt><trkpt lat="39.66456" lon="8.4687917"><ele>84.8</ele><time>2026-05-01T07:50:03.81Z</time></trkpt><trkpt lat="39.6644967" lon="8.468895"><ele>84.2</ele><time>2026-05-01T07:50:04.81Z</time></trkpt><trkpt lat="39.6644367" lon="8.46899"><ele>83.60000000000001</ele><time>2026-05-01T07:50:05.81Z</time></trkpt><trkpt lat="39.6643783" lon="8.469085"><ele>83.0</ele><time>2026-05-01T07:50:06.811Z</time></trkpt><trkpt lat="39.6643217" lon="8.46919"><ele>87.60000000000001</ele><time>2026-05-01T07:50:07.81Z</time></trkpt><trkpt lat="39.66426" lon="8.46929"><ele>92.2</ele><time>2026-05-01T07:50:08.81Z</time></trkpt><trkpt lat="39.6642017" lon="8.46939"><ele>96.8</ele><time>2026-05-01T07:50:09.81Z</time></trkpt><trkpt lat="39.6641433" lon="8.469485"><ele>101.4</ele><time>2026-05-01T07:50:10.81Z</time></trkpt><trkpt lat="39.6640917" lon="8.4695883"><ele>106.0</ele><time>2026-05-01T07:50:11.811Z</time></trkpt><trkpt lat="39.6640517" lon="8.4696883"><ele>106.19999999999999</ele><time>2026-05-01T07:50:12.81Z</time></trkpt><trkpt lat="39.6640217" lon="8.4697933"><ele>106.39999999999999</ele><time>2026-05-01T07:50:13.81Z</time></trkpt><trkpt lat="39.6640033" lon="8.469905"><ele>106.6</ele><time>2026-05-01T07:50:14.81Z</time></trkpt><trkpt lat="39.66399" lon="8.4700233"><ele>106.8</ele><time>2026-05-01T07:50:15.811Z</time></trkpt><trkpt lat="39.66399" lon="8.470155"><ele>107.0</ele><time>2026-05-01T07:50:16.81Z</time></trkpt><trkpt lat="39.6640067" lon="8.4702867"><ele>107.0</ele><time>2026-05-01T07:50:17.81Z</time></trkpt><trkpt lat="39.664035" lon="8.47041"><ele>106.99999999999999</ele><time>2026-05-01T07:50:18.81Z</time></trkpt><trkpt lat="39.6640783" lon="8.4705367"><ele>106.99999999999999</ele><time>2026-05-01T07:50:19.81Z</time></trkpt><trkpt lat="39.6641283" lon="8.4706633"><ele>107.0</ele><time>2026-05-01T07:50:20.81Z</time></trkpt><trkpt lat="39.6641733" lon="8.470795"><ele>107.0</ele><time>2026-05-01T07:50:21.811Z</time></trkpt><trkpt lat="39.6641933" lon="8.4709233"><ele>107.8</ele><time>2026-05-01T07:50:22.81Z</time></trkpt><trkpt lat="39.6641933" lon="8.4710517"><ele>108.6</ele><time>2026-05-01T07:50:23.81Z</time></trkpt><trkpt lat="39.6641633" lon="8.47117"><ele>109.39999999999999</ele><time>2026-05-01T07:50:24.81Z</time></trkpt><trkpt lat="39.6641283" lon="8.4712917"><ele>110.19999999999999</ele><time>2026-05-01T07:50:25.811Z</time></trkpt><trkpt lat="39.6641" lon="8.4714117"><ele>111.0</ele><time>2026-05-01T07:50:26.811Z</time></trkpt><trkpt lat="39.6640733" lon="8.4715267"><ele>111.4</ele><time>2026-05-01T07:50:27.81Z</time></trkpt><trkpt lat="39.6640483" lon="8.4716367"><ele>111.8</ele><time>2026-05-01T07:50:28.81Z</time></trkpt><trkpt lat="39.66403" lon="8.47175"><ele>112.20000000000002</ele><time>2026-05-01T07:50:29.811Z</time></trkpt><trkpt lat="39.6640217" lon="8.47187"><ele>112.60000000000001</ele><time>2026-05-01T07:50:30.81Z</time></trkpt><trkpt lat="39.66403" lon="8.4720067"><ele>113.0</ele><time>2026-05-01T07:50:31.811Z</time></trkpt><trkpt lat="39.664055" lon="8.472145"><ele>113.4</ele><time>2026-05-01T07:50:32.81Z</time></trkpt><trkpt lat="39.6640817" lon="8.4722733"><ele>113.80000000000001</ele><time>2026-05-01T07:50:33.811Z</time></trkpt><trkpt lat="39.664105" lon="8.4724017"><ele>114.2</ele><time>2026-05-01T07:50:34.81Z</time></trkpt><trkpt lat="39.664105" lon="8.4725267"><ele>114.6</ele><time>2026-05-01T07:50:35.811Z</time></trkpt><trkpt lat="39.6640883" lon="8.4726467"><ele>115.0</ele><time>2026-05-01T07:50:36.81Z</time></trkpt><trkpt lat="39.6640517" lon="8.47275"><ele>115.0</ele><time>2026-05-01T07:50:37.81Z</time></trkpt><trkpt lat="39.6640017" lon="8.47284"><ele>115.0</ele><time>2026-05-01T07:50:38.81Z</time></trkpt><trkpt lat="39.663935" lon="8.4729083"><ele>115.0</ele><time>2026-05-01T07:50:39.81Z</time></trkpt><trkpt lat="39.6638533" lon="8.4729667"><ele>115.0</ele><time>2026-05-01T07:50:40.81Z</time></trkpt><trkpt lat="39.6637533" lon="8.4730083"><ele>115.0</ele><time>2026-05-01T07:50:41.81Z</time></trkpt><trkpt lat="39.6636383" lon="8.473045"><ele>118.5</ele><time>2026-05-01T07:50:42.81Z</time></trkpt><trkpt lat="39.6635167" lon="8.4730767"><ele>122.0</ele><time>2026-05-01T07:50:43.81Z</time></trkpt><trkpt lat="39.663395" lon="8.473105"><ele>125.5</ele><time>2026-05-01T07:50:44.81Z</time></trkpt><trkpt lat="39.663275" lon="8.4731267"><ele>129.0</ele><time>2026-05-01T07:50:45.81Z</time></trkpt><trkpt lat="39.6631617" lon="8.4731467"><ele>129.0</ele><time>2026-05-01T07:50:46.811Z</time></trkpt><trkpt lat="39.6630533" lon="8.4731717"><ele>129.0</ele><time>2026-05-01T07:50:47.81Z</time></trkpt><trkpt lat="39.66294" lon="8.4732033"><ele>129.0</ele><time>2026-05-01T07:50:48.81Z</time></trkpt><trkpt lat="39.6628283" lon="8.47324"><ele>129.0</ele><time>2026-05-01T07:50:49.81Z</time></trkpt><trkpt lat="39.6627133" lon="8.473285"><ele>130.75</ele><time>2026-05-01T07:50:50.81Z</time></trkpt><trkpt lat="39.6626017" lon="8.4733383"><ele>132.5</ele><time>2026-05-01T07:50:51.811Z</time></trkpt><trkpt lat="39.6624867" lon="8.4733933"><ele>134.25</ele><time>2026-05-01T07:50:52.81Z</time></trkpt><trkpt lat="39.6623733" lon="8.4734583"><ele>136.0</ele><time>2026-05-01T07:50:53.81Z</time></trkpt><trkpt lat="39.6622567" lon="8.4735167"><ele>136.0</ele><time>2026-05-01T07:50:54.81Z</time></trkpt><trkpt lat="39.662135" lon="8.4735817"><ele>136.0</ele><time>2026-05-01T07:50:55.81Z</time></trkpt><trkpt lat="39.6620067" lon="8.4736383"><ele>136.0</ele><time>2026-05-01T07:50:56.81Z</time></trkpt><trkpt lat="39.661875" lon="8.47371"><ele>136.0</ele><time>2026-05-01T07:50:57.81Z</time></trkpt><trkpt lat="39.6617367" lon="8.47377"><ele>133.33333333333334</ele><time>2026-05-01T07:50:58.811Z</time></trkpt><trkpt lat="39.6615967" lon="8.4738417"><ele>130.66666666666666</ele><time>2026-05-01T07:50:59.81Z</time></trkpt><trkpt lat="39.6614533" lon="8.47391"><ele>128.0</ele><time>2026-05-01T07:51:00.81Z</time></trkpt><trkpt lat="39.661305" lon="8.4739767"><ele>128.0</ele><time>2026-05-01T07:51:01.81Z</time></trkpt><trkpt lat="39.661155" lon="8.4740417"><ele>128.0</ele><time>2026-05-01T07:51:02.81Z</time></trkpt><trkpt lat="39.6610083" lon="8.4741017"><ele>128.0</ele><time>2026-05-01T07:51:03.81Z</time></trkpt><trkpt lat="39.6608683" lon="8.4741617"><ele>126.0</ele><time>2026-05-01T07:51:04.811Z</time></trkpt><trkpt lat="39.660725" lon="8.4742267"><ele>124.0</ele><time>2026-05-01T07:51:05.81Z</time></trkpt><trkpt lat="39.6605817" lon="8.4742967"><ele>122.0</ele><time>2026-05-01T07:51:06.81Z</time></trkpt><trkpt lat="39.660435" lon="8.4743667"><ele>122.0</ele><time>2026-05-01T07:51:07.81Z</time></trkpt><trkpt lat="39.6602917" lon="8.4744367"><ele>122.0</ele><time>2026-05-01T07:51:08.811Z</time></trkpt><trkpt lat="39.6601483" lon="8.474505"><ele>122.0</ele><time>2026-05-01T07:51:09.81Z</time></trkpt><trkpt lat="39.6600083" lon="8.4745817"><ele>122.66666666666666</ele><time>2026-05-01T07:51:10.81Z</time></trkpt><trkpt lat="39.6598683" lon="8.4746517"><ele>123.33333333333334</ele><time>2026-05-01T07:51:11.81Z</time></trkpt><trkpt lat="39.6597267" lon="8.4747117"><ele>124.0</ele><time>2026-05-01T07:51:12.81Z</time></trkpt><trkpt lat="39.659585" lon="8.4747817"><ele>123.33333333333334</ele><time>2026-05-01T07:51:13.81Z</time></trkpt><trkpt lat="39.65944" lon="8.4748483"><ele>122.66666666666666</ele><time>2026-05-01T07:51:14.81Z</time></trkpt><trkpt lat="39.6592933" lon="8.4749267"><ele>122.0</ele><time>2026-05-01T07:51:15.811Z</time></trkpt><trkpt lat="39.6591483" lon="8.4749933"><ele>122.0</ele><time>2026-05-01T07:51:16.81Z</time></trkpt><trkpt lat="39.6590117" lon="8.4750617"><ele>122.0</ele><time>2026-05-01T07:51:17.809Z</time></trkpt><trkpt lat="39.6588667" lon="8.475125"><ele>122.0</ele><time>2026-05-01T07:51:18.809Z</time></trkpt><trkpt lat="39.65872" lon="8.4751917"><ele>123.0</ele><time>2026-05-01T07:51:19.809Z</time></trkpt><trkpt lat="39.6585733" lon="8.4752583"><ele>124.0</ele><time>2026-05-01T07:51:20.809Z</time></trkpt><trkpt lat="39.6584267" lon="8.47533"><ele>125.0</ele><time>2026-05-01T07:51:21.809Z</time></trkpt><trkpt lat="39.658285" lon="8.4754067"><ele>124.5</ele><time>2026-05-01T07:51:22.81Z</time></trkpt><trkpt lat="39.6581467" lon="8.4754683"><ele>124.0</ele><time>2026-05-01T07:51:23.81Z</time></trkpt><trkpt lat="39.65801" lon="8.475535"><ele>123.5</ele><time>2026-05-01T07:51:24.81Z</time></trkpt><trkpt lat="39.657875" lon="8.475605"><ele>123.0</ele><time>2026-05-01T07:51:25.809Z</time></trkpt><trkpt lat="39.65774" lon="8.4756667"><ele>126.25</ele><time>2026-05-01T07:51:26.809Z</time></trkpt><trkpt lat="39.6576017" lon="8.47573"><ele>129.5</ele><time>2026-05-01T07:51:27.809Z</time></trkpt><trkpt lat="39.65746" lon="8.475795"><ele>132.75</ele><time>2026-05-01T07:51:28.809Z</time></trkpt><trkpt lat="39.65732" lon="8.4758667"><ele>136.0</ele><time>2026-05-01T07:51:29.809Z</time></trkpt><trkpt lat="39.65718" lon="8.475955"><ele>136.0</ele><time>2026-05-01T07:51:30.809Z</time></trkpt><trkpt lat="39.657045" lon="8.47606"><ele>136.0</ele><time>2026-05-01T07:51:31.809Z</time></trkpt><trkpt lat="39.6569133" lon="8.4761717"><ele>136.0</ele><time>2026-05-01T07:51:32.81Z</time></trkpt><trkpt lat="39.6567917" lon="8.476285"><ele>137.75</ele><time>2026-05-01T07:51:33.809Z</time></trkpt><trkpt lat="39.656675" lon="8.47639"><ele>139.5</ele><time>2026-05-01T07:51:34.809Z</time></trkpt><trkpt lat="39.6565583" lon="8.4764667"><ele>141.25</ele><time>2026-05-01T07:51:35.809Z</time></trkpt><trkpt lat="39.65645" lon="8.4765033"><ele>143.0</ele><time>2026-05-01T07:51:36.81Z</time></trkpt><trkpt lat="39.65634" lon="8.4764983"><ele>143.0</ele><time>2026-05-01T07:51:37.809Z</time></trkpt><trkpt lat="39.65623" lon="8.4764417"><ele>143.0</ele><time>2026-05-01T07:51:38.81Z</time></trkpt><trkpt lat="39.6561317" lon="8.4763333"><ele>143.0</ele><time>2026-05-01T07:51:39.809Z</time></trkpt><trkpt lat="39.65605" lon="8.4761983"><ele>143.0</ele><time>2026-05-01T07:51:40.81Z</time></trkpt><trkpt lat="39.6559717" lon="8.4760367"><ele>141.75</ele><time>2026-05-01T07:51:41.81Z</time></trkpt><trkpt lat="39.6559083" lon="8.4758583"><ele>140.5</ele><time>2026-05-01T07:51:42.809Z</time></trkpt><trkpt lat="39.65585" lon="8.475685"><ele>139.25</ele><time>2026-05-01T07:51:43.81Z</time></trkpt><trkpt lat="39.6557733" lon="8.4755283"><ele>138.0</ele><time>2026-05-01T07:51:44.809Z</time></trkpt><trkpt lat="39.6556733" lon="8.4754033"><ele>135.75</ele><time>2026-05-01T07:51:45.809Z</time></trkpt><trkpt lat="39.6555633" lon="8.4753183"><ele>133.5</ele><time>2026-05-01T07:51:46.809Z</time></trkpt><trkpt lat="39.6554483" lon="8.4752883"><ele>131.25</ele><time>2026-05-01T07:51:47.809Z</time></trkpt><trkpt lat="39.6553317" lon="8.4753083"><ele>129.0</ele><time>2026-05-01T07:51:48.81Z</time></trkpt><trkpt lat="39.6552" lon="8.4753667"><ele>132.5</ele><time>2026-05-01T07:51:49.809Z</time></trkpt><trkpt lat="39.6550667" lon="8.4754467"><ele>136.0</ele><time>2026-05-01T07:51:50.809Z</time></trkpt><trkpt lat="39.6549417" lon="8.4755283"><ele>139.5</ele><time>2026-05-01T07:51:51.81Z</time></trkpt><trkpt lat="39.6548217" lon="8.4756067"><ele>143.0</ele><time>2026-05-01T07:51:52.809Z</time></trkpt><trkpt lat="39.6547283" lon="8.4757167"><ele>143.0</ele><time>2026-05-01T07:51:53.81Z</time></trkpt><trkpt lat="39.6546483" lon="8.47586"><ele>143.0</ele><time>2026-05-01T07:51:54.809Z</time></trkpt><trkpt lat="39.6545767" lon="8.4760283"><ele>143.0</ele><time>2026-05-01T07:51:55.809Z</time></trkpt><trkpt lat="39.6545033" lon="8.4761917"><ele>143.0</ele><time>2026-05-01T07:51:56.809Z</time></trkpt><trkpt lat="39.6544317" lon="8.47635"><ele>140.75</ele><time>2026-05-01T07:51:57.809Z</time></trkpt><trkpt lat="39.6543733" lon="8.4765233"><ele>138.5</ele><time>2026-05-01T07:51:58.81Z</time></trkpt><trkpt lat="39.6543183" lon="8.4767017"><ele>136.25</ele><time>2026-05-01T07:51:59.809Z</time></trkpt><trkpt lat="39.654275" lon="8.4768833"><ele>134.0</ele><time>2026-05-01T07:52:00.81Z</time></trkpt><trkpt lat="39.654245" lon="8.477075"><ele>136.0</ele><time>2026-05-01T07:52:01.809Z</time></trkpt><trkpt lat="39.6542167" lon="8.4772717"><ele>138.0</ele><time>2026-05-01T07:52:02.809Z</time></trkpt><trkpt lat="39.6541867" lon="8.47747"><ele>140.0</ele><time>2026-05-01T07:52:03.81Z</time></trkpt><trkpt lat="39.6541483" lon="8.4776683"><ele>140.0</ele><time>2026-05-01T07:52:04.809Z</time></trkpt><trkpt lat="39.6541067" lon="8.4778417"><ele>140.0</ele><time>2026-05-01T07:52:05.809Z</time></trkpt><trkpt lat="39.65405" lon="8.477985"><ele>140.0</ele><time>2026-05-01T07:52:06.809Z</time></trkpt><trkpt lat="39.6539833" lon="8.4780983"><ele>140.0</ele><time>2026-05-01T07:52:07.809Z</time></trkpt><trkpt lat="39.6538983" lon="8.4781733"><ele>142.2</ele><time>2026-05-01T07:52:08.81Z</time></trkpt><trkpt lat="39.6537983" lon="8.4782233"><ele>144.4</ele><time>2026-05-01T07:52:09.809Z</time></trkpt><trkpt lat="39.6536917" lon="8.4782383"><ele>146.6</ele><time>2026-05-01T07:52:10.809Z</time></trkpt><trkpt lat="39.653585" lon="8.478205"><ele>148.8</ele><time>2026-05-01T07:52:11.81Z</time></trkpt><trkpt lat="39.6534867" lon="8.4781233"><ele>151.0</ele><time>2026-05-01T07:52:12.809Z</time></trkpt><trkpt lat="39.6534033" lon="8.478005"><ele>148.5</ele><time>2026-05-01T07:52:13.81Z</time></trkpt><trkpt lat="39.6533583" lon="8.4778533"><ele>146.0</ele><time>2026-05-01T07:52:14.809Z</time></trkpt><trkpt lat="39.6533367" lon="8.4776817"><ele>143.5</ele><time>2026-05-01T07:52:15.81Z</time></trkpt><trkpt lat="39.6533217" lon="8.4775133"><ele>141.0</ele><time>2026-05-01T07:52:16.809Z</time></trkpt><trkpt lat="39.6532967" lon="8.4773367"><ele>141.0</ele><time>2026-05-01T07:52:17.809Z</time></trkpt><trkpt lat="39.6532417" lon="8.4771617"><ele>141.0</ele><time>2026-05-01T07:52:18.81Z</time></trkpt><trkpt lat="39.6531567" lon="8.477005"><ele>141.0</ele><time>2026-05-01T07:52:19.809Z</time></trkpt><trkpt lat="39.65306" lon="8.4768567"><ele>141.0</ele><time>2026-05-01T07:52:20.809Z</time></trkpt><trkpt lat="39.6529517" lon="8.4767083"><ele>141.0</ele><time>2026-05-01T07:52:21.81Z</time></trkpt><trkpt lat="39.65285" lon="8.4765767"><ele>141.0</ele><time>2026-05-01T07:52:22.809Z</time></trkpt><trkpt lat="39.65275" lon="8.476475"><ele>141.0</ele><time>2026-05-01T07:52:23.81Z</time></trkpt><trkpt lat="39.6526267" lon="8.4764033"><ele>141.0</ele><time>2026-05-01T07:52:24.809Z</time></trkpt><trkpt lat="39.6525017" lon="8.47638"><ele>141.0</ele><time>2026-05-01T07:52:25.809Z</time></trkpt><trkpt lat="39.652375" lon="8.4764017"><ele>141.0</ele><time>2026-05-01T07:52:26.809Z</time></trkpt><trkpt lat="39.6522517" lon="8.4764617"><ele>141.0</ele><time>2026-05-01T07:52:27.809Z</time></trkpt><trkpt lat="39.6521467" lon="8.4765517"><ele>141.0</ele><time>2026-05-01T07:52:28.809Z</time></trkpt><trkpt lat="39.6520617" lon="8.4766783"><ele>141.0</ele><time>2026-05-01T07:52:29.809Z</time></trkpt><trkpt lat="39.6519833" lon="8.4768283"><ele>141.0</ele><time>2026-05-01T07:52:30.81Z</time></trkpt><trkpt lat="39.6519233" lon="8.47701"><ele>141.0</ele><time>2026-05-01T07:52:31.809Z</time></trkpt><trkpt lat="39.6518867" lon="8.477195"><ele>141.0</ele><time>2026-05-01T07:52:32.81Z</time></trkpt><trkpt lat="39.6518583" lon="8.4773433"><ele>141.0</ele><time>2026-05-01T07:52:33.81Z</time></trkpt><trkpt lat="39.651805" lon="8.4774533"><ele>141.0</ele><time>2026-05-01T07:52:34.809Z</time></trkpt><trkpt lat="39.6517183" lon="8.4775217"><ele>141.0</ele><time>2026-05-01T07:52:35.809Z</time></trkpt><trkpt lat="39.6516167" lon="8.4775533"><ele>141.0</ele><time>2026-05-01T07:52:36.81Z</time></trkpt><trkpt lat="39.6515117" lon="8.4775267"><ele>141.0</ele><time>2026-05-01T07:52:37.81Z</time></trkpt><trkpt lat="39.6514133" lon="8.477445"><ele>141.0</ele><time>2026-05-01T07:52:38.809Z</time></trkpt><trkpt lat="39.6513317" lon="8.477325"><ele>141.0</ele><time>2026-05-01T07:52:39.81Z</time></trkpt><trkpt lat="39.6512833" lon="8.4771883"><ele>141.0</ele><time>2026-05-01T07:52:40.81Z</time></trkpt><trkpt lat="39.651265" lon="8.4770417"><ele>141.0</ele><time>2026-05-01T07:52:41.81Z</time></trkpt><trkpt lat="39.6512683" lon="8.47687"><ele>138.0</ele><time>2026-05-01T07:52:42.81Z</time></trkpt><trkpt lat="39.6512717" lon="8.476665"><ele>135.0</ele><time>2026-05-01T07:52:43.809Z</time></trkpt><trkpt lat="39.6512683" lon="8.47644"><ele>132.0</ele><time>2026-05-01T07:52:44.81Z</time></trkpt><trkpt lat="39.6512717" lon="8.4762183"><ele>131.33333333333334</ele><time>2026-05-01T07:52:45.809Z</time></trkpt><trkpt lat="39.6513017" lon="8.475995"><ele>130.66666666666669</ele><time>2026-05-01T07:52:46.809Z</time></trkpt><trkpt lat="39.651365" lon="8.4757783"><ele>130.0</ele><time>2026-05-01T07:52:47.81Z</time></trkpt><trkpt lat="39.6514433" lon="8.4755783"><ele>130.5</ele><time>2026-05-01T07:52:48.81Z</time></trkpt><trkpt lat="39.6515133" lon="8.47541"><ele>131.0</ele><time>2026-05-01T07:52:49.809Z</time></trkpt><trkpt lat="39.6515467" lon="8.47526"><ele>131.5</ele><time>2026-05-01T07:52:50.809Z</time></trkpt><trkpt lat="39.6515433" lon="8.47512"><ele>132.0</ele><time>2026-05-01T07:52:51.809Z</time></trkpt><trkpt lat="39.6515017" lon="8.4749933"><ele>132.0</ele><time>2026-05-01T07:52:52.809Z</time></trkpt><trkpt lat="39.6514217" lon="8.4748933"><ele>132.0</ele><time>2026-05-01T07:52:53.809Z</time></trkpt><trkpt lat="39.6513133" lon="8.4748333"><ele>132.0</ele><time>2026-05-01T07:52:54.809Z</time></trkpt><trkpt lat="39.65118" lon="8.47481"><ele>132.0</ele><time>2026-05-01T07:52:55.809Z</time></trkpt><trkpt lat="39.6510467" lon="8.4748217"><ele>131.25</ele><time>2026-05-01T07:52:56.809Z</time></trkpt><trkpt lat="39.6509133" lon="8.4748767"><ele>130.5</ele><time>2026-05-01T07:52:57.809Z</time></trkpt><trkpt lat="39.6507817" lon="8.4749617"><ele>129.75</ele><time>2026-05-01T07:52:58.809Z</time></trkpt><trkpt lat="39.6506433" lon="8.47505"><ele>129.0</ele><time>2026-05-01T07:52:59.809Z</time></trkpt><trkpt lat="39.65049" lon="8.4751167"><ele>129.0</ele><time>2026-05-01T07:53:00.809Z</time></trkpt><trkpt lat="39.65033" lon="8.475155"><ele>129.0</ele><time>2026-05-01T07:53:01.809Z</time></trkpt><trkpt lat="39.6501633" lon="8.47516"><ele>129.0</ele><time>2026-05-01T07:53:02.809Z</time></trkpt><trkpt lat="39.6499933" lon="8.4751217"><ele>126.33333333333334</ele><time>2026-05-01T07:53:03.81Z</time></trkpt><trkpt lat="39.6498067" lon="8.4750583"><ele>123.66666666666667</ele><time>2026-05-01T07:53:04.81Z</time></trkpt><trkpt lat="39.6496167" lon="8.474985"><ele>121.0</ele><time>2026-05-01T07:53:05.809Z</time></trkpt><trkpt lat="39.64945" lon="8.4749283"><ele>119.25</ele><time>2026-05-01T07:53:06.81Z</time></trkpt><trkpt lat="39.649305" lon="8.474895"><ele>117.5</ele><time>2026-05-01T07:53:07.809Z</time></trkpt><trkpt lat="39.6491767" lon="8.4748833"><ele>115.75</ele><time>2026-05-01T07:53:08.809Z</time></trkpt><trkpt lat="39.6490667" lon="8.47493"><ele>114.0</ele><time>2026-05-01T07:53:09.809Z</time></trkpt><trkpt lat="39.6489783" lon="8.4750167"><ele>114.0</ele><time>2026-05-01T07:53:10.809Z</time></trkpt><trkpt lat="39.648925" lon="8.4751367"><ele>114.0</ele><time>2026-05-01T07:53:11.81Z</time></trkpt><trkpt lat="39.6488917" lon="8.4752967"><ele>114.0</ele><time>2026-05-01T07:53:12.809Z</time></trkpt><trkpt lat="39.64888" lon="8.4754683"><ele>114.0</ele><time>2026-05-01T07:53:13.81Z</time></trkpt><trkpt lat="39.6488533" lon="8.47562"><ele>111.5</ele><time>2026-05-01T07:53:14.81Z</time></trkpt><trkpt lat="39.6487883" lon="8.4757467"><ele>109.0</ele><time>2026-05-01T07:53:15.809Z</time></trkpt><trkpt lat="39.64869" lon="8.4758583"><ele>106.5</ele><time>2026-05-01T07:53:16.809Z</time></trkpt><trkpt lat="39.648565" lon="8.4759317"><ele>104.0</ele><time>2026-05-01T07:53:17.809Z</time></trkpt><trkpt lat="39.6484333" lon="8.47598"><ele>104.0</ele><time>2026-05-01T07:53:18.809Z</time></trkpt><trkpt lat="39.6482917" lon="8.4760167"><ele>104.0</ele><time>2026-05-01T07:53:19.809Z</time></trkpt><trkpt lat="39.6481483" lon="8.476045"><ele>104.0</ele><time>2026-05-01T07:53:20.809Z</time></trkpt><trkpt lat="39.6479967" lon="8.476075"><ele>104.0</ele><time>2026-05-01T07:53:21.809Z</time></trkpt><trkpt lat="39.6478517" lon="8.4760933"><ele>101.25</ele><time>2026-05-01T07:53:22.809Z</time></trkpt><trkpt lat="39.647705" lon="8.4761083"><ele>98.5</ele><time>2026-05-01T07:53:23.809Z</time></trkpt><trkpt lat="39.6475567" lon="8.4761233"><ele>95.75</ele><time>2026-05-01T07:53:24.809Z</time></trkpt><trkpt lat="39.647415" lon="8.4761483"><ele>93.0</ele><time>2026-05-01T07:53:25.809Z</time></trkpt><trkpt lat="39.647285" lon="8.4761483"><ele>93.0</ele><time>2026-05-01T07:53:26.809Z</time></trkpt><trkpt lat="39.6471633" lon="8.4761183"><ele>93.0</ele><time>2026-05-01T07:53:27.809Z</time></trkpt><trkpt lat="39.6470583" lon="8.476045"><ele>93.0</ele><time>2026-05-01T07:53:28.809Z</time></trkpt><trkpt lat="39.6469617" lon="8.4759283"><ele>93.0</ele><time>2026-05-01T07:53:29.809Z</time></trkpt><trkpt lat="39.646875" lon="8.475785"><ele>93.66666666666667</ele><time>2026-05-01T07:53:30.809Z</time></trkpt><trkpt lat="39.646795" lon="8.4756233"><ele>94.33333333333334</ele><time>2026-05-01T07:53:31.809Z</time></trkpt><trkpt lat="39.6467083" lon="8.4754517"><ele>95.0</ele><time>2026-05-01T07:53:32.809Z</time></trkpt><trkpt lat="39.6466183" lon="8.475285"><ele>95.75</ele><time>2026-05-01T07:53:33.81Z</time></trkpt><trkpt lat="39.64653" lon="8.4751267"><ele>96.5</ele><time>2026-05-01T07:53:34.809Z</time></trkpt><trkpt lat="39.6464417" lon="8.4749783"><ele>97.25</ele><time>2026-05-01T07:53:35.809Z</time></trkpt><trkpt lat="39.6463467" lon="8.4748517"><ele>98.0</ele><time>2026-05-01T07:53:36.809Z</time></trkpt><trkpt lat="39.6462283" lon="8.47475"><ele>98.33333333333333</ele><time>2026-05-01T07:53:37.809Z</time></trkpt><trkpt lat="39.6460917" lon="8.4746817"><ele>98.66666666666666</ele><time>2026-05-01T07:53:38.81Z</time></trkpt><trkpt lat="39.6459417" lon="8.47464"><ele>99.0</ele><time>2026-05-01T07:53:39.809Z</time></trkpt><trkpt lat="39.6457917" lon="8.4746067"><ele>102.5</ele><time>2026-05-01T07:53:40.809Z</time></trkpt><trkpt lat="39.6456483" lon="8.4745833"><ele>106.0</ele><time>2026-05-01T07:53:41.809Z</time></trkpt><trkpt lat="39.6455033" lon="8.4745617"><ele>109.5</ele><time>2026-05-01T07:53:42.81Z</time></trkpt><trkpt lat="39.6453533" lon="8.4745317"><ele>113.0</ele><time>2026-05-01T07:53:43.81Z</time></trkpt><trkpt lat="39.6452017" lon="8.4745"><ele>114.33333333333333</ele><time>2026-05-01T07:53:44.81Z</time></trkpt><trkpt lat="39.6450483" lon="8.4744617"><ele>115.66666666666666</ele><time>2026-05-01T07:53:45.809Z</time></trkpt><trkpt lat="39.644905" lon="8.4744267"><ele>117.0</ele><time>2026-05-01T07:53:46.81Z</time></trkpt><trkpt lat="39.6447617" lon="8.47438"><ele>117.0</ele><time>2026-05-01T07:53:47.809Z</time></trkpt><trkpt lat="39.6446233" lon="8.4742967"><ele>117.0</ele><time>2026-05-01T07:53:48.809Z</time></trkpt><trkpt lat="39.644495" lon="8.4741917"><ele>117.0</ele><time>2026-05-01T07:53:49.809Z</time></trkpt><trkpt lat="39.6443767" lon="8.4741"><ele>117.0</ele><time>2026-05-01T07:53:50.81Z</time></trkpt><trkpt lat="39.6442533" lon="8.4740367"><ele>117.25</ele><time>2026-05-01T07:53:51.81Z</time></trkpt><trkpt lat="39.644125" lon="8.4740267"><ele>117.5</ele><time>2026-05-01T07:53:52.809Z</time></trkpt><trkpt lat="39.6439933" lon="8.4740633"><ele>117.75</ele><time>2026-05-01T07:53:53.809Z</time></trkpt><trkpt lat="39.643865" lon="8.47413"><ele>118.0</ele><time>2026-05-01T07:53:54.809Z</time></trkpt><trkpt lat="39.6437383" lon="8.4742167"><ele>120.75</ele><time>2026-05-01T07:53:55.81Z</time></trkpt><trkpt lat="39.6436033" lon="8.4743017"><ele>123.5</ele><time>2026-05-01T07:53:56.81Z</time></trkpt><trkpt lat="39.6434683" lon="8.47433"><ele>126.25</ele><time>2026-05-01T07:53:57.809Z</time></trkpt><trkpt lat="39.6433283" lon="8.4743117"><ele>129.0</ele><time>2026-05-01T07:53:58.81Z</time></trkpt><trkpt lat="39.6431767" lon="8.4742733"><ele>129.0</ele><time>2026-05-01T07:53:59.81Z</time></trkpt><trkpt lat="39.643025" lon="8.4742333"><ele>129.0</ele><time>2026-05-01T07:54:00.81Z</time></trkpt><trkpt lat="39.6428667" lon="8.4742233"><ele>129.0</ele><time>2026-05-01T07:54:01.809Z</time></trkpt><trkpt lat="39.642715" lon="8.4742583"><ele>130.25</ele><time>2026-05-01T07:54:02.809Z</time></trkpt><trkpt lat="39.642575" lon="8.4743167"><ele>131.5</ele><time>2026-05-01T07:54:03.809Z</time></trkpt><trkpt lat="39.6424367" lon="8.47438"><ele>132.75</ele><time>2026-05-01T07:54:04.809Z</time></trkpt><trkpt lat="39.64229" lon="8.47441"><ele>134.0</ele><time>2026-05-01T07:54:05.809Z</time></trkpt><trkpt lat="39.64212" lon="8.4744183"><ele>135.66666666666666</ele><time>2026-05-01T07:54:06.809Z</time></trkpt><trkpt lat="39.641945" lon="8.4744083"><ele>137.33333333333334</ele><time>2026-05-01T07:54:07.809Z</time></trkpt><trkpt lat="39.6417733" lon="8.474395"><ele>139.0</ele><time>2026-05-01T07:54:08.809Z</time></trkpt><trkpt lat="39.6416067" lon="8.47439"><ele>139.0</ele><time>2026-05-01T07:54:09.809Z</time></trkpt><trkpt lat="39.641455" lon="8.47439"><ele>139.0</ele><time>2026-05-01T07:54:10.809Z</time></trkpt><trkpt lat="39.6413183" lon="8.4743833"><ele>139.0</ele><time>2026-05-01T07:54:11.809Z</time></trkpt><trkpt lat="39.64119" lon="8.47438"><ele>139.0</ele><time>2026-05-01T07:54:12.81Z</time></trkpt><trkpt lat="39.64105" lon="8.4743767"><ele>138.66666666666669</ele><time>2026-05-01T07:54:13.809Z</time></trkpt><trkpt lat="39.6408983" lon="8.4743933"><ele>138.33333333333334</ele><time>2026-05-01T07:54:14.809Z</time></trkpt><trkpt lat="39.640745" lon="8.47444"><ele>138.0</ele><time>2026-05-01T07:54:15.809Z</time></trkpt><trkpt lat="39.6405967" lon="8.474515"><ele>139.0</ele><time>2026-05-01T07:54:16.809Z</time></trkpt><trkpt lat="39.6404533" lon="8.4746183"><ele>140.0</ele><time>2026-05-01T07:54:17.81Z</time></trkpt><trkpt lat="39.6403317" lon="8.4747567"><ele>141.0</ele><time>2026-05-01T07:54:18.809Z</time></trkpt><trkpt lat="39.6402267" lon="8.4749267"><ele>142.0</ele><time>2026-05-01T07:54:19.81Z</time></trkpt><trkpt lat="39.6401267" lon="8.47511"><ele>143.0</ele><time>2026-05-01T07:54:20.808Z</time></trkpt><trkpt lat="39.6400217" lon="8.4752983"><ele>144.0</ele><time>2026-05-01T07:54:21.808Z</time></trkpt><trkpt lat="39.6399117" lon="8.475475"><ele>145.33333333333334</ele><time>2026-05-01T07:54:22.808Z</time></trkpt><trkpt lat="39.639805" lon="8.4756567"><ele>146.66666666666669</ele><time>2026-05-01T07:54:23.808Z</time></trkpt><trkpt lat="39.6397033" lon="8.4758333"><ele>148.0</ele><time>2026-05-01T07:54:24.809Z</time></trkpt><trkpt lat="39.63961" lon="8.476"><ele>148.0</ele><time>2026-05-01T07:54:25.809Z</time></trkpt><trkpt lat="39.6395167" lon="8.47616"><ele>148.0</ele><time>2026-05-01T07:54:26.808Z</time></trkpt><trkpt lat="39.6394233" lon="8.4763"><ele>148.0</ele><time>2026-05-01T07:54:27.808Z</time></trkpt><trkpt lat="39.6393167" lon="8.4763967"><ele>148.0</ele><time>2026-05-01T07:54:28.809Z</time></trkpt><trkpt lat="39.6391883" lon="8.4764567"><ele>148.33333333333334</ele><time>2026-05-01T07:54:29.809Z</time></trkpt><trkpt lat="39.6390367" lon="8.47648"><ele>148.66666666666666</ele><time>2026-05-01T07:54:30.809Z</time></trkpt><trkpt lat="39.6388733" lon="8.4764867"><ele>149.0</ele><time>2026-05-01T07:54:31.808Z</time></trkpt><trkpt lat="39.6387117" lon="8.476475"><ele>149.66666666666666</ele><time>2026-05-01T07:54:32.808Z</time></trkpt><trkpt lat="39.63856" lon="8.4764833"><ele>150.33333333333334</ele><time>2026-05-01T07:54:33.809Z</time></trkpt><trkpt lat="39.6384067" lon="8.4765367"><ele>151.0</ele><time>2026-05-01T07:54:34.808Z</time></trkpt><trkpt lat="39.6382583" lon="8.47664"><ele>151.0</ele><time>2026-05-01T07:54:35.808Z</time></trkpt><trkpt lat="39.6381067" lon="8.4767633"><ele>151.0</ele><time>2026-05-01T07:54:36.809Z</time></trkpt><trkpt lat="39.637945" lon="8.4769"><ele>151.0</ele><time>2026-05-01T07:54:37.808Z</time></trkpt><trkpt lat="39.6377867" lon="8.4770383"><ele>151.66666666666669</ele><time>2026-05-01T07:54:38.808Z</time></trkpt><trkpt lat="39.6376267" lon="8.477175"><ele>152.33333333333334</ele><time>2026-05-01T07:54:39.809Z</time></trkpt><trkpt lat="39.6374683" lon="8.4773017"><ele>153.0</ele><time>2026-05-01T07:54:40.808Z</time></trkpt><trkpt lat="39.6373217" lon="8.47742"><ele>153.0</ele><time>2026-05-01T07:54:41.808Z</time></trkpt><trkpt lat="39.63718" lon="8.4775367"><ele>153.0</ele><time>2026-05-01T07:54:42.808Z</time></trkpt><trkpt lat="39.637045" lon="8.4776467"><ele>153.0</ele><time>2026-05-01T07:54:43.808Z</time></trkpt><trkpt lat="39.6369133" lon="8.477755"><ele>153.66666666666666</ele><time>2026-05-01T07:54:44.809Z</time></trkpt><trkpt lat="39.6367783" lon="8.47787"><ele>154.33333333333331</ele><time>2026-05-01T07:54:45.808Z</time></trkpt><trkpt lat="39.6366517" lon="8.4779983"><ele>155.0</ele><time>2026-05-01T07:54:46.808Z</time></trkpt><trkpt lat="39.63654" lon="8.4781467"><ele>155.0</ele><time>2026-05-01T07:54:47.809Z</time></trkpt><trkpt lat="39.636435" lon="8.4783117"><ele>155.0</ele><time>2026-05-01T07:54:48.809Z</time></trkpt><trkpt lat="39.6363333" lon="8.478485"><ele>155.0</ele><time>2026-05-01T07:54:49.808Z</time></trkpt><trkpt lat="39.63624" lon="8.4786567"><ele>153.25</ele><time>2026-05-01T07:54:50.809Z</time></trkpt><trkpt lat="39.6361533" lon="8.4788233"><ele>151.5</ele><time>2026-05-01T07:54:51.808Z</time></trkpt><trkpt lat="39.6360633" lon="8.4789717"><ele>149.75</ele><time>2026-05-01T07:54:52.809Z</time></trkpt><trkpt lat="39.63597" lon="8.4790933"><ele>148.0</ele><time>2026-05-01T07:54:53.809Z</time></trkpt><trkpt lat="39.6358683" lon="8.4791933"><ele>148.0</ele><time>2026-05-01T07:54:54.809Z</time></trkpt><trkpt lat="39.635755" lon="8.479275"><ele>148.0</ele><time>2026-05-01T07:54:55.809Z</time></trkpt><trkpt lat="39.6356383" lon="8.47935"><ele>148.0</ele><time>2026-05-01T07:54:56.808Z</time></trkpt><trkpt lat="39.6355033" lon="8.4794217"><ele>148.0</ele><time>2026-05-01T07:54:57.809Z</time></trkpt><trkpt lat="39.63537" lon="8.479485"><ele>147.8</ele><time>2026-05-01T07:54:58.808Z</time></trkpt><trkpt lat="39.63525" lon="8.4795283"><ele>147.60000000000002</ele><time>2026-05-01T07:54:59.808Z</time></trkpt><trkpt lat="39.6351417" lon="8.4795517"><ele>147.39999999999998</ele><time>2026-05-01T07:55:00.809Z</time></trkpt><trkpt lat="39.6350383" lon="8.4795483"><ele>147.2</ele><time>2026-05-01T07:55:01.808Z</time></trkpt><trkpt lat="39.63494" lon="8.4795183"><ele>147.0</ele><time>2026-05-01T07:55:02.808Z</time></trkpt><trkpt lat="39.6348517" lon="8.47947"><ele>147.0</ele><time>2026-05-01T07:55:03.808Z</time></trkpt><trkpt lat="39.634765" lon="8.4794183"><ele>147.0</ele><time>2026-05-01T07:55:04.808Z</time></trkpt><trkpt lat="39.6346883" lon="8.4793483"><ele>147.0</ele><time>2026-05-01T07:55:05.808Z</time></trkpt><trkpt lat="39.6346017" lon="8.4792567"><ele>147.0</ele><time>2026-05-01T07:55:06.808Z</time></trkpt><trkpt lat="39.6345167" lon="8.4791367"><ele>147.0</ele><time>2026-05-01T07:55:07.808Z</time></trkpt><trkpt lat="39.6344367" lon="8.4789967"><ele>146.66666666666666</ele><time>2026-05-01T07:55:08.808Z</time></trkpt><trkpt lat="39.634375" lon="8.478825"><ele>146.33333333333331</ele><time>2026-05-01T07:55:09.808Z</time></trkpt><trkpt lat="39.63433" lon="8.478635"><ele>146.0</ele><time>2026-05-01T07:55:10.809Z</time></trkpt><trkpt lat="39.6343" lon="8.478425"><ele>146.0</ele><time>2026-05-01T07:55:11.809Z</time></trkpt><trkpt lat="39.6342733" lon="8.4782017"><ele>146.0</ele><time>2026-05-01T07:55:12.808Z</time></trkpt><trkpt lat="39.6342467" lon="8.4779867"><ele>146.0</ele><time>2026-05-01T07:55:13.808Z</time></trkpt><trkpt lat="39.634215" lon="8.477775"><ele>144.66666666666666</ele><time>2026-05-01T07:55:14.808Z</time></trkpt><trkpt lat="39.6341817" lon="8.4775583"><ele>143.33333333333334</ele><time>2026-05-01T07:55:15.808Z</time></trkpt><trkpt lat="39.63415" lon="8.4773633"><ele>142.0</ele><time>2026-05-01T07:55:16.809Z</time></trkpt><trkpt lat="39.6341217" lon="8.477175"><ele>140.75</ele><time>2026-05-01T07:55:17.809Z</time></trkpt><trkpt lat="39.6340883" lon="8.4770017"><ele>139.5</ele><time>2026-05-01T07:55:18.809Z</time></trkpt><trkpt lat="39.634045" lon="8.4768467"><ele>138.25</ele><time>2026-05-01T07:55:19.808Z</time></trkpt><trkpt lat="39.6339733" lon="8.4767183"><ele>137.0</ele><time>2026-05-01T07:55:20.808Z</time></trkpt><trkpt lat="39.63388" lon="8.4766067"><ele>137.0</ele><time>2026-05-01T07:55:21.809Z</time></trkpt><trkpt lat="39.63378" lon="8.4765517"><ele>137.0</ele><time>2026-05-01T07:55:22.808Z</time></trkpt><trkpt lat="39.6336533" lon="8.476515"><ele>137.0</ele><time>2026-05-01T07:55:23.808Z</time></trkpt><trkpt lat="39.6335217" lon="8.4765033"><ele>137.0</ele><time>2026-05-01T07:55:24.809Z</time></trkpt><trkpt lat="39.6334017" lon="8.476535"><ele>138.0</ele><time>2026-05-01T07:55:25.808Z</time></trkpt><trkpt lat="39.6332917" lon="8.476605"><ele>139.0</ele><time>2026-05-01T07:55:26.808Z</time></trkpt><trkpt lat="39.6331867" lon="8.4767033"><ele>140.0</ele><time>2026-05-01T07:55:27.808Z</time></trkpt><trkpt lat="39.6330767" lon="8.47683"><ele>141.0</ele><time>2026-05-01T07:55:28.808Z</time></trkpt><trkpt lat="39.6329583" lon="8.4769717"><ele>142.33333333333334</ele><time>2026-05-01T07:55:29.808Z</time></trkpt><trkpt lat="39.63284" lon="8.4771217"><ele>143.66666666666669</ele><time>2026-05-01T07:55:30.808Z</time></trkpt><trkpt lat="39.6327183" lon="8.4772817"><ele>145.0</ele><time>2026-05-01T07:55:31.808Z</time></trkpt><trkpt lat="39.632605" lon="8.4774483"><ele>142.0</ele><time>2026-05-01T07:55:32.808Z</time></trkpt><trkpt lat="39.6325033" lon="8.4776333"><ele>139.0</ele><time>2026-05-01T07:55:33.808Z</time></trkpt><trkpt lat="39.632415" lon="8.4778217"><ele>136.0</ele><time>2026-05-01T07:55:34.808Z</time></trkpt><trkpt lat="39.632335" lon="8.4780083"><ele>136.0</ele><time>2026-05-01T07:55:35.808Z</time></trkpt><trkpt lat="39.63227" lon="8.4781867"><ele>136.0</ele><time>2026-05-01T07:55:36.808Z</time></trkpt><trkpt lat="39.6322" lon="8.4783567"><ele>136.0</ele><time>2026-05-01T07:55:37.808Z</time></trkpt><trkpt lat="39.6321317" lon="8.4785083"><ele>136.0</ele><time>2026-05-01T07:55:38.808Z</time></trkpt><trkpt lat="39.6320717" lon="8.4786333"><ele>136.0</ele><time>2026-05-01T07:55:39.809Z</time></trkpt><trkpt lat="39.632005" lon="8.4787367"><ele>136.0</ele><time>2026-05-01T07:55:40.808Z</time></trkpt><trkpt lat="39.6319367" lon="8.4788083"><ele>136.0</ele><time>2026-05-01T07:55:41.808Z</time></trkpt><trkpt lat="39.6318567" lon="8.478855"><ele>136.0</ele><time>2026-05-01T07:55:42.808Z</time></trkpt><trkpt lat="39.6317683" lon="8.4788817"><ele>136.0</ele><time>2026-05-01T07:55:43.808Z</time></trkpt><trkpt lat="39.6316633" lon="8.47885"><ele>132.5</ele><time>2026-05-01T07:55:44.809Z</time></trkpt><trkpt lat="39.63155" lon="8.4787833"><ele>129.0</ele><time>2026-05-01T07:55:45.809Z</time></trkpt><trkpt lat="39.6314317" lon="8.4786933"><ele>125.5</ele><time>2026-05-01T07:55:46.808Z</time></trkpt><trkpt lat="39.6313067" lon="8.4785983"><ele>122.0</ele><time>2026-05-01T07:55:47.808Z</time></trkpt><trkpt lat="39.63118" lon="8.4785083"><ele>117.5</ele><time>2026-05-01T07:55:48.808Z</time></trkpt><trkpt lat="39.6310617" lon="8.4784283"><ele>113.0</ele><time>2026-05-01T07:55:49.808Z</time></trkpt><trkpt lat="39.630945" lon="8.4783333"><ele>108.5</ele><time>2026-05-01T07:55:50.808Z</time></trkpt><trkpt lat="39.6308317" lon="8.4782067"><ele>104.0</ele><time>2026-05-01T07:55:51.808Z</time></trkpt><trkpt lat="39.6307183" lon="8.4780517"><ele>108.66666666666666</ele><time>2026-05-01T07:55:52.809Z</time></trkpt><trkpt lat="39.6306067" lon="8.47788"><ele>113.33333333333334</ele><time>2026-05-01T07:55:53.808Z</time></trkpt><trkpt lat="39.6304917" lon="8.4777017"><ele>118.0</ele><time>2026-05-01T07:55:54.808Z</time></trkpt><trkpt lat="39.6303767" lon="8.4775283"><ele>114.66666666666667</ele><time>2026-05-01T07:55:55.809Z</time></trkpt><trkpt lat="39.6302567" lon="8.4773717"><ele>111.33333333333334</ele><time>2026-05-01T07:55:56.808Z</time></trkpt><trkpt lat="39.6301283" lon="8.47723"><ele>108.0</ele><time>2026-05-01T07:55:57.808Z</time></trkpt><trkpt lat="39.6299883" lon="8.4770967"><ele>108.0</ele><time>2026-05-01T07:55:58.809Z</time></trkpt><trkpt lat="39.6298333" lon="8.47698"><ele>108.0</ele><time>2026-05-01T07:55:59.808Z</time></trkpt><trkpt lat="39.6297" lon="8.4768567"><ele>108.0</ele><time>2026-05-01T07:56:00.808Z</time></trkpt><trkpt lat="39.6295817" lon="8.4767233"><ele>108.0</ele><time>2026-05-01T07:56:01.808Z</time></trkpt><trkpt lat="39.6294883" lon="8.4766"><ele>108.00000000000001</ele><time>2026-05-01T07:56:02.808Z</time></trkpt><trkpt lat="39.62941" lon="8.4764933"><ele>108.00000000000001</ele><time>2026-05-01T07:56:03.809Z</time></trkpt><trkpt lat="39.6293233" lon="8.4764367"><ele>108.0</ele><time>2026-05-01T07:56:04.809Z</time></trkpt><trkpt lat="39.6292367" lon="8.476425"><ele>108.0</ele><time>2026-05-01T07:56:05.808Z</time></trkpt><trkpt lat="39.629155" lon="8.47645"><ele>105.0</ele><time>2026-05-01T07:56:06.808Z</time></trkpt><trkpt lat="39.629065" lon="8.4765017"><ele>102.0</ele><time>2026-05-01T07:56:07.808Z</time></trkpt><trkpt lat="39.6289617" lon="8.476575"><ele>99.0</ele><time>2026-05-01T07:56:08.808Z</time></trkpt><trkpt lat="39.62885" lon="8.4766367"><ele>96.0</ele><time>2026-05-01T07:56:09.808Z</time></trkpt><trkpt lat="39.6287217" lon="8.4766667"><ele>96.25</ele><time>2026-05-01T07:56:10.808Z</time></trkpt><trkpt lat="39.6285767" lon="8.4766633"><ele>96.5</ele><time>2026-05-01T07:56:11.808Z</time></trkpt><trkpt lat="39.6284283" lon="8.4766383"><ele>96.75</ele><time>2026-05-01T07:56:12.808Z</time></trkpt><trkpt lat="39.6282883" lon="8.4765867"><ele>97.0</ele><time>2026-05-01T07:56:13.808Z</time></trkpt><trkpt lat="39.62815" lon="8.476505"><ele>97.0</ele><time>2026-05-01T07:56:14.809Z</time></trkpt><trkpt lat="39.62801" lon="8.4764"><ele>97.0</ele><time>2026-05-01T07:56:15.809Z</time></trkpt><trkpt lat="39.627865" lon="8.4762833"><ele>97.0</ele><time>2026-05-01T07:56:16.808Z</time></trkpt><trkpt lat="39.6277167" lon="8.476165"><ele>93.33333333333334</ele><time>2026-05-01T07:56:17.808Z</time></trkpt><trkpt lat="39.6275717" lon="8.4760467"><ele>89.66666666666667</ele><time>2026-05-01T07:56:18.808Z</time></trkpt><trkpt lat="39.627425" lon="8.4759467"><ele>86.0</ele><time>2026-05-01T07:56:19.808Z</time></trkpt><trkpt lat="39.62727" lon="8.4758733"><ele>86.0</ele><time>2026-05-01T07:56:20.808Z</time></trkpt><trkpt lat="39.6271067" lon="8.4758317"><ele>86.0</ele><time>2026-05-01T07:56:21.808Z</time></trkpt><trkpt lat="39.62694" lon="8.4758067"><ele>86.0</ele><time>2026-05-01T07:56:22.808Z</time></trkpt><trkpt lat="39.626765" lon="8.4757617"><ele>90.66666666666667</ele><time>2026-05-01T07:56:23.808Z</time></trkpt><trkpt lat="39.6265983" lon="8.4756917"><ele>95.33333333333334</ele><time>2026-05-01T07:56:24.809Z</time></trkpt><trkpt lat="39.6264367" lon="8.4755917"><ele>100.0</ele><time>2026-05-01T07:56:25.808Z</time></trkpt><trkpt lat="39.6262883" lon="8.475475"><ele>98.0</ele><time>2026-05-01T07:56:26.808Z</time></trkpt><trkpt lat="39.6261467" lon="8.4753417"><ele>96.0</ele><time>2026-05-01T07:56:27.808Z</time></trkpt><trkpt lat="39.6260017" lon="8.4752317"><ele>94.0</ele><time>2026-05-01T07:56:28.809Z</time></trkpt><trkpt lat="39.6258467" lon="8.475145"><ele>94.0</ele><time>2026-05-01T07:56:29.808Z</time></trkpt><trkpt lat="39.6256967" lon="8.4750717"><ele>94.0</ele><time>2026-05-01T07:56:30.808Z</time></trkpt><trkpt lat="39.6255633" lon="8.4749767"><ele>94.0</ele><time>2026-05-01T07:56:31.808Z</time></trkpt><trkpt lat="39.6254533" lon="8.4748567"><ele>94.0</ele><time>2026-05-01T07:56:32.808Z</time></trkpt><trkpt lat="39.6253683" lon="8.4747067"><ele>94.0</ele><time>2026-05-01T07:56:33.808Z</time></trkpt><trkpt lat="39.6252967" lon="8.4745617"><ele>94.0</ele><time>2026-05-01T07:56:34.809Z</time></trkpt><trkpt lat="39.6252283" lon="8.4744667"><ele>94.0</ele><time>2026-05-01T07:56:35.808Z</time></trkpt><trkpt lat="39.6251417" lon="8.474425"><ele>94.4</ele><time>2026-05-01T07:56:36.808Z</time></trkpt><trkpt lat="39.6250617" lon="8.4744417"><ele>94.80000000000001</ele><time>2026-05-01T07:56:37.808Z</time></trkpt><trkpt lat="39.6249867" lon="8.4745183"><ele>95.19999999999999</ele><time>2026-05-01T07:56:38.808Z</time></trkpt><trkpt lat="39.624915" lon="8.4746433"><ele>95.6</ele><time>2026-05-01T07:56:39.809Z</time></trkpt><trkpt lat="39.6248567" lon="8.4748033"><ele>96.0</ele><time>2026-05-01T07:56:40.808Z</time></trkpt><trkpt lat="39.6248233" lon="8.4749733"><ele>96.0</ele><time>2026-05-01T07:56:41.809Z</time></trkpt><trkpt lat="39.6247883" lon="8.47514"><ele>96.0</ele><time>2026-05-01T07:56:42.809Z</time></trkpt><trkpt lat="39.62472" lon="8.4752783"><ele>96.0</ele><time>2026-05-01T07:56:43.808Z</time></trkpt><trkpt lat="39.624615" lon="8.4754083"><ele>96.0</ele><time>2026-05-01T07:56:44.808Z</time></trkpt><trkpt lat="39.62449" lon="8.47553"><ele>91.5</ele><time>2026-05-01T07:56:45.808Z</time></trkpt><trkpt lat="39.6243783" lon="8.4756433"><ele>87.0</ele><time>2026-05-01T07:56:46.808Z</time></trkpt><trkpt lat="39.6243033" lon="8.4757783"><ele>82.5</ele><time>2026-05-01T07:56:47.808Z</time></trkpt><trkpt lat="39.6242617" lon="8.475935"><ele>78.0</ele><time>2026-05-01T07:56:48.808Z</time></trkpt><trkpt lat="39.6242433" lon="8.4760917"><ele>78.0</ele><time>2026-05-01T07:56:49.808Z</time></trkpt><trkpt lat="39.6242533" lon="8.4762267"><ele>78.0</ele><time>2026-05-01T07:56:50.808Z</time></trkpt><trkpt lat="39.6242967" lon="8.4763517"><ele>78.0</ele><time>2026-05-01T07:56:51.808Z</time></trkpt><trkpt lat="39.62434" lon="8.4764667"><ele>78.0</ele><time>2026-05-01T07:56:52.808Z</time></trkpt><trkpt lat="39.624345" lon="8.4765883"><ele>78.0</ele><time>2026-05-01T07:56:53.809Z</time></trkpt><trkpt lat="39.6243067" lon="8.4767067"><ele>77.6</ele><time>2026-05-01T07:56:54.808Z</time></trkpt><trkpt lat="39.624235" lon="8.4768083"><ele>77.19999999999999</ele><time>2026-05-01T07:56:55.809Z</time></trkpt><trkpt lat="39.6241567" lon="8.476895"><ele>76.8</ele><time>2026-05-01T07:56:56.808Z</time></trkpt><trkpt lat="39.6240833" lon="8.47694"><ele>76.39999999999999</ele><time>2026-05-01T07:56:57.808Z</time></trkpt><trkpt lat="39.624005" lon="8.4769683"><ele>76.0</ele><time>2026-05-01T07:56:58.809Z</time></trkpt><trkpt lat="39.6239117" lon="8.477005"><ele>76.0</ele><time>2026-05-01T07:56:59.809Z</time></trkpt><trkpt lat="39.6238067" lon="8.477045"><ele>76.0</ele><time>2026-05-01T07:57:00.809Z</time></trkpt><trkpt lat="39.6236933" lon="8.4770817"><ele>76.0</ele><time>2026-05-01T07:57:01.808Z</time></trkpt><trkpt lat="39.623575" lon="8.4771217"><ele>76.0</ele><time>2026-05-01T07:57:02.808Z</time></trkpt><trkpt lat="39.6234667" lon="8.477185"><ele>77.5</ele><time>2026-05-01T07:57:03.808Z</time></trkpt><trkpt lat="39.6233717" lon="8.47728"><ele>79.0</ele><time>2026-05-01T07:57:04.808Z</time></trkpt><trkpt lat="39.62329" lon="8.4774083"><ele>80.5</ele><time>2026-05-01T07:57:05.808Z</time></trkpt><trkpt lat="39.6232217" lon="8.47756"><ele>82.0</ele><time>2026-05-01T07:57:06.808Z</time></trkpt><trkpt lat="39.623155" lon="8.4777183"><ele>82.0</ele><time>2026-05-01T07:57:07.808Z</time></trkpt><trkpt lat="39.6230817" lon="8.4778767"><ele>82.0</ele><time>2026-05-01T07:57:08.808Z</time></trkpt><trkpt lat="39.6229933" lon="8.4780317"><ele>82.0</ele><time>2026-05-01T07:57:09.808Z</time></trkpt><trkpt lat="39.6228867" lon="8.478175"><ele>82.0</ele><time>2026-05-01T07:57:10.808Z</time></trkpt><trkpt lat="39.6227733" lon="8.478305"><ele>81.5</ele><time>2026-05-01T07:57:11.808Z</time></trkpt><trkpt lat="39.6226567" lon="8.4784333"><ele>81.0</ele><time>2026-05-01T07:57:12.809Z</time></trkpt><trkpt lat="39.622545" lon="8.4785633"><ele>80.5</ele><time>2026-05-01T07:57:13.808Z</time></trkpt><trkpt lat="39.622435" lon="8.4786833"><ele>80.0</ele><time>2026-05-01T07:57:14.808Z</time></trkpt><trkpt lat="39.6223217" lon="8.4787967"><ele>81.66666666666667</ele><time>2026-05-01T07:57:15.808Z</time></trkpt><trkpt lat="39.6221967" lon="8.4789017"><ele>83.33333333333333</ele><time>2026-05-01T07:57:16.808Z</time></trkpt><trkpt lat="39.6220667" lon="8.4789983"><ele>85.0</ele><time>2026-05-01T07:57:17.808Z</time></trkpt><trkpt lat="39.62193" lon="8.4790917"><ele>85.0</ele><time>2026-05-01T07:57:18.808Z</time></trkpt><trkpt lat="39.6217933" lon="8.4791917"><ele>85.0</ele><time>2026-05-01T07:57:19.808Z</time></trkpt><trkpt lat="39.6216583" lon="8.479285"><ele>85.0</ele><time>2026-05-01T07:57:20.808Z</time></trkpt><trkpt lat="39.6215267" lon="8.4793867"><ele>85.0</ele><time>2026-05-01T07:57:21.808Z</time></trkpt><trkpt lat="39.6213967" lon="8.479495"><ele>85.0</ele><time>2026-05-01T07:57:22.808Z</time></trkpt><trkpt lat="39.6212667" lon="8.4796033"><ele>85.0</ele><time>2026-05-01T07:57:23.807Z</time></trkpt><trkpt lat="39.62114" lon="8.479705"><ele>86.0</ele><time>2026-05-01T07:57:24.807Z</time></trkpt><trkpt lat="39.621015" lon="8.479805"><ele>87.0</ele><time>2026-05-01T07:57:25.807Z</time></trkpt><trkpt lat="39.6208917" lon="8.4799017"><ele>88.0</ele><time>2026-05-01T07:57:26.807Z</time></trkpt><trkpt lat="39.62077" lon="8.479995"><ele>89.0</ele><time>2026-05-01T07:57:27.807Z</time></trkpt><trkpt lat="39.6206583" lon="8.4800783"><ele>89.0</ele><time>2026-05-01T07:57:28.807Z</time></trkpt><trkpt lat="39.6205683" lon="8.4801383"><ele>89.0</ele><time>2026-05-01T07:57:29.807Z</time></trkpt><trkpt lat="39.6204767" lon="8.480165"><ele>89.0</ele><time>2026-05-01T07:57:30.807Z</time></trkpt><trkpt lat="39.6203733" lon="8.4801617"><ele>89.0</ele><time>2026-05-01T07:57:31.808Z</time></trkpt><trkpt lat="39.6202533" lon="8.48014"><ele>89.0</ele><time>2026-05-01T07:57:32.808Z</time></trkpt><trkpt lat="39.6201233" lon="8.4801"><ele>91.0</ele><time>2026-05-01T07:57:33.808Z</time></trkpt><trkpt lat="39.6199817" lon="8.4800683"><ele>93.0</ele><time>2026-05-01T07:57:34.808Z</time></trkpt><trkpt lat="39.6198383" lon="8.480025"><ele>95.0</ele><time>2026-05-01T07:57:35.808Z</time></trkpt><trkpt lat="39.61969" lon="8.4799967"><ele>97.0</ele><time>2026-05-01T07:57:36.807Z</time></trkpt><trkpt lat="39.6195433" lon="8.4799683"><ele>98.0</ele><time>2026-05-01T07:57:37.807Z</time></trkpt><trkpt lat="39.61941" lon="8.4799383"><ele>99.0</ele><time>2026-05-01T07:57:38.808Z</time></trkpt><trkpt lat="39.6192767" lon="8.4799083"><ele>100.0</ele><time>2026-05-01T07:57:39.807Z</time></trkpt><trkpt lat="39.6191433" lon="8.4798767"><ele>101.0</ele><time>2026-05-01T07:57:40.807Z</time></trkpt><trkpt lat="39.61901" lon="8.47985"><ele>101.0</ele><time>2026-05-01T07:57:41.807Z</time></trkpt><trkpt lat="39.618885" lon="8.47982"><ele>101.0</ele><time>2026-05-01T07:57:42.808Z</time></trkpt><trkpt lat="39.6187783" lon="8.4797983"><ele>101.0</ele><time>2026-05-01T07:57:43.807Z</time></trkpt><trkpt lat="39.6186817" lon="8.4797733"><ele>101.0</ele><time>2026-05-01T07:57:44.808Z</time></trkpt><trkpt lat="39.6185983" lon="8.479755"><ele>101.0</ele><time>2026-05-01T07:57:45.808Z</time></trkpt><trkpt lat="39.6185183" lon="8.4797517"><ele>100.8</ele><time>2026-05-01T07:57:47.808Z</time></trkpt><trkpt lat="39.6184567" lon="8.4798183"><ele>100.6</ele><time>2026-05-01T07:57:50.807Z</time></trkpt><trkpt lat="39.6184367" lon="8.47998"><ele>100.4</ele><time>2026-05-01T07:57:52.807Z</time></trkpt><trkpt lat="39.618435" lon="8.480105"><ele>100.2</ele><time>2026-05-01T07:57:53.807Z</time></trkpt><trkpt lat="39.6184283" lon="8.48024"><ele>100.0</ele><time>2026-05-01T07:57:54.808Z</time></trkpt><trkpt lat="39.618425" lon="8.4803933"><ele>100.5</ele><time>2026-05-01T07:57:55.807Z</time></trkpt><trkpt lat="39.6184233" lon="8.4805517"><ele>101.0</ele><time>2026-05-01T07:57:56.807Z</time></trkpt><trkpt lat="39.61841" lon="8.4807167"><ele>101.5</ele><time>2026-05-01T07:57:57.807Z</time></trkpt><trkpt lat="39.6183933" lon="8.480895"><ele>102.0</ele><time>2026-05-01T07:57:58.808Z</time></trkpt><trkpt lat="39.6183833" lon="8.4810683"><ele>102.0</ele><time>2026-05-01T07:57:59.807Z</time></trkpt><trkpt lat="39.6183683" lon="8.4812467"><ele>102.0</ele><time>2026-05-01T07:58:00.807Z</time></trkpt><trkpt lat="39.6183517" lon="8.4814433"><ele>102.0</ele><time>2026-05-01T07:58:01.807Z</time></trkpt><trkpt lat="39.6183317" lon="8.4816417"><ele>102.0</ele><time>2026-05-01T07:58:02.807Z</time></trkpt><trkpt lat="39.6183117" lon="8.48184"><ele>102.33333333333334</ele><time>2026-05-01T07:58:03.807Z</time></trkpt><trkpt lat="39.6182933" lon="8.4820367"><ele>102.66666666666667</ele><time>2026-05-01T07:58:04.807Z</time></trkpt><trkpt lat="39.618275" lon="8.482235"><ele>103.0</ele><time>2026-05-01T07:58:05.807Z</time></trkpt><trkpt lat="39.6182617" lon="8.4824283"><ele>104.0</ele><time>2026-05-01T07:58:06.807Z</time></trkpt><trkpt lat="39.6182517" lon="8.4826217"><ele>105.0</ele><time>2026-05-01T07:58:07.807Z</time></trkpt><trkpt lat="39.618235" lon="8.4828233"><ele>106.0</ele><time>2026-05-01T07:58:08.807Z</time></trkpt><trkpt lat="39.6182217" lon="8.4830367"><ele>107.33333333333334</ele><time>2026-05-01T07:58:09.807Z</time></trkpt><trkpt lat="39.6182133" lon="8.4832483"><ele>108.66666666666666</ele><time>2026-05-01T07:58:10.808Z</time></trkpt><trkpt lat="39.618225" lon="8.48345"><ele>110.0</ele><time>2026-05-01T07:58:11.807Z</time></trkpt><trkpt lat="39.61826" lon="8.4836567"><ele>111.33333333333333</ele><time>2026-05-01T07:58:12.807Z</time></trkpt><trkpt lat="39.618305" lon="8.4838633"><ele>112.66666666666666</ele><time>2026-05-01T07:58:13.808Z</time></trkpt><trkpt lat="39.6183517" lon="8.48406"><ele>114.0</ele><time>2026-05-01T07:58:14.808Z</time></trkpt><trkpt lat="39.6183967" lon="8.4842633"><ele>114.0</ele><time>2026-05-01T07:58:15.808Z</time></trkpt><trkpt lat="39.61844" lon="8.48446"><ele>114.0</ele><time>2026-05-01T07:58:16.807Z</time></trkpt><trkpt lat="39.6184833" lon="8.484655"><ele>114.0</ele><time>2026-05-01T07:58:17.807Z</time></trkpt><trkpt lat="39.6185233" lon="8.4848483"><ele>113.75</ele><time>2026-05-01T07:58:18.807Z</time></trkpt><trkpt lat="39.6185633" lon="8.4850333"><ele>113.5</ele><time>2026-05-01T07:58:19.807Z</time></trkpt><trkpt lat="39.6186017" lon="8.4852017"><ele>113.25</ele><time>2026-05-01T07:58:20.807Z</time></trkpt><trkpt lat="39.6186383" lon="8.485375"><ele>113.0</ele><time>2026-05-01T07:58:21.807Z</time></trkpt><trkpt lat="39.6186583" lon="8.4855517"><ele>114.75</ele><time>2026-05-01T07:58:22.807Z</time></trkpt><trkpt lat="39.61865" lon="8.4857267"><ele>116.5</ele><time>2026-05-01T07:58:23.807Z</time></trkpt><trkpt lat="39.618595" lon="8.4858933"><ele>118.25</ele><time>2026-05-01T07:58:24.807Z</time></trkpt><trkpt lat="39.6185117" lon="8.4860433"><ele>120.0</ele><time>2026-05-01T07:58:25.808Z</time></trkpt><trkpt lat="39.6184" lon="8.4861867"><ele>119.0</ele><time>2026-05-01T07:58:26.807Z</time></trkpt><trkpt lat="39.61827" lon="8.486315"><ele>118.0</ele><time>2026-05-01T07:58:27.807Z</time></trkpt><trkpt lat="39.61814" lon="8.4864533"><ele>117.0</ele><time>2026-05-01T07:58:28.807Z</time></trkpt><trkpt lat="39.61803" lon="8.4865983"><ele>117.0</ele><time>2026-05-01T07:58:29.807Z</time></trkpt><trkpt lat="39.61792" lon="8.48675"><ele>117.0</ele><time>2026-05-01T07:58:30.807Z</time></trkpt><trkpt lat="39.6178067" lon="8.4869083"><ele>117.0</ele><time>2026-05-01T07:58:31.807Z</time></trkpt><trkpt lat="39.6176917" lon="8.48707"><ele>117.33333333333334</ele><time>2026-05-01T07:58:32.807Z</time></trkpt><trkpt lat="39.617575" lon="8.4872333"><ele>117.66666666666667</ele><time>2026-05-01T07:58:33.807Z</time></trkpt><trkpt lat="39.617455" lon="8.4874017"><ele>118.0</ele><time>2026-05-01T07:58:34.807Z</time></trkpt><trkpt lat="39.61734" lon="8.4875717"><ele>118.0</ele><time>2026-05-01T07:58:35.808Z</time></trkpt><trkpt lat="39.6172217" lon="8.487745"><ele>118.0</ele><time>2026-05-01T07:58:36.807Z</time></trkpt><trkpt lat="39.6171033" lon="8.48791"><ele>118.0</ele><time>2026-05-01T07:58:37.807Z</time></trkpt><trkpt lat="39.61699" lon="8.4880783"><ele>120.33333333333334</ele><time>2026-05-01T07:58:38.807Z</time></trkpt><trkpt lat="39.6168733" lon="8.488255"><ele>122.66666666666666</ele><time>2026-05-01T07:58:39.807Z</time></trkpt><trkpt lat="39.61676" lon="8.488425"><ele>125.0</ele><time>2026-05-01T07:58:40.807Z</time></trkpt><trkpt lat="39.6166483" lon="8.488595"><ele>125.0</ele><time>2026-05-01T07:58:41.807Z</time></trkpt><trkpt lat="39.6165333" lon="8.4887567"><ele>125.0</ele><time>2026-05-01T07:58:42.807Z</time></trkpt><trkpt lat="39.6164133" lon="8.488925"><ele>125.0</ele><time>2026-05-01T07:58:43.808Z</time></trkpt><trkpt lat="39.6163067" lon="8.4890867"><ele>125.0</ele><time>2026-05-01T07:58:44.807Z</time></trkpt><trkpt lat="39.6161983" lon="8.4892483"><ele>125.0</ele><time>2026-05-01T07:58:45.807Z</time></trkpt><trkpt lat="39.6160967" lon="8.48941"><ele>125.0</ele><time>2026-05-01T07:58:46.808Z</time></trkpt><trkpt lat="39.6159983" lon="8.4895633"><ele>126.66666666666666</ele><time>2026-05-01T07:58:47.807Z</time></trkpt><trkpt lat="39.6159083" lon="8.489735"><ele>128.33333333333334</ele><time>2026-05-01T07:58:48.807Z</time></trkpt><trkpt lat="39.6158467" lon="8.4899317"><ele>130.0</ele><time>2026-05-01T07:58:49.807Z</time></trkpt><trkpt lat="39.6158033" lon="8.4901317"><ele>130.0</ele><time>2026-05-01T07:58:50.807Z</time></trkpt><trkpt lat="39.615765" lon="8.490335"><ele>130.0</ele><time>2026-05-01T07:58:51.807Z</time></trkpt><trkpt lat="39.6157267" lon="8.490545"><ele>130.0</ele><time>2026-05-01T07:58:52.807Z</time></trkpt><trkpt lat="39.6156867" lon="8.4907583"><ele>130.66666666666669</ele><time>2026-05-01T07:58:53.807Z</time></trkpt><trkpt lat="39.615645" lon="8.4909667"><ele>131.33333333333334</ele><time>2026-05-01T07:58:54.807Z</time></trkpt><trkpt lat="39.61561" lon="8.49118"><ele>132.0</ele><time>2026-05-01T07:58:55.808Z</time></trkpt><trkpt lat="39.6155767" lon="8.4913967"><ele>132.33333333333334</ele><time>2026-05-01T07:58:56.807Z</time></trkpt><trkpt lat="39.6155533" lon="8.491605"><ele>132.66666666666669</ele><time>2026-05-01T07:58:57.807Z</time></trkpt><trkpt lat="39.6155367" lon="8.4918133"><ele>133.0</ele><time>2026-05-01T07:58:58.807Z</time></trkpt><trkpt lat="39.6155217" lon="8.4920183"><ele>134.0</ele><time>2026-05-01T07:58:59.807Z</time></trkpt><trkpt lat="39.615515" lon="8.4922167"><ele>135.0</ele><time>2026-05-01T07:59:00.807Z</time></trkpt><trkpt lat="39.615505" lon="8.49241"><ele>136.0</ele><time>2026-05-01T07:59:01.807Z</time></trkpt><trkpt lat="39.615495" lon="8.4926"><ele>137.0</ele><time>2026-05-01T07:59:02.807Z</time></trkpt><trkpt lat="39.615485" lon="8.4927767"><ele>138.25</ele><time>2026-05-01T07:59:03.807Z</time></trkpt><trkpt lat="39.6154533" lon="8.4929533"><ele>139.5</ele><time>2026-05-01T07:59:04.807Z</time></trkpt><trkpt lat="39.615395" lon="8.4931133"><ele>140.75</ele><time>2026-05-01T07:59:05.807Z</time></trkpt><trkpt lat="39.6153067" lon="8.4932483"><ele>142.0</ele><time>2026-05-01T07:59:06.807Z</time></trkpt><trkpt lat="39.6151883" lon="8.4933617"><ele>143.66666666666669</ele><time>2026-05-01T07:59:07.807Z</time></trkpt><trkpt lat="39.615045" lon="8.4934533"><ele>145.33333333333334</ele><time>2026-05-01T07:59:08.808Z</time></trkpt><trkpt lat="39.6148967" lon="8.4935267"><ele>147.0</ele><time>2026-05-01T07:59:09.807Z</time></trkpt><trkpt lat="39.6147433" lon="8.4935883"><ele>147.0</ele><time>2026-05-01T07:59:10.808Z</time></trkpt><trkpt lat="39.6145967" lon="8.49365"><ele>147.0</ele><time>2026-05-01T07:59:11.807Z</time></trkpt><trkpt lat="39.6144517" lon="8.4937033"><ele>147.0</ele><time>2026-05-01T07:59:12.807Z</time></trkpt><trkpt lat="39.6143083" lon="8.4937233"><ele>147.0</ele><time>2026-05-01T07:59:13.807Z</time></trkpt><trkpt lat="39.6141683" lon="8.4937033"><ele>148.33333333333334</ele><time>2026-05-01T07:59:14.808Z</time></trkpt><trkpt lat="39.614025" lon="8.4936533"><ele>149.66666666666669</ele><time>2026-05-01T07:59:15.807Z</time></trkpt><trkpt lat="39.6138817" lon="8.4936017"><ele>151.0</ele><time>2026-05-01T07:59:16.808Z</time></trkpt><trkpt lat="39.6137267" lon="8.49358"><ele>152.5</ele><time>2026-05-01T07:59:17.808Z</time></trkpt><trkpt lat="39.613575" lon="8.4935617"><ele>154.0</ele><time>2026-05-01T07:59:18.808Z</time></trkpt><trkpt lat="39.613425" lon="8.4935567"><ele>155.5</ele><time>2026-05-01T07:59:19.807Z</time></trkpt><trkpt lat="39.61328" lon="8.4935433"><ele>157.0</ele><time>2026-05-01T07:59:20.807Z</time></trkpt><trkpt lat="39.6131333" lon="8.4935317"><ele>157.0</ele><time>2026-05-01T07:59:21.808Z</time></trkpt><trkpt lat="39.612995" lon="8.49355"><ele>157.0</ele><time>2026-05-01T07:59:22.807Z</time></trkpt><trkpt lat="39.6128567" lon="8.4936033"><ele>157.0</ele><time>2026-05-01T07:59:23.808Z</time></trkpt><trkpt lat="39.612715" lon="8.4936733"><ele>157.0</ele><time>2026-05-01T07:59:24.807Z</time></trkpt><trkpt lat="39.6125767" lon="8.4937467"><ele>161.25</ele><time>2026-05-01T07:59:25.807Z</time></trkpt><trkpt lat="39.6124533" lon="8.4938233"><ele>165.5</ele><time>2026-05-01T07:59:26.807Z</time></trkpt><trkpt lat="39.6123533" lon="8.4939317"><ele>169.75</ele><time>2026-05-01T07:59:27.808Z</time></trkpt><trkpt lat="39.6122833" lon="8.4940833"><ele>174.0</ele><time>2026-05-01T07:59:28.807Z</time></trkpt><trkpt lat="39.61222" lon="8.4942583"><ele>174.0</ele><time>2026-05-01T07:59:29.807Z</time></trkpt><trkpt lat="39.6121767" lon="8.49444"><ele>174.0</ele><time>2026-05-01T07:59:30.807Z</time></trkpt><trkpt lat="39.6121583" lon="8.4946333"><ele>174.0</ele><time>2026-05-01T07:59:31.807Z</time></trkpt><trkpt lat="39.6121783" lon="8.4948083"><ele>174.0</ele><time>2026-05-01T07:59:32.807Z</time></trkpt><trkpt lat="39.6122167" lon="8.495005"><ele>177.0</ele><time>2026-05-01T07:59:33.807Z</time></trkpt><trkpt lat="39.6122767" lon="8.4951967"><ele>180.0</ele><time>2026-05-01T07:59:34.807Z</time></trkpt><trkpt lat="39.6123517" lon="8.4953833"><ele>183.0</ele><time>2026-05-01T07:59:35.808Z</time></trkpt><trkpt lat="39.6124383" lon="8.4955667"><ele>183.0</ele><time>2026-05-01T07:59:36.807Z</time></trkpt><trkpt lat="39.6125133" lon="8.4957483"><ele>183.0</ele><time>2026-05-01T07:59:37.807Z</time></trkpt><trkpt lat="39.612565" lon="8.4959317"><ele>183.0</ele><time>2026-05-01T07:59:38.807Z</time></trkpt><trkpt lat="39.61257" lon="8.4961083"><ele>183.0</ele><time>2026-05-01T07:59:39.808Z</time></trkpt><trkpt lat="39.61253" lon="8.4962867"><ele>185.33333333333334</ele><time>2026-05-01T07:59:40.807Z</time></trkpt><trkpt lat="39.6124517" lon="8.4964767"><ele>187.66666666666669</ele><time>2026-05-01T07:59:41.807Z</time></trkpt><trkpt lat="39.6123583" lon="8.49666"><ele>190.0</ele><time>2026-05-01T07:59:42.807Z</time></trkpt><trkpt lat="39.6122633" lon="8.49684"><ele>190.0</ele><time>2026-05-01T07:59:43.807Z</time></trkpt><trkpt lat="39.6121717" lon="8.49702"><ele>190.0</ele><time>2026-05-01T07:59:44.808Z</time></trkpt><trkpt lat="39.6121" lon="8.4971967"><ele>190.0</ele><time>2026-05-01T07:59:45.808Z</time></trkpt><trkpt lat="39.6120567" lon="8.497385"><ele>194.33333333333334</ele><time>2026-05-01T07:59:46.807Z</time></trkpt><trkpt lat="39.6120467" lon="8.4975867"><ele>198.66666666666669</ele><time>2026-05-01T07:59:47.807Z</time></trkpt><trkpt lat="39.6120817" lon="8.4977883"><ele>203.0</ele><time>2026-05-01T07:59:48.807Z</time></trkpt><trkpt lat="39.612145" lon="8.4979933"><ele>203.33333333333334</ele><time>2026-05-01T07:59:49.807Z</time></trkpt><trkpt lat="39.612225" lon="8.4982017"><ele>203.66666666666669</ele><time>2026-05-01T07:59:50.808Z</time></trkpt><trkpt lat="39.6122983" lon="8.49839"><ele>204.0</ele><time>2026-05-01T07:59:51.807Z</time></trkpt><trkpt lat="39.6123617" lon="8.4985783"><ele>204.0</ele><time>2026-05-01T07:59:52.808Z</time></trkpt><trkpt lat="39.612395" lon="8.4987483"><ele>204.0</ele><time>2026-05-01T07:59:53.807Z</time></trkpt><trkpt lat="39.6123917" lon="8.4988967"><ele>204.0</ele><time>2026-05-01T07:59:54.807Z</time></trkpt><trkpt lat="39.6123483" lon="8.4990283"><ele>204.0</ele><time>2026-05-01T07:59:55.808Z</time></trkpt><trkpt lat="39.6122667" lon="8.4991467"><ele>205.5</ele><time>2026-05-01T07:59:56.808Z</time></trkpt><trkpt lat="39.6121633" lon="8.4992583"><ele>207.0</ele><time>2026-05-01T07:59:57.807Z</time></trkpt><trkpt lat="39.612045" lon="8.49935"><ele>208.5</ele><time>2026-05-01T07:59:58.807Z</time></trkpt><trkpt lat="39.6119617" lon="8.4994517"><ele>210.0</ele><time>2026-05-01T07:59:59.808Z</time></trkpt><trkpt lat="39.6119217" lon="8.499575"><ele>208.0</ele><time>2026-05-01T08:00:00.807Z</time></trkpt><trkpt lat="39.6119133" lon="8.4997333"><ele>206.0</ele><time>2026-05-01T08:00:01.808Z</time></trkpt><trkpt lat="39.6119267" lon="8.499905"><ele>204.0</ele><time>2026-05-01T08:00:02.808Z</time></trkpt><trkpt lat="39.6119583" lon="8.5000867"><ele>202.0</ele><time>2026-05-01T08:00:03.807Z</time></trkpt><trkpt lat="39.6119817" lon="8.500285"><ele>208.0</ele><time>2026-05-01T08:00:04.808Z</time></trkpt><trkpt lat="39.612" lon="8.5004867"><ele>214.0</ele><time>2026-05-01T08:00:05.807Z</time></trkpt><trkpt lat="39.6120233" lon="8.5006717"><ele>220.0</ele><time>2026-05-01T08:00:06.807Z</time></trkpt><trkpt lat="39.6120583" lon="8.50084"><ele>226.0</ele><time>2026-05-01T08:00:07.807Z</time></trkpt><trkpt lat="39.612135" lon="8.5009917"><ele>226.0</ele><time>2026-05-01T08:00:08.807Z</time></trkpt><trkpt lat="39.61224" lon="8.5011383"><ele>226.0</ele><time>2026-05-01T08:00:09.807Z</time></trkpt><trkpt lat="39.61237" lon="8.5012733"><ele>226.0</ele><time>2026-05-01T08:00:10.807Z</time></trkpt><trkpt lat="39.6125117" lon="8.5014"><ele>225.25</ele><time>2026-05-01T08:00:11.807Z</time></trkpt><trkpt lat="39.6126417" lon="8.5015267"><ele>224.5</ele><time>2026-05-01T08:00:12.807Z</time></trkpt><trkpt lat="39.6127517" lon="8.5016467"><ele>223.75</ele><time>2026-05-01T08:00:13.807Z</time></trkpt><trkpt lat="39.61284" lon="8.5017383"><ele>223.0</ele><time>2026-05-01T08:00:14.807Z</time></trkpt><trkpt lat="39.61289" lon="8.5018283"><ele>222.99999999999997</ele><time>2026-05-01T08:00:15.807Z</time></trkpt><trkpt lat="39.6129083" lon="8.5019217"><ele>223.0</ele><time>2026-05-01T08:00:16.807Z</time></trkpt><trkpt lat="39.6128883" lon="8.502"><ele>223.0</ele><time>2026-05-01T08:00:17.807Z</time></trkpt><trkpt lat="39.612835" lon="8.5020667"><ele>223.0</ele><time>2026-05-01T08:00:18.807Z</time></trkpt><trkpt lat="39.6127617" lon="8.5021"><ele>222.99999999999997</ele><time>2026-05-01T08:00:19.808Z</time></trkpt><trkpt lat="39.6126617" lon="8.5021033"><ele>223.0</ele><time>2026-05-01T08:00:20.807Z</time></trkpt><trkpt lat="39.6125383" lon="8.50208"><ele>223.0</ele><time>2026-05-01T08:00:21.808Z</time></trkpt><trkpt lat="39.6124017" lon="8.5020717"><ele>223.0</ele><time>2026-05-01T08:00:22.808Z</time></trkpt><trkpt lat="39.61226" lon="8.5020883"><ele>223.0</ele><time>2026-05-01T08:00:23.807Z</time></trkpt><trkpt lat="39.6121317" lon="8.50214"><ele>223.0</ele><time>2026-05-01T08:00:24.807Z</time></trkpt><trkpt lat="39.6120017" lon="8.502205"><ele>224.75</ele><time>2026-05-01T08:00:25.807Z</time></trkpt><trkpt lat="39.61188" lon="8.5022767"><ele>226.5</ele><time>2026-05-01T08:00:26.807Z</time></trkpt><trkpt lat="39.61176" lon="8.5023567"><ele>228.25</ele><time>2026-05-01T08:00:27.808Z</time></trkpt><trkpt lat="39.6116533" lon="8.5024683"><ele>230.0</ele><time>2026-05-01T08:00:28.807Z</time></trkpt><trkpt lat="39.6115583" lon="8.5025983"><ele>230.0</ele><time>2026-05-01T08:00:29.807Z</time></trkpt><trkpt lat="39.6114683" lon="8.502745"><ele>230.0</ele><time>2026-05-01T08:00:30.807Z</time></trkpt><trkpt lat="39.6113867" lon="8.502905"><ele>230.0</ele><time>2026-05-01T08:00:31.807Z</time></trkpt><trkpt lat="39.6113233" lon="8.5030717"><ele>230.0</ele><time>2026-05-01T08:00:32.807Z</time></trkpt><trkpt lat="39.61129" lon="8.5032417"><ele>231.75</ele><time>2026-05-01T08:00:33.807Z</time></trkpt><trkpt lat="39.61129" lon="8.5034067"><ele>233.5</ele><time>2026-05-01T08:00:34.807Z</time></trkpt><trkpt lat="39.6113183" lon="8.50357"><ele>235.25</ele><time>2026-05-01T08:00:35.808Z</time></trkpt><trkpt lat="39.611375" lon="8.50373"><ele>237.0</ele><time>2026-05-01T08:00:36.807Z</time></trkpt><trkpt lat="39.6114317" lon="8.5038833"><ele>238.5</ele><time>2026-05-01T08:00:37.807Z</time></trkpt><trkpt lat="39.6114567" lon="8.5040433"><ele>240.0</ele><time>2026-05-01T08:00:38.807Z</time></trkpt><trkpt lat="39.6114267" lon="8.5042033"><ele>241.5</ele><time>2026-05-01T08:00:39.807Z</time></trkpt><trkpt lat="39.61136" lon="8.5043483"><ele>243.0</ele><time>2026-05-01T08:00:40.807Z</time></trkpt><trkpt lat="39.61126" lon="8.50449"><ele>245.66666666666669</ele><time>2026-05-01T08:00:41.807Z</time></trkpt><trkpt lat="39.611135" lon="8.5046133"><ele>248.33333333333334</ele><time>2026-05-01T08:00:42.807Z</time></trkpt><trkpt lat="39.6110017" lon="8.5047367"><ele>251.0</ele><time>2026-05-01T08:00:43.808Z</time></trkpt><trkpt lat="39.6108617" lon="8.5048383"><ele>251.0</ele><time>2026-05-01T08:00:44.808Z</time></trkpt><trkpt lat="39.6107083" lon="8.5049317"><ele>251.0</ele><time>2026-05-01T08:00:45.807Z</time></trkpt><trkpt lat="39.610555" lon="8.5050117"><ele>251.0</ele><time>2026-05-01T08:00:46.806Z</time></trkpt><trkpt lat="39.6103933" lon="8.5050867"><ele>250.33333333333334</ele><time>2026-05-01T08:00:47.806Z</time></trkpt><trkpt lat="39.6102317" lon="8.5051617"><ele>249.66666666666669</ele><time>2026-05-01T08:00:48.806Z</time></trkpt><trkpt lat="39.61007" lon="8.5052467"><ele>249.0</ele><time>2026-05-01T08:00:49.807Z</time></trkpt><trkpt lat="39.60991" lon="8.5053383"><ele>249.0</ele><time>2026-05-01T08:00:50.806Z</time></trkpt><trkpt lat="39.60976" lon="8.5054117"><ele>249.0</ele><time>2026-05-01T08:00:51.806Z</time></trkpt><trkpt lat="39.6096167" lon="8.5054833"><ele>249.0</ele><time>2026-05-01T08:00:52.806Z</time></trkpt><trkpt lat="39.609475" lon="8.5055533"><ele>251.5</ele><time>2026-05-01T08:00:53.807Z</time></trkpt><trkpt lat="39.6093533" lon="8.50565"><ele>254.0</ele><time>2026-05-01T08:00:54.806Z</time></trkpt><trkpt lat="39.6092367" lon="8.5057767"><ele>256.5</ele><time>2026-05-01T08:00:55.806Z</time></trkpt><trkpt lat="39.609145" lon="8.5059317"><ele>259.0</ele><time>2026-05-01T08:00:56.806Z</time></trkpt><trkpt lat="39.6090733" lon="8.5060967"><ele>261.75</ele><time>2026-05-01T08:00:57.807Z</time></trkpt><trkpt lat="39.6090267" lon="8.50627"><ele>264.5</ele><time>2026-05-01T08:00:58.806Z</time></trkpt><trkpt lat="39.608995" lon="8.5064533"><ele>267.25</ele><time>2026-05-01T08:00:59.806Z</time></trkpt><trkpt lat="39.6089717" lon="8.5066417"><ele>270.0</ele><time>2026-05-01T08:01:00.807Z</time></trkpt><trkpt lat="39.6089683" lon="8.506815"><ele>270.0</ele><time>2026-05-01T08:01:01.806Z</time></trkpt><trkpt lat="39.608955" lon="8.5069683"><ele>270.0</ele><time>2026-05-01T08:01:02.806Z</time></trkpt><trkpt lat="39.6089117" lon="8.507095"><ele>270.0</ele><time>2026-05-01T08:01:03.806Z</time></trkpt><trkpt lat="39.60884" lon="8.5072083"><ele>270.0</ele><time>2026-05-01T08:01:04.806Z</time></trkpt><trkpt lat="39.6087383" lon="8.507275"><ele>271.25</ele><time>2026-05-01T08:01:05.806Z</time></trkpt><trkpt lat="39.60862" lon="8.5072933"><ele>272.5</ele><time>2026-05-01T08:01:06.806Z</time></trkpt><trkpt lat="39.6084867" lon="8.507275"><ele>273.75</ele><time>2026-05-01T08:01:07.806Z</time></trkpt><trkpt lat="39.608345" lon="8.507225"><ele>275.0</ele><time>2026-05-01T08:01:08.807Z</time></trkpt><trkpt lat="39.6082067" lon="8.5071783"><ele>275.0</ele><time>2026-05-01T08:01:09.807Z</time></trkpt><trkpt lat="39.6080817" lon="8.5071583"><ele>275.0</ele><time>2026-05-01T08:01:10.806Z</time></trkpt><trkpt lat="39.60796" lon="8.5071867"><ele>275.0</ele><time>2026-05-01T08:01:11.806Z</time></trkpt><trkpt lat="39.60785" lon="8.50726"><ele>275.0</ele><time>2026-05-01T08:01:12.806Z</time></trkpt><trkpt lat="39.60775" lon="8.50737"><ele>275.0</ele><time>2026-05-01T08:01:13.806Z</time></trkpt><trkpt lat="39.6076583" lon="8.507505"><ele>275.0</ele><time>2026-05-01T08:01:14.806Z</time></trkpt><trkpt lat="39.60756" lon="8.507655"><ele>275.0</ele><time>2026-05-01T08:01:15.806Z</time></trkpt><trkpt lat="39.6074533" lon="8.50781"><ele>279.0</ele><time>2026-05-01T08:01:16.806Z</time></trkpt><trkpt lat="39.6073467" lon="8.5079717"><ele>283.0</ele><time>2026-05-01T08:01:17.807Z</time></trkpt><trkpt lat="39.60724" lon="8.5081217"><ele>287.0</ele><time>2026-05-01T08:01:18.806Z</time></trkpt><trkpt lat="39.6071283" lon="8.5082683"><ele>287.0</ele><time>2026-05-01T08:01:19.807Z</time></trkpt><trkpt lat="39.60703" lon="8.508415"><ele>287.0</ele><time>2026-05-01T08:01:20.806Z</time></trkpt><trkpt lat="39.6069283" lon="8.5085717"><ele>287.0</ele><time>2026-05-01T08:01:21.806Z</time></trkpt><trkpt lat="39.6068217" lon="8.5087217"><ele>287.33333333333337</ele><time>2026-05-01T08:01:22.807Z</time></trkpt><trkpt lat="39.6067183" lon="8.508865"><ele>287.6666666666667</ele><time>2026-05-01T08:01:23.807Z</time></trkpt><trkpt lat="39.606615" lon="8.5090117"><ele>288.0</ele><time>2026-05-01T08:01:24.806Z</time></trkpt><trkpt lat="39.6065183" lon="8.5091533"><ele>288.0</ele><time>2026-05-01T08:01:25.807Z</time></trkpt><trkpt lat="39.606425" lon="8.50929"><ele>288.0</ele><time>2026-05-01T08:01:26.806Z</time></trkpt><trkpt lat="39.6063317" lon="8.5094267"><ele>288.0</ele><time>2026-05-01T08:01:27.806Z</time></trkpt><trkpt lat="39.6062517" lon="8.50956"><ele>288.0</ele><time>2026-05-01T08:01:28.806Z</time></trkpt><trkpt lat="39.6061883" lon="8.5097183"><ele>289.0</ele><time>2026-05-01T08:01:29.807Z</time></trkpt><trkpt lat="39.606155" lon="8.5099033"><ele>290.0</ele><time>2026-05-01T08:01:30.806Z</time></trkpt><trkpt lat="39.60615" lon="8.5101"><ele>291.0</ele><time>2026-05-01T08:01:31.806Z</time></trkpt><trkpt lat="39.60617" lon="8.5102967"><ele>290.3333333333333</ele><time>2026-05-01T08:01:32.806Z</time></trkpt><trkpt lat="39.6062233" lon="8.5104917"><ele>289.66666666666663</ele><time>2026-05-01T08:01:33.806Z</time></trkpt><trkpt lat="39.6062933" lon="8.5106733"><ele>289.0</ele><time>2026-05-01T08:01:34.807Z</time></trkpt><trkpt lat="39.6063633" lon="8.5108633"><ele>289.0</ele><time>2026-05-01T08:01:35.806Z</time></trkpt><trkpt lat="39.60643" lon="8.5110617"><ele>289.0</ele><time>2026-05-01T08:01:36.806Z</time></trkpt><trkpt lat="39.6064867" lon="8.511255"><ele>289.0</ele><time>2026-05-01T08:01:37.806Z</time></trkpt><trkpt lat="39.6065367" lon="8.5114483"><ele>287.25</ele><time>2026-05-01T08:01:38.806Z</time></trkpt><trkpt lat="39.60658" lon="8.5116233"><ele>285.5</ele><time>2026-05-01T08:01:39.806Z</time></trkpt><trkpt lat="39.6066283" lon="8.5117883"><ele>283.75</ele><time>2026-05-01T08:01:40.807Z</time></trkpt><trkpt lat="39.606685" lon="8.5119483"><ele>282.0</ele><time>2026-05-01T08:01:41.806Z</time></trkpt><trkpt lat="39.6067383" lon="8.5121083"><ele>281.0</ele><time>2026-05-01T08:01:42.807Z</time></trkpt><trkpt lat="39.6067833" lon="8.5122717"><ele>280.0</ele><time>2026-05-01T08:01:43.806Z</time></trkpt><trkpt lat="39.6068067" lon="8.5124533"><ele>279.0</ele><time>2026-05-01T08:01:44.807Z</time></trkpt><trkpt lat="39.6068033" lon="8.5126367"><ele>278.0</ele><time>2026-05-01T08:01:45.806Z</time></trkpt><trkpt lat="39.6067783" lon="8.512815"><ele>279.25</ele><time>2026-05-01T08:01:46.807Z</time></trkpt><trkpt lat="39.6067383" lon="8.5129983"><ele>280.5</ele><time>2026-05-01T08:01:47.806Z</time></trkpt><trkpt lat="39.6066867" lon="8.513185"><ele>281.75</ele><time>2026-05-01T08:01:48.806Z</time></trkpt><trkpt lat="39.6066383" lon="8.5133667"><ele>283.0</ele><time>2026-05-01T08:01:49.806Z</time></trkpt><trkpt lat="39.6066" lon="8.5135433"><ele>283.0</ele><time>2026-05-01T08:01:50.806Z</time></trkpt><trkpt lat="39.6065817" lon="8.513715"><ele>283.0</ele><time>2026-05-01T08:01:51.806Z</time></trkpt><trkpt lat="39.60658" lon="8.513875"><ele>283.0</ele><time>2026-05-01T08:01:52.806Z</time></trkpt><trkpt lat="39.6066017" lon="8.5140367"><ele>283.0</ele><time>2026-05-01T08:01:53.807Z</time></trkpt><trkpt lat="39.6066567" lon="8.514185"><ele>282.75</ele><time>2026-05-01T08:01:54.806Z</time></trkpt><trkpt lat="39.6067383" lon="8.5143217"><ele>282.5</ele><time>2026-05-01T08:01:55.806Z</time></trkpt><trkpt lat="39.6068417" lon="8.5144283"><ele>282.25</ele><time>2026-05-01T08:01:56.806Z</time></trkpt><trkpt lat="39.606965" lon="8.5145317"><ele>282.0</ele><time>2026-05-01T08:01:57.807Z</time></trkpt><trkpt lat="39.6071033" lon="8.514615"><ele>282.0</ele><time>2026-05-01T08:01:58.806Z</time></trkpt><trkpt lat="39.6072517" lon="8.51469"><ele>282.0</ele><time>2026-05-01T08:01:59.807Z</time></trkpt><trkpt lat="39.6074033" lon="8.5147683"><ele>282.0</ele><time>2026-05-01T08:02:00.807Z</time></trkpt><trkpt lat="39.6075583" lon="8.5148567"><ele>282.0</ele><time>2026-05-01T08:02:01.806Z</time></trkpt><trkpt lat="39.60771" lon="8.5149367"><ele>282.0</ele><time>2026-05-01T08:02:02.807Z</time></trkpt><trkpt lat="39.6078567" lon="8.5150183"><ele>282.0</ele><time>2026-05-01T08:02:03.807Z</time></trkpt><trkpt lat="39.608005" lon="8.5150983"><ele>283.6666666666667</ele><time>2026-05-01T08:02:04.806Z</time></trkpt><trkpt lat="39.6081517" lon="8.51517"><ele>285.33333333333337</ele><time>2026-05-01T08:02:05.806Z</time></trkpt><trkpt lat="39.6082983" lon="8.5152317"><ele>287.0</ele><time>2026-05-01T08:02:06.806Z</time></trkpt><trkpt lat="39.6084417" lon="8.51528"><ele>287.0</ele><time>2026-05-01T08:02:07.807Z</time></trkpt><trkpt lat="39.608585" lon="8.515325"><ele>287.0</ele><time>2026-05-01T08:02:08.806Z</time></trkpt><trkpt lat="39.6087417" lon="8.5153667"><ele>287.0</ele><time>2026-05-01T08:02:09.806Z</time></trkpt><trkpt lat="39.6088933" lon="8.5154117"><ele>285.0</ele><time>2026-05-01T08:02:10.806Z</time></trkpt><trkpt lat="39.6090483" lon="8.51545"><ele>283.0</ele><time>2026-05-01T08:02:11.807Z</time></trkpt><trkpt lat="39.6091917" lon="8.515495"><ele>281.0</ele><time>2026-05-01T08:02:12.807Z</time></trkpt><trkpt lat="39.609335" lon="8.5155367"><ele>281.0</ele><time>2026-05-01T08:02:13.806Z</time></trkpt><trkpt lat="39.6094717" lon="8.5155733"><ele>281.0</ele><time>2026-05-01T08:02:14.806Z</time></trkpt><trkpt lat="39.6096033" lon="8.51561"><ele>281.0</ele><time>2026-05-01T08:02:15.806Z</time></trkpt><trkpt lat="39.6097233" lon="8.5156467"><ele>281.0</ele><time>2026-05-01T08:02:16.807Z</time></trkpt><trkpt lat="39.609835" lon="8.515685"><ele>281.8</ele><time>2026-05-01T08:02:17.806Z</time></trkpt><trkpt lat="39.6099383" lon="8.5157233"><ele>282.6</ele><time>2026-05-01T08:02:18.806Z</time></trkpt><trkpt lat="39.610025" lon="8.51577"><ele>283.4</ele><time>2026-05-01T08:02:19.807Z</time></trkpt><trkpt lat="39.610105" lon="8.5158317"><ele>284.2</ele><time>2026-05-01T08:02:20.806Z</time></trkpt><trkpt lat="39.6101817" lon="8.515915"><ele>285.0</ele><time>2026-05-01T08:02:21.806Z</time></trkpt><trkpt lat="39.6102317" lon="8.51603"><ele>285.0</ele><time>2026-05-01T08:02:22.807Z</time></trkpt><trkpt lat="39.6102667" lon="8.5161667"><ele>285.0</ele><time>2026-05-01T08:02:23.807Z</time></trkpt><trkpt lat="39.6102733" lon="8.516325"><ele>285.0</ele><time>2026-05-01T08:02:24.806Z</time></trkpt><trkpt lat="39.610255" lon="8.516485"><ele>285.0</ele><time>2026-05-01T08:02:25.806Z</time></trkpt><trkpt lat="39.6102317" lon="8.516655"><ele>283.75</ele><time>2026-05-01T08:02:26.806Z</time></trkpt><trkpt lat="39.6102083" lon="8.516835"><ele>282.5</ele><time>2026-05-01T08:02:27.806Z</time></trkpt><trkpt lat="39.61018" lon="8.51701"><ele>281.25</ele><time>2026-05-01T08:02:28.806Z</time></trkpt><trkpt lat="39.6101383" lon="8.5171783"><ele>280.0</ele><time>2026-05-01T08:02:29.806Z</time></trkpt><trkpt lat="39.610075" lon="8.5173383"><ele>280.0</ele><time>2026-05-01T08:02:30.807Z</time></trkpt><trkpt lat="39.6099983" lon="8.5175017"><ele>280.0</ele><time>2026-05-01T08:02:31.806Z</time></trkpt><trkpt lat="39.6099117" lon="8.5176717"><ele>280.0</ele><time>2026-05-01T08:02:32.806Z</time></trkpt><trkpt lat="39.60984" lon="8.5178467"><ele>281.25</ele><time>2026-05-01T08:02:33.806Z</time></trkpt><trkpt lat="39.6097867" lon="8.5180317"><ele>282.5</ele><time>2026-05-01T08:02:34.806Z</time></trkpt><trkpt lat="39.6097433" lon="8.5182117"><ele>283.75</ele><time>2026-05-01T08:02:35.806Z</time></trkpt><trkpt lat="39.6097233" lon="8.518375"><ele>285.0</ele><time>2026-05-01T08:02:36.806Z</time></trkpt><trkpt lat="39.6097167" lon="8.5185333"><ele>285.0</ele><time>2026-05-01T08:02:37.806Z</time></trkpt><trkpt lat="39.609735" lon="8.5187033"><ele>285.0</ele><time>2026-05-01T08:02:38.806Z</time></trkpt><trkpt lat="39.6097783" lon="8.5188833"><ele>285.0</ele><time>2026-05-01T08:02:39.806Z</time></trkpt><trkpt lat="39.60984" lon="8.5190633"><ele>285.0</ele><time>2026-05-01T08:02:40.807Z</time></trkpt><trkpt lat="39.6098983" lon="8.5192533"><ele>283.3333333333333</ele><time>2026-05-01T08:02:41.806Z</time></trkpt><trkpt lat="39.6099617" lon="8.5194517"><ele>281.66666666666663</ele><time>2026-05-01T08:02:42.806Z</time></trkpt><trkpt lat="39.61003" lon="8.5196433"><ele>280.0</ele><time>2026-05-01T08:02:43.807Z</time></trkpt><trkpt lat="39.610105" lon="8.5198317"><ele>277.0</ele><time>2026-05-01T08:02:44.806Z</time></trkpt><trkpt lat="39.6101817" lon="8.5200133"><ele>274.0</ele><time>2026-05-01T08:02:45.806Z</time></trkpt><trkpt lat="39.6102633" lon="8.520185"><ele>271.0</ele><time>2026-05-01T08:02:46.806Z</time></trkpt><trkpt lat="39.61033" lon="8.52035"><ele>274.5</ele><time>2026-05-01T08:02:47.806Z</time></trkpt><trkpt lat="39.610395" lon="8.5205167"><ele>278.0</ele><time>2026-05-01T08:02:48.806Z</time></trkpt><trkpt lat="39.6104667" lon="8.5206717"><ele>281.5</ele><time>2026-05-01T08:02:49.806Z</time></trkpt><trkpt lat="39.6105217" lon="8.520805"><ele>285.0</ele><time>2026-05-01T08:02:50.806Z</time></trkpt><trkpt lat="39.6105417" lon="8.520915"><ele>285.0</ele><time>2026-05-01T08:02:51.807Z</time></trkpt><trkpt lat="39.6105283" lon="8.5210067"><ele>285.0</ele><time>2026-05-01T08:02:52.807Z</time></trkpt><trkpt lat="39.610475" lon="8.5210917"><ele>285.0</ele><time>2026-05-01T08:02:53.806Z</time></trkpt><trkpt lat="39.6103833" lon="8.5211683"><ele>285.0</ele><time>2026-05-01T08:02:54.806Z</time></trkpt><trkpt lat="39.6102667" lon="8.5212617"><ele>285.0</ele><time>2026-05-01T08:02:55.806Z</time></trkpt><trkpt lat="39.6101367" lon="8.5213733"><ele>283.5</ele><time>2026-05-01T08:02:56.807Z</time></trkpt><trkpt lat="39.6100183" lon="8.5214783"><ele>282.0</ele><time>2026-05-01T08:02:57.807Z</time></trkpt><trkpt lat="39.6099033" lon="8.5215733"><ele>280.5</ele><time>2026-05-01T08:02:58.807Z</time></trkpt><trkpt lat="39.60981" lon="8.5216717"><ele>279.0</ele><time>2026-05-01T08:02:59.807Z</time></trkpt><trkpt lat="39.60974" lon="8.5218017"><ele>279.0</ele><time>2026-05-01T08:03:00.806Z</time></trkpt><trkpt lat="39.609695" lon="8.5219483"><ele>279.0</ele><time>2026-05-01T08:03:01.806Z</time></trkpt><trkpt lat="39.6096517" lon="8.5220667"><ele>279.0</ele><time>2026-05-01T08:03:02.806Z</time></trkpt><trkpt lat="39.6095883" lon="8.522155"><ele>279.0</ele><time>2026-05-01T08:03:03.806Z</time></trkpt><trkpt lat="39.609495" lon="8.5222067"><ele>279.0</ele><time>2026-05-01T08:03:04.807Z</time></trkpt><trkpt lat="39.6093917" lon="8.52221"><ele>277.5</ele><time>2026-05-01T08:03:05.806Z</time></trkpt><trkpt lat="39.6092867" lon="8.52217"><ele>276.0</ele><time>2026-05-01T08:03:06.807Z</time></trkpt><trkpt lat="39.6091917" lon="8.52207"><ele>274.5</ele><time>2026-05-01T08:03:07.806Z</time></trkpt><trkpt lat="39.6090933" lon="8.5219283"><ele>273.0</ele><time>2026-05-01T08:03:08.807Z</time></trkpt><trkpt lat="39.608985" lon="8.5217767"><ele>273.0</ele><time>2026-05-01T08:03:09.807Z</time></trkpt><trkpt lat="39.6088717" lon="8.5216133"><ele>273.0</ele><time>2026-05-01T08:03:10.807Z</time></trkpt><trkpt lat="39.6087567" lon="8.5214667"><ele>273.0</ele><time>2026-05-01T08:03:11.806Z</time></trkpt><trkpt lat="39.60864" lon="8.521325"><ele>272.0</ele><time>2026-05-01T08:03:12.806Z</time></trkpt><trkpt lat="39.6085217" lon="8.521205"><ele>271.0</ele><time>2026-05-01T08:03:13.806Z</time></trkpt><trkpt lat="39.6083883" lon="8.5210983"><ele>270.0</ele><time>2026-05-01T08:03:14.806Z</time></trkpt><trkpt lat="39.608265" lon="8.5210083"><ele>269.0</ele><time>2026-05-01T08:03:15.807Z</time></trkpt><trkpt lat="39.608145" lon="8.520935"><ele>269.0</ele><time>2026-05-01T08:03:16.806Z</time></trkpt><trkpt lat="39.6080217" lon="8.5208833"><ele>269.0</ele><time>2026-05-01T08:03:17.806Z</time></trkpt><trkpt lat="39.6078867" lon="8.52086"><ele>269.0</ele><time>2026-05-01T08:03:18.806Z</time></trkpt><trkpt lat="39.6077467" lon="8.5208767"><ele>269.0</ele><time>2026-05-01T08:03:19.806Z</time></trkpt><trkpt lat="39.6076" lon="8.520915"><ele>270.0</ele><time>2026-05-01T08:03:20.806Z</time></trkpt><trkpt lat="39.6074517" lon="8.5209617"><ele>271.0</ele><time>2026-05-01T08:03:21.806Z</time></trkpt><trkpt lat="39.60729" lon="8.5210167"><ele>272.0</ele><time>2026-05-01T08:03:22.806Z</time></trkpt><trkpt lat="39.6071417" lon="8.5211017"><ele>272.0</ele><time>2026-05-01T08:03:23.807Z</time></trkpt><trkpt lat="39.6069967" lon="8.5212017"><ele>272.0</ele><time>2026-05-01T08:03:24.806Z</time></trkpt><trkpt lat="39.6068583" lon="8.5213"><ele>272.0</ele><time>2026-05-01T08:03:25.806Z</time></trkpt><trkpt lat="39.606735" lon="8.5214067"><ele>273.75</ele><time>2026-05-01T08:03:26.806Z</time></trkpt><trkpt lat="39.6066367" lon="8.5215183"><ele>275.5</ele><time>2026-05-01T08:03:27.807Z</time></trkpt><trkpt lat="39.6065583" lon="8.5216333"><ele>277.25</ele><time>2026-05-01T08:03:28.806Z</time></trkpt><trkpt lat="39.6065067" lon="8.5217667"><ele>279.0</ele><time>2026-05-01T08:03:29.806Z</time></trkpt><trkpt lat="39.6064867" lon="8.52193"><ele>280.75</ele><time>2026-05-01T08:03:30.806Z</time></trkpt><trkpt lat="39.606475" lon="8.5221"><ele>282.5</ele><time>2026-05-01T08:03:31.806Z</time></trkpt><trkpt lat="39.60647" lon="8.5222617"><ele>284.25</ele><time>2026-05-01T08:03:32.807Z</time></trkpt><trkpt lat="39.6064433" lon="8.5224017"><ele>286.0</ele><time>2026-05-01T08:03:33.807Z</time></trkpt><trkpt lat="39.6063833" lon="8.5225117"><ele>286.0</ele><time>2026-05-01T08:03:34.806Z</time></trkpt><trkpt lat="39.6062867" lon="8.522595"><ele>286.0</ele><time>2026-05-01T08:03:35.806Z</time></trkpt><trkpt lat="39.6061583" lon="8.5226383"><ele>286.0</ele><time>2026-05-01T08:03:36.806Z</time></trkpt><trkpt lat="39.6060267" lon="8.5226567"><ele>286.0</ele><time>2026-05-01T08:03:37.806Z</time></trkpt><trkpt lat="39.6058817" lon="8.5226467"><ele>283.75</ele><time>2026-05-01T08:03:38.807Z</time></trkpt><trkpt lat="39.60573" lon="8.522645"><ele>281.5</ele><time>2026-05-01T08:03:39.807Z</time></trkpt><trkpt lat="39.60559" lon="8.5226483"><ele>279.25</ele><time>2026-05-01T08:03:40.806Z</time></trkpt><trkpt lat="39.6054683" lon="8.5226667"><ele>277.0</ele><time>2026-05-01T08:03:41.806Z</time></trkpt><trkpt lat="39.60536" lon="8.5227367"><ele>276.75</ele><time>2026-05-01T08:03:42.806Z</time></trkpt><trkpt lat="39.6052567" lon="8.5228417"><ele>276.5</ele><time>2026-05-01T08:03:43.806Z</time></trkpt><trkpt lat="39.6051517" lon="8.5229833"><ele>276.25</ele><time>2026-05-01T08:03:44.806Z</time></trkpt><trkpt lat="39.605045" lon="8.5231283"><ele>276.0</ele><time>2026-05-01T08:03:45.806Z</time></trkpt><trkpt lat="39.604935" lon="8.5232483"><ele>278.40000000000003</ele><time>2026-05-01T08:03:46.807Z</time></trkpt><trkpt lat="39.60485" lon="8.5233333"><ele>280.8</ele><time>2026-05-01T08:03:47.806Z</time></trkpt><trkpt lat="39.6047917" lon="8.523395"><ele>283.20000000000005</ele><time>2026-05-01T08:03:48.806Z</time></trkpt><trkpt lat="39.6047083" lon="8.523495"><ele>285.6</ele><time>2026-05-01T08:03:50.807Z</time></trkpt><trkpt lat="39.60466" lon="8.52356"><ele>288.0</ele><time>2026-05-01T08:03:51.807Z</time></trkpt><trkpt lat="39.6045967" lon="8.5236467"><ele>287.0</ele><time>2026-05-01T08:03:52.806Z</time></trkpt><trkpt lat="39.6045333" lon="8.52376"><ele>286.0</ele><time>2026-05-01T08:03:53.807Z</time></trkpt><trkpt lat="39.6044733" lon="8.5238883"><ele>285.0</ele><time>2026-05-01T08:03:54.806Z</time></trkpt><trkpt lat="39.604435" lon="8.5240183"><ele>284.0</ele><time>2026-05-01T08:03:55.806Z</time></trkpt><trkpt lat="39.6044067" lon="8.5241533"><ele>283.0</ele><time>2026-05-01T08:03:56.806Z</time></trkpt><trkpt lat="39.6044067" lon="8.5242883"><ele>283.0</ele><time>2026-05-01T08:03:57.806Z</time></trkpt><trkpt lat="39.6044283" lon="8.52444"><ele>283.0</ele><time>2026-05-01T08:03:58.806Z</time></trkpt><trkpt lat="39.6044467" lon="8.5245883"><ele>283.0</ele><time>2026-05-01T08:03:59.806Z</time></trkpt><trkpt lat="39.6044467" lon="8.5247167"><ele>283.0</ele><time>2026-05-01T08:04:00.807Z</time></trkpt><trkpt lat="39.6044217" lon="8.5248217"><ele>283.0</ele><time>2026-05-01T08:04:01.807Z</time></trkpt><trkpt lat="39.60437" lon="8.5249117"><ele>284.5</ele><time>2026-05-01T08:04:02.806Z</time></trkpt><trkpt lat="39.6042867" lon="8.5249933"><ele>286.0</ele><time>2026-05-01T08:04:03.807Z</time></trkpt><trkpt lat="39.6041783" lon="8.5250833"><ele>287.5</ele><time>2026-05-01T08:04:04.806Z</time></trkpt><trkpt lat="39.60407" lon="8.5251817"><ele>289.0</ele><time>2026-05-01T08:04:05.806Z</time></trkpt><trkpt lat="39.60398" lon="8.5253"><ele>291.75</ele><time>2026-05-01T08:04:06.806Z</time></trkpt><trkpt lat="39.6039233" lon="8.525445"><ele>294.5</ele><time>2026-05-01T08:04:07.806Z</time></trkpt><trkpt lat="39.6038767" lon="8.5256083"><ele>297.25</ele><time>2026-05-01T08:04:08.806Z</time></trkpt><trkpt lat="39.6038333" lon="8.52579"><ele>300.0</ele><time>2026-05-01T08:04:09.806Z</time></trkpt><trkpt lat="39.603795" lon="8.5259683"><ele>300.0</ele><time>2026-05-01T08:04:10.806Z</time></trkpt><trkpt lat="39.6037733" lon="8.5261417"><ele>300.0</ele><time>2026-05-01T08:04:11.806Z</time></trkpt><trkpt lat="39.6037817" lon="8.5262917"><ele>300.0</ele><time>2026-05-01T08:04:12.806Z</time></trkpt><trkpt lat="39.6038083" lon="8.526425"><ele>300.0</ele><time>2026-05-01T08:04:13.806Z</time></trkpt><trkpt lat="39.6038283" lon="8.5265417"><ele>300.0</ele><time>2026-05-01T08:04:14.806Z</time></trkpt><trkpt lat="39.60381" lon="8.52665"><ele>300.4</ele><time>2026-05-01T08:04:15.806Z</time></trkpt><trkpt lat="39.6037667" lon="8.5267217"><ele>300.8</ele><time>2026-05-01T08:04:16.807Z</time></trkpt><trkpt lat="39.6036267" lon="8.52677"><ele>301.2</ele><time>2026-05-01T08:04:18.807Z</time></trkpt><trkpt lat="39.6035367" lon="8.5267233"><ele>301.6</ele><time>2026-05-01T08:04:19.806Z</time></trkpt><trkpt lat="39.6034333" lon="8.5266433"><ele>302.0</ele><time>2026-05-01T08:04:20.806Z</time></trkpt><trkpt lat="39.6033117" lon="8.5265683"><ele>302.0</ele><time>2026-05-01T08:04:21.806Z</time></trkpt><trkpt lat="39.6031767" lon="8.5265033"><ele>302.0</ele><time>2026-05-01T08:04:22.806Z</time></trkpt><trkpt lat="39.60304" lon="8.5264617"><ele>302.0</ele><time>2026-05-01T08:04:23.806Z</time></trkpt><trkpt lat="39.6029133" lon="8.5264433"><ele>302.0</ele><time>2026-05-01T08:04:24.805Z</time></trkpt><trkpt lat="39.6027883" lon="8.5264517"><ele>301.75</ele><time>2026-05-01T08:04:25.805Z</time></trkpt><trkpt lat="39.60266" lon="8.526495"><ele>301.5</ele><time>2026-05-01T08:04:26.806Z</time></trkpt><trkpt lat="39.602535" lon="8.5265733"><ele>301.25</ele><time>2026-05-01T08:04:27.805Z</time></trkpt><trkpt lat="39.6023917" lon="8.5266483"><ele>301.0</ele><time>2026-05-01T08:04:28.806Z</time></trkpt><trkpt lat="39.6022483" lon="8.5267333"><ele>301.0</ele><time>2026-05-01T08:04:29.805Z</time></trkpt><trkpt lat="39.60211" lon="8.52682"><ele>301.0</ele><time>2026-05-01T08:04:30.805Z</time></trkpt><trkpt lat="39.601965" lon="8.5268867"><ele>301.0</ele><time>2026-05-01T08:04:31.805Z</time></trkpt><trkpt lat="39.6018333" lon="8.5269383"><ele>301.0</ele><time>2026-05-01T08:04:32.805Z</time></trkpt><trkpt lat="39.6017133" lon="8.5269983"><ele>302.5</ele><time>2026-05-01T08:04:33.806Z</time></trkpt><trkpt lat="39.6016183" lon="8.527085"><ele>304.0</ele><time>2026-05-01T08:04:34.806Z</time></trkpt><trkpt lat="39.6015483" lon="8.5272117"><ele>305.5</ele><time>2026-05-01T08:04:35.805Z</time></trkpt><trkpt lat="39.6014933" lon="8.5273667"><ele>307.0</ele><time>2026-05-01T08:04:36.805Z</time></trkpt><trkpt lat="39.6014417" lon="8.5275367"><ele>307.0</ele><time>2026-05-01T08:04:37.805Z</time></trkpt><trkpt lat="39.6013833" lon="8.5277083"><ele>307.0</ele><time>2026-05-01T08:04:38.805Z</time></trkpt><trkpt lat="39.6013167" lon="8.5278633"><ele>307.0</ele><time>2026-05-01T08:04:39.805Z</time></trkpt><trkpt lat="39.60123" lon="8.5280117"><ele>307.0</ele><time>2026-05-01T08:04:40.805Z</time></trkpt><trkpt lat="39.60113" lon="8.528145"><ele>306.3333333333333</ele><time>2026-05-01T08:04:41.805Z</time></trkpt><trkpt lat="39.6010167" lon="8.52827"><ele>305.6666666666667</ele><time>2026-05-01T08:04:42.805Z</time></trkpt><trkpt lat="39.60089" lon="8.5283867"><ele>305.0</ele><time>2026-05-01T08:04:43.805Z</time></trkpt><trkpt lat="39.6007517" lon="8.528485"><ele>305.0</ele><time>2026-05-01T08:04:44.805Z</time></trkpt><trkpt lat="39.6006167" lon="8.5285683"><ele>305.0</ele><time>2026-05-01T08:04:45.805Z</time></trkpt><trkpt lat="39.600505" lon="8.528655"><ele>305.0</ele><time>2026-05-01T08:04:46.806Z</time></trkpt><trkpt lat="39.60041" lon="8.528745"><ele>305.0</ele><time>2026-05-01T08:04:47.806Z</time></trkpt><trkpt lat="39.6003383" lon="8.528855"><ele>303.5</ele><time>2026-05-01T08:04:48.805Z</time></trkpt><trkpt lat="39.600295" lon="8.529005"><ele>302.0</ele><time>2026-05-01T08:04:49.805Z</time></trkpt><trkpt lat="39.6002517" lon="8.5291783"><ele>300.5</ele><time>2026-05-01T08:04:50.806Z</time></trkpt><trkpt lat="39.6002167" lon="8.5293667"><ele>299.0</ele><time>2026-05-01T08:04:51.805Z</time></trkpt><trkpt lat="39.6001717" lon="8.529555"><ele>299.5</ele><time>2026-05-01T08:04:52.806Z</time></trkpt><trkpt lat="39.60013" lon="8.5297467"><ele>300.0</ele><time>2026-05-01T08:04:53.805Z</time></trkpt><trkpt lat="39.600085" lon="8.5299333"><ele>300.5</ele><time>2026-05-01T08:04:54.805Z</time></trkpt><trkpt lat="39.600035" lon="8.5301083"><ele>301.0</ele><time>2026-05-01T08:04:55.806Z</time></trkpt><trkpt lat="39.59999" lon="8.5302767"><ele>302.25</ele><time>2026-05-01T08:04:56.805Z</time></trkpt><trkpt lat="39.5999467" lon="8.5304383"><ele>303.5</ele><time>2026-05-01T08:04:57.805Z</time></trkpt><trkpt lat="39.5999067" lon="8.5306017"><ele>304.75</ele><time>2026-05-01T08:04:58.805Z</time></trkpt><trkpt lat="39.5998683" lon="8.53076"><ele>306.0</ele><time>2026-05-01T08:04:59.805Z</time></trkpt><trkpt lat="39.5998233" lon="8.5309117"><ele>306.0</ele><time>2026-05-01T08:05:00.806Z</time></trkpt><trkpt lat="39.59978" lon="8.5310717"><ele>306.0</ele><time>2026-05-01T08:05:01.806Z</time></trkpt><trkpt lat="39.59974" lon="8.53122"><ele>306.0</ele><time>2026-05-01T08:05:02.805Z</time></trkpt><trkpt lat="39.5996933" lon="8.5313383"><ele>306.0</ele><time>2026-05-01T08:05:03.806Z</time></trkpt><trkpt lat="39.5996217" lon="8.53143"><ele>306.0</ele><time>2026-05-01T08:05:04.805Z</time></trkpt><trkpt lat="39.5995283" lon="8.5314967"><ele>306.0</ele><time>2026-05-01T08:05:05.806Z</time></trkpt><trkpt lat="39.5994133" lon="8.5315433"><ele>306.0</ele><time>2026-05-01T08:05:06.806Z</time></trkpt><trkpt lat="39.599285" lon="8.5315733"><ele>306.0</ele><time>2026-05-01T08:05:07.805Z</time></trkpt><trkpt lat="39.5991417" lon="8.5316233"><ele>306.0</ele><time>2026-05-01T08:05:08.805Z</time></trkpt><trkpt lat="39.5989933" lon="8.5316733"><ele>306.0</ele><time>2026-05-01T08:05:09.805Z</time></trkpt><trkpt lat="39.5988517" lon="8.5317183"><ele>306.0</ele><time>2026-05-01T08:05:10.805Z</time></trkpt><trkpt lat="39.5987133" lon="8.53176"><ele>306.0</ele><time>2026-05-01T08:05:11.806Z</time></trkpt><trkpt lat="39.5985783" lon="8.5318083"><ele>305.0</ele><time>2026-05-01T08:05:12.805Z</time></trkpt><trkpt lat="39.5984583" lon="8.5318583"><ele>304.0</ele><time>2026-05-01T08:05:13.806Z</time></trkpt><trkpt lat="39.5983533" lon="8.531925"><ele>303.0</ele><time>2026-05-01T08:05:14.805Z</time></trkpt><trkpt lat="39.5982533" lon="8.53202"><ele>302.0</ele><time>2026-05-01T08:05:15.806Z</time></trkpt><trkpt lat="39.5981633" lon="8.5321317"><ele>303.25</ele><time>2026-05-01T08:05:16.805Z</time></trkpt><trkpt lat="39.598065" lon="8.5322533"><ele>304.5</ele><time>2026-05-01T08:05:17.806Z</time></trkpt><trkpt lat="39.5979683" lon="8.53237"><ele>305.75</ele><time>2026-05-01T08:05:18.806Z</time></trkpt><trkpt lat="39.5978783" lon="8.5324833"><ele>307.0</ele><time>2026-05-01T08:05:19.806Z</time></trkpt><trkpt lat="39.5977967" lon="8.5325767"><ele>307.0</ele><time>2026-05-01T08:05:20.806Z</time></trkpt><trkpt lat="39.5977167" lon="8.5326517"><ele>307.0</ele><time>2026-05-01T08:05:21.805Z</time></trkpt><trkpt lat="39.5976333" lon="8.5326917"><ele>307.0</ele><time>2026-05-01T08:05:22.805Z</time></trkpt><trkpt lat="39.59755" lon="8.53268"><ele>307.0</ele><time>2026-05-01T08:05:23.805Z</time></trkpt><trkpt lat="39.59747" lon="8.5326267"><ele>307.0</ele><time>2026-05-01T08:05:24.806Z</time></trkpt><trkpt lat="39.5973967" lon="8.532535"><ele>307.0</ele><time>2026-05-01T08:05:25.805Z</time></trkpt><trkpt lat="39.5973367" lon="8.5323883"><ele>307.0</ele><time>2026-05-01T08:05:26.805Z</time></trkpt><trkpt lat="39.5972683" lon="8.532235"><ele>307.0</ele><time>2026-05-01T08:05:27.806Z</time></trkpt><trkpt lat="39.5971967" lon="8.532085"><ele>307.0</ele><time>2026-05-01T08:05:28.805Z</time></trkpt><trkpt lat="39.5970933" lon="8.5319633"><ele>307.25</ele><time>2026-05-01T08:05:29.806Z</time></trkpt><trkpt lat="39.596985" lon="8.5318383"><ele>307.5</ele><time>2026-05-01T08:05:30.805Z</time></trkpt><trkpt lat="39.5968767" lon="8.5317"><ele>307.75</ele><time>2026-05-01T08:05:31.806Z</time></trkpt><trkpt lat="39.5967867" lon="8.5315533"><ele>308.0</ele><time>2026-05-01T08:05:32.805Z</time></trkpt><trkpt lat="39.5967083" lon="8.531405"><ele>308.0</ele><time>2026-05-01T08:05:33.805Z</time></trkpt><trkpt lat="39.59661" lon="8.5312783"><ele>308.0</ele><time>2026-05-01T08:05:34.806Z</time></trkpt><trkpt lat="39.5964967" lon="8.53117"><ele>308.0</ele><time>2026-05-01T08:05:35.806Z</time></trkpt><trkpt lat="39.5963667" lon="8.531065"><ele>308.0</ele><time>2026-05-01T08:05:36.805Z</time></trkpt><trkpt lat="39.5962433" lon="8.53097"><ele>305.75</ele><time>2026-05-01T08:05:37.805Z</time></trkpt><trkpt lat="39.596125" lon="8.5309033"><ele>303.5</ele><time>2026-05-01T08:05:38.806Z</time></trkpt><trkpt lat="39.5960167" lon="8.5308617"><ele>301.25</ele><time>2026-05-01T08:05:39.806Z</time></trkpt><trkpt lat="39.5959017" lon="8.5308383"><ele>299.0</ele><time>2026-05-01T08:05:40.805Z</time></trkpt><trkpt lat="39.5957817" lon="8.5308533"><ele>299.0</ele><time>2026-05-01T08:05:41.805Z</time></trkpt><trkpt lat="39.5956467" lon="8.5308933"><ele>299.0</ele><time>2026-05-01T08:05:42.806Z</time></trkpt><trkpt lat="39.5954917" lon="8.5309483"><ele>299.0</ele><time>2026-05-01T08:05:43.805Z</time></trkpt><trkpt lat="39.5953433" lon="8.5310083"><ele>301.0</ele><time>2026-05-01T08:05:44.805Z</time></trkpt><trkpt lat="39.5951933" lon="8.5310667"><ele>303.0</ele><time>2026-05-01T08:05:45.805Z</time></trkpt><trkpt lat="39.5950683" lon="8.5311567"><ele>305.0</ele><time>2026-05-01T08:05:46.806Z</time></trkpt><trkpt lat="39.5949533" lon="8.5312583"><ele>307.0</ele><time>2026-05-01T08:05:47.806Z</time></trkpt><trkpt lat="39.5948383" lon="8.5313867"><ele>307.0</ele><time>2026-05-01T08:05:48.805Z</time></trkpt><trkpt lat="39.5947367" lon="8.5315467"><ele>307.0</ele><time>2026-05-01T08:05:49.805Z</time></trkpt><trkpt lat="39.5946367" lon="8.53172"><ele>307.0</ele><time>2026-05-01T08:05:50.805Z</time></trkpt><trkpt lat="39.5945367" lon="8.5318917"><ele>305.5</ele><time>2026-05-01T08:05:51.805Z</time></trkpt><trkpt lat="39.5944433" lon="8.5320483"><ele>304.0</ele><time>2026-05-01T08:05:52.805Z</time></trkpt><trkpt lat="39.5943617" lon="8.532195"><ele>302.5</ele><time>2026-05-01T08:05:53.806Z</time></trkpt><trkpt lat="39.594295" lon="8.5323267"><ele>301.0</ele><time>2026-05-01T08:05:54.806Z</time></trkpt><trkpt lat="39.5942267" lon="8.53242"><ele>301.0</ele><time>2026-05-01T08:05:55.805Z</time></trkpt><trkpt lat="39.59415" lon="8.5324767"><ele>301.0</ele><time>2026-05-01T08:05:56.805Z</time></trkpt><trkpt lat="39.594065" lon="8.532495"><ele>301.0</ele><time>2026-05-01T08:05:57.805Z</time></trkpt><trkpt lat="39.5939867" lon="8.53247"><ele>301.0</ele><time>2026-05-01T08:05:58.806Z</time></trkpt><trkpt lat="39.5939133" lon="8.5324067"><ele>301.0</ele><time>2026-05-01T08:05:59.805Z</time></trkpt><trkpt lat="39.5938567" lon="8.53228"><ele>301.0</ele><time>2026-05-01T08:06:00.805Z</time></trkpt><trkpt lat="39.5938017" lon="8.532125"><ele>301.0</ele><time>2026-05-01T08:06:01.805Z</time></trkpt><trkpt lat="39.59374" lon="8.531955"><ele>301.0</ele><time>2026-05-01T08:06:02.805Z</time></trkpt><trkpt lat="39.5936683" lon="8.5317833"><ele>301.0</ele><time>2026-05-01T08:06:03.805Z</time></trkpt><trkpt lat="39.593605" lon="8.5316133"><ele>302.3333333333333</ele><time>2026-05-01T08:06:04.805Z</time></trkpt><trkpt lat="39.5935467" lon="8.5314333"><ele>303.6666666666667</ele><time>2026-05-01T08:06:05.805Z</time></trkpt><trkpt lat="39.5935017" lon="8.53124"><ele>305.0</ele><time>2026-05-01T08:06:06.805Z</time></trkpt><trkpt lat="39.59346" lon="8.531045"><ele>303.0</ele><time>2026-05-01T08:06:07.806Z</time></trkpt><trkpt lat="39.59342" lon="8.5308583"><ele>301.0</ele><time>2026-05-01T08:06:08.805Z</time></trkpt><trkpt lat="39.59336" lon="8.5306983"><ele>299.0</ele><time>2026-05-01T08:06:09.805Z</time></trkpt><trkpt lat="39.5932683" lon="8.5305683"><ele>297.0</ele><time>2026-05-01T08:06:10.805Z</time></trkpt><trkpt lat="39.59318" lon="8.5304483"><ele>295.0</ele><time>2026-05-01T08:06:11.805Z</time></trkpt><trkpt lat="39.59313" lon="8.5303067"><ele>293.0</ele><time>2026-05-01T08:06:12.805Z</time></trkpt><trkpt lat="39.5931117" lon="8.530135"><ele>291.0</ele><time>2026-05-01T08:06:13.805Z</time></trkpt><trkpt lat="39.59311" lon="8.5299483"><ele>289.0</ele><time>2026-05-01T08:06:14.805Z</time></trkpt><trkpt lat="39.5930983" lon="8.5297617"><ele>289.0</ele><time>2026-05-01T08:06:15.805Z</time></trkpt><trkpt lat="39.5930367" lon="8.5295883"><ele>289.0</ele><time>2026-05-01T08:06:16.805Z</time></trkpt><trkpt lat="39.59295" lon="8.5294183"><ele>289.0</ele><time>2026-05-01T08:06:17.806Z</time></trkpt><trkpt lat="39.5928467" lon="8.5292467"><ele>292.75</ele><time>2026-05-01T08:06:18.805Z</time></trkpt><trkpt lat="39.592745" lon="8.529085"><ele>296.5</ele><time>2026-05-01T08:06:19.806Z</time></trkpt><trkpt lat="39.5926417" lon="8.5289483"><ele>300.25</ele><time>2026-05-01T08:06:20.805Z</time></trkpt><trkpt lat="39.5925367" lon="8.52885"><ele>304.0</ele><time>2026-05-01T08:06:21.805Z</time></trkpt><trkpt lat="39.592415" lon="8.5287933"><ele>304.0</ele><time>2026-05-01T08:06:22.805Z</time></trkpt><trkpt lat="39.5922867" lon="8.5287767"><ele>304.0</ele><time>2026-05-01T08:06:23.806Z</time></trkpt><trkpt lat="39.5921517" lon="8.528795"><ele>304.0</ele><time>2026-05-01T08:06:24.806Z</time></trkpt><trkpt lat="39.592005" lon="8.528835"><ele>304.0</ele><time>2026-05-01T08:06:25.806Z</time></trkpt><trkpt lat="39.5918633" lon="8.5288533"><ele>304.75</ele><time>2026-05-01T08:06:26.805Z</time></trkpt><trkpt lat="39.5917167" lon="8.528875"><ele>305.5</ele><time>2026-05-01T08:06:27.805Z</time></trkpt><trkpt lat="39.591575" lon="8.52889"><ele>306.25</ele><time>2026-05-01T08:06:28.806Z</time></trkpt><trkpt lat="39.5914283" lon="8.528905"><ele>307.0</ele><time>2026-05-01T08:06:29.806Z</time></trkpt><trkpt lat="39.5912833" lon="8.52893"><ele>308.5</ele><time>2026-05-01T08:06:30.805Z</time></trkpt><trkpt lat="39.5911433" lon="8.528945"><ele>310.0</ele><time>2026-05-01T08:06:31.805Z</time></trkpt><trkpt lat="39.5910017" lon="8.528945"><ele>311.5</ele><time>2026-05-01T08:06:32.805Z</time></trkpt><trkpt lat="39.5908633" lon="8.5289233"><ele>313.0</ele><time>2026-05-01T08:06:33.806Z</time></trkpt><trkpt lat="39.5907367" lon="8.5288917"><ele>313.0</ele><time>2026-05-01T08:06:34.805Z</time></trkpt><trkpt lat="39.5906167" lon="8.5288617"><ele>313.0</ele><time>2026-05-01T08:06:35.805Z</time></trkpt><trkpt lat="39.5904983" lon="8.52888"><ele>313.0</ele><time>2026-05-01T08:06:36.806Z</time></trkpt><trkpt lat="39.5903783" lon="8.5289283"><ele>313.0</ele><time>2026-05-01T08:06:37.805Z</time></trkpt><trkpt lat="39.5902517" lon="8.528995"><ele>311.3333333333333</ele><time>2026-05-01T08:06:38.805Z</time></trkpt><trkpt lat="39.5901233" lon="8.529085"><ele>309.6666666666667</ele><time>2026-05-01T08:06:39.806Z</time></trkpt><trkpt lat="39.5899817" lon="8.52918"><ele>308.0</ele><time>2026-05-01T08:06:40.805Z</time></trkpt><trkpt lat="39.5898367" lon="8.5292783"><ele>308.0</ele><time>2026-05-01T08:06:41.805Z</time></trkpt><trkpt lat="39.589685" lon="8.5293767"><ele>308.0</ele><time>2026-05-01T08:06:42.805Z</time></trkpt><trkpt lat="39.5895467" lon="8.52947"><ele>308.0</ele><time>2026-05-01T08:06:43.805Z</time></trkpt><trkpt lat="39.58942" lon="8.5295533"><ele>307.75</ele><time>2026-05-01T08:06:44.806Z</time></trkpt><trkpt lat="39.5893017" lon="8.5296283"><ele>307.5</ele><time>2026-05-01T08:06:45.806Z</time></trkpt><trkpt lat="39.58919" lon="8.529695"><ele>307.25</ele><time>2026-05-01T08:06:46.805Z</time></trkpt><trkpt lat="39.5891117" lon="8.529785"><ele>307.0</ele><time>2026-05-01T08:06:47.805Z</time></trkpt><trkpt lat="39.589055" lon="8.5299017"><ele>307.0</ele><time>2026-05-01T08:06:48.805Z</time></trkpt><trkpt lat="39.58902" lon="8.5300433"><ele>307.0</ele><time>2026-05-01T08:06:49.805Z</time></trkpt><trkpt lat="39.588995" lon="8.53021"><ele>307.0</ele><time>2026-05-01T08:06:50.805Z</time></trkpt><trkpt lat="39.5889767" lon="8.5303833"><ele>307.0</ele><time>2026-05-01T08:06:51.805Z</time></trkpt><trkpt lat="39.5889583" lon="8.5305533"><ele>307.5</ele><time>2026-05-01T08:06:52.806Z</time></trkpt><trkpt lat="39.5889317" lon="8.5307167"><ele>308.0</ele><time>2026-05-01T08:06:53.805Z</time></trkpt><trkpt lat="39.588895" lon="8.530885"><ele>308.5</ele><time>2026-05-01T08:06:54.806Z</time></trkpt><trkpt lat="39.5888333" lon="8.5310417"><ele>309.0</ele><time>2026-05-01T08:06:55.806Z</time></trkpt><trkpt lat="39.588755" lon="8.5311917"><ele>305.75</ele><time>2026-05-01T08:06:56.805Z</time></trkpt><trkpt lat="39.5886717" lon="8.53133"><ele>302.5</ele><time>2026-05-01T08:06:57.805Z</time></trkpt><trkpt lat="39.5885867" lon="8.5314667"><ele>299.25</ele><time>2026-05-01T08:06:58.805Z</time></trkpt><trkpt lat="39.5885183" lon="8.5316083"><ele>296.0</ele><time>2026-05-01T08:06:59.805Z</time></trkpt><trkpt lat="39.5884633" lon="8.531765"><ele>296.0</ele><time>2026-05-01T08:07:00.806Z</time></trkpt><trkpt lat="39.5884167" lon="8.531905"><ele>296.0</ele><time>2026-05-01T08:07:01.805Z</time></trkpt><trkpt lat="39.5883667" lon="8.5320167"><ele>296.0</ele><time>2026-05-01T08:07:02.805Z</time></trkpt><trkpt lat="39.5883067" lon="8.5320767"><ele>296.0</ele><time>2026-05-01T08:07:03.805Z</time></trkpt><trkpt lat="39.58824" lon="8.5321067"><ele>296.0</ele><time>2026-05-01T08:07:04.805Z</time></trkpt><trkpt lat="39.5881617" lon="8.5320983"><ele>296.0</ele><time>2026-05-01T08:07:05.805Z</time></trkpt><trkpt lat="39.5880767" lon="8.5320483"><ele>296.0</ele><time>2026-05-01T08:07:06.806Z</time></trkpt><trkpt lat="39.5879983" lon="8.5319667"><ele>296.0</ele><time>2026-05-01T08:07:07.805Z</time></trkpt><trkpt lat="39.58793" lon="8.5318233"><ele>296.0</ele><time>2026-05-01T08:07:08.805Z</time></trkpt><trkpt lat="39.5878567" lon="8.53167"><ele>296.0</ele><time>2026-05-01T08:07:09.806Z</time></trkpt><trkpt lat="39.5877617" lon="8.53153"><ele>296.75</ele><time>2026-05-01T08:07:10.806Z</time></trkpt><trkpt lat="39.5876633" lon="8.5314"><ele>297.5</ele><time>2026-05-01T08:07:11.805Z</time></trkpt><trkpt lat="39.587565" lon="8.53131"><ele>298.25</ele><time>2026-05-01T08:07:12.805Z</time></trkpt><trkpt lat="39.5874533" lon="8.5312383"><ele>299.0</ele><time>2026-05-01T08:07:13.805Z</time></trkpt><trkpt lat="39.5873183" lon="8.531185"><ele>296.0</ele><time>2026-05-01T08:07:14.805Z</time></trkpt><trkpt lat="39.5871633" lon="8.53115"><ele>293.0</ele><time>2026-05-01T08:07:15.805Z</time></trkpt><trkpt lat="39.5869917" lon="8.531125"><ele>290.0</ele><time>2026-05-01T08:07:16.806Z</time></trkpt><trkpt lat="39.5868183" lon="8.5310867"><ele>290.0</ele><time>2026-05-01T08:07:17.806Z</time></trkpt><trkpt lat="39.5866467" lon="8.5310417"><ele>290.0</ele><time>2026-05-01T08:07:18.805Z</time></trkpt><trkpt lat="39.58649" lon="8.5309983"><ele>290.0</ele><time>2026-05-01T08:07:19.805Z</time></trkpt><trkpt lat="39.5863417" lon="8.53097"><ele>290.0</ele><time>2026-05-01T08:07:20.805Z</time></trkpt><trkpt lat="39.5862" lon="8.5309667"><ele>290.0</ele><time>2026-05-01T08:07:21.806Z</time></trkpt><trkpt lat="39.586065" lon="8.5309917"><ele>290.0</ele><time>2026-05-01T08:07:22.805Z</time></trkpt><trkpt lat="39.5859267" lon="8.5310533"><ele>290.0</ele><time>2026-05-01T08:07:23.805Z</time></trkpt><trkpt lat="39.5857817" lon="8.531115"><ele>292.0</ele><time>2026-05-01T08:07:24.805Z</time></trkpt><trkpt lat="39.58563" lon="8.531165"><ele>294.0</ele><time>2026-05-01T08:07:25.805Z</time></trkpt><trkpt lat="39.58547" lon="8.5311917"><ele>296.0</ele><time>2026-05-01T08:07:26.806Z</time></trkpt><trkpt lat="39.5853167" lon="8.5312183"><ele>298.0</ele><time>2026-05-01T08:07:27.805Z</time></trkpt><trkpt lat="39.585185" lon="8.5312617"><ele>300.0</ele><time>2026-05-01T08:07:28.806Z</time></trkpt><trkpt lat="39.5850583" lon="8.5313217"><ele>302.0</ele><time>2026-05-01T08:07:29.806Z</time></trkpt><trkpt lat="39.5849283" lon="8.531395"><ele>304.0</ele><time>2026-05-01T08:07:30.805Z</time></trkpt><trkpt lat="39.5848017" lon="8.5314917"><ele>304.0</ele><time>2026-05-01T08:07:31.805Z</time></trkpt><trkpt lat="39.584675" lon="8.5315967"><ele>304.0</ele><time>2026-05-01T08:07:32.806Z</time></trkpt><trkpt lat="39.5845567" lon="8.5317183"><ele>304.0</ele><time>2026-05-01T08:07:33.805Z</time></trkpt><trkpt lat="39.5844433" lon="8.5318383"><ele>304.0</ele><time>2026-05-01T08:07:34.805Z</time></trkpt><trkpt lat="39.5843317" lon="8.5319517"><ele>304.0</ele><time>2026-05-01T08:07:35.805Z</time></trkpt><trkpt lat="39.5842017" lon="8.5320367"><ele>304.0</ele><time>2026-05-01T08:07:36.805Z</time></trkpt><trkpt lat="39.5840583" lon="8.5320833"><ele>304.0</ele><time>2026-05-01T08:07:37.805Z</time></trkpt><trkpt lat="39.583925" lon="8.5321133"><ele>304.0</ele><time>2026-05-01T08:07:38.806Z</time></trkpt><trkpt lat="39.583795" lon="8.5321517"><ele>301.25</ele><time>2026-05-01T08:07:39.806Z</time></trkpt><trkpt lat="39.5836767" lon="8.5322217"><ele>298.5</ele><time>2026-05-01T08:07:40.805Z</time></trkpt><trkpt lat="39.5835767" lon="8.532335"><ele>295.75</ele><time>2026-05-01T08:07:41.805Z</time></trkpt><trkpt lat="39.5834933" lon="8.5324817"><ele>293.0</ele><time>2026-05-01T08:07:42.805Z</time></trkpt><trkpt lat="39.5834133" lon="8.532645"><ele>293.0</ele><time>2026-05-01T08:07:43.805Z</time></trkpt><trkpt lat="39.583325" lon="8.5328067"><ele>293.0</ele><time>2026-05-01T08:07:44.805Z</time></trkpt><trkpt lat="39.5832267" lon="8.5329483"><ele>293.0</ele><time>2026-05-01T08:07:45.805Z</time></trkpt><trkpt lat="39.5831233" lon="8.53307"><ele>293.0</ele><time>2026-05-01T08:07:46.805Z</time></trkpt><trkpt lat="39.5830467" lon="8.5332067"><ele>296.75</ele><time>2026-05-01T08:07:47.806Z</time></trkpt><trkpt lat="39.583005" lon="8.5333667"><ele>300.5</ele><time>2026-05-01T08:07:48.806Z</time></trkpt><trkpt lat="39.582975" lon="8.5335467"><ele>304.25</ele><time>2026-05-01T08:07:49.806Z</time></trkpt><trkpt lat="39.5829533" lon="8.5337233"><ele>308.0</ele><time>2026-05-01T08:07:50.805Z</time></trkpt><trkpt lat="39.5829283" lon="8.53388"><ele>307.4</ele><time>2026-05-01T08:07:51.805Z</time></trkpt><trkpt lat="39.5828783" lon="8.534005"><ele>306.8</ele><time>2026-05-01T08:07:52.806Z</time></trkpt><trkpt lat="39.582815" lon="8.5341117"><ele>306.2</ele><time>2026-05-01T08:07:53.806Z</time></trkpt><trkpt lat="39.5827433" lon="8.5341783"><ele>305.6</ele><time>2026-05-01T08:07:54.805Z</time></trkpt><trkpt lat="39.5826667" lon="8.5342033"><ele>305.0</ele><time>2026-05-01T08:07:55.805Z</time></trkpt><trkpt lat="39.5825867" lon="8.5341867"><ele>305.0</ele><time>2026-05-01T08:07:56.806Z</time></trkpt><trkpt lat="39.5825017" lon="8.5341267"><ele>305.0</ele><time>2026-05-01T08:07:57.805Z</time></trkpt><trkpt lat="39.582435" lon="8.5340333"><ele>305.0</ele><time>2026-05-01T08:07:58.806Z</time></trkpt><trkpt lat="39.5823917" lon="8.5338983"><ele>305.0</ele><time>2026-05-01T08:07:59.805Z</time></trkpt><trkpt lat="39.5823417" lon="8.5337433"><ele>305.0</ele><time>2026-05-01T08:08:00.805Z</time></trkpt><trkpt lat="39.5822633" lon="8.53361"><ele>305.25</ele><time>2026-05-01T08:08:01.805Z</time></trkpt><trkpt lat="39.58217" lon="8.533495"><ele>305.5</ele><time>2026-05-01T08:08:02.805Z</time></trkpt><trkpt lat="39.5820833" lon="8.5333733"><ele>305.75</ele><time>2026-05-01T08:08:03.805Z</time></trkpt><trkpt lat="39.5820167" lon="8.5332283"><ele>306.0</ele><time>2026-05-01T08:08:04.805Z</time></trkpt><trkpt lat="39.58197" lon="8.53306"><ele>304.0</ele><time>2026-05-01T08:08:05.805Z</time></trkpt><trkpt lat="39.58193" lon="8.5328883"><ele>302.0</ele><time>2026-05-01T08:08:06.805Z</time></trkpt><trkpt lat="39.5818917" lon="8.53274"><ele>300.0</ele><time>2026-05-01T08:08:07.805Z</time></trkpt><trkpt lat="39.5818283" lon="8.5326167"><ele>298.0</ele><time>2026-05-01T08:08:08.806Z</time></trkpt><trkpt lat="39.5817517" lon="8.532535"><ele>298.0</ele><time>2026-05-01T08:08:09.804Z</time></trkpt><trkpt lat="39.5816633" lon="8.5324983"><ele>298.0</ele><time>2026-05-01T08:08:10.804Z</time></trkpt><trkpt lat="39.581565" lon="8.53252"><ele>298.0</ele><time>2026-05-01T08:08:11.805Z</time></trkpt><trkpt lat="39.5814817" lon="8.5325783"><ele>298.0</ele><time>2026-05-01T08:08:12.804Z</time></trkpt><trkpt lat="39.5814117" lon="8.53268"><ele>298.0</ele><time>2026-05-01T08:08:13.804Z</time></trkpt><trkpt lat="39.5813617" lon="8.5328167"><ele>300.0</ele><time>2026-05-01T08:08:14.804Z</time></trkpt><trkpt lat="39.5813217" lon="8.5329767"><ele>302.0</ele><time>2026-05-01T08:08:15.805Z</time></trkpt><trkpt lat="39.5812683" lon="8.5331517"><ele>304.0</ele><time>2026-05-01T08:08:16.804Z</time></trkpt><trkpt lat="39.5812217" lon="8.5333283"><ele>306.0</ele><time>2026-05-01T08:08:17.805Z</time></trkpt><trkpt lat="39.5811933" lon="8.5335117"><ele>299.75</ele><time>2026-05-01T08:08:18.805Z</time></trkpt><trkpt lat="39.5811817" lon="8.5337"><ele>293.5</ele><time>2026-05-01T08:08:19.805Z</time></trkpt><trkpt lat="39.5811733" lon="8.5338817"><ele>287.25</ele><time>2026-05-01T08:08:20.804Z</time></trkpt><trkpt lat="39.581155" lon="8.5340683"><ele>281.0</ele><time>2026-05-01T08:08:21.804Z</time></trkpt><trkpt lat="39.58114" lon="8.5342467"><ele>281.0</ele><time>2026-05-01T08:08:22.804Z</time></trkpt><trkpt lat="39.58114" lon="8.5344167"><ele>281.0</ele><time>2026-05-01T08:08:23.804Z</time></trkpt><trkpt lat="39.5811567" lon="8.5345717"><ele>281.0</ele><time>2026-05-01T08:08:24.804Z</time></trkpt><trkpt lat="39.5812033" lon="8.5347117"><ele>281.0</ele><time>2026-05-01T08:08:25.804Z</time></trkpt><trkpt lat="39.5812667" lon="8.5348233"><ele>285.0</ele><time>2026-05-01T08:08:26.805Z</time></trkpt><trkpt lat="39.5813367" lon="8.5349183"><ele>289.0</ele><time>2026-05-01T08:08:27.805Z</time></trkpt><trkpt lat="39.5813967" lon="8.534995"><ele>293.0</ele><time>2026-05-01T08:08:28.805Z</time></trkpt><trkpt lat="39.5814" lon="8.5351433"><ele>297.0</ele><time>2026-05-01T08:08:30.804Z</time></trkpt><trkpt lat="39.5813517" lon="8.5352233"><ele>301.0</ele><time>2026-05-01T08:08:31.804Z</time></trkpt><trkpt lat="39.58128" lon="8.5353317"><ele>300.0</ele><time>2026-05-01T08:08:32.805Z</time></trkpt><trkpt lat="39.5811967" lon="8.5354633"><ele>299.0</ele><time>2026-05-01T08:08:33.805Z</time></trkpt><trkpt lat="39.5811267" lon="8.5355833"><ele>298.0</ele><time>2026-05-01T08:08:34.804Z</time></trkpt><trkpt lat="39.5810517" lon="8.535705"><ele>297.0</ele><time>2026-05-01T08:08:35.804Z</time></trkpt><trkpt lat="39.5810017" lon="8.53583"><ele>293.6</ele><time>2026-05-01T08:08:36.804Z</time></trkpt><trkpt lat="39.58098" lon="8.5359583"><ele>290.2</ele><time>2026-05-01T08:08:37.804Z</time></trkpt><trkpt lat="39.5809883" lon="8.5360883"><ele>286.8</ele><time>2026-05-01T08:08:38.804Z</time></trkpt><trkpt lat="39.5810167" lon="8.53623"><ele>283.4</ele><time>2026-05-01T08:08:39.804Z</time></trkpt><trkpt lat="39.5810367" lon="8.5363967"><ele>280.0</ele><time>2026-05-01T08:08:40.804Z</time></trkpt><trkpt lat="39.5810483" lon="8.5365783"><ele>278.5</ele><time>2026-05-01T08:08:41.805Z</time></trkpt><trkpt lat="39.5810567" lon="8.53677"><ele>277.0</ele><time>2026-05-01T08:08:42.805Z</time></trkpt><trkpt lat="39.581065" lon="8.536965"><ele>275.5</ele><time>2026-05-01T08:08:43.804Z</time></trkpt><trkpt lat="39.5810817" lon="8.5371533"><ele>274.0</ele><time>2026-05-01T08:08:44.805Z</time></trkpt><trkpt lat="39.581085" lon="8.5373383"><ele>273.0</ele><time>2026-05-01T08:08:45.804Z</time></trkpt><trkpt lat="39.5811" lon="8.53751"><ele>272.0</ele><time>2026-05-01T08:08:46.805Z</time></trkpt><trkpt lat="39.5811167" lon="8.5376717"><ele>271.0</ele><time>2026-05-01T08:08:47.805Z</time></trkpt><trkpt lat="39.581125" lon="8.5378283"><ele>270.0</ele><time>2026-05-01T08:08:48.804Z</time></trkpt><trkpt lat="39.5811333" lon="8.537985"><ele>268.5</ele><time>2026-05-01T08:08:49.804Z</time></trkpt><trkpt lat="39.5811367" lon="8.53815"><ele>267.0</ele><time>2026-05-01T08:08:50.804Z</time></trkpt><trkpt lat="39.5811333" lon="8.538325"><ele>265.5</ele><time>2026-05-01T08:08:51.804Z</time></trkpt><trkpt lat="39.5811233" lon="8.53851"><ele>264.0</ele><time>2026-05-01T08:08:52.804Z</time></trkpt><trkpt lat="39.5811083" lon="8.5386967"><ele>263.0</ele><time>2026-05-01T08:08:53.804Z</time></trkpt><trkpt lat="39.5810917" lon="8.5388917"><ele>262.0</ele><time>2026-05-01T08:08:54.805Z</time></trkpt><trkpt lat="39.5810683" lon="8.539095"><ele>261.0</ele><time>2026-05-01T08:08:55.805Z</time></trkpt><trkpt lat="39.58104" lon="8.5392967"><ele>261.0</ele><time>2026-05-01T08:08:56.804Z</time></trkpt><trkpt lat="39.58102" lon="8.5394883"><ele>261.0</ele><time>2026-05-01T08:08:57.804Z</time></trkpt><trkpt lat="39.58101" lon="8.5396583"><ele>261.0</ele><time>2026-05-01T08:08:58.804Z</time></trkpt><trkpt lat="39.5810083" lon="8.5398133"><ele>261.0</ele><time>2026-05-01T08:08:59.804Z</time></trkpt><trkpt lat="39.581" lon="8.5399667"><ele>260.8</ele><time>2026-05-01T08:09:00.804Z</time></trkpt><trkpt lat="39.5809883" lon="8.540105"><ele>260.6</ele><time>2026-05-01T08:09:01.805Z</time></trkpt><trkpt lat="39.5809817" lon="8.5402417"><ele>260.4</ele><time>2026-05-01T08:09:02.805Z</time></trkpt><trkpt lat="39.58098" lon="8.54037"><ele>260.2</ele><time>2026-05-01T08:09:03.804Z</time></trkpt><trkpt lat="39.5809783" lon="8.5405083"><ele>260.0</ele><time>2026-05-01T08:09:04.805Z</time></trkpt><trkpt lat="39.5809783" lon="8.5406583"><ele>258.5</ele><time>2026-05-01T08:09:05.804Z</time></trkpt><trkpt lat="39.58099" lon="8.5408283"><ele>257.0</ele><time>2026-05-01T08:09:06.804Z</time></trkpt><trkpt lat="39.58101" lon="8.54099"><ele>255.5</ele><time>2026-05-01T08:09:07.804Z</time></trkpt><trkpt lat="39.581035" lon="8.5411467"><ele>254.0</ele><time>2026-05-01T08:09:08.804Z</time></trkpt><trkpt lat="39.5810667" lon="8.541295"><ele>254.75</ele><time>2026-05-01T08:09:09.805Z</time></trkpt><trkpt lat="39.5810917" lon="8.5414333"><ele>255.5</ele><time>2026-05-01T08:09:10.804Z</time></trkpt><trkpt lat="39.5811283" lon="8.54157"><ele>256.25</ele><time>2026-05-01T08:09:11.805Z</time></trkpt><trkpt lat="39.581185" lon="8.5416967"><ele>257.0</ele><time>2026-05-01T08:09:12.805Z</time></trkpt><trkpt lat="39.5812583" lon="8.5418233"><ele>257.0</ele><time>2026-05-01T08:09:13.804Z</time></trkpt><trkpt lat="39.5813417" lon="8.541935"><ele>257.0</ele><time>2026-05-01T08:09:14.805Z</time></trkpt><trkpt lat="39.581425" lon="8.542045"><ele>257.0</ele><time>2026-05-01T08:09:15.805Z</time></trkpt><trkpt lat="39.5814917" lon="8.5421533"><ele>257.0</ele><time>2026-05-01T08:09:16.804Z</time></trkpt><trkpt lat="39.5815283" lon="8.5422533"><ele>257.0</ele><time>2026-05-01T08:09:17.804Z</time></trkpt><trkpt lat="39.5815283" lon="8.5423533"><ele>256.2</ele><time>2026-05-01T08:09:18.804Z</time></trkpt><trkpt lat="39.5815033" lon="8.5424417"><ele>255.39999999999998</ele><time>2026-05-01T08:09:19.804Z</time></trkpt><trkpt lat="39.58145" lon="8.5425283"><ele>254.60000000000002</ele><time>2026-05-01T08:09:20.804Z</time></trkpt><trkpt lat="39.5813717" lon="8.542615"><ele>253.8</ele><time>2026-05-01T08:09:21.805Z</time></trkpt><trkpt lat="39.5812883" lon="8.54271"><ele>253.0</ele><time>2026-05-01T08:09:22.804Z</time></trkpt><trkpt lat="39.5812217" lon="8.5428367"><ele>251.25</ele><time>2026-05-01T08:09:23.805Z</time></trkpt><trkpt lat="39.5811817" lon="8.542985"><ele>249.5</ele><time>2026-05-01T08:09:24.805Z</time></trkpt><trkpt lat="39.5811483" lon="8.54316"><ele>247.75</ele><time>2026-05-01T08:09:25.804Z</time></trkpt><trkpt lat="39.5811267" lon="8.5433367"><ele>246.0</ele><time>2026-05-01T08:09:26.804Z</time></trkpt><trkpt lat="39.5811083" lon="8.5435167"><ele>246.0</ele><time>2026-05-01T08:09:27.804Z</time></trkpt><trkpt lat="39.5810783" lon="8.5436917"><ele>246.0</ele><time>2026-05-01T08:09:28.804Z</time></trkpt><trkpt lat="39.5810433" lon="8.54385"><ele>246.0</ele><time>2026-05-01T08:09:29.804Z</time></trkpt><trkpt lat="39.581" lon="8.5439933"><ele>246.0</ele><time>2026-05-01T08:09:30.804Z</time></trkpt><trkpt lat="39.5809317" lon="8.5441433"><ele>246.5</ele><time>2026-05-01T08:09:31.804Z</time></trkpt><trkpt lat="39.5808583" lon="8.5443"><ele>247.0</ele><time>2026-05-01T08:09:32.804Z</time></trkpt><trkpt lat="39.5807633" lon="8.5444433"><ele>247.5</ele><time>2026-05-01T08:09:33.805Z</time></trkpt><trkpt lat="39.5806483" lon="8.5445767"><ele>248.0</ele><time>2026-05-01T08:09:34.804Z</time></trkpt><trkpt lat="39.5805033" lon="8.54468"><ele>247.66666666666669</ele><time>2026-05-01T08:09:35.804Z</time></trkpt><trkpt lat="39.580345" lon="8.5447617"><ele>247.33333333333331</ele><time>2026-05-01T08:09:36.805Z</time></trkpt><trkpt lat="39.580185" lon="8.5448217"><ele>247.0</ele><time>2026-05-01T08:09:37.804Z</time></trkpt><trkpt lat="39.580025" lon="8.54488"><ele>247.0</ele><time>2026-05-01T08:09:38.805Z</time></trkpt><trkpt lat="39.5798767" lon="8.5449333"><ele>247.0</ele><time>2026-05-01T08:09:39.804Z</time></trkpt><trkpt lat="39.5797333" lon="8.544995"><ele>247.0</ele><time>2026-05-01T08:09:40.804Z</time></trkpt><trkpt lat="39.5796" lon="8.545045"><ele>247.0</ele><time>2026-05-01T08:09:41.804Z</time></trkpt><trkpt lat="39.5794733" lon="8.54511"><ele>245.5</ele><time>2026-05-01T08:09:42.805Z</time></trkpt><trkpt lat="39.579355" lon="8.5451833"><ele>244.0</ele><time>2026-05-01T08:09:43.804Z</time></trkpt><trkpt lat="39.5792383" lon="8.5452533"><ele>242.5</ele><time>2026-05-01T08:09:44.805Z</time></trkpt><trkpt lat="39.5791283" lon="8.545335"><ele>241.0</ele><time>2026-05-01T08:09:45.805Z</time></trkpt><trkpt lat="39.5790283" lon="8.5454283"><ele>240.5</ele><time>2026-05-01T08:09:46.804Z</time></trkpt><trkpt lat="39.5789317" lon="8.5455267"><ele>240.0</ele><time>2026-05-01T08:09:47.805Z</time></trkpt><trkpt lat="39.5788467" lon="8.5456783"><ele>239.5</ele><time>2026-05-01T08:09:48.804Z</time></trkpt><trkpt lat="39.5787767" lon="8.5458183"><ele>239.0</ele><time>2026-05-01T08:09:49.804Z</time></trkpt><trkpt lat="39.5787183" lon="8.5459533"><ele>239.0</ele><time>2026-05-01T08:09:50.804Z</time></trkpt><trkpt lat="39.578685" lon="8.5460817"><ele>238.99999999999997</ele><time>2026-05-01T08:09:51.804Z</time></trkpt><trkpt lat="39.5786917" lon="8.5462"><ele>238.99999999999997</ele><time>2026-05-01T08:09:52.804Z</time></trkpt><trkpt lat="39.5787433" lon="8.546315"><ele>239.0</ele><time>2026-05-01T08:09:53.804Z</time></trkpt><trkpt lat="39.5788283" lon="8.546425"><ele>239.0</ele><time>2026-05-01T08:09:54.805Z</time></trkpt><trkpt lat="39.5789383" lon="8.5465367"><ele>236.25</ele><time>2026-05-01T08:09:55.804Z</time></trkpt><trkpt lat="39.5790533" lon="8.5466633"><ele>233.5</ele><time>2026-05-01T08:09:56.804Z</time></trkpt><trkpt lat="39.5791533" lon="8.546805"><ele>230.75</ele><time>2026-05-01T08:09:57.804Z</time></trkpt><trkpt lat="39.5792283" lon="8.546945"><ele>228.0</ele><time>2026-05-01T08:09:58.804Z</time></trkpt><trkpt lat="39.5793217" lon="8.5470583"><ele>227.5</ele><time>2026-05-01T08:09:59.804Z</time></trkpt><trkpt lat="39.579435" lon="8.5471617"><ele>227.0</ele><time>2026-05-01T08:10:00.804Z</time></trkpt><trkpt lat="39.5795567" lon="8.5472617"><ele>226.5</ele><time>2026-05-01T08:10:01.804Z</time></trkpt><trkpt lat="39.579675" lon="8.547355"><ele>226.0</ele><time>2026-05-01T08:10:02.805Z</time></trkpt><trkpt lat="39.5797867" lon="8.54744"><ele>226.0</ele><time>2026-05-01T08:10:03.804Z</time></trkpt><trkpt lat="39.5798817" lon="8.5475283"><ele>226.00000000000003</ele><time>2026-05-01T08:10:04.804Z</time></trkpt><trkpt lat="39.5799667" lon="8.5476317"><ele>226.00000000000003</ele><time>2026-05-01T08:10:05.804Z</time></trkpt><trkpt lat="39.5800067" lon="8.547765"><ele>226.0</ele><time>2026-05-01T08:10:06.805Z</time></trkpt><trkpt lat="39.58001" lon="8.547875"><ele>226.0</ele><time>2026-05-01T08:10:07.804Z</time></trkpt><trkpt lat="39.57999" lon="8.5479883"><ele>222.75</ele><time>2026-05-01T08:10:08.804Z</time></trkpt><trkpt lat="39.5799367" lon="8.5481183"><ele>219.5</ele><time>2026-05-01T08:10:09.804Z</time></trkpt><trkpt lat="39.579855" lon="8.5482467"><ele>216.25</ele><time>2026-05-01T08:10:10.804Z</time></trkpt><trkpt lat="39.5797567" lon="8.5483733"><ele>213.0</ele><time>2026-05-01T08:10:11.804Z</time></trkpt><trkpt lat="39.5796667" lon="8.548515"><ele>213.0</ele><time>2026-05-01T08:10:12.804Z</time></trkpt><trkpt lat="39.5795967" lon="8.5486717"><ele>213.0</ele><time>2026-05-01T08:10:13.804Z</time></trkpt><trkpt lat="39.5795467" lon="8.5488467"><ele>213.0</ele><time>2026-05-01T08:10:14.805Z</time></trkpt><trkpt lat="39.5795183" lon="8.5490367"><ele>213.0</ele><time>2026-05-01T08:10:15.804Z</time></trkpt><trkpt lat="39.5794983" lon="8.5492267"><ele>213.5</ele><time>2026-05-01T08:10:16.804Z</time></trkpt><trkpt lat="39.57947" lon="8.5494033"><ele>214.0</ele><time>2026-05-01T08:10:17.804Z</time></trkpt><trkpt lat="39.5794333" lon="8.5495717"><ele>214.5</ele><time>2026-05-01T08:10:18.804Z</time></trkpt><trkpt lat="39.5793783" lon="8.5497233"><ele>215.0</ele><time>2026-05-01T08:10:19.804Z</time></trkpt><trkpt lat="39.5793083" lon="8.5498633"><ele>217.75</ele><time>2026-05-01T08:10:20.804Z</time></trkpt><trkpt lat="39.579225" lon="8.5499917"><ele>220.5</ele><time>2026-05-01T08:10:21.805Z</time></trkpt><trkpt lat="39.5791133" lon="8.5500917"><ele>223.25</ele><time>2026-05-01T08:10:22.805Z</time></trkpt><trkpt lat="39.5789767" lon="8.550165"><ele>226.0</ele><time>2026-05-01T08:10:23.804Z</time></trkpt><trkpt lat="39.57883" lon="8.5501883"><ele>226.66666666666666</ele><time>2026-05-01T08:10:24.805Z</time></trkpt><trkpt lat="39.578675" lon="8.5501783"><ele>227.33333333333331</ele><time>2026-05-01T08:10:25.804Z</time></trkpt><trkpt lat="39.5785267" lon="8.5501583"><ele>228.0</ele><time>2026-05-01T08:10:26.805Z</time></trkpt><trkpt lat="39.5783767" lon="8.5501483"><ele>228.0</ele><time>2026-05-01T08:10:27.804Z</time></trkpt><trkpt lat="39.578235" lon="8.5501433"><ele>228.0</ele><time>2026-05-01T08:10:28.805Z</time></trkpt><trkpt lat="39.578095" lon="8.55014"><ele>228.0</ele><time>2026-05-01T08:10:29.804Z</time></trkpt><trkpt lat="39.5779517" lon="8.55013"><ele>228.0</ele><time>2026-05-01T08:10:30.804Z</time></trkpt><trkpt lat="39.577815" lon="8.5501283"><ele>228.25</ele><time>2026-05-01T08:10:31.805Z</time></trkpt><trkpt lat="39.5776883" lon="8.5501317"><ele>228.5</ele><time>2026-05-01T08:10:32.804Z</time></trkpt><trkpt lat="39.5775717" lon="8.55017"><ele>228.75</ele><time>2026-05-01T08:10:33.804Z</time></trkpt><trkpt lat="39.5774667" lon="8.5502333"><ele>229.0</ele><time>2026-05-01T08:10:34.804Z</time></trkpt><trkpt lat="39.5773717" lon="8.5502867"><ele>229.0</ele><time>2026-05-01T08:10:35.805Z</time></trkpt><trkpt lat="39.57728" lon="8.5503217"><ele>228.99999999999997</ele><time>2026-05-01T08:10:36.804Z</time></trkpt><trkpt lat="39.57718" lon="8.5503117"><ele>228.99999999999997</ele><time>2026-05-01T08:10:37.804Z</time></trkpt><trkpt lat="39.5770717" lon="8.5502583"><ele>229.0</ele><time>2026-05-01T08:10:38.805Z</time></trkpt><trkpt lat="39.5769517" lon="8.5501917"><ele>229.0</ele><time>2026-05-01T08:10:39.804Z</time></trkpt><trkpt lat="39.5768183" lon="8.5501267"><ele>230.33333333333331</ele><time>2026-05-01T08:10:40.804Z</time></trkpt><trkpt lat="39.5766733" lon="8.5500883"><ele>231.66666666666669</ele><time>2026-05-01T08:10:41.804Z</time></trkpt><trkpt lat="39.5765183" lon="8.5500667"><ele>233.0</ele><time>2026-05-01T08:10:42.804Z</time></trkpt><trkpt lat="39.5763617" lon="8.5500533"><ele>233.0</ele><time>2026-05-01T08:10:43.805Z</time></trkpt><trkpt lat="39.5762183" lon="8.5500517"><ele>233.0</ele><time>2026-05-01T08:10:44.804Z</time></trkpt><trkpt lat="39.5760767" lon="8.55005"><ele>233.0</ele><time>2026-05-01T08:10:45.804Z</time></trkpt><trkpt lat="39.5759267" lon="8.55004"><ele>233.0</ele><time>2026-05-01T08:10:46.804Z</time></trkpt><trkpt lat="39.5757733" lon="8.5500333"><ele>233.5</ele><time>2026-05-01T08:10:47.804Z</time></trkpt><trkpt lat="39.5756183" lon="8.550025"><ele>234.0</ele><time>2026-05-01T08:10:48.804Z</time></trkpt><trkpt lat="39.5754683" lon="8.5500133"><ele>234.5</ele><time>2026-05-01T08:10:49.805Z</time></trkpt><trkpt lat="39.575325" lon="8.5500017"><ele>235.0</ele><time>2026-05-01T08:10:50.804Z</time></trkpt><trkpt lat="39.57518" lon="8.54997"><ele>235.66666666666666</ele><time>2026-05-01T08:10:51.805Z</time></trkpt><trkpt lat="39.575035" lon="8.549925"><ele>236.33333333333331</ele><time>2026-05-01T08:10:52.804Z</time></trkpt><trkpt lat="39.5748933" lon="8.5498617"><ele>237.0</ele><time>2026-05-01T08:10:53.804Z</time></trkpt><trkpt lat="39.5747533" lon="8.5497833"><ele>237.0</ele><time>2026-05-01T08:10:54.804Z</time></trkpt><trkpt lat="39.5746217" lon="8.5496883"><ele>237.0</ele><time>2026-05-01T08:10:55.804Z</time></trkpt><trkpt lat="39.574495" lon="8.549565"><ele>237.0</ele><time>2026-05-01T08:10:56.804Z</time></trkpt><trkpt lat="39.5743833" lon="8.5494317"><ele>237.33333333333331</ele><time>2026-05-01T08:10:57.804Z</time></trkpt><trkpt lat="39.5742583" lon="8.5492867"><ele>237.66666666666666</ele><time>2026-05-01T08:10:58.804Z</time></trkpt><trkpt lat="39.5741417" lon="8.5491333"><ele>238.0</ele><time>2026-05-01T08:10:59.804Z</time></trkpt><trkpt lat="39.5740167" lon="8.5489867"><ele>238.0</ele><time>2026-05-01T08:11:00.804Z</time></trkpt><trkpt lat="39.5738967" lon="8.548845"><ele>238.0</ele><time>2026-05-01T08:11:01.805Z</time></trkpt><trkpt lat="39.57379" lon="8.548705"><ele>238.0</ele><time>2026-05-01T08:11:02.804Z</time></trkpt><trkpt lat="39.5736833" lon="8.54856"><ele>238.0</ele><time>2026-05-01T08:11:03.804Z</time></trkpt><trkpt lat="39.5735883" lon="8.54843"><ele>238.0</ele><time>2026-05-01T08:11:04.804Z</time></trkpt><trkpt lat="39.5734817" lon="8.5483217"><ele>238.0</ele><time>2026-05-01T08:11:05.804Z</time></trkpt><trkpt lat="39.57336" lon="8.548245"><ele>238.0</ele><time>2026-05-01T08:11:06.804Z</time></trkpt><trkpt lat="39.5732283" lon="8.5482183"><ele>238.0</ele><time>2026-05-01T08:11:07.804Z</time></trkpt><trkpt lat="39.573085" lon="8.54822"><ele>238.0</ele><time>2026-05-01T08:11:08.804Z</time></trkpt><trkpt lat="39.5729367" lon="8.54822"><ele>238.0</ele><time>2026-05-01T08:11:09.804Z</time></trkpt><trkpt lat="39.57278" lon="8.5482217"><ele>238.0</ele><time>2026-05-01T08:11:10.804Z</time></trkpt><trkpt lat="39.572615" lon="8.54822"><ele>238.66666666666666</ele><time>2026-05-01T08:11:11.804Z</time></trkpt><trkpt lat="39.5724367" lon="8.54822"><ele>239.33333333333331</ele><time>2026-05-01T08:11:12.804Z</time></trkpt><trkpt lat="39.5722683" lon="8.5482217"><ele>240.0</ele><time>2026-05-01T08:11:13.804Z</time></trkpt><trkpt lat="39.5721167" lon="8.5482167"><ele>239.75</ele><time>2026-05-01T08:11:14.804Z</time></trkpt><trkpt lat="39.5719817" lon="8.5482117"><ele>239.5</ele><time>2026-05-01T08:11:15.805Z</time></trkpt><trkpt lat="39.5718517" lon="8.548225"><ele>239.25</ele><time>2026-05-01T08:11:16.805Z</time></trkpt><trkpt lat="39.571735" lon="8.5482883"><ele>239.0</ele><time>2026-05-01T08:11:17.804Z</time></trkpt><trkpt lat="39.5716333" lon="8.548405"><ele>239.0</ele><time>2026-05-01T08:11:18.804Z</time></trkpt><trkpt lat="39.5715217" lon="8.5485433"><ele>239.0</ele><time>2026-05-01T08:11:19.805Z</time></trkpt><trkpt lat="39.5714083" lon="8.5486783"><ele>239.0</ele><time>2026-05-01T08:11:20.804Z</time></trkpt><trkpt lat="39.5712817" lon="8.548815"><ele>238.33333333333334</ele><time>2026-05-01T08:11:21.804Z</time></trkpt><trkpt lat="39.5711617" lon="8.5489467"><ele>237.66666666666669</ele><time>2026-05-01T08:11:22.804Z</time></trkpt><trkpt lat="39.5710467" lon="8.5490867"><ele>237.0</ele><time>2026-05-01T08:11:23.804Z</time></trkpt><trkpt lat="39.57094" lon="8.54924"><ele>237.0</ele><time>2026-05-01T08:11:24.804Z</time></trkpt><trkpt lat="39.57085" lon="8.54942"><ele>237.0</ele><time>2026-05-01T08:11:25.805Z</time></trkpt><trkpt lat="39.57078" lon="8.549615"><ele>237.0</ele><time>2026-05-01T08:11:26.804Z</time></trkpt><trkpt lat="39.5707283" lon="8.5498283"><ele>240.0</ele><time>2026-05-01T08:11:27.805Z</time></trkpt><trkpt lat="39.570685" lon="8.55005"><ele>243.0</ele><time>2026-05-01T08:11:28.804Z</time></trkpt><trkpt lat="39.57064" lon="8.5502617"><ele>246.0</ele><time>2026-05-01T08:11:29.804Z</time></trkpt><trkpt lat="39.5705633" lon="8.5504733"><ele>249.33333333333331</ele><time>2026-05-01T08:11:30.804Z</time></trkpt><trkpt lat="39.57047" lon="8.5506783"><ele>252.66666666666666</ele><time>2026-05-01T08:11:31.804Z</time></trkpt><trkpt lat="39.5703667" lon="8.550855"><ele>256.0</ele><time>2026-05-01T08:11:32.805Z</time></trkpt><trkpt lat="39.570275" lon="8.5510233"><ele>252.75</ele><time>2026-05-01T08:11:33.805Z</time></trkpt><trkpt lat="39.570205" lon="8.5511917"><ele>249.5</ele><time>2026-05-01T08:11:34.804Z</time></trkpt><trkpt lat="39.5701367" lon="8.5513517"><ele>246.25</ele><time>2026-05-01T08:11:35.805Z</time></trkpt><trkpt lat="39.5700867" lon="8.5515283"><ele>243.0</ele><time>2026-05-01T08:11:36.804Z</time></trkpt><trkpt lat="39.57006" lon="8.551715"><ele>243.0</ele><time>2026-05-01T08:11:37.804Z</time></trkpt><trkpt lat="39.57007" lon="8.5519083"><ele>243.0</ele><time>2026-05-01T08:11:38.804Z</time></trkpt><trkpt lat="39.5701167" lon="8.55209"><ele>243.0</ele><time>2026-05-01T08:11:39.804Z</time></trkpt><trkpt lat="39.570195" lon="8.5522583"><ele>243.0</ele><time>2026-05-01T08:11:40.803Z</time></trkpt><trkpt lat="39.570295" lon="8.55241"><ele>246.4</ele><time>2026-05-01T08:11:41.804Z</time></trkpt><trkpt lat="39.5703867" lon="8.5525483"><ele>249.8</ele><time>2026-05-01T08:11:42.803Z</time></trkpt><trkpt lat="39.570445" lon="8.55268"><ele>253.2</ele><time>2026-05-01T08:11:43.804Z</time></trkpt><trkpt lat="39.570465" lon="8.5528"><ele>256.6</ele><time>2026-05-01T08:11:44.804Z</time></trkpt><trkpt lat="39.57045" lon="8.5529017"><ele>260.0</ele><time>2026-05-01T08:11:45.803Z</time></trkpt><trkpt lat="39.570395" lon="8.5530083"><ele>258.75</ele><time>2026-05-01T08:11:46.803Z</time></trkpt><trkpt lat="39.5702933" lon="8.5531033"><ele>257.5</ele><time>2026-05-01T08:11:47.803Z</time></trkpt><trkpt lat="39.5701683" lon="8.5531917"><ele>256.25</ele><time>2026-05-01T08:11:48.803Z</time></trkpt><trkpt lat="39.5700417" lon="8.553295"><ele>255.0</ele><time>2026-05-01T08:11:49.804Z</time></trkpt><trkpt lat="39.5699033" lon="8.5534017"><ele>255.0</ele><time>2026-05-01T08:11:50.803Z</time></trkpt><trkpt lat="39.5697683" lon="8.5535167"><ele>255.0</ele><time>2026-05-01T08:11:51.804Z</time></trkpt><trkpt lat="39.5696483" lon="8.553615"><ele>255.0</ele><time>2026-05-01T08:11:52.804Z</time></trkpt><trkpt lat="39.5695267" lon="8.5537117"><ele>255.0</ele><time>2026-05-01T08:11:53.803Z</time></trkpt><trkpt lat="39.5694117" lon="8.5537933"><ele>255.5</ele><time>2026-05-01T08:11:54.804Z</time></trkpt><trkpt lat="39.5693017" lon="8.5539"><ele>256.0</ele><time>2026-05-01T08:11:55.803Z</time></trkpt><trkpt lat="39.5692033" lon="8.5540483"><ele>256.5</ele><time>2026-05-01T08:11:56.803Z</time></trkpt><trkpt lat="39.5691283" lon="8.5542083"><ele>257.0</ele><time>2026-05-01T08:11:57.803Z</time></trkpt><trkpt lat="39.5690767" lon="8.5543967"><ele>258.6666666666667</ele><time>2026-05-01T08:11:58.803Z</time></trkpt><trkpt lat="39.5690517" lon="8.554595"><ele>260.3333333333333</ele><time>2026-05-01T08:11:59.803Z</time></trkpt><trkpt lat="39.5690533" lon="8.5548067"><ele>262.0</ele><time>2026-05-01T08:12:00.804Z</time></trkpt><trkpt lat="39.5690567" lon="8.555015"><ele>262.0</ele><time>2026-05-01T08:12:01.804Z</time></trkpt><trkpt lat="39.5690617" lon="8.5552117"><ele>262.0</ele><time>2026-05-01T08:12:02.803Z</time></trkpt><trkpt lat="39.5690667" lon="8.5554083"><ele>262.0</ele><time>2026-05-01T08:12:03.803Z</time></trkpt><trkpt lat="39.5690583" lon="8.5556083"><ele>263.66666666666663</ele><time>2026-05-01T08:12:04.803Z</time></trkpt><trkpt lat="39.5690567" lon="8.555815"><ele>265.3333333333333</ele><time>2026-05-01T08:12:05.803Z</time></trkpt><trkpt lat="39.569055" lon="8.5560183"><ele>267.0</ele><time>2026-05-01T08:12:06.803Z</time></trkpt><trkpt lat="39.569055" lon="8.55622"><ele>268.0</ele><time>2026-05-01T08:12:07.803Z</time></trkpt><trkpt lat="39.56905" lon="8.5564233"><ele>269.0</ele><time>2026-05-01T08:12:08.803Z</time></trkpt><trkpt lat="39.569045" lon="8.55662"><ele>270.0</ele><time>2026-05-01T08:12:09.803Z</time></trkpt><trkpt lat="39.5690417" lon="8.5568133"><ele>270.0</ele><time>2026-05-01T08:12:10.804Z</time></trkpt><trkpt lat="39.569035" lon="8.55701"><ele>270.0</ele><time>2026-05-01T08:12:11.803Z</time></trkpt><trkpt lat="39.5690183" lon="8.5571967"><ele>270.0</ele><time>2026-05-01T08:12:12.803Z</time></trkpt><trkpt lat="39.569005" lon="8.5573817"><ele>270.0</ele><time>2026-05-01T08:12:13.803Z</time></trkpt><trkpt lat="39.5689867" lon="8.55756"><ele>271.5</ele><time>2026-05-01T08:12:14.804Z</time></trkpt><trkpt lat="39.568965" lon="8.55774"><ele>273.0</ele><time>2026-05-01T08:12:15.803Z</time></trkpt><trkpt lat="39.568945" lon="8.5579133"><ele>274.5</ele><time>2026-05-01T08:12:16.803Z</time></trkpt><trkpt lat="39.5689233" lon="8.5580733"><ele>276.0</ele><time>2026-05-01T08:12:17.803Z</time></trkpt><trkpt lat="39.5688683" lon="8.55821"><ele>274.75</ele><time>2026-05-01T08:12:18.803Z</time></trkpt><trkpt lat="39.568785" lon="8.558295"><ele>273.5</ele><time>2026-05-01T08:12:19.804Z</time></trkpt><trkpt lat="39.5686833" lon="8.558355"><ele>272.25</ele><time>2026-05-01T08:12:20.803Z</time></trkpt><trkpt lat="39.5685617" lon="8.5584283"><ele>271.0</ele><time>2026-05-01T08:12:21.803Z</time></trkpt><trkpt lat="39.5684517" lon="8.5585383"><ele>271.0</ele><time>2026-05-01T08:12:22.804Z</time></trkpt><trkpt lat="39.5683667" lon="8.5586783"><ele>271.0</ele><time>2026-05-01T08:12:23.804Z</time></trkpt><trkpt lat="39.5682917" lon="8.5588317"><ele>271.0</ele><time>2026-05-01T08:12:24.803Z</time></trkpt><trkpt lat="39.5682233" lon="8.5589933"><ele>271.0</ele><time>2026-05-01T08:12:25.803Z</time></trkpt><trkpt lat="39.5681533" lon="8.5591533"><ele>274.0</ele><time>2026-05-01T08:12:26.804Z</time></trkpt><trkpt lat="39.5680783" lon="8.5593133"><ele>277.0</ele><time>2026-05-01T08:12:27.803Z</time></trkpt><trkpt lat="39.568005" lon="8.5594617"><ele>280.0</ele><time>2026-05-01T08:12:28.803Z</time></trkpt><trkpt lat="39.5679317" lon="8.5596033"><ele>283.0</ele><time>2026-05-01T08:12:29.803Z</time></trkpt><trkpt lat="39.5678733" lon="8.5597433"><ele>282.5</ele><time>2026-05-01T08:12:30.803Z</time></trkpt><trkpt lat="39.5678317" lon="8.5598933"><ele>282.0</ele><time>2026-05-01T08:12:31.803Z</time></trkpt><trkpt lat="39.56781" lon="8.5600633"><ele>281.5</ele><time>2026-05-01T08:12:32.803Z</time></trkpt><trkpt lat="39.56781" lon="8.5602333"><ele>281.0</ele><time>2026-05-01T08:12:33.803Z</time></trkpt><trkpt lat="39.5678017" lon="8.56037"><ele>285.0</ele><time>2026-05-01T08:12:34.804Z</time></trkpt><trkpt lat="39.567755" lon="8.56048"><ele>289.0</ele><time>2026-05-01T08:12:35.804Z</time></trkpt><trkpt lat="39.567665" lon="8.5605667"><ele>293.0</ele><time>2026-05-01T08:12:36.803Z</time></trkpt><trkpt lat="39.567545" lon="8.5606383"><ele>297.0</ele><time>2026-05-01T08:12:37.803Z</time></trkpt><trkpt lat="39.567415" lon="8.5607033"><ele>297.0</ele><time>2026-05-01T08:12:38.803Z</time></trkpt><trkpt lat="39.5672767" lon="8.560775"><ele>297.0</ele><time>2026-05-01T08:12:39.803Z</time></trkpt><trkpt lat="39.5671483" lon="8.5608417"><ele>297.0</ele><time>2026-05-01T08:12:40.804Z</time></trkpt><trkpt lat="39.5670167" lon="8.5609"><ele>297.0</ele><time>2026-05-01T08:12:41.803Z</time></trkpt><trkpt lat="39.566885" lon="8.5609283"><ele>296.0</ele><time>2026-05-01T08:12:42.803Z</time></trkpt><trkpt lat="39.5667583" lon="8.5609367"><ele>295.0</ele><time>2026-05-01T08:12:43.803Z</time></trkpt><trkpt lat="39.56664" lon="8.56096"><ele>294.0</ele><time>2026-05-01T08:12:44.803Z</time></trkpt><trkpt lat="39.5665217" lon="8.5610033"><ele>293.0</ele><time>2026-05-01T08:12:45.803Z</time></trkpt><trkpt lat="39.5664017" lon="8.561065"><ele>293.0</ele><time>2026-05-01T08:12:46.803Z</time></trkpt><trkpt lat="39.566275" lon="8.5611433"><ele>293.0</ele><time>2026-05-01T08:12:47.803Z</time></trkpt><trkpt lat="39.5661467" lon="8.561215"><ele>293.0</ele><time>2026-05-01T08:12:48.803Z</time></trkpt><trkpt lat="39.5660267" lon="8.5612917"><ele>293.0</ele><time>2026-05-01T08:12:49.803Z</time></trkpt><trkpt lat="39.5659233" lon="8.561375"><ele>295.25</ele><time>2026-05-01T08:12:50.803Z</time></trkpt><trkpt lat="39.565845" lon="8.5614967"><ele>297.5</ele><time>2026-05-01T08:12:51.803Z</time></trkpt><trkpt lat="39.5657733" lon="8.5616517"><ele>299.75</ele><time>2026-05-01T08:12:52.803Z</time></trkpt><trkpt lat="39.5657" lon="8.561815"><ele>302.0</ele><time>2026-05-01T08:12:53.803Z</time></trkpt><trkpt lat="39.56563" lon="8.5619733"><ele>305.5</ele><time>2026-05-01T08:12:54.803Z</time></trkpt><trkpt lat="39.5655583" lon="8.5621333"><ele>309.0</ele><time>2026-05-01T08:12:55.803Z</time></trkpt><trkpt lat="39.56549" lon="8.562285"><ele>312.5</ele><time>2026-05-01T08:12:56.804Z</time></trkpt><trkpt lat="39.5654317" lon="8.56244"><ele>316.0</ele><time>2026-05-01T08:12:57.804Z</time></trkpt><trkpt lat="39.56539" lon="8.5625967"><ele>316.0</ele><time>2026-05-01T08:12:58.803Z</time></trkpt><trkpt lat="39.5653867" lon="8.5627517"><ele>316.0</ele><time>2026-05-01T08:12:59.804Z</time></trkpt><trkpt lat="39.565415" lon="8.562905"><ele>316.0</ele><time>2026-05-01T08:13:00.803Z</time></trkpt><trkpt lat="39.5654433" lon="8.5630417"><ele>316.0</ele><time>2026-05-01T08:13:01.803Z</time></trkpt><trkpt lat="39.56544" lon="8.5631583"><ele>316.0</ele><time>2026-05-01T08:13:02.803Z</time></trkpt><trkpt lat="39.5654117" lon="8.5632467"><ele>316.0</ele><time>2026-05-01T08:13:03.803Z</time></trkpt><trkpt lat="39.5653283" lon="8.5633017"><ele>316.0</ele><time>2026-05-01T08:13:05.803Z</time></trkpt><trkpt lat="39.5652083" lon="8.56317"><ele>316.0</ele><time>2026-05-01T08:13:07.803Z</time></trkpt><trkpt lat="39.5651467" lon="8.5630233"><ele>316.0</ele><time>2026-05-01T08:13:08.803Z</time></trkpt><trkpt lat="39.5650833" lon="8.5628567"><ele>316.0</ele><time>2026-05-01T08:13:09.804Z</time></trkpt><trkpt lat="39.565015" lon="8.5627067"><ele>316.0</ele><time>2026-05-01T08:13:10.803Z</time></trkpt><trkpt lat="39.5649383" lon="8.5625667"><ele>316.0</ele><time>2026-05-01T08:13:11.803Z</time></trkpt><trkpt lat="39.5648517" lon="8.5624167"><ele>316.0</ele><time>2026-05-01T08:13:12.803Z</time></trkpt><trkpt lat="39.5647733" lon="8.5622567"><ele>316.0</ele><time>2026-05-01T08:13:13.803Z</time></trkpt><trkpt lat="39.5646967" lon="8.5621017"><ele>316.0</ele><time>2026-05-01T08:13:14.803Z</time></trkpt><trkpt lat="39.5646333" lon="8.5619267"><ele>316.0</ele><time>2026-05-01T08:13:15.803Z</time></trkpt><trkpt lat="39.56458" lon="8.5617533"><ele>316.0</ele><time>2026-05-01T08:13:16.803Z</time></trkpt><trkpt lat="39.56454" lon="8.5615783"><ele>315.75</ele><time>2026-05-01T08:13:17.803Z</time></trkpt><trkpt lat="39.5644983" lon="8.56142"><ele>315.5</ele><time>2026-05-01T08:13:18.803Z</time></trkpt><trkpt lat="39.5644333" lon="8.5612883"><ele>315.25</ele><time>2026-05-01T08:13:19.803Z</time></trkpt><trkpt lat="39.5643417" lon="8.5611717"><ele>315.0</ele><time>2026-05-01T08:13:20.803Z</time></trkpt><trkpt lat="39.5642317" lon="8.56107"><ele>315.0</ele><time>2026-05-01T08:13:21.803Z</time></trkpt><trkpt lat="39.5641" lon="8.5610017"><ele>315.0</ele><time>2026-05-01T08:13:22.803Z</time></trkpt><trkpt lat="39.5639567" lon="8.560975"><ele>315.0</ele><time>2026-05-01T08:13:23.804Z</time></trkpt><trkpt lat="39.5638117" lon="8.560985"><ele>315.0</ele><time>2026-05-01T08:13:24.803Z</time></trkpt><trkpt lat="39.563665" lon="8.5610267"><ele>316.3333333333333</ele><time>2026-05-01T08:13:25.803Z</time></trkpt><trkpt lat="39.56352" lon="8.561105"><ele>317.66666666666663</ele><time>2026-05-01T08:13:26.803Z</time></trkpt><trkpt lat="39.563375" lon="8.5612033"><ele>319.0</ele><time>2026-05-01T08:13:27.804Z</time></trkpt><trkpt lat="39.5632283" lon="8.5613133"><ele>322.3333333333333</ele><time>2026-05-01T08:13:28.803Z</time></trkpt><trkpt lat="39.5630733" lon="8.5614267"><ele>325.6666666666667</ele><time>2026-05-01T08:13:29.803Z</time></trkpt><trkpt lat="39.562915" lon="8.56153"><ele>329.0</ele><time>2026-05-01T08:13:30.804Z</time></trkpt><trkpt lat="39.562765" lon="8.56164"><ele>329.0</ele><time>2026-05-01T08:13:31.803Z</time></trkpt><trkpt lat="39.562615" lon="8.561745"><ele>329.0</ele><time>2026-05-01T08:13:32.804Z</time></trkpt><trkpt lat="39.56247" lon="8.5618667"><ele>329.0</ele><time>2026-05-01T08:13:33.804Z</time></trkpt><trkpt lat="39.562335" lon="8.5619917"><ele>330.0</ele><time>2026-05-01T08:13:34.804Z</time></trkpt><trkpt lat="39.5622083" lon="8.5621283"><ele>331.0</ele><time>2026-05-01T08:13:35.803Z</time></trkpt><trkpt lat="39.5620883" lon="8.5622633"><ele>332.0</ele><time>2026-05-01T08:13:36.803Z</time></trkpt><trkpt lat="39.5619683" lon="8.56238"><ele>332.0</ele><time>2026-05-01T08:13:37.803Z</time></trkpt><trkpt lat="39.561855" lon="8.5624867"><ele>332.0</ele><time>2026-05-01T08:13:38.803Z</time></trkpt><trkpt lat="39.561765" lon="8.56261"><ele>332.0</ele><time>2026-05-01T08:13:39.804Z</time></trkpt><trkpt lat="39.5617033" lon="8.5627583"><ele>332.0</ele><time>2026-05-01T08:13:40.803Z</time></trkpt><trkpt lat="39.56167" lon="8.5629333"><ele>335.6666666666667</ele><time>2026-05-01T08:13:41.803Z</time></trkpt><trkpt lat="39.56167" lon="8.5631317"><ele>339.3333333333333</ele><time>2026-05-01T08:13:42.803Z</time></trkpt><trkpt lat="39.561685" lon="8.5633267"><ele>343.0</ele><time>2026-05-01T08:13:43.803Z</time></trkpt><trkpt lat="39.56171" lon="8.5635167"><ele>343.0</ele><time>2026-05-01T08:13:44.803Z</time></trkpt><trkpt lat="39.5617167" lon="8.5636833"><ele>343.0</ele><time>2026-05-01T08:13:45.804Z</time></trkpt><trkpt lat="39.5616783" lon="8.563845"><ele>343.0</ele><time>2026-05-01T08:13:46.803Z</time></trkpt><trkpt lat="39.5616033" lon="8.56399"><ele>343.0</ele><time>2026-05-01T08:13:47.804Z</time></trkpt><trkpt lat="39.5615067" lon="8.5641217"><ele>343.0</ele><time>2026-05-01T08:13:48.803Z</time></trkpt><trkpt lat="39.5613783" lon="8.564235"><ele>343.0</ele><time>2026-05-01T08:13:49.804Z</time></trkpt><trkpt lat="39.5612383" lon="8.5643383"><ele>343.0</ele><time>2026-05-01T08:13:50.803Z</time></trkpt><trkpt lat="39.5611033" lon="8.5644367"><ele>346.0</ele><time>2026-05-01T08:13:51.803Z</time></trkpt><trkpt lat="39.5609783" lon="8.5645533"><ele>349.0</ele><time>2026-05-01T08:13:52.804Z</time></trkpt><trkpt lat="39.560855" lon="8.5646883"><ele>352.0</ele><time>2026-05-01T08:13:53.803Z</time></trkpt><trkpt lat="39.5607417" lon="8.5648417"><ele>352.0</ele><time>2026-05-01T08:13:54.803Z</time></trkpt><trkpt lat="39.5606233" lon="8.5649917"><ele>352.0</ele><time>2026-05-01T08:13:55.803Z</time></trkpt><trkpt lat="39.56052" lon="8.5651517"><ele>352.0</ele><time>2026-05-01T08:13:56.804Z</time></trkpt><trkpt lat="39.5604183" lon="8.5653083"><ele>353.0</ele><time>2026-05-01T08:13:57.803Z</time></trkpt><trkpt lat="39.5603033" lon="8.5654533"><ele>354.0</ele><time>2026-05-01T08:13:58.803Z</time></trkpt><trkpt lat="39.560175" lon="8.5655817"><ele>355.0</ele><time>2026-05-01T08:13:59.804Z</time></trkpt><trkpt lat="39.5600433" lon="8.565715"><ele>355.0</ele><time>2026-05-01T08:14:00.803Z</time></trkpt><trkpt lat="39.5599133" lon="8.5658483"><ele>355.0</ele><time>2026-05-01T08:14:01.804Z</time></trkpt><trkpt lat="39.55978" lon="8.5659683"><ele>355.0</ele><time>2026-05-01T08:14:02.803Z</time></trkpt><trkpt lat="39.5596467" lon="8.5660733"><ele>354.66666666666663</ele><time>2026-05-01T08:14:03.803Z</time></trkpt><trkpt lat="39.559505" lon="8.5661567"><ele>354.3333333333333</ele><time>2026-05-01T08:14:04.803Z</time></trkpt><trkpt lat="39.5593633" lon="8.5662367"><ele>354.0</ele><time>2026-05-01T08:14:05.803Z</time></trkpt><trkpt lat="39.5592133" lon="8.5662867"><ele>356.75</ele><time>2026-05-01T08:14:06.803Z</time></trkpt><trkpt lat="39.5590683" lon="8.56633"><ele>359.5</ele><time>2026-05-01T08:14:07.803Z</time></trkpt><trkpt lat="39.55892" lon="8.5663317"><ele>362.25</ele><time>2026-05-01T08:14:08.803Z</time></trkpt><trkpt lat="39.5587783" lon="8.5663383"><ele>365.0</ele><time>2026-05-01T08:14:09.804Z</time></trkpt><trkpt lat="39.5586483" lon="8.566395"><ele>365.0</ele><time>2026-05-01T08:14:10.803Z</time></trkpt><trkpt lat="39.55852" lon="8.5665017"><ele>365.0</ele><time>2026-05-01T08:14:11.803Z</time></trkpt><trkpt lat="39.5584017" lon="8.5666283"><ele>365.0</ele><time>2026-05-01T08:14:12.804Z</time></trkpt><trkpt lat="39.55828" lon="8.56676"><ele>365.0</ele><time>2026-05-01T08:14:13.803Z</time></trkpt><trkpt lat="39.5581533" lon="8.56687"><ele>365.0</ele><time>2026-05-01T08:14:14.803Z</time></trkpt><trkpt lat="39.558035" lon="8.566975"><ele>365.0</ele><time>2026-05-01T08:14:15.803Z</time></trkpt><trkpt lat="39.5579217" lon="8.5670783"><ele>365.0</ele><time>2026-05-01T08:14:16.803Z</time></trkpt><trkpt lat="39.5578117" lon="8.567195"><ele>366.0</ele><time>2026-05-01T08:14:17.803Z</time></trkpt><trkpt lat="39.5577167" lon="8.5673417"><ele>367.0</ele><time>2026-05-01T08:14:18.804Z</time></trkpt><trkpt lat="39.557645" lon="8.567505"><ele>368.0</ele><time>2026-05-01T08:14:19.803Z</time></trkpt><trkpt lat="39.55758" lon="8.56768"><ele>369.0</ele><time>2026-05-01T08:14:20.803Z</time></trkpt><trkpt lat="39.55753" lon="8.56787"><ele>369.0</ele><time>2026-05-01T08:14:21.803Z</time></trkpt><trkpt lat="39.557495" lon="8.5680417"><ele>369.0</ele><time>2026-05-01T08:14:22.803Z</time></trkpt><trkpt lat="39.5574683" lon="8.5682217"><ele>369.0</ele><time>2026-05-01T08:14:23.803Z</time></trkpt><trkpt lat="39.5574483" lon="8.5684217"><ele>369.0</ele><time>2026-05-01T08:14:24.803Z</time></trkpt><trkpt lat="39.5574217" lon="8.5686117"><ele>370.75</ele><time>2026-05-01T08:14:25.803Z</time></trkpt><trkpt lat="39.5574033" lon="8.5688067"><ele>372.5</ele><time>2026-05-01T08:14:26.803Z</time></trkpt><trkpt lat="39.557385" lon="8.5689967"><ele>374.25</ele><time>2026-05-01T08:14:27.803Z</time></trkpt><trkpt lat="39.5573717" lon="8.569175"><ele>376.0</ele><time>2026-05-01T08:14:28.804Z</time></trkpt><trkpt lat="39.55735" lon="8.56936"><ele>376.0</ele><time>2026-05-01T08:14:29.803Z</time></trkpt><trkpt lat="39.5573383" lon="8.5695333"><ele>376.0</ele><time>2026-05-01T08:14:30.803Z</time></trkpt><trkpt lat="39.5573083" lon="8.5697083"><ele>376.0</ele><time>2026-05-01T08:14:31.803Z</time></trkpt><trkpt lat="39.5572767" lon="8.5698683"><ele>376.0</ele><time>2026-05-01T08:14:32.803Z</time></trkpt><trkpt lat="39.557245" lon="8.5700233"><ele>376.0</ele><time>2026-05-01T08:14:33.803Z</time></trkpt><trkpt lat="39.5572133" lon="8.57013"><ele>376.0</ele><time>2026-05-01T08:14:34.804Z</time></trkpt><trkpt lat="39.557185" lon="8.570215"><ele>376.0</ele><time>2026-05-01T08:14:35.803Z</time></trkpt><trkpt lat="39.5571583" lon="8.570305"><ele>376.0</ele><time>2026-05-01T08:14:37.803Z</time></trkpt><trkpt lat="39.55709" lon="8.5703417"><ele>376.0</ele><time>2026-05-01T08:14:40.803Z</time></trkpt><trkpt lat="39.5570267" lon="8.570255"><ele>376.0</ele><time>2026-05-01T08:14:43.803Z</time></trkpt><trkpt lat="39.5569633" lon="8.57016"><ele>375.5</ele><time>2026-05-01T08:14:56.804Z</time></trkpt><trkpt lat="39.5569167" lon="8.5701017"><ele>375.0</ele><time>2026-05-01T08:14:58.803Z</time></trkpt><trkpt lat="39.55686" lon="8.57006"><ele>374.5</ele><time>2026-05-01T08:15:01.803Z</time></trkpt><trkpt lat="39.556755" lon="8.5699167"><ele>374.0</ele><time>2026-05-01T08:37:42.798Z</time></trkpt><trkpt lat="39.5567117" lon="8.5698317"><ele>373.5</ele><time>2026-05-01T08:37:46.798Z</time></trkpt><trkpt lat="39.5566683" lon="8.5697467"><ele>373.0</ele><time>2026-05-01T08:37:49.798Z</time></trkpt><trkpt lat="39.5566233" lon="8.5696683"><ele>373.0</ele><time>2026-05-01T08:37:51.798Z</time></trkpt><trkpt lat="39.5565567" lon="8.5695617"><ele>373.0</ele><time>2026-05-01T08:37:53.798Z</time></trkpt><trkpt lat="39.5564917" lon="8.56942"><ele>373.0</ele><time>2026-05-01T08:37:55.798Z</time></trkpt><trkpt lat="39.5564533" lon="8.569335"><ele>373.0</ele><time>2026-05-01T08:37:56.798Z</time></trkpt><trkpt lat="39.5564233" lon="8.5692467"><ele>373.0</ele><time>2026-05-01T08:37:57.799Z</time></trkpt><trkpt lat="39.556385" lon="8.56917"><ele>373.3333333333333</ele><time>2026-05-01T08:37:58.798Z</time></trkpt><trkpt lat="39.5563517" lon="8.5690967"><ele>373.66666666666663</ele><time>2026-05-01T08:37:59.798Z</time></trkpt><trkpt lat="39.5563083" lon="8.56902"><ele>374.0</ele><time>2026-05-01T08:38:00.799Z</time></trkpt><trkpt lat="39.5562617" lon="8.5689467"><ele>374.3333333333333</ele><time>2026-05-01T08:38:01.798Z</time></trkpt><trkpt lat="39.5562083" lon="8.5688883"><ele>374.6666666666667</ele><time>2026-05-01T08:38:02.799Z</time></trkpt><trkpt lat="39.5561033" lon="8.5688167"><ele>375.0</ele><time>2026-05-01T08:38:04.798Z</time></trkpt><trkpt lat="39.5559867" lon="8.5688283"><ele>375.0</ele><time>2026-05-01T08:38:06.799Z</time></trkpt><trkpt lat="39.5559217" lon="8.5688983"><ele>375.0</ele><time>2026-05-01T08:38:07.799Z</time></trkpt><trkpt lat="39.5558683" lon="8.5690117"><ele>375.0</ele><time>2026-05-01T08:38:08.798Z</time></trkpt><trkpt lat="39.5558333" lon="8.5691233"><ele>375.0</ele><time>2026-05-01T08:38:09.799Z</time></trkpt><trkpt lat="39.5558033" lon="8.569245"><ele>375.0</ele><time>2026-05-01T08:38:10.798Z</time></trkpt><trkpt lat="39.5557633" lon="8.5693583"><ele>375.0</ele><time>2026-05-01T08:38:11.799Z</time></trkpt><trkpt lat="39.555715" lon="8.5694633"><ele>375.0</ele><time>2026-05-01T08:38:12.798Z</time></trkpt><trkpt lat="39.5556567" lon="8.56954"><ele>375.0</ele><time>2026-05-01T08:38:13.798Z</time></trkpt><trkpt lat="39.5556033" lon="8.5696217"><ele>375.0</ele><time>2026-05-01T08:38:14.798Z</time></trkpt><trkpt lat="39.5555267" lon="8.5697233"><ele>375.0</ele><time>2026-05-01T08:38:16.798Z</time></trkpt><trkpt lat="39.5554433" lon="8.5696833"><ele>374.8333333333333</ele><time>2026-05-01T08:38:19.798Z</time></trkpt><trkpt lat="39.5553567" lon="8.5695783"><ele>374.6666666666667</ele><time>2026-05-01T08:38:21.798Z</time></trkpt><trkpt lat="39.5552883" lon="8.5695083"><ele>374.5</ele><time>2026-05-01T08:38:22.798Z</time></trkpt><trkpt lat="39.5552567" lon="8.5694233"><ele>374.33333333333337</ele><time>2026-05-01T08:38:23.799Z</time></trkpt><trkpt lat="39.5551967" lon="8.5693567"><ele>374.1666666666667</ele><time>2026-05-01T08:38:24.798Z</time></trkpt><trkpt lat="39.5551483" lon="8.5693017"><ele>374.0</ele><time>2026-05-01T08:38:25.798Z</time></trkpt><trkpt lat="39.5550833" lon="8.569215"><ele>374.0</ele><time>2026-05-01T08:38:27.798Z</time></trkpt><trkpt lat="39.5550267" lon="8.5691433"><ele>374.0</ele><time>2026-05-01T08:38:29.798Z</time></trkpt><trkpt lat="39.5549733" lon="8.5690517"><ele>374.0</ele><time>2026-05-01T08:38:31.798Z</time></trkpt><trkpt lat="39.554905" lon="8.5689633"><ele>374.0</ele><time>2026-05-01T08:38:33.799Z</time></trkpt><trkpt lat="39.5548183" lon="8.5688583"><ele>374.0</ele><time>2026-05-01T08:38:35.798Z</time></trkpt><trkpt lat="39.5547417" lon="8.5687583"><ele>373.83333333333337</ele><time>2026-05-01T08:38:37.798Z</time></trkpt><trkpt lat="39.5546617" lon="8.568635"><ele>373.6666666666667</ele><time>2026-05-01T08:38:39.798Z</time></trkpt><trkpt lat="39.5546217" lon="8.5685533"><ele>373.5</ele><time>2026-05-01T08:38:40.798Z</time></trkpt><trkpt lat="39.5545833" lon="8.56847"><ele>373.3333333333333</ele><time>2026-05-01T08:38:41.798Z</time></trkpt><trkpt lat="39.5545433" lon="8.5683867"><ele>373.16666666666663</ele><time>2026-05-01T08:38:42.799Z</time></trkpt><trkpt lat="39.5545" lon="8.5682983"><ele>373.0</ele><time>2026-05-01T08:38:43.798Z</time></trkpt><trkpt lat="39.5544683" lon="8.5681933"><ele>373.0</ele><time>2026-05-01T08:38:44.798Z</time></trkpt><trkpt lat="39.5544633" lon="8.56808"><ele>373.0</ele><time>2026-05-01T08:38:45.798Z</time></trkpt><trkpt lat="39.554475" lon="8.5679583"><ele>373.0</ele><time>2026-05-01T08:38:46.798Z</time></trkpt><trkpt lat="39.5545033" lon="8.56783"><ele>373.0</ele><time>2026-05-01T08:38:47.798Z</time></trkpt><trkpt lat="39.5545333" lon="8.5677133"><ele>373.0</ele><time>2026-05-01T08:38:48.798Z</time></trkpt><trkpt lat="39.554565" lon="8.5676133"><ele>369.66666666666663</ele><time>2026-05-01T08:38:49.798Z</time></trkpt><trkpt lat="39.5545867" lon="8.5675133"><ele>366.3333333333333</ele><time>2026-05-01T08:38:50.799Z</time></trkpt><trkpt lat="39.5546067" lon="8.5674117"><ele>363.0</ele><time>2026-05-01T08:38:51.798Z</time></trkpt><trkpt lat="39.5546183" lon="8.5672983"><ele>359.6666666666667</ele><time>2026-05-01T08:38:52.798Z</time></trkpt><trkpt lat="39.554625" lon="8.5671917"><ele>356.33333333333337</ele><time>2026-05-01T08:38:53.797Z</time></trkpt><trkpt lat="39.554625" lon="8.5670833"><ele>353.0</ele><time>2026-05-01T08:38:54.797Z</time></trkpt><trkpt lat="39.5546117" lon="8.5669783"><ele>351.6666666666667</ele><time>2026-05-01T08:38:55.797Z</time></trkpt><trkpt lat="39.5545933" lon="8.56687"><ele>350.33333333333337</ele><time>2026-05-01T08:38:56.798Z</time></trkpt><trkpt lat="39.55457" lon="8.5667683"><ele>349.0</ele><time>2026-05-01T08:38:57.797Z</time></trkpt><trkpt lat="39.55454" lon="8.56667"><ele>347.6666666666667</ele><time>2026-05-01T08:38:58.797Z</time></trkpt><trkpt lat="39.5545167" lon="8.5665667"><ele>346.3333333333333</ele><time>2026-05-01T08:38:59.798Z</time></trkpt><trkpt lat="39.5544917" lon="8.5664733"><ele>345.0</ele><time>2026-05-01T08:39:00.797Z</time></trkpt><trkpt lat="39.5544767" lon="8.5663783"><ele>346.6666666666667</ele><time>2026-05-01T08:39:01.798Z</time></trkpt><trkpt lat="39.5544617" lon="8.5662733"><ele>348.3333333333333</ele><time>2026-05-01T08:39:02.797Z</time></trkpt><trkpt lat="39.5544467" lon="8.5661583"><ele>350.0</ele><time>2026-05-01T08:39:03.797Z</time></trkpt><trkpt lat="39.5544317" lon="8.5660533"><ele>351.66666666666663</ele><time>2026-05-01T08:39:04.797Z</time></trkpt><trkpt lat="39.5544133" lon="8.5659517"><ele>353.3333333333333</ele><time>2026-05-01T08:39:05.798Z</time></trkpt><trkpt lat="39.5543833" lon="8.5658567"><ele>355.0</ele><time>2026-05-01T08:39:06.797Z</time></trkpt><trkpt lat="39.5543417" lon="8.56577"><ele>355.0</ele><time>2026-05-01T08:39:07.797Z</time></trkpt><trkpt lat="39.554285" lon="8.5656967"><ele>355.0</ele><time>2026-05-01T08:39:08.797Z</time></trkpt><trkpt lat="39.5542317" lon="8.5656333"><ele>355.0</ele><time>2026-05-01T08:39:09.797Z</time></trkpt><trkpt lat="39.55417" lon="8.565585"><ele>355.0</ele><time>2026-05-01T08:39:10.798Z</time></trkpt><trkpt lat="39.5540933" lon="8.5655317"><ele>355.0</ele><time>2026-05-01T08:39:11.797Z</time></trkpt><trkpt lat="39.5540183" lon="8.5655033"><ele>355.0</ele><time>2026-05-01T08:39:12.797Z</time></trkpt><trkpt lat="39.553955" lon="8.5654933"><ele>355.0</ele><time>2026-05-01T08:39:13.798Z</time></trkpt><trkpt lat="39.5538767" lon="8.56548"><ele>355.0</ele><time>2026-05-01T08:39:14.797Z</time></trkpt><trkpt lat="39.553795" lon="8.5654783"><ele>355.0</ele><time>2026-05-01T08:39:15.797Z</time></trkpt><trkpt lat="39.5537033" lon="8.565475"><ele>355.0</ele><time>2026-05-01T08:39:16.797Z</time></trkpt><trkpt lat="39.5536067" lon="8.5654717"><ele>355.0</ele><time>2026-05-01T08:39:17.798Z</time></trkpt><trkpt lat="39.5535183" lon="8.565475"><ele>355.0</ele><time>2026-05-01T08:39:18.798Z</time></trkpt><trkpt lat="39.5534417" lon="8.5654767"><ele>356.0</ele><time>2026-05-01T08:39:19.798Z</time></trkpt><trkpt lat="39.5533783" lon="8.5654883"><ele>357.0</ele><time>2026-05-01T08:39:20.798Z</time></trkpt><trkpt lat="39.5533117" lon="8.5654733"><ele>358.0</ele><time>2026-05-01T08:39:21.797Z</time></trkpt><trkpt lat="39.5532133" lon="8.565405"><ele>359.0</ele><time>2026-05-01T08:39:23.797Z</time></trkpt><trkpt lat="39.5531883" lon="8.5653267"><ele>360.0</ele><time>2026-05-01T08:39:24.797Z</time></trkpt><trkpt lat="39.5531817" lon="8.56523"><ele>361.0</ele><time>2026-05-01T08:39:25.797Z</time></trkpt><trkpt lat="39.5531967" lon="8.5651183"><ele>358.0</ele><time>2026-05-01T08:39:26.797Z</time></trkpt><trkpt lat="39.5532283" lon="8.565"><ele>355.0</ele><time>2026-05-01T08:39:27.797Z</time></trkpt><trkpt lat="39.5532883" lon="8.56488"><ele>352.0</ele><time>2026-05-01T08:39:28.797Z</time></trkpt><trkpt lat="39.553365" lon="8.5647717"><ele>349.0</ele><time>2026-05-01T08:39:29.797Z</time></trkpt><trkpt lat="39.553455" lon="8.5646717"><ele>346.0</ele><time>2026-05-01T08:39:30.797Z</time></trkpt><trkpt lat="39.5535567" lon="8.564585"><ele>346.6</ele><time>2026-05-01T08:39:31.798Z</time></trkpt><trkpt lat="39.55366" lon="8.5645167"><ele>347.20000000000005</ele><time>2026-05-01T08:39:32.797Z</time></trkpt><trkpt lat="39.5537517" lon="8.56446"><ele>347.79999999999995</ele><time>2026-05-01T08:39:33.798Z</time></trkpt><trkpt lat="39.5538233" lon="8.564415"><ele>348.4</ele><time>2026-05-01T08:39:34.797Z</time></trkpt><trkpt lat="39.5538867" lon="8.5643733"><ele>349.0</ele><time>2026-05-01T08:39:35.797Z</time></trkpt><trkpt lat="39.5539583" lon="8.5642717"><ele>343.0</ele><time>2026-05-01T08:39:37.797Z</time></trkpt><trkpt lat="39.553955" lon="8.5641117"><ele>337.0</ele><time>2026-05-01T08:39:39.797Z</time></trkpt><trkpt lat="39.5539283" lon="8.564015"><ele>331.0</ele><time>2026-05-01T08:39:40.797Z</time></trkpt><trkpt lat="39.5538933" lon="8.5639"><ele>325.0</ele><time>2026-05-01T08:39:41.797Z</time></trkpt><trkpt lat="39.5538733" lon="8.5637683"><ele>319.0</ele><time>2026-05-01T08:39:42.797Z</time></trkpt><trkpt lat="39.553865" lon="8.56363"><ele>317.4</ele><time>2026-05-01T08:39:43.798Z</time></trkpt><trkpt lat="39.5538467" lon="8.5635167"><ele>315.79999999999995</ele><time>2026-05-01T08:39:44.798Z</time></trkpt><trkpt lat="39.5538067" lon="8.56342"><ele>314.20000000000005</ele><time>2026-05-01T08:39:45.797Z</time></trkpt><trkpt lat="39.553755" lon="8.5633217"><ele>312.6</ele><time>2026-05-01T08:39:46.797Z</time></trkpt><trkpt lat="39.5536883" lon="8.5632083"><ele>311.0</ele><time>2026-05-01T08:39:47.797Z</time></trkpt><trkpt lat="39.5536133" lon="8.56311"><ele>313.6</ele><time>2026-05-01T08:39:48.797Z</time></trkpt><trkpt lat="39.5535483" lon="8.563005"><ele>316.20000000000005</ele><time>2026-05-01T08:39:49.797Z</time></trkpt><trkpt lat="39.5535083" lon="8.5629017"><ele>318.79999999999995</ele><time>2026-05-01T08:39:50.797Z</time></trkpt><trkpt lat="39.5534933" lon="8.5627833"><ele>321.4</ele><time>2026-05-01T08:39:51.798Z</time></trkpt><trkpt lat="39.55349" lon="8.5626633"><ele>324.0</ele><time>2026-05-01T08:39:52.797Z</time></trkpt><trkpt lat="39.5534917" lon="8.56254"><ele>324.0</ele><time>2026-05-01T08:39:53.798Z</time></trkpt><trkpt lat="39.5534983" lon="8.56242"><ele>324.0</ele><time>2026-05-01T08:39:54.797Z</time></trkpt><trkpt lat="39.5534917" lon="8.5623217"><ele>324.0</ele><time>2026-05-01T08:39:55.797Z</time></trkpt><trkpt lat="39.5534817" lon="8.5622383"><ele>324.0</ele><time>2026-05-01T08:39:56.797Z</time></trkpt><trkpt lat="39.5534483" lon="8.5621667"><ele>324.0</ele><time>2026-05-01T08:39:57.797Z</time></trkpt><trkpt lat="39.553345" lon="8.5620833"><ele>324.0</ele><time>2026-05-01T08:39:59.797Z</time></trkpt><trkpt lat="39.55327" lon="8.5620683"><ele>324.0</ele><time>2026-05-01T08:40:00.797Z</time></trkpt><trkpt lat="39.553175" lon="8.5620667"><ele>324.0</ele><time>2026-05-01T08:40:01.798Z</time></trkpt><trkpt lat="39.5530733" lon="8.56208"><ele>324.0</ele><time>2026-05-01T08:40:02.797Z</time></trkpt><trkpt lat="39.5529617" lon="8.5621"><ele>324.0</ele><time>2026-05-01T08:40:03.798Z</time></trkpt><trkpt lat="39.552845" lon="8.56213"><ele>324.0</ele><time>2026-05-01T08:40:04.797Z</time></trkpt><trkpt lat="39.5527283" lon="8.5621683"><ele>324.6666666666667</ele><time>2026-05-01T08:40:05.798Z</time></trkpt><trkpt lat="39.552635" lon="8.5621967"><ele>325.3333333333333</ele><time>2026-05-01T08:40:06.797Z</time></trkpt><trkpt lat="39.5525583" lon="8.5622067"><ele>326.0</ele><time>2026-05-01T08:40:07.797Z</time></trkpt><trkpt lat="39.5524833" lon="8.5621983"><ele>326.66666666666663</ele><time>2026-05-01T08:40:08.798Z</time></trkpt><trkpt lat="39.5524" lon="8.562165"><ele>327.3333333333333</ele><time>2026-05-01T08:40:09.797Z</time></trkpt><trkpt lat="39.5523133" lon="8.5621183"><ele>328.0</ele><time>2026-05-01T08:40:10.797Z</time></trkpt><trkpt lat="39.5522367" lon="8.5620667"><ele>324.66666666666663</ele><time>2026-05-01T08:40:11.797Z</time></trkpt><trkpt lat="39.552175" lon="8.5620033"><ele>321.3333333333333</ele><time>2026-05-01T08:40:12.797Z</time></trkpt><trkpt lat="39.5521267" lon="8.5619267"><ele>318.0</ele><time>2026-05-01T08:40:13.798Z</time></trkpt><trkpt lat="39.55209" lon="8.5618517"><ele>314.6666666666667</ele><time>2026-05-01T08:40:14.797Z</time></trkpt><trkpt lat="39.5520983" lon="8.5616833"><ele>311.33333333333337</ele><time>2026-05-01T08:40:16.797Z</time></trkpt><trkpt lat="39.5521267" lon="8.5615867"><ele>308.0</ele><time>2026-05-01T08:40:17.798Z</time></trkpt><trkpt lat="39.5521733" lon="8.5614817"><ele>308.0</ele><time>2026-05-01T08:40:18.797Z</time></trkpt><trkpt lat="39.5522467" lon="8.5613783"><ele>308.0</ele><time>2026-05-01T08:40:19.798Z</time></trkpt><trkpt lat="39.5523267" lon="8.561265"><ele>308.0</ele><time>2026-05-01T08:40:20.797Z</time></trkpt><trkpt lat="39.552405" lon="8.5611517"><ele>308.0</ele><time>2026-05-01T08:40:21.798Z</time></trkpt><trkpt lat="39.552465" lon="8.561045"><ele>308.0</ele><time>2026-05-01T08:40:22.798Z</time></trkpt><trkpt lat="39.552505" lon="8.5609433"><ele>306.83333333333337</ele><time>2026-05-01T08:40:23.798Z</time></trkpt><trkpt lat="39.5525267" lon="8.560835"><ele>305.6666666666667</ele><time>2026-05-01T08:40:24.797Z</time></trkpt><trkpt lat="39.5525283" lon="8.5607233"><ele>304.5</ele><time>2026-05-01T08:40:25.797Z</time></trkpt><trkpt lat="39.552515" lon="8.560615"><ele>303.3333333333333</ele><time>2026-05-01T08:40:26.797Z</time></trkpt><trkpt lat="39.5524817" lon="8.560515"><ele>302.16666666666663</ele><time>2026-05-01T08:40:27.797Z</time></trkpt><trkpt lat="39.552445" lon="8.5604233"><ele>301.0</ele><time>2026-05-01T08:40:28.797Z</time></trkpt><trkpt lat="39.5523983" lon="8.5603433"><ele>301.5</ele><time>2026-05-01T08:40:29.797Z</time></trkpt><trkpt lat="39.5523417" lon="8.5602867"><ele>302.0</ele><time>2026-05-01T08:40:30.797Z</time></trkpt><trkpt lat="39.5522717" lon="8.5602533"><ele>302.5</ele><time>2026-05-01T08:40:31.797Z</time></trkpt><trkpt lat="39.5521817" lon="8.5602417"><ele>303.0</ele><time>2026-05-01T08:40:32.797Z</time></trkpt><trkpt lat="39.5520767" lon="8.5602483"><ele>303.5</ele><time>2026-05-01T08:40:33.797Z</time></trkpt><trkpt lat="39.5519817" lon="8.560265"><ele>304.0</ele><time>2026-05-01T08:40:34.797Z</time></trkpt><trkpt lat="39.5519083" lon="8.5602767"><ele>304.0</ele><time>2026-05-01T08:40:35.798Z</time></trkpt><trkpt lat="39.5518017" lon="8.560265"><ele>304.0</ele><time>2026-05-01T08:40:37.798Z</time></trkpt><trkpt lat="39.551735" lon="8.5601583"><ele>304.0</ele><time>2026-05-01T08:40:39.798Z</time></trkpt><trkpt lat="39.5517217" lon="8.5600617"><ele>304.0</ele><time>2026-05-01T08:40:40.798Z</time></trkpt><trkpt lat="39.5517283" lon="8.5599467"><ele>304.0</ele><time>2026-05-01T08:40:41.798Z</time></trkpt><trkpt lat="39.5517483" lon="8.5598333"><ele>304.0</ele><time>2026-05-01T08:40:42.797Z</time></trkpt><trkpt lat="39.5517783" lon="8.5597033"><ele>304.0</ele><time>2026-05-01T08:40:43.797Z</time></trkpt><trkpt lat="39.5518033" lon="8.5595583"><ele>304.0</ele><time>2026-05-01T08:40:44.797Z</time></trkpt><trkpt lat="39.5518233" lon="8.559395"><ele>304.0</ele><time>2026-05-01T08:40:45.797Z</time></trkpt><trkpt lat="39.5518283" lon="8.5592333"><ele>304.4</ele><time>2026-05-01T08:40:46.797Z</time></trkpt><trkpt lat="39.55183" lon="8.5590983"><ele>304.79999999999995</ele><time>2026-05-01T08:40:47.798Z</time></trkpt><trkpt lat="39.5518267" lon="8.55896"><ele>305.20000000000005</ele><time>2026-05-01T08:40:48.797Z</time></trkpt><trkpt lat="39.5518117" lon="8.5588267"><ele>305.6</ele><time>2026-05-01T08:40:49.797Z</time></trkpt><trkpt lat="39.5517783" lon="8.5587133"><ele>306.0</ele><time>2026-05-01T08:40:50.797Z</time></trkpt><trkpt lat="39.5517383" lon="8.558615"><ele>304.8</ele><time>2026-05-01T08:40:51.798Z</time></trkpt><trkpt lat="39.5516817" lon="8.5585233"><ele>303.6</ele><time>2026-05-01T08:40:52.798Z</time></trkpt><trkpt lat="39.5516033" lon="8.558425"><ele>302.4</ele><time>2026-05-01T08:40:53.797Z</time></trkpt><trkpt lat="39.5514983" lon="8.5583367"><ele>301.2</ele><time>2026-05-01T08:40:54.798Z</time></trkpt><trkpt lat="39.5513933" lon="8.5582533"><ele>300.0</ele><time>2026-05-01T08:40:55.797Z</time></trkpt><trkpt lat="39.5513017" lon="8.5581733"><ele>300.0</ele><time>2026-05-01T08:40:56.797Z</time></trkpt><trkpt lat="39.5512083" lon="8.5580883"><ele>300.0</ele><time>2026-05-01T08:40:57.797Z</time></trkpt><trkpt lat="39.55113" lon="8.5580217"><ele>300.0</ele><time>2026-05-01T08:40:58.797Z</time></trkpt><trkpt lat="39.5510567" lon="8.5579567"><ele>300.0</ele><time>2026-05-01T08:40:59.798Z</time></trkpt><trkpt lat="39.5510033" lon="8.5578717"><ele>300.0</ele><time>2026-05-01T08:41:00.797Z</time></trkpt><trkpt lat="39.5509783" lon="8.5577733"><ele>300.5</ele><time>2026-05-01T08:41:01.797Z</time></trkpt><trkpt lat="39.5509483" lon="8.5576767"><ele>301.0</ele><time>2026-05-01T08:41:02.797Z</time></trkpt><trkpt lat="39.5509317" lon="8.5575667"><ele>301.5</ele><time>2026-05-01T08:41:03.797Z</time></trkpt><trkpt lat="39.55092" lon="8.55744"><ele>302.0</ele><time>2026-05-01T08:41:04.797Z</time></trkpt><trkpt lat="39.550905" lon="8.55732"><ele>302.5</ele><time>2026-05-01T08:41:05.797Z</time></trkpt><trkpt lat="39.55087" lon="8.5572133"><ele>303.0</ele><time>2026-05-01T08:41:06.797Z</time></trkpt><trkpt lat="39.5508083" lon="8.5571233"><ele>303.0</ele><time>2026-05-01T08:41:07.797Z</time></trkpt><trkpt lat="39.5507217" lon="8.55705"><ele>303.0</ele><time>2026-05-01T08:41:08.798Z</time></trkpt><trkpt lat="39.550615" lon="8.557"><ele>303.0</ele><time>2026-05-01T08:41:09.797Z</time></trkpt><trkpt lat="39.5504767" lon="8.5569733"><ele>303.0</ele><time>2026-05-01T08:41:10.797Z</time></trkpt><trkpt lat="39.5503483" lon="8.5569617"><ele>302.6</ele><time>2026-05-01T08:41:11.798Z</time></trkpt><trkpt lat="39.5502367" lon="8.5569433"><ele>302.20000000000005</ele><time>2026-05-01T08:41:12.797Z</time></trkpt><trkpt lat="39.55014" lon="8.5569267"><ele>301.8</ele><time>2026-05-01T08:41:13.797Z</time></trkpt><trkpt lat="39.5500567" lon="8.5568867"><ele>301.40000000000003</ele><time>2026-05-01T08:41:14.798Z</time></trkpt><trkpt lat="39.5499967" lon="8.5568333"><ele>301.0</ele><time>2026-05-01T08:41:15.797Z</time></trkpt><trkpt lat="39.549925" lon="8.5566967"><ele>301.0</ele><time>2026-05-01T08:41:17.797Z</time></trkpt><trkpt lat="39.5499017" lon="8.5566033"><ele>301.0</ele><time>2026-05-01T08:41:18.797Z</time></trkpt><trkpt lat="39.54989" lon="8.5564917"><ele>301.0</ele><time>2026-05-01T08:41:19.797Z</time></trkpt><trkpt lat="39.5498683" lon="8.5563567"><ele>301.0</ele><time>2026-05-01T08:41:20.798Z</time></trkpt><trkpt lat="39.5498267" lon="8.5562317"><ele>301.0</ele><time>2026-05-01T08:41:21.798Z</time></trkpt><trkpt lat="39.5497683" lon="8.5561067"><ele>299.3333333333333</ele><time>2026-05-01T08:41:22.797Z</time></trkpt><trkpt lat="39.54971" lon="8.556015"><ele>297.66666666666663</ele><time>2026-05-01T08:41:23.797Z</time></trkpt><trkpt lat="39.5496617" lon="8.55594"><ele>296.0</ele><time>2026-05-01T08:41:24.797Z</time></trkpt><trkpt lat="39.54964" lon="8.55585"><ele>294.3333333333333</ele><time>2026-05-01T08:41:25.798Z</time></trkpt><trkpt lat="39.5496433" lon="8.555755"><ele>292.6666666666667</ele><time>2026-05-01T08:41:26.798Z</time></trkpt><trkpt lat="39.5496617" lon="8.5556533"><ele>291.0</ele><time>2026-05-01T08:41:27.797Z</time></trkpt><trkpt lat="39.5497033" lon="8.555525"><ele>291.0</ele><time>2026-05-01T08:41:28.798Z</time></trkpt><trkpt lat="39.54973" lon="8.5553917"><ele>291.0</ele><time>2026-05-01T08:41:29.797Z</time></trkpt><trkpt lat="39.549745" lon="8.5552583"><ele>291.0</ele><time>2026-05-01T08:41:30.797Z</time></trkpt><trkpt lat="39.5497383" lon="8.5551217"><ele>291.0</ele><time>2026-05-01T08:41:31.798Z</time></trkpt><trkpt lat="39.549715" lon="8.5549867"><ele>291.0</ele><time>2026-05-01T08:41:32.797Z</time></trkpt><trkpt lat="39.54969" lon="8.55485"><ele>291.40000000000003</ele><time>2026-05-01T08:41:33.798Z</time></trkpt><trkpt lat="39.5496567" lon="8.554705"><ele>291.8</ele><time>2026-05-01T08:41:34.797Z</time></trkpt><trkpt lat="39.5496067" lon="8.5545683"><ele>292.20000000000005</ele><time>2026-05-01T08:41:35.798Z</time></trkpt><trkpt lat="39.5495533" lon="8.5544433"><ele>292.6</ele><time>2026-05-01T08:41:36.798Z</time></trkpt><trkpt lat="39.5494967" lon="8.5543433"><ele>293.0</ele><time>2026-05-01T08:41:37.798Z</time></trkpt><trkpt lat="39.549435" lon="8.5542633"><ele>296.4</ele><time>2026-05-01T08:41:38.797Z</time></trkpt><trkpt lat="39.5493533" lon="8.554195"><ele>299.8</ele><time>2026-05-01T08:41:39.797Z</time></trkpt><trkpt lat="39.549245" lon="8.5541433"><ele>303.2</ele><time>2026-05-01T08:41:40.798Z</time></trkpt><trkpt lat="39.5491417" lon="8.554095"><ele>306.6</ele><time>2026-05-01T08:41:41.797Z</time></trkpt><trkpt lat="39.5490533" lon="8.5540317"><ele>310.0</ele><time>2026-05-01T08:41:42.797Z</time></trkpt><trkpt lat="39.5489717" lon="8.553945"><ele>310.0</ele><time>2026-05-01T08:41:43.797Z</time></trkpt><trkpt lat="39.548905" lon="8.55384"><ele>310.0</ele><time>2026-05-01T08:41:44.797Z</time></trkpt><trkpt lat="39.5488517" lon="8.553715"><ele>310.0</ele><time>2026-05-01T08:41:45.798Z</time></trkpt><trkpt lat="39.5488067" lon="8.5535917"><ele>310.0</ele><time>2026-05-01T08:41:46.798Z</time></trkpt><trkpt lat="39.54878" lon="8.5534533"><ele>310.0</ele><time>2026-05-01T08:41:47.798Z</time></trkpt><trkpt lat="39.5487667" lon="8.5533183"><ele>307.2</ele><time>2026-05-01T08:41:48.797Z</time></trkpt><trkpt lat="39.5487733" lon="8.553175"><ele>304.4</ele><time>2026-05-01T08:41:49.797Z</time></trkpt><trkpt lat="39.54881" lon="8.553035"><ele>301.6</ele><time>2026-05-01T08:41:50.797Z</time></trkpt><trkpt lat="39.5488467" lon="8.5529083"><ele>298.8</ele><time>2026-05-01T08:41:51.798Z</time></trkpt><trkpt lat="39.5488633" lon="8.5527933"><ele>296.0</ele><time>2026-05-01T08:41:52.797Z</time></trkpt><trkpt lat="39.548855" lon="8.5526867"><ele>295.40000000000003</ele><time>2026-05-01T08:41:53.797Z</time></trkpt><trkpt lat="39.5488317" lon="8.552585"><ele>294.8</ele><time>2026-05-01T08:41:54.797Z</time></trkpt><trkpt lat="39.54878" lon="8.5525267"><ele>294.20000000000005</ele><time>2026-05-01T08:41:55.798Z</time></trkpt><trkpt lat="39.548695" lon="8.5524967"><ele>293.6</ele><time>2026-05-01T08:41:56.797Z</time></trkpt><trkpt lat="39.5485917" lon="8.55248"><ele>293.0</ele><time>2026-05-01T08:41:57.798Z</time></trkpt><trkpt lat="39.5484733" lon="8.5524733"><ele>298.25</ele><time>2026-05-01T08:41:58.797Z</time></trkpt><trkpt lat="39.5483467" lon="8.5524683"><ele>303.5</ele><time>2026-05-01T08:41:59.797Z</time></trkpt><trkpt lat="39.5482233" lon="8.55246"><ele>308.75</ele><time>2026-05-01T08:42:00.797Z</time></trkpt><trkpt lat="39.5481117" lon="8.552445"><ele>314.0</ele><time>2026-05-01T08:42:01.797Z</time></trkpt><trkpt lat="39.5480033" lon="8.5524217"><ele>314.0</ele><time>2026-05-01T08:42:02.797Z</time></trkpt><trkpt lat="39.5478983" lon="8.552395"><ele>314.0</ele><time>2026-05-01T08:42:03.797Z</time></trkpt><trkpt lat="39.5477983" lon="8.5523583"><ele>314.0</ele><time>2026-05-01T08:42:04.797Z</time></trkpt><trkpt lat="39.5477083" lon="8.55231"><ele>314.0</ele><time>2026-05-01T08:42:05.797Z</time></trkpt><trkpt lat="39.5476283" lon="8.5522417"><ele>314.0</ele><time>2026-05-01T08:42:06.797Z</time></trkpt><trkpt lat="39.5475533" lon="8.552155"><ele>314.4</ele><time>2026-05-01T08:42:07.798Z</time></trkpt><trkpt lat="39.5474833" lon="8.5520567"><ele>314.79999999999995</ele><time>2026-05-01T08:42:08.798Z</time></trkpt><trkpt lat="39.5474267" lon="8.5519483"><ele>315.20000000000005</ele><time>2026-05-01T08:42:09.798Z</time></trkpt><trkpt lat="39.5473717" lon="8.551825"><ele>315.6</ele><time>2026-05-01T08:42:10.797Z</time></trkpt><trkpt lat="39.5473317" lon="8.55168"><ele>316.0</ele><time>2026-05-01T08:42:11.797Z</time></trkpt><trkpt lat="39.5473067" lon="8.55153"><ele>316.0</ele><time>2026-05-01T08:42:12.797Z</time></trkpt><trkpt lat="39.5472867" lon="8.5513867"><ele>316.0</ele><time>2026-05-01T08:42:13.798Z</time></trkpt><trkpt lat="39.547275" lon="8.5512467"><ele>316.0</ele><time>2026-05-01T08:42:14.798Z</time></trkpt><trkpt lat="39.54727" lon="8.5511067"><ele>316.0</ele><time>2026-05-01T08:42:15.797Z</time></trkpt><trkpt lat="39.5472767" lon="8.550975"><ele>316.0</ele><time>2026-05-01T08:42:16.797Z</time></trkpt><trkpt lat="39.5472917" lon="8.5508433"><ele>316.2</ele><time>2026-05-01T08:42:17.797Z</time></trkpt><trkpt lat="39.5473083" lon="8.5507083"><ele>316.40000000000003</ele><time>2026-05-01T08:42:18.797Z</time></trkpt><trkpt lat="39.5473333" lon="8.5505833"><ele>316.6</ele><time>2026-05-01T08:42:19.797Z</time></trkpt><trkpt lat="39.5473583" lon="8.55046"><ele>316.8</ele><time>2026-05-01T08:42:20.797Z</time></trkpt><trkpt lat="39.5473733" lon="8.5503317"><ele>317.0</ele><time>2026-05-01T08:42:21.798Z</time></trkpt><trkpt lat="39.54739" lon="8.55021"><ele>318.1666666666667</ele><time>2026-05-01T08:42:22.797Z</time></trkpt><trkpt lat="39.5473833" lon="8.5500983"><ele>319.33333333333337</ele><time>2026-05-01T08:42:23.798Z</time></trkpt><trkpt lat="39.5473717" lon="8.5499967"><ele>320.5</ele><time>2026-05-01T08:42:24.797Z</time></trkpt><trkpt lat="39.5473433" lon="8.5499017"><ele>321.6666666666667</ele><time>2026-05-01T08:42:25.797Z</time></trkpt><trkpt lat="39.547295" lon="8.5498217"><ele>322.8333333333333</ele><time>2026-05-01T08:42:26.797Z</time></trkpt><trkpt lat="39.5472183" lon="8.5497517"><ele>324.0</ele><time>2026-05-01T08:42:27.797Z</time></trkpt><trkpt lat="39.5471217" lon="8.5496983"><ele>325.0</ele><time>2026-05-01T08:42:28.798Z</time></trkpt><trkpt lat="39.5470067" lon="8.5496633"><ele>326.0</ele><time>2026-05-01T08:42:29.797Z</time></trkpt><trkpt lat="39.5469" lon="8.5496267"><ele>327.0</ele><time>2026-05-01T08:42:30.798Z</time></trkpt><trkpt lat="39.5468083" lon="8.5495783"><ele>328.0</ele><time>2026-05-01T08:42:31.796Z</time></trkpt><trkpt lat="39.5467367" lon="8.5494983"><ele>329.0</ele><time>2026-05-01T08:42:32.797Z</time></trkpt><trkpt lat="39.546685" lon="8.5493967"><ele>329.0</ele><time>2026-05-01T08:42:33.796Z</time></trkpt><trkpt lat="39.5466467" lon="8.5492717"><ele>329.0</ele><time>2026-05-01T08:42:34.797Z</time></trkpt><trkpt lat="39.546625" lon="8.5491367"><ele>329.0</ele><time>2026-05-01T08:42:35.796Z</time></trkpt><trkpt lat="39.5466" lon="8.54899"><ele>329.0</ele><time>2026-05-01T08:42:36.796Z</time></trkpt><trkpt lat="39.5465733" lon="8.5488317"><ele>328.2</ele><time>2026-05-01T08:42:37.797Z</time></trkpt><trkpt lat="39.5465367" lon="8.54867"><ele>327.4</ele><time>2026-05-01T08:42:38.797Z</time></trkpt><trkpt lat="39.546495" lon="8.548525"><ele>326.6</ele><time>2026-05-01T08:42:39.797Z</time></trkpt><trkpt lat="39.5464583" lon="8.5483983"><ele>325.8</ele><time>2026-05-01T08:42:40.797Z</time></trkpt><trkpt lat="39.5464133" lon="8.5482967"><ele>325.0</ele><time>2026-05-01T08:42:41.796Z</time></trkpt><trkpt lat="39.5463567" lon="8.548205"><ele>325.0</ele><time>2026-05-01T08:42:42.796Z</time></trkpt><trkpt lat="39.5462833" lon="8.5481183"><ele>325.0</ele><time>2026-05-01T08:42:43.797Z</time></trkpt><trkpt lat="39.5461967" lon="8.5480517"><ele>325.0</ele><time>2026-05-01T08:42:44.796Z</time></trkpt><trkpt lat="39.5461033" lon="8.5479817"><ele>325.0</ele><time>2026-05-01T08:42:45.797Z</time></trkpt><trkpt lat="39.5460017" lon="8.5479183"><ele>325.0</ele><time>2026-05-01T08:42:46.796Z</time></trkpt><trkpt lat="39.5459067" lon="8.5478733"><ele>326.4</ele><time>2026-05-01T08:42:47.796Z</time></trkpt><trkpt lat="39.5458083" lon="8.5478383"><ele>327.8</ele><time>2026-05-01T08:42:48.797Z</time></trkpt><trkpt lat="39.5457133" lon="8.5478017"><ele>329.20000000000005</ele><time>2026-05-01T08:42:49.796Z</time></trkpt><trkpt lat="39.5456367" lon="8.5477467"><ele>330.6</ele><time>2026-05-01T08:42:50.797Z</time></trkpt><trkpt lat="39.54557" lon="8.5476783"><ele>332.0</ele><time>2026-05-01T08:42:51.797Z</time></trkpt><trkpt lat="39.5455183" lon="8.5475917"><ele>332.0</ele><time>2026-05-01T08:42:52.796Z</time></trkpt><trkpt lat="39.545485" lon="8.5474917"><ele>332.0</ele><time>2026-05-01T08:42:53.797Z</time></trkpt><trkpt lat="39.5454633" lon="8.54738"><ele>332.0</ele><time>2026-05-01T08:42:54.796Z</time></trkpt><trkpt lat="39.54544" lon="8.5472717"><ele>332.0</ele><time>2026-05-01T08:42:55.796Z</time></trkpt><trkpt lat="39.5454117" lon="8.5471667"><ele>332.0</ele><time>2026-05-01T08:42:56.796Z</time></trkpt><trkpt lat="39.5453583" lon="8.5470767"><ele>332.0</ele><time>2026-05-01T08:42:57.796Z</time></trkpt><trkpt lat="39.5452817" lon="8.5470033"><ele>334.0</ele><time>2026-05-01T08:42:58.796Z</time></trkpt><trkpt lat="39.54519" lon="8.546945"><ele>336.0</ele><time>2026-05-01T08:42:59.796Z</time></trkpt><trkpt lat="39.545075" lon="8.5468983"><ele>338.0</ele><time>2026-05-01T08:43:00.797Z</time></trkpt><trkpt lat="39.5449433" lon="8.5468567"><ele>340.0</ele><time>2026-05-01T08:43:01.797Z</time></trkpt><trkpt lat="39.5448067" lon="8.5468117"><ele>340.0</ele><time>2026-05-01T08:43:02.796Z</time></trkpt><trkpt lat="39.54469" lon="8.5467767"><ele>340.0</ele><time>2026-05-01T08:43:03.797Z</time></trkpt><trkpt lat="39.5445933" lon="8.5467367"><ele>340.0</ele><time>2026-05-01T08:43:04.796Z</time></trkpt><trkpt lat="39.5445117" lon="8.54669"><ele>340.0</ele><time>2026-05-01T08:43:05.796Z</time></trkpt><trkpt lat="39.5444517" lon="8.5466267"><ele>340.0</ele><time>2026-05-01T08:43:06.796Z</time></trkpt><trkpt lat="39.5444067" lon="8.546545"><ele>339.8</ele><time>2026-05-01T08:43:07.796Z</time></trkpt><trkpt lat="39.5443567" lon="8.5464367"><ele>339.6</ele><time>2026-05-01T08:43:08.797Z</time></trkpt><trkpt lat="39.5443067" lon="8.546315"><ele>339.4</ele><time>2026-05-01T08:43:09.796Z</time></trkpt><trkpt lat="39.5442583" lon="8.5461883"><ele>339.2</ele><time>2026-05-01T08:43:10.797Z</time></trkpt><trkpt lat="39.5442067" lon="8.5460833"><ele>339.0</ele><time>2026-05-01T08:43:11.796Z</time></trkpt><trkpt lat="39.544145" lon="8.5459883"><ele>339.0</ele><time>2026-05-01T08:43:12.796Z</time></trkpt><trkpt lat="39.544075" lon="8.5459167"><ele>339.0</ele><time>2026-05-01T08:43:13.796Z</time></trkpt><trkpt lat="39.5439983" lon="8.54586"><ele>339.0</ele><time>2026-05-01T08:43:14.796Z</time></trkpt><trkpt lat="39.543915" lon="8.5458133"><ele>339.0</ele><time>2026-05-01T08:43:15.796Z</time></trkpt><trkpt lat="39.5438167" lon="8.5457767"><ele>339.0</ele><time>2026-05-01T08:43:16.797Z</time></trkpt><trkpt lat="39.5437217" lon="8.5457367"><ele>334.8</ele><time>2026-05-01T08:43:17.797Z</time></trkpt><trkpt lat="39.54362" lon="8.5456967"><ele>330.59999999999997</ele><time>2026-05-01T08:43:18.796Z</time></trkpt><trkpt lat="39.5435283" lon="8.54566"><ele>326.4</ele><time>2026-05-01T08:43:19.796Z</time></trkpt><trkpt lat="39.5434567" lon="8.545615"><ele>322.2</ele><time>2026-05-01T08:43:20.797Z</time></trkpt><trkpt lat="39.5434017" lon="8.5455633"><ele>318.0</ele><time>2026-05-01T08:43:21.796Z</time></trkpt><trkpt lat="39.5433517" lon="8.5454483"><ele>318.2</ele><time>2026-05-01T08:43:23.796Z</time></trkpt><trkpt lat="39.54339" lon="8.5453267"><ele>318.4</ele><time>2026-05-01T08:43:25.796Z</time></trkpt><trkpt lat="39.5435067" lon="8.5453033"><ele>318.59999999999997</ele><time>2026-05-01T08:43:27.797Z</time></trkpt><trkpt lat="39.5435717" lon="8.5453217"><ele>318.8</ele><time>2026-05-01T08:43:28.796Z</time></trkpt><trkpt lat="39.5436367" lon="8.5453367"><ele>319.0</ele><time>2026-05-01T08:43:29.796Z</time></trkpt><trkpt lat="39.5437567" lon="8.5452733"><ele>323.4</ele><time>2026-05-01T08:43:31.796Z</time></trkpt><trkpt lat="39.5438133" lon="8.5451817"><ele>327.79999999999995</ele><time>2026-05-01T08:43:32.796Z</time></trkpt><trkpt lat="39.5438433" lon="8.5450733"><ele>332.20000000000005</ele><time>2026-05-01T08:43:33.796Z</time></trkpt><trkpt lat="39.543855" lon="8.5449517"><ele>336.6</ele><time>2026-05-01T08:43:34.796Z</time></trkpt><trkpt lat="39.54385" lon="8.5448183"><ele>341.0</ele><time>2026-05-01T08:43:35.797Z</time></trkpt><trkpt lat="39.5438317" lon="8.54468"><ele>341.25</ele><time>2026-05-01T08:43:36.796Z</time></trkpt><trkpt lat="39.5438017" lon="8.5445367"><ele>341.5</ele><time>2026-05-01T08:43:37.796Z</time></trkpt><trkpt lat="39.5437617" lon="8.5443917"><ele>341.75</ele><time>2026-05-01T08:43:38.796Z</time></trkpt><trkpt lat="39.5437167" lon="8.5442583"><ele>342.0</ele><time>2026-05-01T08:43:39.796Z</time></trkpt><trkpt lat="39.5436667" lon="8.5441283"><ele>337.25</ele><time>2026-05-01T08:43:40.797Z</time></trkpt><trkpt lat="39.5436067" lon="8.544"><ele>332.5</ele><time>2026-05-01T08:43:41.797Z</time></trkpt><trkpt lat="39.5435367" lon="8.5438783"><ele>327.75</ele><time>2026-05-01T08:43:42.797Z</time></trkpt><trkpt lat="39.543455" lon="8.54376"><ele>323.0</ele><time>2026-05-01T08:43:43.796Z</time></trkpt><trkpt lat="39.54338" lon="8.5436367"><ele>323.0</ele><time>2026-05-01T08:43:44.796Z</time></trkpt><trkpt lat="39.5433" lon="8.5435183"><ele>323.0</ele><time>2026-05-01T08:43:45.796Z</time></trkpt><trkpt lat="39.54321" lon="8.5433983"><ele>323.0</ele><time>2026-05-01T08:43:46.797Z</time></trkpt><trkpt lat="39.5431267" lon="8.5432983"><ele>323.0</ele><time>2026-05-01T08:43:47.797Z</time></trkpt><trkpt lat="39.5430467" lon="8.5432083"><ele>323.0</ele><time>2026-05-01T08:43:48.797Z</time></trkpt><trkpt lat="39.5429717" lon="8.5431183"><ele>323.0</ele><time>2026-05-01T08:43:49.796Z</time></trkpt><trkpt lat="39.5429017" lon="8.543055"><ele>323.0</ele><time>2026-05-01T08:43:50.797Z</time></trkpt><trkpt lat="39.5428267" lon="8.5430083"><ele>323.0</ele><time>2026-05-01T08:43:51.796Z</time></trkpt><trkpt lat="39.5427467" lon="8.5429867"><ele>323.0</ele><time>2026-05-01T08:43:52.797Z</time></trkpt><trkpt lat="39.54266" lon="8.5429967"><ele>323.0</ele><time>2026-05-01T08:43:53.796Z</time></trkpt><trkpt lat="39.5425667" lon="8.5430283"><ele>319.59999999999997</ele><time>2026-05-01T08:43:54.797Z</time></trkpt><trkpt lat="39.5424683" lon="8.5430633"><ele>316.2</ele><time>2026-05-01T08:43:55.796Z</time></trkpt><trkpt lat="39.5423683" lon="8.5431217"><ele>312.8</ele><time>2026-05-01T08:43:56.797Z</time></trkpt><trkpt lat="39.5422683" lon="8.5431817"><ele>309.4</ele><time>2026-05-01T08:43:57.796Z</time></trkpt><trkpt lat="39.5421733" lon="8.5432417"><ele>306.0</ele><time>2026-05-01T08:43:58.796Z</time></trkpt><trkpt lat="39.5420867" lon="8.5433017"><ele>305.3333333333333</ele><time>2026-05-01T08:43:59.796Z</time></trkpt><trkpt lat="39.5420083" lon="8.5433367"><ele>304.6666666666667</ele><time>2026-05-01T08:44:00.796Z</time></trkpt><trkpt lat="39.541935" lon="8.5433667"><ele>304.0</ele><time>2026-05-01T08:44:01.796Z</time></trkpt><trkpt lat="39.5418617" lon="8.5433733"><ele>303.33333333333337</ele><time>2026-05-01T08:44:02.796Z</time></trkpt><trkpt lat="39.541785" lon="8.5433533"><ele>302.6666666666667</ele><time>2026-05-01T08:44:03.796Z</time></trkpt><trkpt lat="39.541705" lon="8.5433117"><ele>302.0</ele><time>2026-05-01T08:44:04.796Z</time></trkpt><trkpt lat="39.54161" lon="8.5432617"><ele>302.0</ele><time>2026-05-01T08:44:05.796Z</time></trkpt><trkpt lat="39.5415083" lon="8.5432167"><ele>302.0</ele><time>2026-05-01T08:44:06.796Z</time></trkpt><trkpt lat="39.54141" lon="8.543185"><ele>302.0</ele><time>2026-05-01T08:44:07.797Z</time></trkpt><trkpt lat="39.5413267" lon="8.5431467"><ele>302.0</ele><time>2026-05-01T08:44:08.796Z</time></trkpt><trkpt lat="39.5412517" lon="8.5430817"><ele>302.0</ele><time>2026-05-01T08:44:09.796Z</time></trkpt><trkpt lat="39.5411867" lon="8.54299"><ele>298.75</ele><time>2026-05-01T08:44:10.797Z</time></trkpt><trkpt lat="39.5411217" lon="8.5428733"><ele>295.5</ele><time>2026-05-01T08:44:11.796Z</time></trkpt><trkpt lat="39.5410483" lon="8.54274"><ele>292.25</ele><time>2026-05-01T08:44:12.796Z</time></trkpt><trkpt lat="39.5409833" lon="8.542595"><ele>289.0</ele><time>2026-05-01T08:44:13.796Z</time></trkpt><trkpt lat="39.5409183" lon="8.5424483"><ele>289.0</ele><time>2026-05-01T08:44:14.796Z</time></trkpt><trkpt lat="39.5408567" lon="8.542305"><ele>289.0</ele><time>2026-05-01T08:44:15.797Z</time></trkpt><trkpt lat="39.5407883" lon="8.5421767"><ele>289.0</ele><time>2026-05-01T08:44:16.797Z</time></trkpt><trkpt lat="39.54073" lon="8.5420533"><ele>289.0</ele><time>2026-05-01T08:44:17.796Z</time></trkpt><trkpt lat="39.54068" lon="8.541945"><ele>290.0</ele><time>2026-05-01T08:44:18.796Z</time></trkpt><trkpt lat="39.540645" lon="8.54187"><ele>291.0</ele><time>2026-05-01T08:44:19.797Z</time></trkpt><trkpt lat="39.5406183" lon="8.54173"><ele>292.0</ele><time>2026-05-01T08:44:21.797Z</time></trkpt><trkpt lat="39.5406433" lon="8.54164"><ele>293.0</ele><time>2026-05-01T08:44:22.796Z</time></trkpt><trkpt lat="39.5406917" lon="8.5415267"><ele>294.0</ele><time>2026-05-01T08:44:23.797Z</time></trkpt><trkpt lat="39.5407367" lon="8.5414033"><ele>294.0</ele><time>2026-05-01T08:44:24.796Z</time></trkpt><trkpt lat="39.540765" lon="8.5412517"><ele>294.0</ele><time>2026-05-01T08:44:25.797Z</time></trkpt><trkpt lat="39.5407833" lon="8.5411"><ele>294.0</ele><time>2026-05-01T08:44:26.797Z</time></trkpt><trkpt lat="39.54081" lon="8.5409567"><ele>294.0</ele><time>2026-05-01T08:44:27.797Z</time></trkpt><trkpt lat="39.540855" lon="8.54082"><ele>291.4</ele><time>2026-05-01T08:44:28.797Z</time></trkpt><trkpt lat="39.540905" lon="8.5406883"><ele>288.79999999999995</ele><time>2026-05-01T08:44:29.797Z</time></trkpt><trkpt lat="39.5409583" lon="8.54057"><ele>286.20000000000005</ele><time>2026-05-01T08:44:30.796Z</time></trkpt><trkpt lat="39.5410117" lon="8.5404717"><ele>283.6</ele><time>2026-05-01T08:44:31.796Z</time></trkpt><trkpt lat="39.5410533" lon="8.540385"><ele>281.0</ele><time>2026-05-01T08:44:32.797Z</time></trkpt><trkpt lat="39.5411017" lon="8.5403167"><ele>279.1666666666667</ele><time>2026-05-01T08:44:33.796Z</time></trkpt><trkpt lat="39.5411717" lon="8.5402617"><ele>277.33333333333337</ele><time>2026-05-01T08:44:34.796Z</time></trkpt><trkpt lat="39.5412517" lon="8.54022"><ele>275.5</ele><time>2026-05-01T08:44:35.796Z</time></trkpt><trkpt lat="39.541325" lon="8.5401933"><ele>273.6666666666667</ele><time>2026-05-01T08:44:36.797Z</time></trkpt><trkpt lat="39.5413867" lon="8.540165"><ele>271.8333333333333</ele><time>2026-05-01T08:44:37.796Z</time></trkpt><trkpt lat="39.541475" lon="8.54007"><ele>270.0</ele><time>2026-05-01T08:44:39.796Z</time></trkpt><trkpt lat="39.5414983" lon="8.5399917"><ele>270.0</ele><time>2026-05-01T08:44:40.797Z</time></trkpt><trkpt lat="39.541485" lon="8.53984"><ele>270.0</ele><time>2026-05-01T08:44:42.796Z</time></trkpt><trkpt lat="39.5414067" lon="8.5397017"><ele>270.0</ele><time>2026-05-01T08:44:44.796Z</time></trkpt><trkpt lat="39.5413217" lon="8.5396317"><ele>270.0</ele><time>2026-05-01T08:44:45.796Z</time></trkpt><trkpt lat="39.5412083" lon="8.5395733"><ele>275.5</ele><time>2026-05-01T08:44:46.796Z</time></trkpt><trkpt lat="39.5410783" lon="8.53954"><ele>281.0</ele><time>2026-05-01T08:44:47.796Z</time></trkpt><trkpt lat="39.5409483" lon="8.5395183"><ele>286.5</ele><time>2026-05-01T08:44:48.797Z</time></trkpt><trkpt lat="39.54083" lon="8.5395117"><ele>292.0</ele><time>2026-05-01T08:44:49.797Z</time></trkpt><trkpt lat="39.540715" lon="8.53952"><ele>292.0</ele><time>2026-05-01T08:44:50.797Z</time></trkpt><trkpt lat="39.5406017" lon="8.539535"><ele>292.0</ele><time>2026-05-01T08:44:51.796Z</time></trkpt><trkpt lat="39.5404767" lon="8.5395367"><ele>292.0</ele><time>2026-05-01T08:44:52.797Z</time></trkpt><trkpt lat="39.540345" lon="8.53953"><ele>292.0</ele><time>2026-05-01T08:44:53.796Z</time></trkpt><trkpt lat="39.5402267" lon="8.539535"><ele>288.4</ele><time>2026-05-01T08:44:54.796Z</time></trkpt><trkpt lat="39.54013" lon="8.5395417"><ele>284.79999999999995</ele><time>2026-05-01T08:44:55.797Z</time></trkpt><trkpt lat="39.54005" lon="8.5395433"><ele>281.2</ele><time>2026-05-01T08:44:56.797Z</time></trkpt><trkpt lat="39.5399717" lon="8.5395167"><ele>277.59999999999997</ele><time>2026-05-01T08:44:57.797Z</time></trkpt><trkpt lat="39.53989" lon="8.539465"><ele>274.0</ele><time>2026-05-01T08:44:58.796Z</time></trkpt><trkpt lat="39.5398" lon="8.5393917"><ele>274.0</ele><time>2026-05-01T08:44:59.796Z</time></trkpt><trkpt lat="39.5396967" lon="8.5392917"><ele>274.0</ele><time>2026-05-01T08:45:00.796Z</time></trkpt><trkpt lat="39.5395933" lon="8.5392067"><ele>274.0</ele><time>2026-05-01T08:45:01.797Z</time></trkpt><trkpt lat="39.5395" lon="8.5391283"><ele>274.0</ele><time>2026-05-01T08:45:02.796Z</time></trkpt><trkpt lat="39.5394167" lon="8.5390733"><ele>272.3333333333333</ele><time>2026-05-01T08:45:03.796Z</time></trkpt><trkpt lat="39.539345" lon="8.5390233"><ele>270.66666666666663</ele><time>2026-05-01T08:45:04.796Z</time></trkpt><trkpt lat="39.5392933" lon="8.5389567"><ele>269.0</ele><time>2026-05-01T08:45:05.796Z</time></trkpt><trkpt lat="39.539265" lon="8.5388767"><ele>267.3333333333333</ele><time>2026-05-01T08:45:06.796Z</time></trkpt><trkpt lat="39.5392583" lon="8.5387767"><ele>265.6666666666667</ele><time>2026-05-01T08:45:07.797Z</time></trkpt><trkpt lat="39.5392733" lon="8.5386717"><ele>264.0</ele><time>2026-05-01T08:45:08.796Z</time></trkpt><trkpt lat="39.539305" lon="8.5385633"><ele>264.0</ele><time>2026-05-01T08:45:09.796Z</time></trkpt><trkpt lat="39.539335" lon="8.538465"><ele>264.0</ele><time>2026-05-01T08:45:10.796Z</time></trkpt><trkpt lat="39.53934" lon="8.5383717"><ele>264.0</ele><time>2026-05-01T08:45:11.796Z</time></trkpt><trkpt lat="39.53929" lon="8.53824"><ele>264.0</ele><time>2026-05-01T08:45:13.796Z</time></trkpt><trkpt lat="39.5391567" lon="8.5381767"><ele>264.0</ele><time>2026-05-01T08:45:15.796Z</time></trkpt><trkpt lat="39.539055" lon="8.53817"><ele>264.0</ele><time>2026-05-01T08:45:16.797Z</time></trkpt><trkpt lat="39.538955" lon="8.5381567"><ele>264.0</ele><time>2026-05-01T08:45:17.796Z</time></trkpt><trkpt lat="39.5388783" lon="8.5381233"><ele>264.0</ele><time>2026-05-01T08:45:18.797Z</time></trkpt><trkpt lat="39.538825" lon="8.5380617"><ele>264.0</ele><time>2026-05-01T08:45:19.796Z</time></trkpt><trkpt lat="39.53879" lon="8.5379867"><ele>264.0</ele><time>2026-05-01T08:45:20.796Z</time></trkpt><trkpt lat="39.5387717" lon="8.5378933"><ele>264.0</ele><time>2026-05-01T08:45:21.796Z</time></trkpt><trkpt lat="39.538765" lon="8.5377867"><ele>265.4</ele><time>2026-05-01T08:45:22.797Z</time></trkpt><trkpt lat="39.5387617" lon="8.53769"><ele>266.79999999999995</ele><time>2026-05-01T08:45:23.796Z</time></trkpt><trkpt lat="39.53874" lon="8.5375683"><ele>268.20000000000005</ele><time>2026-05-01T08:45:25.796Z</time></trkpt><trkpt lat="39.538675" lon="8.5375617"><ele>269.6</ele><time>2026-05-01T08:45:27.796Z</time></trkpt><trkpt lat="39.5385917" lon="8.5376133"><ele>271.0</ele><time>2026-05-01T08:45:29.796Z</time></trkpt><trkpt lat="39.5385" lon="8.53773"><ele>268.66666666666663</ele><time>2026-05-01T08:45:31.796Z</time></trkpt><trkpt lat="39.5384483" lon="8.5377933"><ele>266.3333333333333</ele><time>2026-05-01T08:45:32.797Z</time></trkpt><trkpt lat="39.5383933" lon="8.5378367"><ele>264.0</ele><time>2026-05-01T08:45:33.796Z</time></trkpt><trkpt lat="39.5382717" lon="8.5378367"><ele>261.6666666666667</ele><time>2026-05-01T08:45:35.796Z</time></trkpt><trkpt lat="39.5382133" lon="8.5378"><ele>259.33333333333337</ele><time>2026-05-01T08:45:36.796Z</time></trkpt><trkpt lat="39.5381583" lon="8.537735"><ele>257.0</ele><time>2026-05-01T08:45:37.797Z</time></trkpt><trkpt lat="39.53811" lon="8.53766"><ele>257.0</ele><time>2026-05-01T08:45:38.797Z</time></trkpt><trkpt lat="39.5380667" lon="8.5375683"><ele>257.0</ele><time>2026-05-01T08:45:39.797Z</time></trkpt><trkpt lat="39.5380167" lon="8.5374567"><ele>257.0</ele><time>2026-05-01T08:45:40.796Z</time></trkpt><trkpt lat="39.5379533" lon="8.5373467"><ele>257.0</ele><time>2026-05-01T08:45:41.795Z</time></trkpt><trkpt lat="39.5378783" lon="8.5372383"><ele>257.0</ele><time>2026-05-01T08:45:42.795Z</time></trkpt><trkpt lat="39.53779" lon="8.5371233"><ele>253.8</ele><time>2026-05-01T08:45:43.795Z</time></trkpt><trkpt lat="39.53771" lon="8.5370117"><ele>250.6</ele><time>2026-05-01T08:45:44.796Z</time></trkpt><trkpt lat="39.5376367" lon="8.536915"><ele>247.40000000000003</ele><time>2026-05-01T08:45:45.795Z</time></trkpt><trkpt lat="39.5375733" lon="8.5368267"><ele>244.20000000000002</ele><time>2026-05-01T08:45:46.796Z</time></trkpt><trkpt lat="39.537525" lon="8.5367533"><ele>241.0</ele><time>2026-05-01T08:45:47.796Z</time></trkpt><trkpt lat="39.5374883" lon="8.5366867"><ele>241.0</ele><time>2026-05-01T08:45:48.795Z</time></trkpt><trkpt lat="39.53745" lon="8.53655"><ele>241.00000000000003</ele><time>2026-05-01T08:45:50.796Z</time></trkpt><trkpt lat="39.5374817" lon="8.5363833"><ele>241.00000000000003</ele><time>2026-05-01T08:45:52.795Z</time></trkpt><trkpt lat="39.537525" lon="8.5362933"><ele>241.0</ele><time>2026-05-01T08:45:53.795Z</time></trkpt><trkpt lat="39.537585" lon="8.53621"><ele>241.0</ele><time>2026-05-01T08:45:54.795Z</time></trkpt><trkpt lat="39.5376417" lon="8.5361183"><ele>241.66666666666666</ele><time>2026-05-01T08:45:55.795Z</time></trkpt><trkpt lat="39.5376967" lon="8.5360367"><ele>242.33333333333331</ele><time>2026-05-01T08:45:56.795Z</time></trkpt><trkpt lat="39.5377433" lon="8.53598"><ele>243.0</ele><time>2026-05-01T08:45:57.795Z</time></trkpt><trkpt lat="39.5377783" lon="8.53591"><ele>243.66666666666669</ele><time>2026-05-01T08:45:58.795Z</time></trkpt><trkpt lat="39.5377717" lon="8.5357883"><ele>244.33333333333334</ele><time>2026-05-01T08:46:00.795Z</time></trkpt><trkpt lat="39.5376967" lon="8.535725"><ele>245.0</ele><time>2026-05-01T08:46:02.795Z</time></trkpt><trkpt lat="39.5375767" lon="8.535745"><ele>245.0</ele><time>2026-05-01T08:46:04.796Z</time></trkpt><trkpt lat="39.537505" lon="8.5358033"><ele>245.0</ele><time>2026-05-01T08:46:05.795Z</time></trkpt><trkpt lat="39.53742" lon="8.535885"><ele>245.0</ele><time>2026-05-01T08:46:06.795Z</time></trkpt><trkpt lat="39.5373283" lon="8.5359733"><ele>245.0</ele><time>2026-05-01T08:46:07.796Z</time></trkpt><trkpt lat="39.5372283" lon="8.53608"><ele>245.0</ele><time>2026-05-01T08:46:08.795Z</time></trkpt><trkpt lat="39.5371317" lon="8.5361717"><ele>244.42857142857144</ele><time>2026-05-01T08:46:09.795Z</time></trkpt><trkpt lat="39.537055" lon="8.536255"><ele>243.85714285714286</ele><time>2026-05-01T08:46:10.795Z</time></trkpt><trkpt lat="39.5369967" lon="8.536305"><ele>243.28571428571428</ele><time>2026-05-01T08:46:11.796Z</time></trkpt><trkpt lat="39.5369383" lon="8.53634"><ele>242.71428571428572</ele><time>2026-05-01T08:46:12.795Z</time></trkpt><trkpt lat="39.5368733" lon="8.536365"><ele>242.14285714285717</ele><time>2026-05-01T08:46:13.795Z</time></trkpt><trkpt lat="39.5368033" lon="8.53637"><ele>241.57142857142858</ele><time>2026-05-01T08:46:14.795Z</time></trkpt><trkpt lat="39.5367333" lon="8.536345"><ele>241.0</ele><time>2026-05-01T08:46:15.795Z</time></trkpt><trkpt lat="39.536655" lon="8.53629"><ele>240.60000000000002</ele><time>2026-05-01T08:46:16.795Z</time></trkpt><trkpt lat="39.53658" lon="8.53621"><ele>240.20000000000002</ele><time>2026-05-01T08:46:17.796Z</time></trkpt><trkpt lat="39.5365033" lon="8.536115"><ele>239.79999999999998</ele><time>2026-05-01T08:46:18.795Z</time></trkpt><trkpt lat="39.5364183" lon="8.5360233"><ele>239.39999999999998</ele><time>2026-05-01T08:46:19.796Z</time></trkpt><trkpt lat="39.5363233" lon="8.5359583"><ele>239.0</ele><time>2026-05-01T08:46:20.795Z</time></trkpt><trkpt lat="39.536235" lon="8.535915"><ele>234.50000000000003</ele><time>2026-05-01T08:46:21.796Z</time></trkpt><trkpt lat="39.53616" lon="8.5358817"><ele>230.0</ele><time>2026-05-01T08:46:22.795Z</time></trkpt><trkpt lat="39.5361" lon="8.53583"><ele>225.5</ele><time>2026-05-01T08:46:23.795Z</time></trkpt><trkpt lat="39.5360633" lon="8.5357617"><ele>221.0</ele><time>2026-05-01T08:46:24.795Z</time></trkpt><trkpt lat="39.5360467" lon="8.53567"><ele>216.50000000000003</ele><time>2026-05-01T08:46:25.796Z</time></trkpt><trkpt lat="39.5360467" lon="8.535565"><ele>212.0</ele><time>2026-05-01T08:46:26.795Z</time></trkpt><trkpt lat="39.5360633" lon="8.53545"><ele>212.2</ele><time>2026-05-01T08:46:27.796Z</time></trkpt><trkpt lat="39.5360867" lon="8.5353333"><ele>212.39999999999998</ele><time>2026-05-01T08:46:28.795Z</time></trkpt><trkpt lat="39.5360867" lon="8.535215"><ele>212.60000000000002</ele><time>2026-05-01T08:46:29.795Z</time></trkpt><trkpt lat="39.5360667" lon="8.5350833"><ele>212.8</ele><time>2026-05-01T08:46:30.795Z</time></trkpt><trkpt lat="39.536045" lon="8.5349483"><ele>213.0</ele><time>2026-05-01T08:46:31.796Z</time></trkpt><trkpt lat="39.5360033" lon="8.5348233"><ele>213.0</ele><time>2026-05-01T08:46:32.796Z</time></trkpt><trkpt lat="39.5359483" lon="8.5347067"><ele>213.0</ele><time>2026-05-01T08:46:33.796Z</time></trkpt><trkpt lat="39.5358983" lon="8.534615"><ele>213.0</ele><time>2026-05-01T08:46:34.795Z</time></trkpt><trkpt lat="39.5358583" lon="8.53454"><ele>213.0</ele><time>2026-05-01T08:46:35.795Z</time></trkpt><trkpt lat="39.5358283" lon="8.534405"><ele>213.0</ele><time>2026-05-01T08:46:37.795Z</time></trkpt><trkpt lat="39.53584" lon="8.534315"><ele>213.0</ele><time>2026-05-01T08:46:38.795Z</time></trkpt><trkpt lat="39.5358683" lon="8.5342117"><ele>212.8</ele><time>2026-05-01T08:46:39.795Z</time></trkpt><trkpt lat="39.53591" lon="8.534095"><ele>212.60000000000002</ele><time>2026-05-01T08:46:40.795Z</time></trkpt><trkpt lat="39.5359567" lon="8.533975"><ele>212.39999999999998</ele><time>2026-05-01T08:46:41.795Z</time></trkpt><trkpt lat="39.536005" lon="8.5338417"><ele>212.2</ele><time>2026-05-01T08:46:42.795Z</time></trkpt><trkpt lat="39.5360783" lon="8.53371"><ele>212.0</ele><time>2026-05-01T08:46:43.795Z</time></trkpt><trkpt lat="39.5361667" lon="8.533585"><ele>214.8</ele><time>2026-05-01T08:46:44.795Z</time></trkpt><trkpt lat="39.5362517" lon="8.5334783"><ele>217.6</ele><time>2026-05-01T08:46:45.795Z</time></trkpt><trkpt lat="39.536325" lon="8.5334067"><ele>220.40000000000003</ele><time>2026-05-01T08:46:46.795Z</time></trkpt><trkpt lat="39.5363667" lon="8.53334"><ele>223.20000000000002</ele><time>2026-05-01T08:46:47.795Z</time></trkpt><trkpt lat="39.5364083" lon="8.5332"><ele>226.0</ele><time>2026-05-01T08:46:49.796Z</time></trkpt><trkpt lat="39.5363533" lon="8.5330833"><ele>225.99999999999997</ele><time>2026-05-01T08:46:51.795Z</time></trkpt><trkpt lat="39.5362967" lon="8.5330467"><ele>226.0</ele><time>2026-05-01T08:46:52.795Z</time></trkpt><trkpt lat="39.5362267" lon="8.5330333"><ele>226.0</ele><time>2026-05-01T08:46:53.795Z</time></trkpt><trkpt lat="39.5361367" lon="8.53304"><ele>226.0</ele><time>2026-05-01T08:46:54.795Z</time></trkpt><trkpt lat="39.53604" lon="8.5330683"><ele>225.99999999999997</ele><time>2026-05-01T08:46:55.796Z</time></trkpt><trkpt lat="39.5359667" lon="8.5330867"><ele>226.0</ele><time>2026-05-01T08:46:56.795Z</time></trkpt><trkpt lat="39.5359017" lon="8.5330783"><ele>224.0</ele><time>2026-05-01T08:46:57.795Z</time></trkpt><trkpt lat="39.53583" lon="8.5330367"><ele>222.00000000000003</ele><time>2026-05-01T08:46:58.796Z</time></trkpt><trkpt lat="39.5357583" lon="8.5329717"><ele>220.00000000000003</ele><time>2026-05-01T08:46:59.795Z</time></trkpt><trkpt lat="39.5356733" lon="8.5328917"><ele>218.0</ele><time>2026-05-01T08:47:00.795Z</time></trkpt><trkpt lat="39.5355783" lon="8.53279"><ele>216.0</ele><time>2026-05-01T08:47:01.795Z</time></trkpt><trkpt lat="39.5354817" lon="8.5326867"><ele>216.0</ele><time>2026-05-01T08:47:02.795Z</time></trkpt><trkpt lat="39.5353967" lon="8.5325767"><ele>216.0</ele><time>2026-05-01T08:47:03.795Z</time></trkpt><trkpt lat="39.5353233" lon="8.5324617"><ele>216.0</ele><time>2026-05-01T08:47:04.796Z</time></trkpt><trkpt lat="39.5352683" lon="8.5323417"><ele>216.0</ele><time>2026-05-01T08:47:05.795Z</time></trkpt><trkpt lat="39.5352183" lon="8.5322167"><ele>210.0</ele><time>2026-05-01T08:47:06.795Z</time></trkpt><trkpt lat="39.5351733" lon="8.5320817"><ele>204.0</ele><time>2026-05-01T08:47:07.796Z</time></trkpt><trkpt lat="39.5351467" lon="8.53193"><ele>198.0</ele><time>2026-05-01T08:47:08.795Z</time></trkpt><trkpt lat="39.5351233" lon="8.5317733"><ele>192.0</ele><time>2026-05-01T08:47:09.795Z</time></trkpt><trkpt lat="39.5351067" lon="8.5316017"><ele>192.0</ele><time>2026-05-01T08:47:10.795Z</time></trkpt><trkpt lat="39.53509" lon="8.531425"><ele>192.0</ele><time>2026-05-01T08:47:11.795Z</time></trkpt><trkpt lat="39.535075" lon="8.531245"><ele>192.0</ele><time>2026-05-01T08:47:12.795Z</time></trkpt><trkpt lat="39.535055" lon="8.531075"><ele>192.0</ele><time>2026-05-01T08:47:13.795Z</time></trkpt><trkpt lat="39.5350267" lon="8.5309133"><ele>191.8</ele><time>2026-05-01T08:47:14.795Z</time></trkpt><trkpt lat="39.5349983" lon="8.530755"><ele>191.6</ele><time>2026-05-01T08:47:15.795Z</time></trkpt><trkpt lat="39.5349667" lon="8.5306067"><ele>191.4</ele><time>2026-05-01T08:47:16.796Z</time></trkpt><trkpt lat="39.5349483" lon="8.5304833"><ele>191.20000000000002</ele><time>2026-05-01T08:47:17.795Z</time></trkpt><trkpt lat="39.534925" lon="8.5303867"><ele>191.0</ele><time>2026-05-01T08:47:18.796Z</time></trkpt><trkpt lat="39.5348967" lon="8.5303083"><ele>190.4</ele><time>2026-05-01T08:47:19.795Z</time></trkpt><trkpt lat="39.5348517" lon="8.5302417"><ele>189.8</ele><time>2026-05-01T08:47:20.795Z</time></trkpt><trkpt lat="39.53478" lon="8.5301783"><ele>189.20000000000002</ele><time>2026-05-01T08:47:21.795Z</time></trkpt><trkpt lat="39.534685" lon="8.5301217"><ele>188.60000000000002</ele><time>2026-05-01T08:47:22.795Z</time></trkpt><trkpt lat="39.5345783" lon="8.530075"><ele>188.0</ele><time>2026-05-01T08:47:23.796Z</time></trkpt><trkpt lat="39.534485" lon="8.5300417"><ele>186.8</ele><time>2026-05-01T08:47:24.796Z</time></trkpt><trkpt lat="39.5344083" lon="8.5300167"><ele>185.60000000000002</ele><time>2026-05-01T08:47:25.795Z</time></trkpt><trkpt lat="39.5343083" lon="8.5299533"><ele>184.39999999999998</ele><time>2026-05-01T08:47:27.795Z</time></trkpt><trkpt lat="39.5342867" lon="8.529815"><ele>183.2</ele><time>2026-05-01T08:47:29.796Z</time></trkpt><trkpt lat="39.5343167" lon="8.5297183"><ele>182.0</ele><time>2026-05-01T08:47:30.795Z</time></trkpt><trkpt lat="39.5343733" lon="8.52962"><ele>181.83333333333331</ele><time>2026-05-01T08:47:31.796Z</time></trkpt><trkpt lat="39.5344333" lon="8.5295317"><ele>181.66666666666666</ele><time>2026-05-01T08:47:32.795Z</time></trkpt><trkpt lat="39.534485" lon="8.52945"><ele>181.5</ele><time>2026-05-01T08:47:33.796Z</time></trkpt><trkpt lat="39.53451" lon="8.5293633"><ele>181.33333333333334</ele><time>2026-05-01T08:47:34.796Z</time></trkpt><trkpt lat="39.5345133" lon="8.529265"><ele>181.16666666666669</ele><time>2026-05-01T08:47:35.795Z</time></trkpt><trkpt lat="39.5344867" lon="8.5291633"><ele>181.0</ele><time>2026-05-01T08:47:36.795Z</time></trkpt><trkpt lat="39.5344383" lon="8.52905"><ele>181.0</ele><time>2026-05-01T08:47:37.795Z</time></trkpt><trkpt lat="39.53438" lon="8.52892"><ele>181.0</ele><time>2026-05-01T08:47:38.795Z</time></trkpt><trkpt lat="39.5343183" lon="8.5287783"><ele>181.0</ele><time>2026-05-01T08:47:39.795Z</time></trkpt><trkpt lat="39.5342683" lon="8.5286283"><ele>181.0</ele><time>2026-05-01T08:47:40.796Z</time></trkpt><trkpt lat="39.5342217" lon="8.5284583"><ele>180.5</ele><time>2026-05-01T08:47:41.795Z</time></trkpt><trkpt lat="39.5341767" lon="8.5282833"><ele>180.0</ele><time>2026-05-01T08:47:42.796Z</time></trkpt><trkpt lat="39.53413" lon="8.5281017"><ele>179.5</ele><time>2026-05-01T08:47:43.795Z</time></trkpt><trkpt lat="39.5340767" lon="8.52792"><ele>179.0</ele><time>2026-05-01T08:47:44.795Z</time></trkpt><trkpt lat="39.5340217" lon="8.52775"><ele>179.0</ele><time>2026-05-01T08:47:45.795Z</time></trkpt><trkpt lat="39.533975" lon="8.5275767"><ele>179.0</ele><time>2026-05-01T08:47:46.795Z</time></trkpt><trkpt lat="39.533925" lon="8.527405"><ele>179.0</ele><time>2026-05-01T08:47:47.796Z</time></trkpt><trkpt lat="39.533875" lon="8.5272367"><ele>179.0</ele><time>2026-05-01T08:47:48.795Z</time></trkpt><trkpt lat="39.5338333" lon="8.5270733"><ele>178.16666666666666</ele><time>2026-05-01T08:47:49.795Z</time></trkpt><trkpt lat="39.5338017" lon="8.526935"><ele>177.33333333333331</ele><time>2026-05-01T08:47:50.795Z</time></trkpt><trkpt lat="39.5337683" lon="8.526815"><ele>176.5</ele><time>2026-05-01T08:47:51.796Z</time></trkpt><trkpt lat="39.5337367" lon="8.5267117"><ele>175.66666666666666</ele><time>2026-05-01T08:47:52.795Z</time></trkpt><trkpt lat="39.53371" lon="8.5266183"><ele>174.83333333333334</ele><time>2026-05-01T08:47:53.795Z</time></trkpt><trkpt lat="39.5336817" lon="8.5265333"><ele>174.0</ele><time>2026-05-01T08:47:54.795Z</time></trkpt><trkpt lat="39.5336383" lon="8.526375"><ele>174.0</ele><time>2026-05-01T08:47:56.795Z</time></trkpt><trkpt lat="39.5336117" lon="8.526285"><ele>174.0</ele><time>2026-05-01T08:47:57.795Z</time></trkpt><trkpt lat="39.533585" lon="8.5261783"><ele>174.0</ele><time>2026-05-01T08:47:58.795Z</time></trkpt><trkpt lat="39.5335517" lon="8.5260717"><ele>174.0</ele><time>2026-05-01T08:47:59.795Z</time></trkpt><trkpt lat="39.5335233" lon="8.5259583"><ele>174.0</ele><time>2026-05-01T08:48:00.795Z</time></trkpt><trkpt lat="39.5334933" lon="8.5258467"><ele>174.0</ele><time>2026-05-01T08:48:01.796Z</time></trkpt><trkpt lat="39.5334617" lon="8.52574"><ele>173.16666666666666</ele><time>2026-05-01T08:48:02.795Z</time></trkpt><trkpt lat="39.53343" lon="8.5256433"><ele>172.33333333333334</ele><time>2026-05-01T08:48:03.795Z</time></trkpt><trkpt lat="39.5334033" lon="8.5255433"><ele>171.5</ele><time>2026-05-01T08:48:04.796Z</time></trkpt><trkpt lat="39.5333767" lon="8.5254433"><ele>170.66666666666669</ele><time>2026-05-01T08:48:05.795Z</time></trkpt><trkpt lat="39.53335" lon="8.525345"><ele>169.83333333333334</ele><time>2026-05-01T08:48:06.795Z</time></trkpt><trkpt lat="39.5333217" lon="8.5252433"><ele>169.0</ele><time>2026-05-01T08:48:07.795Z</time></trkpt><trkpt lat="39.5332967" lon="8.5251417"><ele>168.83333333333334</ele><time>2026-05-01T08:48:08.795Z</time></trkpt><trkpt lat="39.533265" lon="8.52505"><ele>168.66666666666669</ele><time>2026-05-01T08:48:09.795Z</time></trkpt><trkpt lat="39.5332367" lon="8.5249583"><ele>168.5</ele><time>2026-05-01T08:48:10.795Z</time></trkpt><trkpt lat="39.5332117" lon="8.5248617"><ele>168.33333333333334</ele><time>2026-05-01T08:48:11.796Z</time></trkpt><trkpt lat="39.53318" lon="8.5247617"><ele>168.16666666666666</ele><time>2026-05-01T08:48:12.795Z</time></trkpt><trkpt lat="39.5331483" lon="8.5246617"><ele>168.0</ele><time>2026-05-01T08:48:13.795Z</time></trkpt><trkpt lat="39.53312" lon="8.5245533"><ele>169.4</ele><time>2026-05-01T08:48:14.796Z</time></trkpt><trkpt lat="39.5330883" lon="8.52443"><ele>170.8</ele><time>2026-05-01T08:48:15.795Z</time></trkpt><trkpt lat="39.5330517" lon="8.524305"><ele>172.2</ele><time>2026-05-01T08:48:16.796Z</time></trkpt><trkpt lat="39.5330167" lon="8.5241733"><ele>173.6</ele><time>2026-05-01T08:48:17.795Z</time></trkpt><trkpt lat="39.53298" lon="8.5240383"><ele>175.0</ele><time>2026-05-01T08:48:18.795Z</time></trkpt><trkpt lat="39.5329333" lon="8.5239067"><ele>172.6</ele><time>2026-05-01T08:48:19.796Z</time></trkpt><trkpt lat="39.5328867" lon="8.5237783"><ele>170.2</ele><time>2026-05-01T08:48:20.795Z</time></trkpt><trkpt lat="39.5328383" lon="8.5236583"><ele>167.8</ele><time>2026-05-01T08:48:21.795Z</time></trkpt><trkpt lat="39.532775" lon="8.5235667"><ele>165.4</ele><time>2026-05-01T08:48:22.796Z</time></trkpt><trkpt lat="39.532705" lon="8.5234983"><ele>163.0</ele><time>2026-05-01T08:48:23.796Z</time></trkpt><trkpt lat="39.5326183" lon="8.5234433"><ele>163.0</ele><time>2026-05-01T08:48:24.796Z</time></trkpt><trkpt lat="39.53253" lon="8.52338"><ele>163.0</ele><time>2026-05-01T08:48:25.795Z</time></trkpt><trkpt lat="39.5324433" lon="8.523315"><ele>163.0</ele><time>2026-05-01T08:48:26.796Z</time></trkpt><trkpt lat="39.5323517" lon="8.5232467"><ele>163.0</ele><time>2026-05-01T08:48:27.795Z</time></trkpt><trkpt lat="39.5322633" lon="8.523155"><ele>163.0</ele><time>2026-05-01T08:48:28.796Z</time></trkpt><trkpt lat="39.5321817" lon="8.5230533"><ele>163.0</ele><time>2026-05-01T08:48:29.795Z</time></trkpt><trkpt lat="39.5321167" lon="8.5229433"><ele>163.0</ele><time>2026-05-01T08:48:30.795Z</time></trkpt><trkpt lat="39.5320733" lon="8.5228267"><ele>163.0</ele><time>2026-05-01T08:48:31.796Z</time></trkpt><trkpt lat="39.532055" lon="8.5227167"><ele>163.0</ele><time>2026-05-01T08:48:32.796Z</time></trkpt><trkpt lat="39.5320517" lon="8.5225967"><ele>163.0</ele><time>2026-05-01T08:48:33.795Z</time></trkpt><trkpt lat="39.532055" lon="8.5224667"><ele>163.60000000000002</ele><time>2026-05-01T08:48:34.795Z</time></trkpt><trkpt lat="39.53206" lon="8.5223233"><ele>164.20000000000002</ele><time>2026-05-01T08:48:35.795Z</time></trkpt><trkpt lat="39.53206" lon="8.522185"><ele>164.8</ele><time>2026-05-01T08:48:36.794Z</time></trkpt><trkpt lat="39.5320517" lon="8.5220533"><ele>165.4</ele><time>2026-05-01T08:48:37.794Z</time></trkpt><trkpt lat="39.532035" lon="8.5219283"><ele>166.0</ele><time>2026-05-01T08:48:38.794Z</time></trkpt><trkpt lat="39.5320133" lon="8.5218067"><ele>166.66666666666669</ele><time>2026-05-01T08:48:39.794Z</time></trkpt><trkpt lat="39.5319917" lon="8.521685"><ele>167.33333333333334</ele><time>2026-05-01T08:48:40.795Z</time></trkpt><trkpt lat="39.531965" lon="8.5215833"><ele>168.0</ele><time>2026-05-01T08:48:41.794Z</time></trkpt><trkpt lat="39.5319267" lon="8.5215083"><ele>168.66666666666666</ele><time>2026-05-01T08:48:42.794Z</time></trkpt><trkpt lat="39.531885" lon="8.5214467"><ele>169.33333333333331</ele><time>2026-05-01T08:48:43.794Z</time></trkpt><trkpt lat="39.5317717" lon="8.521415"><ele>170.0</ele><time>2026-05-01T08:48:45.794Z</time></trkpt><trkpt lat="39.5317017" lon="8.5214483"><ele>170.0</ele><time>2026-05-01T08:48:46.794Z</time></trkpt><trkpt lat="39.5316267" lon="8.5215017"><ele>170.0</ele><time>2026-05-01T08:48:47.794Z</time></trkpt><trkpt lat="39.5315583" lon="8.52156"><ele>170.0</ele><time>2026-05-01T08:48:48.794Z</time></trkpt><trkpt lat="39.5314933" lon="8.521615"><ele>170.0</ele><time>2026-05-01T08:48:49.794Z</time></trkpt><trkpt lat="39.5314283" lon="8.52167"><ele>170.0</ele><time>2026-05-01T08:48:50.795Z</time></trkpt><trkpt lat="39.531375" lon="8.5217317"><ele>170.0</ele><time>2026-05-01T08:48:51.795Z</time></trkpt><trkpt lat="39.5313383" lon="8.5218083"><ele>170.0</ele><time>2026-05-01T08:48:52.795Z</time></trkpt><trkpt lat="39.53132" lon="8.5219"><ele>170.0</ele><time>2026-05-01T08:48:53.795Z</time></trkpt><trkpt lat="39.5313083" lon="8.5219933"><ele>170.0</ele><time>2026-05-01T08:48:54.794Z</time></trkpt><trkpt lat="39.5313083" lon="8.5220833"><ele>170.0</ele><time>2026-05-01T08:48:55.794Z</time></trkpt><trkpt lat="39.5313167" lon="8.5221867"><ele>170.0</ele><time>2026-05-01T08:48:56.794Z</time></trkpt><trkpt lat="39.5313367" lon="8.5222967"><ele>170.0</ele><time>2026-05-01T08:48:57.794Z</time></trkpt><trkpt lat="39.5313667" lon="8.5224083"><ele>171.2</ele><time>2026-05-01T08:48:58.795Z</time></trkpt><trkpt lat="39.5313983" lon="8.52251"><ele>172.4</ele><time>2026-05-01T08:48:59.795Z</time></trkpt><trkpt lat="39.5314133" lon="8.5226017"><ele>173.60000000000002</ele><time>2026-05-01T08:49:00.795Z</time></trkpt><trkpt lat="39.5313767" lon="8.5227317"><ele>174.8</ele><time>2026-05-01T08:49:02.794Z</time></trkpt><trkpt lat="39.5312767" lon="8.522765"><ele>176.0</ele><time>2026-05-01T08:49:04.795Z</time></trkpt><trkpt lat="39.531175" lon="8.522695"><ele>178.83333333333331</ele><time>2026-05-01T08:49:06.794Z</time></trkpt><trkpt lat="39.5311267" lon="8.5226317"><ele>181.66666666666666</ele><time>2026-05-01T08:49:07.794Z</time></trkpt><trkpt lat="39.531085" lon="8.5225567"><ele>184.5</ele><time>2026-05-01T08:49:08.794Z</time></trkpt><trkpt lat="39.531075" lon="8.5224633"><ele>187.33333333333331</ele><time>2026-05-01T08:49:09.794Z</time></trkpt><trkpt lat="39.531045" lon="8.52236"><ele>190.16666666666666</ele><time>2026-05-01T08:49:10.794Z</time></trkpt><trkpt lat="39.5310117" lon="8.5222467"><ele>193.0</ele><time>2026-05-01T08:49:11.795Z</time></trkpt><trkpt lat="39.5309917" lon="8.52213"><ele>191.4</ele><time>2026-05-01T08:49:12.795Z</time></trkpt><trkpt lat="39.5309867" lon="8.5220133"><ele>189.8</ele><time>2026-05-01T08:49:13.794Z</time></trkpt><trkpt lat="39.531" lon="8.5218917"><ele>188.2</ele><time>2026-05-01T08:49:14.795Z</time></trkpt><trkpt lat="39.531015" lon="8.521765"><ele>186.6</ele><time>2026-05-01T08:49:15.794Z</time></trkpt><trkpt lat="39.5310417" lon="8.5216633"><ele>185.0</ele><time>2026-05-01T08:49:16.794Z</time></trkpt><trkpt lat="39.5310317" lon="8.5215417"><ele>185.0</ele><time>2026-05-01T08:49:17.795Z</time></trkpt><trkpt lat="39.531005" lon="8.5214333"><ele>185.0</ele><time>2026-05-01T08:49:18.795Z</time></trkpt><trkpt lat="39.530965" lon="8.521345"><ele>185.0</ele><time>2026-05-01T08:49:19.795Z</time></trkpt><trkpt lat="39.53091" lon="8.5212867"><ele>185.0</ele><time>2026-05-01T08:49:20.794Z</time></trkpt><trkpt lat="39.53085" lon="8.5212467"><ele>185.0</ele><time>2026-05-01T08:49:21.795Z</time></trkpt><trkpt lat="39.5307783" lon="8.5212233"><ele>185.0</ele><time>2026-05-01T08:49:22.794Z</time></trkpt><trkpt lat="39.5306983" lon="8.52119"><ele>183.8</ele><time>2026-05-01T08:49:23.795Z</time></trkpt><trkpt lat="39.5306133" lon="8.5211533"><ele>182.6</ele><time>2026-05-01T08:49:24.794Z</time></trkpt><trkpt lat="39.53053" lon="8.5211033"><ele>181.39999999999998</ele><time>2026-05-01T08:49:25.795Z</time></trkpt><trkpt lat="39.5304383" lon="8.521045"><ele>180.2</ele><time>2026-05-01T08:49:26.794Z</time></trkpt><trkpt lat="39.5303483" lon="8.5209933"><ele>179.0</ele><time>2026-05-01T08:49:27.794Z</time></trkpt><trkpt lat="39.53026" lon="8.5209567"><ele>182.39999999999998</ele><time>2026-05-01T08:49:28.794Z</time></trkpt><trkpt lat="39.5301717" lon="8.5209533"><ele>185.8</ele><time>2026-05-01T08:49:29.794Z</time></trkpt><trkpt lat="39.5300783" lon="8.5209683"><ele>189.2</ele><time>2026-05-01T08:49:30.794Z</time></trkpt><trkpt lat="39.5299883" lon="8.5210033"><ele>192.60000000000002</ele><time>2026-05-01T08:49:31.795Z</time></trkpt><trkpt lat="39.5298983" lon="8.5210467"><ele>196.0</ele><time>2026-05-01T08:49:32.794Z</time></trkpt><trkpt lat="39.5298133" lon="8.5210967"><ele>196.0</ele><time>2026-05-01T08:49:33.795Z</time></trkpt><trkpt lat="39.5297317" lon="8.5211233"><ele>196.0</ele><time>2026-05-01T08:49:34.794Z</time></trkpt><trkpt lat="39.5296567" lon="8.521125"><ele>196.0</ele><time>2026-05-01T08:49:35.794Z</time></trkpt><trkpt lat="39.5295967" lon="8.5211"><ele>196.0</ele><time>2026-05-01T08:49:36.794Z</time></trkpt><trkpt lat="39.529555" lon="8.5210133"><ele>196.0</ele><time>2026-05-01T08:49:38.794Z</time></trkpt><trkpt lat="39.52955" lon="8.5209233"><ele>196.0</ele><time>2026-05-01T08:49:39.795Z</time></trkpt><trkpt lat="39.5295617" lon="8.5208317"><ele>196.0</ele><time>2026-05-01T08:49:40.794Z</time></trkpt><trkpt lat="39.529595" lon="8.520725"><ele>196.0</ele><time>2026-05-01T08:49:41.794Z</time></trkpt><trkpt lat="39.5296467" lon="8.5206017"><ele>196.0</ele><time>2026-05-01T08:49:42.795Z</time></trkpt><trkpt lat="39.5297067" lon="8.5204633"><ele>196.0</ele><time>2026-05-01T08:49:43.794Z</time></trkpt><trkpt lat="39.529785" lon="8.520325"><ele>196.0</ele><time>2026-05-01T08:49:44.795Z</time></trkpt><trkpt lat="39.5298733" lon="8.5201967"><ele>198.4</ele><time>2026-05-01T08:49:45.794Z</time></trkpt><trkpt lat="39.5299667" lon="8.52009"><ele>200.8</ele><time>2026-05-01T08:49:46.795Z</time></trkpt><trkpt lat="39.53006" lon="8.5200083"><ele>203.20000000000002</ele><time>2026-05-01T08:49:47.794Z</time></trkpt><trkpt lat="39.5301467" lon="8.51995"><ele>205.60000000000002</ele><time>2026-05-01T08:49:48.794Z</time></trkpt><trkpt lat="39.5302383" lon="8.5199183"><ele>208.0</ele><time>2026-05-01T08:49:49.795Z</time></trkpt><trkpt lat="39.530335" lon="8.5199067"><ele>205.4</ele><time>2026-05-01T08:49:50.794Z</time></trkpt><trkpt lat="39.5304483" lon="8.5199017"><ele>202.8</ele><time>2026-05-01T08:49:51.794Z</time></trkpt><trkpt lat="39.530555" lon="8.519885"><ele>200.2</ele><time>2026-05-01T08:49:52.794Z</time></trkpt><trkpt lat="39.5306483" lon="8.5198433"><ele>197.6</ele><time>2026-05-01T08:49:53.794Z</time></trkpt><trkpt lat="39.5307367" lon="8.5197683"><ele>195.0</ele><time>2026-05-01T08:49:54.794Z</time></trkpt><trkpt lat="39.530825" lon="8.519675"><ele>195.0</ele><time>2026-05-01T08:49:55.794Z</time></trkpt><trkpt lat="39.530925" lon="8.5195867"><ele>195.0</ele><time>2026-05-01T08:49:56.794Z</time></trkpt><trkpt lat="39.5310283" lon="8.5195133"><ele>195.0</ele><time>2026-05-01T08:49:57.794Z</time></trkpt><trkpt lat="39.531135" lon="8.5194483"><ele>195.0</ele><time>2026-05-01T08:49:58.794Z</time></trkpt><trkpt lat="39.531245" lon="8.5194"><ele>195.6</ele><time>2026-05-01T08:49:59.794Z</time></trkpt><trkpt lat="39.5313433" lon="8.519355"><ele>196.2</ele><time>2026-05-01T08:50:00.795Z</time></trkpt><trkpt lat="39.53143" lon="8.519295"><ele>196.8</ele><time>2026-05-01T08:50:01.795Z</time></trkpt><trkpt lat="39.5314983" lon="8.5192283"><ele>197.4</ele><time>2026-05-01T08:50:02.794Z</time></trkpt><trkpt lat="39.531555" lon="8.519145"><ele>198.0</ele><time>2026-05-01T08:50:03.794Z</time></trkpt><trkpt lat="39.531595" lon="8.5190417"><ele>198.0</ele><time>2026-05-01T08:50:04.794Z</time></trkpt><trkpt lat="39.5316133" lon="8.5189333"><ele>198.0</ele><time>2026-05-01T08:50:05.794Z</time></trkpt><trkpt lat="39.5316133" lon="8.51881"><ele>198.0</ele><time>2026-05-01T08:50:06.794Z</time></trkpt><trkpt lat="39.531595" lon="8.51867"><ele>198.0</ele><time>2026-05-01T08:50:07.794Z</time></trkpt><trkpt lat="39.5315567" lon="8.5185267"><ele>198.0</ele><time>2026-05-01T08:50:08.794Z</time></trkpt><trkpt lat="39.5315183" lon="8.51838"><ele>196.5</ele><time>2026-05-01T08:50:09.794Z</time></trkpt><trkpt lat="39.5314717" lon="8.518245"><ele>195.0</ele><time>2026-05-01T08:50:10.795Z</time></trkpt><trkpt lat="39.531415" lon="8.51812"><ele>193.5</ele><time>2026-05-01T08:50:11.794Z</time></trkpt><trkpt lat="39.5313583" lon="8.51799"><ele>192.0</ele><time>2026-05-01T08:50:12.795Z</time></trkpt><trkpt lat="39.5312867" lon="8.5178667"><ele>196.0</ele><time>2026-05-01T08:50:13.794Z</time></trkpt><trkpt lat="39.5312167" lon="8.5177583"><ele>200.0</ele><time>2026-05-01T08:50:14.795Z</time></trkpt><trkpt lat="39.53114" lon="8.5176733"><ele>204.0</ele><time>2026-05-01T08:50:15.794Z</time></trkpt><trkpt lat="39.53105" lon="8.517595"><ele>208.0</ele><time>2026-05-01T08:50:16.794Z</time></trkpt><trkpt lat="39.530945" lon="8.5175267"><ele>212.0</ele><time>2026-05-01T08:50:17.794Z</time></trkpt><trkpt lat="39.5308433" lon="8.5174667"><ele>212.0</ele><time>2026-05-01T08:50:18.794Z</time></trkpt><trkpt lat="39.53075" lon="8.517435"><ele>212.0</ele><time>2026-05-01T08:50:19.794Z</time></trkpt><trkpt lat="39.530665" lon="8.5174383"><ele>212.0</ele><time>2026-05-01T08:50:20.794Z</time></trkpt><trkpt lat="39.5305783" lon="8.5174667"><ele>212.0</ele><time>2026-05-01T08:50:21.794Z</time></trkpt><trkpt lat="39.5304867" lon="8.517525"><ele>212.0</ele><time>2026-05-01T08:50:22.795Z</time></trkpt><trkpt lat="39.5304017" lon="8.5175967"><ele>211.6</ele><time>2026-05-01T08:50:23.794Z</time></trkpt><trkpt lat="39.5303133" lon="8.5176667"><ele>211.2</ele><time>2026-05-01T08:50:24.795Z</time></trkpt><trkpt lat="39.5302333" lon="8.517735"><ele>210.8</ele><time>2026-05-01T08:50:25.794Z</time></trkpt><trkpt lat="39.5301517" lon="8.51779"><ele>210.4</ele><time>2026-05-01T08:50:26.794Z</time></trkpt><trkpt lat="39.5300683" lon="8.5178383"><ele>210.0</ele><time>2026-05-01T08:50:27.794Z</time></trkpt><trkpt lat="39.5299767" lon="8.5178883"><ele>212.8</ele><time>2026-05-01T08:50:28.794Z</time></trkpt><trkpt lat="39.5298883" lon="8.517945"><ele>215.6</ele><time>2026-05-01T08:50:29.795Z</time></trkpt><trkpt lat="39.5297933" lon="8.518005"><ele>218.39999999999998</ele><time>2026-05-01T08:50:30.795Z</time></trkpt><trkpt lat="39.529695" lon="8.5180633"><ele>221.2</ele><time>2026-05-01T08:50:31.794Z</time></trkpt><trkpt lat="39.5295883" lon="8.518115"><ele>224.0</ele><time>2026-05-01T08:50:32.794Z</time></trkpt><trkpt lat="39.52948" lon="8.51817"><ele>224.0</ele><time>2026-05-01T08:50:33.794Z</time></trkpt><trkpt lat="39.5293783" lon="8.518225"><ele>223.99999999999997</ele><time>2026-05-01T08:50:34.794Z</time></trkpt><trkpt lat="39.5292817" lon="8.5182783"><ele>223.99999999999997</ele><time>2026-05-01T08:50:35.795Z</time></trkpt><trkpt lat="39.5291917" lon="8.51833"><ele>224.0</ele><time>2026-05-01T08:50:36.794Z</time></trkpt><trkpt lat="39.5291033" lon="8.518405"><ele>224.0</ele><time>2026-05-01T08:50:37.794Z</time></trkpt><trkpt lat="39.529025" lon="8.518495"><ele>224.00000000000003</ele><time>2026-05-01T08:50:38.795Z</time></trkpt><trkpt lat="39.52897" lon="8.5186117"><ele>224.0</ele><time>2026-05-01T08:50:39.794Z</time></trkpt><trkpt lat="39.5289233" lon="8.5187267"><ele>224.0</ele><time>2026-05-01T08:50:40.795Z</time></trkpt><trkpt lat="39.5288817" lon="8.5188217"><ele>224.0</ele><time>2026-05-01T08:50:41.794Z</time></trkpt><trkpt lat="39.5288267" lon="8.5188767"><ele>224.00000000000003</ele><time>2026-05-01T08:50:42.795Z</time></trkpt><trkpt lat="39.5287717" lon="8.5189167"><ele>224.0</ele><time>2026-05-01T08:50:43.794Z</time></trkpt><trkpt lat="39.528705" lon="8.51893"><ele>224.33333333333334</ele><time>2026-05-01T08:50:44.794Z</time></trkpt><trkpt lat="39.5286267" lon="8.518915"><ele>224.66666666666669</ele><time>2026-05-01T08:50:45.795Z</time></trkpt><trkpt lat="39.528545" lon="8.5188867"><ele>225.0</ele><time>2026-05-01T08:50:46.794Z</time></trkpt><trkpt lat="39.5284583" lon="8.5188367"><ele>225.33333333333331</ele><time>2026-05-01T08:50:47.794Z</time></trkpt><trkpt lat="39.52837" lon="8.5187817"><ele>225.66666666666666</ele><time>2026-05-01T08:50:48.794Z</time></trkpt><trkpt lat="39.5282933" lon="8.5187183"><ele>226.0</ele><time>2026-05-01T08:50:49.794Z</time></trkpt><trkpt lat="39.5282183" lon="8.5186417"><ele>226.0</ele><time>2026-05-01T08:50:50.795Z</time></trkpt><trkpt lat="39.5281317" lon="8.518565"><ele>226.00000000000003</ele><time>2026-05-01T08:50:51.794Z</time></trkpt><trkpt lat="39.528045" lon="8.51849"><ele>226.00000000000003</ele><time>2026-05-01T08:50:52.795Z</time></trkpt><trkpt lat="39.5279583" lon="8.5184233"><ele>226.0</ele><time>2026-05-01T08:50:53.795Z</time></trkpt><trkpt lat="39.527865" lon="8.51835"><ele>226.0</ele><time>2026-05-01T08:50:54.794Z</time></trkpt><trkpt lat="39.527765" lon="8.5182983"><ele>228.60000000000002</ele><time>2026-05-01T08:50:55.795Z</time></trkpt><trkpt lat="39.5276667" lon="8.5182733"><ele>231.20000000000002</ele><time>2026-05-01T08:50:56.794Z</time></trkpt><trkpt lat="39.5275617" lon="8.5182683"><ele>233.79999999999998</ele><time>2026-05-01T08:50:57.794Z</time></trkpt><trkpt lat="39.5274667" lon="8.518275"><ele>236.39999999999998</ele><time>2026-05-01T08:50:58.794Z</time></trkpt><trkpt lat="39.527385" lon="8.5183067"><ele>239.0</ele><time>2026-05-01T08:50:59.794Z</time></trkpt><trkpt lat="39.5273033" lon="8.518355"><ele>239.0</ele><time>2026-05-01T08:51:00.794Z</time></trkpt><trkpt lat="39.5272283" lon="8.5184067"><ele>238.99999999999997</ele><time>2026-05-01T08:51:01.794Z</time></trkpt><trkpt lat="39.527155" lon="8.5184633"><ele>238.99999999999997</ele><time>2026-05-01T08:51:02.795Z</time></trkpt><trkpt lat="39.527075" lon="8.51853"><ele>239.0</ele><time>2026-05-01T08:51:03.794Z</time></trkpt><trkpt lat="39.5269933" lon="8.5186017"><ele>239.0</ele><time>2026-05-01T08:51:04.795Z</time></trkpt><trkpt lat="39.52691" lon="8.5186783"><ele>243.0</ele><time>2026-05-01T08:51:05.794Z</time></trkpt><trkpt lat="39.52683" lon="8.5187583"><ele>246.99999999999997</ele><time>2026-05-01T08:51:06.794Z</time></trkpt><trkpt lat="39.5267533" lon="8.5188367"><ele>250.99999999999997</ele><time>2026-05-01T08:51:07.794Z</time></trkpt><trkpt lat="39.5266667" lon="8.5189183"><ele>255.0</ele><time>2026-05-01T08:51:08.794Z</time></trkpt><trkpt lat="39.5265767" lon="8.5189817"><ele>259.0</ele><time>2026-05-01T08:51:09.795Z</time></trkpt><trkpt lat="39.526495" lon="8.519055"><ele>259.0</ele><time>2026-05-01T08:51:10.795Z</time></trkpt><trkpt lat="39.5264183" lon="8.519135"><ele>259.0</ele><time>2026-05-01T08:51:11.794Z</time></trkpt><trkpt lat="39.5263533" lon="8.519235"><ele>259.0</ele><time>2026-05-01T08:51:12.794Z</time></trkpt><trkpt lat="39.5263033" lon="8.5193383"><ele>259.0</ele><time>2026-05-01T08:51:13.794Z</time></trkpt><trkpt lat="39.5262583" lon="8.51944"><ele>259.0</ele><time>2026-05-01T08:51:14.794Z</time></trkpt><trkpt lat="39.5262133" lon="8.5195183"><ele>260.16666666666663</ele><time>2026-05-01T08:51:15.794Z</time></trkpt><trkpt lat="39.5261583" lon="8.5195633"><ele>261.3333333333333</ele><time>2026-05-01T08:51:16.794Z</time></trkpt><trkpt lat="39.5260917" lon="8.5195817"><ele>262.5</ele><time>2026-05-01T08:51:17.794Z</time></trkpt><trkpt lat="39.5260233" lon="8.51956"><ele>263.6666666666667</ele><time>2026-05-01T08:51:18.794Z</time></trkpt><trkpt lat="39.525965" lon="8.5194967"><ele>264.83333333333337</ele><time>2026-05-01T08:51:19.794Z</time></trkpt><trkpt lat="39.5259317" lon="8.519395"><ele>266.0</ele><time>2026-05-01T08:51:20.794Z</time></trkpt><trkpt lat="39.525935" lon="8.5192733"><ele>266.0</ele><time>2026-05-01T08:51:21.794Z</time></trkpt><trkpt lat="39.52596" lon="8.5191483"><ele>266.0</ele><time>2026-05-01T08:51:22.795Z</time></trkpt><trkpt lat="39.5260033" lon="8.5190167"><ele>266.0</ele><time>2026-05-01T08:51:23.794Z</time></trkpt><trkpt lat="39.52605" lon="8.518865"><ele>266.0</ele><time>2026-05-01T08:51:24.794Z</time></trkpt><trkpt lat="39.5260883" lon="8.5187033"><ele>268.0</ele><time>2026-05-01T08:51:25.794Z</time></trkpt><trkpt lat="39.5261317" lon="8.51855"><ele>270.0</ele><time>2026-05-01T08:51:26.793Z</time></trkpt><trkpt lat="39.526165" lon="8.5183833"><ele>272.0</ele><time>2026-05-01T08:51:27.793Z</time></trkpt><trkpt lat="39.5261817" lon="8.518245"><ele>274.0</ele><time>2026-05-01T08:51:28.793Z</time></trkpt><trkpt lat="39.5261933" lon="8.5181067"><ele>274.0</ele><time>2026-05-01T08:51:29.793Z</time></trkpt><trkpt lat="39.5261983" lon="8.5179733"><ele>274.0</ele><time>2026-05-01T08:51:30.793Z</time></trkpt><trkpt lat="39.5262" lon="8.5178433"><ele>274.0</ele><time>2026-05-01T08:51:31.793Z</time></trkpt><trkpt lat="39.5261983" lon="8.5177217"><ele>274.0</ele><time>2026-05-01T08:51:32.793Z</time></trkpt><trkpt lat="39.5261883" lon="8.5176183"><ele>274.0</ele><time>2026-05-01T08:51:33.793Z</time></trkpt><trkpt lat="39.526165" lon="8.51752"><ele>273.2</ele><time>2026-05-01T08:51:34.793Z</time></trkpt><trkpt lat="39.52612" lon="8.5174233"><ele>272.4</ele><time>2026-05-01T08:51:35.794Z</time></trkpt><trkpt lat="39.5260567" lon="8.5173533"><ele>271.6</ele><time>2026-05-01T08:51:36.793Z</time></trkpt><trkpt lat="39.5259733" lon="8.5173083"><ele>270.8</ele><time>2026-05-01T08:51:37.793Z</time></trkpt><trkpt lat="39.5258817" lon="8.517295"><ele>270.0</ele><time>2026-05-01T08:51:38.793Z</time></trkpt><trkpt lat="39.5257817" lon="8.5173"><ele>270.0</ele><time>2026-05-01T08:51:39.793Z</time></trkpt><trkpt lat="39.5256717" lon="8.517325"><ele>270.0</ele><time>2026-05-01T08:51:40.794Z</time></trkpt><trkpt lat="39.5255667" lon="8.5173367"><ele>270.0</ele><time>2026-05-01T08:51:41.793Z</time></trkpt><trkpt lat="39.52547" lon="8.5173317"><ele>270.0</ele><time>2026-05-01T08:51:42.793Z</time></trkpt><trkpt lat="39.5253733" lon="8.5173167"><ele>270.0</ele><time>2026-05-01T08:51:43.793Z</time></trkpt><trkpt lat="39.5252883" lon="8.5172833"><ele>273.6</ele><time>2026-05-01T08:51:44.793Z</time></trkpt><trkpt lat="39.525215" lon="8.5172367"><ele>277.2</ele><time>2026-05-01T08:51:45.793Z</time></trkpt><trkpt lat="39.5251667" lon="8.5171783"><ele>280.8</ele><time>2026-05-01T08:51:46.793Z</time></trkpt><trkpt lat="39.525155" lon="8.5170333"><ele>284.4</ele><time>2026-05-01T08:51:48.793Z</time></trkpt><trkpt lat="39.5252333" lon="8.5169017"><ele>288.0</ele><time>2026-05-01T08:51:50.794Z</time></trkpt><trkpt lat="39.5253" lon="8.51686"><ele>288.8333333333333</ele><time>2026-05-01T08:51:51.793Z</time></trkpt><trkpt lat="39.52537" lon="8.5168133"><ele>289.6666666666667</ele><time>2026-05-01T08:51:52.794Z</time></trkpt><trkpt lat="39.5254317" lon="8.516745"><ele>290.5</ele><time>2026-05-01T08:51:53.793Z</time></trkpt><trkpt lat="39.5254933" lon="8.51666"><ele>291.33333333333337</ele><time>2026-05-01T08:51:54.793Z</time></trkpt><trkpt lat="39.5255483" lon="8.5165633"><ele>292.1666666666667</ele><time>2026-05-01T08:51:55.793Z</time></trkpt><trkpt lat="39.5255983" lon="8.516445"><ele>293.0</ele><time>2026-05-01T08:51:56.793Z</time></trkpt><trkpt lat="39.5256433" lon="8.5163133"><ele>290.4</ele><time>2026-05-01T08:51:57.793Z</time></trkpt><trkpt lat="39.5256817" lon="8.5161833"><ele>287.8</ele><time>2026-05-01T08:51:58.793Z</time></trkpt><trkpt lat="39.5257083" lon="8.516065"><ele>285.2</ele><time>2026-05-01T08:51:59.793Z</time></trkpt><trkpt lat="39.5257217" lon="8.5159467"><ele>282.6</ele><time>2026-05-01T08:52:00.793Z</time></trkpt><trkpt lat="39.52572" lon="8.5158233"><ele>280.0</ele><time>2026-05-01T08:52:01.793Z</time></trkpt><trkpt lat="39.525705" lon="8.515695"><ele>280.0</ele><time>2026-05-01T08:52:02.793Z</time></trkpt><trkpt lat="39.5256767" lon="8.515565"><ele>280.0</ele><time>2026-05-01T08:52:03.793Z</time></trkpt><trkpt lat="39.5256433" lon="8.5154467"><ele>280.0</ele><time>2026-05-01T08:52:04.794Z</time></trkpt><trkpt lat="39.5256083" lon="8.5153317"><ele>280.0</ele><time>2026-05-01T08:52:05.793Z</time></trkpt><trkpt lat="39.5255733" lon="8.51523"><ele>280.0</ele><time>2026-05-01T08:52:06.794Z</time></trkpt><trkpt lat="39.5255383" lon="8.5151267"><ele>280.0</ele><time>2026-05-01T08:52:07.793Z</time></trkpt><trkpt lat="39.5255067" lon="8.51503"><ele>280.0</ele><time>2026-05-01T08:52:08.794Z</time></trkpt><trkpt lat="39.52548" lon="8.5149367"><ele>280.0</ele><time>2026-05-01T08:52:09.793Z</time></trkpt><trkpt lat="39.5254583" lon="8.5148267"><ele>280.0</ele><time>2026-05-01T08:52:10.793Z</time></trkpt><trkpt lat="39.5254283" lon="8.514725"><ele>280.0</ele><time>2026-05-01T08:52:11.793Z</time></trkpt><trkpt lat="39.5254067" lon="8.5146217"><ele>280.0</ele><time>2026-05-01T08:52:12.793Z</time></trkpt><trkpt lat="39.5254" lon="8.51452"><ele>281.0</ele><time>2026-05-01T08:52:13.793Z</time></trkpt><trkpt lat="39.5254117" lon="8.5144167"><ele>282.0</ele><time>2026-05-01T08:52:14.793Z</time></trkpt><trkpt lat="39.5254367" lon="8.51432"><ele>283.0</ele><time>2026-05-01T08:52:15.793Z</time></trkpt><trkpt lat="39.5254717" lon="8.5142267"><ele>284.0</ele><time>2026-05-01T08:52:16.793Z</time></trkpt><trkpt lat="39.5255067" lon="8.51413"><ele>285.0</ele><time>2026-05-01T08:52:17.793Z</time></trkpt><trkpt lat="39.5255283" lon="8.51402"><ele>286.0</ele><time>2026-05-01T08:52:18.794Z</time></trkpt><trkpt lat="39.5255233" lon="8.5138983"><ele>286.0</ele><time>2026-05-01T08:52:19.793Z</time></trkpt><trkpt lat="39.5255067" lon="8.5137783"><ele>286.0</ele><time>2026-05-01T08:52:20.793Z</time></trkpt><trkpt lat="39.5255067" lon="8.513665"><ele>286.0</ele><time>2026-05-01T08:52:21.794Z</time></trkpt><trkpt lat="39.52553" lon="8.51355"><ele>286.0</ele><time>2026-05-01T08:52:22.793Z</time></trkpt><trkpt lat="39.5255467" lon="8.513445"><ele>286.0</ele><time>2026-05-01T08:52:23.793Z</time></trkpt><trkpt lat="39.5255583" lon="8.51333"><ele>286.0</ele><time>2026-05-01T08:52:24.793Z</time></trkpt><trkpt lat="39.5255317" lon="8.513215"><ele>288.0</ele><time>2026-05-01T08:52:25.793Z</time></trkpt><trkpt lat="39.5254833" lon="8.5131183"><ele>290.0</ele><time>2026-05-01T08:52:26.794Z</time></trkpt><trkpt lat="39.52542" lon="8.5130433"><ele>292.0</ele><time>2026-05-01T08:52:27.794Z</time></trkpt><trkpt lat="39.52534" lon="8.512995"><ele>294.0</ele><time>2026-05-01T08:52:28.793Z</time></trkpt><trkpt lat="39.525255" lon="8.5129917"><ele>296.0</ele><time>2026-05-01T08:52:29.793Z</time></trkpt><trkpt lat="39.5251567" lon="8.5130217"><ele>298.0</ele><time>2026-05-01T08:52:30.794Z</time></trkpt><trkpt lat="39.5250467" lon="8.513075"><ele>298.8</ele><time>2026-05-01T08:52:31.793Z</time></trkpt><trkpt lat="39.5249367" lon="8.5131183"><ele>299.6</ele><time>2026-05-01T08:52:32.793Z</time></trkpt><trkpt lat="39.5248367" lon="8.5131383"><ele>300.4</ele><time>2026-05-01T08:52:33.793Z</time></trkpt><trkpt lat="39.524735" lon="8.51314"><ele>301.2</ele><time>2026-05-01T08:52:34.793Z</time></trkpt><trkpt lat="39.5246433" lon="8.5131283"><ele>302.0</ele><time>2026-05-01T08:52:35.794Z</time></trkpt><trkpt lat="39.5245633" lon="8.5131"><ele>299.1666666666667</ele><time>2026-05-01T08:52:36.793Z</time></trkpt><trkpt lat="39.5244833" lon="8.5130683"><ele>296.33333333333337</ele><time>2026-05-01T08:52:37.794Z</time></trkpt><trkpt lat="39.5243967" lon="8.5130667"><ele>293.5</ele><time>2026-05-01T08:52:38.793Z</time></trkpt><trkpt lat="39.5243167" lon="8.513095"><ele>290.6666666666667</ele><time>2026-05-01T08:52:39.793Z</time></trkpt><trkpt lat="39.5242467" lon="8.513155"><ele>287.8333333333333</ele><time>2026-05-01T08:52:40.794Z</time></trkpt><trkpt lat="39.52419" lon="8.513245"><ele>285.0</ele><time>2026-05-01T08:52:41.793Z</time></trkpt><trkpt lat="39.5241533" lon="8.513365"><ele>285.0</ele><time>2026-05-01T08:52:42.793Z</time></trkpt><trkpt lat="39.524125" lon="8.5134933"><ele>285.0</ele><time>2026-05-01T08:52:43.793Z</time></trkpt><trkpt lat="39.5241067" lon="8.513615"><ele>285.0</ele><time>2026-05-01T08:52:44.794Z</time></trkpt><trkpt lat="39.5240717" lon="8.5137283"><ele>285.0</ele><time>2026-05-01T08:52:45.794Z</time></trkpt><trkpt lat="39.5240317" lon="8.513825"><ele>285.0</ele><time>2026-05-01T08:52:46.793Z</time></trkpt><trkpt lat="39.5239883" lon="8.5139067"><ele>284.3333333333333</ele><time>2026-05-01T08:52:47.793Z</time></trkpt><trkpt lat="39.523935" lon="8.51396"><ele>283.6666666666667</ele><time>2026-05-01T08:52:48.793Z</time></trkpt><trkpt lat="39.5238717" lon="8.51398"><ele>283.0</ele><time>2026-05-01T08:52:49.793Z</time></trkpt><trkpt lat="39.5237917" lon="8.5139767"><ele>282.33333333333337</ele><time>2026-05-01T08:52:50.793Z</time></trkpt><trkpt lat="39.5237067" lon="8.5139517"><ele>281.6666666666667</ele><time>2026-05-01T08:52:51.794Z</time></trkpt><trkpt lat="39.5236233" lon="8.5139333"><ele>281.0</ele><time>2026-05-01T08:52:52.793Z</time></trkpt><trkpt lat="39.5235483" lon="8.51395"><ele>281.0</ele><time>2026-05-01T08:52:53.793Z</time></trkpt><trkpt lat="39.52348" lon="8.5139917"><ele>281.0</ele><time>2026-05-01T08:52:54.793Z</time></trkpt><trkpt lat="39.5234267" lon="8.5140567"><ele>281.0</ele><time>2026-05-01T08:52:55.793Z</time></trkpt><trkpt lat="39.5233783" lon="8.5141667"><ele>281.0</ele><time>2026-05-01T08:52:56.793Z</time></trkpt><trkpt lat="39.5233233" lon="8.5142783"><ele>281.0</ele><time>2026-05-01T08:52:57.793Z</time></trkpt><trkpt lat="39.5232517" lon="8.51437"><ele>281.0</ele><time>2026-05-01T08:52:58.793Z</time></trkpt><trkpt lat="39.523165" lon="8.5144367"><ele>281.0</ele><time>2026-05-01T08:52:59.793Z</time></trkpt><trkpt lat="39.52306" lon="8.5144967"><ele>281.0</ele><time>2026-05-01T08:53:00.793Z</time></trkpt><trkpt lat="39.5229483" lon="8.514555"><ele>281.0</ele><time>2026-05-01T08:53:01.793Z</time></trkpt><trkpt lat="39.5228433" lon="8.5146033"><ele>281.0</ele><time>2026-05-01T08:53:02.793Z</time></trkpt><trkpt lat="39.522745" lon="8.5146583"><ele>282.0</ele><time>2026-05-01T08:53:03.793Z</time></trkpt><trkpt lat="39.52267" lon="8.5147267"><ele>283.0</ele><time>2026-05-01T08:53:04.793Z</time></trkpt><trkpt lat="39.5225933" lon="8.5148033"><ele>284.0</ele><time>2026-05-01T08:53:05.793Z</time></trkpt><trkpt lat="39.5225183" lon="8.5148467"><ele>285.0</ele><time>2026-05-01T08:53:06.793Z</time></trkpt><trkpt lat="39.5224417" lon="8.51486"><ele>286.0</ele><time>2026-05-01T08:53:07.793Z</time></trkpt><trkpt lat="39.522365" lon="8.51485"><ele>287.0</ele><time>2026-05-01T08:53:08.793Z</time></trkpt><trkpt lat="39.5222933" lon="8.5148167"><ele>287.0</ele><time>2026-05-01T08:53:09.794Z</time></trkpt><trkpt lat="39.5222233" lon="8.5147667"><ele>287.0</ele><time>2026-05-01T08:53:10.793Z</time></trkpt><trkpt lat="39.5221817" lon="8.514685"><ele>287.0</ele><time>2026-05-01T08:53:11.794Z</time></trkpt><trkpt lat="39.5221533" lon="8.514595"><ele>287.0</ele><time>2026-05-01T08:53:12.793Z</time></trkpt><trkpt lat="39.5221533" lon="8.514505"><ele>287.0</ele><time>2026-05-01T08:53:13.794Z</time></trkpt><trkpt lat="39.5221783" lon="8.5144133"><ele>287.0</ele><time>2026-05-01T08:53:14.794Z</time></trkpt><trkpt lat="39.5222167" lon="8.5143033"><ele>283.25</ele><time>2026-05-01T08:53:15.794Z</time></trkpt><trkpt lat="39.5222633" lon="8.5141717"><ele>279.5</ele><time>2026-05-01T08:53:16.793Z</time></trkpt><trkpt lat="39.52232" lon="8.51403"><ele>275.75</ele><time>2026-05-01T08:53:17.793Z</time></trkpt><trkpt lat="39.52238" lon="8.5139017"><ele>272.0</ele><time>2026-05-01T08:53:18.793Z</time></trkpt><trkpt lat="39.52242" lon="8.5137783"><ele>271.2</ele><time>2026-05-01T08:53:19.793Z</time></trkpt><trkpt lat="39.5224417" lon="8.5136517"><ele>270.4</ele><time>2026-05-01T08:53:20.793Z</time></trkpt><trkpt lat="39.5224433" lon="8.513515"><ele>269.6</ele><time>2026-05-01T08:53:21.794Z</time></trkpt><trkpt lat="39.5224367" lon="8.5133767"><ele>268.8</ele><time>2026-05-01T08:53:22.793Z</time></trkpt><trkpt lat="39.52242" lon="8.5132433"><ele>268.0</ele><time>2026-05-01T08:53:23.793Z</time></trkpt><trkpt lat="39.5224183" lon="8.5131033"><ele>268.0</ele><time>2026-05-01T08:53:24.793Z</time></trkpt><trkpt lat="39.5224333" lon="8.5129633"><ele>268.0</ele><time>2026-05-01T08:53:25.793Z</time></trkpt><trkpt lat="39.522455" lon="8.5128117"><ele>268.0</ele><time>2026-05-01T08:53:26.793Z</time></trkpt><trkpt lat="39.522475" lon="8.5126667"><ele>268.0</ele><time>2026-05-01T08:53:27.793Z</time></trkpt><trkpt lat="39.5224917" lon="8.51253"><ele>268.0</ele><time>2026-05-01T08:53:28.793Z</time></trkpt><trkpt lat="39.5224917" lon="8.51241"><ele>267.0</ele><time>2026-05-01T08:53:29.793Z</time></trkpt><trkpt lat="39.5224817" lon="8.512295"><ele>266.0</ele><time>2026-05-01T08:53:30.794Z</time></trkpt><trkpt lat="39.5224567" lon="8.5121967"><ele>265.0</ele><time>2026-05-01T08:53:31.794Z</time></trkpt><trkpt lat="39.5224167" lon="8.5121167"><ele>264.0</ele><time>2026-05-01T08:53:32.793Z</time></trkpt><trkpt lat="39.52236" lon="8.5120483"><ele>263.0</ele><time>2026-05-01T08:53:33.793Z</time></trkpt><trkpt lat="39.5222867" lon="8.5120083"><ele>262.0</ele><time>2026-05-01T08:53:34.793Z</time></trkpt><trkpt lat="39.5221967" lon="8.51199"><ele>263.4</ele><time>2026-05-01T08:53:35.793Z</time></trkpt><trkpt lat="39.5220967" lon="8.511985"><ele>264.79999999999995</ele><time>2026-05-01T08:53:36.793Z</time></trkpt><trkpt lat="39.5219983" lon="8.511995"><ele>266.2</ele><time>2026-05-01T08:53:37.794Z</time></trkpt><trkpt lat="39.52191" lon="8.5119783"><ele>267.59999999999997</ele><time>2026-05-01T08:53:38.793Z</time></trkpt><trkpt lat="39.5218433" lon="8.5119517"><ele>269.0</ele><time>2026-05-01T08:53:39.794Z</time></trkpt><trkpt lat="39.5217633" lon="8.511845"><ele>269.0</ele><time>2026-05-01T08:53:41.793Z</time></trkpt><trkpt lat="39.52174" lon="8.5117683"><ele>269.0</ele><time>2026-05-01T08:53:42.793Z</time></trkpt><trkpt lat="39.5217433" lon="8.511675"><ele>269.0</ele><time>2026-05-01T08:53:43.793Z</time></trkpt><trkpt lat="39.5217667" lon="8.5115783"><ele>269.0</ele><time>2026-05-01T08:53:44.794Z</time></trkpt><trkpt lat="39.5217833" lon="8.5114867"><ele>269.0</ele><time>2026-05-01T08:53:45.794Z</time></trkpt><trkpt lat="39.521785" lon="8.5113967"><ele>269.0</ele><time>2026-05-01T08:53:46.793Z</time></trkpt><trkpt lat="39.5217617" lon="8.5113133"><ele>269.0</ele><time>2026-05-01T08:53:47.793Z</time></trkpt><trkpt lat="39.5217183" lon="8.5112467"><ele>266.33333333333337</ele><time>2026-05-01T08:53:48.794Z</time></trkpt><trkpt lat="39.5216633" lon="8.5112"><ele>263.6666666666667</ele><time>2026-05-01T08:53:49.793Z</time></trkpt><trkpt lat="39.5215867" lon="8.5111133"><ele>261.0</ele><time>2026-05-01T08:53:51.794Z</time></trkpt><trkpt lat="39.5215733" lon="8.5110033"><ele>258.3333333333333</ele><time>2026-05-01T08:53:54.794Z</time></trkpt><trkpt lat="39.5215783" lon="8.510845"><ele>255.66666666666666</ele><time>2026-05-01T08:54:01.794Z</time></trkpt><trkpt lat="39.5215833" lon="8.51075"><ele>253.0</ele><time>2026-05-01T08:54:02.794Z</time></trkpt><trkpt lat="39.5215767" lon="8.510645"><ele>253.0</ele><time>2026-05-01T08:54:03.793Z</time></trkpt><trkpt lat="39.52156" lon="8.51052"><ele>253.0</ele><time>2026-05-01T08:54:04.794Z</time></trkpt><trkpt lat="39.5215233" lon="8.5103617"><ele>253.0</ele><time>2026-05-01T08:54:05.793Z</time></trkpt><trkpt lat="39.52148" lon="8.5101983"><ele>253.0</ele><time>2026-05-01T08:54:06.794Z</time></trkpt><trkpt lat="39.5214233" lon="8.5100633"><ele>249.8</ele><time>2026-05-01T08:54:07.793Z</time></trkpt><trkpt lat="39.52136" lon="8.509955"><ele>246.60000000000002</ele><time>2026-05-01T08:54:08.793Z</time></trkpt><trkpt lat="39.521285" lon="8.50989"><ele>243.39999999999998</ele><time>2026-05-01T08:54:09.793Z</time></trkpt><trkpt lat="39.5211917" lon="8.509875"><ele>240.2</ele><time>2026-05-01T08:54:10.793Z</time></trkpt><trkpt lat="39.5210967" lon="8.5099067"><ele>237.0</ele><time>2026-05-01T08:54:11.793Z</time></trkpt><trkpt lat="39.5210017" lon="8.5099633"><ele>237.0</ele><time>2026-05-01T08:54:12.793Z</time></trkpt><trkpt lat="39.5209217" lon="8.5100483"><ele>237.0</ele><time>2026-05-01T08:54:13.794Z</time></trkpt><trkpt lat="39.5208533" lon="8.51016"><ele>237.0</ele><time>2026-05-01T08:54:14.793Z</time></trkpt><trkpt lat="39.5208083" lon="8.5102733"><ele>237.0</ele><time>2026-05-01T08:54:15.793Z</time></trkpt><trkpt lat="39.5207633" lon="8.5103683"><ele>237.0</ele><time>2026-05-01T08:54:16.793Z</time></trkpt><trkpt lat="39.5207067" lon="8.5104383"><ele>236.33333333333334</ele><time>2026-05-01T08:54:17.792Z</time></trkpt><trkpt lat="39.5206383" lon="8.5104733"><ele>235.66666666666669</ele><time>2026-05-01T08:54:18.792Z</time></trkpt><trkpt lat="39.52056" lon="8.5104733"><ele>235.0</ele><time>2026-05-01T08:54:19.792Z</time></trkpt><trkpt lat="39.5204833" lon="8.5104433"><ele>234.33333333333334</ele><time>2026-05-01T08:54:20.792Z</time></trkpt><trkpt lat="39.5203983" lon="8.5103917"><ele>233.66666666666669</ele><time>2026-05-01T08:54:21.793Z</time></trkpt><trkpt lat="39.5203067" lon="8.51036"><ele>233.0</ele><time>2026-05-01T08:54:22.792Z</time></trkpt><trkpt lat="39.5202133" lon="8.510365"><ele>233.00000000000003</ele><time>2026-05-01T08:54:23.792Z</time></trkpt><trkpt lat="39.52014" lon="8.5104083"><ele>233.0</ele><time>2026-05-01T08:54:24.793Z</time></trkpt><trkpt lat="39.5200817" lon="8.5104583"><ele>233.0</ele><time>2026-05-01T08:54:25.792Z</time></trkpt><trkpt lat="39.5200633" lon="8.5105383"><ele>233.0</ele><time>2026-05-01T08:54:26.792Z</time></trkpt><trkpt lat="39.52001" lon="8.510605"><ele>233.00000000000003</ele><time>2026-05-01T08:54:28.792Z</time></trkpt><trkpt lat="39.5199317" lon="8.510515"><ele>233.0</ele><time>2026-05-01T08:54:30.792Z</time></trkpt><trkpt lat="39.519945" lon="8.510365"><ele>233.00000000000003</ele><time>2026-05-01T08:54:32.792Z</time></trkpt><trkpt lat="39.5199683" lon="8.510265"><ele>233.0</ele><time>2026-05-01T08:54:33.792Z</time></trkpt><trkpt lat="39.51998" lon="8.5101683"><ele>233.0</ele><time>2026-05-01T08:54:34.792Z</time></trkpt><trkpt lat="39.5199567" lon="8.51009"><ele>233.0</ele><time>2026-05-01T08:54:35.792Z</time></trkpt><trkpt lat="39.5198833" lon="8.5099867"><ele>233.00000000000003</ele><time>2026-05-01T08:54:37.792Z</time></trkpt><trkpt lat="39.5198933" lon="8.5098783"><ele>233.0</ele><time>2026-05-01T08:54:39.792Z</time></trkpt><trkpt lat="39.520025" lon="8.5098867"><ele>233.0</ele><time>2026-05-01T08:54:41.792Z</time></trkpt><trkpt lat="39.520115" lon="8.509925"><ele>233.0</ele><time>2026-05-01T08:54:42.793Z</time></trkpt><trkpt lat="39.5201983" lon="8.5099533"><ele>233.0</ele><time>2026-05-01T08:54:43.792Z</time></trkpt><trkpt lat="39.5202733" lon="8.5099667"><ele>233.0</ele><time>2026-05-01T08:54:44.792Z</time></trkpt><trkpt lat="39.5203883" lon="8.5099983"><ele>233.0</ele><time>2026-05-01T08:54:46.792Z</time></trkpt><trkpt lat="39.5205183" lon="8.50996"><ele>233.8</ele><time>2026-05-01T08:54:48.792Z</time></trkpt><trkpt lat="39.5205883" lon="8.5099117"><ele>234.60000000000002</ele><time>2026-05-01T08:54:49.793Z</time></trkpt><trkpt lat="39.5206633" lon="8.5098333"><ele>235.39999999999998</ele><time>2026-05-01T08:54:50.793Z</time></trkpt><trkpt lat="39.5207383" lon="8.5097233"><ele>236.2</ele><time>2026-05-01T08:54:51.792Z</time></trkpt><trkpt lat="39.5208117" lon="8.5095967"><ele>237.0</ele><time>2026-05-01T08:54:52.793Z</time></trkpt><trkpt lat="39.5208883" lon="8.5094767"><ele>232.8</ele><time>2026-05-01T08:54:53.793Z</time></trkpt><trkpt lat="39.520945" lon="8.5093467"><ele>228.6</ele><time>2026-05-01T08:54:54.793Z</time></trkpt><trkpt lat="39.5210033" lon="8.5092483"><ele>224.40000000000003</ele><time>2026-05-01T08:54:55.792Z</time></trkpt><trkpt lat="39.5210617" lon="8.5091533"><ele>220.20000000000002</ele><time>2026-05-01T08:54:56.792Z</time></trkpt><trkpt lat="39.5211267" lon="8.5090633"><ele>216.0</ele><time>2026-05-01T08:54:57.793Z</time></trkpt><trkpt lat="39.5212017" lon="8.5089833"><ele>214.66666666666666</ele><time>2026-05-01T08:54:58.792Z</time></trkpt><trkpt lat="39.5212833" lon="8.5089133"><ele>213.33333333333331</ele><time>2026-05-01T08:54:59.792Z</time></trkpt><trkpt lat="39.5213833" lon="8.50886"><ele>212.0</ele><time>2026-05-01T08:55:00.793Z</time></trkpt><trkpt lat="39.5214683" lon="8.5088517"><ele>210.66666666666666</ele><time>2026-05-01T08:55:01.792Z</time></trkpt><trkpt lat="39.5215467" lon="8.5088633"><ele>209.33333333333331</ele><time>2026-05-01T08:55:02.792Z</time></trkpt><trkpt lat="39.5216067" lon="8.5089167"><ele>208.0</ele><time>2026-05-01T08:55:03.792Z</time></trkpt><trkpt lat="39.52166" lon="8.508995"><ele>208.0</ele><time>2026-05-01T08:55:04.792Z</time></trkpt><trkpt lat="39.5217" lon="8.5091"><ele>208.0</ele><time>2026-05-01T08:55:05.793Z</time></trkpt><trkpt lat="39.5217517" lon="8.5092233"><ele>208.0</ele><time>2026-05-01T08:55:06.792Z</time></trkpt><trkpt lat="39.521825" lon="8.5093533"><ele>208.0</ele><time>2026-05-01T08:55:07.792Z</time></trkpt><trkpt lat="39.521895" lon="8.5094917"><ele>207.60000000000002</ele><time>2026-05-01T08:55:08.792Z</time></trkpt><trkpt lat="39.5219683" lon="8.509605"><ele>207.20000000000002</ele><time>2026-05-01T08:55:09.793Z</time></trkpt><trkpt lat="39.52204" lon="8.5096967"><ele>206.8</ele><time>2026-05-01T08:55:10.792Z</time></trkpt><trkpt lat="39.52212" lon="8.5097783"><ele>206.4</ele><time>2026-05-01T08:55:11.792Z</time></trkpt><trkpt lat="39.5222033" lon="8.5098633"><ele>206.0</ele><time>2026-05-01T08:55:12.792Z</time></trkpt><trkpt lat="39.52228" lon="8.509945"><ele>206.00000000000003</ele><time>2026-05-01T08:55:13.793Z</time></trkpt><trkpt lat="39.52237" lon="8.5100067"><ele>206.0</ele><time>2026-05-01T08:55:14.792Z</time></trkpt><trkpt lat="39.522455" lon="8.5100483"><ele>206.0</ele><time>2026-05-01T08:55:15.792Z</time></trkpt><trkpt lat="39.522535" lon="8.5100667"><ele>206.0</ele><time>2026-05-01T08:55:16.792Z</time></trkpt><trkpt lat="39.5226183" lon="8.5100733"><ele>206.00000000000003</ele><time>2026-05-01T08:55:17.793Z</time></trkpt><trkpt lat="39.522695" lon="8.51009"><ele>206.0</ele><time>2026-05-01T08:55:18.792Z</time></trkpt><trkpt lat="39.5227783" lon="8.510135"><ele>206.00000000000003</ele><time>2026-05-01T08:55:19.792Z</time></trkpt><trkpt lat="39.5228517" lon="8.51019"><ele>206.0</ele><time>2026-05-01T08:55:20.792Z</time></trkpt><trkpt lat="39.5229367" lon="8.5102267"><ele>206.0</ele><time>2026-05-01T08:55:21.792Z</time></trkpt><trkpt lat="39.52303" lon="8.5102383"><ele>206.0</ele><time>2026-05-01T08:55:22.793Z</time></trkpt><trkpt lat="39.5231117" lon="8.5102467"><ele>206.00000000000003</ele><time>2026-05-01T08:55:23.792Z</time></trkpt><trkpt lat="39.52319" lon="8.510245"><ele>206.0</ele><time>2026-05-01T08:55:24.792Z</time></trkpt><trkpt lat="39.5232917" lon="8.51017"><ele>206.20000000000002</ele><time>2026-05-01T08:55:26.792Z</time></trkpt><trkpt lat="39.5233117" lon="8.510025"><ele>206.4</ele><time>2026-05-01T08:55:28.792Z</time></trkpt><trkpt lat="39.5232867" lon="8.5099433"><ele>206.6</ele><time>2026-05-01T08:55:29.792Z</time></trkpt><trkpt lat="39.52324" lon="8.5098633"><ele>206.8</ele><time>2026-05-01T08:55:30.793Z</time></trkpt><trkpt lat="39.5231683" lon="8.509785"><ele>207.0</ele><time>2026-05-01T08:55:31.792Z</time></trkpt><trkpt lat="39.52308" lon="8.5097117"><ele>207.0</ele><time>2026-05-01T08:55:32.793Z</time></trkpt><trkpt lat="39.522965" lon="8.5096467"><ele>207.0</ele><time>2026-05-01T08:55:33.792Z</time></trkpt><trkpt lat="39.5228117" lon="8.509595"><ele>207.0</ele><time>2026-05-01T08:55:34.792Z</time></trkpt><trkpt lat="39.5226667" lon="8.509525"><ele>207.0</ele><time>2026-05-01T08:55:35.792Z</time></trkpt><trkpt lat="39.5225283" lon="8.5094617"><ele>205.75</ele><time>2026-05-01T08:55:36.792Z</time></trkpt><trkpt lat="39.522435" lon="8.5093733"><ele>204.5</ele><time>2026-05-01T08:55:37.793Z</time></trkpt><trkpt lat="39.5223633" lon="8.5092533"><ele>203.25</ele><time>2026-05-01T08:55:38.793Z</time></trkpt><trkpt lat="39.5222967" lon="8.5090917"><ele>202.0</ele><time>2026-05-01T08:55:39.793Z</time></trkpt><trkpt lat="39.52224" lon="8.508885"><ele>204.66666666666666</ele><time>2026-05-01T08:55:40.792Z</time></trkpt><trkpt lat="39.5221817" lon="8.5086783"><ele>207.33333333333331</ele><time>2026-05-01T08:55:41.793Z</time></trkpt><trkpt lat="39.5221183" lon="8.5084717"><ele>210.0</ele><time>2026-05-01T08:55:42.792Z</time></trkpt><trkpt lat="39.522055" lon="8.5082833"><ele>203.66666666666666</ele><time>2026-05-01T08:55:43.792Z</time></trkpt><trkpt lat="39.5219767" lon="8.5081183"><ele>197.33333333333331</ele><time>2026-05-01T08:55:44.793Z</time></trkpt><trkpt lat="39.5218833" lon="8.507935"><ele>191.0</ele><time>2026-05-01T08:55:45.792Z</time></trkpt><trkpt lat="39.5217983" lon="8.50775"><ele>188.33333333333331</ele><time>2026-05-01T08:55:46.793Z</time></trkpt><trkpt lat="39.521735" lon="8.5075533"><ele>185.66666666666666</ele><time>2026-05-01T08:55:47.792Z</time></trkpt><trkpt lat="39.52167" lon="8.5073667"><ele>183.0</ele><time>2026-05-01T08:55:48.792Z</time></trkpt><trkpt lat="39.5216133" lon="8.5071783"><ele>180.66666666666666</ele><time>2026-05-01T08:55:49.792Z</time></trkpt><trkpt lat="39.52157" lon="8.506975"><ele>178.33333333333331</ele><time>2026-05-01T08:55:50.793Z</time></trkpt><trkpt lat="39.5215433" lon="8.5067667"><ele>176.0</ele><time>2026-05-01T08:55:51.793Z</time></trkpt><trkpt lat="39.52153" lon="8.50657"><ele>176.0</ele><time>2026-05-01T08:55:52.792Z</time></trkpt><trkpt lat="39.5215217" lon="8.506385"><ele>176.0</ele><time>2026-05-01T08:55:53.792Z</time></trkpt><trkpt lat="39.5214933" lon="8.5062133"><ele>176.0</ele><time>2026-05-01T08:55:54.792Z</time></trkpt><trkpt lat="39.5214533" lon="8.5060433"><ele>176.0</ele><time>2026-05-01T08:55:55.792Z</time></trkpt><trkpt lat="39.5213917" lon="8.505935"><ele>176.60000000000002</ele><time>2026-05-01T08:55:56.792Z</time></trkpt><trkpt lat="39.5213717" lon="8.5058283"><ele>177.2</ele><time>2026-05-01T08:55:57.793Z</time></trkpt><trkpt lat="39.521375" lon="8.5057083"><ele>177.8</ele><time>2026-05-01T08:55:58.793Z</time></trkpt><trkpt lat="39.521395" lon="8.505565"><ele>178.39999999999998</ele><time>2026-05-01T08:55:59.792Z</time></trkpt><trkpt lat="39.521395" lon="8.5054067"><ele>179.0</ele><time>2026-05-01T08:56:00.792Z</time></trkpt><trkpt lat="39.521355" lon="8.5052567"><ele>180.0</ele><time>2026-05-01T08:56:01.792Z</time></trkpt><trkpt lat="39.5212817" lon="8.5050967"><ele>181.0</ele><time>2026-05-01T08:56:02.792Z</time></trkpt><trkpt lat="39.521215" lon="8.50494"><ele>182.0</ele><time>2026-05-01T08:56:03.792Z</time></trkpt><trkpt lat="39.5211433" lon="8.5047883"><ele>183.0</ele><time>2026-05-01T08:56:04.793Z</time></trkpt><trkpt lat="39.52107" lon="8.504635"><ele>179.0</ele><time>2026-05-01T08:56:05.792Z</time></trkpt><trkpt lat="39.5209867" lon="8.5044783"><ele>175.0</ele><time>2026-05-01T08:56:06.793Z</time></trkpt><trkpt lat="39.5209033" lon="8.504325"><ele>171.0</ele><time>2026-05-01T08:56:07.793Z</time></trkpt><trkpt lat="39.5208317" lon="8.5041683"><ele>167.0</ele><time>2026-05-01T08:56:08.792Z</time></trkpt><trkpt lat="39.520765" lon="8.5040533"><ele>167.0</ele><time>2026-05-01T08:56:09.792Z</time></trkpt><trkpt lat="39.5206867" lon="8.5039783"><ele>167.0</ele><time>2026-05-01T08:56:10.793Z</time></trkpt><trkpt lat="39.5205933" lon="8.50395"><ele>167.0</ele><time>2026-05-01T08:56:11.792Z</time></trkpt><trkpt lat="39.5205017" lon="8.5039683"><ele>167.0</ele><time>2026-05-01T08:56:12.793Z</time></trkpt><trkpt lat="39.5204233" lon="8.5040217"><ele>167.0</ele><time>2026-05-01T08:56:13.793Z</time></trkpt><trkpt lat="39.5203383" lon="8.5040967"><ele>166.8</ele><time>2026-05-01T08:56:14.792Z</time></trkpt><trkpt lat="39.52026" lon="8.5041483"><ele>166.6</ele><time>2026-05-01T08:56:15.793Z</time></trkpt><trkpt lat="39.520195" lon="8.504155"><ele>166.4</ele><time>2026-05-01T08:56:16.793Z</time></trkpt><trkpt lat="39.5201017" lon="8.5040867"><ele>166.20000000000002</ele><time>2026-05-01T08:56:18.792Z</time></trkpt><trkpt lat="39.52005" lon="8.5039167"><ele>166.0</ele><time>2026-05-01T08:56:20.792Z</time></trkpt><trkpt lat="39.5200267" lon="8.5037833"><ele>164.75</ele><time>2026-05-01T08:56:21.793Z</time></trkpt><trkpt lat="39.520005" lon="8.5036233"><ele>163.5</ele><time>2026-05-01T08:56:22.792Z</time></trkpt><trkpt lat="39.51997" lon="8.50343"><ele>162.25</ele><time>2026-05-01T08:56:23.792Z</time></trkpt><trkpt lat="39.5199367" lon="8.50324"><ele>161.0</ele><time>2026-05-01T08:56:24.792Z</time></trkpt><trkpt lat="39.5199" lon="8.5030633"><ele>160.60000000000002</ele><time>2026-05-01T08:56:25.793Z</time></trkpt><trkpt lat="39.5198683" lon="8.502905"><ele>160.20000000000002</ele><time>2026-05-01T08:56:26.792Z</time></trkpt><trkpt lat="39.5198467" lon="8.50276"><ele>159.8</ele><time>2026-05-01T08:56:27.793Z</time></trkpt><trkpt lat="39.5198133" lon="8.5026333"><ele>159.4</ele><time>2026-05-01T08:56:28.793Z</time></trkpt><trkpt lat="39.5197583" lon="8.5025267"><ele>159.0</ele><time>2026-05-01T08:56:29.793Z</time></trkpt><trkpt lat="39.5196883" lon="8.5024367"><ele>159.0</ele><time>2026-05-01T08:56:30.792Z</time></trkpt><trkpt lat="39.51961" lon="8.50235"><ele>159.0</ele><time>2026-05-01T08:56:31.792Z</time></trkpt><trkpt lat="39.5195383" lon="8.502275"><ele>159.0</ele><time>2026-05-01T08:56:32.792Z</time></trkpt><trkpt lat="39.5194933" lon="8.5021967"><ele>159.0</ele><time>2026-05-01T08:56:33.792Z</time></trkpt><trkpt lat="39.519545" lon="8.5020417"><ele>159.0</ele><time>2026-05-01T08:56:35.792Z</time></trkpt><trkpt lat="39.51959" lon="8.5019817"><ele>159.16666666666666</ele><time>2026-05-01T08:56:36.792Z</time></trkpt><trkpt lat="39.5196267" lon="8.5019133"><ele>159.33333333333334</ele><time>2026-05-01T08:56:37.792Z</time></trkpt><trkpt lat="39.5196467" lon="8.5018267"><ele>159.5</ele><time>2026-05-01T08:56:38.792Z</time></trkpt><trkpt lat="39.5196617" lon="8.501725"><ele>159.66666666666669</ele><time>2026-05-01T08:56:39.793Z</time></trkpt><trkpt lat="39.5196517" lon="8.50161"><ele>159.83333333333334</ele><time>2026-05-01T08:56:40.793Z</time></trkpt><trkpt lat="39.5196083" lon="8.5015"><ele>160.0</ele><time>2026-05-01T08:56:41.792Z</time></trkpt><trkpt lat="39.51955" lon="8.50139"><ele>156.8</ele><time>2026-05-01T08:56:42.792Z</time></trkpt><trkpt lat="39.5194717" lon="8.50129"><ele>153.6</ele><time>2026-05-01T08:56:43.792Z</time></trkpt><trkpt lat="39.519395" lon="8.5011867"><ele>150.4</ele><time>2026-05-01T08:56:44.792Z</time></trkpt><trkpt lat="39.5193433" lon="8.5010767"><ele>147.2</ele><time>2026-05-01T08:56:45.793Z</time></trkpt><trkpt lat="39.5193217" lon="8.50096"><ele>144.0</ele><time>2026-05-01T08:56:46.792Z</time></trkpt><trkpt lat="39.5192983" lon="8.5008333"><ele>144.0</ele><time>2026-05-01T08:56:47.793Z</time></trkpt><trkpt lat="39.5192467" lon="8.50071"><ele>144.0</ele><time>2026-05-01T08:56:48.792Z</time></trkpt><trkpt lat="39.51917" lon="8.5006"><ele>144.0</ele><time>2026-05-01T08:56:49.792Z</time></trkpt><trkpt lat="39.5190817" lon="8.5005183"><ele>144.0</ele><time>2026-05-01T08:56:50.792Z</time></trkpt><trkpt lat="39.5189767" lon="8.5004667"><ele>144.0</ele><time>2026-05-01T08:56:51.792Z</time></trkpt><trkpt lat="39.5188533" lon="8.500465"><ele>144.25</ele><time>2026-05-01T08:56:52.792Z</time></trkpt><trkpt lat="39.5187283" lon="8.50049"><ele>144.5</ele><time>2026-05-01T08:56:53.792Z</time></trkpt><trkpt lat="39.5186017" lon="8.500525"><ele>144.75</ele><time>2026-05-01T08:56:54.792Z</time></trkpt><trkpt lat="39.51847" lon="8.5005367"><ele>145.0</ele><time>2026-05-01T08:56:55.792Z</time></trkpt><trkpt lat="39.518335" lon="8.5005183"><ele>145.0</ele><time>2026-05-01T08:56:56.793Z</time></trkpt><trkpt lat="39.5182233" lon="8.500475"><ele>145.0</ele><time>2026-05-01T08:56:57.792Z</time></trkpt><trkpt lat="39.518125" lon="8.500405"><ele>145.0</ele><time>2026-05-01T08:56:58.793Z</time></trkpt><trkpt lat="39.5180533" lon="8.5002983"><ele>145.0</ele><time>2026-05-01T08:56:59.792Z</time></trkpt><trkpt lat="39.5179867" lon="8.5001683"><ele>144.5</ele><time>2026-05-01T08:57:00.793Z</time></trkpt><trkpt lat="39.5179117" lon="8.50003"><ele>144.0</ele><time>2026-05-01T08:57:01.792Z</time></trkpt><trkpt lat="39.51783" lon="8.4998867"><ele>143.5</ele><time>2026-05-01T08:57:02.793Z</time></trkpt><trkpt lat="39.517735" lon="8.49974"><ele>143.0</ele><time>2026-05-01T08:57:03.792Z</time></trkpt><trkpt lat="39.5176483" lon="8.4995867"><ele>140.25</ele><time>2026-05-01T08:57:04.793Z</time></trkpt><trkpt lat="39.5175517" lon="8.4994567"><ele>137.5</ele><time>2026-05-01T08:57:05.792Z</time></trkpt><trkpt lat="39.517465" lon="8.4993533"><ele>134.75</ele><time>2026-05-01T08:57:06.792Z</time></trkpt><trkpt lat="39.5173583" lon="8.4992767"><ele>132.0</ele><time>2026-05-01T08:57:07.792Z</time></trkpt><trkpt lat="39.5172567" lon="8.499205"><ele>132.0</ele><time>2026-05-01T08:57:08.792Z</time></trkpt><trkpt lat="39.5171117" lon="8.4991733"><ele>132.0</ele><time>2026-05-01T08:57:09.791Z</time></trkpt><trkpt lat="39.5169833" lon="8.4991583"><ele>132.0</ele><time>2026-05-01T08:57:10.791Z</time></trkpt><trkpt lat="39.5168817" lon="8.49912"><ele>132.0</ele><time>2026-05-01T08:57:11.792Z</time></trkpt><trkpt lat="39.5168067" lon="8.4990433"><ele>131.4</ele><time>2026-05-01T08:57:12.791Z</time></trkpt><trkpt lat="39.5167533" lon="8.49895"><ele>130.79999999999998</ele><time>2026-05-01T08:57:13.792Z</time></trkpt><trkpt lat="39.51672" lon="8.49884"><ele>130.2</ele><time>2026-05-01T08:57:14.791Z</time></trkpt><trkpt lat="39.5166833" lon="8.4987083"><ele>129.6</ele><time>2026-05-01T08:57:15.792Z</time></trkpt><trkpt lat="39.5166133" lon="8.4985767"><ele>129.0</ele><time>2026-05-01T08:57:16.791Z</time></trkpt><trkpt lat="39.5165117" lon="8.4984867"><ele>128.5</ele><time>2026-05-01T08:57:17.792Z</time></trkpt><trkpt lat="39.51639" lon="8.4984167"><ele>128.0</ele><time>2026-05-01T08:57:18.791Z</time></trkpt><trkpt lat="39.5162583" lon="8.4983483"><ele>127.5</ele><time>2026-05-01T08:57:19.792Z</time></trkpt><trkpt lat="39.5161383" lon="8.4982483"><ele>127.0</ele><time>2026-05-01T08:57:20.792Z</time></trkpt><trkpt lat="39.5160267" lon="8.4981367"><ele>126.19999999999999</ele><time>2026-05-01T08:57:21.791Z</time></trkpt><trkpt lat="39.5159333" lon="8.4980267"><ele>125.39999999999999</ele><time>2026-05-01T08:57:22.791Z</time></trkpt><trkpt lat="39.5158667" lon="8.4979267"><ele>124.60000000000001</ele><time>2026-05-01T08:57:23.791Z</time></trkpt><trkpt lat="39.515825" lon="8.4978233"><ele>123.80000000000001</ele><time>2026-05-01T08:57:24.791Z</time></trkpt><trkpt lat="39.515805" lon="8.4977083"><ele>123.0</ele><time>2026-05-01T08:57:25.791Z</time></trkpt><trkpt lat="39.5158083" lon="8.4975633"><ele>122.25</ele><time>2026-05-01T08:57:26.792Z</time></trkpt><trkpt lat="39.515815" lon="8.4973983"><ele>121.5</ele><time>2026-05-01T08:57:27.792Z</time></trkpt><trkpt lat="39.5158217" lon="8.4972317"><ele>120.75</ele><time>2026-05-01T08:57:28.791Z</time></trkpt><trkpt lat="39.5158233" lon="8.4970767"><ele>120.0</ele><time>2026-05-01T08:57:29.791Z</time></trkpt><trkpt lat="39.5158233" lon="8.49693"><ele>120.0</ele><time>2026-05-01T08:57:30.791Z</time></trkpt><trkpt lat="39.51581" lon="8.4967917"><ele>120.0</ele><time>2026-05-01T08:57:31.791Z</time></trkpt><trkpt lat="39.515785" lon="8.49665"><ele>120.0</ele><time>2026-05-01T08:57:32.791Z</time></trkpt><trkpt lat="39.51575" lon="8.4965017"><ele>120.0</ele><time>2026-05-01T08:57:33.791Z</time></trkpt><trkpt lat="39.5157083" lon="8.496345"><ele>121.25</ele><time>2026-05-01T08:57:34.791Z</time></trkpt><trkpt lat="39.5156633" lon="8.4961867"><ele>122.5</ele><time>2026-05-01T08:57:35.791Z</time></trkpt><trkpt lat="39.5156183" lon="8.496025"><ele>123.75</ele><time>2026-05-01T08:57:36.791Z</time></trkpt><trkpt lat="39.5155717" lon="8.49585"><ele>125.0</ele><time>2026-05-01T08:57:37.791Z</time></trkpt><trkpt lat="39.5155133" lon="8.4956833"><ele>125.0</ele><time>2026-05-01T08:57:38.792Z</time></trkpt><trkpt lat="39.5154533" lon="8.4955183"><ele>125.0</ele><time>2026-05-01T08:57:39.791Z</time></trkpt><trkpt lat="39.5153867" lon="8.4953683"><ele>125.0</ele><time>2026-05-01T08:57:40.792Z</time></trkpt><trkpt lat="39.51533" lon="8.4952183"><ele>125.0</ele><time>2026-05-01T08:57:41.791Z</time></trkpt><trkpt lat="39.5152783" lon="8.4950617"><ele>121.25</ele><time>2026-05-01T08:57:42.791Z</time></trkpt><trkpt lat="39.51522" lon="8.4949067"><ele>117.5</ele><time>2026-05-01T08:57:43.792Z</time></trkpt><trkpt lat="39.5151583" lon="8.4947567"><ele>113.75</ele><time>2026-05-01T08:57:44.791Z</time></trkpt><trkpt lat="39.5150933" lon="8.4946083"><ele>110.0</ele><time>2026-05-01T08:57:45.791Z</time></trkpt><trkpt lat="39.5150283" lon="8.49447"><ele>109.6</ele><time>2026-05-01T08:57:46.792Z</time></trkpt><trkpt lat="39.5149767" lon="8.49434"><ele>109.2</ele><time>2026-05-01T08:57:47.791Z</time></trkpt><trkpt lat="39.5149467" lon="8.494225"><ele>108.80000000000001</ele><time>2026-05-01T08:57:48.791Z</time></trkpt><trkpt lat="39.5149483" lon="8.49411"><ele>108.4</ele><time>2026-05-01T08:57:49.791Z</time></trkpt><trkpt lat="39.5149733" lon="8.4939967"><ele>108.0</ele><time>2026-05-01T08:57:50.791Z</time></trkpt><trkpt lat="39.51501" lon="8.4939017"><ele>108.0</ele><time>2026-05-01T08:57:51.792Z</time></trkpt><trkpt lat="39.5150367" lon="8.4938117"><ele>108.00000000000001</ele><time>2026-05-01T08:57:52.791Z</time></trkpt><trkpt lat="39.5150517" lon="8.49373"><ele>108.00000000000001</ele><time>2026-05-01T08:57:53.791Z</time></trkpt><trkpt lat="39.5150233" lon="8.4936"><ele>108.0</ele><time>2026-05-01T08:57:55.791Z</time></trkpt><trkpt lat="39.5149367" lon="8.4935383"><ele>108.0</ele><time>2026-05-01T08:57:57.791Z</time></trkpt><trkpt lat="39.5148283" lon="8.4935483"><ele>107.2</ele><time>2026-05-01T08:57:59.791Z</time></trkpt><trkpt lat="39.5147367" lon="8.4935883"><ele>106.4</ele><time>2026-05-01T08:58:01.791Z</time></trkpt><trkpt lat="39.51464" lon="8.4936267"><ele>105.60000000000001</ele><time>2026-05-01T08:58:03.792Z</time></trkpt><trkpt lat="39.5145717" lon="8.493735"><ele>104.80000000000001</ele><time>2026-05-01T08:58:05.791Z</time></trkpt><trkpt lat="39.51448" lon="8.49383"><ele>104.0</ele><time>2026-05-01T08:58:07.791Z</time></trkpt><trkpt lat="39.5143883" lon="8.493845"><ele>105.6</ele><time>2026-05-01T08:58:09.791Z</time></trkpt><trkpt lat="39.5142733" lon="8.493835"><ele>107.2</ele><time>2026-05-01T08:58:11.791Z</time></trkpt><trkpt lat="39.5141733" lon="8.4937883"><ele>108.79999999999998</ele><time>2026-05-01T08:58:13.791Z</time></trkpt><trkpt lat="39.51408" lon="8.4937033"><ele>110.39999999999999</ele><time>2026-05-01T08:58:15.791Z</time></trkpt><trkpt lat="39.51402" lon="8.493665"><ele>112.0</ele><time>2026-05-01T08:58:16.791Z</time></trkpt><trkpt lat="39.5139567" lon="8.4936383"><ele>112.00000000000001</ele><time>2026-05-01T08:58:17.791Z</time></trkpt><trkpt lat="39.5138583" lon="8.4936333"><ele>112.0</ele><time>2026-05-01T08:58:19.792Z</time></trkpt><trkpt lat="39.513805" lon="8.4937217"><ele>112.0</ele><time>2026-05-01T08:58:21.791Z</time></trkpt><trkpt lat="39.51377" lon="8.4937967"><ele>112.0</ele><time>2026-05-01T08:58:22.791Z</time></trkpt><trkpt lat="39.5137317" lon="8.4938717"><ele>112.00000000000001</ele><time>2026-05-01T08:58:23.792Z</time></trkpt><trkpt lat="39.5136833" lon="8.4939267"><ele>112.0</ele><time>2026-05-01T08:58:24.792Z</time></trkpt><trkpt lat="39.513595" lon="8.4939917"><ele>113.19999999999999</ele><time>2026-05-01T08:58:26.791Z</time></trkpt><trkpt lat="39.513515" lon="8.4940417"><ele>114.39999999999999</ele><time>2026-05-01T08:58:28.791Z</time></trkpt><trkpt lat="39.513415" lon="8.4940817"><ele>115.60000000000001</ele><time>2026-05-01T08:58:30.791Z</time></trkpt><trkpt lat="39.5133083" lon="8.49416"><ele>116.80000000000001</ele><time>2026-05-01T08:58:32.791Z</time></trkpt><trkpt lat="39.513185" lon="8.4942067"><ele>118.0</ele><time>2026-05-01T08:58:34.791Z</time></trkpt><trkpt lat="39.5131083" lon="8.494225"><ele>118.00000000000001</ele><time>2026-05-01T08:58:35.791Z</time></trkpt><trkpt lat="39.513035" lon="8.4942467"><ele>118.0</ele><time>2026-05-01T08:58:36.792Z</time></trkpt><trkpt lat="39.5129617" lon="8.494265"><ele>118.0</ele><time>2026-05-01T08:58:37.791Z</time></trkpt><trkpt lat="39.5128933" lon="8.494285"><ele>118.0</ele><time>2026-05-01T08:58:38.791Z</time></trkpt><trkpt lat="39.512815" lon="8.494315"><ele>118.00000000000001</ele><time>2026-05-01T08:58:39.791Z</time></trkpt><trkpt lat="39.5127433" lon="8.494365"><ele>118.0</ele><time>2026-05-01T08:58:40.792Z</time></trkpt><trkpt lat="39.5126767" lon="8.494435"><ele>119.0</ele><time>2026-05-01T08:58:41.792Z</time></trkpt><trkpt lat="39.51261" lon="8.4945083"><ele>120.00000000000001</ele><time>2026-05-01T08:58:42.792Z</time></trkpt><trkpt lat="39.5125467" lon="8.4945683"><ele>121.00000000000001</ele><time>2026-05-01T08:58:43.792Z</time></trkpt><trkpt lat="39.5124483" lon="8.494615"><ele>122.0</ele><time>2026-05-01T08:58:45.791Z</time></trkpt><trkpt lat="39.5123183" lon="8.49462"><ele>123.0</ele><time>2026-05-01T08:58:47.792Z</time></trkpt><trkpt lat="39.5122433" lon="8.4946133"><ele>123.0</ele><time>2026-05-01T08:58:48.792Z</time></trkpt><trkpt lat="39.5121633" lon="8.4945983"><ele>123.0</ele><time>2026-05-01T08:58:49.791Z</time></trkpt><trkpt lat="39.5120733" lon="8.49458"><ele>123.0</ele><time>2026-05-01T08:58:50.791Z</time></trkpt><trkpt lat="39.5119783" lon="8.4945633"><ele>123.0</ele><time>2026-05-01T08:58:51.791Z</time></trkpt><trkpt lat="39.511885" lon="8.4945517"><ele>123.0</ele><time>2026-05-01T08:58:52.791Z</time></trkpt><trkpt lat="39.5118083" lon="8.4945383"><ele>123.0</ele><time>2026-05-01T08:58:53.791Z</time></trkpt><trkpt lat="39.5117317" lon="8.4945183"><ele>125.0</ele><time>2026-05-01T08:58:54.791Z</time></trkpt><trkpt lat="39.5116617" lon="8.4944917"><ele>127.00000000000001</ele><time>2026-05-01T08:58:55.791Z</time></trkpt><trkpt lat="39.5115983" lon="8.4944633"><ele>129.0</ele><time>2026-05-01T08:58:56.792Z</time></trkpt><trkpt lat="39.5114833" lon="8.4944767"><ele>131.0</ele><time>2026-05-01T08:58:58.791Z</time></trkpt><trkpt lat="39.5113733" lon="8.4945033"><ele>133.0</ele><time>2026-05-01T08:59:00.791Z</time></trkpt><trkpt lat="39.5112617" lon="8.4944883"><ele>133.42857142857142</ele><time>2026-05-01T08:59:02.792Z</time></trkpt><trkpt lat="39.5111983" lon="8.49447"><ele>133.85714285714286</ele><time>2026-05-01T08:59:03.791Z</time></trkpt><trkpt lat="39.5111333" lon="8.494465"><ele>134.28571428571428</ele><time>2026-05-01T08:59:04.792Z</time></trkpt><trkpt lat="39.5110633" lon="8.4944633"><ele>134.71428571428572</ele><time>2026-05-01T08:59:05.792Z</time></trkpt><trkpt lat="39.51098" lon="8.494465"><ele>135.14285714285714</ele><time>2026-05-01T08:59:06.792Z</time></trkpt><trkpt lat="39.5109017" lon="8.4944967"><ele>135.57142857142856</ele><time>2026-05-01T08:59:07.791Z</time></trkpt><trkpt lat="39.5108217" lon="8.494525"><ele>136.0</ele><time>2026-05-01T08:59:08.792Z</time></trkpt><trkpt lat="39.510735" lon="8.494565"><ele>137.2</ele><time>2026-05-01T08:59:09.791Z</time></trkpt><trkpt lat="39.510645" lon="8.4946117"><ele>138.39999999999998</ele><time>2026-05-01T08:59:10.791Z</time></trkpt><trkpt lat="39.5105567" lon="8.4946533"><ele>139.6</ele><time>2026-05-01T08:59:11.792Z</time></trkpt><trkpt lat="39.51047" lon="8.4946833"><ele>140.79999999999998</ele><time>2026-05-01T08:59:12.792Z</time></trkpt><trkpt lat="39.5103833" lon="8.494725"><ele>142.0</ele><time>2026-05-01T08:59:13.792Z</time></trkpt><trkpt lat="39.51029" lon="8.4947717"><ele>142.0</ele><time>2026-05-01T08:59:14.791Z</time></trkpt><trkpt lat="39.5102033" lon="8.49481"><ele>142.0</ele><time>2026-05-01T08:59:15.792Z</time></trkpt><trkpt lat="39.5101233" lon="8.494845"><ele>142.0</ele><time>2026-05-01T08:59:16.791Z</time></trkpt><trkpt lat="39.5100433" lon="8.4948733"><ele>142.0</ele><time>2026-05-01T08:59:17.791Z</time></trkpt><trkpt lat="39.5099617" lon="8.4949067"><ele>142.0</ele><time>2026-05-01T08:59:18.791Z</time></trkpt><trkpt lat="39.5098867" lon="8.4949467"><ele>142.0</ele><time>2026-05-01T08:59:19.791Z</time></trkpt><trkpt lat="39.5098167" lon="8.495005"><ele>142.0</ele><time>2026-05-01T08:59:20.792Z</time></trkpt><trkpt lat="39.50975" lon="8.49506"><ele>142.0</ele><time>2026-05-01T08:59:21.792Z</time></trkpt><trkpt lat="39.50969" lon="8.4950983"><ele>142.0</ele><time>2026-05-01T08:59:22.791Z</time></trkpt><trkpt lat="39.5096217" lon="8.49513"><ele>142.0</ele><time>2026-05-01T08:59:23.791Z</time></trkpt><trkpt lat="39.50955" lon="8.4951517"><ele>142.0</ele><time>2026-05-01T08:59:24.791Z</time></trkpt><trkpt lat="39.5094767" lon="8.4951617"><ele>142.0</ele><time>2026-05-01T08:59:25.791Z</time></trkpt><trkpt lat="39.509405" lon="8.4951767"><ele>142.0</ele><time>2026-05-01T08:59:26.792Z</time></trkpt><trkpt lat="39.5093267" lon="8.4952033"><ele>142.83333333333334</ele><time>2026-05-01T08:59:27.791Z</time></trkpt><trkpt lat="39.5092483" lon="8.4952317"><ele>143.66666666666669</ele><time>2026-05-01T08:59:28.791Z</time></trkpt><trkpt lat="39.50917" lon="8.4952683"><ele>144.5</ele><time>2026-05-01T08:59:29.792Z</time></trkpt><trkpt lat="39.5090967" lon="8.495315"><ele>145.33333333333334</ele><time>2026-05-01T08:59:30.791Z</time></trkpt><trkpt lat="39.5090333" lon="8.49537"><ele>146.16666666666666</ele><time>2026-05-01T08:59:31.792Z</time></trkpt><trkpt lat="39.50898" lon="8.4954333"><ele>147.0</ele><time>2026-05-01T08:59:32.791Z</time></trkpt><trkpt lat="39.5089233" lon="8.4955217"><ele>148.6</ele><time>2026-05-01T08:59:34.792Z</time></trkpt><trkpt lat="39.5088433" lon="8.4955817"><ele>150.2</ele><time>2026-05-01T08:59:44.791Z</time></trkpt><trkpt lat="39.5087233" lon="8.4956333"><ele>151.8</ele><time>2026-05-01T08:59:46.792Z</time></trkpt><trkpt lat="39.5086417" lon="8.495705"><ele>153.4</ele><time>2026-05-01T08:59:48.792Z</time></trkpt><trkpt lat="39.5085883" lon="8.4957533"><ele>155.0</ele><time>2026-05-01T08:59:50.791Z</time></trkpt><trkpt lat="39.5085333" lon="8.4956933"><ele>155.16666666666666</ele><time>2026-05-01T08:59:54.791Z</time></trkpt><trkpt lat="39.5085617" lon="8.4956083"><ele>155.33333333333331</ele><time>2026-05-01T08:59:56.791Z</time></trkpt><trkpt lat="39.5085733" lon="8.4955217"><ele>155.5</ele><time>2026-05-01T09:00:00.792Z</time></trkpt><trkpt lat="39.5085917" lon="8.4954017"><ele>155.66666666666666</ele><time>2026-05-01T09:00:02.79Z</time></trkpt><trkpt lat="39.5086117" lon="8.4952667"><ele>155.83333333333334</ele><time>2026-05-01T09:00:04.79Z</time></trkpt><trkpt lat="39.5085933" lon="8.4951317"><ele>156.0</ele><time>2026-05-01T09:00:06.79Z</time></trkpt><trkpt lat="39.508565" lon="8.495015"><ele>157.2</ele><time>2026-05-01T09:00:08.79Z</time></trkpt><trkpt lat="39.5086017" lon="8.4949017"><ele>158.39999999999998</ele><time>2026-05-01T09:00:10.79Z</time></trkpt><trkpt lat="39.508695" lon="8.4948767"><ele>159.6</ele><time>2026-05-01T09:00:12.79Z</time></trkpt><trkpt lat="39.508795" lon="8.4948867"><ele>160.79999999999998</ele><time>2026-05-01T09:00:14.79Z</time></trkpt><trkpt lat="39.508895" lon="8.49483"><ele>162.0</ele><time>2026-05-01T09:00:16.79Z</time></trkpt><trkpt lat="39.5090083" lon="8.4947383"><ele>162.57142857142858</ele><time>2026-05-01T09:00:18.79Z</time></trkpt><trkpt lat="39.5090633" lon="8.4946917"><ele>163.14285714285714</ele><time>2026-05-01T09:00:19.79Z</time></trkpt><trkpt lat="39.5091233" lon="8.4946533"><ele>163.71428571428572</ele><time>2026-05-01T09:00:20.791Z</time></trkpt><trkpt lat="39.5091817" lon="8.4946167"><ele>164.28571428571428</ele><time>2026-05-01T09:00:21.791Z</time></trkpt><trkpt lat="39.5092367" lon="8.4945767"><ele>164.85714285714286</ele><time>2026-05-01T09:00:22.79Z</time></trkpt><trkpt lat="39.5092917" lon="8.494535"><ele>165.42857142857142</ele><time>2026-05-01T09:00:23.791Z</time></trkpt><trkpt lat="39.5093467" lon="8.49449"><ele>166.0</ele><time>2026-05-01T09:00:24.791Z</time></trkpt><trkpt lat="39.509405" lon="8.494445"><ele>166.0</ele><time>2026-05-01T09:00:25.79Z</time></trkpt><trkpt lat="39.5094817" lon="8.4943417"><ele>166.0</ele><time>2026-05-01T09:00:27.79Z</time></trkpt><trkpt lat="39.509505" lon="8.4941883"><ele>166.0</ele><time>2026-05-01T09:00:29.79Z</time></trkpt><trkpt lat="39.5095033" lon="8.4941"><ele>166.0</ele><time>2026-05-01T09:00:30.79Z</time></trkpt><trkpt lat="39.5094733" lon="8.49395"><ele>166.0</ele><time>2026-05-01T09:00:32.79Z</time></trkpt><trkpt lat="39.5094367" lon="8.493835"><ele>166.0</ele><time>2026-05-01T09:00:34.791Z</time></trkpt><trkpt lat="39.5094633" lon="8.4936967"><ele>166.0</ele><time>2026-05-01T09:00:36.79Z</time></trkpt><trkpt lat="39.5095067" lon="8.4935483"><ele>166.0</ele><time>2026-05-01T09:00:38.79Z</time></trkpt><trkpt lat="39.5095283" lon="8.49342"><ele>166.0</ele><time>2026-05-01T09:00:40.79Z</time></trkpt><trkpt lat="39.5095583" lon="8.49334"><ele>166.0</ele><time>2026-05-01T09:00:42.79Z</time></trkpt><trkpt lat="39.509635" lon="8.4933083"><ele>166.0</ele><time>2026-05-01T09:00:44.791Z</time></trkpt><trkpt lat="39.5097217" lon="8.4933717"><ele>166.0</ele><time>2026-05-01T09:00:46.791Z</time></trkpt><trkpt lat="39.5098033" lon="8.4934683"><ele>166.0</ele><time>2026-05-01T09:00:48.79Z</time></trkpt><trkpt lat="39.5098533" lon="8.4935183"><ele>166.0</ele><time>2026-05-01T09:00:49.79Z</time></trkpt><trkpt lat="39.5099067" lon="8.4935683"><ele>166.0</ele><time>2026-05-01T09:00:50.79Z</time></trkpt><trkpt lat="39.5100033" lon="8.493655"><ele>166.0</ele><time>2026-05-01T09:00:52.79Z</time></trkpt><trkpt lat="39.510095" lon="8.49372"><ele>166.0</ele><time>2026-05-01T09:00:54.791Z</time></trkpt><trkpt lat="39.5101817" lon="8.493665"><ele>166.0</ele><time>2026-05-01T09:00:56.79Z</time></trkpt><trkpt lat="39.51021" lon="8.4935267"><ele>166.0</ele><time>2026-05-01T09:00:58.79Z</time></trkpt><trkpt lat="39.5101683" lon="8.4933683"><ele>166.0</ele><time>2026-05-01T09:01:00.791Z</time></trkpt><trkpt lat="39.510145" lon="8.4932717"><ele>166.0</ele><time>2026-05-01T09:01:01.791Z</time></trkpt><trkpt lat="39.5101267" lon="8.493175"><ele>166.0</ele><time>2026-05-01T09:01:02.791Z</time></trkpt><trkpt lat="39.5101083" lon="8.4930917"><ele>166.0</ele><time>2026-05-01T09:01:03.79Z</time></trkpt><trkpt lat="39.510085" lon="8.49301"><ele>166.0</ele><time>2026-05-01T09:01:04.791Z</time></trkpt><trkpt lat="39.5100583" lon="8.4929283"><ele>166.0</ele><time>2026-05-01T09:01:05.79Z</time></trkpt><trkpt lat="39.5100217" lon="8.4928467"><ele>166.0</ele><time>2026-05-01T09:01:06.791Z</time></trkpt><trkpt lat="39.5099817" lon="8.4927633"><ele>166.0</ele><time>2026-05-01T09:01:07.79Z</time></trkpt><trkpt lat="39.509945" lon="8.4926833"><ele>167.0</ele><time>2026-05-01T09:01:08.791Z</time></trkpt><trkpt lat="39.5099133" lon="8.4926017"><ele>168.0</ele><time>2026-05-01T09:01:09.79Z</time></trkpt><trkpt lat="39.5098917" lon="8.49252"><ele>169.0</ele><time>2026-05-01T09:01:10.79Z</time></trkpt><trkpt lat="39.5098683" lon="8.4923817"><ele>170.0</ele><time>2026-05-01T09:01:12.791Z</time></trkpt><trkpt lat="39.50982" lon="8.492255"><ele>171.0</ele><time>2026-05-01T09:01:14.79Z</time></trkpt><trkpt lat="39.5097417" lon="8.4921283"><ele>173.20000000000002</ele><time>2026-05-01T09:01:16.79Z</time></trkpt><trkpt lat="39.50969" lon="8.4919967"><ele>175.4</ele><time>2026-05-01T09:01:18.791Z</time></trkpt><trkpt lat="39.5097267" lon="8.4918833"><ele>177.6</ele><time>2026-05-01T09:01:20.79Z</time></trkpt><trkpt lat="39.509835" lon="8.4918483"><ele>179.8</ele><time>2026-05-01T09:01:22.79Z</time></trkpt><trkpt lat="39.5098967" lon="8.49183"><ele>182.0</ele><time>2026-05-01T09:01:23.79Z</time></trkpt><trkpt lat="39.509965" lon="8.491845"><ele>182.0</ele><time>2026-05-01T09:01:24.791Z</time></trkpt><trkpt lat="39.51005" lon="8.4918633"><ele>182.0</ele><time>2026-05-01T09:01:25.79Z</time></trkpt><trkpt lat="39.51013" lon="8.4918767"><ele>182.0</ele><time>2026-05-01T09:01:26.79Z</time></trkpt><trkpt lat="39.5102083" lon="8.4919083"><ele>182.0</ele><time>2026-05-01T09:01:27.79Z</time></trkpt><trkpt lat="39.5102767" lon="8.491945"><ele>182.0</ele><time>2026-05-01T09:01:28.79Z</time></trkpt><trkpt lat="39.5103383" lon="8.49198"><ele>182.0</ele><time>2026-05-01T09:01:29.791Z</time></trkpt><trkpt lat="39.5104233" lon="8.491995"><ele>182.0</ele><time>2026-05-01T09:01:31.79Z</time></trkpt><trkpt lat="39.5104617" lon="8.4919217"><ele>182.0</ele><time>2026-05-01T09:01:33.79Z</time></trkpt><trkpt lat="39.5104267" lon="8.4918133"><ele>182.0</ele><time>2026-05-01T09:01:35.79Z</time></trkpt><trkpt lat="39.5103333" lon="8.4916867"><ele>182.0</ele><time>2026-05-01T09:01:37.79Z</time></trkpt><trkpt lat="39.510295" lon="8.4916183"><ele>182.0</ele><time>2026-05-01T09:01:38.79Z</time></trkpt><trkpt lat="39.510265" lon="8.4914917"><ele>182.0</ele><time>2026-05-01T09:01:40.79Z</time></trkpt><trkpt lat="39.5103317" lon="8.491375"><ele>182.0</ele><time>2026-05-01T09:01:42.79Z</time></trkpt><trkpt lat="39.510385" lon="8.4913117"><ele>182.0</ele><time>2026-05-01T09:01:43.79Z</time></trkpt><trkpt lat="39.5104217" lon="8.491245"><ele>182.0</ele><time>2026-05-01T09:01:44.79Z</time></trkpt><trkpt lat="39.510445" lon="8.491095"><ele>182.0</ele><time>2026-05-01T09:01:46.79Z</time></trkpt><trkpt lat="39.5104233" lon="8.49093"><ele>180.16666666666666</ele><time>2026-05-01T09:01:48.79Z</time></trkpt><trkpt lat="39.5104183" lon="8.49084"><ele>178.33333333333331</ele><time>2026-05-01T09:01:49.79Z</time></trkpt><trkpt lat="39.5104167" lon="8.4907383"><ele>176.5</ele><time>2026-05-01T09:01:50.791Z</time></trkpt><trkpt lat="39.5104083" lon="8.4906483"><ele>174.66666666666666</ele><time>2026-05-01T09:01:51.79Z</time></trkpt><trkpt lat="39.5103633" lon="8.4905067"><ele>172.83333333333334</ele><time>2026-05-01T09:01:53.79Z</time></trkpt><trkpt lat="39.5103117" lon="8.49041"><ele>171.0</ele><time>2026-05-01T09:01:55.791Z</time></trkpt><trkpt lat="39.510315" lon="8.4902983"><ele>175.42857142857142</ele><time>2026-05-01T09:01:57.79Z</time></trkpt><trkpt lat="39.51032" lon="8.490215"><ele>179.85714285714286</ele><time>2026-05-01T09:01:58.791Z</time></trkpt><trkpt lat="39.5103217" lon="8.4901217"><ele>184.28571428571428</ele><time>2026-05-01T09:01:59.79Z</time></trkpt><trkpt lat="39.5103133" lon="8.490035"><ele>188.71428571428572</ele><time>2026-05-01T09:02:00.79Z</time></trkpt><trkpt lat="39.51029" lon="8.4899533"><ele>193.14285714285714</ele><time>2026-05-01T09:02:01.791Z</time></trkpt><trkpt lat="39.5102567" lon="8.4898733"><ele>197.57142857142856</ele><time>2026-05-01T09:02:02.79Z</time></trkpt><trkpt lat="39.5102233" lon="8.4897433"><ele>202.0</ele><time>2026-05-01T09:02:04.79Z</time></trkpt><trkpt lat="39.5102533" lon="8.4896083"><ele>202.0</ele><time>2026-05-01T09:02:06.791Z</time></trkpt><trkpt lat="39.510295" lon="8.489545"><ele>202.0</ele><time>2026-05-01T09:02:07.79Z</time></trkpt><trkpt lat="39.51035" lon="8.4894833"><ele>202.0</ele><time>2026-05-01T09:02:08.79Z</time></trkpt><trkpt lat="39.5104133" lon="8.4894333"><ele>202.0</ele><time>2026-05-01T09:02:09.79Z</time></trkpt><trkpt lat="39.5104817" lon="8.4894067"><ele>202.0</ele><time>2026-05-01T09:02:10.79Z</time></trkpt><trkpt lat="39.51055" lon="8.4893967"><ele>202.0</ele><time>2026-05-01T09:02:11.79Z</time></trkpt><trkpt lat="39.510625" lon="8.4893417"><ele>202.0</ele><time>2026-05-01T09:02:13.79Z</time></trkpt><trkpt lat="39.510625" lon="8.4892533"><ele>202.0</ele><time>2026-05-01T09:02:15.79Z</time></trkpt><trkpt lat="39.5105183" lon="8.489245"><ele>202.0</ele><time>2026-05-01T09:02:17.79Z</time></trkpt><trkpt lat="39.5104383" lon="8.4892617"><ele>202.0</ele><time>2026-05-01T09:02:18.79Z</time></trkpt><trkpt lat="39.5103417" lon="8.4893033"><ele>202.0</ele><time>2026-05-01T09:02:19.79Z</time></trkpt><trkpt lat="39.51024" lon="8.4893333"><ele>202.0</ele><time>2026-05-01T09:02:20.79Z</time></trkpt><trkpt lat="39.510145" lon="8.4893683"><ele>201.99999999999997</ele><time>2026-05-01T09:02:21.79Z</time></trkpt><trkpt lat="39.5100783" lon="8.4894167"><ele>202.0</ele><time>2026-05-01T09:02:22.79Z</time></trkpt><trkpt lat="39.51003" lon="8.489485"><ele>202.0</ele><time>2026-05-01T09:02:23.79Z</time></trkpt><trkpt lat="39.5100067" lon="8.4895783"><ele>202.0</ele><time>2026-05-01T09:02:24.79Z</time></trkpt><trkpt lat="39.5099717" lon="8.4896567"><ele>201.99999999999997</ele><time>2026-05-01T09:02:25.79Z</time></trkpt><trkpt lat="39.509935" lon="8.489745"><ele>202.0</ele><time>2026-05-01T09:02:26.79Z</time></trkpt><trkpt lat="39.5099167" lon="8.489845"><ele>202.0</ele><time>2026-05-01T09:02:27.791Z</time></trkpt><trkpt lat="39.509905" lon="8.48994"><ele>202.0</ele><time>2026-05-01T09:02:28.791Z</time></trkpt><trkpt lat="39.5098983" lon="8.4900267"><ele>202.0</ele><time>2026-05-01T09:02:29.79Z</time></trkpt><trkpt lat="39.5098967" lon="8.4901183"><ele>202.0</ele><time>2026-05-01T09:02:30.79Z</time></trkpt><trkpt lat="39.5098883" lon="8.49021"><ele>202.0</ele><time>2026-05-01T09:02:31.791Z</time></trkpt><trkpt lat="39.50988" lon="8.4903033"><ele>202.0</ele><time>2026-05-01T09:02:32.79Z</time></trkpt><trkpt lat="39.509875" lon="8.4903883"><ele>202.0</ele><time>2026-05-01T09:02:33.79Z</time></trkpt><trkpt lat="39.5098533" lon="8.4905117"><ele>202.0</ele><time>2026-05-01T09:02:35.79Z</time></trkpt><trkpt lat="39.5097883" lon="8.490445"><ele>202.0</ele><time>2026-05-01T09:02:39.79Z</time></trkpt><trkpt lat="39.5097833" lon="8.4903"><ele>202.0</ele><time>2026-05-01T09:02:41.79Z</time></trkpt><trkpt lat="39.5097783" lon="8.490215"><ele>202.0</ele><time>2026-05-01T09:02:42.79Z</time></trkpt><trkpt lat="39.5097717" lon="8.4901333"><ele>202.0</ele><time>2026-05-01T09:02:43.791Z</time></trkpt><trkpt lat="39.509745" lon="8.48997"><ele>201.99999999999997</ele><time>2026-05-01T09:02:45.79Z</time></trkpt><trkpt lat="39.509725" lon="8.48988"><ele>202.0</ele><time>2026-05-01T09:02:46.79Z</time></trkpt><trkpt lat="39.5096967" lon="8.4898033"><ele>202.0</ele><time>2026-05-01T09:02:47.789Z</time></trkpt><trkpt lat="39.509665" lon="8.4897267"><ele>202.0</ele><time>2026-05-01T09:02:48.789Z</time></trkpt><trkpt lat="39.509605" lon="8.489625"><ele>201.99999999999997</ele><time>2026-05-01T09:02:50.789Z</time></trkpt><trkpt lat="39.5094967" lon="8.4895767"><ele>202.0</ele><time>2026-05-01T09:03:04.789Z</time></trkpt><trkpt lat="39.5093783" lon="8.4895933"><ele>203.6</ele><time>2026-05-01T09:03:06.79Z</time></trkpt><trkpt lat="39.5092667" lon="8.4896317"><ele>205.2</ele><time>2026-05-01T09:03:08.789Z</time></trkpt><trkpt lat="39.509175" lon="8.4897017"><ele>206.8</ele><time>2026-05-01T09:03:10.79Z</time></trkpt><trkpt lat="39.5090883" lon="8.4898"><ele>208.4</ele><time>2026-05-01T09:03:12.789Z</time></trkpt><trkpt lat="39.50905" lon="8.4898683"><ele>210.0</ele><time>2026-05-01T09:03:13.789Z</time></trkpt><trkpt lat="39.5090133" lon="8.48995"><ele>210.0</ele><time>2026-05-01T09:03:14.789Z</time></trkpt><trkpt lat="39.50899" lon="8.49003"><ele>210.0</ele><time>2026-05-01T09:03:15.789Z</time></trkpt><trkpt lat="39.5089783" lon="8.4901167"><ele>210.0</ele><time>2026-05-01T09:03:16.789Z</time></trkpt><trkpt lat="39.5089833" lon="8.4902167"><ele>210.0</ele><time>2026-05-01T09:03:17.79Z</time></trkpt><trkpt lat="39.508995" lon="8.4903233"><ele>210.0</ele><time>2026-05-01T09:03:18.789Z</time></trkpt><trkpt lat="39.5090067" lon="8.4904233"><ele>210.0</ele><time>2026-05-01T09:03:19.79Z</time></trkpt><trkpt lat="39.5090033" lon="8.4905117"><ele>210.0</ele><time>2026-05-01T09:03:20.789Z</time></trkpt><trkpt lat="39.5089417" lon="8.4906483"><ele>210.66666666666666</ele><time>2026-05-01T09:03:22.789Z</time></trkpt><trkpt lat="39.508875" lon="8.4907067"><ele>211.33333333333331</ele><time>2026-05-01T09:03:23.789Z</time></trkpt><trkpt lat="39.5088033" lon="8.490755"><ele>212.0</ele><time>2026-05-01T09:03:24.79Z</time></trkpt><trkpt lat="39.5087283" lon="8.4908"><ele>212.66666666666666</ele><time>2026-05-01T09:03:25.79Z</time></trkpt><trkpt lat="39.50866" lon="8.4908567"><ele>213.33333333333331</ele><time>2026-05-01T09:03:26.789Z</time></trkpt><trkpt lat="39.5086067" lon="8.49093"><ele>214.0</ele><time>2026-05-01T09:03:27.789Z</time></trkpt><trkpt lat="39.508555" lon="8.4910133"><ele>212.33333333333331</ele><time>2026-05-01T09:03:28.789Z</time></trkpt><trkpt lat="39.508505" lon="8.4910767"><ele>210.66666666666666</ele><time>2026-05-01T09:03:29.79Z</time></trkpt><trkpt lat="39.5083983" lon="8.4911083"><ele>209.0</ele><time>2026-05-01T09:03:31.79Z</time></trkpt><trkpt lat="39.5083317" lon="8.491095"><ele>207.33333333333331</ele><time>2026-05-01T09:03:32.79Z</time></trkpt><trkpt lat="39.5082483" lon="8.4910717"><ele>205.66666666666666</ele><time>2026-05-01T09:03:33.789Z</time></trkpt><trkpt lat="39.50816" lon="8.491035"><ele>204.0</ele><time>2026-05-01T09:03:34.789Z</time></trkpt><trkpt lat="39.5080733" lon="8.4910017"><ele>204.0</ele><time>2026-05-01T09:03:35.79Z</time></trkpt><trkpt lat="39.5079933" lon="8.49098"><ele>204.0</ele><time>2026-05-01T09:03:36.789Z</time></trkpt><trkpt lat="39.5079167" lon="8.4909767"><ele>204.0</ele><time>2026-05-01T09:03:37.789Z</time></trkpt><trkpt lat="39.507845" lon="8.4909967"><ele>204.0</ele><time>2026-05-01T09:03:38.79Z</time></trkpt><trkpt lat="39.5077817" lon="8.49104"><ele>204.0</ele><time>2026-05-01T09:03:39.789Z</time></trkpt><trkpt lat="39.5077283" lon="8.4911017"><ele>204.0</ele><time>2026-05-01T09:03:40.789Z</time></trkpt><trkpt lat="39.5076867" lon="8.491185"><ele>204.71428571428572</ele><time>2026-05-01T09:03:41.789Z</time></trkpt><trkpt lat="39.507655" lon="8.49128"><ele>205.42857142857144</ele><time>2026-05-01T09:03:42.79Z</time></trkpt><trkpt lat="39.5076383" lon="8.4913733"><ele>206.14285714285714</ele><time>2026-05-01T09:03:43.789Z</time></trkpt><trkpt lat="39.5076217" lon="8.49147"><ele>206.85714285714286</ele><time>2026-05-01T09:03:44.789Z</time></trkpt><trkpt lat="39.5075933" lon="8.4915583"><ele>207.57142857142856</ele><time>2026-05-01T09:03:45.79Z</time></trkpt><trkpt lat="39.5075517" lon="8.4916267"><ele>208.28571428571428</ele><time>2026-05-01T09:03:46.789Z</time></trkpt><trkpt lat="39.5074983" lon="8.4916883"><ele>209.0</ele><time>2026-05-01T09:03:47.789Z</time></trkpt><trkpt lat="39.5074383" lon="8.491755"><ele>209.0</ele><time>2026-05-01T09:03:48.79Z</time></trkpt><trkpt lat="39.5073817" lon="8.49181"><ele>209.0</ele><time>2026-05-01T09:03:49.789Z</time></trkpt><trkpt lat="39.5072833" lon="8.4918667"><ele>209.0</ele><time>2026-05-01T09:03:51.789Z</time></trkpt><trkpt lat="39.5071917" lon="8.4918383"><ele>209.0</ele><time>2026-05-01T09:03:53.79Z</time></trkpt><trkpt lat="39.5071117" lon="8.49177"><ele>209.0</ele><time>2026-05-01T09:03:55.789Z</time></trkpt><trkpt lat="39.5070783" lon="8.49167"><ele>207.83333333333334</ele><time>2026-05-01T09:03:57.789Z</time></trkpt><trkpt lat="39.5070333" lon="8.49157"><ele>206.66666666666669</ele><time>2026-05-01T09:03:59.789Z</time></trkpt><trkpt lat="39.5069583" lon="8.49151"><ele>205.5</ele><time>2026-05-01T09:04:01.789Z</time></trkpt><trkpt lat="39.5068583" lon="8.4915183"><ele>204.33333333333331</ele><time>2026-05-01T09:04:03.789Z</time></trkpt><trkpt lat="39.5067967" lon="8.4915483"><ele>203.16666666666666</ele><time>2026-05-01T09:04:04.789Z</time></trkpt><trkpt lat="39.5067267" lon="8.491585"><ele>202.0</ele><time>2026-05-01T09:04:05.789Z</time></trkpt><trkpt lat="39.506665" lon="8.491615"><ele>201.99999999999997</ele><time>2026-05-01T09:04:06.789Z</time></trkpt><trkpt lat="39.5065383" lon="8.4916267"><ele>202.0</ele><time>2026-05-01T09:04:08.789Z</time></trkpt><trkpt lat="39.5064717" lon="8.491615"><ele>202.0</ele><time>2026-05-01T09:04:09.79Z</time></trkpt><trkpt lat="39.5064067" lon="8.4916167"><ele>202.0</ele><time>2026-05-01T09:04:10.79Z</time></trkpt><trkpt lat="39.5063433" lon="8.4916383"><ele>201.99999999999997</ele><time>2026-05-01T09:04:11.789Z</time></trkpt><trkpt lat="39.506285" lon="8.4916767"><ele>202.0</ele><time>2026-05-01T09:04:12.789Z</time></trkpt><trkpt lat="39.50623" lon="8.4917283"><ele>203.8</ele><time>2026-05-01T09:04:13.789Z</time></trkpt><trkpt lat="39.5061733" lon="8.4917783"><ele>205.6</ele><time>2026-05-01T09:04:14.79Z</time></trkpt><trkpt lat="39.5060783" lon="8.4918417"><ele>207.4</ele><time>2026-05-01T09:04:16.79Z</time></trkpt><trkpt lat="39.5059883" lon="8.4917933"><ele>209.20000000000002</ele><time>2026-05-01T09:04:18.789Z</time></trkpt><trkpt lat="39.505975" lon="8.4916483"><ele>211.0</ele><time>2026-05-01T09:04:20.79Z</time></trkpt><trkpt lat="39.5059733" lon="8.4915567"><ele>210.99999999999997</ele><time>2026-05-01T09:04:21.789Z</time></trkpt><trkpt lat="39.5059567" lon="8.4914517"><ele>211.0</ele><time>2026-05-01T09:04:22.789Z</time></trkpt><trkpt lat="39.5059433" lon="8.491345"><ele>211.0</ele><time>2026-05-01T09:04:23.79Z</time></trkpt><trkpt lat="39.505945" lon="8.4912433"><ele>211.0</ele><time>2026-05-01T09:04:24.79Z</time></trkpt><trkpt lat="39.50596" lon="8.491135"><ele>210.99999999999997</ele><time>2026-05-01T09:04:25.789Z</time></trkpt><trkpt lat="39.50599" lon="8.4910433"><ele>211.0</ele><time>2026-05-01T09:04:26.79Z</time></trkpt><trkpt lat="39.5060333" lon="8.4909617"><ele>208.8</ele><time>2026-05-01T09:04:27.789Z</time></trkpt><trkpt lat="39.506085" lon="8.4908833"><ele>206.60000000000002</ele><time>2026-05-01T09:04:28.789Z</time></trkpt><trkpt lat="39.50613" lon="8.4908117"><ele>204.4</ele><time>2026-05-01T09:04:29.789Z</time></trkpt><trkpt lat="39.5061617" lon="8.4906783"><ele>202.2</ele><time>2026-05-01T09:04:31.79Z</time></trkpt><trkpt lat="39.5061567" lon="8.4905633"><ele>200.0</ele><time>2026-05-01T09:04:33.79Z</time></trkpt><trkpt lat="39.5061167" lon="8.4904367"><ele>197.85714285714286</ele><time>2026-05-01T09:04:35.789Z</time></trkpt><trkpt lat="39.50608" lon="8.4903567"><ele>195.71428571428572</ele><time>2026-05-01T09:04:36.789Z</time></trkpt><trkpt lat="39.5060367" lon="8.4902817"><ele>193.57142857142856</ele><time>2026-05-01T09:04:37.789Z</time></trkpt><trkpt lat="39.5059833" lon="8.4902083"><ele>191.42857142857144</ele><time>2026-05-01T09:04:38.79Z</time></trkpt><trkpt lat="39.50592" lon="8.4901633"><ele>189.28571428571428</ele><time>2026-05-01T09:04:39.789Z</time></trkpt><trkpt lat="39.50585" lon="8.4901367"><ele>187.14285714285714</ele><time>2026-05-01T09:04:40.789Z</time></trkpt><trkpt lat="39.50577" lon="8.4901217"><ele>185.0</ele><time>2026-05-01T09:04:41.789Z</time></trkpt><trkpt lat="39.5057" lon="8.49012"><ele>185.0</ele><time>2026-05-01T09:04:42.789Z</time></trkpt><trkpt lat="39.5056333" lon="8.4901083"><ele>185.0</ele><time>2026-05-01T09:04:43.789Z</time></trkpt><trkpt lat="39.50553" lon="8.4901067"><ele>185.0</ele><time>2026-05-01T09:04:45.789Z</time></trkpt><trkpt lat="39.5054517" lon="8.490075"><ele>185.0</ele><time>2026-05-01T09:04:47.789Z</time></trkpt><trkpt lat="39.5054083" lon="8.4899833"><ele>185.0</ele><time>2026-05-01T09:04:49.789Z</time></trkpt><trkpt lat="39.505415" lon="8.4898433"><ele>185.0</ele><time>2026-05-01T09:04:51.789Z</time></trkpt><trkpt lat="39.5054633" lon="8.4897"><ele>182.6</ele><time>2026-05-01T09:04:53.789Z</time></trkpt><trkpt lat="39.5055333" lon="8.4895733"><ele>180.2</ele><time>2026-05-01T09:04:55.789Z</time></trkpt><trkpt lat="39.505575" lon="8.4894517"><ele>177.8</ele><time>2026-05-01T09:04:57.789Z</time></trkpt><trkpt lat="39.5055917" lon="8.4893283"><ele>175.4</ele><time>2026-05-01T09:04:59.789Z</time></trkpt><trkpt lat="39.5056333" lon="8.4891867"><ele>173.0</ele><time>2026-05-01T09:05:01.79Z</time></trkpt><trkpt lat="39.5056717" lon="8.4890983"><ele>173.0</ele><time>2026-05-01T09:05:02.789Z</time></trkpt><trkpt lat="39.5057217" lon="8.4889967"><ele>173.0</ele><time>2026-05-01T09:05:03.789Z</time></trkpt><trkpt lat="39.5057717" lon="8.4888983"><ele>173.0</ele><time>2026-05-01T09:05:04.789Z</time></trkpt><trkpt lat="39.5058067" lon="8.4888283"><ele>173.0</ele><time>2026-05-01T09:05:05.789Z</time></trkpt><trkpt lat="39.5058233" lon="8.48872"><ele>173.0</ele><time>2026-05-01T09:05:07.789Z</time></trkpt><trkpt lat="39.505785" lon="8.4886367"><ele>173.0</ele><time>2026-05-01T09:05:09.789Z</time></trkpt><trkpt lat="39.5056983" lon="8.4886067"><ele>171.2</ele><time>2026-05-01T09:05:11.789Z</time></trkpt><trkpt lat="39.5056333" lon="8.4886117"><ele>169.4</ele><time>2026-05-01T09:05:12.79Z</time></trkpt><trkpt lat="39.5055183" lon="8.4886617"><ele>167.6</ele><time>2026-05-01T09:05:14.79Z</time></trkpt><trkpt lat="39.5053967" lon="8.4887267"><ele>165.79999999999998</ele><time>2026-05-01T09:05:16.79Z</time></trkpt><trkpt lat="39.5053217" lon="8.488765"><ele>164.0</ele><time>2026-05-01T09:05:17.789Z</time></trkpt><trkpt lat="39.5052367" lon="8.4888067"><ele>167.0</ele><time>2026-05-01T09:05:18.789Z</time></trkpt><trkpt lat="39.505155" lon="8.4888467"><ele>170.0</ele><time>2026-05-01T09:05:19.789Z</time></trkpt><trkpt lat="39.5050883" lon="8.4888567"><ele>173.0</ele><time>2026-05-01T09:05:20.789Z</time></trkpt><trkpt lat="39.5050267" lon="8.488825"><ele>176.0</ele><time>2026-05-01T09:05:21.789Z</time></trkpt><trkpt lat="39.5049733" lon="8.48878"><ele>179.0</ele><time>2026-05-01T09:05:22.79Z</time></trkpt><trkpt lat="39.5048733" lon="8.488765"><ele>182.0</ele><time>2026-05-01T09:05:24.789Z</time></trkpt><trkpt lat="39.5047567" lon="8.4888133"><ele>182.0</ele><time>2026-05-01T09:05:26.79Z</time></trkpt><trkpt lat="39.5046683" lon="8.48885"><ele>182.0</ele><time>2026-05-01T09:05:27.79Z</time></trkpt><trkpt lat="39.5045733" lon="8.4888883"><ele>182.0</ele><time>2026-05-01T09:05:28.79Z</time></trkpt><trkpt lat="39.50449" lon="8.4889233"><ele>182.0</ele><time>2026-05-01T09:05:29.79Z</time></trkpt><trkpt lat="39.5044317" lon="8.4889583"><ele>182.0</ele><time>2026-05-01T09:05:30.789Z</time></trkpt><trkpt lat="39.504365" lon="8.488935"><ele>182.0</ele><time>2026-05-01T09:05:32.789Z</time></trkpt><trkpt lat="39.5043767" lon="8.4888233"><ele>182.14285714285714</ele><time>2026-05-01T09:05:34.789Z</time></trkpt><trkpt lat="39.5044233" lon="8.48876"><ele>182.28571428571428</ele><time>2026-05-01T09:05:35.789Z</time></trkpt><trkpt lat="39.5044717" lon="8.488695"><ele>182.42857142857144</ele><time>2026-05-01T09:05:36.789Z</time></trkpt><trkpt lat="39.5045083" lon="8.488615"><ele>182.57142857142856</ele><time>2026-05-01T09:05:37.789Z</time></trkpt><trkpt lat="39.5045333" lon="8.4885217"><ele>182.71428571428572</ele><time>2026-05-01T09:05:38.789Z</time></trkpt><trkpt lat="39.5045483" lon="8.4884233"><ele>182.85714285714286</ele><time>2026-05-01T09:05:39.789Z</time></trkpt><trkpt lat="39.5045733" lon="8.488325"><ele>183.0</ele><time>2026-05-01T09:05:40.79Z</time></trkpt><trkpt lat="39.504615" lon="8.4882267"><ele>179.83333333333334</ele><time>2026-05-01T09:05:41.789Z</time></trkpt><trkpt lat="39.504675" lon="8.4881333"><ele>176.66666666666666</ele><time>2026-05-01T09:05:42.788Z</time></trkpt><trkpt lat="39.50475" lon="8.488055"><ele>173.5</ele><time>2026-05-01T09:05:43.788Z</time></trkpt><trkpt lat="39.5048067" lon="8.4879833"><ele>170.33333333333331</ele><time>2026-05-01T09:05:44.788Z</time></trkpt><trkpt lat="39.50485" lon="8.48791"><ele>167.16666666666666</ele><time>2026-05-01T09:05:45.788Z</time></trkpt><trkpt lat="39.504885" lon="8.4878133"><ele>164.0</ele><time>2026-05-01T09:05:46.788Z</time></trkpt><trkpt lat="39.5049283" lon="8.4876867"><ele>163.6</ele><time>2026-05-01T09:05:47.788Z</time></trkpt><trkpt lat="39.50498" lon="8.487565"><ele>163.2</ele><time>2026-05-01T09:05:48.788Z</time></trkpt><trkpt lat="39.5050217" lon="8.4874583"><ele>162.79999999999998</ele><time>2026-05-01T09:05:49.789Z</time></trkpt><trkpt lat="39.50505" lon="8.4873533"><ele>162.39999999999998</ele><time>2026-05-01T09:05:50.789Z</time></trkpt><trkpt lat="39.5050783" lon="8.487245"><ele>162.0</ele><time>2026-05-01T09:05:51.789Z</time></trkpt><trkpt lat="39.5051233" lon="8.4871467"><ele>161.16666666666666</ele><time>2026-05-01T09:05:52.789Z</time></trkpt><trkpt lat="39.50517" lon="8.4870633"><ele>160.33333333333334</ele><time>2026-05-01T09:05:53.788Z</time></trkpt><trkpt lat="39.5052033" lon="8.4869933"><ele>159.5</ele><time>2026-05-01T09:05:54.788Z</time></trkpt><trkpt lat="39.505225" lon="8.4868717"><ele>158.66666666666669</ele><time>2026-05-01T09:05:56.788Z</time></trkpt><trkpt lat="39.5051833" lon="8.4867533"><ele>157.83333333333334</ele><time>2026-05-01T09:05:58.788Z</time></trkpt><trkpt lat="39.5051433" lon="8.4866417"><ele>157.0</ele><time>2026-05-01T09:06:00.789Z</time></trkpt><trkpt lat="39.5052" lon="8.4865117"><ele>157.0</ele><time>2026-05-01T09:06:02.788Z</time></trkpt><trkpt lat="39.5052533" lon="8.4864317"><ele>157.0</ele><time>2026-05-01T09:06:03.788Z</time></trkpt><trkpt lat="39.5052917" lon="8.4863567"><ele>157.0</ele><time>2026-05-01T09:06:04.788Z</time></trkpt><trkpt lat="39.5053217" lon="8.4862333"><ele>157.0</ele><time>2026-05-01T09:06:06.788Z</time></trkpt><trkpt lat="39.5052933" lon="8.4861333"><ele>157.0</ele><time>2026-05-01T09:06:08.789Z</time></trkpt><trkpt lat="39.5051967" lon="8.4861"><ele>157.0</ele><time>2026-05-01T09:06:10.788Z</time></trkpt><trkpt lat="39.5050867" lon="8.4861433"><ele>157.0</ele><time>2026-05-01T09:06:12.788Z</time></trkpt><trkpt lat="39.50503" lon="8.4861883"><ele>157.0</ele><time>2026-05-01T09:06:13.788Z</time></trkpt><trkpt lat="39.5049617" lon="8.486245"><ele>157.0</ele><time>2026-05-01T09:06:14.788Z</time></trkpt><trkpt lat="39.5048883" lon="8.4863017"><ele>157.0</ele><time>2026-05-01T09:06:15.789Z</time></trkpt><trkpt lat="39.5048067" lon="8.4863417"><ele>157.0</ele><time>2026-05-01T09:06:16.788Z</time></trkpt><trkpt lat="39.50473" lon="8.486355"><ele>157.0</ele><time>2026-05-01T09:06:17.788Z</time></trkpt><trkpt lat="39.5046483" lon="8.4863483"><ele>156.0</ele><time>2026-05-01T09:06:18.788Z</time></trkpt><trkpt lat="39.5045667" lon="8.4863233"><ele>155.0</ele><time>2026-05-01T09:06:19.788Z</time></trkpt><trkpt lat="39.5044817" lon="8.486305"><ele>154.0</ele><time>2026-05-01T09:06:20.788Z</time></trkpt><trkpt lat="39.5043933" lon="8.4862867"><ele>153.0</ele><time>2026-05-01T09:06:21.788Z</time></trkpt><trkpt lat="39.5043117" lon="8.48625"><ele>152.0</ele><time>2026-05-01T09:06:22.788Z</time></trkpt><trkpt lat="39.5042317" lon="8.4861933"><ele>151.0</ele><time>2026-05-01T09:06:23.789Z</time></trkpt><trkpt lat="39.5041517" lon="8.4861317"><ele>148.66666666666669</ele><time>2026-05-01T09:06:24.788Z</time></trkpt><trkpt lat="39.5040933" lon="8.4860617"><ele>146.33333333333334</ele><time>2026-05-01T09:06:25.789Z</time></trkpt><trkpt lat="39.5040283" lon="8.4860067"><ele>144.0</ele><time>2026-05-01T09:06:26.788Z</time></trkpt><trkpt lat="39.5039633" lon="8.4859817"><ele>141.66666666666666</ele><time>2026-05-01T09:06:27.789Z</time></trkpt><trkpt lat="39.5038967" lon="8.4859967"><ele>139.33333333333331</ele><time>2026-05-01T09:06:28.788Z</time></trkpt><trkpt lat="39.5038133" lon="8.486075"><ele>137.0</ele><time>2026-05-01T09:06:30.788Z</time></trkpt><trkpt lat="39.5038067" lon="8.486215"><ele>139.33333333333331</ele><time>2026-05-01T09:06:32.789Z</time></trkpt><trkpt lat="39.5038333" lon="8.4862967"><ele>141.66666666666666</ele><time>2026-05-01T09:06:33.788Z</time></trkpt><trkpt lat="39.503885" lon="8.486385"><ele>144.0</ele><time>2026-05-01T09:06:34.788Z</time></trkpt><trkpt lat="39.5039283" lon="8.4864583"><ele>146.33333333333334</ele><time>2026-05-01T09:06:35.788Z</time></trkpt><trkpt lat="39.503935" lon="8.4866"><ele>148.66666666666669</ele><time>2026-05-01T09:06:37.788Z</time></trkpt><trkpt lat="39.5038717" lon="8.4866533"><ele>151.0</ele><time>2026-05-01T09:06:39.789Z</time></trkpt><trkpt lat="39.5037717" lon="8.4866117"><ele>150.0</ele><time>2026-05-01T09:06:41.789Z</time></trkpt><trkpt lat="39.50367" lon="8.4865383"><ele>149.0</ele><time>2026-05-01T09:06:43.788Z</time></trkpt><trkpt lat="39.5036067" lon="8.4864883"><ele>148.0</ele><time>2026-05-01T09:06:44.789Z</time></trkpt><trkpt lat="39.5035533" lon="8.48644"><ele>147.0</ele><time>2026-05-01T09:06:45.788Z</time></trkpt><trkpt lat="39.5034667" lon="8.4864117"><ele>146.0</ele><time>2026-05-01T09:06:47.788Z</time></trkpt><trkpt lat="39.5033533" lon="8.4864567"><ele>146.0</ele><time>2026-05-01T09:06:49.788Z</time></trkpt><trkpt lat="39.5032783" lon="8.4865033"><ele>146.0</ele><time>2026-05-01T09:06:50.789Z</time></trkpt><trkpt lat="39.50321" lon="8.4865567"><ele>146.0</ele><time>2026-05-01T09:06:51.789Z</time></trkpt><trkpt lat="39.5031267" lon="8.4866317"><ele>146.0</ele><time>2026-05-01T09:06:53.788Z</time></trkpt><trkpt lat="39.50305" lon="8.486605"><ele>146.0</ele><time>2026-05-01T09:06:55.788Z</time></trkpt><trkpt lat="39.5030017" lon="8.486505"><ele>146.0</ele><time>2026-05-01T09:06:57.788Z</time></trkpt><trkpt lat="39.5030367" lon="8.48635"><ele>146.0</ele><time>2026-05-01T09:06:59.788Z</time></trkpt><trkpt lat="39.5030733" lon="8.4862833"><ele>146.0</ele><time>2026-05-01T09:07:00.788Z</time></trkpt><trkpt lat="39.5031133" lon="8.4862033"><ele>146.0</ele><time>2026-05-01T09:07:01.788Z</time></trkpt><trkpt lat="39.5031567" lon="8.4860917"><ele>146.0</ele><time>2026-05-01T09:07:02.788Z</time></trkpt><trkpt lat="39.50319" lon="8.48598"><ele>146.0</ele><time>2026-05-01T09:07:03.789Z</time></trkpt><trkpt lat="39.5032167" lon="8.4858767"><ele>146.0</ele><time>2026-05-01T09:07:04.788Z</time></trkpt><trkpt lat="39.5032283" lon="8.4857867"><ele>144.0</ele><time>2026-05-01T09:07:05.788Z</time></trkpt><trkpt lat="39.5032267" lon="8.4856933"><ele>142.0</ele><time>2026-05-01T09:07:06.788Z</time></trkpt><trkpt lat="39.5032117" lon="8.4856117"><ele>140.0</ele><time>2026-05-01T09:07:07.789Z</time></trkpt><trkpt lat="39.5031717" lon="8.4854917"><ele>138.0</ele><time>2026-05-01T09:07:09.788Z</time></trkpt><trkpt lat="39.50311" lon="8.485415"><ele>136.0</ele><time>2026-05-01T09:07:11.789Z</time></trkpt><trkpt lat="39.5030817" lon="8.4853267"><ele>134.0</ele><time>2026-05-01T09:07:13.788Z</time></trkpt><trkpt lat="39.5031133" lon="8.4852183"><ele>132.6</ele><time>2026-05-01T09:07:15.789Z</time></trkpt><trkpt lat="39.5031467" lon="8.4851033"><ele>131.2</ele><time>2026-05-01T09:07:17.788Z</time></trkpt><trkpt lat="39.5032067" lon="8.4849683"><ele>129.79999999999998</ele><time>2026-05-01T09:07:19.788Z</time></trkpt><trkpt lat="39.5032583" lon="8.4848983"><ele>128.4</ele><time>2026-05-01T09:07:20.788Z</time></trkpt><trkpt lat="39.5032983" lon="8.4848333"><ele>127.0</ele><time>2026-05-01T09:07:21.788Z</time></trkpt><trkpt lat="39.5033383" lon="8.48472"><ele>127.00000000000001</ele><time>2026-05-01T09:07:23.788Z</time></trkpt><trkpt lat="39.5033167" lon="8.48461"><ele>127.0</ele><time>2026-05-01T09:07:25.789Z</time></trkpt><trkpt lat="39.5032883" lon="8.4845333"><ele>127.0</ele><time>2026-05-01T09:07:26.789Z</time></trkpt><trkpt lat="39.5032633" lon="8.484435"><ele>127.0</ele><time>2026-05-01T09:07:27.788Z</time></trkpt><trkpt lat="39.5032317" lon="8.4843517"><ele>127.00000000000001</ele><time>2026-05-01T09:07:28.788Z</time></trkpt><trkpt lat="39.5031833" lon="8.4842933"><ele>127.0</ele><time>2026-05-01T09:07:29.788Z</time></trkpt><trkpt lat="39.5031067" lon="8.4842267"><ele>126.50000000000001</ele><time>2026-05-01T09:07:31.788Z</time></trkpt><trkpt lat="39.503025" lon="8.4842133"><ele>126.0</ele><time>2026-05-01T09:07:33.788Z</time></trkpt><trkpt lat="39.5029733" lon="8.4841267"><ele>125.5</ele><time>2026-05-01T09:08:44.788Z</time></trkpt><trkpt lat="39.5030083" lon="8.4839867"><ele>125.0</ele><time>2026-05-01T09:08:46.787Z</time></trkpt><trkpt lat="39.5030417" lon="8.48391"><ele>124.50000000000001</ele><time>2026-05-01T09:08:47.787Z</time></trkpt><trkpt lat="39.5030817" lon="8.483845"><ele>124.0</ele><time>2026-05-01T09:08:48.787Z</time></trkpt><trkpt lat="39.5031217" lon="8.4837733"><ele>122.83333333333334</ele><time>2026-05-01T09:08:49.787Z</time></trkpt><trkpt lat="39.5031467" lon="8.483685"><ele>121.66666666666667</ele><time>2026-05-01T09:08:50.788Z</time></trkpt><trkpt lat="39.5031683" lon="8.4835933"><ele>120.5</ele><time>2026-05-01T09:08:51.787Z</time></trkpt><trkpt lat="39.50319" lon="8.483515"><ele>119.33333333333334</ele><time>2026-05-01T09:08:52.787Z</time></trkpt><trkpt lat="39.5032117" lon="8.4833833"><ele>118.16666666666667</ele><time>2026-05-01T09:08:54.787Z</time></trkpt><trkpt lat="39.5032233" lon="8.48328"><ele>117.0</ele><time>2026-05-01T09:08:56.788Z</time></trkpt><trkpt lat="39.5032483" lon="8.483145"><ele>117.0</ele><time>2026-05-01T09:08:58.787Z</time></trkpt><trkpt lat="39.5032467" lon="8.4830417"><ele>117.0</ele><time>2026-05-01T09:09:00.788Z</time></trkpt><trkpt lat="39.5031833" lon="8.482995"><ele>117.0</ele><time>2026-05-01T09:09:03.787Z</time></trkpt><trkpt lat="39.5031033" lon="8.4830067"><ele>117.0</ele><time>2026-05-01T09:09:06.787Z</time></trkpt><trkpt lat="39.5030233" lon="8.48306"><ele>117.0</ele><time>2026-05-01T09:09:08.787Z</time></trkpt><trkpt lat="39.5029317" lon="8.4831417"><ele>117.0</ele><time>2026-05-01T09:09:10.787Z</time></trkpt><trkpt lat="39.5028583" lon="8.483225"><ele>117.0</ele><time>2026-05-01T09:09:12.788Z</time></trkpt><trkpt lat="39.50278" lon="8.48333"><ele>116.99999999999999</ele><time>2026-05-01T09:09:14.787Z</time></trkpt><trkpt lat="39.5026833" lon="8.4834167"><ele>116.99999999999999</ele><time>2026-05-01T09:09:16.788Z</time></trkpt><trkpt lat="39.5026183" lon="8.4834483"><ele>117.0</ele><time>2026-05-01T09:09:17.788Z</time></trkpt><trkpt lat="39.5025433" lon="8.483465"><ele>117.0</ele><time>2026-05-01T09:09:18.788Z</time></trkpt><trkpt lat="39.5024667" lon="8.483485"><ele>117.0</ele><time>2026-05-01T09:09:19.787Z</time></trkpt><trkpt lat="39.502375" lon="8.4835"><ele>116.99999999999999</ele><time>2026-05-01T09:09:20.787Z</time></trkpt><trkpt lat="39.5022833" lon="8.4835267"><ele>116.99999999999999</ele><time>2026-05-01T09:09:21.787Z</time></trkpt><trkpt lat="39.502185" lon="8.4835617"><ele>117.0</ele><time>2026-05-01T09:09:22.788Z</time></trkpt><trkpt lat="39.5020933" lon="8.4835917"><ele>117.0</ele><time>2026-05-01T09:09:23.787Z</time></trkpt><trkpt lat="39.5020033" lon="8.483605"><ele>116.5</ele><time>2026-05-01T09:09:24.788Z</time></trkpt><trkpt lat="39.5019167" lon="8.483615"><ele>116.0</ele><time>2026-05-01T09:09:25.788Z</time></trkpt><trkpt lat="39.501825" lon="8.4836183"><ele>115.5</ele><time>2026-05-01T09:09:26.787Z</time></trkpt><trkpt lat="39.5017533" lon="8.4835967"><ele>115.0</ele><time>2026-05-01T09:09:27.788Z</time></trkpt><trkpt lat="39.5016933" lon="8.4835667"><ele>114.5</ele><time>2026-05-01T09:09:28.787Z</time></trkpt><trkpt lat="39.501585" lon="8.48349"><ele>114.0</ele><time>2026-05-01T09:09:30.788Z</time></trkpt><trkpt lat="39.50151" lon="8.4834433"><ele>114.0</ele><time>2026-05-01T09:09:31.788Z</time></trkpt><trkpt lat="39.5014233" lon="8.4833817"><ele>114.0</ele><time>2026-05-01T09:09:32.787Z</time></trkpt><trkpt lat="39.50132" lon="8.4833117"><ele>114.0</ele><time>2026-05-01T09:09:33.788Z</time></trkpt><trkpt lat="39.5012233" lon="8.4832483"><ele>114.0</ele><time>2026-05-01T09:09:34.787Z</time></trkpt><trkpt lat="39.50113" lon="8.4831917"><ele>114.0</ele><time>2026-05-01T09:09:35.788Z</time></trkpt><trkpt lat="39.501035" lon="8.4831433"><ele>113.4</ele><time>2026-05-01T09:09:36.788Z</time></trkpt><trkpt lat="39.50094" lon="8.483085"><ele>112.80000000000001</ele><time>2026-05-01T09:09:37.787Z</time></trkpt><trkpt lat="39.5008483" lon="8.4830233"><ele>112.19999999999999</ele><time>2026-05-01T09:09:38.787Z</time></trkpt><trkpt lat="39.500765" lon="8.48296"><ele>111.6</ele><time>2026-05-01T09:09:39.787Z</time></trkpt><trkpt lat="39.500685" lon="8.4828933"><ele>111.0</ele><time>2026-05-01T09:09:40.788Z</time></trkpt><trkpt lat="39.500605" lon="8.4828383"><ele>111.0</ele><time>2026-05-01T09:09:41.787Z</time></trkpt><trkpt lat="39.5005267" lon="8.4827833"><ele>111.0</ele><time>2026-05-01T09:09:42.788Z</time></trkpt><trkpt lat="39.500445" lon="8.4827383"><ele>111.0</ele><time>2026-05-01T09:09:43.787Z</time></trkpt><trkpt lat="39.5003617" lon="8.4827083"><ele>111.0</ele><time>2026-05-01T09:09:44.787Z</time></trkpt><trkpt lat="39.500275" lon="8.4826933"><ele>111.0</ele><time>2026-05-01T09:09:45.787Z</time></trkpt><trkpt lat="39.5001933" lon="8.4826683"><ele>111.0</ele><time>2026-05-01T09:09:46.787Z</time></trkpt><trkpt lat="39.5001083" lon="8.4826517"><ele>112.14285714285714</ele><time>2026-05-01T09:09:47.788Z</time></trkpt><trkpt lat="39.5000367" lon="8.4826333"><ele>113.28571428571429</ele><time>2026-05-01T09:09:48.788Z</time></trkpt><trkpt lat="39.4999717" lon="8.4826133"><ele>114.42857142857143</ele><time>2026-05-01T09:09:49.787Z</time></trkpt><trkpt lat="39.4999033" lon="8.4825883"><ele>115.57142857142857</ele><time>2026-05-01T09:09:50.787Z</time></trkpt><trkpt lat="39.49983" lon="8.4825683"><ele>116.71428571428572</ele><time>2026-05-01T09:09:51.787Z</time></trkpt><trkpt lat="39.4997633" lon="8.4825267"><ele>117.85714285714286</ele><time>2026-05-01T09:09:52.788Z</time></trkpt><trkpt lat="39.4996833" lon="8.4824933"><ele>119.0</ele><time>2026-05-01T09:09:53.788Z</time></trkpt><trkpt lat="39.4996017" lon="8.4824583"><ele>121.80000000000001</ele><time>2026-05-01T09:09:54.788Z</time></trkpt><trkpt lat="39.4995133" lon="8.4824383"><ele>124.60000000000001</ele><time>2026-05-01T09:09:55.787Z</time></trkpt><trkpt lat="39.4994267" lon="8.4824083"><ele>127.4</ele><time>2026-05-01T09:09:56.788Z</time></trkpt><trkpt lat="39.499335" lon="8.48237"><ele>130.20000000000002</ele><time>2026-05-01T09:09:57.787Z</time></trkpt><trkpt lat="39.499245" lon="8.4823367"><ele>133.0</ele><time>2026-05-01T09:09:58.787Z</time></trkpt><trkpt lat="39.49915" lon="8.4822933"><ele>133.0</ele><time>2026-05-01T09:09:59.788Z</time></trkpt><trkpt lat="39.4990633" lon="8.4822467"><ele>133.0</ele><time>2026-05-01T09:10:00.787Z</time></trkpt><trkpt lat="39.4989833" lon="8.4822017"><ele>133.0</ele><time>2026-05-01T09:10:01.787Z</time></trkpt><trkpt lat="39.4988917" lon="8.4821433"><ele>133.0</ele><time>2026-05-01T09:10:02.788Z</time></trkpt><trkpt lat="39.498805" lon="8.4820733"><ele>133.0</ele><time>2026-05-01T09:10:03.788Z</time></trkpt><trkpt lat="39.4987317" lon="8.482015"><ele>131.33333333333334</ele><time>2026-05-01T09:10:04.787Z</time></trkpt><trkpt lat="39.49865" lon="8.481945"><ele>129.66666666666669</ele><time>2026-05-01T09:10:05.787Z</time></trkpt><trkpt lat="39.4985733" lon="8.4818833"><ele>128.0</ele><time>2026-05-01T09:10:06.787Z</time></trkpt><trkpt lat="39.498505" lon="8.4818217"><ele>126.33333333333334</ele><time>2026-05-01T09:10:07.788Z</time></trkpt><trkpt lat="39.49844" lon="8.481795"><ele>124.66666666666667</ele><time>2026-05-01T09:10:08.787Z</time></trkpt><trkpt lat="39.4983417" lon="8.481795"><ele>123.0</ele><time>2026-05-01T09:10:10.788Z</time></trkpt><trkpt lat="39.498275" lon="8.4818533"><ele>123.0</ele><time>2026-05-01T09:10:12.787Z</time></trkpt><trkpt lat="39.4982167" lon="8.4819667"><ele>123.00000000000001</ele><time>2026-05-01T09:10:14.787Z</time></trkpt><trkpt lat="39.4981417" lon="8.4821167"><ele>123.00000000000001</ele><time>2026-05-01T09:10:16.787Z</time></trkpt><trkpt lat="39.498085" lon="8.48221"><ele>123.0</ele><time>2026-05-01T09:10:17.787Z</time></trkpt><trkpt lat="39.4980233" lon="8.4822983"><ele>123.0</ele><time>2026-05-01T09:10:18.787Z</time></trkpt><trkpt lat="39.49797" lon="8.4823733"><ele>124.0</ele><time>2026-05-01T09:10:19.788Z</time></trkpt><trkpt lat="39.49792" lon="8.4824267"><ele>125.0</ele><time>2026-05-01T09:10:20.787Z</time></trkpt><trkpt lat="39.497835" lon="8.4825067"><ele>126.0</ele><time>2026-05-01T09:10:22.787Z</time></trkpt><trkpt lat="39.497795" lon="8.4825783"><ele>127.0</ele><time>2026-05-01T09:10:25.787Z</time></trkpt><trkpt lat="39.4978167" lon="8.4826617"><ele>128.0</ele><time>2026-05-01T09:11:20.787Z</time></trkpt><trkpt lat="39.4977733" lon="8.4827633"><ele>129.0</ele><time>2026-05-01T09:15:44.786Z</time></trkpt><trkpt lat="39.4977433" lon="8.4828717"><ele>130.16666666666666</ele><time>2026-05-01T09:15:47.786Z</time></trkpt><trkpt lat="39.4977217" lon="8.482975"><ele>131.33333333333334</ele><time>2026-05-01T09:15:49.786Z</time></trkpt><trkpt lat="39.4977267" lon="8.48309"><ele>132.5</ele><time>2026-05-01T09:15:51.785Z</time></trkpt><trkpt lat="39.4977383" lon="8.48319"><ele>133.66666666666669</ele><time>2026-05-01T09:15:53.786Z</time></trkpt><trkpt lat="39.4977583" lon="8.4832883"><ele>134.83333333333334</ele><time>2026-05-01T09:15:55.785Z</time></trkpt><trkpt lat="39.4977867" lon="8.4833933"><ele>136.0</ele><time>2026-05-01T09:15:57.785Z</time></trkpt><trkpt lat="39.4978517" lon="8.4835383"><ele>136.0</ele><time>2026-05-01T09:15:59.785Z</time></trkpt><trkpt lat="39.4978917" lon="8.48362"><ele>136.0</ele><time>2026-05-01T09:16:00.785Z</time></trkpt><trkpt lat="39.4979267" lon="8.4837017"><ele>136.0</ele><time>2026-05-01T09:16:01.785Z</time></trkpt><trkpt lat="39.4979633" lon="8.4837833"><ele>136.0</ele><time>2026-05-01T09:16:02.786Z</time></trkpt><trkpt lat="39.498015" lon="8.4838583"><ele>136.0</ele><time>2026-05-01T09:16:03.785Z</time></trkpt><trkpt lat="39.4980633" lon="8.4839417"><ele>136.0</ele><time>2026-05-01T09:16:04.785Z</time></trkpt><trkpt lat="39.4981033" lon="8.48402"><ele>136.5</ele><time>2026-05-01T09:16:05.785Z</time></trkpt><trkpt lat="39.4981467" lon="8.4840983"><ele>137.0</ele><time>2026-05-01T09:16:06.785Z</time></trkpt><trkpt lat="39.4981967" lon="8.484165"><ele>137.5</ele><time>2026-05-01T09:16:07.785Z</time></trkpt><trkpt lat="39.498245" lon="8.48431"><ele>138.0</ele><time>2026-05-01T09:16:09.786Z</time></trkpt><trkpt lat="39.4982483" lon="8.484405"><ele>138.5</ele><time>2026-05-01T09:16:10.785Z</time></trkpt><trkpt lat="39.498245" lon="8.4845067"><ele>139.0</ele><time>2026-05-01T09:16:11.785Z</time></trkpt><trkpt lat="39.498255" lon="8.4846233"><ele>139.8</ele><time>2026-05-01T09:16:12.785Z</time></trkpt><trkpt lat="39.49826" lon="8.4847433"><ele>140.60000000000002</ele><time>2026-05-01T09:16:13.785Z</time></trkpt><trkpt lat="39.498255" lon="8.4848717"><ele>141.4</ele><time>2026-05-01T09:16:14.785Z</time></trkpt><trkpt lat="39.4982533" lon="8.48499"><ele>142.20000000000002</ele><time>2026-05-01T09:16:15.786Z</time></trkpt><trkpt lat="39.4982517" lon="8.48511"><ele>143.0</ele><time>2026-05-01T09:16:16.785Z</time></trkpt><trkpt lat="39.49826" lon="8.485205"><ele>143.0</ele><time>2026-05-01T09:16:17.786Z</time></trkpt><trkpt lat="39.4982633" lon="8.4852867"><ele>143.0</ele><time>2026-05-01T09:16:18.786Z</time></trkpt><trkpt lat="39.4982967" lon="8.4854183"><ele>143.0</ele><time>2026-05-01T09:16:20.785Z</time></trkpt><trkpt lat="39.4983233" lon="8.4855067"><ele>143.0</ele><time>2026-05-01T09:16:21.785Z</time></trkpt><trkpt lat="39.4983517" lon="8.4856"><ele>143.0</ele><time>2026-05-01T09:16:22.786Z</time></trkpt><trkpt lat="39.4983767" lon="8.485675"><ele>143.0</ele><time>2026-05-01T09:16:23.786Z</time></trkpt><trkpt lat="39.4984217" lon="8.48575"><ele>142.99999999999997</ele><time>2026-05-01T09:16:24.786Z</time></trkpt><trkpt lat="39.498465" lon="8.48582"><ele>143.0</ele><time>2026-05-01T09:16:25.785Z</time></trkpt><trkpt lat="39.4985183" lon="8.4858767"><ele>143.0</ele><time>2026-05-01T09:16:26.786Z</time></trkpt><trkpt lat="39.498575" lon="8.4859433"><ele>143.0</ele><time>2026-05-01T09:16:27.785Z</time></trkpt><trkpt lat="39.49863" lon="8.4860183"><ele>143.0</ele><time>2026-05-01T09:16:28.785Z</time></trkpt><trkpt lat="39.4986733" lon="8.48609"><ele>142.99999999999997</ele><time>2026-05-01T09:16:29.785Z</time></trkpt><trkpt lat="39.4987" lon="8.486175"><ele>143.0</ele><time>2026-05-01T09:16:30.785Z</time></trkpt><trkpt lat="39.4987017" lon="8.4862767"><ele>144.66666666666666</ele><time>2026-05-01T09:16:31.785Z</time></trkpt><trkpt lat="39.4986983" lon="8.4863767"><ele>146.33333333333331</ele><time>2026-05-01T09:16:32.785Z</time></trkpt><trkpt lat="39.4987017" lon="8.4864833"><ele>148.0</ele><time>2026-05-01T09:16:33.785Z</time></trkpt><trkpt lat="39.4987083" lon="8.4865883"><ele>149.66666666666666</ele><time>2026-05-01T09:16:34.785Z</time></trkpt><trkpt lat="39.4987283" lon="8.4867067"><ele>151.33333333333334</ele><time>2026-05-01T09:16:35.786Z</time></trkpt><trkpt lat="39.4987417" lon="8.4868267"><ele>153.0</ele><time>2026-05-01T09:16:36.785Z</time></trkpt><trkpt lat="39.498755" lon="8.4869433"><ele>153.0</ele><time>2026-05-01T09:16:37.785Z</time></trkpt><trkpt lat="39.49877" lon="8.4870533"><ele>153.0</ele><time>2026-05-01T09:16:38.785Z</time></trkpt><trkpt lat="39.498775" lon="8.4871617"><ele>153.0</ele><time>2026-05-01T09:16:39.786Z</time></trkpt><trkpt lat="39.4987683" lon="8.4872683"><ele>153.0</ele><time>2026-05-01T09:16:40.786Z</time></trkpt><trkpt lat="39.4987533" lon="8.4873733"><ele>153.0</ele><time>2026-05-01T09:16:41.785Z</time></trkpt><trkpt lat="39.4987383" lon="8.4874733"><ele>153.0</ele><time>2026-05-01T09:16:42.786Z</time></trkpt><trkpt lat="39.4987217" lon="8.48757"><ele>154.66666666666666</ele><time>2026-05-01T09:16:43.785Z</time></trkpt><trkpt lat="39.4987033" lon="8.4876617"><ele>156.33333333333334</ele><time>2026-05-01T09:16:44.786Z</time></trkpt><trkpt lat="39.4986783" lon="8.4877433"><ele>158.0</ele><time>2026-05-01T09:16:45.786Z</time></trkpt><trkpt lat="39.49864" lon="8.4878217"><ele>159.66666666666669</ele><time>2026-05-01T09:16:46.786Z</time></trkpt><trkpt lat="39.4985867" lon="8.487895"><ele>161.33333333333334</ele><time>2026-05-01T09:16:47.786Z</time></trkpt><trkpt lat="39.4985267" lon="8.4879783"><ele>163.0</ele><time>2026-05-01T09:16:48.786Z</time></trkpt><trkpt lat="39.4984717" lon="8.4880717"><ele>163.0</ele><time>2026-05-01T09:16:49.785Z</time></trkpt><trkpt lat="39.498415" lon="8.488165"><ele>163.0</ele><time>2026-05-01T09:16:50.786Z</time></trkpt><trkpt lat="39.49836" lon="8.4882617"><ele>163.0</ele><time>2026-05-01T09:16:51.785Z</time></trkpt><trkpt lat="39.49831" lon="8.4883617"><ele>163.0</ele><time>2026-05-01T09:16:52.785Z</time></trkpt><trkpt lat="39.4982633" lon="8.4884667"><ele>163.0</ele><time>2026-05-01T09:16:53.786Z</time></trkpt><trkpt lat="39.49822" lon="8.48857"><ele>163.0</ele><time>2026-05-01T09:16:54.785Z</time></trkpt><trkpt lat="39.4981783" lon="8.4886717"><ele>163.0</ele><time>2026-05-01T09:16:55.785Z</time></trkpt><trkpt lat="39.4981383" lon="8.48877"><ele>163.0</ele><time>2026-05-01T09:16:56.785Z</time></trkpt><trkpt lat="39.4980983" lon="8.4888717"><ele>163.0</ele><time>2026-05-01T09:16:57.785Z</time></trkpt><trkpt lat="39.4980533" lon="8.4889733"><ele>163.0</ele><time>2026-05-01T09:16:58.785Z</time></trkpt><trkpt lat="39.4980067" lon="8.4890733"><ele>163.0</ele><time>2026-05-01T09:16:59.786Z</time></trkpt><trkpt lat="39.497965" lon="8.489175"><ele>162.66666666666669</ele><time>2026-05-01T09:17:00.785Z</time></trkpt><trkpt lat="39.4979233" lon="8.48927"><ele>162.33333333333334</ele><time>2026-05-01T09:17:01.785Z</time></trkpt><trkpt lat="39.497885" lon="8.4893583"><ele>162.0</ele><time>2026-05-01T09:17:02.785Z</time></trkpt><trkpt lat="39.4978483" lon="8.4894417"><ele>161.66666666666666</ele><time>2026-05-01T09:17:03.785Z</time></trkpt><trkpt lat="39.4978067" lon="8.48952"><ele>161.33333333333331</ele><time>2026-05-01T09:17:04.786Z</time></trkpt><trkpt lat="39.4977683" lon="8.4896017"><ele>161.0</ele><time>2026-05-01T09:17:05.785Z</time></trkpt><trkpt lat="39.4977317" lon="8.48968"><ele>164.20000000000002</ele><time>2026-05-01T09:17:06.785Z</time></trkpt><trkpt lat="39.497655" lon="8.4897917"><ele>167.4</ele><time>2026-05-01T09:17:08.785Z</time></trkpt><trkpt lat="39.49761" lon="8.489895"><ele>170.6</ele><time>2026-05-01T09:17:10.786Z</time></trkpt><trkpt lat="39.497635" lon="8.4900233"><ele>173.8</ele><time>2026-05-01T09:17:12.785Z</time></trkpt><trkpt lat="39.4976" lon="8.490185"><ele>177.0</ele><time>2026-05-01T09:17:14.785Z</time></trkpt><trkpt lat="39.497565" lon="8.4902733"><ele>177.0</ele><time>2026-05-01T09:17:15.786Z</time></trkpt><trkpt lat="39.49752" lon="8.490355"><ele>177.0</ele><time>2026-05-01T09:17:16.786Z</time></trkpt><trkpt lat="39.4974567" lon="8.4904267"><ele>177.0</ele><time>2026-05-01T09:17:17.785Z</time></trkpt><trkpt lat="39.49738" lon="8.490475"><ele>177.0</ele><time>2026-05-01T09:17:18.785Z</time></trkpt><trkpt lat="39.4973067" lon="8.4905117"><ele>177.0</ele><time>2026-05-01T09:17:19.785Z</time></trkpt><trkpt lat="39.4972367" lon="8.4905383"><ele>177.0</ele><time>2026-05-01T09:17:20.786Z</time></trkpt><trkpt lat="39.49713" lon="8.4906033"><ele>175.66666666666666</ele><time>2026-05-01T09:17:22.785Z</time></trkpt><trkpt lat="39.49709" lon="8.490755"><ele>174.33333333333334</ele><time>2026-05-01T09:17:24.786Z</time></trkpt><trkpt lat="39.49707" lon="8.4908367"><ele>173.0</ele><time>2026-05-01T09:17:25.786Z</time></trkpt><trkpt lat="39.49703" lon="8.490915"><ele>171.66666666666669</ele><time>2026-05-01T09:17:26.785Z</time></trkpt><trkpt lat="39.4969817" lon="8.4909833"><ele>170.33333333333334</ele><time>2026-05-01T09:17:27.786Z</time></trkpt><trkpt lat="39.496925" lon="8.4910533"><ele>169.0</ele><time>2026-05-01T09:17:28.785Z</time></trkpt><trkpt lat="39.4968633" lon="8.49112"><ele>171.5</ele><time>2026-05-01T09:17:29.785Z</time></trkpt><trkpt lat="39.49679" lon="8.4911783"><ele>174.0</ele><time>2026-05-01T09:17:30.785Z</time></trkpt><trkpt lat="39.496715" lon="8.4912383"><ele>176.5</ele><time>2026-05-01T09:17:31.786Z</time></trkpt><trkpt lat="39.4966483" lon="8.4913033"><ele>179.0</ele><time>2026-05-01T09:17:32.784Z</time></trkpt><trkpt lat="39.4965983" lon="8.491385"><ele>181.5</ele><time>2026-05-01T09:17:33.784Z</time></trkpt><trkpt lat="39.4965517" lon="8.4914683"><ele>184.0</ele><time>2026-05-01T09:17:34.784Z</time></trkpt><trkpt lat="39.4965" lon="8.4915283"><ele>184.0</ele><time>2026-05-01T09:17:35.785Z</time></trkpt><trkpt lat="39.4963833" lon="8.49159"><ele>184.0</ele><time>2026-05-01T09:17:37.784Z</time></trkpt><trkpt lat="39.496305" lon="8.491705"><ele>184.0</ele><time>2026-05-01T09:17:39.784Z</time></trkpt><trkpt lat="39.4962633" lon="8.4918517"><ele>184.0</ele><time>2026-05-01T09:17:41.785Z</time></trkpt><trkpt lat="39.4962117" lon="8.4919683"><ele>187.39999999999998</ele><time>2026-05-01T09:17:43.785Z</time></trkpt><trkpt lat="39.4961" lon="8.4920033"><ele>190.8</ele><time>2026-05-01T09:17:45.784Z</time></trkpt><trkpt lat="39.4960317" lon="8.492005"><ele>194.2</ele><time>2026-05-01T09:17:46.785Z</time></trkpt><trkpt lat="39.4959583" lon="8.4920567"><ele>197.60000000000002</ele><time>2026-05-01T09:17:48.785Z</time></trkpt><trkpt lat="39.4959883" lon="8.4922133"><ele>201.0</ele><time>2026-05-01T09:17:50.785Z</time></trkpt><trkpt lat="39.4960033" lon="8.4923"><ele>201.0</ele><time>2026-05-01T09:17:51.785Z</time></trkpt><trkpt lat="39.4959567" lon="8.4924433"><ele>201.0</ele><time>2026-05-01T09:17:53.784Z</time></trkpt><trkpt lat="39.49591" lon="8.492505"><ele>201.0</ele><time>2026-05-01T09:17:54.784Z</time></trkpt><trkpt lat="39.495855" lon="8.4925617"><ele>201.0</ele><time>2026-05-01T09:17:55.784Z</time></trkpt><trkpt lat="39.4958033" lon="8.4926117"><ele>201.0</ele><time>2026-05-01T09:17:56.784Z</time></trkpt><trkpt lat="39.4957033" lon="8.4926783"><ele>201.0</ele><time>2026-05-01T09:17:58.784Z</time></trkpt><trkpt lat="39.4956017" lon="8.49271"><ele>201.0</ele><time>2026-05-01T09:18:00.784Z</time></trkpt><trkpt lat="39.4955317" lon="8.4927467"><ele>201.0</ele><time>2026-05-01T09:18:12.785Z</time></trkpt><trkpt lat="39.49549" lon="8.492815"><ele>201.0</ele><time>2026-05-01T09:18:14.785Z</time></trkpt><trkpt lat="39.4954967" lon="8.4929267"><ele>201.0</ele><time>2026-05-01T09:18:16.784Z</time></trkpt><trkpt lat="39.4955567" lon="8.4930567"><ele>201.0</ele><time>2026-05-01T09:18:18.784Z</time></trkpt><trkpt lat="39.495605" lon="8.4931783"><ele>200.83333333333334</ele><time>2026-05-01T09:18:20.784Z</time></trkpt><trkpt lat="39.49557" lon="8.4932717"><ele>200.66666666666669</ele><time>2026-05-01T09:18:22.784Z</time></trkpt><trkpt lat="39.4955067" lon="8.4933783"><ele>200.5</ele><time>2026-05-01T09:18:24.784Z</time></trkpt><trkpt lat="39.495485" lon="8.4934583"><ele>200.33333333333334</ele><time>2026-05-01T09:18:25.784Z</time></trkpt><trkpt lat="39.4954683" lon="8.4935433"><ele>200.16666666666669</ele><time>2026-05-01T09:18:26.785Z</time></trkpt><trkpt lat="39.4954483" lon="8.4936283"><ele>200.0</ele><time>2026-05-01T09:18:27.784Z</time></trkpt><trkpt lat="39.4954233" lon="8.4937083"><ele>204.8</ele><time>2026-05-01T09:18:28.784Z</time></trkpt><trkpt lat="39.4953717" lon="8.49385"><ele>209.6</ele><time>2026-05-01T09:18:30.784Z</time></trkpt><trkpt lat="39.4953017" lon="8.4939717"><ele>214.39999999999998</ele><time>2026-05-01T09:18:32.784Z</time></trkpt><trkpt lat="39.495255" lon="8.494035"><ele>219.2</ele><time>2026-05-01T09:18:33.784Z</time></trkpt><trkpt lat="39.4951633" lon="8.4941217"><ele>224.0</ele><time>2026-05-01T09:18:35.784Z</time></trkpt><trkpt lat="39.4950733" lon="8.494145"><ele>224.0</ele><time>2026-05-01T09:18:37.785Z</time></trkpt><trkpt lat="39.4950083" lon="8.49421"><ele>223.99999999999997</ele><time>2026-05-01T09:18:39.784Z</time></trkpt><trkpt lat="39.494995" lon="8.4943567"><ele>223.99999999999997</ele><time>2026-05-01T09:18:41.784Z</time></trkpt><trkpt lat="39.4949917" lon="8.4945083"><ele>224.0</ele><time>2026-05-01T09:18:43.785Z</time></trkpt><trkpt lat="39.4949817" lon="8.4945933"><ele>224.0</ele><time>2026-05-01T09:18:44.784Z</time></trkpt><trkpt lat="39.4949633" lon="8.4946883"><ele>224.33333333333334</ele><time>2026-05-01T09:18:45.784Z</time></trkpt><trkpt lat="39.4949433" lon="8.4947817"><ele>224.66666666666669</ele><time>2026-05-01T09:18:46.784Z</time></trkpt><trkpt lat="39.4949317" lon="8.4948717"><ele>225.0</ele><time>2026-05-01T09:18:47.784Z</time></trkpt><trkpt lat="39.49493" lon="8.4949833"><ele>225.33333333333331</ele><time>2026-05-01T09:18:48.784Z</time></trkpt><trkpt lat="39.4949367" lon="8.4950967"><ele>225.66666666666666</ele><time>2026-05-01T09:18:49.785Z</time></trkpt><trkpt lat="39.4949517" lon="8.4952117"><ele>226.0</ele><time>2026-05-01T09:18:50.784Z</time></trkpt><trkpt lat="39.4949517" lon="8.4953267"><ele>227.83333333333331</ele><time>2026-05-01T09:18:51.784Z</time></trkpt><trkpt lat="39.494975" lon="8.4954483"><ele>229.66666666666666</ele><time>2026-05-01T09:18:52.785Z</time></trkpt><trkpt lat="39.4950067" lon="8.4955633"><ele>231.5</ele><time>2026-05-01T09:18:53.784Z</time></trkpt><trkpt lat="39.4950383" lon="8.4956617"><ele>233.33333333333331</ele><time>2026-05-01T09:18:54.784Z</time></trkpt><trkpt lat="39.49507" lon="8.4957433"><ele>235.16666666666666</ele><time>2026-05-01T09:18:55.784Z</time></trkpt><trkpt lat="39.495095" lon="8.4958283"><ele>237.0</ele><time>2026-05-01T09:18:56.784Z</time></trkpt><trkpt lat="39.4951217" lon="8.4959133"><ele>236.99999999999997</ele><time>2026-05-01T09:18:57.784Z</time></trkpt><trkpt lat="39.4951617" lon="8.495985"><ele>237.0</ele><time>2026-05-01T09:18:58.784Z</time></trkpt><trkpt lat="39.4951967" lon="8.496065"><ele>236.99999999999997</ele><time>2026-05-01T09:18:59.784Z</time></trkpt><trkpt lat="39.4952283" lon="8.4961467"><ele>236.99999999999997</ele><time>2026-05-01T09:19:00.784Z</time></trkpt><trkpt lat="39.4952383" lon="8.4962333"><ele>237.0</ele><time>2026-05-01T09:19:01.784Z</time></trkpt><trkpt lat="39.4952267" lon="8.4963183"><ele>236.99999999999997</ele><time>2026-05-01T09:19:02.785Z</time></trkpt><trkpt lat="39.49523" lon="8.4964217"><ele>236.99999999999997</ele><time>2026-05-01T09:19:03.785Z</time></trkpt><trkpt lat="39.4952283" lon="8.49651"><ele>238.83333333333334</ele><time>2026-05-01T09:19:04.785Z</time></trkpt><trkpt lat="39.4952167" lon="8.4966317"><ele>240.66666666666669</ele><time>2026-05-01T09:19:06.784Z</time></trkpt><trkpt lat="39.4951683" lon="8.49669"><ele>242.5</ele><time>2026-05-01T09:19:08.784Z</time></trkpt><trkpt lat="39.4950967" lon="8.4966683"><ele>244.33333333333334</ele><time>2026-05-01T09:19:10.784Z</time></trkpt><trkpt lat="39.49505" lon="8.496545"><ele>246.16666666666669</ele><time>2026-05-01T09:19:12.784Z</time></trkpt><trkpt lat="39.4950383" lon="8.49645"><ele>248.0</ele><time>2026-05-01T09:19:13.784Z</time></trkpt><trkpt lat="39.49503" lon="8.4963483"><ele>248.00000000000003</ele><time>2026-05-01T09:19:14.785Z</time></trkpt><trkpt lat="39.4950067" lon="8.496245"><ele>248.0</ele><time>2026-05-01T09:19:15.784Z</time></trkpt><trkpt lat="39.4949683" lon="8.4961467"><ele>248.0</ele><time>2026-05-01T09:19:16.784Z</time></trkpt><trkpt lat="39.4949217" lon="8.496085"><ele>248.0</ele><time>2026-05-01T09:19:17.785Z</time></trkpt><trkpt lat="39.4948567" lon="8.49606"><ele>248.00000000000003</ele><time>2026-05-01T09:19:19.784Z</time></trkpt><trkpt lat="39.49485" lon="8.496175"><ele>248.0</ele><time>2026-05-01T09:19:21.785Z</time></trkpt><trkpt lat="39.4948767" lon="8.4962617"><ele>248.00000000000003</ele><time>2026-05-01T09:19:22.784Z</time></trkpt><trkpt lat="39.4949" lon="8.4963533"><ele>248.0</ele><time>2026-05-01T09:19:23.784Z</time></trkpt><trkpt lat="39.49491" lon="8.4964367"><ele>248.0</ele><time>2026-05-01T09:19:24.784Z</time></trkpt><trkpt lat="39.4949133" lon="8.49661"><ele>248.0</ele><time>2026-05-01T09:19:26.784Z</time></trkpt><trkpt lat="39.49491" lon="8.4967183"><ele>248.00000000000003</ele><time>2026-05-01T09:19:27.784Z</time></trkpt><trkpt lat="39.4949133" lon="8.49683"><ele>248.0</ele><time>2026-05-01T09:19:28.784Z</time></trkpt><trkpt lat="39.4949217" lon="8.496925"><ele>248.0</ele><time>2026-05-01T09:19:29.784Z</time></trkpt><trkpt lat="39.4949333" lon="8.4970117"><ele>248.00000000000003</ele><time>2026-05-01T09:19:30.784Z</time></trkpt><trkpt lat="39.4949517" lon="8.4971017"><ele>248.0</ele><time>2026-05-01T09:19:31.784Z</time></trkpt><trkpt lat="39.49496" lon="8.4971967"><ele>248.0</ele><time>2026-05-01T09:19:32.784Z</time></trkpt><trkpt lat="39.4949617" lon="8.4972967"><ele>248.00000000000003</ele><time>2026-05-01T09:19:33.785Z</time></trkpt><trkpt lat="39.49495" lon="8.4973867"><ele>248.0</ele><time>2026-05-01T09:19:34.785Z</time></trkpt><trkpt lat="39.4949217" lon="8.4974683"><ele>248.0</ele><time>2026-05-01T09:19:35.785Z</time></trkpt><trkpt lat="39.49488" lon="8.4975367"><ele>249.42857142857144</ele><time>2026-05-01T09:19:36.785Z</time></trkpt><trkpt lat="39.4948317" lon="8.4975967"><ele>250.8571428571429</ele><time>2026-05-01T09:19:37.785Z</time></trkpt><trkpt lat="39.49478" lon="8.497665"><ele>252.28571428571428</ele><time>2026-05-01T09:19:38.784Z</time></trkpt><trkpt lat="39.4947333" lon="8.4977383"><ele>253.71428571428572</ele><time>2026-05-01T09:19:39.784Z</time></trkpt><trkpt lat="39.49469" lon="8.4978133"><ele>255.14285714285714</ele><time>2026-05-01T09:19:40.784Z</time></trkpt><trkpt lat="39.4946467" lon="8.4978983"><ele>256.57142857142856</ele><time>2026-05-01T09:19:41.784Z</time></trkpt><trkpt lat="39.4946033" lon="8.4979767"><ele>258.0</ele><time>2026-05-01T09:19:42.785Z</time></trkpt><trkpt lat="39.4945567" lon="8.4980367"><ele>261.6</ele><time>2026-05-01T09:19:43.784Z</time></trkpt><trkpt lat="39.4945017" lon="8.4981583"><ele>265.20000000000005</ele><time>2026-05-01T09:19:45.784Z</time></trkpt><trkpt lat="39.494515" lon="8.49828"><ele>268.8</ele><time>2026-05-01T09:19:47.784Z</time></trkpt><trkpt lat="39.4946117" lon="8.4983267"><ele>272.40000000000003</ele><time>2026-05-01T09:19:49.785Z</time></trkpt><trkpt lat="39.4946883" lon="8.4983017"><ele>276.0</ele><time>2026-05-01T09:19:50.784Z</time></trkpt><trkpt lat="39.4947733" lon="8.4982683"><ele>276.0</ele><time>2026-05-01T09:19:51.784Z</time></trkpt><trkpt lat="39.4948683" lon="8.498245"><ele>276.0</ele><time>2026-05-01T09:19:52.784Z</time></trkpt><trkpt lat="39.4949633" lon="8.498225"><ele>276.0</ele><time>2026-05-01T09:19:53.784Z</time></trkpt><trkpt lat="39.49504" lon="8.4982033"><ele>276.0</ele><time>2026-05-01T09:19:54.784Z</time></trkpt><trkpt lat="39.4951017" lon="8.4981817"><ele>276.0</ele><time>2026-05-01T09:19:55.784Z</time></trkpt><trkpt lat="39.495155" lon="8.498125"><ele>276.0</ele><time>2026-05-01T09:19:56.784Z</time></trkpt><trkpt lat="39.4952083" lon="8.4980417"><ele>276.0</ele><time>2026-05-01T09:19:57.784Z</time></trkpt><trkpt lat="39.49527" lon="8.4979633"><ele>276.0</ele><time>2026-05-01T09:19:58.785Z</time></trkpt><trkpt lat="39.4953417" lon="8.49789"><ele>276.0</ele><time>2026-05-01T09:19:59.785Z</time></trkpt><trkpt lat="39.49541" lon="8.4978283"><ele>276.0</ele><time>2026-05-01T09:20:00.784Z</time></trkpt><trkpt lat="39.4954783" lon="8.497765"><ele>276.0</ele><time>2026-05-01T09:20:01.784Z</time></trkpt><trkpt lat="39.49553" lon="8.497695"><ele>276.0</ele><time>2026-05-01T09:20:02.784Z</time></trkpt><trkpt lat="39.4955683" lon="8.4976233"><ele>277.2</ele><time>2026-05-01T09:20:03.784Z</time></trkpt><trkpt lat="39.495625" lon="8.4975183"><ele>278.40000000000003</ele><time>2026-05-01T09:20:05.784Z</time></trkpt><trkpt lat="39.4957083" lon="8.497415"><ele>279.6</ele><time>2026-05-01T09:20:07.785Z</time></trkpt><trkpt lat="39.495765" lon="8.4972867"><ele>280.8</ele><time>2026-05-01T09:20:09.784Z</time></trkpt><trkpt lat="39.495825" lon="8.4972617"><ele>282.0</ele><time>2026-05-01T09:20:11.784Z</time></trkpt><trkpt lat="39.4958533" lon="8.497355"><ele>282.0</ele><time>2026-05-01T09:20:13.784Z</time></trkpt><trkpt lat="39.49578" lon="8.4974733"><ele>282.0</ele><time>2026-05-01T09:20:15.784Z</time></trkpt><trkpt lat="39.49572" lon="8.49754"><ele>282.0</ele><time>2026-05-01T09:20:16.784Z</time></trkpt><trkpt lat="39.49567" lon="8.497635"><ele>282.0</ele><time>2026-05-01T09:20:17.784Z</time></trkpt><trkpt lat="39.49563" lon="8.49774"><ele>282.0</ele><time>2026-05-01T09:20:18.785Z</time></trkpt><trkpt lat="39.4955967" lon="8.4978367"><ele>281.0</ele><time>2026-05-01T09:20:19.785Z</time></trkpt><trkpt lat="39.4955617" lon="8.49793"><ele>280.0</ele><time>2026-05-01T09:20:20.784Z</time></trkpt><trkpt lat="39.49551" lon="8.498015"><ele>279.0</ele><time>2026-05-01T09:20:21.784Z</time></trkpt><trkpt lat="39.4954533" lon="8.4981133"><ele>278.0</ele><time>2026-05-01T09:20:22.784Z</time></trkpt><trkpt lat="39.4954017" lon="8.49821"><ele>277.0</ele><time>2026-05-01T09:20:23.784Z</time></trkpt><trkpt lat="39.49535" lon="8.4983183"><ele>276.0</ele><time>2026-05-01T09:20:24.784Z</time></trkpt><trkpt lat="39.4953033" lon="8.498425"><ele>276.0</ele><time>2026-05-01T09:20:25.785Z</time></trkpt><trkpt lat="39.495275" lon="8.4985217"><ele>276.0</ele><time>2026-05-01T09:20:26.785Z</time></trkpt><trkpt lat="39.49525" lon="8.4986117"><ele>276.0</ele><time>2026-05-01T09:20:27.784Z</time></trkpt><trkpt lat="39.4952217" lon="8.498685"><ele>276.0</ele><time>2026-05-01T09:20:28.784Z</time></trkpt><trkpt lat="39.495105" lon="8.49876"><ele>276.0</ele><time>2026-05-01T09:20:30.784Z</time></trkpt><trkpt lat="39.4950083" lon="8.4987667"><ele>276.0</ele><time>2026-05-01T09:20:31.785Z</time></trkpt><trkpt lat="39.49492" lon="8.4987683"><ele>279.1666666666667</ele><time>2026-05-01T09:20:32.784Z</time></trkpt><trkpt lat="39.494835" lon="8.4987967"><ele>282.3333333333333</ele><time>2026-05-01T09:20:33.784Z</time></trkpt><trkpt lat="39.4947683" lon="8.498855"><ele>285.5</ele><time>2026-05-01T09:20:34.784Z</time></trkpt><trkpt lat="39.494715" lon="8.4989167"><ele>288.66666666666663</ele><time>2026-05-01T09:20:35.783Z</time></trkpt><trkpt lat="39.4946617" lon="8.4989867"><ele>291.8333333333333</ele><time>2026-05-01T09:20:36.784Z</time></trkpt><trkpt lat="39.4945917" lon="8.49906"><ele>295.0</ele><time>2026-05-01T09:20:37.783Z</time></trkpt><trkpt lat="39.4945067" lon="8.4991233"><ele>295.0</ele><time>2026-05-01T09:20:38.784Z</time></trkpt><trkpt lat="39.494425" lon="8.4991767"><ele>295.0</ele><time>2026-05-01T09:20:39.783Z</time></trkpt><trkpt lat="39.4943433" lon="8.49922"><ele>295.0</ele><time>2026-05-01T09:20:40.783Z</time></trkpt><trkpt lat="39.494265" lon="8.499265"><ele>295.0</ele><time>2026-05-01T09:20:41.784Z</time></trkpt><trkpt lat="39.49418" lon="8.4992917"><ele>295.0</ele><time>2026-05-01T09:20:42.784Z</time></trkpt><trkpt lat="39.4940933" lon="8.4993033"><ele>295.0</ele><time>2026-05-01T09:20:43.783Z</time></trkpt><trkpt lat="39.49401" lon="8.499295"><ele>295.0</ele><time>2026-05-01T09:20:44.783Z</time></trkpt><trkpt lat="39.4939383" lon="8.4992617"><ele>295.0</ele><time>2026-05-01T09:20:45.784Z</time></trkpt><trkpt lat="39.4938717" lon="8.4992017"><ele>295.0</ele><time>2026-05-01T09:20:46.783Z</time></trkpt><trkpt lat="39.4938233" lon="8.49912"><ele>295.0</ele><time>2026-05-01T09:20:47.783Z</time></trkpt><trkpt lat="39.4937967" lon="8.4990217"><ele>295.0</ele><time>2026-05-01T09:20:48.783Z</time></trkpt><trkpt lat="39.4938117" lon="8.498895"><ele>295.0</ele><time>2026-05-01T09:20:49.783Z</time></trkpt><trkpt lat="39.493845" lon="8.4987533"><ele>293.16666666666663</ele><time>2026-05-01T09:20:50.784Z</time></trkpt><trkpt lat="39.4938833" lon="8.498635"><ele>291.3333333333333</ele><time>2026-05-01T09:20:51.783Z</time></trkpt><trkpt lat="39.49391" lon="8.4985383"><ele>289.5</ele><time>2026-05-01T09:20:52.783Z</time></trkpt><trkpt lat="39.493905" lon="8.49844"><ele>287.6666666666667</ele><time>2026-05-01T09:20:53.784Z</time></trkpt><trkpt lat="39.4939" lon="8.4983333"><ele>285.83333333333337</ele><time>2026-05-01T09:20:54.783Z</time></trkpt><trkpt lat="39.4938983" lon="8.4982217"><ele>284.0</ele><time>2026-05-01T09:20:55.784Z</time></trkpt><trkpt lat="39.4939117" lon="8.4981017"><ele>284.0</ele><time>2026-05-01T09:20:56.783Z</time></trkpt><trkpt lat="39.4939233" lon="8.497975"><ele>284.0</ele><time>2026-05-01T09:20:57.783Z</time></trkpt><trkpt lat="39.4939383" lon="8.4978633"><ele>284.0</ele><time>2026-05-01T09:20:58.783Z</time></trkpt><trkpt lat="39.4939433" lon="8.4977667"><ele>284.0</ele><time>2026-05-01T09:20:59.783Z</time></trkpt><trkpt lat="39.4939517" lon="8.4976717"><ele>284.0</ele><time>2026-05-01T09:21:00.783Z</time></trkpt><trkpt lat="39.4939633" lon="8.4975817"><ele>284.0</ele><time>2026-05-01T09:21:01.783Z</time></trkpt><trkpt lat="39.4939867" lon="8.497505"><ele>284.57142857142856</ele><time>2026-05-01T09:21:02.783Z</time></trkpt><trkpt lat="39.4940183" lon="8.4974233"><ele>285.1428571428571</ele><time>2026-05-01T09:21:03.784Z</time></trkpt><trkpt lat="39.4940383" lon="8.497335"><ele>285.7142857142857</ele><time>2026-05-01T09:21:04.783Z</time></trkpt><trkpt lat="39.4940467" lon="8.497245"><ele>286.2857142857143</ele><time>2026-05-01T09:21:05.784Z</time></trkpt><trkpt lat="39.4940417" lon="8.49715"><ele>286.8571428571429</ele><time>2026-05-01T09:21:06.783Z</time></trkpt><trkpt lat="39.4940183" lon="8.4970583"><ele>287.42857142857144</ele><time>2026-05-01T09:21:07.784Z</time></trkpt><trkpt lat="39.4939883" lon="8.4969717"><ele>288.0</ele><time>2026-05-01T09:21:08.784Z</time></trkpt><trkpt lat="39.493955" lon="8.496895"><ele>286.2</ele><time>2026-05-01T09:21:09.783Z</time></trkpt><trkpt lat="39.4938933" lon="8.4967783"><ele>284.4</ele><time>2026-05-01T09:21:11.783Z</time></trkpt><trkpt lat="39.4937933" lon="8.4967083"><ele>282.59999999999997</ele><time>2026-05-01T09:21:13.784Z</time></trkpt><trkpt lat="39.4937183" lon="8.4966883"><ele>280.8</ele><time>2026-05-01T09:21:14.783Z</time></trkpt><trkpt lat="39.49363" lon="8.4966667"><ele>279.0</ele><time>2026-05-01T09:21:15.784Z</time></trkpt><trkpt lat="39.4935383" lon="8.4966417"><ele>282.5</ele><time>2026-05-01T09:21:16.783Z</time></trkpt><trkpt lat="39.493455" lon="8.4966167"><ele>286.0</ele><time>2026-05-01T09:21:17.783Z</time></trkpt><trkpt lat="39.4933833" lon="8.4965983"><ele>289.5</ele><time>2026-05-01T09:21:18.784Z</time></trkpt><trkpt lat="39.4933133" lon="8.4965983"><ele>293.0</ele><time>2026-05-01T09:21:19.783Z</time></trkpt><trkpt lat="39.49324" lon="8.4966217"><ele>296.5</ele><time>2026-05-01T09:21:20.784Z</time></trkpt><trkpt lat="39.4931617" lon="8.4966667"><ele>300.0</ele><time>2026-05-01T09:21:21.783Z</time></trkpt><trkpt lat="39.4930967" lon="8.496735"><ele>300.0</ele><time>2026-05-01T09:21:22.783Z</time></trkpt><trkpt lat="39.4930367" lon="8.4968183"><ele>300.0</ele><time>2026-05-01T09:21:23.783Z</time></trkpt><trkpt lat="39.4929833" lon="8.4968967"><ele>300.0</ele><time>2026-05-01T09:21:24.783Z</time></trkpt><trkpt lat="39.4929117" lon="8.496955"><ele>300.0</ele><time>2026-05-01T09:21:25.784Z</time></trkpt><trkpt lat="39.4928367" lon="8.4969933"><ele>300.0</ele><time>2026-05-01T09:21:26.784Z</time></trkpt><trkpt lat="39.4927583" lon="8.497"><ele>300.0</ele><time>2026-05-01T09:21:27.784Z</time></trkpt><trkpt lat="39.49268" lon="8.4969767"><ele>303.2</ele><time>2026-05-01T09:21:28.783Z</time></trkpt><trkpt lat="39.4926267" lon="8.4969183"><ele>306.4</ele><time>2026-05-01T09:21:29.783Z</time></trkpt><trkpt lat="39.492585" lon="8.4968517"><ele>309.6</ele><time>2026-05-01T09:21:30.783Z</time></trkpt><trkpt lat="39.4925517" lon="8.4967067"><ele>312.8</ele><time>2026-05-01T09:21:32.783Z</time></trkpt><trkpt lat="39.4925467" lon="8.4965217"><ele>316.0</ele><time>2026-05-01T09:21:34.783Z</time></trkpt><trkpt lat="39.4925383" lon="8.4964183"><ele>316.0</ele><time>2026-05-01T09:21:35.783Z</time></trkpt><trkpt lat="39.4925267" lon="8.496325"><ele>316.0</ele><time>2026-05-01T09:21:36.783Z</time></trkpt><trkpt lat="39.49251" lon="8.4962333"><ele>316.0</ele><time>2026-05-01T09:21:37.783Z</time></trkpt><trkpt lat="39.4925" lon="8.4961467"><ele>316.0</ele><time>2026-05-01T09:21:38.783Z</time></trkpt><trkpt lat="39.4924617" lon="8.4960167"><ele>316.0</ele><time>2026-05-01T09:21:40.784Z</time></trkpt><trkpt lat="39.49239" lon="8.4960333"><ele>316.0</ele><time>2026-05-01T09:21:42.783Z</time></trkpt><trkpt lat="39.4923883" lon="8.4961883"><ele>316.0</ele><time>2026-05-01T09:21:44.784Z</time></trkpt><trkpt lat="39.4924183" lon="8.4962883"><ele>316.0</ele><time>2026-05-01T09:21:45.784Z</time></trkpt><trkpt lat="39.4924283" lon="8.4963783"><ele>316.0</ele><time>2026-05-01T09:21:46.783Z</time></trkpt><trkpt lat="39.49242" lon="8.49648"><ele>316.0</ele><time>2026-05-01T09:21:47.783Z</time></trkpt><trkpt lat="39.4923883" lon="8.4965767"><ele>316.0</ele><time>2026-05-01T09:21:48.783Z</time></trkpt><trkpt lat="39.4923617" lon="8.4966683"><ele>316.0</ele><time>2026-05-01T09:21:49.784Z</time></trkpt><trkpt lat="39.4923567" lon="8.4968083"><ele>316.0</ele><time>2026-05-01T09:21:51.784Z</time></trkpt><trkpt lat="39.4923617" lon="8.4969383"><ele>316.0</ele><time>2026-05-01T09:21:53.783Z</time></trkpt><trkpt lat="39.4923317" lon="8.4970717"><ele>316.0</ele><time>2026-05-01T09:21:55.784Z</time></trkpt><trkpt lat="39.4923233" lon="8.4971617"><ele>316.0</ele><time>2026-05-01T09:21:56.784Z</time></trkpt><trkpt lat="39.492335" lon="8.4972567"><ele>316.0</ele><time>2026-05-01T09:21:57.783Z</time></trkpt><trkpt lat="39.492385" lon="8.4973817"><ele>319.20000000000005</ele><time>2026-05-01T09:21:59.783Z</time></trkpt><trkpt lat="39.4924733" lon="8.4974733"><ele>322.40000000000003</ele><time>2026-05-01T09:22:01.784Z</time></trkpt><trkpt lat="39.4925633" lon="8.49758"><ele>325.6</ele><time>2026-05-01T09:22:03.783Z</time></trkpt><trkpt lat="39.492625" lon="8.497625"><ele>328.8</ele><time>2026-05-01T09:22:04.783Z</time></trkpt><trkpt lat="39.4927017" lon="8.4976567"><ele>332.0</ele><time>2026-05-01T09:22:05.783Z</time></trkpt><trkpt lat="39.49278" lon="8.4976683"><ele>332.0</ele><time>2026-05-01T09:22:06.783Z</time></trkpt><trkpt lat="39.4928583" lon="8.497665"><ele>332.0</ele><time>2026-05-01T09:22:07.783Z</time></trkpt><trkpt lat="39.49293" lon="8.4976483"><ele>332.0</ele><time>2026-05-01T09:22:08.784Z</time></trkpt><trkpt lat="39.4929983" lon="8.497635"><ele>332.0</ele><time>2026-05-01T09:22:09.784Z</time></trkpt><trkpt lat="39.4930717" lon="8.4976233"><ele>332.0</ele><time>2026-05-01T09:22:10.783Z</time></trkpt><trkpt lat="39.4931667" lon="8.49768"><ele>332.0</ele><time>2026-05-01T09:22:12.784Z</time></trkpt><trkpt lat="39.49315" lon="8.497765"><ele>332.0</ele><time>2026-05-01T09:22:14.784Z</time></trkpt><trkpt lat="39.4930517" lon="8.4977617"><ele>332.0</ele><time>2026-05-01T09:22:16.783Z</time></trkpt><trkpt lat="39.4929317" lon="8.497745"><ele>332.0</ele><time>2026-05-01T09:22:18.783Z</time></trkpt><trkpt lat="39.4928233" lon="8.497785"><ele>332.0</ele><time>2026-05-01T09:22:20.784Z</time></trkpt><trkpt lat="39.4927633" lon="8.4978133"><ele>332.0</ele><time>2026-05-01T09:22:21.783Z</time></trkpt><trkpt lat="39.4926533" lon="8.4978417"><ele>332.0</ele><time>2026-05-01T09:22:23.783Z</time></trkpt><trkpt lat="39.4925567" lon="8.49784"><ele>332.0</ele><time>2026-05-01T09:22:25.783Z</time></trkpt><trkpt lat="39.49245" lon="8.49782"><ele>332.0</ele><time>2026-05-01T09:22:27.783Z</time></trkpt><trkpt lat="39.49236" lon="8.49779"><ele>332.0</ele><time>2026-05-01T09:22:29.784Z</time></trkpt><trkpt lat="39.4922783" lon="8.4977567"><ele>332.0</ele><time>2026-05-01T09:22:31.783Z</time></trkpt><trkpt lat="39.4921917" lon="8.49769"><ele>332.0</ele><time>2026-05-01T09:22:33.783Z</time></trkpt><trkpt lat="39.4921317" lon="8.49765"><ele>332.0</ele><time>2026-05-01T09:22:34.783Z</time></trkpt><trkpt lat="39.4920233" lon="8.4975633"><ele>332.0</ele><time>2026-05-01T09:22:36.783Z</time></trkpt><trkpt lat="39.4919767" lon="8.497505"><ele>332.0</ele><time>2026-05-01T09:22:37.783Z</time></trkpt><trkpt lat="39.4919417" lon="8.49743"><ele>332.0</ele><time>2026-05-01T09:22:38.783Z</time></trkpt><trkpt lat="39.4919367" lon="8.4973467"><ele>332.0</ele><time>2026-05-01T09:22:39.783Z</time></trkpt><trkpt lat="39.491935" lon="8.49719"><ele>332.0</ele><time>2026-05-01T09:22:41.783Z</time></trkpt><trkpt lat="39.49188" lon="8.4970733"><ele>332.0</ele><time>2026-05-01T09:22:43.783Z</time></trkpt><trkpt lat="39.4918333" lon="8.4971667"><ele>332.0</ele><time>2026-05-01T09:22:46.783Z</time></trkpt><trkpt lat="39.49184" lon="8.49727"><ele>332.0</ele><time>2026-05-01T09:22:47.783Z</time></trkpt><trkpt lat="39.4918433" lon="8.4973683"><ele>332.0</ele><time>2026-05-01T09:22:48.783Z</time></trkpt><trkpt lat="39.49184" lon="8.49747"><ele>332.0</ele><time>2026-05-01T09:22:49.783Z</time></trkpt><trkpt lat="39.4918367" lon="8.49757"><ele>334.83333333333337</ele><time>2026-05-01T09:22:50.783Z</time></trkpt><trkpt lat="39.491845" lon="8.49766"><ele>337.6666666666667</ele><time>2026-05-01T09:22:51.783Z</time></trkpt><trkpt lat="39.491875" lon="8.4977367"><ele>340.5</ele><time>2026-05-01T09:22:52.783Z</time></trkpt><trkpt lat="39.4919083" lon="8.497815"><ele>343.3333333333333</ele><time>2026-05-01T09:22:53.783Z</time></trkpt><trkpt lat="39.491975" lon="8.4978883"><ele>346.16666666666663</ele><time>2026-05-01T09:22:54.783Z</time></trkpt><trkpt lat="39.49204" lon="8.4979567"><ele>349.0</ele><time>2026-05-01T09:22:55.783Z</time></trkpt><trkpt lat="39.4921033" lon="8.4980333"><ele>349.6</ele><time>2026-05-01T09:22:56.784Z</time></trkpt><trkpt lat="39.4921767" lon="8.4981017"><ele>350.2</ele><time>2026-05-01T09:22:57.783Z</time></trkpt><trkpt lat="39.4922433" lon="8.4981683"><ele>350.8</ele><time>2026-05-01T09:22:58.783Z</time></trkpt><trkpt lat="39.4923083" lon="8.4982333"><ele>351.40000000000003</ele><time>2026-05-01T09:22:59.783Z</time></trkpt><trkpt lat="39.49237" lon="8.4982833"><ele>352.0</ele><time>2026-05-01T09:23:00.783Z</time></trkpt><trkpt lat="39.492465" lon="8.4983883"><ele>352.0</ele><time>2026-05-01T09:23:02.783Z</time></trkpt><trkpt lat="39.4925083" lon="8.4984517"><ele>352.0</ele><time>2026-05-01T09:23:03.783Z</time></trkpt><trkpt lat="39.4925217" lon="8.4985333"><ele>352.0</ele><time>2026-05-01T09:23:04.783Z</time></trkpt><trkpt lat="39.4924917" lon="8.4986933"><ele>352.0</ele><time>2026-05-01T09:23:06.783Z</time></trkpt><trkpt lat="39.492425" lon="8.4988333"><ele>352.0</ele><time>2026-05-01T09:23:08.784Z</time></trkpt><trkpt lat="39.4923867" lon="8.4989067"><ele>351.66666666666663</ele><time>2026-05-01T09:23:09.784Z</time></trkpt><trkpt lat="39.4923483" lon="8.4989717"><ele>351.3333333333333</ele><time>2026-05-01T09:23:10.784Z</time></trkpt><trkpt lat="39.4922767" lon="8.4990533"><ele>351.0</ele><time>2026-05-01T09:23:12.783Z</time></trkpt><trkpt lat="39.4921583" lon="8.49913"><ele>350.6666666666667</ele><time>2026-05-01T09:23:14.784Z</time></trkpt><trkpt lat="39.4920933" lon="8.4991767"><ele>350.33333333333337</ele><time>2026-05-01T09:23:15.783Z</time></trkpt><trkpt lat="39.4920267" lon="8.4992183"><ele>350.0</ele><time>2026-05-01T09:23:16.783Z</time></trkpt><trkpt lat="39.4919633" lon="8.4992633"><ele>353.83333333333337</ele><time>2026-05-01T09:23:17.783Z</time></trkpt><trkpt lat="39.491905" lon="8.4993067"><ele>357.6666666666667</ele><time>2026-05-01T09:23:18.784Z</time></trkpt><trkpt lat="39.4918483" lon="8.4993583"><ele>361.5</ele><time>2026-05-01T09:23:19.783Z</time></trkpt><trkpt lat="39.49179" lon="8.499415"><ele>365.3333333333333</ele><time>2026-05-01T09:23:20.784Z</time></trkpt><trkpt lat="39.4917367" lon="8.4994933"><ele>369.16666666666663</ele><time>2026-05-01T09:23:21.784Z</time></trkpt><trkpt lat="39.49168" lon="8.4995583"><ele>373.0</ele><time>2026-05-01T09:23:22.784Z</time></trkpt><trkpt lat="39.491565" lon="8.4995867"><ele>373.0</ele><time>2026-05-01T09:23:24.783Z</time></trkpt><trkpt lat="39.4915117" lon="8.4996383"><ele>373.0</ele><time>2026-05-01T09:23:25.783Z</time></trkpt><trkpt lat="39.4914483" lon="8.4998017"><ele>373.0</ele><time>2026-05-01T09:23:27.783Z</time></trkpt><trkpt lat="39.4914183" lon="8.4998967"><ele>373.0</ele><time>2026-05-01T09:23:28.782Z</time></trkpt><trkpt lat="39.4913883" lon="8.4999717"><ele>373.0</ele><time>2026-05-01T09:23:29.782Z</time></trkpt><trkpt lat="39.4913517" lon="8.5000483"><ele>373.0</ele><time>2026-05-01T09:23:30.782Z</time></trkpt><trkpt lat="39.49132" lon="8.50013"><ele>373.0</ele><time>2026-05-01T09:23:31.782Z</time></trkpt><trkpt lat="39.4913067" lon="8.5002317"><ele>373.0</ele><time>2026-05-01T09:23:32.782Z</time></trkpt><trkpt lat="39.49131" lon="8.500345"><ele>373.0</ele><time>2026-05-01T09:23:33.782Z</time></trkpt><trkpt lat="39.4913367" lon="8.5004517"><ele>373.0</ele><time>2026-05-01T09:23:34.782Z</time></trkpt><trkpt lat="39.4913833" lon="8.5005383"><ele>373.0</ele><time>2026-05-01T09:23:35.782Z</time></trkpt><trkpt lat="39.4914583" lon="8.5006083"><ele>373.0</ele><time>2026-05-01T09:23:36.782Z</time></trkpt><trkpt lat="39.49153" lon="8.5006633"><ele>375.5</ele><time>2026-05-01T09:23:37.782Z</time></trkpt><trkpt lat="39.4916" lon="8.5007083"><ele>378.0</ele><time>2026-05-01T09:23:38.782Z</time></trkpt><trkpt lat="39.491665" lon="8.5007617"><ele>380.5</ele><time>2026-05-01T09:23:39.782Z</time></trkpt><trkpt lat="39.4917417" lon="8.5008117"><ele>383.0</ele><time>2026-05-01T09:23:40.782Z</time></trkpt><trkpt lat="39.4918083" lon="8.50087"><ele>385.50000000000006</ele><time>2026-05-01T09:23:41.782Z</time></trkpt><trkpt lat="39.4918767" lon="8.5008983"><ele>388.0</ele><time>2026-05-01T09:23:42.782Z</time></trkpt><trkpt lat="39.4919433" lon="8.5009117"><ele>388.00000000000006</ele><time>2026-05-01T09:23:43.782Z</time></trkpt><trkpt lat="39.4919817" lon="8.5009883"><ele>388.0</ele><time>2026-05-01T09:23:45.783Z</time></trkpt><trkpt lat="39.4919083" lon="8.5010417"><ele>388.0</ele><time>2026-05-01T09:23:47.782Z</time></trkpt><trkpt lat="39.4918367" lon="8.501025"><ele>388.0</ele><time>2026-05-01T09:23:48.782Z</time></trkpt><trkpt lat="39.491745" lon="8.5009817"><ele>388.00000000000006</ele><time>2026-05-01T09:23:49.783Z</time></trkpt><trkpt lat="39.4916467" lon="8.500925"><ele>388.0</ele><time>2026-05-01T09:23:50.782Z</time></trkpt><trkpt lat="39.49155" lon="8.5008683"><ele>388.0</ele><time>2026-05-01T09:23:51.782Z</time></trkpt><trkpt lat="39.4914517" lon="8.5008283"><ele>388.0</ele><time>2026-05-01T09:23:52.782Z</time></trkpt><trkpt lat="39.4913617" lon="8.5008"><ele>388.0</ele><time>2026-05-01T09:23:53.782Z</time></trkpt><trkpt lat="39.4912883" lon="8.500765"><ele>388.0</ele><time>2026-05-01T09:23:54.782Z</time></trkpt><trkpt lat="39.4912167" lon="8.5007033"><ele>388.0</ele><time>2026-05-01T09:23:55.783Z</time></trkpt><trkpt lat="39.4911583" lon="8.5006117"><ele>390.2</ele><time>2026-05-01T09:23:56.783Z</time></trkpt><trkpt lat="39.4911083" lon="8.5004933"><ele>392.4</ele><time>2026-05-01T09:23:57.782Z</time></trkpt><trkpt lat="39.49107" lon="8.5003667"><ele>394.59999999999997</ele><time>2026-05-01T09:23:58.783Z</time></trkpt><trkpt lat="39.4910483" lon="8.5002567"><ele>396.79999999999995</ele><time>2026-05-01T09:23:59.783Z</time></trkpt><trkpt lat="39.49104" lon="8.5001533"><ele>399.0</ele><time>2026-05-01T09:24:00.782Z</time></trkpt><trkpt lat="39.4910467" lon="8.5000567"><ele>399.0</ele><time>2026-05-01T09:24:01.782Z</time></trkpt><trkpt lat="39.4910667" lon="8.4999567"><ele>399.0</ele><time>2026-05-01T09:24:02.782Z</time></trkpt><trkpt lat="39.4911" lon="8.4998583"><ele>399.0</ele><time>2026-05-01T09:24:03.782Z</time></trkpt><trkpt lat="39.4911383" lon="8.4997583"><ele>399.0</ele><time>2026-05-01T09:24:04.782Z</time></trkpt><trkpt lat="39.4911733" lon="8.499655"><ele>399.0</ele><time>2026-05-01T09:24:05.782Z</time></trkpt><trkpt lat="39.4911983" lon="8.4995617"><ele>399.0</ele><time>2026-05-01T09:24:06.783Z</time></trkpt><trkpt lat="39.4912067" lon="8.4994717"><ele>397.2</ele><time>2026-05-01T09:24:07.782Z</time></trkpt><trkpt lat="39.4911633" lon="8.4993483"><ele>395.4</ele><time>2026-05-01T09:24:09.783Z</time></trkpt><trkpt lat="39.4910433" lon="8.4992933"><ele>393.6</ele><time>2026-05-01T09:24:11.782Z</time></trkpt><trkpt lat="39.4909633" lon="8.499305"><ele>391.8</ele><time>2026-05-01T09:24:12.782Z</time></trkpt><trkpt lat="39.4908767" lon="8.499345"><ele>390.0</ele><time>2026-05-01T09:24:13.782Z</time></trkpt><trkpt lat="39.4907833" lon="8.4993867"><ele>390.0</ele><time>2026-05-01T09:24:14.782Z</time></trkpt><trkpt lat="39.4907067" lon="8.4994067"><ele>390.0</ele><time>2026-05-01T09:24:15.783Z</time></trkpt><trkpt lat="39.49058" lon="8.4994167"><ele>390.0</ele><time>2026-05-01T09:24:17.783Z</time></trkpt><trkpt lat="39.4904983" lon="8.49941"><ele>390.0</ele><time>2026-05-01T09:24:18.782Z</time></trkpt><trkpt lat="39.4904133" lon="8.4993733"><ele>390.0</ele><time>2026-05-01T09:24:19.782Z</time></trkpt><trkpt lat="39.49033" lon="8.4993033"><ele>392.8333333333333</ele><time>2026-05-01T09:24:20.782Z</time></trkpt><trkpt lat="39.4902583" lon="8.4992133"><ele>395.66666666666663</ele><time>2026-05-01T09:24:21.782Z</time></trkpt><trkpt lat="39.490195" lon="8.4991317"><ele>398.5</ele><time>2026-05-01T09:24:22.783Z</time></trkpt><trkpt lat="39.4901317" lon="8.499065"><ele>401.3333333333333</ele><time>2026-05-01T09:24:23.783Z</time></trkpt><trkpt lat="39.490065" lon="8.499015"><ele>404.16666666666663</ele><time>2026-05-01T09:24:24.783Z</time></trkpt><trkpt lat="39.4899967" lon="8.4989933"><ele>407.0</ele><time>2026-05-01T09:24:25.782Z</time></trkpt><trkpt lat="39.4899283" lon="8.498965"><ele>406.99999999999994</ele><time>2026-05-01T09:24:26.783Z</time></trkpt><trkpt lat="39.489855" lon="8.4989267"><ele>407.0</ele><time>2026-05-01T09:24:27.783Z</time></trkpt><trkpt lat="39.4897767" lon="8.4989"><ele>407.0</ele><time>2026-05-01T09:24:28.783Z</time></trkpt><trkpt lat="39.4897067" lon="8.498855"><ele>407.0</ele><time>2026-05-01T09:24:29.782Z</time></trkpt><trkpt lat="39.4896367" lon="8.4988283"><ele>406.99999999999994</ele><time>2026-05-01T09:24:30.782Z</time></trkpt><trkpt lat="39.489565" lon="8.498805"><ele>407.0</ele><time>2026-05-01T09:24:31.782Z</time></trkpt><trkpt lat="39.4894883" lon="8.4987917"><ele>406.8571428571429</ele><time>2026-05-01T09:24:32.782Z</time></trkpt><trkpt lat="39.4894183" lon="8.498785"><ele>406.7142857142857</ele><time>2026-05-01T09:24:33.782Z</time></trkpt><trkpt lat="39.4893483" lon="8.4987683"><ele>406.57142857142856</ele><time>2026-05-01T09:24:34.783Z</time></trkpt><trkpt lat="39.4892633" lon="8.4987467"><ele>406.42857142857144</ele><time>2026-05-01T09:24:35.782Z</time></trkpt><trkpt lat="39.4891917" lon="8.4987233"><ele>406.2857142857143</ele><time>2026-05-01T09:24:36.783Z</time></trkpt><trkpt lat="39.4891167" lon="8.4987017"><ele>406.14285714285717</ele><time>2026-05-01T09:24:37.783Z</time></trkpt><trkpt lat="39.4890533" lon="8.4986817"><ele>406.0</ele><time>2026-05-01T09:24:38.782Z</time></trkpt><trkpt lat="39.4890117" lon="8.498745"><ele>410.25</ele><time>2026-05-01T09:24:44.782Z</time></trkpt><trkpt lat="39.4890933" lon="8.4988217"><ele>414.5</ele><time>2026-05-01T09:25:30.783Z</time></trkpt><trkpt lat="39.4892333" lon="8.4989033"><ele>418.75</ele><time>2026-05-01T09:25:32.782Z</time></trkpt><trkpt lat="39.4893433" lon="8.4989517"><ele>423.0</ele><time>2026-05-01T09:25:33.782Z</time></trkpt><trkpt lat="39.4894617" lon="8.4990233"><ele>423.0</ele><time>2026-05-01T09:25:34.782Z</time></trkpt><trkpt lat="39.4895817" lon="8.49912"><ele>423.0</ele><time>2026-05-01T09:25:35.782Z</time></trkpt><trkpt lat="39.4896933" lon="8.499245"><ele>423.0</ele><time>2026-05-01T09:25:36.782Z</time></trkpt><trkpt lat="39.48981" lon="8.4993983"><ele>423.0</ele><time>2026-05-01T09:25:37.782Z</time></trkpt><trkpt lat="39.4899167" lon="8.4995433"><ele>423.0</ele><time>2026-05-01T09:25:38.782Z</time></trkpt><trkpt lat="39.490005" lon="8.4996833"><ele>423.0</ele><time>2026-05-01T09:25:39.783Z</time></trkpt><trkpt lat="39.4900733" lon="8.499825"><ele>423.0</ele><time>2026-05-01T09:25:40.782Z</time></trkpt><trkpt lat="39.4901217" lon="8.4999667"><ele>423.0</ele><time>2026-05-01T09:25:41.782Z</time></trkpt><trkpt lat="39.49014" lon="8.5001033"><ele>423.0</ele><time>2026-05-01T09:25:42.783Z</time></trkpt><trkpt lat="39.4901333" lon="8.500225"><ele>423.0</ele><time>2026-05-01T09:25:43.782Z</time></trkpt><trkpt lat="39.4901083" lon="8.5003517"><ele>423.0</ele><time>2026-05-01T09:25:44.782Z</time></trkpt><trkpt lat="39.4900517" lon="8.5004833"><ele>423.0</ele><time>2026-05-01T09:25:45.782Z</time></trkpt><trkpt lat="39.489965" lon="8.5006"><ele>423.5</ele><time>2026-05-01T09:25:46.783Z</time></trkpt><trkpt lat="39.489865" lon="8.500715"><ele>424.0</ele><time>2026-05-01T09:25:47.783Z</time></trkpt><trkpt lat="39.4897517" lon="8.5008083"><ele>424.5</ele><time>2026-05-01T09:25:48.782Z</time></trkpt><trkpt lat="39.48963" lon="8.5009067"><ele>425.0</ele><time>2026-05-01T09:25:49.782Z</time></trkpt><trkpt lat="39.489515" lon="8.5010283"><ele>429.66666666666663</ele><time>2026-05-01T09:25:50.782Z</time></trkpt><trkpt lat="39.4894067" lon="8.50117"><ele>434.33333333333337</ele><time>2026-05-01T09:25:51.782Z</time></trkpt><trkpt lat="39.489305" lon="8.5013283"><ele>439.0</ele><time>2026-05-01T09:25:52.782Z</time></trkpt><trkpt lat="39.489215" lon="8.5014933"><ele>439.0</ele><time>2026-05-01T09:25:53.782Z</time></trkpt><trkpt lat="39.4891383" lon="8.50165"><ele>439.0</ele><time>2026-05-01T09:25:54.783Z</time></trkpt><trkpt lat="39.48907" lon="8.5017967"><ele>439.0</ele><time>2026-05-01T09:25:55.782Z</time></trkpt><trkpt lat="39.4890067" lon="8.5019417"><ele>439.0</ele><time>2026-05-01T09:25:56.783Z</time></trkpt><trkpt lat="39.4889417" lon="8.502095"><ele>439.75</ele><time>2026-05-01T09:25:57.782Z</time></trkpt><trkpt lat="39.488875" lon="8.502255"><ele>440.5</ele><time>2026-05-01T09:25:58.782Z</time></trkpt><trkpt lat="39.4888067" lon="8.502425"><ele>441.25</ele><time>2026-05-01T09:25:59.782Z</time></trkpt><trkpt lat="39.4887383" lon="8.5026"><ele>442.0</ele><time>2026-05-01T09:26:00.783Z</time></trkpt><trkpt lat="39.4886733" lon="8.5027683"><ele>438.25</ele><time>2026-05-01T09:26:01.782Z</time></trkpt><trkpt lat="39.4886117" lon="8.50293"><ele>434.5</ele><time>2026-05-01T09:26:02.783Z</time></trkpt><trkpt lat="39.48855" lon="8.5030817"><ele>430.75</ele><time>2026-05-01T09:26:03.782Z</time></trkpt><trkpt lat="39.488495" lon="8.503225"><ele>427.0</ele><time>2026-05-01T09:26:04.783Z</time></trkpt><trkpt lat="39.48844" lon="8.5033617"><ele>427.0</ele><time>2026-05-01T09:26:05.782Z</time></trkpt><trkpt lat="39.4883783" lon="8.5034883"><ele>427.0</ele><time>2026-05-01T09:26:06.782Z</time></trkpt><trkpt lat="39.4883067" lon="8.5036033"><ele>427.0</ele><time>2026-05-01T09:26:07.782Z</time></trkpt><trkpt lat="39.488215" lon="8.503705"><ele>427.0</ele><time>2026-05-01T09:26:08.782Z</time></trkpt><trkpt lat="39.4880967" lon="8.5037917"><ele>427.0</ele><time>2026-05-01T09:26:09.783Z</time></trkpt><trkpt lat="39.487955" lon="8.5038583"><ele>427.0</ele><time>2026-05-01T09:26:10.782Z</time></trkpt><trkpt lat="39.4878" lon="8.50391"><ele>427.0</ele><time>2026-05-01T09:26:11.782Z</time></trkpt><trkpt lat="39.4876433" lon="8.5039267"><ele>427.0</ele><time>2026-05-01T09:26:12.782Z</time></trkpt><trkpt lat="39.4874967" lon="8.50392"><ele>427.0</ele><time>2026-05-01T09:26:13.782Z</time></trkpt><trkpt lat="39.4873617" lon="8.5038767"><ele>427.0</ele><time>2026-05-01T09:26:14.783Z</time></trkpt><trkpt lat="39.4872217" lon="8.50381"><ele>427.0</ele><time>2026-05-01T09:26:15.783Z</time></trkpt><trkpt lat="39.48707" lon="8.5037267"><ele>420.6666666666667</ele><time>2026-05-01T09:26:16.782Z</time></trkpt><trkpt lat="39.4869167" lon="8.5036417"><ele>414.33333333333337</ele><time>2026-05-01T09:26:17.782Z</time></trkpt><trkpt lat="39.4867667" lon="8.5035567"><ele>408.0</ele><time>2026-05-01T09:26:18.782Z</time></trkpt><trkpt lat="39.4866217" lon="8.5034733"><ele>408.0</ele><time>2026-05-01T09:26:19.782Z</time></trkpt><trkpt lat="39.486485" lon="8.5033967"><ele>408.0</ele><time>2026-05-01T09:26:20.782Z</time></trkpt><trkpt lat="39.4863567" lon="8.50334"><ele>408.0</ele><time>2026-05-01T09:26:21.781Z</time></trkpt><trkpt lat="39.4862317" lon="8.5033183"><ele>408.0</ele><time>2026-05-01T09:26:22.781Z</time></trkpt><trkpt lat="39.4861133" lon="8.5033367"><ele>406.4</ele><time>2026-05-01T09:26:23.781Z</time></trkpt><trkpt lat="39.4860083" lon="8.5033917"><ele>404.79999999999995</ele><time>2026-05-01T09:26:24.781Z</time></trkpt><trkpt lat="39.4859283" lon="8.50348"><ele>403.2</ele><time>2026-05-01T09:26:25.781Z</time></trkpt><trkpt lat="39.4858783" lon="8.5035933"><ele>401.6</ele><time>2026-05-01T09:26:26.782Z</time></trkpt><trkpt lat="39.4858517" lon="8.5037383"><ele>400.0</ele><time>2026-05-01T09:26:27.782Z</time></trkpt><trkpt lat="39.4858283" lon="8.5038883"><ele>400.0</ele><time>2026-05-01T09:26:28.782Z</time></trkpt><trkpt lat="39.485785" lon="8.504025"><ele>400.0</ele><time>2026-05-01T09:26:29.781Z</time></trkpt><trkpt lat="39.4857167" lon="8.5041467"><ele>400.0</ele><time>2026-05-01T09:26:30.781Z</time></trkpt><trkpt lat="39.485615" lon="8.50425"><ele>400.0</ele><time>2026-05-01T09:26:31.781Z</time></trkpt><trkpt lat="39.4854917" lon="8.5043333"><ele>397.5</ele><time>2026-05-01T09:26:32.781Z</time></trkpt><trkpt lat="39.485355" lon="8.5044233"><ele>395.0</ele><time>2026-05-01T09:26:33.781Z</time></trkpt><trkpt lat="39.4852217" lon="8.5045117"><ele>392.5</ele><time>2026-05-01T09:26:34.781Z</time></trkpt><trkpt lat="39.485095" lon="8.50459"><ele>390.0</ele><time>2026-05-01T09:26:35.781Z</time></trkpt><trkpt lat="39.4849767" lon="8.5046633"><ele>390.0</ele><time>2026-05-01T09:26:36.781Z</time></trkpt><trkpt lat="39.48486" lon="8.5047317"><ele>390.0</ele><time>2026-05-01T09:26:37.781Z</time></trkpt><trkpt lat="39.4847467" lon="8.5047883"><ele>390.0</ele><time>2026-05-01T09:26:38.781Z</time></trkpt><trkpt lat="39.4846283" lon="8.504845"><ele>390.0</ele><time>2026-05-01T09:26:39.781Z</time></trkpt><trkpt lat="39.4845117" lon="8.5049033"><ele>389.0</ele><time>2026-05-01T09:26:40.782Z</time></trkpt><trkpt lat="39.484405" lon="8.50496"><ele>388.0</ele><time>2026-05-01T09:26:41.782Z</time></trkpt><trkpt lat="39.4843033" lon="8.5050317"><ele>387.0</ele><time>2026-05-01T09:26:42.781Z</time></trkpt><trkpt lat="39.4842017" lon="8.50514"><ele>386.0</ele><time>2026-05-01T09:26:43.781Z</time></trkpt><trkpt lat="39.4841017" lon="8.5052767"><ele>385.75</ele><time>2026-05-01T09:26:44.782Z</time></trkpt><trkpt lat="39.4840067" lon="8.5054283"><ele>385.5</ele><time>2026-05-01T09:26:45.781Z</time></trkpt><trkpt lat="39.483925" lon="8.505585"><ele>385.25</ele><time>2026-05-01T09:26:46.781Z</time></trkpt><trkpt lat="39.4838433" lon="8.505725"><ele>385.0</ele><time>2026-05-01T09:26:47.782Z</time></trkpt><trkpt lat="39.483755" lon="8.5058483"><ele>384.0</ele><time>2026-05-01T09:26:48.782Z</time></trkpt><trkpt lat="39.483645" lon="8.505955"><ele>383.0</ele><time>2026-05-01T09:26:49.781Z</time></trkpt><trkpt lat="39.4835183" lon="8.5060483"><ele>382.0</ele><time>2026-05-01T09:26:50.781Z</time></trkpt><trkpt lat="39.48338" lon="8.5061117"><ele>381.0</ele><time>2026-05-01T09:26:51.781Z</time></trkpt><trkpt lat="39.4832217" lon="8.50617"><ele>381.0</ele><time>2026-05-01T09:26:52.781Z</time></trkpt><trkpt lat="39.483055" lon="8.5062183"><ele>381.0</ele><time>2026-05-01T09:26:53.781Z</time></trkpt><trkpt lat="39.4828933" lon="8.5062433"><ele>381.0</ele><time>2026-05-01T09:26:54.781Z</time></trkpt><trkpt lat="39.4827417" lon="8.5062517"><ele>378.8</ele><time>2026-05-01T09:26:55.781Z</time></trkpt><trkpt lat="39.4826083" lon="8.50625"><ele>376.6</ele><time>2026-05-01T09:26:56.781Z</time></trkpt><trkpt lat="39.4824983" lon="8.5062583"><ele>374.4</ele><time>2026-05-01T09:26:57.781Z</time></trkpt><trkpt lat="39.482415" lon="8.5062367"><ele>372.2</ele><time>2026-05-01T09:26:58.781Z</time></trkpt><trkpt lat="39.4823483" lon="8.506165"><ele>370.0</ele><time>2026-05-01T09:26:59.781Z</time></trkpt><trkpt lat="39.48231" lon="8.5060883"><ele>369.5</ele><time>2026-05-01T09:27:00.781Z</time></trkpt><trkpt lat="39.48234" lon="8.505965"><ele>369.0</ele><time>2026-05-01T09:27:01.781Z</time></trkpt><trkpt lat="39.482405" lon="8.505825"><ele>368.5</ele><time>2026-05-01T09:27:02.781Z</time></trkpt><trkpt lat="39.48248" lon="8.505675"><ele>368.0</ele><time>2026-05-01T09:27:03.781Z</time></trkpt><trkpt lat="39.48256" lon="8.5055217"><ele>371.25</ele><time>2026-05-01T09:27:04.781Z</time></trkpt><trkpt lat="39.4826517" lon="8.50537"><ele>374.5</ele><time>2026-05-01T09:27:05.781Z</time></trkpt><trkpt lat="39.4827583" lon="8.5052367"><ele>377.75</ele><time>2026-05-01T09:27:06.781Z</time></trkpt><trkpt lat="39.4828733" lon="8.505135"><ele>381.0</ele><time>2026-05-01T09:27:07.781Z</time></trkpt><trkpt lat="39.4829667" lon="8.505045"><ele>381.0</ele><time>2026-05-01T09:27:08.781Z</time></trkpt><trkpt lat="39.4830333" lon="8.5049483"><ele>381.0</ele><time>2026-05-01T09:27:09.781Z</time></trkpt><trkpt lat="39.4830567" lon="8.5048267"><ele>381.0</ele><time>2026-05-01T09:27:10.782Z</time></trkpt><trkpt lat="39.483035" lon="8.5046967"><ele>381.0</ele><time>2026-05-01T09:27:11.781Z</time></trkpt><trkpt lat="39.48297" lon="8.5045617"><ele>381.0</ele><time>2026-05-01T09:27:12.782Z</time></trkpt><trkpt lat="39.4828917" lon="8.5044117"><ele>368.5</ele><time>2026-05-01T09:27:13.782Z</time></trkpt><trkpt lat="39.482825" lon="8.50424"><ele>356.0</ele><time>2026-05-01T09:27:14.781Z</time></trkpt><trkpt lat="39.482775" lon="8.5040567"><ele>343.5</ele><time>2026-05-01T09:27:15.781Z</time></trkpt><trkpt lat="39.4827433" lon="8.503885"><ele>331.0</ele><time>2026-05-01T09:27:16.781Z</time></trkpt><trkpt lat="39.482735" lon="8.5037433"><ele>329.0</ele><time>2026-05-01T09:27:17.781Z</time></trkpt><trkpt lat="39.48276" lon="8.5036117"><ele>327.0</ele><time>2026-05-01T09:27:18.781Z</time></trkpt><trkpt lat="39.4828233" lon="8.503485"><ele>325.0</ele><time>2026-05-01T09:27:19.781Z</time></trkpt><trkpt lat="39.48292" lon="8.503365"><ele>323.0</ele><time>2026-05-01T09:27:20.782Z</time></trkpt><trkpt lat="39.4830283" lon="8.5032333"><ele>331.0</ele><time>2026-05-01T09:27:21.781Z</time></trkpt><trkpt lat="39.4831383" lon="8.5031117"><ele>339.0</ele><time>2026-05-01T09:27:22.781Z</time></trkpt><trkpt lat="39.483245" lon="8.50302"><ele>347.0</ele><time>2026-05-01T09:27:23.781Z</time></trkpt><trkpt lat="39.4833633" lon="8.50297"><ele>355.0</ele><time>2026-05-01T09:27:24.782Z</time></trkpt><trkpt lat="39.4835033" lon="8.5029533"><ele>355.0</ele><time>2026-05-01T09:27:25.782Z</time></trkpt><trkpt lat="39.4836517" lon="8.5029383"><ele>355.0</ele><time>2026-05-01T09:27:26.781Z</time></trkpt><trkpt lat="39.4838017" lon="8.5029317"><ele>355.0</ele><time>2026-05-01T09:27:27.781Z</time></trkpt><trkpt lat="39.4839417" lon="8.50294"><ele>355.0</ele><time>2026-05-01T09:27:28.781Z</time></trkpt><trkpt lat="39.4840417" lon="8.50291"><ele>355.6</ele><time>2026-05-01T09:27:29.781Z</time></trkpt><trkpt lat="39.484115" lon="8.50285"><ele>356.2</ele><time>2026-05-01T09:27:30.781Z</time></trkpt><trkpt lat="39.4841633" lon="8.5027617"><ele>356.79999999999995</ele><time>2026-05-01T09:27:31.782Z</time></trkpt><trkpt lat="39.4841883" lon="8.502665"><ele>357.4</ele><time>2026-05-01T09:27:32.781Z</time></trkpt><trkpt lat="39.484185" lon="8.5025417"><ele>358.0</ele><time>2026-05-01T09:27:33.781Z</time></trkpt><trkpt lat="39.4841333" lon="8.5024017"><ele>358.0</ele><time>2026-05-01T09:27:34.781Z</time></trkpt><trkpt lat="39.4840417" lon="8.5022633"><ele>358.0</ele><time>2026-05-01T09:27:35.781Z</time></trkpt><trkpt lat="39.4839217" lon="8.5021033"><ele>358.0</ele><time>2026-05-01T09:27:36.782Z</time></trkpt><trkpt lat="39.4838" lon="8.5019683"><ele>350.2</ele><time>2026-05-01T09:27:37.781Z</time></trkpt><trkpt lat="39.4836883" lon="8.5018617"><ele>342.4</ele><time>2026-05-01T09:27:38.782Z</time></trkpt><trkpt lat="39.4836067" lon="8.5017683"><ele>334.59999999999997</ele><time>2026-05-01T09:27:39.782Z</time></trkpt><trkpt lat="39.4835567" lon="8.5016817"><ele>326.79999999999995</ele><time>2026-05-01T09:27:40.781Z</time></trkpt><trkpt lat="39.483545" lon="8.5015967"><ele>319.0</ele><time>2026-05-01T09:27:41.781Z</time></trkpt><trkpt lat="39.4835717" lon="8.5015017"><ele>319.0</ele><time>2026-05-01T09:27:42.781Z</time></trkpt><trkpt lat="39.4836433" lon="8.5014183"><ele>319.0</ele><time>2026-05-01T09:27:43.781Z</time></trkpt><trkpt lat="39.483765" lon="8.5013233"><ele>319.0</ele><time>2026-05-01T09:27:44.781Z</time></trkpt><trkpt lat="39.4838817" lon="8.5012217"><ele>319.0</ele><time>2026-05-01T09:27:45.782Z</time></trkpt><trkpt lat="39.483975" lon="8.50112"><ele>323.79999999999995</ele><time>2026-05-01T09:27:46.781Z</time></trkpt><trkpt lat="39.48403" lon="8.5010117"><ele>328.59999999999997</ele><time>2026-05-01T09:27:47.781Z</time></trkpt><trkpt lat="39.4840583" lon="8.5009083"><ele>333.4</ele><time>2026-05-01T09:27:48.781Z</time></trkpt><trkpt lat="39.4840417" lon="8.5008083"><ele>338.2</ele><time>2026-05-01T09:27:49.781Z</time></trkpt><trkpt lat="39.4839933" lon="8.500705"><ele>343.0</ele><time>2026-05-01T09:27:50.781Z</time></trkpt><trkpt lat="39.483905" lon="8.5006"><ele>343.0</ele><time>2026-05-01T09:27:51.781Z</time></trkpt><trkpt lat="39.4838267" lon="8.50048"><ele>343.0</ele><time>2026-05-01T09:27:52.781Z</time></trkpt><trkpt lat="39.4837683" lon="8.5003417"><ele>343.0</ele><time>2026-05-01T09:27:53.781Z</time></trkpt><trkpt lat="39.483755" lon="8.5001933"><ele>343.0</ele><time>2026-05-01T09:27:54.781Z</time></trkpt><trkpt lat="39.48379" lon="8.500055"><ele>342.25</ele><time>2026-05-01T09:27:55.782Z</time></trkpt><trkpt lat="39.4838483" lon="8.4999083"><ele>341.5</ele><time>2026-05-01T09:27:56.781Z</time></trkpt><trkpt lat="39.483895" lon="8.4997383"><ele>340.75</ele><time>2026-05-01T09:27:57.781Z</time></trkpt><trkpt lat="39.483915" lon="8.4995533"><ele>340.0</ele><time>2026-05-01T09:27:58.781Z</time></trkpt><trkpt lat="39.483915" lon="8.49937"><ele>339.4</ele><time>2026-05-01T09:27:59.782Z</time></trkpt><trkpt lat="39.4839083" lon="8.4992117"><ele>338.8</ele><time>2026-05-01T09:28:00.781Z</time></trkpt><trkpt lat="39.4839017" lon="8.499075"><ele>338.20000000000005</ele><time>2026-05-01T09:28:01.781Z</time></trkpt><trkpt lat="39.4838717" lon="8.4989717"><ele>337.6</ele><time>2026-05-01T09:28:02.781Z</time></trkpt><trkpt lat="39.4838" lon="8.4988833"><ele>337.0</ele><time>2026-05-01T09:28:03.781Z</time></trkpt><trkpt lat="39.4837183" lon="8.49883"><ele>333.0</ele><time>2026-05-01T09:28:04.781Z</time></trkpt><trkpt lat="39.4836317" lon="8.4988017"><ele>329.0</ele><time>2026-05-01T09:28:05.781Z</time></trkpt><trkpt lat="39.483525" lon="8.4988117"><ele>325.0</ele><time>2026-05-01T09:28:06.782Z</time></trkpt><trkpt lat="39.483405" lon="8.498865"><ele>321.0</ele><time>2026-05-01T09:28:07.781Z</time></trkpt><trkpt lat="39.4832917" lon="8.49892"><ele>317.0</ele><time>2026-05-01T09:28:08.781Z</time></trkpt><trkpt lat="39.48319" lon="8.4989517"><ele>317.0</ele><time>2026-05-01T09:28:09.781Z</time></trkpt><trkpt lat="39.4830917" lon="8.4989717"><ele>317.0</ele><time>2026-05-01T09:28:10.782Z</time></trkpt><trkpt lat="39.4829983" lon="8.498985"><ele>317.0</ele><time>2026-05-01T09:28:11.782Z</time></trkpt><trkpt lat="39.482905" lon="8.4989833"><ele>317.0</ele><time>2026-05-01T09:28:12.782Z</time></trkpt><trkpt lat="39.4828133" lon="8.4989617"><ele>317.0</ele><time>2026-05-01T09:28:13.781Z</time></trkpt><trkpt lat="39.4827217" lon="8.4989183"><ele>320.4</ele><time>2026-05-01T09:28:14.781Z</time></trkpt><trkpt lat="39.4826317" lon="8.4988717"><ele>323.79999999999995</ele><time>2026-05-01T09:28:15.782Z</time></trkpt><trkpt lat="39.4825417" lon="8.4988183"><ele>327.2</ele><time>2026-05-01T09:28:16.781Z</time></trkpt><trkpt lat="39.4824517" lon="8.4987633"><ele>330.59999999999997</ele><time>2026-05-01T09:28:17.782Z</time></trkpt><trkpt lat="39.4823583" lon="8.4987117"><ele>334.0</ele><time>2026-05-01T09:28:18.781Z</time></trkpt><trkpt lat="39.4822633" lon="8.498655"><ele>334.0</ele><time>2026-05-01T09:28:19.781Z</time></trkpt><trkpt lat="39.4821733" lon="8.4986017"><ele>334.0</ele><time>2026-05-01T09:28:20.782Z</time></trkpt><trkpt lat="39.48209" lon="8.49855"><ele>334.0</ele><time>2026-05-01T09:28:21.781Z</time></trkpt><trkpt lat="39.48202" lon="8.498485"><ele>334.0</ele><time>2026-05-01T09:28:22.781Z</time></trkpt><trkpt lat="39.4819617" lon="8.4984033"><ele>334.0</ele><time>2026-05-01T09:28:23.781Z</time></trkpt><trkpt lat="39.4819167" lon="8.498305"><ele>331.4</ele><time>2026-05-01T09:28:24.782Z</time></trkpt><trkpt lat="39.4818767" lon="8.4981967"><ele>328.79999999999995</ele><time>2026-05-01T09:28:25.782Z</time></trkpt><trkpt lat="39.4818367" lon="8.498075"><ele>326.20000000000005</ele><time>2026-05-01T09:28:26.781Z</time></trkpt><trkpt lat="39.4817983" lon="8.49796"><ele>323.6</ele><time>2026-05-01T09:28:27.781Z</time></trkpt><trkpt lat="39.4817517" lon="8.497855"><ele>321.0</ele><time>2026-05-01T09:28:28.781Z</time></trkpt><trkpt lat="39.4816967" lon="8.4977633"><ele>321.0</ele><time>2026-05-01T09:28:29.781Z</time></trkpt><trkpt lat="39.4816333" lon="8.497685"><ele>321.0</ele><time>2026-05-01T09:28:30.782Z</time></trkpt><trkpt lat="39.481565" lon="8.4976183"><ele>321.0</ele><time>2026-05-01T09:28:31.781Z</time></trkpt><trkpt lat="39.4814833" lon="8.49758"><ele>321.0</ele><time>2026-05-01T09:28:32.781Z</time></trkpt><trkpt lat="39.4813833" lon="8.4975667"><ele>321.0</ele><time>2026-05-01T09:28:33.781Z</time></trkpt><trkpt lat="39.4812433" lon="8.4975867"><ele>317.0</ele><time>2026-05-01T09:28:34.781Z</time></trkpt><trkpt lat="39.48108" lon="8.497615"><ele>313.0</ele><time>2026-05-01T09:28:35.781Z</time></trkpt><trkpt lat="39.480905" lon="8.49762"><ele>309.0</ele><time>2026-05-01T09:28:36.781Z</time></trkpt><trkpt lat="39.4807383" lon="8.49763"><ele>309.0</ele><time>2026-05-01T09:28:37.781Z</time></trkpt><trkpt lat="39.480575" lon="8.4976467"><ele>309.0</ele><time>2026-05-01T09:28:38.782Z</time></trkpt><trkpt lat="39.480415" lon="8.4976633"><ele>309.0</ele><time>2026-05-01T09:28:39.781Z</time></trkpt><trkpt lat="39.4802667" lon="8.497675"><ele>306.25</ele><time>2026-05-01T09:28:40.781Z</time></trkpt><trkpt lat="39.4801433" lon="8.4976567"><ele>303.5</ele><time>2026-05-01T09:28:41.781Z</time></trkpt><trkpt lat="39.48004" lon="8.4976"><ele>300.75</ele><time>2026-05-01T09:28:42.782Z</time></trkpt><trkpt lat="39.479955" lon="8.4974833"><ele>298.0</ele><time>2026-05-01T09:28:43.782Z</time></trkpt><trkpt lat="39.47989" lon="8.49735"><ele>298.0</ele><time>2026-05-01T09:28:44.781Z</time></trkpt><trkpt lat="39.4798583" lon="8.4972117"><ele>298.0</ele><time>2026-05-01T09:28:45.781Z</time></trkpt><trkpt lat="39.4798517" lon="8.4970767"><ele>298.0</ele><time>2026-05-01T09:28:46.782Z</time></trkpt><trkpt lat="39.479855" lon="8.496945"><ele>298.0</ele><time>2026-05-01T09:28:47.781Z</time></trkpt><trkpt lat="39.4798817" lon="8.49682"><ele>298.0</ele><time>2026-05-01T09:28:48.781Z</time></trkpt><trkpt lat="39.47992" lon="8.4967117"><ele>298.16666666666663</ele><time>2026-05-01T09:28:49.782Z</time></trkpt><trkpt lat="39.4799633" lon="8.4966133"><ele>298.3333333333333</ele><time>2026-05-01T09:28:50.781Z</time></trkpt><trkpt lat="39.4799967" lon="8.4965233"><ele>298.5</ele><time>2026-05-01T09:28:51.781Z</time></trkpt><trkpt lat="39.4800267" lon="8.4964333"><ele>298.6666666666667</ele><time>2026-05-01T09:28:52.782Z</time></trkpt><trkpt lat="39.4800317" lon="8.4963333"><ele>298.83333333333337</ele><time>2026-05-01T09:28:53.781Z</time></trkpt><trkpt lat="39.4800267" lon="8.496245"><ele>299.0</ele><time>2026-05-01T09:28:54.781Z</time></trkpt><trkpt lat="39.4800133" lon="8.49615"><ele>301.5</ele><time>2026-05-01T09:28:55.781Z</time></trkpt><trkpt lat="39.4799783" lon="8.4960517"><ele>304.0</ele><time>2026-05-01T09:28:56.781Z</time></trkpt><trkpt lat="39.4799283" lon="8.4959667"><ele>306.5</ele><time>2026-05-01T09:28:57.781Z</time></trkpt><trkpt lat="39.4798667" lon="8.4958967"><ele>309.0</ele><time>2026-05-01T09:28:58.781Z</time></trkpt><trkpt lat="39.4797983" lon="8.4958617"><ele>311.5</ele><time>2026-05-01T09:28:59.781Z</time></trkpt><trkpt lat="39.4797217" lon="8.4958383"><ele>314.0</ele><time>2026-05-01T09:29:00.781Z</time></trkpt><trkpt lat="39.47963" lon="8.4958233"><ele>312.5</ele><time>2026-05-01T09:29:01.782Z</time></trkpt><trkpt lat="39.47954" lon="8.495835"><ele>311.0</ele><time>2026-05-01T09:29:02.782Z</time></trkpt><trkpt lat="39.4794367" lon="8.4959117"><ele>309.5</ele><time>2026-05-01T09:29:03.781Z</time></trkpt><trkpt lat="39.4793117" lon="8.4960283"><ele>308.0</ele><time>2026-05-01T09:29:04.781Z</time></trkpt><trkpt lat="39.4791633" lon="8.4961667"><ele>301.6666666666667</ele><time>2026-05-01T09:29:05.782Z</time></trkpt><trkpt lat="39.479" lon="8.4963317"><ele>295.3333333333333</ele><time>2026-05-01T09:29:06.782Z</time></trkpt><trkpt lat="39.478845" lon="8.4964983"><ele>289.0</ele><time>2026-05-01T09:29:07.781Z</time></trkpt><trkpt lat="39.4786917" lon="8.49666"><ele>289.0</ele><time>2026-05-01T09:29:08.781Z</time></trkpt><trkpt lat="39.4785367" lon="8.496805"><ele>289.0</ele><time>2026-05-01T09:29:09.782Z</time></trkpt><trkpt lat="39.4783917" lon="8.4969467"><ele>289.0</ele><time>2026-05-01T09:29:10.78Z</time></trkpt><trkpt lat="39.4782583" lon="8.4970833"><ele>282.66666666666663</ele><time>2026-05-01T09:29:11.78Z</time></trkpt><trkpt lat="39.4781233" lon="8.49721"><ele>276.3333333333333</ele><time>2026-05-01T09:29:12.78Z</time></trkpt><trkpt lat="39.4779833" lon="8.49731"><ele>270.0</ele><time>2026-05-01T09:29:13.78Z</time></trkpt><trkpt lat="39.4778567" lon="8.4973667"><ele>270.0</ele><time>2026-05-01T09:29:14.781Z</time></trkpt><trkpt lat="39.47773" lon="8.4974067"><ele>270.0</ele><time>2026-05-01T09:29:15.78Z</time></trkpt><trkpt lat="39.4776067" lon="8.4974083"><ele>270.0</ele><time>2026-05-01T09:29:16.781Z</time></trkpt><trkpt lat="39.4774867" lon="8.4973833"><ele>270.0</ele><time>2026-05-01T09:29:17.78Z</time></trkpt><trkpt lat="39.4773817" lon="8.497335"><ele>270.0</ele><time>2026-05-01T09:29:18.78Z</time></trkpt><trkpt lat="39.4772933" lon="8.4972717"><ele>270.0</ele><time>2026-05-01T09:29:19.78Z</time></trkpt><trkpt lat="39.47724" lon="8.4971783"><ele>270.0</ele><time>2026-05-01T09:29:20.78Z</time></trkpt><trkpt lat="39.47721" lon="8.4970433"><ele>270.0</ele><time>2026-05-01T09:29:21.78Z</time></trkpt><trkpt lat="39.4772133" lon="8.4968833"><ele>270.0</ele><time>2026-05-01T09:29:22.781Z</time></trkpt><trkpt lat="39.47724" lon="8.49671"><ele>271.0</ele><time>2026-05-01T09:29:23.781Z</time></trkpt><trkpt lat="39.4772883" lon="8.4965533"><ele>272.0</ele><time>2026-05-01T09:29:24.78Z</time></trkpt><trkpt lat="39.4773283" lon="8.4964033"><ele>273.0</ele><time>2026-05-01T09:29:25.78Z</time></trkpt><trkpt lat="39.4773383" lon="8.4962667"><ele>274.0</ele><time>2026-05-01T09:29:26.78Z</time></trkpt><trkpt lat="39.477315" lon="8.49614"><ele>274.0</ele><time>2026-05-01T09:29:27.78Z</time></trkpt><trkpt lat="39.47728" lon="8.496045"><ele>274.0</ele><time>2026-05-01T09:29:28.781Z</time></trkpt><trkpt lat="39.4772433" lon="8.4959367"><ele>274.0</ele><time>2026-05-01T09:29:29.781Z</time></trkpt><trkpt lat="39.47724" lon="8.4958167"><ele>274.0</ele><time>2026-05-01T09:29:30.78Z</time></trkpt><trkpt lat="39.4772667" lon="8.4956967"><ele>274.0</ele><time>2026-05-01T09:29:31.78Z</time></trkpt><trkpt lat="39.477335" lon="8.4956083"><ele>274.0</ele><time>2026-05-01T09:29:32.78Z</time></trkpt><trkpt lat="39.47742" lon="8.4955433"><ele>274.0</ele><time>2026-05-01T09:29:33.78Z</time></trkpt><trkpt lat="39.4774867" lon="8.4954583"><ele>274.0</ele><time>2026-05-01T09:29:34.781Z</time></trkpt><trkpt lat="39.4775267" lon="8.495355"><ele>274.0</ele><time>2026-05-01T09:29:35.78Z</time></trkpt><trkpt lat="39.47754" lon="8.49524"><ele>274.0</ele><time>2026-05-01T09:29:36.78Z</time></trkpt><trkpt lat="39.4775267" lon="8.4951217"><ele>274.0</ele><time>2026-05-01T09:29:37.78Z</time></trkpt><trkpt lat="39.4774733" lon="8.4949933"><ele>274.0</ele><time>2026-05-01T09:29:38.78Z</time></trkpt><trkpt lat="39.477395" lon="8.4949117"><ele>274.0</ele><time>2026-05-01T09:29:39.78Z</time></trkpt><trkpt lat="39.4772817" lon="8.4948533"><ele>274.0</ele><time>2026-05-01T09:29:40.781Z</time></trkpt><trkpt lat="39.47719" lon="8.494795"><ele>274.0</ele><time>2026-05-01T09:29:41.781Z</time></trkpt><trkpt lat="39.4771133" lon="8.4947033"><ele>268.59999999999997</ele><time>2026-05-01T09:29:42.78Z</time></trkpt><trkpt lat="39.4770583" lon="8.494585"><ele>263.2</ele><time>2026-05-01T09:29:43.78Z</time></trkpt><trkpt lat="39.4770317" lon="8.4944533"><ele>257.79999999999995</ele><time>2026-05-01T09:29:44.78Z</time></trkpt><trkpt lat="39.477035" lon="8.4943183"><ele>252.39999999999998</ele><time>2026-05-01T09:29:45.78Z</time></trkpt><trkpt lat="39.47705" lon="8.4941883"><ele>247.0</ele><time>2026-05-01T09:29:46.781Z</time></trkpt><trkpt lat="39.477075" lon="8.4940633"><ele>247.0</ele><time>2026-05-01T09:29:47.78Z</time></trkpt><trkpt lat="39.4770817" lon="8.4939433"><ele>247.0</ele><time>2026-05-01T09:29:48.78Z</time></trkpt><trkpt lat="39.4770817" lon="8.493835"><ele>247.0</ele><time>2026-05-01T09:29:49.78Z</time></trkpt><trkpt lat="39.477075" lon="8.49375"><ele>247.0</ele><time>2026-05-01T09:29:50.78Z</time></trkpt><trkpt lat="39.4770517" lon="8.49367"><ele>247.0</ele><time>2026-05-01T09:29:51.78Z</time></trkpt><trkpt lat="39.4770067" lon="8.4936117"><ele>247.0</ele><time>2026-05-01T09:29:52.781Z</time></trkpt><trkpt lat="39.4769483" lon="8.493575"><ele>247.0</ele><time>2026-05-01T09:29:53.78Z</time></trkpt><trkpt lat="39.4768783" lon="8.49356"><ele>251.16666666666666</ele><time>2026-05-01T09:29:54.78Z</time></trkpt><trkpt lat="39.4767967" lon="8.4935767"><ele>255.33333333333331</ele><time>2026-05-01T09:29:55.78Z</time></trkpt><trkpt lat="39.476715" lon="8.493625"><ele>259.5</ele><time>2026-05-01T09:29:56.781Z</time></trkpt><trkpt lat="39.4766383" lon="8.4936733"><ele>263.6666666666667</ele><time>2026-05-01T09:29:57.781Z</time></trkpt><trkpt lat="39.47656" lon="8.4937217"><ele>267.83333333333337</ele><time>2026-05-01T09:29:58.78Z</time></trkpt><trkpt lat="39.4764817" lon="8.49375"><ele>272.0</ele><time>2026-05-01T09:29:59.78Z</time></trkpt><trkpt lat="39.476395" lon="8.49374"><ele>272.0</ele><time>2026-05-01T09:30:00.78Z</time></trkpt><trkpt lat="39.4763133" lon="8.4937267"><ele>272.0</ele><time>2026-05-01T09:30:01.78Z</time></trkpt><trkpt lat="39.4762583" lon="8.4936683"><ele>272.0</ele><time>2026-05-01T09:30:02.781Z</time></trkpt><trkpt lat="39.476195" lon="8.4935983"><ele>272.0</ele><time>2026-05-01T09:30:03.781Z</time></trkpt><trkpt lat="39.4761267" lon="8.4935683"><ele>272.0</ele><time>2026-05-01T09:30:04.781Z</time></trkpt><trkpt lat="39.4760517" lon="8.493575"><ele>272.0</ele><time>2026-05-01T09:30:05.781Z</time></trkpt><trkpt lat="39.475975" lon="8.49363"><ele>271.6</ele><time>2026-05-01T09:30:06.781Z</time></trkpt><trkpt lat="39.4759017" lon="8.4937333"><ele>271.2</ele><time>2026-05-01T09:30:07.78Z</time></trkpt><trkpt lat="39.4758467" lon="8.4938417"><ele>270.8</ele><time>2026-05-01T09:30:08.78Z</time></trkpt><trkpt lat="39.475795" lon="8.4939583"><ele>270.4</ele><time>2026-05-01T09:30:09.781Z</time></trkpt><trkpt lat="39.4757483" lon="8.4940683"><ele>270.0</ele><time>2026-05-01T09:30:10.78Z</time></trkpt><trkpt lat="39.475695" lon="8.494175"><ele>266.0</ele><time>2026-05-01T09:30:11.78Z</time></trkpt><trkpt lat="39.4756417" lon="8.4942617"><ele>262.0</ele><time>2026-05-01T09:30:12.781Z</time></trkpt><trkpt lat="39.4755817" lon="8.4943433"><ele>258.0</ele><time>2026-05-01T09:30:13.78Z</time></trkpt><trkpt lat="39.4755233" lon="8.4943933"><ele>254.0</ele><time>2026-05-01T09:30:14.78Z</time></trkpt><trkpt lat="39.47546" lon="8.4944133"><ele>250.0</ele><time>2026-05-01T09:30:15.781Z</time></trkpt><trkpt lat="39.4753833" lon="8.4944217"><ele>246.0</ele><time>2026-05-01T09:30:16.78Z</time></trkpt><trkpt lat="39.47528" lon="8.4944017"><ele>246.0</ele><time>2026-05-01T09:30:17.78Z</time></trkpt><trkpt lat="39.4751367" lon="8.4943633"><ele>246.0</ele><time>2026-05-01T09:30:18.78Z</time></trkpt><trkpt lat="39.4749767" lon="8.4943033"><ele>246.0</ele><time>2026-05-01T09:30:19.78Z</time></trkpt><trkpt lat="39.4748167" lon="8.49424"><ele>246.0</ele><time>2026-05-01T09:30:20.78Z</time></trkpt><trkpt lat="39.474655" lon="8.4941733"><ele>246.0</ele><time>2026-05-01T09:30:21.78Z</time></trkpt><trkpt lat="39.4745017" lon="8.4941117"><ele>246.0</ele><time>2026-05-01T09:30:22.781Z</time></trkpt><trkpt lat="39.474355" lon="8.4940433"><ele>248.75</ele><time>2026-05-01T09:30:23.78Z</time></trkpt><trkpt lat="39.4742167" lon="8.4939617"><ele>251.5</ele><time>2026-05-01T09:30:24.781Z</time></trkpt><trkpt lat="39.474095" lon="8.49387"><ele>254.25</ele><time>2026-05-01T09:30:25.78Z</time></trkpt><trkpt lat="39.4739683" lon="8.493785"><ele>257.0</ele><time>2026-05-01T09:30:26.78Z</time></trkpt><trkpt lat="39.4738317" lon="8.4937483"><ele>249.25</ele><time>2026-05-01T09:30:27.78Z</time></trkpt><trkpt lat="39.4736917" lon="8.4937217"><ele>241.5</ele><time>2026-05-01T09:30:28.78Z</time></trkpt><trkpt lat="39.473565" lon="8.4936833"><ele>233.75</ele><time>2026-05-01T09:30:29.78Z</time></trkpt><trkpt lat="39.47345" lon="8.49362"><ele>226.0</ele><time>2026-05-01T09:30:30.78Z</time></trkpt><trkpt lat="39.4733517" lon="8.4935233"><ele>226.0</ele><time>2026-05-01T09:30:31.78Z</time></trkpt><trkpt lat="39.4732917" lon="8.4933933"><ele>226.0</ele><time>2026-05-01T09:30:32.78Z</time></trkpt><trkpt lat="39.4732617" lon="8.4932367"><ele>226.0</ele><time>2026-05-01T09:30:33.781Z</time></trkpt><trkpt lat="39.4732633" lon="8.493055"><ele>226.0</ele><time>2026-05-01T09:30:34.781Z</time></trkpt><trkpt lat="39.4732783" lon="8.4928733"><ele>229.5</ele><time>2026-05-01T09:30:35.781Z</time></trkpt><trkpt lat="39.4732667" lon="8.4927183"><ele>233.0</ele><time>2026-05-01T09:30:36.781Z</time></trkpt><trkpt lat="39.47322" lon="8.49259"><ele>236.5</ele><time>2026-05-01T09:30:37.78Z</time></trkpt><trkpt lat="39.4731433" lon="8.49249"><ele>240.0</ele><time>2026-05-01T09:30:38.78Z</time></trkpt><trkpt lat="39.473035" lon="8.4923783"><ele>240.0</ele><time>2026-05-01T09:30:39.781Z</time></trkpt><trkpt lat="39.472945" lon="8.4922417"><ele>240.0</ele><time>2026-05-01T09:30:40.78Z</time></trkpt><trkpt lat="39.4728767" lon="8.492065"><ele>240.0</ele><time>2026-05-01T09:30:41.78Z</time></trkpt><trkpt lat="39.4728367" lon="8.4918633"><ele>233.75</ele><time>2026-05-01T09:30:42.78Z</time></trkpt><trkpt lat="39.4728283" lon="8.49167"><ele>227.5</ele><time>2026-05-01T09:30:43.78Z</time></trkpt><trkpt lat="39.472825" lon="8.4915033"><ele>221.25</ele><time>2026-05-01T09:30:44.78Z</time></trkpt><trkpt lat="39.4728183" lon="8.4913633"><ele>215.0</ele><time>2026-05-01T09:30:45.781Z</time></trkpt><trkpt lat="39.4727667" lon="8.49126"><ele>219.75</ele><time>2026-05-01T09:30:46.78Z</time></trkpt><trkpt lat="39.4726783" lon="8.4911867"><ele>224.5</ele><time>2026-05-01T09:30:47.78Z</time></trkpt><trkpt lat="39.4725567" lon="8.49114"><ele>229.25</ele><time>2026-05-01T09:30:48.781Z</time></trkpt><trkpt lat="39.47241" lon="8.4911233"><ele>234.0</ele><time>2026-05-01T09:30:49.78Z</time></trkpt><trkpt lat="39.47225" lon="8.4911083"><ele>231.0</ele><time>2026-05-01T09:30:50.78Z</time></trkpt><trkpt lat="39.4720883" lon="8.49109"><ele>228.0</ele><time>2026-05-01T09:30:51.781Z</time></trkpt><trkpt lat="39.471915" lon="8.49106"><ele>225.0</ele><time>2026-05-01T09:30:52.78Z</time></trkpt><trkpt lat="39.4717333" lon="8.4910333"><ele>225.0</ele><time>2026-05-01T09:30:53.78Z</time></trkpt><trkpt lat="39.4715467" lon="8.4910167"><ele>225.0</ele><time>2026-05-01T09:30:54.78Z</time></trkpt><trkpt lat="39.4713733" lon="8.49102"><ele>225.0</ele><time>2026-05-01T09:30:55.78Z</time></trkpt><trkpt lat="39.4711983" lon="8.4910183"><ele>224.33333333333331</ele><time>2026-05-01T09:30:56.78Z</time></trkpt><trkpt lat="39.4710517" lon="8.4910583"><ele>223.66666666666666</ele><time>2026-05-01T09:30:57.781Z</time></trkpt><trkpt lat="39.4709083" lon="8.4910967"><ele>223.0</ele><time>2026-05-01T09:30:58.78Z</time></trkpt><trkpt lat="39.470755" lon="8.4910883"><ele>223.0</ele><time>2026-05-01T09:30:59.781Z</time></trkpt><trkpt lat="39.4705983" lon="8.4910467"><ele>223.0</ele><time>2026-05-01T09:31:00.78Z</time></trkpt><trkpt lat="39.470445" lon="8.4909867"><ele>223.0</ele><time>2026-05-01T09:31:01.781Z</time></trkpt><trkpt lat="39.4703017" lon="8.4909167"><ele>224.0</ele><time>2026-05-01T09:31:02.78Z</time></trkpt><trkpt lat="39.4701833" lon="8.4908217"><ele>225.0</ele><time>2026-05-01T09:31:03.78Z</time></trkpt><trkpt lat="39.470075" lon="8.4906917"><ele>226.0</ele><time>2026-05-01T09:31:04.78Z</time></trkpt><trkpt lat="39.4699783" lon="8.4905233"><ele>227.0</ele><time>2026-05-01T09:31:05.78Z</time></trkpt><trkpt lat="39.469875" lon="8.4903467"><ele>227.0</ele><time>2026-05-01T09:31:06.781Z</time></trkpt><trkpt lat="39.4697617" lon="8.4901817"><ele>227.0</ele><time>2026-05-01T09:31:07.781Z</time></trkpt><trkpt lat="39.469625" lon="8.4900317"><ele>227.0</ele><time>2026-05-01T09:31:08.78Z</time></trkpt><trkpt lat="39.46947" lon="8.489895"><ele>223.66666666666669</ele><time>2026-05-01T09:31:09.78Z</time></trkpt><trkpt lat="39.469305" lon="8.4897767"><ele>220.33333333333331</ele><time>2026-05-01T09:31:10.78Z</time></trkpt><trkpt lat="39.4691417" lon="8.4896583"><ele>217.0</ele><time>2026-05-01T09:31:11.78Z</time></trkpt><trkpt lat="39.4689783" lon="8.48955"><ele>217.0</ele><time>2026-05-01T09:31:12.78Z</time></trkpt><trkpt lat="39.4688383" lon="8.4894533"><ele>217.0</ele><time>2026-05-01T09:31:13.78Z</time></trkpt><trkpt lat="39.4687133" lon="8.4893617"><ele>217.0</ele><time>2026-05-01T09:31:14.78Z</time></trkpt><trkpt lat="39.46861" lon="8.489265"><ele>217.0</ele><time>2026-05-01T09:31:15.78Z</time></trkpt><trkpt lat="39.46854" lon="8.4891467"><ele>210.25</ele><time>2026-05-01T09:31:16.781Z</time></trkpt><trkpt lat="39.4685083" lon="8.4890117"><ele>203.5</ele><time>2026-05-01T09:31:17.781Z</time></trkpt><trkpt lat="39.468505" lon="8.4888433"><ele>196.75</ele><time>2026-05-01T09:31:18.78Z</time></trkpt><trkpt lat="39.4685267" lon="8.4886517"><ele>190.0</ele><time>2026-05-01T09:31:19.78Z</time></trkpt><trkpt lat="39.4685567" lon="8.4884683"><ele>190.0</ele><time>2026-05-01T09:31:20.78Z</time></trkpt><trkpt lat="39.4685867" lon="8.488305"><ele>190.0</ele><time>2026-05-01T09:31:21.781Z</time></trkpt><trkpt lat="39.4685917" lon="8.48816"><ele>190.0</ele><time>2026-05-01T09:31:22.781Z</time></trkpt><trkpt lat="39.4685683" lon="8.4880383"><ele>190.0</ele><time>2026-05-01T09:31:23.78Z</time></trkpt><trkpt lat="39.4685017" lon="8.4879317"><ele>190.0</ele><time>2026-05-01T09:31:24.78Z</time></trkpt><trkpt lat="39.4684117" lon="8.4878717"><ele>186.5</ele><time>2026-05-01T09:31:25.78Z</time></trkpt><trkpt lat="39.4683083" lon="8.4878283"><ele>183.0</ele><time>2026-05-01T09:31:26.78Z</time></trkpt><trkpt lat="39.4681933" lon="8.4878333"><ele>179.5</ele><time>2026-05-01T09:31:27.78Z</time></trkpt><trkpt lat="39.4680667" lon="8.487875"><ele>176.0</ele><time>2026-05-01T09:31:28.78Z</time></trkpt><trkpt lat="39.4678983" lon="8.4879383"><ele>176.0</ele><time>2026-05-01T09:31:29.78Z</time></trkpt><trkpt lat="39.4677367" lon="8.4879867"><ele>176.0</ele><time>2026-05-01T09:31:30.781Z</time></trkpt><trkpt lat="39.4675867" lon="8.4880567"><ele>176.0</ele><time>2026-05-01T09:31:31.78Z</time></trkpt><trkpt lat="39.4674517" lon="8.4881417"><ele>176.0</ele><time>2026-05-01T09:31:32.78Z</time></trkpt><trkpt lat="39.4673383" lon="8.4882167"><ele>176.0</ele><time>2026-05-01T09:31:33.781Z</time></trkpt><trkpt lat="39.4672367" lon="8.48828"><ele>176.0</ele><time>2026-05-01T09:31:34.781Z</time></trkpt><trkpt lat="39.46712" lon="8.48831"><ele>176.0</ele><time>2026-05-01T09:31:35.781Z</time></trkpt><trkpt lat="39.4669967" lon="8.4882967"><ele>174.20000000000002</ele><time>2026-05-01T09:31:36.78Z</time></trkpt><trkpt lat="39.4668917" lon="8.4882233"><ele>172.4</ele><time>2026-05-01T09:31:37.78Z</time></trkpt><trkpt lat="39.466805" lon="8.4881133"><ele>170.6</ele><time>2026-05-01T09:31:38.78Z</time></trkpt><trkpt lat="39.4667517" lon="8.4879967"><ele>168.8</ele><time>2026-05-01T09:31:39.78Z</time></trkpt><trkpt lat="39.4667383" lon="8.4878717"><ele>167.0</ele><time>2026-05-01T09:31:40.781Z</time></trkpt><trkpt lat="39.466765" lon="8.4877367"><ele>167.0</ele><time>2026-05-01T09:31:41.781Z</time></trkpt><trkpt lat="39.4668083" lon="8.4876067"><ele>167.0</ele><time>2026-05-01T09:31:42.78Z</time></trkpt><trkpt lat="39.4668333" lon="8.4874717"><ele>167.0</ele><time>2026-05-01T09:31:43.78Z</time></trkpt><trkpt lat="39.4668217" lon="8.4873333"><ele>167.0</ele><time>2026-05-01T09:31:44.78Z</time></trkpt><trkpt lat="39.4667667" lon="8.487195"><ele>167.0</ele><time>2026-05-01T09:31:45.78Z</time></trkpt><trkpt lat="39.4667167" lon="8.4870667"><ele>166.25</ele><time>2026-05-01T09:31:46.78Z</time></trkpt><trkpt lat="39.4667" lon="8.4869283"><ele>165.5</ele><time>2026-05-01T09:31:47.781Z</time></trkpt><trkpt lat="39.4667233" lon="8.486785"><ele>164.75</ele><time>2026-05-01T09:31:48.78Z</time></trkpt><trkpt lat="39.4667767" lon="8.4866417"><ele>164.0</ele><time>2026-05-01T09:31:49.78Z</time></trkpt><trkpt lat="39.466815" lon="8.4864933"><ele>164.0</ele><time>2026-05-01T09:31:50.78Z</time></trkpt><trkpt lat="39.4668283" lon="8.4863617"><ele>164.0</ele><time>2026-05-01T09:31:51.78Z</time></trkpt><trkpt lat="39.4667967" lon="8.4862517"><ele>164.0</ele><time>2026-05-01T09:31:52.78Z</time></trkpt><trkpt lat="39.46673" lon="8.48618"><ele>164.0</ele><time>2026-05-01T09:31:53.78Z</time></trkpt><trkpt lat="39.4666417" lon="8.486145"><ele>164.0</ele><time>2026-05-01T09:31:54.78Z</time></trkpt><trkpt lat="39.4665517" lon="8.486135"><ele>165.39999999999998</ele><time>2026-05-01T09:31:55.78Z</time></trkpt><trkpt lat="39.4664667" lon="8.48611"><ele>166.8</ele><time>2026-05-01T09:31:56.78Z</time></trkpt><trkpt lat="39.4663983" lon="8.48604"><ele>168.2</ele><time>2026-05-01T09:31:57.78Z</time></trkpt><trkpt lat="39.4663517" lon="8.4859183"><ele>169.60000000000002</ele><time>2026-05-01T09:31:58.779Z</time></trkpt><trkpt lat="39.4663417" lon="8.4857667"><ele>171.0</ele><time>2026-05-01T09:31:59.779Z</time></trkpt><trkpt lat="39.4663283" lon="8.485625"><ele>171.0</ele><time>2026-05-01T09:32:00.779Z</time></trkpt><trkpt lat="39.4662833" lon="8.48551"><ele>171.0</ele><time>2026-05-01T09:32:01.78Z</time></trkpt><trkpt lat="39.4662017" lon="8.485425"><ele>171.0</ele><time>2026-05-01T09:32:02.779Z</time></trkpt><trkpt lat="39.4661067" lon="8.4853233"><ele>171.0</ele><time>2026-05-01T09:32:03.779Z</time></trkpt><trkpt lat="39.4660283" lon="8.485175"><ele>172.25</ele><time>2026-05-01T09:32:04.779Z</time></trkpt><trkpt lat="39.4659667" lon="8.485"><ele>173.5</ele><time>2026-05-01T09:32:05.779Z</time></trkpt><trkpt lat="39.4659017" lon="8.4848333"><ele>174.75</ele><time>2026-05-01T09:32:06.779Z</time></trkpt><trkpt lat="39.4658167" lon="8.48469"><ele>176.0</ele><time>2026-05-01T09:32:07.779Z</time></trkpt><trkpt lat="39.4657083" lon="8.4845683"><ele>176.0</ele><time>2026-05-01T09:32:08.779Z</time></trkpt><trkpt lat="39.4655667" lon="8.4844717"><ele>176.0</ele><time>2026-05-01T09:32:09.779Z</time></trkpt><trkpt lat="39.465405" lon="8.484395"><ele>176.0</ele><time>2026-05-01T09:32:10.779Z</time></trkpt><trkpt lat="39.4652567" lon="8.4843217"><ele>168.25</ele><time>2026-05-01T09:32:11.779Z</time></trkpt><trkpt lat="39.4651333" lon="8.48425"><ele>160.5</ele><time>2026-05-01T09:32:12.779Z</time></trkpt><trkpt lat="39.4650317" lon="8.4841767"><ele>152.75</ele><time>2026-05-01T09:32:13.779Z</time></trkpt><trkpt lat="39.464945" lon="8.48408"><ele>145.0</ele><time>2026-05-01T09:32:14.779Z</time></trkpt><trkpt lat="39.4649" lon="8.4839533"><ele>145.0</ele><time>2026-05-01T09:32:15.779Z</time></trkpt><trkpt lat="39.4648917" lon="8.48381"><ele>145.0</ele><time>2026-05-01T09:32:16.78Z</time></trkpt><trkpt lat="39.46493" lon="8.483655"><ele>145.0</ele><time>2026-05-01T09:32:17.779Z</time></trkpt><trkpt lat="39.465005" lon="8.483505"><ele>145.0</ele><time>2026-05-01T09:32:18.78Z</time></trkpt><trkpt lat="39.4651067" lon="8.4833683"><ele>143.25</ele><time>2026-05-01T09:32:19.779Z</time></trkpt><trkpt lat="39.46522" lon="8.4832633"><ele>141.5</ele><time>2026-05-01T09:32:20.779Z</time></trkpt><trkpt lat="39.465315" lon="8.4831667"><ele>139.75</ele><time>2026-05-01T09:32:21.779Z</time></trkpt><trkpt lat="39.4653567" lon="8.4830483"><ele>138.0</ele><time>2026-05-01T09:32:22.78Z</time></trkpt><trkpt lat="39.4653667" lon="8.48292"><ele>135.20000000000002</ele><time>2026-05-01T09:32:23.78Z</time></trkpt><trkpt lat="39.465335" lon="8.482795"><ele>132.4</ele><time>2026-05-01T09:32:24.779Z</time></trkpt><trkpt lat="39.46528" lon="8.482675"><ele>129.60000000000002</ele><time>2026-05-01T09:32:25.78Z</time></trkpt><trkpt lat="39.4652483" lon="8.4825417"><ele>126.80000000000001</ele><time>2026-05-01T09:32:26.78Z</time></trkpt><trkpt lat="39.46526" lon="8.48239"><ele>124.0</ele><time>2026-05-01T09:32:27.779Z</time></trkpt><trkpt lat="39.4653267" lon="8.48225"><ele>124.0</ele><time>2026-05-01T09:32:28.78Z</time></trkpt><trkpt lat="39.4654283" lon="8.482145"><ele>124.0</ele><time>2026-05-01T09:32:29.78Z</time></trkpt><trkpt lat="39.4655517" lon="8.482065"><ele>124.0</ele><time>2026-05-01T09:32:30.779Z</time></trkpt><trkpt lat="39.465665" lon="8.4819783"><ele>124.0</ele><time>2026-05-01T09:32:31.779Z</time></trkpt><trkpt lat="39.4657617" lon="8.481885"><ele>128.0</ele><time>2026-05-01T09:32:32.779Z</time></trkpt><trkpt lat="39.465815" lon="8.4817733"><ele>132.0</ele><time>2026-05-01T09:32:33.779Z</time></trkpt><trkpt lat="39.4658317" lon="8.4816783"><ele>136.0</ele><time>2026-05-01T09:32:34.779Z</time></trkpt><trkpt lat="39.4658133" lon="8.481575"><ele>140.0</ele><time>2026-05-01T09:32:35.779Z</time></trkpt><trkpt lat="39.465765" lon="8.481485"><ele>144.0</ele><time>2026-05-01T09:32:36.779Z</time></trkpt><trkpt lat="39.46568" lon="8.4814"><ele>144.0</ele><time>2026-05-01T09:32:37.779Z</time></trkpt><trkpt lat="39.4655533" lon="8.4813383"><ele>144.0</ele><time>2026-05-01T09:32:38.779Z</time></trkpt><trkpt lat="39.4654017" lon="8.4813"><ele>144.0</ele><time>2026-05-01T09:32:39.78Z</time></trkpt><trkpt lat="39.4652017" lon="8.4813117"><ele>136.66666666666666</ele><time>2026-05-01T09:32:40.78Z</time></trkpt><trkpt lat="39.4650067" lon="8.4813617"><ele>129.33333333333331</ele><time>2026-05-01T09:32:41.78Z</time></trkpt><trkpt lat="39.464835" lon="8.4814317"><ele>122.0</ele><time>2026-05-01T09:32:42.78Z</time></trkpt><trkpt lat="39.4646967" lon="8.481485"><ele>119.6</ele><time>2026-05-01T09:32:43.779Z</time></trkpt><trkpt lat="39.4645883" lon="8.4815033"><ele>117.19999999999999</ele><time>2026-05-01T09:32:44.779Z</time></trkpt><trkpt lat="39.4644883" lon="8.4814783"><ele>114.8</ele><time>2026-05-01T09:32:45.779Z</time></trkpt><trkpt lat="39.4644217" lon="8.4813983"><ele>112.4</ele><time>2026-05-01T09:32:46.779Z</time></trkpt><trkpt lat="39.4643883" lon="8.4812733"><ele>110.0</ele><time>2026-05-01T09:32:47.78Z</time></trkpt><trkpt lat="39.46439" lon="8.481115"><ele>110.0</ele><time>2026-05-01T09:32:48.78Z</time></trkpt><trkpt lat="39.4644167" lon="8.4809617"><ele>110.0</ele><time>2026-05-01T09:32:49.78Z</time></trkpt><trkpt lat="39.46444" lon="8.4808283"><ele>110.0</ele><time>2026-05-01T09:32:50.78Z</time></trkpt><trkpt lat="39.464435" lon="8.4807283"><ele>110.0</ele><time>2026-05-01T09:32:51.779Z</time></trkpt><trkpt lat="39.464385" lon="8.48064"><ele>110.0</ele><time>2026-05-01T09:32:52.779Z</time></trkpt><trkpt lat="39.4643083" lon="8.480585"><ele>110.0</ele><time>2026-05-01T09:32:53.779Z</time></trkpt><trkpt lat="39.46419" lon="8.480555"><ele>110.0</ele><time>2026-05-01T09:32:54.779Z</time></trkpt><trkpt lat="39.4640467" lon="8.4805583"><ele>110.0</ele><time>2026-05-01T09:32:55.779Z</time></trkpt><trkpt lat="39.46388" lon="8.4805783"><ele>110.0</ele><time>2026-05-01T09:32:56.779Z</time></trkpt><trkpt lat="39.4637283" lon="8.4805883"><ele>109.75</ele><time>2026-05-01T09:32:57.779Z</time></trkpt><trkpt lat="39.4635983" lon="8.4806"><ele>109.5</ele><time>2026-05-01T09:32:58.779Z</time></trkpt><trkpt lat="39.463485" lon="8.4805717"><ele>109.25</ele><time>2026-05-01T09:32:59.779Z</time></trkpt><trkpt lat="39.4633917" lon="8.48049"><ele>109.0</ele><time>2026-05-01T09:33:00.779Z</time></trkpt><trkpt lat="39.46331" lon="8.4803583"><ele>109.0</ele><time>2026-05-01T09:33:01.779Z</time></trkpt><trkpt lat="39.4632317" lon="8.4801883"><ele>109.0</ele><time>2026-05-01T09:33:02.779Z</time></trkpt><trkpt lat="39.4631467" lon="8.4800033"><ele>109.0</ele><time>2026-05-01T09:33:03.779Z</time></trkpt><trkpt lat="39.463055" lon="8.479815"><ele>109.0</ele><time>2026-05-01T09:33:04.779Z</time></trkpt><trkpt lat="39.4629567" lon="8.4796233"><ele>109.0</ele><time>2026-05-01T09:33:05.779Z</time></trkpt><trkpt lat="39.46287" lon="8.479435"><ele>109.0</ele><time>2026-05-01T09:33:06.779Z</time></trkpt><trkpt lat="39.4627833" lon="8.479275"><ele>104.0</ele><time>2026-05-01T09:33:07.779Z</time></trkpt><trkpt lat="39.4627183" lon="8.479125"><ele>99.0</ele><time>2026-05-01T09:33:08.779Z</time></trkpt><trkpt lat="39.4626817" lon="8.4789867"><ele>94.0</ele><time>2026-05-01T09:33:09.78Z</time></trkpt><trkpt lat="39.4626867" lon="8.4788617"><ele>89.0</ele><time>2026-05-01T09:33:10.779Z</time></trkpt><trkpt lat="39.4627417" lon="8.4787417"><ele>87.75</ele><time>2026-05-01T09:33:11.779Z</time></trkpt><trkpt lat="39.4628317" lon="8.4786167"><ele>86.5</ele><time>2026-05-01T09:33:12.78Z</time></trkpt><trkpt lat="39.462935" lon="8.4784717"><ele>85.25</ele><time>2026-05-01T09:33:13.779Z</time></trkpt><trkpt lat="39.4630467" lon="8.4783183"><ele>84.0</ele><time>2026-05-01T09:33:14.78Z</time></trkpt><trkpt lat="39.4631633" lon="8.47817"><ele>88.0</ele><time>2026-05-01T09:33:15.779Z</time></trkpt><trkpt lat="39.463265" lon="8.4780267"><ele>92.0</ele><time>2026-05-01T09:33:16.78Z</time></trkpt><trkpt lat="39.463355" lon="8.4778917"><ele>96.0</ele><time>2026-05-01T09:33:17.78Z</time></trkpt><trkpt lat="39.46343" lon="8.4777783"><ele>100.0</ele><time>2026-05-01T09:33:18.78Z</time></trkpt><trkpt lat="39.463475" lon="8.4776633"><ele>100.00000000000001</ele><time>2026-05-01T09:33:19.779Z</time></trkpt><trkpt lat="39.4634883" lon="8.4775567"><ele>100.0</ele><time>2026-05-01T09:33:20.779Z</time></trkpt><trkpt lat="39.4634767" lon="8.4774567"><ele>100.0</ele><time>2026-05-01T09:33:21.779Z</time></trkpt><trkpt lat="39.463435" lon="8.47738"><ele>100.0</ele><time>2026-05-01T09:33:22.78Z</time></trkpt><trkpt lat="39.4633733" lon="8.477335"><ele>100.00000000000001</ele><time>2026-05-01T09:33:23.78Z</time></trkpt><trkpt lat="39.4632967" lon="8.4773267"><ele>100.0</ele><time>2026-05-01T09:33:24.779Z</time></trkpt><trkpt lat="39.4632067" lon="8.4773783"><ele>100.0</ele><time>2026-05-01T09:33:25.779Z</time></trkpt><trkpt lat="39.4631017" lon="8.4774917"><ele>100.0</ele><time>2026-05-01T09:33:26.78Z</time></trkpt><trkpt lat="39.4629867" lon="8.4776333"><ele>100.0</ele><time>2026-05-01T09:33:27.78Z</time></trkpt><trkpt lat="39.4628533" lon="8.4777567"><ele>100.0</ele><time>2026-05-01T09:33:28.779Z</time></trkpt><trkpt lat="39.462725" lon="8.4778517"><ele>100.0</ele><time>2026-05-01T09:33:29.779Z</time></trkpt><trkpt lat="39.4625867" lon="8.4779317"><ele>100.0</ele><time>2026-05-01T09:33:30.779Z</time></trkpt><trkpt lat="39.462445" lon="8.4779983"><ele>96.75</ele><time>2026-05-01T09:33:31.78Z</time></trkpt><trkpt lat="39.462305" lon="8.4780383"><ele>93.5</ele><time>2026-05-01T09:33:32.78Z</time></trkpt><trkpt lat="39.4621717" lon="8.4780817"><ele>90.25</ele><time>2026-05-01T09:33:33.78Z</time></trkpt><trkpt lat="39.4620467" lon="8.4781567"><ele>87.0</ele><time>2026-05-01T09:33:34.779Z</time></trkpt><trkpt lat="39.4619367" lon="8.47828"><ele>87.0</ele><time>2026-05-01T09:33:35.779Z</time></trkpt><trkpt lat="39.4618433" lon="8.4784333"><ele>87.0</ele><time>2026-05-01T09:33:36.78Z</time></trkpt><trkpt lat="39.4617517" lon="8.4786117"><ele>87.0</ele><time>2026-05-01T09:33:37.779Z</time></trkpt><trkpt lat="39.4616683" lon="8.4788033"><ele>83.5</ele><time>2026-05-01T09:33:38.779Z</time></trkpt><trkpt lat="39.4615817" lon="8.478975"><ele>80.0</ele><time>2026-05-01T09:33:39.779Z</time></trkpt><trkpt lat="39.4614867" lon="8.4791233"><ele>76.5</ele><time>2026-05-01T09:33:40.779Z</time></trkpt><trkpt lat="39.4613983" lon="8.4792667"><ele>73.0</ele><time>2026-05-01T09:33:41.779Z</time></trkpt><trkpt lat="39.4613083" lon="8.4794"><ele>73.75</ele><time>2026-05-01T09:33:42.78Z</time></trkpt><trkpt lat="39.4612317" lon="8.4795317"><ele>74.5</ele><time>2026-05-01T09:33:43.779Z</time></trkpt><trkpt lat="39.4611467" lon="8.4796383"><ele>75.25</ele><time>2026-05-01T09:33:44.779Z</time></trkpt><trkpt lat="39.4610433" lon="8.4797033"><ele>76.0</ele><time>2026-05-01T09:33:45.78Z</time></trkpt><trkpt lat="39.4609267" lon="8.479725"><ele>76.0</ele><time>2026-05-01T09:33:46.779Z</time></trkpt><trkpt lat="39.4608067" lon="8.4797017"><ele>76.0</ele><time>2026-05-01T09:33:47.779Z</time></trkpt><trkpt lat="39.460685" lon="8.4796267"><ele>76.0</ele><time>2026-05-01T09:33:48.78Z</time></trkpt><trkpt lat="39.4605567" lon="8.4795233"><ele>76.0</ele><time>2026-05-01T09:33:49.779Z</time></trkpt><trkpt lat="39.460425" lon="8.4794117"><ele>71.33333333333333</ele><time>2026-05-01T09:33:50.779Z</time></trkpt><trkpt lat="39.46029" lon="8.4792967"><ele>66.66666666666667</ele><time>2026-05-01T09:33:51.779Z</time></trkpt><trkpt lat="39.46017" lon="8.4791633"><ele>62.0</ele><time>2026-05-01T09:33:52.78Z</time></trkpt><trkpt lat="39.46007" lon="8.4790183"><ele>62.0</ele><time>2026-05-01T09:33:53.779Z</time></trkpt><trkpt lat="39.459975" lon="8.4788883"><ele>62.0</ele><time>2026-05-01T09:33:54.78Z</time></trkpt><trkpt lat="39.45988" lon="8.47879"><ele>62.0</ele><time>2026-05-01T09:33:55.779Z</time></trkpt><trkpt lat="39.4597583" lon="8.478735"><ele>62.0</ele><time>2026-05-01T09:33:56.78Z</time></trkpt><trkpt lat="39.4596217" lon="8.478735"><ele>63.333333333333336</ele><time>2026-05-01T09:33:57.779Z</time></trkpt><trkpt lat="39.4594583" lon="8.4787417"><ele>64.66666666666667</ele><time>2026-05-01T09:33:58.779Z</time></trkpt><trkpt lat="39.4592817" lon="8.478745"><ele>66.0</ele><time>2026-05-01T09:33:59.779Z</time></trkpt><trkpt lat="39.4590933" lon="8.478735"><ele>66.0</ele><time>2026-05-01T09:34:00.779Z</time></trkpt><trkpt lat="39.4589033" lon="8.4787083"><ele>66.0</ele><time>2026-05-01T09:34:01.779Z</time></trkpt><trkpt lat="39.4587117" lon="8.4786733"><ele>66.0</ele><time>2026-05-01T09:34:02.779Z</time></trkpt><trkpt lat="39.4585217" lon="8.47862"><ele>63.0</ele><time>2026-05-01T09:34:03.779Z</time></trkpt><trkpt lat="39.4583333" lon="8.4785667"><ele>60.0</ele><time>2026-05-01T09:34:04.779Z</time></trkpt><trkpt lat="39.4581533" lon="8.4785067"><ele>57.0</ele><time>2026-05-01T09:34:05.779Z</time></trkpt><trkpt lat="39.4579817" lon="8.4784467"><ele>54.33333333333333</ele><time>2026-05-01T09:34:06.779Z</time></trkpt><trkpt lat="39.45782" lon="8.4783983"><ele>51.666666666666664</ele><time>2026-05-01T09:34:07.779Z</time></trkpt><trkpt lat="39.4576667" lon="8.4783533"><ele>49.0</ele><time>2026-05-01T09:34:08.78Z</time></trkpt><trkpt lat="39.4575133" lon="8.4783133"><ele>49.0</ele><time>2026-05-01T09:34:09.779Z</time></trkpt><trkpt lat="39.4573567" lon="8.4783017"><ele>49.0</ele><time>2026-05-01T09:34:10.78Z</time></trkpt><trkpt lat="39.4572067" lon="8.47834"><ele>49.0</ele><time>2026-05-01T09:34:11.779Z</time></trkpt><trkpt lat="39.4570617" lon="8.4783917"><ele>48.0</ele><time>2026-05-01T09:34:12.779Z</time></trkpt><trkpt lat="39.45691" lon="8.478465"><ele>47.0</ele><time>2026-05-01T09:34:13.78Z</time></trkpt><trkpt lat="39.4567617" lon="8.4785083"><ele>46.0</ele><time>2026-05-01T09:34:14.779Z</time></trkpt><trkpt lat="39.456615" lon="8.47853"><ele>46.0</ele><time>2026-05-01T09:34:15.779Z</time></trkpt><trkpt lat="39.4564633" lon="8.4785333"><ele>46.0</ele><time>2026-05-01T09:34:16.779Z</time></trkpt><trkpt lat="39.4563" lon="8.4785183"><ele>46.0</ele><time>2026-05-01T09:34:17.779Z</time></trkpt><trkpt lat="39.456125" lon="8.4784867"><ele>44.66666666666667</ele><time>2026-05-01T09:34:18.779Z</time></trkpt><trkpt lat="39.4559533" lon="8.47845"><ele>43.333333333333336</ele><time>2026-05-01T09:34:19.779Z</time></trkpt><trkpt lat="39.45578" lon="8.478435"><ele>42.0</ele><time>2026-05-01T09:34:20.779Z</time></trkpt><trkpt lat="39.4556067" lon="8.4784333"><ele>41.0</ele><time>2026-05-01T09:34:21.779Z</time></trkpt><trkpt lat="39.4554367" lon="8.47843"><ele>40.0</ele><time>2026-05-01T09:34:22.779Z</time></trkpt><trkpt lat="39.4552667" lon="8.4784267"><ele>39.0</ele><time>2026-05-01T09:34:23.779Z</time></trkpt><trkpt lat="39.4551" lon="8.478435"><ele>39.0</ele><time>2026-05-01T09:34:24.779Z</time></trkpt><trkpt lat="39.454935" lon="8.478435"><ele>39.0</ele><time>2026-05-01T09:34:25.78Z</time></trkpt><trkpt lat="39.4547733" lon="8.47844"><ele>39.0</ele><time>2026-05-01T09:34:26.779Z</time></trkpt><trkpt lat="39.45461" lon="8.4784467"><ele>39.0</ele><time>2026-05-01T09:34:27.779Z</time></trkpt><trkpt lat="39.45445" lon="8.4784467"><ele>39.0</ele><time>2026-05-01T09:34:28.78Z</time></trkpt><trkpt lat="39.4542933" lon="8.47845"><ele>39.0</ele><time>2026-05-01T09:34:29.779Z</time></trkpt><trkpt lat="39.4541467" lon="8.4784383"><ele>39.0</ele><time>2026-05-01T09:34:30.779Z</time></trkpt><trkpt lat="39.4540033" lon="8.4784417"><ele>39.0</ele><time>2026-05-01T09:34:31.779Z</time></trkpt><trkpt lat="39.45387" lon="8.4784633"><ele>39.0</ele><time>2026-05-01T09:34:32.78Z</time></trkpt><trkpt lat="39.4537517" lon="8.4785167"><ele>39.0</ele><time>2026-05-01T09:34:33.78Z</time></trkpt><trkpt lat="39.4536567" lon="8.4786"><ele>39.0</ele><time>2026-05-01T09:34:34.779Z</time></trkpt><trkpt lat="39.4535833" lon="8.4787"><ele>39.0</ele><time>2026-05-01T09:34:35.779Z</time></trkpt><trkpt lat="39.4535183" lon="8.4787983"><ele>39.0</ele><time>2026-05-01T09:34:36.779Z</time></trkpt><trkpt lat="39.453465" lon="8.47889"><ele>39.0</ele><time>2026-05-01T09:34:37.779Z</time></trkpt><trkpt lat="39.4534117" lon="8.4789583"><ele>39.0</ele><time>2026-05-01T09:34:38.779Z</time></trkpt><trkpt lat="39.453345" lon="8.479005"><ele>39.0</ele><time>2026-05-01T09:34:39.779Z</time></trkpt><trkpt lat="39.4532683" lon="8.479035"><ele>39.0</ele><time>2026-05-01T09:34:40.779Z</time></trkpt><trkpt lat="39.4531717" lon="8.4790483"><ele>39.0</ele><time>2026-05-01T09:34:41.779Z</time></trkpt><trkpt lat="39.45305" lon="8.47904"><ele>39.0</ele><time>2026-05-01T09:34:42.779Z</time></trkpt><trkpt lat="39.4529183" lon="8.4790133"><ele>39.0</ele><time>2026-05-01T09:34:43.779Z</time></trkpt><trkpt lat="39.45278" lon="8.47898"><ele>37.666666666666664</ele><time>2026-05-01T09:34:44.779Z</time></trkpt><trkpt lat="39.4526333" lon="8.4789433"><ele>36.33333333333333</ele><time>2026-05-01T09:34:45.779Z</time></trkpt><trkpt lat="39.45248" lon="8.4789"><ele>35.0</ele><time>2026-05-01T09:34:46.779Z</time></trkpt><trkpt lat="39.45233" lon="8.4788633"><ele>35.0</ele><time>2026-05-01T09:34:47.779Z</time></trkpt><trkpt lat="39.4521733" lon="8.4788333"><ele>35.0</ele><time>2026-05-01T09:34:48.78Z</time></trkpt><trkpt lat="39.4520167" lon="8.4787917"><ele>35.0</ele><time>2026-05-01T09:34:49.779Z</time></trkpt><trkpt lat="39.45186" lon="8.4787383"><ele>35.0</ele><time>2026-05-01T09:34:50.779Z</time></trkpt><trkpt lat="39.4517133" lon="8.4786617"><ele>35.0</ele><time>2026-05-01T09:34:51.778Z</time></trkpt><trkpt lat="39.4515683" lon="8.4785783"><ele>35.0</ele><time>2026-05-01T09:34:52.778Z</time></trkpt><trkpt lat="39.4514283" lon="8.4785083"><ele>35.0</ele><time>2026-05-01T09:34:53.778Z</time></trkpt><trkpt lat="39.451295" lon="8.47844"><ele>35.0</ele><time>2026-05-01T09:34:54.778Z</time></trkpt><trkpt lat="39.45116" lon="8.4784067"><ele>35.0</ele><time>2026-05-01T09:34:55.779Z</time></trkpt><trkpt lat="39.4510233" lon="8.4783983"><ele>35.0</ele><time>2026-05-01T09:34:56.778Z</time></trkpt><trkpt lat="39.4508983" lon="8.4784"><ele>35.75</ele><time>2026-05-01T09:34:57.778Z</time></trkpt><trkpt lat="39.4507817" lon="8.4783783"><ele>36.5</ele><time>2026-05-01T09:34:58.778Z</time></trkpt><trkpt lat="39.4506833" lon="8.478325"><ele>37.25</ele><time>2026-05-01T09:34:59.778Z</time></trkpt><trkpt lat="39.4506033" lon="8.4782133"><ele>38.0</ele><time>2026-05-01T09:35:00.778Z</time></trkpt><trkpt lat="39.4505483" lon="8.4780567"><ele>36.666666666666664</ele><time>2026-05-01T09:35:01.779Z</time></trkpt><trkpt lat="39.450505" lon="8.47786"><ele>35.333333333333336</ele><time>2026-05-01T09:35:02.779Z</time></trkpt><trkpt lat="39.45047" lon="8.4776583"><ele>34.0</ele><time>2026-05-01T09:35:03.779Z</time></trkpt><trkpt lat="39.45043" lon="8.4774583"><ele>35.333333333333336</ele><time>2026-05-01T09:35:04.778Z</time></trkpt><trkpt lat="39.45039" lon="8.4772517"><ele>36.666666666666664</ele><time>2026-05-01T09:35:05.778Z</time></trkpt><trkpt lat="39.4503417" lon="8.4770417"><ele>38.0</ele><time>2026-05-01T09:35:06.778Z</time></trkpt><trkpt lat="39.4502967" lon="8.4768317"><ele>38.0</ele><time>2026-05-01T09:35:07.779Z</time></trkpt><trkpt lat="39.4502517" lon="8.4766217"><ele>38.0</ele><time>2026-05-01T09:35:08.779Z</time></trkpt><trkpt lat="39.45021" lon="8.4764317"><ele>38.0</ele><time>2026-05-01T09:35:09.779Z</time></trkpt><trkpt lat="39.450175" lon="8.4762367"><ele>38.0</ele><time>2026-05-01T09:35:10.779Z</time></trkpt><trkpt lat="39.450145" lon="8.47605"><ele>38.0</ele><time>2026-05-01T09:35:11.778Z</time></trkpt><trkpt lat="39.45013" lon="8.4758567"><ele>38.0</ele><time>2026-05-01T09:35:12.778Z</time></trkpt><trkpt lat="39.4501333" lon="8.4756583"><ele>38.0</ele><time>2026-05-01T09:35:13.778Z</time></trkpt><trkpt lat="39.450165" lon="8.4754517"><ele>38.0</ele><time>2026-05-01T09:35:14.778Z</time></trkpt><trkpt lat="39.450205" lon="8.47523"><ele>38.0</ele><time>2026-05-01T09:35:15.778Z</time></trkpt><trkpt lat="39.4502517" lon="8.4750083"><ele>40.0</ele><time>2026-05-01T09:35:16.778Z</time></trkpt><trkpt lat="39.45029" lon="8.474785"><ele>42.0</ele><time>2026-05-01T09:35:17.778Z</time></trkpt><trkpt lat="39.4503217" lon="8.4745633"><ele>44.0</ele><time>2026-05-01T09:35:18.778Z</time></trkpt><trkpt lat="39.4503433" lon="8.4743483"><ele>44.0</ele><time>2026-05-01T09:35:19.778Z</time></trkpt><trkpt lat="39.4503567" lon="8.47413"><ele>44.0</ele><time>2026-05-01T09:35:20.778Z</time></trkpt><trkpt lat="39.4503617" lon="8.4739117"><ele>44.0</ele><time>2026-05-01T09:35:21.779Z</time></trkpt><trkpt lat="39.4503633" lon="8.4736967"><ele>45.0</ele><time>2026-05-01T09:35:22.778Z</time></trkpt><trkpt lat="39.450375" lon="8.47348"><ele>46.0</ele><time>2026-05-01T09:35:23.778Z</time></trkpt><trkpt lat="39.4504017" lon="8.47326"><ele>47.0</ele><time>2026-05-01T09:35:24.778Z</time></trkpt><trkpt lat="39.4504367" lon="8.4730433"><ele>41.0</ele><time>2026-05-01T09:35:25.779Z</time></trkpt><trkpt lat="39.4504733" lon="8.4728283"><ele>35.0</ele><time>2026-05-01T09:35:26.779Z</time></trkpt><trkpt lat="39.4504967" lon="8.4726117"><ele>29.0</ele><time>2026-05-01T09:35:27.778Z</time></trkpt><trkpt lat="39.450505" lon="8.4723883"><ele>29.0</ele><time>2026-05-01T09:35:28.778Z</time></trkpt><trkpt lat="39.4505033" lon="8.47216"><ele>29.0</ele><time>2026-05-01T09:35:29.778Z</time></trkpt><trkpt lat="39.4504933" lon="8.4719267"><ele>29.0</ele><time>2026-05-01T09:35:30.778Z</time></trkpt><trkpt lat="39.4504833" lon="8.4716917"><ele>28.666666666666664</ele><time>2026-05-01T09:35:31.779Z</time></trkpt><trkpt lat="39.45047" lon="8.4714567"><ele>28.333333333333336</ele><time>2026-05-01T09:35:32.778Z</time></trkpt><trkpt lat="39.4504583" lon="8.47122"><ele>28.0</ele><time>2026-05-01T09:35:33.778Z</time></trkpt><trkpt lat="39.4504467" lon="8.47098"><ele>34.66666666666667</ele><time>2026-05-01T09:35:34.778Z</time></trkpt><trkpt lat="39.4504333" lon="8.47074"><ele>41.333333333333336</ele><time>2026-05-01T09:35:35.778Z</time></trkpt><trkpt lat="39.4504233" lon="8.470505"><ele>48.0</ele><time>2026-05-01T09:35:36.778Z</time></trkpt><trkpt lat="39.45041" lon="8.47027"><ele>48.0</ele><time>2026-05-01T09:35:37.778Z</time></trkpt><trkpt lat="39.4503817" lon="8.47003"><ele>48.0</ele><time>2026-05-01T09:35:38.779Z</time></trkpt><trkpt lat="39.450355" lon="8.4697967"><ele>48.0</ele><time>2026-05-01T09:35:39.778Z</time></trkpt><trkpt lat="39.4503283" lon="8.46956"><ele>45.0</ele><time>2026-05-01T09:35:40.778Z</time></trkpt><trkpt lat="39.4502983" lon="8.4693267"><ele>42.0</ele><time>2026-05-01T09:35:41.778Z</time></trkpt><trkpt lat="39.450275" lon="8.4691017"><ele>39.0</ele><time>2026-05-01T09:35:42.778Z</time></trkpt><trkpt lat="39.4502617" lon="8.4688867"><ele>37.25</ele><time>2026-05-01T09:35:43.778Z</time></trkpt><trkpt lat="39.4502633" lon="8.4686833"><ele>35.5</ele><time>2026-05-01T09:35:44.778Z</time></trkpt><trkpt lat="39.45027" lon="8.4684917"><ele>33.75</ele><time>2026-05-01T09:35:45.779Z</time></trkpt><trkpt lat="39.4502583" lon="8.46832"><ele>32.0</ele><time>2026-05-01T09:35:46.778Z</time></trkpt><trkpt lat="39.4502267" lon="8.4681617"><ele>32.0</ele><time>2026-05-01T09:35:47.778Z</time></trkpt><trkpt lat="39.4501533" lon="8.46803"><ele>32.0</ele><time>2026-05-01T09:35:48.778Z</time></trkpt><trkpt lat="39.4500517" lon="8.467935"><ele>32.0</ele><time>2026-05-01T09:35:49.778Z</time></trkpt><trkpt lat="39.44993" lon="8.467875"><ele>32.0</ele><time>2026-05-01T09:35:50.778Z</time></trkpt><trkpt lat="39.4497917" lon="8.4678567"><ele>30.666666666666664</ele><time>2026-05-01T09:35:51.778Z</time></trkpt><trkpt lat="39.449645" lon="8.4678767"><ele>29.333333333333336</ele><time>2026-05-01T09:35:52.778Z</time></trkpt><trkpt lat="39.449485" lon="8.4679067"><ele>28.0</ele><time>2026-05-01T09:35:53.778Z</time></trkpt><trkpt lat="39.4493317" lon="8.467935"><ele>28.25</ele><time>2026-05-01T09:35:54.778Z</time></trkpt><trkpt lat="39.4491817" lon="8.4679467"><ele>28.5</ele><time>2026-05-01T09:35:55.778Z</time></trkpt><trkpt lat="39.449035" lon="8.4679217"><ele>28.75</ele><time>2026-05-01T09:35:56.778Z</time></trkpt><trkpt lat="39.4488933" lon="8.4678667"><ele>29.0</ele><time>2026-05-01T09:35:57.778Z</time></trkpt><trkpt lat="39.448755" lon="8.4677917"><ele>29.0</ele><time>2026-05-01T09:35:58.778Z</time></trkpt><trkpt lat="39.44862" lon="8.4677233"><ele>29.0</ele><time>2026-05-01T09:35:59.779Z</time></trkpt><trkpt lat="39.4484833" lon="8.4676617"><ele>29.0</ele><time>2026-05-01T09:36:00.779Z</time></trkpt><trkpt lat="39.4483533" lon="8.467595"><ele>29.0</ele><time>2026-05-01T09:36:01.778Z</time></trkpt><trkpt lat="39.4482217" lon="8.46752"><ele>29.0</ele><time>2026-05-01T09:36:02.778Z</time></trkpt><trkpt lat="39.4480867" lon="8.4674367"><ele>29.0</ele><time>2026-05-01T09:36:03.778Z</time></trkpt><trkpt lat="39.4479567" lon="8.4673333"><ele>29.0</ele><time>2026-05-01T09:36:04.779Z</time></trkpt><trkpt lat="39.4478267" lon="8.4671983"><ele>29.0</ele><time>2026-05-01T09:36:05.778Z</time></trkpt><trkpt lat="39.4477117" lon="8.4670467"><ele>29.0</ele><time>2026-05-01T09:36:06.778Z</time></trkpt><trkpt lat="39.4476117" lon="8.4668917"><ele>29.0</ele><time>2026-05-01T09:36:07.778Z</time></trkpt><trkpt lat="39.4475217" lon="8.4667233"><ele>29.0</ele><time>2026-05-01T09:36:08.778Z</time></trkpt><trkpt lat="39.4474533" lon="8.46655"><ele>29.0</ele><time>2026-05-01T09:36:09.779Z</time></trkpt><trkpt lat="39.44742" lon="8.4663567"><ele>29.0</ele><time>2026-05-01T09:36:10.778Z</time></trkpt><trkpt lat="39.4474133" lon="8.46616"><ele>28.333333333333332</ele><time>2026-05-01T09:36:11.778Z</time></trkpt><trkpt lat="39.4474133" lon="8.4659533"><ele>27.666666666666664</ele><time>2026-05-01T09:36:12.778Z</time></trkpt><trkpt lat="39.4474183" lon="8.4657433"><ele>27.0</ele><time>2026-05-01T09:36:13.779Z</time></trkpt><trkpt lat="39.4474233" lon="8.4655283"><ele>26.333333333333336</ele><time>2026-05-01T09:36:14.778Z</time></trkpt><trkpt lat="39.44742" lon="8.4653083"><ele>25.666666666666668</ele><time>2026-05-01T09:36:15.778Z</time></trkpt><trkpt lat="39.4474067" lon="8.4650933"><ele>25.0</ele><time>2026-05-01T09:36:16.778Z</time></trkpt><trkpt lat="39.44737" lon="8.4648733"><ele>25.0</ele><time>2026-05-01T09:36:17.778Z</time></trkpt><trkpt lat="39.4473317" lon="8.4646567"><ele>25.0</ele><time>2026-05-01T09:36:18.779Z</time></trkpt><trkpt lat="39.4472983" lon="8.464435"><ele>25.0</ele><time>2026-05-01T09:36:19.778Z</time></trkpt><trkpt lat="39.4472667" lon="8.464215"><ele>24.333333333333336</ele><time>2026-05-01T09:36:20.778Z</time></trkpt><trkpt lat="39.4472283" lon="8.4639967"><ele>23.666666666666668</ele><time>2026-05-01T09:36:21.778Z</time></trkpt><trkpt lat="39.44719" lon="8.4637783"><ele>23.0</ele><time>2026-05-01T09:36:22.779Z</time></trkpt><trkpt lat="39.4471517" lon="8.46357"><ele>25.0</ele><time>2026-05-01T09:36:23.779Z</time></trkpt><trkpt lat="39.4471117" lon="8.4633633"><ele>27.0</ele><time>2026-05-01T09:36:24.778Z</time></trkpt><trkpt lat="39.4470817" lon="8.4631567"><ele>29.0</ele><time>2026-05-01T09:36:25.779Z</time></trkpt><trkpt lat="39.44705" lon="8.4629667"><ele>27.0</ele><time>2026-05-01T09:36:26.779Z</time></trkpt><trkpt lat="39.447015" lon="8.46277"><ele>25.0</ele><time>2026-05-01T09:36:27.778Z</time></trkpt><trkpt lat="39.4470033" lon="8.4625733"><ele>23.0</ele><time>2026-05-01T09:36:28.778Z</time></trkpt><trkpt lat="39.4470183" lon="8.4623817"><ele>23.0</ele><time>2026-05-01T09:36:29.779Z</time></trkpt><trkpt lat="39.4470617" lon="8.4621917"><ele>23.0</ele><time>2026-05-01T09:36:30.778Z</time></trkpt><trkpt lat="39.4471217" lon="8.461995"><ele>23.0</ele><time>2026-05-01T09:36:31.779Z</time></trkpt><trkpt lat="39.4471867" lon="8.4617917"><ele>23.0</ele><time>2026-05-01T09:36:32.778Z</time></trkpt><trkpt lat="39.4472533" lon="8.461585"><ele>23.0</ele><time>2026-05-01T09:36:33.778Z</time></trkpt><trkpt lat="39.4473167" lon="8.4613817"><ele>23.0</ele><time>2026-05-01T09:36:34.778Z</time></trkpt><trkpt lat="39.447385" lon="8.461175"><ele>24.666666666666668</ele><time>2026-05-01T09:36:35.778Z</time></trkpt><trkpt lat="39.4474567" lon="8.4609583"><ele>26.333333333333336</ele><time>2026-05-01T09:36:36.778Z</time></trkpt><trkpt lat="39.4475283" lon="8.46074"><ele>28.0</ele><time>2026-05-01T09:36:37.778Z</time></trkpt><trkpt lat="39.4476017" lon="8.46052"><ele>31.0</ele><time>2026-05-01T09:36:38.778Z</time></trkpt><trkpt lat="39.4476717" lon="8.4602983"><ele>34.0</ele><time>2026-05-01T09:36:39.779Z</time></trkpt><trkpt lat="39.4477417" lon="8.46008"><ele>37.0</ele><time>2026-05-01T09:36:40.778Z</time></trkpt><trkpt lat="39.4478183" lon="8.4598633"><ele>37.0</ele><time>2026-05-01T09:36:41.778Z</time></trkpt><trkpt lat="39.447895" lon="8.45967"><ele>37.0</ele><time>2026-05-01T09:36:42.778Z</time></trkpt><trkpt lat="39.4479767" lon="8.4594817"><ele>37.0</ele><time>2026-05-01T09:36:43.778Z</time></trkpt><trkpt lat="39.4480617" lon="8.4592967"><ele>34.333333333333336</ele><time>2026-05-01T09:36:44.779Z</time></trkpt><trkpt lat="39.44814" lon="8.4591117"><ele>31.666666666666664</ele><time>2026-05-01T09:36:45.778Z</time></trkpt><trkpt lat="39.448215" lon="8.458925"><ele>29.0</ele><time>2026-05-01T09:36:46.778Z</time></trkpt><trkpt lat="39.4482733" lon="8.4587233"><ele>29.0</ele><time>2026-05-01T09:36:47.778Z</time></trkpt><trkpt lat="39.4483167" lon="8.4585233"><ele>29.0</ele><time>2026-05-01T09:36:48.778Z</time></trkpt><trkpt lat="39.4483533" lon="8.458325"><ele>29.0</ele><time>2026-05-01T09:36:49.778Z</time></trkpt><trkpt lat="39.4483883" lon="8.45814"><ele>29.0</ele><time>2026-05-01T09:36:50.778Z</time></trkpt><trkpt lat="39.448415" lon="8.4579717"><ele>29.0</ele><time>2026-05-01T09:36:51.778Z</time></trkpt><trkpt lat="39.44845" lon="8.4578167"><ele>29.0</ele><time>2026-05-01T09:36:52.778Z</time></trkpt><trkpt lat="39.4484833" lon="8.4576817"><ele>29.0</ele><time>2026-05-01T09:36:53.778Z</time></trkpt><trkpt lat="39.4485217" lon="8.4575617"><ele>28.75</ele><time>2026-05-01T09:36:54.778Z</time></trkpt><trkpt lat="39.4485667" lon="8.45744"><ele>28.5</ele><time>2026-05-01T09:36:55.779Z</time></trkpt><trkpt lat="39.44863" lon="8.457315"><ele>28.25</ele><time>2026-05-01T09:36:56.778Z</time></trkpt><trkpt lat="39.448705" lon="8.457175"><ele>28.0</ele><time>2026-05-01T09:36:57.779Z</time></trkpt><trkpt lat="39.4487933" lon="8.45702"><ele>28.0</ele><time>2026-05-01T09:36:58.778Z</time></trkpt><trkpt lat="39.448895" lon="8.4568567"><ele>28.0</ele><time>2026-05-01T09:36:59.778Z</time></trkpt><trkpt lat="39.4490017" lon="8.4566833"><ele>28.0</ele><time>2026-05-01T09:37:00.778Z</time></trkpt><trkpt lat="39.449105" lon="8.45651"><ele>28.0</ele><time>2026-05-01T09:37:01.778Z</time></trkpt><trkpt lat="39.4492083" lon="8.4563417"><ele>28.0</ele><time>2026-05-01T09:37:02.778Z</time></trkpt><trkpt lat="39.4493083" lon="8.45618"><ele>28.0</ele><time>2026-05-01T09:37:03.778Z</time></trkpt><trkpt lat="39.4494" lon="8.4560183"><ele>31.0</ele><time>2026-05-01T09:37:04.778Z</time></trkpt><trkpt lat="39.4494783" lon="8.45586"><ele>34.0</ele><time>2026-05-01T09:37:05.778Z</time></trkpt><trkpt lat="39.4495333" lon="8.4556917"><ele>37.0</ele><time>2026-05-01T09:37:06.778Z</time></trkpt><trkpt lat="39.44957" lon="8.4555117"><ele>40.0</ele><time>2026-05-01T09:37:07.778Z</time></trkpt><trkpt lat="39.4496017" lon="8.4553183"><ele>42.25</ele><time>2026-05-01T09:37:08.778Z</time></trkpt><trkpt lat="39.4496217" lon="8.455115"><ele>44.5</ele><time>2026-05-01T09:37:09.778Z</time></trkpt><trkpt lat="39.449645" lon="8.454935"><ele>46.75</ele><time>2026-05-01T09:37:10.778Z</time></trkpt><trkpt lat="39.4496717" lon="8.4547683"><ele>49.0</ele><time>2026-05-01T09:37:11.779Z</time></trkpt><trkpt lat="39.4496917" lon="8.4546133"><ele>42.25</ele><time>2026-05-01T09:37:12.778Z</time></trkpt><trkpt lat="39.4497083" lon="8.454465"><ele>35.5</ele><time>2026-05-01T09:37:13.778Z</time></trkpt><trkpt lat="39.4497233" lon="8.4543217"><ele>28.75</ele><time>2026-05-01T09:37:14.778Z</time></trkpt><trkpt lat="39.449715" lon="8.454165"><ele>22.0</ele><time>2026-05-01T09:37:15.779Z</time></trkpt><trkpt lat="39.449705" lon="8.453985"><ele>22.0</ele><time>2026-05-01T09:37:16.778Z</time></trkpt><trkpt lat="39.4496933" lon="8.4538017"><ele>22.0</ele><time>2026-05-01T09:37:17.778Z</time></trkpt><trkpt lat="39.4496833" lon="8.4536167"><ele>22.0</ele><time>2026-05-01T09:37:18.778Z</time></trkpt><trkpt lat="39.4496733" lon="8.4534317"><ele>22.0</ele><time>2026-05-01T09:37:19.779Z</time></trkpt><trkpt lat="39.4496617" lon="8.45325"><ele>21.5</ele><time>2026-05-01T09:37:20.778Z</time></trkpt><trkpt lat="39.4496533" lon="8.4530717"><ele>21.0</ele><time>2026-05-01T09:37:21.778Z</time></trkpt><trkpt lat="39.449645" lon="8.452895"><ele>20.5</ele><time>2026-05-01T09:37:22.779Z</time></trkpt><trkpt lat="39.4496333" lon="8.4527133"><ele>20.0</ele><time>2026-05-01T09:37:23.778Z</time></trkpt><trkpt lat="39.4496183" lon="8.4525267"><ele>22.75</ele><time>2026-05-01T09:37:24.778Z</time></trkpt><trkpt lat="39.449605" lon="8.45234"><ele>25.5</ele><time>2026-05-01T09:37:25.778Z</time></trkpt><trkpt lat="39.4495933" lon="8.4521583"><ele>28.25</ele><time>2026-05-01T09:37:26.778Z</time></trkpt><trkpt lat="39.44958" lon="8.451985"><ele>31.0</ele><time>2026-05-01T09:37:27.778Z</time></trkpt><trkpt lat="39.4495683" lon="8.451825"><ele>31.0</ele><time>2026-05-01T09:37:28.779Z</time></trkpt><trkpt lat="39.44957" lon="8.4516783"><ele>31.0</ele><time>2026-05-01T09:37:29.779Z</time></trkpt><trkpt lat="39.44959" lon="8.4515233"><ele>31.0</ele><time>2026-05-01T09:37:30.778Z</time></trkpt><trkpt lat="39.4496283" lon="8.4513683"><ele>31.0</ele><time>2026-05-01T09:37:31.779Z</time></trkpt><trkpt lat="39.44968" lon="8.4512083"><ele>28.0</ele><time>2026-05-01T09:37:32.778Z</time></trkpt><trkpt lat="39.4497317" lon="8.451045"><ele>25.0</ele><time>2026-05-01T09:37:33.778Z</time></trkpt><trkpt lat="39.4497833" lon="8.450885"><ele>22.0</ele><time>2026-05-01T09:37:34.778Z</time></trkpt><trkpt lat="39.4498317" lon="8.4507283"><ele>19.0</ele><time>2026-05-01T09:37:35.778Z</time></trkpt><trkpt lat="39.4498783" lon="8.4505767"><ele>19.25</ele><time>2026-05-01T09:37:36.779Z</time></trkpt><trkpt lat="39.4499283" lon="8.4504317"><ele>19.5</ele><time>2026-05-01T09:37:37.778Z</time></trkpt><trkpt lat="39.44997" lon="8.450295"><ele>19.75</ele><time>2026-05-01T09:37:38.778Z</time></trkpt><trkpt lat="39.4500017" lon="8.45016"><ele>20.0</ele><time>2026-05-01T09:37:39.778Z</time></trkpt><trkpt lat="39.4500283" lon="8.4500233"><ele>20.0</ele><time>2026-05-01T09:37:40.779Z</time></trkpt><trkpt lat="39.45003" lon="8.44988"><ele>20.0</ele><time>2026-05-01T09:37:41.778Z</time></trkpt><trkpt lat="39.4500083" lon="8.44973"><ele>20.0</ele><time>2026-05-01T09:37:42.778Z</time></trkpt><trkpt lat="39.4499583" lon="8.4495833"><ele>20.0</ele><time>2026-05-01T09:37:43.778Z</time></trkpt><trkpt lat="39.4498683" lon="8.449445"><ele>19.25</ele><time>2026-05-01T09:37:44.778Z</time></trkpt><trkpt lat="39.4497733" lon="8.4493117"><ele>18.5</ele><time>2026-05-01T09:37:45.778Z</time></trkpt><trkpt lat="39.4496833" lon="8.449175"><ele>17.75</ele><time>2026-05-01T09:37:46.778Z</time></trkpt><trkpt lat="39.4496017" lon="8.4490417"><ele>17.0</ele><time>2026-05-01T09:37:47.779Z</time></trkpt><trkpt lat="39.449525" lon="8.448925"><ele>16.75</ele><time>2026-05-01T09:37:48.778Z</time></trkpt><trkpt lat="39.4494417" lon="8.448825"><ele>16.5</ele><time>2026-05-01T09:37:49.778Z</time></trkpt><trkpt lat="39.4493567" lon="8.44873"><ele>16.25</ele><time>2026-05-01T09:37:50.778Z</time></trkpt><trkpt lat="39.4492667" lon="8.4486383"><ele>16.0</ele><time>2026-05-01T09:37:51.778Z</time></trkpt><trkpt lat="39.44914" lon="8.4485567"><ele>16.0</ele><time>2026-05-01T09:37:52.777Z</time></trkpt><trkpt lat="39.448995" lon="8.4485033"><ele>16.0</ele><time>2026-05-01T09:37:53.777Z</time></trkpt><trkpt lat="39.4488333" lon="8.4484533"><ele>16.0</ele><time>2026-05-01T09:37:54.778Z</time></trkpt><trkpt lat="39.4486633" lon="8.4484133"><ele>16.666666666666664</ele><time>2026-05-01T09:37:55.778Z</time></trkpt><trkpt lat="39.4485" lon="8.4483517"><ele>17.333333333333332</ele><time>2026-05-01T09:37:56.777Z</time></trkpt><trkpt lat="39.44834" lon="8.4482867"><ele>18.0</ele><time>2026-05-01T09:37:57.777Z</time></trkpt><trkpt lat="39.4481783" lon="8.44821"><ele>18.0</ele><time>2026-05-01T09:37:58.777Z</time></trkpt><trkpt lat="39.4480167" lon="8.4481333"><ele>18.0</ele><time>2026-05-01T09:37:59.777Z</time></trkpt><trkpt lat="39.4478533" lon="8.4480667"><ele>18.0</ele><time>2026-05-01T09:38:00.777Z</time></trkpt><trkpt lat="39.4476917" lon="8.4480083"><ele>16.666666666666668</ele><time>2026-05-01T09:38:01.778Z</time></trkpt><trkpt lat="39.4475283" lon="8.44795"><ele>15.333333333333334</ele><time>2026-05-01T09:38:02.777Z</time></trkpt><trkpt lat="39.44737" lon="8.4478933"><ele>14.0</ele><time>2026-05-01T09:38:03.777Z</time></trkpt><trkpt lat="39.4472233" lon="8.4478367"><ele>15.0</ele><time>2026-05-01T09:38:04.778Z</time></trkpt><trkpt lat="39.4470833" lon="8.447785"><ele>16.0</ele><time>2026-05-01T09:38:05.777Z</time></trkpt><trkpt lat="39.4469417" lon="8.4477083"><ele>17.0</ele><time>2026-05-01T09:38:06.777Z</time></trkpt><trkpt lat="39.4468133" lon="8.447605"><ele>17.0</ele><time>2026-05-01T09:38:07.778Z</time></trkpt><trkpt lat="39.4466917" lon="8.447475"><ele>17.0</ele><time>2026-05-01T09:38:08.777Z</time></trkpt><trkpt lat="39.4465617" lon="8.4473383"><ele>17.0</ele><time>2026-05-01T09:38:09.778Z</time></trkpt><trkpt lat="39.4464333" lon="8.44719"><ele>18.0</ele><time>2026-05-01T09:38:10.777Z</time></trkpt><trkpt lat="39.4463083" lon="8.4470467"><ele>19.0</ele><time>2026-05-01T09:38:11.777Z</time></trkpt><trkpt lat="39.446185" lon="8.4469"><ele>20.0</ele><time>2026-05-01T09:38:12.778Z</time></trkpt><trkpt lat="39.44607" lon="8.44675"><ele>20.0</ele><time>2026-05-01T09:38:13.777Z</time></trkpt><trkpt lat="39.4459533" lon="8.4465917"><ele>20.0</ele><time>2026-05-01T09:38:14.777Z</time></trkpt><trkpt lat="39.445845" lon="8.44642"><ele>20.0</ele><time>2026-05-01T09:38:15.777Z</time></trkpt><trkpt lat="39.4457267" lon="8.446255"><ele>20.666666666666668</ele><time>2026-05-01T09:38:16.777Z</time></trkpt><trkpt lat="39.4456033" lon="8.4460967"><ele>21.333333333333332</ele><time>2026-05-01T09:38:17.778Z</time></trkpt><trkpt lat="39.4454733" lon="8.4459417"><ele>22.0</ele><time>2026-05-01T09:38:18.777Z</time></trkpt><trkpt lat="39.44534" lon="8.4458033"><ele>22.0</ele><time>2026-05-01T09:38:19.777Z</time></trkpt><trkpt lat="39.44521" lon="8.4456717"><ele>22.0</ele><time>2026-05-01T09:38:20.777Z</time></trkpt><trkpt lat="39.44508" lon="8.4455433"><ele>22.0</ele><time>2026-05-01T09:38:21.777Z</time></trkpt><trkpt lat="39.4449667" lon="8.4454233"><ele>22.6</ele><time>2026-05-01T09:38:22.777Z</time></trkpt><trkpt lat="39.444865" lon="8.4453117"><ele>23.200000000000003</ele><time>2026-05-01T09:38:23.778Z</time></trkpt><trkpt lat="39.4447867" lon="8.4452217"><ele>23.8</ele><time>2026-05-01T09:38:24.777Z</time></trkpt><trkpt lat="39.4447217" lon="8.4451367"><ele>24.4</ele><time>2026-05-01T09:38:25.778Z</time></trkpt><trkpt lat="39.44467" lon="8.4450617"><ele>25.0</ele><time>2026-05-01T09:38:26.778Z</time></trkpt><trkpt lat="39.4446183" lon="8.444985"><ele>25.000000000000004</ele><time>2026-05-01T09:38:27.778Z</time></trkpt><trkpt lat="39.4445667" lon="8.4449083"><ele>25.0</ele><time>2026-05-01T09:38:28.777Z</time></trkpt><trkpt lat="39.4445133" lon="8.44482"><ele>25.0</ele><time>2026-05-01T09:38:29.777Z</time></trkpt><trkpt lat="39.4444533" lon="8.444725"><ele>25.0</ele><time>2026-05-01T09:38:30.777Z</time></trkpt><trkpt lat="39.44439" lon="8.4446317"><ele>25.000000000000004</ele><time>2026-05-01T09:38:31.777Z</time></trkpt><trkpt lat="39.444335" lon="8.44455"><ele>25.0</ele><time>2026-05-01T09:38:32.777Z</time></trkpt><trkpt lat="39.4442783" lon="8.4444933"><ele>23.571428571428573</ele><time>2026-05-01T09:38:33.778Z</time></trkpt><trkpt lat="39.4442117" lon="8.4444583"><ele>22.142857142857142</ele><time>2026-05-01T09:38:34.777Z</time></trkpt><trkpt lat="39.444135" lon="8.4444433"><ele>20.714285714285715</ele><time>2026-05-01T09:38:35.778Z</time></trkpt><trkpt lat="39.4440617" lon="8.4444567"><ele>19.285714285714285</ele><time>2026-05-01T09:38:36.778Z</time></trkpt><trkpt lat="39.44399" lon="8.4444783"><ele>17.857142857142858</ele><time>2026-05-01T09:38:37.777Z</time></trkpt><trkpt lat="39.4439217" lon="8.4444867"><ele>16.42857142857143</ele><time>2026-05-01T09:38:38.778Z</time></trkpt><trkpt lat="39.4438517" lon="8.4444767"><ele>15.0</ele><time>2026-05-01T09:38:39.777Z</time></trkpt><trkpt lat="39.4437867" lon="8.4444433"><ele>15.0</ele><time>2026-05-01T09:38:40.777Z</time></trkpt><trkpt lat="39.4437183" lon="8.44438"><ele>15.0</ele><time>2026-05-01T09:38:41.777Z</time></trkpt><trkpt lat="39.443655" lon="8.444295"><ele>15.0</ele><time>2026-05-01T09:38:42.777Z</time></trkpt><trkpt lat="39.4436" lon="8.444205"><ele>15.0</ele><time>2026-05-01T09:38:43.777Z</time></trkpt><trkpt lat="39.4435433" lon="8.4441217"><ele>15.0</ele><time>2026-05-01T09:38:44.777Z</time></trkpt><trkpt lat="39.4434833" lon="8.44403"><ele>15.0</ele><time>2026-05-01T09:38:45.778Z</time></trkpt><trkpt lat="39.4434233" lon="8.4439333"><ele>15.0</ele><time>2026-05-01T09:38:46.777Z</time></trkpt><trkpt lat="39.4433617" lon="8.443835"><ele>15.0</ele><time>2026-05-01T09:38:47.777Z</time></trkpt><trkpt lat="39.4433" lon="8.4437367"><ele>15.0</ele><time>2026-05-01T09:38:48.778Z</time></trkpt><trkpt lat="39.4432333" lon="8.4436367"><ele>15.0</ele><time>2026-05-01T09:38:49.777Z</time></trkpt><trkpt lat="39.4431717" lon="8.4435317"><ele>15.0</ele><time>2026-05-01T09:38:50.777Z</time></trkpt><trkpt lat="39.4431133" lon="8.4434317"><ele>15.333333333333334</ele><time>2026-05-01T09:38:51.777Z</time></trkpt><trkpt lat="39.44306" lon="8.4433367"><ele>15.666666666666668</ele><time>2026-05-01T09:38:52.777Z</time></trkpt><trkpt lat="39.4430133" lon="8.4432633"><ele>16.0</ele><time>2026-05-01T09:38:53.777Z</time></trkpt><trkpt lat="39.44295" lon="8.4432133"><ele>16.333333333333336</ele><time>2026-05-01T09:38:54.777Z</time></trkpt><trkpt lat="39.442885" lon="8.4432017"><ele>16.666666666666668</ele><time>2026-05-01T09:38:55.777Z</time></trkpt><trkpt lat="39.4428133" lon="8.44324"><ele>17.0</ele><time>2026-05-01T09:38:56.777Z</time></trkpt><trkpt lat="39.4427367" lon="8.4432867"><ele>17.999999999999996</ele><time>2026-05-01T09:38:57.777Z</time></trkpt><trkpt lat="39.4426667" lon="8.443315"><ele>19.0</ele><time>2026-05-01T09:38:58.777Z</time></trkpt><trkpt lat="39.4426033" lon="8.4433033"><ele>20.0</ele><time>2026-05-01T09:38:59.778Z</time></trkpt><trkpt lat="39.442545" lon="8.4432533"><ele>21.0</ele><time>2026-05-01T09:39:00.777Z</time></trkpt><trkpt lat="39.44251" lon="8.4431633"><ele>22.0</ele><time>2026-05-01T09:39:01.778Z</time></trkpt><trkpt lat="39.442495" lon="8.4430583"><ele>22.999999999999996</ele><time>2026-05-01T09:39:02.777Z</time></trkpt><trkpt lat="39.4425017" lon="8.4429583"><ele>24.0</ele><time>2026-05-01T09:39:03.777Z</time></trkpt><trkpt lat="39.4425317" lon="8.4428767"><ele>22.599999999999998</ele><time>2026-05-01T09:39:04.777Z</time></trkpt><trkpt lat="39.44258" lon="8.4428133"><ele>21.2</ele><time>2026-05-01T09:39:05.778Z</time></trkpt><trkpt lat="39.4427017" lon="8.4428267"><ele>19.799999999999997</ele><time>2026-05-01T09:39:07.777Z</time></trkpt><trkpt lat="39.44278" lon="8.442895"><ele>18.4</ele><time>2026-05-01T09:39:08.777Z</time></trkpt><trkpt lat="39.4428783" lon="8.44296"><ele>17.0</ele><time>2026-05-01T09:39:09.777Z</time></trkpt><trkpt lat="39.4429733" lon="8.4429983"><ele>17.0</ele><time>2026-05-01T09:39:10.777Z</time></trkpt><trkpt lat="39.4430617" lon="8.442995"><ele>17.0</ele><time>2026-05-01T09:39:11.778Z</time></trkpt><trkpt lat="39.443145" lon="8.4429667"><ele>17.0</ele><time>2026-05-01T09:39:12.777Z</time></trkpt><trkpt lat="39.4432233" lon="8.4428917"><ele>17.0</ele><time>2026-05-01T09:39:13.777Z</time></trkpt><trkpt lat="39.4432867" lon="8.44278"><ele>17.0</ele><time>2026-05-01T09:39:14.777Z</time></trkpt><trkpt lat="39.4433283" lon="8.442645"><ele>19.8</ele><time>2026-05-01T09:39:15.777Z</time></trkpt><trkpt lat="39.4433467" lon="8.4425067"><ele>22.6</ele><time>2026-05-01T09:39:16.777Z</time></trkpt><trkpt lat="39.4433583" lon="8.4423733"><ele>25.400000000000002</ele><time>2026-05-01T09:39:17.777Z</time></trkpt><trkpt lat="39.443375" lon="8.44226"><ele>28.2</ele><time>2026-05-01T09:39:18.778Z</time></trkpt><trkpt lat="39.4434167" lon="8.44218"><ele>31.0</ele><time>2026-05-01T09:39:19.777Z</time></trkpt><trkpt lat="39.44348" lon="8.4420767"><ele>32.8</ele><time>2026-05-01T09:39:20.778Z</time></trkpt><trkpt lat="39.4435567" lon="8.4419533"><ele>34.6</ele><time>2026-05-01T09:39:21.777Z</time></trkpt><trkpt lat="39.4436333" lon="8.441835"><ele>36.4</ele><time>2026-05-01T09:39:22.778Z</time></trkpt><trkpt lat="39.4436967" lon="8.4417333"><ele>38.2</ele><time>2026-05-01T09:39:23.777Z</time></trkpt><trkpt lat="39.4437417" lon="8.4416467"><ele>40.0</ele><time>2026-05-01T09:39:24.777Z</time></trkpt><trkpt lat="39.4437667" lon="8.4415617"><ele>40.0</ele><time>2026-05-01T09:39:25.777Z</time></trkpt><trkpt lat="39.44377" lon="8.4414617"><ele>40.0</ele><time>2026-05-01T09:39:26.777Z</time></trkpt><trkpt lat="39.443755" lon="8.441365"><ele>40.0</ele><time>2026-05-01T09:39:27.777Z</time></trkpt><trkpt lat="39.4437067" lon="8.441275"><ele>40.0</ele><time>2026-05-01T09:39:28.778Z</time></trkpt><trkpt lat="39.4436267" lon="8.4412067"><ele>40.0</ele><time>2026-05-01T09:39:29.777Z</time></trkpt><trkpt lat="39.4435383" lon="8.4411583"><ele>40.0</ele><time>2026-05-01T09:39:30.777Z</time></trkpt><trkpt lat="39.4434467" lon="8.4411467"><ele>40.0</ele><time>2026-05-01T09:39:31.777Z</time></trkpt><trkpt lat="39.44336" lon="8.4411767"><ele>40.0</ele><time>2026-05-01T09:39:32.777Z</time></trkpt><trkpt lat="39.4432717" lon="8.441245"><ele>40.0</ele><time>2026-05-01T09:39:33.777Z</time></trkpt><trkpt lat="39.4431733" lon="8.4413483"><ele>40.0</ele><time>2026-05-01T09:39:34.777Z</time></trkpt><trkpt lat="39.443075" lon="8.44145"><ele>40.0</ele><time>2026-05-01T09:39:35.777Z</time></trkpt><trkpt lat="39.4429917" lon="8.4415483"><ele>41.333333333333336</ele><time>2026-05-01T09:39:36.778Z</time></trkpt><trkpt lat="39.442925" lon="8.4416383"><ele>42.66666666666667</ele><time>2026-05-01T09:39:37.777Z</time></trkpt><trkpt lat="39.4428667" lon="8.44171"><ele>44.0</ele><time>2026-05-01T09:39:38.777Z</time></trkpt><trkpt lat="39.4428167" lon="8.44176"><ele>45.333333333333336</ele><time>2026-05-01T09:39:39.777Z</time></trkpt><trkpt lat="39.44271" lon="8.441745"><ele>46.666666666666664</ele><time>2026-05-01T09:39:41.778Z</time></trkpt><trkpt lat="39.44265" lon="8.4416833"><ele>48.0</ele><time>2026-05-01T09:39:42.777Z</time></trkpt><trkpt lat="39.4425917" lon="8.4415967"><ele>48.0</ele><time>2026-05-01T09:39:43.777Z</time></trkpt><trkpt lat="39.4425417" lon="8.4415067"><ele>48.0</ele><time>2026-05-01T09:39:44.777Z</time></trkpt><trkpt lat="39.4425183" lon="8.4414067"><ele>48.0</ele><time>2026-05-01T09:39:45.777Z</time></trkpt><trkpt lat="39.4425283" lon="8.4413117"><ele>48.0</ele><time>2026-05-01T09:39:46.777Z</time></trkpt><trkpt lat="39.442555" lon="8.4412083"><ele>48.0</ele><time>2026-05-01T09:39:47.778Z</time></trkpt><trkpt lat="39.4425783" lon="8.4411"><ele>48.0</ele><time>2026-05-01T09:39:48.778Z</time></trkpt><trkpt lat="39.4425867" lon="8.4409933"><ele>47.4</ele><time>2026-05-01T09:39:49.777Z</time></trkpt><trkpt lat="39.4425583" lon="8.4409017"><ele>46.8</ele><time>2026-05-01T09:39:50.778Z</time></trkpt><trkpt lat="39.442505" lon="8.4408283"><ele>46.2</ele><time>2026-05-01T09:39:51.777Z</time></trkpt><trkpt lat="39.4424167" lon="8.4407717"><ele>45.6</ele><time>2026-05-01T09:39:52.778Z</time></trkpt><trkpt lat="39.4423083" lon="8.4407317"><ele>45.0</ele><time>2026-05-01T09:39:53.777Z</time></trkpt><trkpt lat="39.4421983" lon="8.4406967"><ele>48.5</ele><time>2026-05-01T09:39:54.777Z</time></trkpt><trkpt lat="39.4420783" lon="8.4406683"><ele>52.0</ele><time>2026-05-01T09:39:55.777Z</time></trkpt><trkpt lat="39.4419617" lon="8.44065"><ele>55.5</ele><time>2026-05-01T09:39:56.778Z</time></trkpt><trkpt lat="39.44184" lon="8.44064"><ele>59.0</ele><time>2026-05-01T09:39:57.777Z</time></trkpt><trkpt lat="39.441725" lon="8.4406467"><ele>59.0</ele><time>2026-05-01T09:39:58.777Z</time></trkpt><trkpt lat="39.4416133" lon="8.4406717"><ele>59.00000000000001</ele><time>2026-05-01T09:39:59.778Z</time></trkpt><trkpt lat="39.4415067" lon="8.4407067"><ele>59.00000000000001</ele><time>2026-05-01T09:40:00.777Z</time></trkpt><trkpt lat="39.4414067" lon="8.4407233"><ele>59.0</ele><time>2026-05-01T09:40:01.777Z</time></trkpt><trkpt lat="39.4413267" lon="8.440705"><ele>59.0</ele><time>2026-05-01T09:40:02.777Z</time></trkpt><trkpt lat="39.44126" lon="8.44065"><ele>61.0</ele><time>2026-05-01T09:40:03.777Z</time></trkpt><trkpt lat="39.4411983" lon="8.44057"><ele>63.00000000000001</ele><time>2026-05-01T09:40:04.778Z</time></trkpt><trkpt lat="39.44113" lon="8.4404667"><ele>65.0</ele><time>2026-05-01T09:40:05.777Z</time></trkpt><trkpt lat="39.4410517" lon="8.4403517"><ele>67.0</ele><time>2026-05-01T09:40:06.777Z</time></trkpt><trkpt lat="39.4409767" lon="8.4402517"><ele>69.0</ele><time>2026-05-01T09:40:07.778Z</time></trkpt><trkpt lat="39.44093" lon="8.4401667"><ele>69.0</ele><time>2026-05-01T09:40:08.777Z</time></trkpt><trkpt lat="39.44092" lon="8.4400817"><ele>69.0</ele><time>2026-05-01T09:40:09.777Z</time></trkpt><trkpt lat="39.4409333" lon="8.4399933"><ele>69.0</ele><time>2026-05-01T09:40:10.777Z</time></trkpt><trkpt lat="39.440975" lon="8.4399083"><ele>69.0</ele><time>2026-05-01T09:40:11.777Z</time></trkpt><trkpt lat="39.441045" lon="8.43981"><ele>69.0</ele><time>2026-05-01T09:40:12.777Z</time></trkpt><trkpt lat="39.4411033" lon="8.4397067"><ele>69.0</ele><time>2026-05-01T09:40:13.777Z</time></trkpt><trkpt lat="39.4411433" lon="8.439595"><ele>70.4</ele><time>2026-05-01T09:40:14.777Z</time></trkpt><trkpt lat="39.4411767" lon="8.439475"><ele>71.80000000000001</ele><time>2026-05-01T09:40:15.778Z</time></trkpt><trkpt lat="39.4412083" lon="8.4393867"><ele>73.19999999999999</ele><time>2026-05-01T09:40:16.778Z</time></trkpt><trkpt lat="39.44127" lon="8.43931"><ele>74.6</ele><time>2026-05-01T09:40:17.777Z</time></trkpt><trkpt lat="39.44136" lon="8.4392367"><ele>76.0</ele><time>2026-05-01T09:40:18.778Z</time></trkpt><trkpt lat="39.441465" lon="8.4391817"><ele>74.5</ele><time>2026-05-01T09:40:19.777Z</time></trkpt><trkpt lat="39.4415667" lon="8.4391533"><ele>73.0</ele><time>2026-05-01T09:40:20.777Z</time></trkpt><trkpt lat="39.44165" lon="8.4391233"><ele>71.5</ele><time>2026-05-01T09:40:21.777Z</time></trkpt><trkpt lat="39.4417067" lon="8.43906"><ele>70.0</ele><time>2026-05-01T09:40:22.777Z</time></trkpt><trkpt lat="39.441735" lon="8.4389667"><ele>68.5</ele><time>2026-05-01T09:40:23.777Z</time></trkpt><trkpt lat="39.4417333" lon="8.4388383"><ele>67.0</ele><time>2026-05-01T09:40:24.778Z</time></trkpt><trkpt lat="39.4417483" lon="8.438695"><ele>67.0</ele><time>2026-05-01T09:40:25.778Z</time></trkpt><trkpt lat="39.4417783" lon="8.4385617"><ele>67.0</ele><time>2026-05-01T09:40:26.777Z</time></trkpt><trkpt lat="39.4417917" lon="8.4384283"><ele>67.0</ele><time>2026-05-01T09:40:27.778Z</time></trkpt><trkpt lat="39.44179" lon="8.4382883"><ele>67.0</ele><time>2026-05-01T09:40:28.778Z</time></trkpt><trkpt lat="39.4417683" lon="8.4381483"><ele>67.0</ele><time>2026-05-01T09:40:29.777Z</time></trkpt><trkpt lat="39.441725" lon="8.438015"><ele>66.0</ele><time>2026-05-01T09:40:30.777Z</time></trkpt><trkpt lat="39.4416683" lon="8.437905"><ele>65.0</ele><time>2026-05-01T09:40:31.778Z</time></trkpt><trkpt lat="39.4415867" lon="8.4378283"><ele>64.0</ele><time>2026-05-01T09:40:32.777Z</time></trkpt><trkpt lat="39.4414767" lon="8.437765"><ele>63.0</ele><time>2026-05-01T09:40:33.778Z</time></trkpt><trkpt lat="39.4413617" lon="8.4377183"><ele>62.0</ele><time>2026-05-01T09:40:34.778Z</time></trkpt><trkpt lat="39.4412683" lon="8.43769"><ele>62.00000000000001</ele><time>2026-05-01T09:40:35.777Z</time></trkpt><trkpt lat="39.441185" lon="8.43769"><ele>62.0</ele><time>2026-05-01T09:40:36.778Z</time></trkpt><trkpt lat="39.4411117" lon="8.4377167"><ele>62.0</ele><time>2026-05-01T09:40:37.778Z</time></trkpt><trkpt lat="39.4410533" lon="8.4377883"><ele>62.0</ele><time>2026-05-01T09:40:38.778Z</time></trkpt><trkpt lat="39.4410167" lon="8.4378933"><ele>62.00000000000001</ele><time>2026-05-01T09:40:39.777Z</time></trkpt><trkpt lat="39.4409917" lon="8.4380367"><ele>62.0</ele><time>2026-05-01T09:40:40.777Z</time></trkpt><trkpt lat="39.4409767" lon="8.43821"><ele>63.8</ele><time>2026-05-01T09:40:41.778Z</time></trkpt><trkpt lat="39.4409683" lon="8.4384"><ele>65.6</ele><time>2026-05-01T09:40:42.778Z</time></trkpt><trkpt lat="39.4409567" lon="8.438565"><ele>67.39999999999999</ele><time>2026-05-01T09:40:43.777Z</time></trkpt><trkpt lat="39.4409517" lon="8.4386933"><ele>69.2</ele><time>2026-05-01T09:40:44.777Z</time></trkpt><trkpt lat="39.4409417" lon="8.4387883"><ele>71.0</ele><time>2026-05-01T09:40:45.778Z</time></trkpt><trkpt lat="39.44086" lon="8.4388967"><ele>72.0</ele><time>2026-05-01T09:40:47.777Z</time></trkpt><trkpt lat="39.4407917" lon="8.43892"><ele>73.0</ele><time>2026-05-01T09:40:48.777Z</time></trkpt><trkpt lat="39.440695" lon="8.4389117"><ele>74.0</ele><time>2026-05-01T09:40:49.777Z</time></trkpt><trkpt lat="39.4405783" lon="8.4388867"><ele>75.0</ele><time>2026-05-01T09:40:50.777Z</time></trkpt><trkpt lat="39.4404667" lon="8.4388767"><ele>76.0</ele><time>2026-05-01T09:40:51.777Z</time></trkpt><trkpt lat="39.4403733" lon="8.4389067"><ele>76.16666666666666</ele><time>2026-05-01T09:40:52.776Z</time></trkpt><trkpt lat="39.4403033" lon="8.43898"><ele>76.33333333333333</ele><time>2026-05-01T09:40:53.776Z</time></trkpt><trkpt lat="39.44026" lon="8.4390883"><ele>76.5</ele><time>2026-05-01T09:40:54.776Z</time></trkpt><trkpt lat="39.440235" lon="8.4392117"><ele>76.66666666666667</ele><time>2026-05-01T09:40:55.776Z</time></trkpt><trkpt lat="39.4401983" lon="8.4393133"><ele>76.83333333333334</ele><time>2026-05-01T09:40:56.776Z</time></trkpt><trkpt lat="39.4401467" lon="8.4393667"><ele>77.0</ele><time>2026-05-01T09:40:57.776Z</time></trkpt><trkpt lat="39.4400817" lon="8.439395"><ele>77.0</ele><time>2026-05-01T09:40:58.777Z</time></trkpt><trkpt lat="39.4400033" lon="8.43939"><ele>77.0</ele><time>2026-05-01T09:40:59.777Z</time></trkpt><trkpt lat="39.4399233" lon="8.4393783"><ele>77.0</ele><time>2026-05-01T09:41:00.777Z</time></trkpt><trkpt lat="39.439845" lon="8.4393783"><ele>77.0</ele><time>2026-05-01T09:41:01.776Z</time></trkpt><trkpt lat="39.4397733" lon="8.43941"><ele>77.0</ele><time>2026-05-01T09:41:02.776Z</time></trkpt><trkpt lat="39.4397267" lon="8.4395"><ele>77.0</ele><time>2026-05-01T09:41:03.776Z</time></trkpt><trkpt lat="39.4396933" lon="8.4396217"><ele>80.0</ele><time>2026-05-01T09:41:04.776Z</time></trkpt><trkpt lat="39.439655" lon="8.4396967"><ele>83.0</ele><time>2026-05-01T09:41:05.776Z</time></trkpt><trkpt lat="39.4395483" lon="8.439725"><ele>86.0</ele><time>2026-05-01T09:41:07.776Z</time></trkpt><trkpt lat="39.4394617" lon="8.43971"><ele>89.0</ele><time>2026-05-01T09:41:08.777Z</time></trkpt><trkpt lat="39.4393583" lon="8.4396867"><ele>92.0</ele><time>2026-05-01T09:41:09.776Z</time></trkpt><trkpt lat="39.439275" lon="8.4396467"><ele>91.0</ele><time>2026-05-01T09:41:10.776Z</time></trkpt><trkpt lat="39.4392" lon="8.4395867"><ele>90.0</ele><time>2026-05-01T09:41:11.776Z</time></trkpt><trkpt lat="39.4391383" lon="8.4395117"><ele>89.0</ele><time>2026-05-01T09:41:12.776Z</time></trkpt><trkpt lat="39.4390983" lon="8.43941"><ele>88.0</ele><time>2026-05-01T09:41:13.776Z</time></trkpt><trkpt lat="39.4390867" lon="8.439285"><ele>87.0</ele><time>2026-05-01T09:41:14.776Z</time></trkpt><trkpt lat="39.4390717" lon="8.439145"><ele>87.0</ele><time>2026-05-01T09:41:15.776Z</time></trkpt><trkpt lat="39.439045" lon="8.43899"><ele>87.0</ele><time>2026-05-01T09:41:16.776Z</time></trkpt><trkpt lat="39.4390383" lon="8.4388583"><ele>87.0</ele><time>2026-05-01T09:41:17.776Z</time></trkpt><trkpt lat="39.4390533" lon="8.43873"><ele>87.0</ele><time>2026-05-01T09:41:18.776Z</time></trkpt><trkpt lat="39.4390883" lon="8.4385933"><ele>87.0</ele><time>2026-05-01T09:41:19.776Z</time></trkpt><trkpt lat="39.4391183" lon="8.4384483"><ele>86.39999999999999</ele><time>2026-05-01T09:41:20.777Z</time></trkpt><trkpt lat="39.4391317" lon="8.4382917"><ele>85.8</ele><time>2026-05-01T09:41:21.777Z</time></trkpt><trkpt lat="39.4391283" lon="8.4381433"><ele>85.2</ele><time>2026-05-01T09:41:22.777Z</time></trkpt><trkpt lat="39.4391083" lon="8.4380217"><ele>84.6</ele><time>2026-05-01T09:41:23.776Z</time></trkpt><trkpt lat="39.4390717" lon="8.43793"><ele>84.0</ele><time>2026-05-01T09:41:24.776Z</time></trkpt><trkpt lat="39.4390183" lon="8.4378567"><ele>84.6</ele><time>2026-05-01T09:41:25.776Z</time></trkpt><trkpt lat="39.4389417" lon="8.43782"><ele>85.2</ele><time>2026-05-01T09:41:26.776Z</time></trkpt><trkpt lat="39.4388567" lon="8.43782"><ele>85.8</ele><time>2026-05-01T09:41:27.776Z</time></trkpt><trkpt lat="39.4387467" lon="8.4378567"><ele>86.39999999999999</ele><time>2026-05-01T09:41:28.776Z</time></trkpt><trkpt lat="39.4386233" lon="8.4379183"><ele>87.0</ele><time>2026-05-01T09:41:29.776Z</time></trkpt><trkpt lat="39.438515" lon="8.43795"><ele>87.0</ele><time>2026-05-01T09:41:30.777Z</time></trkpt><trkpt lat="39.4383933" lon="8.4379567"><ele>87.0</ele><time>2026-05-01T09:41:31.776Z</time></trkpt><trkpt lat="39.4382833" lon="8.4379817"><ele>87.0</ele><time>2026-05-01T09:41:32.777Z</time></trkpt><trkpt lat="39.438185" lon="8.43804"><ele>87.0</ele><time>2026-05-01T09:41:33.776Z</time></trkpt><trkpt lat="39.438085" lon="8.43813"><ele>88.25</ele><time>2026-05-01T09:41:34.776Z</time></trkpt><trkpt lat="39.4379783" lon="8.4382433"><ele>89.5</ele><time>2026-05-01T09:41:35.776Z</time></trkpt><trkpt lat="39.4378767" lon="8.4383467"><ele>90.75</ele><time>2026-05-01T09:41:36.777Z</time></trkpt><trkpt lat="39.43779" lon="8.4384417"><ele>92.0</ele><time>2026-05-01T09:41:37.776Z</time></trkpt><trkpt lat="39.437735" lon="8.43854"><ele>92.0</ele><time>2026-05-01T09:41:38.776Z</time></trkpt><trkpt lat="39.4377017" lon="8.438655"><ele>92.0</ele><time>2026-05-01T09:41:39.776Z</time></trkpt><trkpt lat="39.4377" lon="8.4387683"><ele>92.0</ele><time>2026-05-01T09:41:40.776Z</time></trkpt><trkpt lat="39.437725" lon="8.4388817"><ele>92.0</ele><time>2026-05-01T09:41:41.776Z</time></trkpt><trkpt lat="39.4377817" lon="8.438995"><ele>92.0</ele><time>2026-05-01T09:41:42.777Z</time></trkpt><trkpt lat="39.4378617" lon="8.43911"><ele>91.39999999999999</ele><time>2026-05-01T09:41:43.776Z</time></trkpt><trkpt lat="39.4379383" lon="8.4392283"><ele>90.8</ele><time>2026-05-01T09:41:44.776Z</time></trkpt><trkpt lat="39.438" lon="8.4393317"><ele>90.2</ele><time>2026-05-01T09:41:45.777Z</time></trkpt><trkpt lat="39.4380433" lon="8.4394333"><ele>89.6</ele><time>2026-05-01T09:41:46.776Z</time></trkpt><trkpt lat="39.4380667" lon="8.43954"><ele>89.0</ele><time>2026-05-01T09:41:47.777Z</time></trkpt><trkpt lat="39.43808" lon="8.4396667"><ele>93.75</ele><time>2026-05-01T09:41:48.777Z</time></trkpt><trkpt lat="39.43808" lon="8.43982"><ele>98.5</ele><time>2026-05-01T09:41:49.776Z</time></trkpt><trkpt lat="39.4380783" lon="8.439995"><ele>103.25</ele><time>2026-05-01T09:41:50.776Z</time></trkpt><trkpt lat="39.4380817" lon="8.4401533"><ele>108.0</ele><time>2026-05-01T09:41:51.776Z</time></trkpt><trkpt lat="39.4381117" lon="8.44029"><ele>108.0</ele><time>2026-05-01T09:41:52.777Z</time></trkpt><trkpt lat="39.4381567" lon="8.440405"><ele>108.00000000000001</ele><time>2026-05-01T09:41:53.776Z</time></trkpt><trkpt lat="39.4382133" lon="8.4404933"><ele>108.00000000000001</ele><time>2026-05-01T09:41:54.776Z</time></trkpt><trkpt lat="39.4382933" lon="8.4405883"><ele>108.0</ele><time>2026-05-01T09:41:55.776Z</time></trkpt><trkpt lat="39.4383667" lon="8.4406967"><ele>108.0</ele><time>2026-05-01T09:41:56.776Z</time></trkpt><trkpt lat="39.4384267" lon="8.4408167"><ele>107.80000000000001</ele><time>2026-05-01T09:41:57.776Z</time></trkpt><trkpt lat="39.43847" lon="8.440935"><ele>107.60000000000001</ele><time>2026-05-01T09:41:58.776Z</time></trkpt><trkpt lat="39.4384867" lon="8.4410467"><ele>107.39999999999999</ele><time>2026-05-01T09:41:59.776Z</time></trkpt><trkpt lat="39.4384883" lon="8.4411533"><ele>107.19999999999999</ele><time>2026-05-01T09:42:00.776Z</time></trkpt><trkpt lat="39.4384583" lon="8.441275"><ele>107.0</ele><time>2026-05-01T09:42:01.776Z</time></trkpt><trkpt lat="39.43839" lon="8.4414083"><ele>107.0</ele><time>2026-05-01T09:42:02.777Z</time></trkpt><trkpt lat="39.4383017" lon="8.4415567"><ele>107.0</ele><time>2026-05-01T09:42:03.776Z</time></trkpt><trkpt lat="39.4382117" lon="8.4416967"><ele>107.0</ele><time>2026-05-01T09:42:04.776Z</time></trkpt><trkpt lat="39.438135" lon="8.44181"><ele>107.0</ele><time>2026-05-01T09:42:05.776Z</time></trkpt><trkpt lat="39.438065" lon="8.4418883"><ele>107.0</ele><time>2026-05-01T09:42:06.777Z</time></trkpt><trkpt lat="39.437985" lon="8.44194"><ele>106.99999999999999</ele><time>2026-05-01T09:42:07.776Z</time></trkpt><trkpt lat="39.437885" lon="8.4419933"><ele>106.99999999999999</ele><time>2026-05-01T09:42:08.776Z</time></trkpt><trkpt lat="39.437775" lon="8.44204"><ele>107.0</ele><time>2026-05-01T09:42:09.776Z</time></trkpt><trkpt lat="39.4376683" lon="8.4420867"><ele>107.0</ele><time>2026-05-01T09:42:10.776Z</time></trkpt><trkpt lat="39.43759" lon="8.44211"><ele>105.6</ele><time>2026-05-01T09:42:11.777Z</time></trkpt><trkpt lat="39.437515" lon="8.44209"><ele>104.19999999999999</ele><time>2026-05-01T09:42:12.776Z</time></trkpt><trkpt lat="39.4374417" lon="8.4420333"><ele>102.8</ele><time>2026-05-01T09:42:13.776Z</time></trkpt><trkpt lat="39.437365" lon="8.4419417"><ele>101.4</ele><time>2026-05-01T09:42:14.776Z</time></trkpt><trkpt lat="39.43727" lon="8.4418017"><ele>100.0</ele><time>2026-05-01T09:42:15.776Z</time></trkpt><trkpt lat="39.43717" lon="8.4416583"><ele>101.4</ele><time>2026-05-01T09:42:16.777Z</time></trkpt><trkpt lat="39.437075" lon="8.441545"><ele>102.8</ele><time>2026-05-01T09:42:17.776Z</time></trkpt><trkpt lat="39.4369933" lon="8.4414733"><ele>104.19999999999999</ele><time>2026-05-01T09:42:18.777Z</time></trkpt><trkpt lat="39.4369117" lon="8.4414367"><ele>105.6</ele><time>2026-05-01T09:42:19.776Z</time></trkpt><trkpt lat="39.4368183" lon="8.44143"><ele>107.0</ele><time>2026-05-01T09:42:20.776Z</time></trkpt><trkpt lat="39.4367033" lon="8.4414667"><ele>107.0</ele><time>2026-05-01T09:42:21.777Z</time></trkpt><trkpt lat="39.4365883" lon="8.4415183"><ele>106.99999999999999</ele><time>2026-05-01T09:42:22.777Z</time></trkpt><trkpt lat="39.4365033" lon="8.4415833"><ele>106.99999999999999</ele><time>2026-05-01T09:42:23.776Z</time></trkpt><trkpt lat="39.436435" lon="8.4416617"><ele>107.0</ele><time>2026-05-01T09:42:24.776Z</time></trkpt><trkpt lat="39.4363833" lon="8.4417717"><ele>107.0</ele><time>2026-05-01T09:42:25.776Z</time></trkpt><trkpt lat="39.4363583" lon="8.4419283"><ele>106.99999999999999</ele><time>2026-05-01T09:42:26.777Z</time></trkpt><trkpt lat="39.4363333" lon="8.4420583"><ele>107.0</ele><time>2026-05-01T09:42:27.776Z</time></trkpt><trkpt lat="39.4363017" lon="8.4421483"><ele>107.0</ele><time>2026-05-01T09:42:28.776Z</time></trkpt><trkpt lat="39.4362533" lon="8.44221"><ele>107.0</ele><time>2026-05-01T09:42:29.776Z</time></trkpt><trkpt lat="39.4361867" lon="8.4422483"><ele>106.99999999999999</ele><time>2026-05-01T09:42:30.777Z</time></trkpt><trkpt lat="39.436095" lon="8.4422667"><ele>107.0</ele><time>2026-05-01T09:42:31.777Z</time></trkpt><trkpt lat="39.4359833" lon="8.4422533"><ele>105.66666666666666</ele><time>2026-05-01T09:42:32.776Z</time></trkpt><trkpt lat="39.43589" lon="8.4422283"><ele>104.33333333333333</ele><time>2026-05-01T09:42:33.777Z</time></trkpt><trkpt lat="39.4358217" lon="8.44219"><ele>103.0</ele><time>2026-05-01T09:42:34.777Z</time></trkpt><trkpt lat="39.4357683" lon="8.4421333"><ele>101.66666666666666</ele><time>2026-05-01T09:42:35.777Z</time></trkpt><trkpt lat="39.4357183" lon="8.4420483"><ele>100.33333333333333</ele><time>2026-05-01T09:42:36.776Z</time></trkpt><trkpt lat="39.4356583" lon="8.4419633"><ele>99.0</ele><time>2026-05-01T09:42:37.776Z</time></trkpt><trkpt lat="39.4355817" lon="8.4418883"><ele>99.5</ele><time>2026-05-01T09:42:38.776Z</time></trkpt><trkpt lat="39.43547" lon="8.4418333"><ele>100.0</ele><time>2026-05-01T09:42:39.776Z</time></trkpt><trkpt lat="39.4353367" lon="8.441795"><ele>100.5</ele><time>2026-05-01T09:42:40.776Z</time></trkpt><trkpt lat="39.4352033" lon="8.441775"><ele>101.0</ele><time>2026-05-01T09:42:41.776Z</time></trkpt><trkpt lat="39.43509" lon="8.441775"><ele>101.0</ele><time>2026-05-01T09:42:42.776Z</time></trkpt><trkpt lat="39.4349983" lon="8.441795"><ele>101.0</ele><time>2026-05-01T09:42:43.776Z</time></trkpt><trkpt lat="39.43492" lon="8.4418567"><ele>101.0</ele><time>2026-05-01T09:42:44.777Z</time></trkpt><trkpt lat="39.434845" lon="8.441955"><ele>101.0</ele><time>2026-05-01T09:42:45.777Z</time></trkpt><trkpt lat="39.43478" lon="8.44208"><ele>101.0</ele><time>2026-05-01T09:42:46.776Z</time></trkpt><trkpt lat="39.43474" lon="8.4422317"><ele>106.33333333333333</ele><time>2026-05-01T09:42:47.777Z</time></trkpt><trkpt lat="39.434705" lon="8.44242"><ele>111.66666666666666</ele><time>2026-05-01T09:42:48.776Z</time></trkpt><trkpt lat="39.4346817" lon="8.4426167"><ele>117.0</ele><time>2026-05-01T09:42:49.776Z</time></trkpt><trkpt lat="39.434665" lon="8.4428167"><ele>115.75</ele><time>2026-05-01T09:42:50.776Z</time></trkpt><trkpt lat="39.4346417" lon="8.44299"><ele>114.5</ele><time>2026-05-01T09:42:51.776Z</time></trkpt><trkpt lat="39.4346017" lon="8.4431417"><ele>113.25</ele><time>2026-05-01T09:42:52.776Z</time></trkpt><trkpt lat="39.4345567" lon="8.4432917"><ele>112.0</ele><time>2026-05-01T09:42:53.776Z</time></trkpt><trkpt lat="39.4345167" lon="8.4434217"><ele>112.00000000000001</ele><time>2026-05-01T09:42:54.776Z</time></trkpt><trkpt lat="39.4344583" lon="8.4435167"><ele>112.0</ele><time>2026-05-01T09:42:55.776Z</time></trkpt><trkpt lat="39.434395" lon="8.44359"><ele>112.0</ele><time>2026-05-01T09:42:56.776Z</time></trkpt><trkpt lat="39.434325" lon="8.4436417"><ele>112.0</ele><time>2026-05-01T09:42:57.777Z</time></trkpt><trkpt lat="39.4342533" lon="8.4436617"><ele>112.00000000000001</ele><time>2026-05-01T09:42:58.776Z</time></trkpt><trkpt lat="39.4341767" lon="8.44364"><ele>112.0</ele><time>2026-05-01T09:42:59.776Z</time></trkpt><trkpt lat="39.4340983" lon="8.4435817"><ele>112.0</ele><time>2026-05-01T09:43:00.776Z</time></trkpt><trkpt lat="39.4340233" lon="8.4434867"><ele>112.0</ele><time>2026-05-01T09:43:01.777Z</time></trkpt><trkpt lat="39.4339633" lon="8.4433467"><ele>112.0</ele><time>2026-05-01T09:43:02.776Z</time></trkpt><trkpt lat="39.4339283" lon="8.44318"><ele>112.0</ele><time>2026-05-01T09:43:03.776Z</time></trkpt><trkpt lat="39.4339" lon="8.4430467"><ele>108.8</ele><time>2026-05-01T09:43:04.776Z</time></trkpt><trkpt lat="39.4338567" lon="8.4429233"><ele>105.6</ele><time>2026-05-01T09:43:05.776Z</time></trkpt><trkpt lat="39.433785" lon="8.4428467"><ele>102.39999999999999</ele><time>2026-05-01T09:43:06.776Z</time></trkpt><trkpt lat="39.4336933" lon="8.4428"><ele>99.19999999999999</ele><time>2026-05-01T09:43:07.776Z</time></trkpt><trkpt lat="39.4335967" lon="8.4427967"><ele>96.0</ele><time>2026-05-01T09:43:08.776Z</time></trkpt><trkpt lat="39.4335067" lon="8.4428333"><ele>96.0</ele><time>2026-05-01T09:43:09.777Z</time></trkpt><trkpt lat="39.4334317" lon="8.44291"><ele>96.0</ele><time>2026-05-01T09:43:10.776Z</time></trkpt><trkpt lat="39.43336" lon="8.4430217"><ele>96.0</ele><time>2026-05-01T09:43:11.776Z</time></trkpt><trkpt lat="39.43329" lon="8.4431333"><ele>96.0</ele><time>2026-05-01T09:43:12.776Z</time></trkpt><trkpt lat="39.43321" lon="8.4432217"><ele>96.0</ele><time>2026-05-01T09:43:13.776Z</time></trkpt><trkpt lat="39.4331033" lon="8.4432983"><ele>99.66666666666666</ele><time>2026-05-01T09:43:14.777Z</time></trkpt><trkpt lat="39.4329667" lon="8.4433683"><ele>103.33333333333333</ele><time>2026-05-01T09:43:15.776Z</time></trkpt><trkpt lat="39.4328133" lon="8.4434317"><ele>107.0</ele><time>2026-05-01T09:43:16.776Z</time></trkpt><trkpt lat="39.4326783" lon="8.443495"><ele>107.0</ele><time>2026-05-01T09:43:17.776Z</time></trkpt><trkpt lat="39.432555" lon="8.44355"><ele>107.0</ele><time>2026-05-01T09:43:18.777Z</time></trkpt><trkpt lat="39.4324567" lon="8.4436183"><ele>107.0</ele><time>2026-05-01T09:43:19.777Z</time></trkpt><trkpt lat="39.432385" lon="8.4437067"><ele>107.0</ele><time>2026-05-01T09:43:20.776Z</time></trkpt><trkpt lat="39.4323133" lon="8.4438483"><ele>107.5</ele><time>2026-05-01T09:43:21.776Z</time></trkpt><trkpt lat="39.4322433" lon="8.4439833"><ele>108.0</ele><time>2026-05-01T09:43:22.777Z</time></trkpt><trkpt lat="39.4321683" lon="8.4441017"><ele>108.5</ele><time>2026-05-01T09:43:23.777Z</time></trkpt><trkpt lat="39.4320767" lon="8.4442033"><ele>109.0</ele><time>2026-05-01T09:43:24.777Z</time></trkpt><trkpt lat="39.4319633" lon="8.444305"><ele>109.0</ele><time>2026-05-01T09:43:25.776Z</time></trkpt><trkpt lat="39.4318267" lon="8.44441"><ele>109.0</ele><time>2026-05-01T09:43:26.776Z</time></trkpt><trkpt lat="39.4316767" lon="8.44452"><ele>109.0</ele><time>2026-05-01T09:43:27.776Z</time></trkpt><trkpt lat="39.4315267" lon="8.4446333"><ele>109.33333333333334</ele><time>2026-05-01T09:43:28.776Z</time></trkpt><trkpt lat="39.4313883" lon="8.4447317"><ele>109.66666666666666</ele><time>2026-05-01T09:43:29.777Z</time></trkpt><trkpt lat="39.4312517" lon="8.4448283"><ele>110.0</ele><time>2026-05-01T09:43:30.776Z</time></trkpt><trkpt lat="39.4311183" lon="8.4449367"><ele>110.0</ele><time>2026-05-01T09:43:31.776Z</time></trkpt><trkpt lat="39.4309967" lon="8.4450483"><ele>110.0</ele><time>2026-05-01T09:43:32.776Z</time></trkpt><trkpt lat="39.43089" lon="8.4451533"><ele>110.0</ele><time>2026-05-01T09:43:33.777Z</time></trkpt><trkpt lat="39.4307867" lon="8.4452483"><ele>110.0</ele><time>2026-05-01T09:43:34.776Z</time></trkpt><trkpt lat="39.43068" lon="8.44534"><ele>110.0</ele><time>2026-05-01T09:43:35.776Z</time></trkpt><trkpt lat="39.4305767" lon="8.4454283"><ele>110.0</ele><time>2026-05-01T09:43:36.776Z</time></trkpt><trkpt lat="39.4304917" lon="8.4455283"><ele>110.0</ele><time>2026-05-01T09:43:37.776Z</time></trkpt><trkpt lat="39.43043" lon="8.4456533"><ele>110.0</ele><time>2026-05-01T09:43:38.776Z</time></trkpt><trkpt lat="39.4303817" lon="8.4458067"><ele>109.75</ele><time>2026-05-01T09:43:39.776Z</time></trkpt><trkpt lat="39.4303433" lon="8.4459833"><ele>109.5</ele><time>2026-05-01T09:43:40.776Z</time></trkpt><trkpt lat="39.4303067" lon="8.4461517"><ele>109.25</ele><time>2026-05-01T09:43:41.777Z</time></trkpt><trkpt lat="39.43026" lon="8.44631"><ele>109.0</ele><time>2026-05-01T09:43:42.776Z</time></trkpt><trkpt lat="39.4302133" lon="8.4464583"><ele>109.0</ele><time>2026-05-01T09:43:43.776Z</time></trkpt><trkpt lat="39.430175" lon="8.446605"><ele>109.0</ele><time>2026-05-01T09:43:44.776Z</time></trkpt><trkpt lat="39.4301283" lon="8.4467317"><ele>109.0</ele><time>2026-05-01T09:43:45.776Z</time></trkpt><trkpt lat="39.430075" lon="8.44684"><ele>109.0</ele><time>2026-05-01T09:43:46.777Z</time></trkpt><trkpt lat="39.4300217" lon="8.44694"><ele>109.0</ele><time>2026-05-01T09:43:47.776Z</time></trkpt><trkpt lat="39.42998" lon="8.4470567"><ele>107.66666666666667</ele><time>2026-05-01T09:43:48.776Z</time></trkpt><trkpt lat="39.4299367" lon="8.4471817"><ele>106.33333333333334</ele><time>2026-05-01T09:43:49.775Z</time></trkpt><trkpt lat="39.4298783" lon="8.4472917"><ele>105.0</ele><time>2026-05-01T09:43:50.775Z</time></trkpt><trkpt lat="39.4298233" lon="8.44738"><ele>103.66666666666666</ele><time>2026-05-01T09:43:51.776Z</time></trkpt><trkpt lat="39.4297583" lon="8.44745"><ele>102.33333333333333</ele><time>2026-05-01T09:43:52.775Z</time></trkpt><trkpt lat="39.4297" lon="8.4474833"><ele>101.0</ele><time>2026-05-01T09:43:53.775Z</time></trkpt><trkpt lat="39.4296033" lon="8.4474933"><ele>101.0</ele><time>2026-05-01T09:43:55.775Z</time></trkpt><trkpt lat="39.4295117" lon="8.44745"><ele>101.0</ele><time>2026-05-01T09:43:58.775Z</time></trkpt><trkpt lat="39.429445" lon="8.4473617"><ele>101.0</ele><time>2026-05-01T09:44:00.776Z</time></trkpt><trkpt lat="39.429405" lon="8.4472533"><ele>101.0</ele><time>2026-05-01T09:44:02.776Z</time></trkpt><trkpt lat="39.4293717" lon="8.4471517"><ele>101.0</ele><time>2026-05-01T09:44:04.775Z</time></trkpt><trkpt lat="39.4292967" lon="8.4470883"><ele>101.0</ele><time>2026-05-01T09:44:06.775Z</time></trkpt><trkpt lat="39.42918" lon="8.4470917"><ele>101.0</ele><time>2026-05-01T09:44:08.776Z</time></trkpt><trkpt lat="39.4291183" lon="8.4471267"><ele>101.0</ele><time>2026-05-01T09:44:09.775Z</time></trkpt><trkpt lat="39.429055" lon="8.4471983"><ele>101.0</ele><time>2026-05-01T09:44:10.775Z</time></trkpt><trkpt lat="39.42899" lon="8.447295"><ele>101.0</ele><time>2026-05-01T09:44:11.776Z</time></trkpt><trkpt lat="39.428935" lon="8.447425"><ele>101.0</ele><time>2026-05-01T09:44:12.776Z</time></trkpt><trkpt lat="39.4288667" lon="8.4475617"><ele>101.0</ele><time>2026-05-01T09:44:13.775Z</time></trkpt><trkpt lat="39.4288" lon="8.447685"><ele>101.0</ele><time>2026-05-01T09:44:14.775Z</time></trkpt><trkpt lat="39.4287367" lon="8.44779"><ele>101.0</ele><time>2026-05-01T09:44:15.775Z</time></trkpt><trkpt lat="39.4286833" lon="8.4478683"><ele>101.0</ele><time>2026-05-01T09:44:16.775Z</time></trkpt><trkpt lat="39.42865" lon="8.447955"><ele>97.33333333333333</ele><time>2026-05-01T09:44:17.775Z</time></trkpt><trkpt lat="39.4286317" lon="8.448045"><ele>93.66666666666666</ele><time>2026-05-01T09:44:18.775Z</time></trkpt><trkpt lat="39.42864" lon="8.44814"><ele>90.0</ele><time>2026-05-01T09:44:19.775Z</time></trkpt><trkpt lat="39.4286683" lon="8.4482483"><ele>86.33333333333333</ele><time>2026-05-01T09:44:20.776Z</time></trkpt><trkpt lat="39.4287133" lon="8.4483617"><ele>82.66666666666666</ele><time>2026-05-01T09:44:21.776Z</time></trkpt><trkpt lat="39.428755" lon="8.4484967"><ele>79.0</ele><time>2026-05-01T09:44:22.775Z</time></trkpt><trkpt lat="39.4287733" lon="8.448645"><ele>79.0</ele><time>2026-05-01T09:44:23.775Z</time></trkpt><trkpt lat="39.4287717" lon="8.4487933"><ele>79.0</ele><time>2026-05-01T09:44:24.775Z</time></trkpt><trkpt lat="39.4287883" lon="8.4489283"><ele>79.0</ele><time>2026-05-01T09:44:25.776Z</time></trkpt><trkpt lat="39.4288117" lon="8.44905"><ele>79.0</ele><time>2026-05-01T09:44:26.775Z</time></trkpt><trkpt lat="39.4288317" lon="8.4491617"><ele>79.0</ele><time>2026-05-01T09:44:27.776Z</time></trkpt><trkpt lat="39.4288367" lon="8.4492733"><ele>79.0</ele><time>2026-05-01T09:44:28.775Z</time></trkpt><trkpt lat="39.4288067" lon="8.4493733"><ele>79.0</ele><time>2026-05-01T09:44:29.776Z</time></trkpt><trkpt lat="39.4287617" lon="8.4494833"><ele>79.0</ele><time>2026-05-01T09:44:30.775Z</time></trkpt><trkpt lat="39.4286833" lon="8.44958"><ele>79.0</ele><time>2026-05-01T09:44:31.775Z</time></trkpt><trkpt lat="39.428605" lon="8.4496583"><ele>79.0</ele><time>2026-05-01T09:44:32.775Z</time></trkpt><trkpt lat="39.4285367" lon="8.44971"><ele>79.0</ele><time>2026-05-01T09:44:33.775Z</time></trkpt><trkpt lat="39.42847" lon="8.4497333"><ele>79.0</ele><time>2026-05-01T09:44:34.775Z</time></trkpt><trkpt lat="39.428395" lon="8.4497367"><ele>79.0</ele><time>2026-05-01T09:44:35.776Z</time></trkpt><trkpt lat="39.4283167" lon="8.44972"><ele>79.0</ele><time>2026-05-01T09:44:36.775Z</time></trkpt><trkpt lat="39.4282367" lon="8.4496767"><ele>79.0</ele><time>2026-05-01T09:44:37.775Z</time></trkpt><trkpt lat="39.4281667" lon="8.4496133"><ele>79.0</ele><time>2026-05-01T09:44:38.776Z</time></trkpt><trkpt lat="39.4281133" lon="8.449535"><ele>79.0</ele><time>2026-05-01T09:44:39.775Z</time></trkpt><trkpt lat="39.4280667" lon="8.449445"><ele>79.0</ele><time>2026-05-01T09:44:40.775Z</time></trkpt><trkpt lat="39.4280383" lon="8.44933"><ele>79.0</ele><time>2026-05-01T09:44:41.776Z</time></trkpt><trkpt lat="39.42801" lon="8.4492217"><ele>79.0</ele><time>2026-05-01T09:44:42.776Z</time></trkpt><trkpt lat="39.4279533" lon="8.4491267"><ele>79.0</ele><time>2026-05-01T09:44:43.776Z</time></trkpt><trkpt lat="39.42788" lon="8.4490567"><ele>79.0</ele><time>2026-05-01T09:44:44.775Z</time></trkpt><trkpt lat="39.4277917" lon="8.4489983"><ele>80.0</ele><time>2026-05-01T09:44:45.775Z</time></trkpt><trkpt lat="39.42771" lon="8.4489483"><ele>81.0</ele><time>2026-05-01T09:44:46.775Z</time></trkpt><trkpt lat="39.4276583" lon="8.4488867"><ele>82.0</ele><time>2026-05-01T09:44:47.775Z</time></trkpt><trkpt lat="39.427615" lon="8.44882"><ele>83.0</ele><time>2026-05-01T09:44:48.775Z</time></trkpt><trkpt lat="39.42759" lon="8.4487267"><ele>84.0</ele><time>2026-05-01T09:44:49.775Z</time></trkpt><trkpt lat="39.4275633" lon="8.4486167"><ele>85.0</ele><time>2026-05-01T09:44:50.775Z</time></trkpt><trkpt lat="39.4275383" lon="8.448495"><ele>85.0</ele><time>2026-05-01T09:44:51.775Z</time></trkpt><trkpt lat="39.42749" lon="8.448365"><ele>85.0</ele><time>2026-05-01T09:44:52.776Z</time></trkpt><trkpt lat="39.42742" lon="8.4482517"><ele>85.0</ele><time>2026-05-01T09:44:53.775Z</time></trkpt><trkpt lat="39.4273367" lon="8.4481433"><ele>85.0</ele><time>2026-05-01T09:44:54.776Z</time></trkpt><trkpt lat="39.4272417" lon="8.4480617"><ele>87.8</ele><time>2026-05-01T09:44:55.775Z</time></trkpt><trkpt lat="39.4271267" lon="8.4479933"><ele>90.6</ele><time>2026-05-01T09:44:56.775Z</time></trkpt><trkpt lat="39.4270133" lon="8.4479517"><ele>93.4</ele><time>2026-05-01T09:44:57.775Z</time></trkpt><trkpt lat="39.4269083" lon="8.447915"><ele>96.2</ele><time>2026-05-01T09:44:58.775Z</time></trkpt><trkpt lat="39.4268317" lon="8.4478767"><ele>99.0</ele><time>2026-05-01T09:44:59.776Z</time></trkpt><trkpt lat="39.4267767" lon="8.4478267"><ele>99.0</ele><time>2026-05-01T09:45:00.775Z</time></trkpt><trkpt lat="39.42674" lon="8.44776"><ele>99.0</ele><time>2026-05-01T09:45:01.775Z</time></trkpt><trkpt lat="39.4267217" lon="8.4476733"><ele>99.0</ele><time>2026-05-01T09:45:02.775Z</time></trkpt><trkpt lat="39.42672" lon="8.4475617"><ele>99.0</ele><time>2026-05-01T09:45:03.775Z</time></trkpt><trkpt lat="39.426745" lon="8.4474417"><ele>99.0</ele><time>2026-05-01T09:45:04.775Z</time></trkpt><trkpt lat="39.4267833" lon="8.447305"><ele>99.0</ele><time>2026-05-01T09:45:05.775Z</time></trkpt><trkpt lat="39.42682" lon="8.4471567"><ele>99.5</ele><time>2026-05-01T09:45:06.775Z</time></trkpt><trkpt lat="39.42685" lon="8.4469933"><ele>100.0</ele><time>2026-05-01T09:45:07.775Z</time></trkpt><trkpt lat="39.42686" lon="8.4468167"><ele>100.5</ele><time>2026-05-01T09:45:08.775Z</time></trkpt><trkpt lat="39.4268717" lon="8.446645"><ele>101.0</ele><time>2026-05-01T09:45:09.775Z</time></trkpt><trkpt lat="39.4268717" lon="8.4465033"><ele>101.0</ele><time>2026-05-01T09:45:10.775Z</time></trkpt><trkpt lat="39.4268733" lon="8.44635"><ele>101.0</ele><time>2026-05-01T09:45:11.775Z</time></trkpt><trkpt lat="39.42683" lon="8.446235"><ele>101.0</ele><time>2026-05-01T09:45:12.775Z</time></trkpt><trkpt lat="39.4268083" lon="8.44613"><ele>101.0</ele><time>2026-05-01T09:45:13.775Z</time></trkpt><trkpt lat="39.4268183" lon="8.4460283"><ele>101.0</ele><time>2026-05-01T09:45:14.776Z</time></trkpt><trkpt lat="39.4268467" lon="8.4459283"><ele>101.4</ele><time>2026-05-01T09:45:15.775Z</time></trkpt><trkpt lat="39.4268717" lon="8.4458133"><ele>101.8</ele><time>2026-05-01T09:45:16.776Z</time></trkpt><trkpt lat="39.4268683" lon="8.4456983"><ele>102.2</ele><time>2026-05-01T09:45:17.775Z</time></trkpt><trkpt lat="39.4268317" lon="8.4455817"><ele>102.60000000000001</ele><time>2026-05-01T09:45:18.776Z</time></trkpt><trkpt lat="39.426775" lon="8.445445"><ele>103.0</ele><time>2026-05-01T09:45:19.776Z</time></trkpt><trkpt lat="39.4267167" lon="8.4452967"><ele>103.25</ele><time>2026-05-01T09:45:20.775Z</time></trkpt><trkpt lat="39.426685" lon="8.4451383"><ele>103.5</ele><time>2026-05-01T09:45:21.775Z</time></trkpt><trkpt lat="39.4266533" lon="8.4449767"><ele>103.75</ele><time>2026-05-01T09:45:22.775Z</time></trkpt><trkpt lat="39.4266367" lon="8.4448133"><ele>104.0</ele><time>2026-05-01T09:45:23.775Z</time></trkpt><trkpt lat="39.4266167" lon="8.4446917"><ele>104.6</ele><time>2026-05-01T09:45:24.776Z</time></trkpt><trkpt lat="39.4265917" lon="8.444585"><ele>105.2</ele><time>2026-05-01T09:45:25.775Z</time></trkpt><trkpt lat="39.4265467" lon="8.4445117"><ele>105.79999999999998</ele><time>2026-05-01T09:45:26.776Z</time></trkpt><trkpt lat="39.4264783" lon="8.4444417"><ele>106.39999999999999</ele><time>2026-05-01T09:45:27.776Z</time></trkpt><trkpt lat="39.4263933" lon="8.444395"><ele>107.0</ele><time>2026-05-01T09:45:28.775Z</time></trkpt><trkpt lat="39.4262667" lon="8.4443617"><ele>107.75</ele><time>2026-05-01T09:45:29.776Z</time></trkpt><trkpt lat="39.426125" lon="8.4443683"><ele>108.5</ele><time>2026-05-01T09:45:30.775Z</time></trkpt><trkpt lat="39.4260033" lon="8.44438"><ele>109.25</ele><time>2026-05-01T09:45:31.775Z</time></trkpt><trkpt lat="39.4259033" lon="8.4443983"><ele>110.0</ele><time>2026-05-01T09:45:32.775Z</time></trkpt><trkpt lat="39.4258083" lon="8.4444017"><ele>110.0</ele><time>2026-05-01T09:45:33.776Z</time></trkpt><trkpt lat="39.4257267" lon="8.444385"><ele>110.0</ele><time>2026-05-01T09:45:34.775Z</time></trkpt><trkpt lat="39.4256633" lon="8.4443583"><ele>110.0</ele><time>2026-05-01T09:45:35.775Z</time></trkpt><trkpt lat="39.4255867" lon="8.4442567"><ele>110.0</ele><time>2026-05-01T09:45:37.775Z</time></trkpt><trkpt lat="39.4255483" lon="8.4441033"><ele>110.0</ele><time>2026-05-01T09:45:39.775Z</time></trkpt><trkpt lat="39.425555" lon="8.4440083"><ele>109.99999999999999</ele><time>2026-05-01T09:45:40.776Z</time></trkpt><trkpt lat="39.4255767" lon="8.44391"><ele>110.0</ele><time>2026-05-01T09:45:41.776Z</time></trkpt><trkpt lat="39.4256133" lon="8.4438217"><ele>110.0</ele><time>2026-05-01T09:45:42.775Z</time></trkpt><trkpt lat="39.4256617" lon="8.4437417"><ele>110.0</ele><time>2026-05-01T09:45:43.775Z</time></trkpt><trkpt lat="39.4257167" lon="8.443675"><ele>109.99999999999999</ele><time>2026-05-01T09:45:44.775Z</time></trkpt><trkpt lat="39.425785" lon="8.4436317"><ele>110.0</ele><time>2026-05-01T09:45:45.775Z</time></trkpt><trkpt lat="39.42586" lon="8.4436217"><ele>111.33333333333333</ele><time>2026-05-01T09:45:46.775Z</time></trkpt><trkpt lat="39.425935" lon="8.4436383"><ele>112.66666666666666</ele><time>2026-05-01T09:45:47.775Z</time></trkpt><trkpt lat="39.42601" lon="8.4436733"><ele>114.0</ele><time>2026-05-01T09:45:48.775Z</time></trkpt><trkpt lat="39.42609" lon="8.44372"><ele>115.33333333333334</ele><time>2026-05-01T09:45:49.775Z</time></trkpt><trkpt lat="39.426175" lon="8.4437617"><ele>116.66666666666667</ele><time>2026-05-01T09:45:50.775Z</time></trkpt><trkpt lat="39.426255" lon="8.4437867"><ele>118.0</ele><time>2026-05-01T09:45:51.775Z</time></trkpt><trkpt lat="39.4263333" lon="8.44379"><ele>118.00000000000001</ele><time>2026-05-01T09:45:52.775Z</time></trkpt><trkpt lat="39.4264067" lon="8.4437717"><ele>118.0</ele><time>2026-05-01T09:45:53.776Z</time></trkpt><trkpt lat="39.42649" lon="8.443735"><ele>118.0</ele><time>2026-05-01T09:45:54.775Z</time></trkpt><trkpt lat="39.426575" lon="8.4436917"><ele>118.0</ele><time>2026-05-01T09:45:55.776Z</time></trkpt><trkpt lat="39.4266583" lon="8.44364"><ele>118.00000000000001</ele><time>2026-05-01T09:45:56.775Z</time></trkpt><trkpt lat="39.42673" lon="8.4435717"><ele>118.0</ele><time>2026-05-01T09:45:57.775Z</time></trkpt><trkpt lat="39.4267917" lon="8.4434883"><ele>118.00000000000001</ele><time>2026-05-01T09:45:58.775Z</time></trkpt><trkpt lat="39.4268383" lon="8.4433883"><ele>118.0</ele><time>2026-05-01T09:45:59.776Z</time></trkpt><trkpt lat="39.4268733" lon="8.4432833"><ele>118.0</ele><time>2026-05-01T09:46:00.775Z</time></trkpt><trkpt lat="39.4268933" lon="8.443185"><ele>118.0</ele><time>2026-05-01T09:46:01.776Z</time></trkpt><trkpt lat="39.4268917" lon="8.443095"><ele>118.00000000000001</ele><time>2026-05-01T09:46:02.775Z</time></trkpt><trkpt lat="39.42688" lon="8.4430067"><ele>118.0</ele><time>2026-05-01T09:46:03.775Z</time></trkpt><trkpt lat="39.4268717" lon="8.4429067"><ele>119.33333333333334</ele><time>2026-05-01T09:46:04.776Z</time></trkpt><trkpt lat="39.4268567" lon="8.4428"><ele>120.66666666666667</ele><time>2026-05-01T09:46:05.775Z</time></trkpt><trkpt lat="39.42683" lon="8.442695"><ele>122.0</ele><time>2026-05-01T09:46:06.775Z</time></trkpt><trkpt lat="39.4267933" lon="8.4426083"><ele>123.33333333333334</ele><time>2026-05-01T09:46:07.776Z</time></trkpt><trkpt lat="39.4267367" lon="8.4425567"><ele>124.66666666666667</ele><time>2026-05-01T09:46:08.776Z</time></trkpt><trkpt lat="39.4266167" lon="8.4425867"><ele>126.0</ele><time>2026-05-01T09:46:10.775Z</time></trkpt><trkpt lat="39.42654" lon="8.4426617"><ele>126.0</ele><time>2026-05-01T09:46:11.775Z</time></trkpt><trkpt lat="39.4264733" lon="8.44277"><ele>126.0</ele><time>2026-05-01T09:46:12.775Z</time></trkpt><trkpt lat="39.42642" lon="8.4428967"><ele>126.0</ele><time>2026-05-01T09:46:13.775Z</time></trkpt><trkpt lat="39.42638" lon="8.4430333"><ele>126.0</ele><time>2026-05-01T09:46:14.776Z</time></trkpt><trkpt lat="39.426345" lon="8.4431483"><ele>126.0</ele><time>2026-05-01T09:46:15.775Z</time></trkpt><trkpt lat="39.4263033" lon="8.443235"><ele>125.6</ele><time>2026-05-01T09:46:16.775Z</time></trkpt><trkpt lat="39.426215" lon="8.4432883"><ele>125.19999999999999</ele><time>2026-05-01T09:46:18.775Z</time></trkpt><trkpt lat="39.42615" lon="8.44322"><ele>124.80000000000001</ele><time>2026-05-01T09:46:20.775Z</time></trkpt><trkpt lat="39.42614" lon="8.4430533"><ele>124.4</ele><time>2026-05-01T09:46:22.775Z</time></trkpt><trkpt lat="39.42617" lon="8.44294"><ele>124.0</ele><time>2026-05-01T09:46:23.775Z</time></trkpt><trkpt lat="39.4262017" lon="8.4428133"><ele>127.6</ele><time>2026-05-01T09:46:24.775Z</time></trkpt><trkpt lat="39.4262267" lon="8.4426817"><ele>131.2</ele><time>2026-05-01T09:46:25.776Z</time></trkpt><trkpt lat="39.4262383" lon="8.44257"><ele>134.79999999999998</ele><time>2026-05-01T09:46:26.775Z</time></trkpt><trkpt lat="39.4262333" lon="8.442475"><ele>138.4</ele><time>2026-05-01T09:46:27.775Z</time></trkpt><trkpt lat="39.4261533" lon="8.4423967"><ele>142.0</ele><time>2026-05-01T09:46:29.776Z</time></trkpt><trkpt lat="39.4260517" lon="8.44247"><ele>142.0</ele><time>2026-05-01T09:46:31.776Z</time></trkpt><trkpt lat="39.4260233" lon="8.4425667"><ele>142.0</ele><time>2026-05-01T09:46:32.775Z</time></trkpt><trkpt lat="39.426015" lon="8.442695"><ele>142.0</ele><time>2026-05-01T09:46:33.775Z</time></trkpt><trkpt lat="39.4260217" lon="8.4428083"><ele>142.0</ele><time>2026-05-01T09:46:34.775Z</time></trkpt><trkpt lat="39.4260017" lon="8.442895"><ele>142.0</ele><time>2026-05-01T09:46:35.775Z</time></trkpt><trkpt lat="39.425955" lon="8.44295"><ele>142.0</ele><time>2026-05-01T09:46:36.776Z</time></trkpt><trkpt lat="39.4258517" lon="8.442935"><ele>142.0</ele><time>2026-05-01T09:46:38.775Z</time></trkpt><trkpt lat="39.425825" lon="8.442785"><ele>142.0</ele><time>2026-05-01T09:46:40.775Z</time></trkpt><trkpt lat="39.4258467" lon="8.4426783"><ele>142.0</ele><time>2026-05-01T09:46:41.775Z</time></trkpt><trkpt lat="39.4258667" lon="8.4425667"><ele>142.0</ele><time>2026-05-01T09:46:42.776Z</time></trkpt><trkpt lat="39.4258733" lon="8.4424567"><ele>142.0</ele><time>2026-05-01T09:46:43.776Z</time></trkpt><trkpt lat="39.4258717" lon="8.44233"><ele>142.0</ele><time>2026-05-01T09:46:44.776Z</time></trkpt><trkpt lat="39.42588" lon="8.4422133"><ele>142.0</ele><time>2026-05-01T09:46:45.776Z</time></trkpt><trkpt lat="39.425905" lon="8.4421117"><ele>142.0</ele><time>2026-05-01T09:46:46.775Z</time></trkpt><trkpt lat="39.4259333" lon="8.4420167"><ele>142.0</ele><time>2026-05-01T09:46:47.776Z</time></trkpt><trkpt lat="39.42594" lon="8.4419283"><ele>142.0</ele><time>2026-05-01T09:46:48.775Z</time></trkpt><trkpt lat="39.425875" lon="8.4418267"><ele>142.0</ele><time>2026-05-01T09:46:50.775Z</time></trkpt><trkpt lat="39.4257883" lon="8.4418567"><ele>142.0</ele><time>2026-05-01T09:46:52.774Z</time></trkpt><trkpt lat="39.42576" lon="8.4419417"><ele>142.0</ele><time>2026-05-01T09:46:53.775Z</time></trkpt><trkpt lat="39.4257433" lon="8.4420767"><ele>142.0</ele><time>2026-05-01T09:46:54.774Z</time></trkpt><trkpt lat="39.4257417" lon="8.442215"><ele>142.0</ele><time>2026-05-01T09:46:55.774Z</time></trkpt><trkpt lat="39.425725" lon="8.4423367"><ele>142.0</ele><time>2026-05-01T09:46:56.774Z</time></trkpt><trkpt lat="39.4256933" lon="8.4424483"><ele>142.0</ele><time>2026-05-01T09:46:57.774Z</time></trkpt><trkpt lat="39.4256483" lon="8.442535"><ele>142.0</ele><time>2026-05-01T09:46:58.774Z</time></trkpt><trkpt lat="39.4255967" lon="8.4425933"><ele>142.0</ele><time>2026-05-01T09:46:59.775Z</time></trkpt><trkpt lat="39.4255033" lon="8.4425967"><ele>142.0</ele><time>2026-05-01T09:47:01.774Z</time></trkpt><trkpt lat="39.4254483" lon="8.4424983"><ele>142.0</ele><time>2026-05-01T09:47:03.774Z</time></trkpt><trkpt lat="39.4254583" lon="8.44239"><ele>142.0</ele><time>2026-05-01T09:47:05.774Z</time></trkpt><trkpt lat="39.4254967" lon="8.4423233"><ele>142.0</ele><time>2026-05-01T09:47:06.775Z</time></trkpt><trkpt lat="39.42554" lon="8.4422267"><ele>142.0</ele><time>2026-05-01T09:47:07.774Z</time></trkpt><trkpt lat="39.4255667" lon="8.44212"><ele>142.0</ele><time>2026-05-01T09:47:08.774Z</time></trkpt><trkpt lat="39.42558" lon="8.44201"><ele>142.0</ele><time>2026-05-01T09:47:09.774Z</time></trkpt><trkpt lat="39.42559" lon="8.4418817"><ele>142.0</ele><time>2026-05-01T09:47:10.774Z</time></trkpt><trkpt lat="39.4256067" lon="8.4417467"><ele>143.83333333333334</ele><time>2026-05-01T09:47:11.774Z</time></trkpt><trkpt lat="39.42562" lon="8.4416167"><ele>145.66666666666669</ele><time>2026-05-01T09:47:12.775Z</time></trkpt><trkpt lat="39.4256133" lon="8.4415"><ele>147.5</ele><time>2026-05-01T09:47:13.774Z</time></trkpt><trkpt lat="39.42559" lon="8.4414017"><ele>149.33333333333334</ele><time>2026-05-01T09:47:14.774Z</time></trkpt><trkpt lat="39.4255417" lon="8.4413117"><ele>151.16666666666666</ele><time>2026-05-01T09:47:15.774Z</time></trkpt><trkpt lat="39.4254733" lon="8.4412333"><ele>153.0</ele><time>2026-05-01T09:47:16.774Z</time></trkpt><trkpt lat="39.425395" lon="8.44116"><ele>156.33333333333334</ele><time>2026-05-01T09:47:17.774Z</time></trkpt><trkpt lat="39.425305" lon="8.441095"><ele>159.66666666666666</ele><time>2026-05-01T09:47:18.774Z</time></trkpt><trkpt lat="39.42522" lon="8.4410383"><ele>163.0</ele><time>2026-05-01T09:47:19.775Z</time></trkpt><trkpt lat="39.42516" lon="8.44097"><ele>166.33333333333331</ele><time>2026-05-01T09:47:20.774Z</time></trkpt><trkpt lat="39.4251117" lon="8.4408867"><ele>169.66666666666666</ele><time>2026-05-01T09:47:21.774Z</time></trkpt><trkpt lat="39.4250767" lon="8.4407967"><ele>173.0</ele><time>2026-05-01T09:47:22.774Z</time></trkpt><trkpt lat="39.4249867" lon="8.4407083"><ele>173.0</ele><time>2026-05-01T09:47:24.775Z</time></trkpt><trkpt lat="39.4249017" lon="8.44075"><ele>173.0</ele><time>2026-05-01T09:47:26.774Z</time></trkpt><trkpt lat="39.4249083" lon="8.440925"><ele>173.0</ele><time>2026-05-01T09:47:28.774Z</time></trkpt><trkpt lat="39.42497" lon="8.4410483"><ele>173.0</ele><time>2026-05-01T09:47:29.775Z</time></trkpt><trkpt lat="39.4250233" lon="8.44116"><ele>173.0</ele><time>2026-05-01T09:47:30.774Z</time></trkpt><trkpt lat="39.425065" lon="8.44126"><ele>173.0</ele><time>2026-05-01T09:47:31.774Z</time></trkpt><trkpt lat="39.4250767" lon="8.4413433"><ele>173.0</ele><time>2026-05-01T09:47:32.774Z</time></trkpt><trkpt lat="39.4250033" lon="8.441445"><ele>173.0</ele><time>2026-05-01T09:47:34.774Z</time></trkpt><trkpt lat="39.4248967" lon="8.44141"><ele>173.0</ele><time>2026-05-01T09:47:36.775Z</time></trkpt><trkpt lat="39.4248417" lon="8.4412767"><ele>173.0</ele><time>2026-05-01T09:47:38.774Z</time></trkpt><trkpt lat="39.4248183" lon="8.4411783"><ele>173.0</ele><time>2026-05-01T09:47:39.774Z</time></trkpt><trkpt lat="39.4247833" lon="8.441065"><ele>173.0</ele><time>2026-05-01T09:47:40.774Z</time></trkpt><trkpt lat="39.424735" lon="8.4409483"><ele>173.0</ele><time>2026-05-01T09:47:41.774Z</time></trkpt><trkpt lat="39.4246867" lon="8.4408483"><ele>173.0</ele><time>2026-05-01T09:47:42.774Z</time></trkpt><trkpt lat="39.424655" lon="8.4407467"><ele>173.0</ele><time>2026-05-01T09:47:43.774Z</time></trkpt><trkpt lat="39.4246367" lon="8.4406367"><ele>173.0</ele><time>2026-05-01T09:47:44.775Z</time></trkpt><trkpt lat="39.4246533" lon="8.4405383"><ele>173.0</ele><time>2026-05-01T09:47:45.774Z</time></trkpt><trkpt lat="39.42469" lon="8.4404533"><ele>173.0</ele><time>2026-05-01T09:47:46.775Z</time></trkpt><trkpt lat="39.424745" lon="8.4403717"><ele>173.0</ele><time>2026-05-01T09:47:47.775Z</time></trkpt><trkpt lat="39.424795" lon="8.4402883"><ele>173.0</ele><time>2026-05-01T09:47:48.775Z</time></trkpt><trkpt lat="39.4248417" lon="8.4401883"><ele>173.0</ele><time>2026-05-01T09:47:49.775Z</time></trkpt><trkpt lat="39.424885" lon="8.4400983"><ele>175.66666666666666</ele><time>2026-05-01T09:47:50.775Z</time></trkpt><trkpt lat="39.424945" lon="8.4400217"><ele>178.33333333333331</ele><time>2026-05-01T09:47:51.775Z</time></trkpt><trkpt lat="39.4250167" lon="8.4399783"><ele>181.0</ele><time>2026-05-01T09:47:52.774Z</time></trkpt><trkpt lat="39.4250933" lon="8.439975"><ele>183.66666666666666</ele><time>2026-05-01T09:47:53.774Z</time></trkpt><trkpt lat="39.4251833" lon="8.44"><ele>186.33333333333334</ele><time>2026-05-01T09:47:54.774Z</time></trkpt><trkpt lat="39.4252733" lon="8.4400033"><ele>189.0</ele><time>2026-05-01T09:47:55.774Z</time></trkpt><trkpt lat="39.4253633" lon="8.4399633"><ele>189.0</ele><time>2026-05-01T09:47:56.774Z</time></trkpt><trkpt lat="39.42544" lon="8.4399167"><ele>189.0</ele><time>2026-05-01T09:47:57.775Z</time></trkpt><trkpt lat="39.425505" lon="8.4398867"><ele>189.0</ele><time>2026-05-01T09:47:58.774Z</time></trkpt><trkpt lat="39.42562" lon="8.4399433"><ele>189.0</ele><time>2026-05-01T09:48:00.774Z</time></trkpt><trkpt lat="39.4256817" lon="8.4400067"><ele>189.0</ele><time>2026-05-01T09:48:01.774Z</time></trkpt><trkpt lat="39.425755" lon="8.440085"><ele>190.0</ele><time>2026-05-01T09:48:02.774Z</time></trkpt><trkpt lat="39.425835" lon="8.4401633"><ele>191.0</ele><time>2026-05-01T09:48:03.774Z</time></trkpt><trkpt lat="39.4259217" lon="8.44024"><ele>192.0</ele><time>2026-05-01T09:48:04.775Z</time></trkpt><trkpt lat="39.4260167" lon="8.4403117"><ele>193.0</ele><time>2026-05-01T09:48:05.775Z</time></trkpt><trkpt lat="39.4261133" lon="8.44038"><ele>194.0</ele><time>2026-05-01T09:48:06.775Z</time></trkpt><trkpt lat="39.4262" lon="8.440445"><ele>194.0</ele><time>2026-05-01T09:48:07.774Z</time></trkpt><trkpt lat="39.4262733" lon="8.4404783"><ele>194.0</ele><time>2026-05-01T09:48:08.775Z</time></trkpt><trkpt lat="39.426335" lon="8.4404567"><ele>194.0</ele><time>2026-05-01T09:48:09.775Z</time></trkpt><trkpt lat="39.426385" lon="8.4403417"><ele>194.0</ele><time>2026-05-01T09:48:11.774Z</time></trkpt><trkpt lat="39.4262917" lon="8.4401933"><ele>194.0</ele><time>2026-05-01T09:48:13.774Z</time></trkpt><trkpt lat="39.4262017" lon="8.4401233"><ele>194.00000000000003</ele><time>2026-05-01T09:48:14.775Z</time></trkpt><trkpt lat="39.4261083" lon="8.4400833"><ele>194.0</ele><time>2026-05-01T09:48:15.774Z</time></trkpt><trkpt lat="39.426015" lon="8.44006"><ele>194.0</ele><time>2026-05-01T09:48:16.775Z</time></trkpt><trkpt lat="39.425935" lon="8.4400533"><ele>194.0</ele><time>2026-05-01T09:48:17.774Z</time></trkpt><trkpt lat="39.4258683" lon="8.44"><ele>194.00000000000003</ele><time>2026-05-01T09:48:18.774Z</time></trkpt><trkpt lat="39.4258283" lon="8.439925"><ele>194.0</ele><time>2026-05-01T09:48:19.774Z</time></trkpt><trkpt lat="39.4257917" lon="8.4398183"><ele>194.0</ele><time>2026-05-01T09:48:20.774Z</time></trkpt><trkpt lat="39.4257633" lon="8.4396817"><ele>194.0</ele><time>2026-05-01T09:48:21.774Z</time></trkpt><trkpt lat="39.4257433" lon="8.439545"><ele>194.0</ele><time>2026-05-01T09:48:22.774Z</time></trkpt><trkpt lat="39.4257167" lon="8.43943"><ele>194.0</ele><time>2026-05-01T09:48:23.775Z</time></trkpt><trkpt lat="39.4256717" lon="8.4393467"><ele>194.0</ele><time>2026-05-01T09:48:24.774Z</time></trkpt><trkpt lat="39.42561" lon="8.4392933"><ele>199.2</ele><time>2026-05-01T09:48:25.774Z</time></trkpt><trkpt lat="39.425535" lon="8.439265"><ele>204.39999999999998</ele><time>2026-05-01T09:48:26.774Z</time></trkpt><trkpt lat="39.425445" lon="8.43928"><ele>209.6</ele><time>2026-05-01T09:48:27.774Z</time></trkpt><trkpt lat="39.4253533" lon="8.4393383"><ele>214.8</ele><time>2026-05-01T09:48:28.774Z</time></trkpt><trkpt lat="39.42527" lon="8.43941"><ele>220.0</ele><time>2026-05-01T09:48:29.774Z</time></trkpt><trkpt lat="39.4251883" lon="8.439455"><ele>219.99999999999997</ele><time>2026-05-01T09:48:30.774Z</time></trkpt><trkpt lat="39.425105" lon="8.4394667"><ele>220.0</ele><time>2026-05-01T09:48:31.774Z</time></trkpt><trkpt lat="39.42501" lon="8.4394517"><ele>220.0</ele><time>2026-05-01T09:48:32.775Z</time></trkpt><trkpt lat="39.424915" lon="8.43942"><ele>220.0</ele><time>2026-05-01T09:48:33.775Z</time></trkpt><trkpt lat="39.42484" lon="8.43937"><ele>219.99999999999997</ele><time>2026-05-01T09:48:34.774Z</time></trkpt><trkpt lat="39.4247833" lon="8.4393033"><ele>220.0</ele><time>2026-05-01T09:48:35.774Z</time></trkpt><trkpt lat="39.4247383" lon="8.439225"><ele>220.0</ele><time>2026-05-01T09:48:36.774Z</time></trkpt><trkpt lat="39.4246917" lon="8.439125"><ele>220.0</ele><time>2026-05-01T09:48:37.774Z</time></trkpt><trkpt lat="39.424645" lon="8.4390017"><ele>220.0</ele><time>2026-05-01T09:48:38.775Z</time></trkpt><trkpt lat="39.4245983" lon="8.43886"><ele>220.0</ele><time>2026-05-01T09:48:39.775Z</time></trkpt><trkpt lat="39.424545" lon="8.438705"><ele>220.0</ele><time>2026-05-01T09:48:40.775Z</time></trkpt><trkpt lat="39.4244867" lon="8.4385483"><ele>220.6</ele><time>2026-05-01T09:48:41.775Z</time></trkpt><trkpt lat="39.4244433" lon="8.43841"><ele>221.2</ele><time>2026-05-01T09:48:42.774Z</time></trkpt><trkpt lat="39.4244117" lon="8.438295"><ele>221.8</ele><time>2026-05-01T09:48:43.774Z</time></trkpt><trkpt lat="39.4243933" lon="8.438195"><ele>222.4</ele><time>2026-05-01T09:48:44.774Z</time></trkpt><trkpt lat="39.42436" lon="8.4380817"><ele>223.0</ele><time>2026-05-01T09:48:46.774Z</time></trkpt><trkpt lat="39.4243217" lon="8.438"><ele>219.57142857142856</ele><time>2026-05-01T09:48:48.774Z</time></trkpt><trkpt lat="39.4242983" lon="8.4379167"><ele>216.14285714285714</ele><time>2026-05-01T10:00:52.771Z</time></trkpt><trkpt lat="39.424335" lon="8.4378433"><ele>212.71428571428572</ele><time>2026-05-01T10:00:54.771Z</time></trkpt><trkpt lat="39.4243433" lon="8.4377617"><ele>209.28571428571428</ele><time>2026-05-01T10:00:56.77Z</time></trkpt><trkpt lat="39.4243533" lon="8.4376533"><ele>205.85714285714286</ele><time>2026-05-01T10:00:59.77Z</time></trkpt><trkpt lat="39.42437" lon="8.4375467"><ele>202.42857142857142</ele><time>2026-05-01T10:01:01.77Z</time></trkpt><trkpt lat="39.42439" lon="8.437465"><ele>199.0</ele><time>2026-05-01T10:01:02.77Z</time></trkpt><trkpt lat="39.4244267" lon="8.437365"><ele>198.99999999999997</ele><time>2026-05-01T10:01:03.769Z</time></trkpt><trkpt lat="39.4244733" lon="8.4372817"><ele>199.0</ele><time>2026-05-01T10:01:04.769Z</time></trkpt><trkpt lat="39.4245217" lon="8.4372033"><ele>199.0</ele><time>2026-05-01T10:01:05.77Z</time></trkpt><trkpt lat="39.4245667" lon="8.4371267"><ele>199.0</ele><time>2026-05-01T10:01:06.769Z</time></trkpt><trkpt lat="39.4246133" lon="8.437065"><ele>198.99999999999997</ele><time>2026-05-01T10:01:07.769Z</time></trkpt><trkpt lat="39.4246617" lon="8.43701"><ele>199.0</ele><time>2026-05-01T10:01:08.769Z</time></trkpt><trkpt lat="39.4247433" lon="8.4369183"><ele>199.0</ele><time>2026-05-01T10:01:10.769Z</time></trkpt><trkpt lat="39.424815" lon="8.436845"><ele>199.0</ele><time>2026-05-01T10:01:12.769Z</time></trkpt><trkpt lat="39.4248017" lon="8.436765"><ele>199.0</ele><time>2026-05-01T10:01:14.769Z</time></trkpt><trkpt lat="39.42473" lon="8.4367167"><ele>199.0</ele><time>2026-05-01T10:01:16.77Z</time></trkpt><trkpt lat="39.424645" lon="8.4367733"><ele>199.0</ele><time>2026-05-01T10:01:18.77Z</time></trkpt><trkpt lat="39.42458" lon="8.43693"><ele>198.99999999999997</ele><time>2026-05-01T10:01:20.77Z</time></trkpt><trkpt lat="39.4245333" lon="8.4370083"><ele>199.0</ele><time>2026-05-01T10:01:21.769Z</time></trkpt><trkpt lat="39.4244733" lon="8.4370917"><ele>199.0</ele><time>2026-05-01T10:01:22.769Z</time></trkpt><trkpt lat="39.4243983" lon="8.4371717"><ele>199.0</ele><time>2026-05-01T10:01:23.769Z</time></trkpt><trkpt lat="39.4243317" lon="8.4372533"><ele>198.99999999999997</ele><time>2026-05-01T10:01:24.77Z</time></trkpt><trkpt lat="39.4242767" lon="8.4373317"><ele>199.0</ele><time>2026-05-01T10:01:25.77Z</time></trkpt><trkpt lat="39.4242317" lon="8.437415"><ele>198.99999999999997</ele><time>2026-05-01T10:01:26.769Z</time></trkpt><trkpt lat="39.42419" lon="8.4374917"><ele>199.0</ele><time>2026-05-01T10:01:27.769Z</time></trkpt><trkpt lat="39.4241167" lon="8.43759"><ele>199.0</ele><time>2026-05-01T10:01:29.769Z</time></trkpt><trkpt lat="39.4240633" lon="8.4375383"><ele>199.0</ele><time>2026-05-01T10:01:31.77Z</time></trkpt><trkpt lat="39.424015" lon="8.4374183"><ele>198.99999999999997</ele><time>2026-05-01T10:01:33.769Z</time></trkpt><trkpt lat="39.4240433" lon="8.437335"><ele>199.0</ele><time>2026-05-01T10:01:34.769Z</time></trkpt><trkpt lat="39.424105" lon="8.4372717"><ele>199.0</ele><time>2026-05-01T10:01:35.769Z</time></trkpt><trkpt lat="39.424175" lon="8.4372167"><ele>199.0</ele><time>2026-05-01T10:01:36.769Z</time></trkpt><trkpt lat="39.4242567" lon="8.4371267"><ele>199.0</ele><time>2026-05-01T10:01:37.769Z</time></trkpt><trkpt lat="39.42433" lon="8.4370233"><ele>199.0</ele><time>2026-05-01T10:01:38.769Z</time></trkpt><trkpt lat="39.4243917" lon="8.436915"><ele>199.0</ele><time>2026-05-01T10:01:39.77Z</time></trkpt><trkpt lat="39.4244333" lon="8.4368067"><ele>198.99999999999997</ele><time>2026-05-01T10:01:40.769Z</time></trkpt><trkpt lat="39.424465" lon="8.4366933"><ele>199.0</ele><time>2026-05-01T10:01:41.769Z</time></trkpt><trkpt lat="39.42448" lon="8.4365817"><ele>199.0</ele><time>2026-05-01T10:01:42.769Z</time></trkpt><trkpt lat="39.424505" lon="8.43649"><ele>199.0</ele><time>2026-05-01T10:01:43.769Z</time></trkpt><trkpt lat="39.4245567" lon="8.43641"><ele>198.99999999999997</ele><time>2026-05-01T10:01:44.769Z</time></trkpt><trkpt lat="39.424625" lon="8.4363483"><ele>199.0</ele><time>2026-05-01T10:01:45.77Z</time></trkpt><trkpt lat="39.4247033" lon="8.4363117"><ele>194.83333333333331</ele><time>2026-05-01T10:01:46.77Z</time></trkpt><trkpt lat="39.424765" lon="8.4362717"><ele>190.66666666666666</ele><time>2026-05-01T10:01:47.77Z</time></trkpt><trkpt lat="39.4248133" lon="8.4362117"><ele>186.5</ele><time>2026-05-01T10:01:48.77Z</time></trkpt><trkpt lat="39.4248583" lon="8.4361217"><ele>182.33333333333331</ele><time>2026-05-01T10:01:49.77Z</time></trkpt><trkpt lat="39.424895" lon="8.4360117"><ele>178.16666666666666</ele><time>2026-05-01T10:01:50.769Z</time></trkpt><trkpt lat="39.4249283" lon="8.43591"><ele>174.0</ele><time>2026-05-01T10:01:51.769Z</time></trkpt><trkpt lat="39.4249767" lon="8.435825"><ele>174.0</ele><time>2026-05-01T10:01:52.769Z</time></trkpt><trkpt lat="39.425055" lon="8.4357367"><ele>174.0</ele><time>2026-05-01T10:01:53.77Z</time></trkpt><trkpt lat="39.4251417" lon="8.43566"><ele>174.0</ele><time>2026-05-01T10:01:54.77Z</time></trkpt><trkpt lat="39.4252383" lon="8.4356033"><ele>174.0</ele><time>2026-05-01T10:01:55.769Z</time></trkpt><trkpt lat="39.4253333" lon="8.43554"><ele>174.0</ele><time>2026-05-01T10:01:56.769Z</time></trkpt><trkpt lat="39.4254283" lon="8.4354817"><ele>176.6</ele><time>2026-05-01T10:01:57.769Z</time></trkpt><trkpt lat="39.4255033" lon="8.4354367"><ele>179.2</ele><time>2026-05-01T10:01:58.769Z</time></trkpt><trkpt lat="39.425585" lon="8.4353333"><ele>181.79999999999998</ele><time>2026-05-01T10:02:00.77Z</time></trkpt><trkpt lat="39.42559" lon="8.4352"><ele>184.39999999999998</ele><time>2026-05-01T10:02:02.769Z</time></trkpt><trkpt lat="39.4255117" lon="8.43507"><ele>187.0</ele><time>2026-05-01T10:02:04.77Z</time></trkpt><trkpt lat="39.4254533" lon="8.4350083"><ele>187.0</ele><time>2026-05-01T10:02:05.769Z</time></trkpt><trkpt lat="39.4254067" lon="8.4349383"><ele>187.0</ele><time>2026-05-01T10:02:06.769Z</time></trkpt><trkpt lat="39.4253833" lon="8.4347933"><ele>187.0</ele><time>2026-05-01T10:02:08.769Z</time></trkpt><trkpt lat="39.4254117" lon="8.434715"><ele>187.0</ele><time>2026-05-01T10:02:09.769Z</time></trkpt><trkpt lat="39.4254617" lon="8.4346417"><ele>187.0</ele><time>2026-05-01T10:02:10.769Z</time></trkpt><trkpt lat="39.4255167" lon="8.4345733"><ele>187.0</ele><time>2026-05-01T10:02:11.77Z</time></trkpt><trkpt lat="39.4255517" lon="8.4344983"><ele>187.0</ele><time>2026-05-01T10:02:12.77Z</time></trkpt><trkpt lat="39.4255583" lon="8.43435"><ele>187.0</ele><time>2026-05-01T10:02:14.769Z</time></trkpt><trkpt lat="39.425525" lon="8.4342767"><ele>187.0</ele><time>2026-05-01T10:02:15.769Z</time></trkpt><trkpt lat="39.425465" lon="8.4342033"><ele>187.0</ele><time>2026-05-01T10:02:16.769Z</time></trkpt><trkpt lat="39.4253833" lon="8.4341083"><ele>187.0</ele><time>2026-05-01T10:02:17.769Z</time></trkpt><trkpt lat="39.4252917" lon="8.4340083"><ele>183.39999999999998</ele><time>2026-05-01T10:02:18.77Z</time></trkpt><trkpt lat="39.425205" lon="8.43391"><ele>179.79999999999998</ele><time>2026-05-01T10:02:19.77Z</time></trkpt><trkpt lat="39.4251333" lon="8.4338217"><ele>176.2</ele><time>2026-05-01T10:02:20.769Z</time></trkpt><trkpt lat="39.4250783" lon="8.4337517"><ele>172.6</ele><time>2026-05-01T10:02:21.769Z</time></trkpt><trkpt lat="39.4250067" lon="8.4337067"><ele>169.0</ele><time>2026-05-01T10:02:22.769Z</time></trkpt><trkpt lat="39.4249283" lon="8.4336833"><ele>169.0</ele><time>2026-05-01T10:02:23.77Z</time></trkpt><trkpt lat="39.4248433" lon="8.43368"><ele>169.0</ele><time>2026-05-01T10:02:24.769Z</time></trkpt><trkpt lat="39.42476" lon="8.4336917"><ele>169.0</ele><time>2026-05-01T10:02:25.769Z</time></trkpt><trkpt lat="39.4246833" lon="8.4337033"><ele>169.0</ele><time>2026-05-01T10:02:26.769Z</time></trkpt><trkpt lat="39.42461" lon="8.4336933"><ele>169.0</ele><time>2026-05-01T10:02:27.769Z</time></trkpt><trkpt lat="39.4245433" lon="8.433655"><ele>169.0</ele><time>2026-05-01T10:02:28.769Z</time></trkpt><trkpt lat="39.4244717" lon="8.4335933"><ele>165.16666666666669</ele><time>2026-05-01T10:02:29.769Z</time></trkpt><trkpt lat="39.424405" lon="8.43352"><ele>161.33333333333334</ele><time>2026-05-01T10:02:30.769Z</time></trkpt><trkpt lat="39.424345" lon="8.433445"><ele>157.5</ele><time>2026-05-01T10:02:31.769Z</time></trkpt><trkpt lat="39.4242917" lon="8.4333667"><ele>153.66666666666666</ele><time>2026-05-01T10:02:32.77Z</time></trkpt><trkpt lat="39.4242517" lon="8.4332833"><ele>149.83333333333331</ele><time>2026-05-01T10:02:33.769Z</time></trkpt><trkpt lat="39.424195" lon="8.4332067"><ele>146.0</ele><time>2026-05-01T10:02:34.769Z</time></trkpt><trkpt lat="39.42413" lon="8.43315"><ele>146.0</ele><time>2026-05-01T10:02:35.769Z</time></trkpt><trkpt lat="39.42407" lon="8.4331117"><ele>146.0</ele><time>2026-05-01T10:02:36.769Z</time></trkpt><trkpt lat="39.42397" lon="8.4330367"><ele>146.0</ele><time>2026-05-01T10:02:38.77Z</time></trkpt><trkpt lat="39.4239517" lon="8.4328983"><ele>146.0</ele><time>2026-05-01T10:02:40.77Z</time></trkpt><trkpt lat="39.4240333" lon="8.4328167"><ele>146.0</ele><time>2026-05-01T10:02:42.769Z</time></trkpt><trkpt lat="39.4240983" lon="8.432815"><ele>145.33333333333331</ele><time>2026-05-01T10:02:43.769Z</time></trkpt><trkpt lat="39.424165" lon="8.4328433"><ele>144.66666666666666</ele><time>2026-05-01T10:02:44.769Z</time></trkpt><trkpt lat="39.4242417" lon="8.4328867"><ele>144.0</ele><time>2026-05-01T10:02:45.769Z</time></trkpt><trkpt lat="39.4243083" lon="8.4329233"><ele>143.33333333333334</ele><time>2026-05-01T10:02:46.77Z</time></trkpt><trkpt lat="39.42442" lon="8.432935"><ele>142.66666666666669</ele><time>2026-05-01T10:02:48.77Z</time></trkpt><trkpt lat="39.4244633" lon="8.4328733"><ele>142.0</ele><time>2026-05-01T10:02:50.77Z</time></trkpt><trkpt lat="39.4244833" lon="8.4327583"><ele>142.0</ele><time>2026-05-01T10:02:53.77Z</time></trkpt><trkpt lat="39.4244633" lon="8.43263"><ele>142.0</ele><time>2026-05-01T10:03:21.769Z</time></trkpt><trkpt lat="39.4244367" lon="8.432535"><ele>142.0</ele><time>2026-05-01T10:03:22.77Z</time></trkpt><trkpt lat="39.424405" lon="8.43243"><ele>142.0</ele><time>2026-05-01T10:03:23.769Z</time></trkpt><trkpt lat="39.4243767" lon="8.43231"><ele>142.0</ele><time>2026-05-01T10:03:24.769Z</time></trkpt><trkpt lat="39.4243517" lon="8.4321883"><ele>139.66666666666669</ele><time>2026-05-01T10:03:25.769Z</time></trkpt><trkpt lat="39.42433" lon="8.4320767"><ele>137.33333333333334</ele><time>2026-05-01T10:03:26.769Z</time></trkpt><trkpt lat="39.4243083" lon="8.4319767"><ele>135.0</ele><time>2026-05-01T10:03:27.77Z</time></trkpt><trkpt lat="39.4242883" lon="8.431885"><ele>132.66666666666666</ele><time>2026-05-01T10:03:28.77Z</time></trkpt><trkpt lat="39.4242833" lon="8.4318017"><ele>130.33333333333331</ele><time>2026-05-01T10:03:29.769Z</time></trkpt><trkpt lat="39.4243183" lon="8.431655"><ele>128.0</ele><time>2026-05-01T10:03:31.769Z</time></trkpt><trkpt lat="39.424435" lon="8.4315783"><ele>128.0</ele><time>2026-05-01T10:03:33.769Z</time></trkpt><trkpt lat="39.4245133" lon="8.4315467"><ele>128.0</ele><time>2026-05-01T10:03:34.77Z</time></trkpt><trkpt lat="39.4246" lon="8.43145"><ele>128.0</ele><time>2026-05-01T10:03:36.769Z</time></trkpt><trkpt lat="39.4245867" lon="8.43131"><ele>128.0</ele><time>2026-05-01T10:03:38.769Z</time></trkpt><trkpt lat="39.4245417" lon="8.431225"><ele>128.0</ele><time>2026-05-01T10:03:39.769Z</time></trkpt><trkpt lat="39.4244733" lon="8.4311283"><ele>126.66666666666666</ele><time>2026-05-01T10:03:40.769Z</time></trkpt><trkpt lat="39.4243983" lon="8.4310283"><ele>125.33333333333333</ele><time>2026-05-01T10:03:41.77Z</time></trkpt><trkpt lat="39.4243283" lon="8.43094"><ele>124.0</ele><time>2026-05-01T10:03:42.768Z</time></trkpt><trkpt lat="39.4242783" lon="8.430855"><ele>122.66666666666666</ele><time>2026-05-01T10:03:43.768Z</time></trkpt><trkpt lat="39.42425" lon="8.4307667"><ele>121.33333333333333</ele><time>2026-05-01T10:03:44.769Z</time></trkpt><trkpt lat="39.4242467" lon="8.4306833"><ele>120.0</ele><time>2026-05-01T10:03:45.768Z</time></trkpt><trkpt lat="39.4242683" lon="8.4306067"><ele>120.0</ele><time>2026-05-01T10:03:46.768Z</time></trkpt><trkpt lat="39.4243767" lon="8.4305067"><ele>120.0</ele><time>2026-05-01T10:03:48.768Z</time></trkpt><trkpt lat="39.4244433" lon="8.4304517"><ele>120.0</ele><time>2026-05-01T10:03:49.768Z</time></trkpt><trkpt lat="39.4244917" lon="8.4303767"><ele>120.0</ele><time>2026-05-01T10:03:50.768Z</time></trkpt><trkpt lat="39.4245233" lon="8.4302983"><ele>120.0</ele><time>2026-05-01T10:03:51.768Z</time></trkpt><trkpt lat="39.4245333" lon="8.4302167"><ele>120.0</ele><time>2026-05-01T10:03:52.768Z</time></trkpt><trkpt lat="39.42448" lon="8.4300633"><ele>118.5</ele><time>2026-05-01T10:03:54.769Z</time></trkpt><trkpt lat="39.4244217" lon="8.42998"><ele>117.0</ele><time>2026-05-01T10:03:55.768Z</time></trkpt><trkpt lat="39.4243717" lon="8.4298967"><ele>115.5</ele><time>2026-05-01T10:03:56.768Z</time></trkpt><trkpt lat="39.4243317" lon="8.429805"><ele>114.0</ele><time>2026-05-01T10:03:57.768Z</time></trkpt><trkpt lat="39.424315" lon="8.429705"><ele>112.5</ele><time>2026-05-01T10:03:58.768Z</time></trkpt><trkpt lat="39.4243117" lon="8.4296083"><ele>111.0</ele><time>2026-05-01T10:03:59.768Z</time></trkpt><trkpt lat="39.4243017" lon="8.4294783"><ele>111.0</ele><time>2026-05-01T10:04:01.769Z</time></trkpt><trkpt lat="39.42423" lon="8.429425"><ele>111.0</ele><time>2026-05-01T10:04:03.769Z</time></trkpt><trkpt lat="39.424155" lon="8.4294783"><ele>111.0</ele><time>2026-05-01T10:04:05.769Z</time></trkpt><trkpt lat="39.4241367" lon="8.4296467"><ele>111.0</ele><time>2026-05-01T10:04:07.768Z</time></trkpt><trkpt lat="39.4241583" lon="8.4297633"><ele>111.0</ele><time>2026-05-01T10:04:08.768Z</time></trkpt><trkpt lat="39.42421" lon="8.4298967"><ele>111.0</ele><time>2026-05-01T10:04:09.768Z</time></trkpt><trkpt lat="39.424255" lon="8.4300033"><ele>111.0</ele><time>2026-05-01T10:04:10.769Z</time></trkpt><trkpt lat="39.42428" lon="8.4300917"><ele>111.0</ele><time>2026-05-01T10:04:11.768Z</time></trkpt><trkpt lat="39.42427" lon="8.430245"><ele>111.0</ele><time>2026-05-01T10:04:13.768Z</time></trkpt><trkpt lat="39.4241683" lon="8.430345"><ele>111.0</ele><time>2026-05-01T10:04:15.769Z</time></trkpt><trkpt lat="39.42409" lon="8.4303717"><ele>111.0</ele><time>2026-05-01T10:04:16.769Z</time></trkpt><trkpt lat="39.4240033" lon="8.4303783"><ele>111.0</ele><time>2026-05-01T10:04:17.768Z</time></trkpt><trkpt lat="39.4239283" lon="8.4303917"><ele>111.0</ele><time>2026-05-01T10:04:18.768Z</time></trkpt><trkpt lat="39.4238633" lon="8.4304417"><ele>111.0</ele><time>2026-05-01T10:04:19.768Z</time></trkpt><trkpt lat="39.4238167" lon="8.4305183"><ele>111.0</ele><time>2026-05-01T10:04:20.768Z</time></trkpt><trkpt lat="39.4238033" lon="8.430605"><ele>111.0</ele><time>2026-05-01T10:04:21.768Z</time></trkpt><trkpt lat="39.423815" lon="8.4306967"><ele>112.5</ele><time>2026-05-01T10:04:22.768Z</time></trkpt><trkpt lat="39.4238567" lon="8.4307933"><ele>114.0</ele><time>2026-05-01T10:04:23.768Z</time></trkpt><trkpt lat="39.42391" lon="8.4308767"><ele>115.5</ele><time>2026-05-01T10:04:24.768Z</time></trkpt><trkpt lat="39.4239467" lon="8.4309567"><ele>117.0</ele><time>2026-05-01T10:04:25.768Z</time></trkpt><trkpt lat="39.42391" lon="8.4311017"><ele>118.5</ele><time>2026-05-01T10:04:27.768Z</time></trkpt><trkpt lat="39.4238533" lon="8.4311583"><ele>120.0</ele><time>2026-05-01T10:04:28.769Z</time></trkpt><trkpt lat="39.423785" lon="8.4311817"><ele>117.2</ele><time>2026-05-01T10:04:29.768Z</time></trkpt><trkpt lat="39.42372" lon="8.43117"><ele>114.4</ele><time>2026-05-01T10:04:30.768Z</time></trkpt><trkpt lat="39.42363" lon="8.4312217"><ele>111.6</ele><time>2026-05-01T10:04:32.768Z</time></trkpt><trkpt lat="39.4235917" lon="8.4313783"><ele>108.8</ele><time>2026-05-01T10:04:34.768Z</time></trkpt><trkpt lat="39.423515" lon="8.4314867"><ele>106.0</ele><time>2026-05-01T10:04:36.768Z</time></trkpt><trkpt lat="39.42345" lon="8.4315017"><ele>106.00000000000001</ele><time>2026-05-01T10:04:37.768Z</time></trkpt><trkpt lat="39.423365" lon="8.4314933"><ele>106.0</ele><time>2026-05-01T10:04:38.768Z</time></trkpt><trkpt lat="39.4232733" lon="8.4315033"><ele>106.0</ele><time>2026-05-01T10:04:39.768Z</time></trkpt><trkpt lat="39.423185" lon="8.4315433"><ele>106.0</ele><time>2026-05-01T10:04:40.769Z</time></trkpt><trkpt lat="39.4231033" lon="8.4315883"><ele>106.00000000000001</ele><time>2026-05-01T10:04:41.768Z</time></trkpt><trkpt lat="39.4230217" lon="8.4316217"><ele>106.0</ele><time>2026-05-01T10:04:42.768Z</time></trkpt><trkpt lat="39.42293" lon="8.4316417"><ele>105.33333333333334</ele><time>2026-05-01T10:04:43.768Z</time></trkpt><trkpt lat="39.4228433" lon="8.43164"><ele>104.66666666666667</ele><time>2026-05-01T10:04:44.768Z</time></trkpt><trkpt lat="39.4227667" lon="8.43163"><ele>104.0</ele><time>2026-05-01T10:04:45.769Z</time></trkpt><trkpt lat="39.4227067" lon="8.4315967"><ele>103.33333333333334</ele><time>2026-05-01T10:04:46.768Z</time></trkpt><trkpt lat="39.4226567" lon="8.43154"><ele>102.66666666666667</ele><time>2026-05-01T10:04:47.768Z</time></trkpt><trkpt lat="39.4226067" lon="8.4314567"><ele>102.0</ele><time>2026-05-01T10:04:48.768Z</time></trkpt><trkpt lat="39.42256" lon="8.4313783"><ele>102.0</ele><time>2026-05-01T10:04:49.768Z</time></trkpt><trkpt lat="39.4225017" lon="8.4313267"><ele>102.0</ele><time>2026-05-01T10:04:50.768Z</time></trkpt><trkpt lat="39.4224183" lon="8.431305"><ele>102.0</ele><time>2026-05-01T10:04:51.769Z</time></trkpt><trkpt lat="39.4223217" lon="8.431305"><ele>102.0</ele><time>2026-05-01T10:04:52.768Z</time></trkpt><trkpt lat="39.42224" lon="8.4313"><ele>102.0</ele><time>2026-05-01T10:04:53.768Z</time></trkpt><trkpt lat="39.4221683" lon="8.43127"><ele>102.0</ele><time>2026-05-01T10:04:54.769Z</time></trkpt><trkpt lat="39.42211" lon="8.431215"><ele>100.33333333333333</ele><time>2026-05-01T10:04:55.769Z</time></trkpt><trkpt lat="39.4220667" lon="8.4311467"><ele>98.66666666666667</ele><time>2026-05-01T10:04:56.768Z</time></trkpt><trkpt lat="39.4220383" lon="8.4309883"><ele>97.0</ele><time>2026-05-01T10:04:58.768Z</time></trkpt><trkpt lat="39.422065" lon="8.4309"><ele>95.33333333333334</ele><time>2026-05-01T10:04:59.769Z</time></trkpt><trkpt lat="39.4221117" lon="8.4308133"><ele>93.66666666666667</ele><time>2026-05-01T10:05:00.769Z</time></trkpt><trkpt lat="39.4221667" lon="8.4307533"><ele>92.0</ele><time>2026-05-01T10:05:01.768Z</time></trkpt><trkpt lat="39.4222167" lon="8.4306883"><ele>92.0</ele><time>2026-05-01T10:05:03.768Z</time></trkpt><trkpt lat="39.4223217" lon="8.4305667"><ele>92.0</ele><time>2026-05-01T10:05:22.768Z</time></trkpt><trkpt lat="39.4224033" lon="8.4305033"><ele>92.0</ele><time>2026-05-01T10:05:23.768Z</time></trkpt><trkpt lat="39.42248" lon="8.4304583"><ele>92.0</ele><time>2026-05-01T10:05:24.769Z</time></trkpt><trkpt lat="39.422555" lon="8.430435"><ele>92.0</ele><time>2026-05-01T10:05:25.769Z</time></trkpt><trkpt lat="39.4226483" lon="8.4304217"><ele>93.19999999999999</ele><time>2026-05-01T10:05:27.768Z</time></trkpt><trkpt lat="39.4227267" lon="8.4303733"><ele>94.4</ele><time>2026-05-01T10:05:29.768Z</time></trkpt><trkpt lat="39.4227833" lon="8.4302317"><ele>95.6</ele><time>2026-05-01T10:05:31.769Z</time></trkpt><trkpt lat="39.4227933" lon="8.43012"><ele>96.80000000000001</ele><time>2026-05-01T10:05:32.769Z</time></trkpt><trkpt lat="39.422795" lon="8.4300083"><ele>98.0</ele><time>2026-05-01T10:05:33.768Z</time></trkpt><trkpt lat="39.4228" lon="8.4299"><ele>97.99999999999999</ele><time>2026-05-01T10:05:34.768Z</time></trkpt><trkpt lat="39.4228067" lon="8.4297883"><ele>98.0</ele><time>2026-05-01T10:05:35.768Z</time></trkpt><trkpt lat="39.4228267" lon="8.4296883"><ele>98.0</ele><time>2026-05-01T10:05:36.768Z</time></trkpt><trkpt lat="39.4228733" lon="8.4296183"><ele>98.0</ele><time>2026-05-01T10:05:37.769Z</time></trkpt><trkpt lat="39.42292" lon="8.4295433"><ele>97.99999999999999</ele><time>2026-05-01T10:05:38.768Z</time></trkpt><trkpt lat="39.4229633" lon="8.4294517"><ele>98.0</ele><time>2026-05-01T10:05:39.768Z</time></trkpt><trkpt lat="39.422985" lon="8.4293417"><ele>99.16666666666666</ele><time>2026-05-01T10:05:40.768Z</time></trkpt><trkpt lat="39.422985" lon="8.4292217"><ele>100.33333333333333</ele><time>2026-05-01T10:05:41.768Z</time></trkpt><trkpt lat="39.42298" lon="8.4290983"><ele>101.5</ele><time>2026-05-01T10:05:42.769Z</time></trkpt><trkpt lat="39.4229817" lon="8.42899"><ele>102.66666666666666</ele><time>2026-05-01T10:05:43.768Z</time></trkpt><trkpt lat="39.42301" lon="8.4288933"><ele>103.83333333333333</ele><time>2026-05-01T10:05:44.769Z</time></trkpt><trkpt lat="39.4230633" lon="8.42881"><ele>105.0</ele><time>2026-05-01T10:05:45.768Z</time></trkpt><trkpt lat="39.4231217" lon="8.4287317"><ele>99.4</ele><time>2026-05-01T10:05:46.769Z</time></trkpt><trkpt lat="39.42319" lon="8.4286533"><ele>93.8</ele><time>2026-05-01T10:05:47.768Z</time></trkpt><trkpt lat="39.4232583" lon="8.42856"><ele>88.2</ele><time>2026-05-01T10:05:48.768Z</time></trkpt><trkpt lat="39.4233267" lon="8.428455"><ele>82.6</ele><time>2026-05-01T10:05:49.769Z</time></trkpt><trkpt lat="39.42339" lon="8.4283417"><ele>77.0</ele><time>2026-05-01T10:05:50.768Z</time></trkpt><trkpt lat="39.423445" lon="8.4282233"><ele>77.0</ele><time>2026-05-01T10:05:51.769Z</time></trkpt><trkpt lat="39.4235" lon="8.4281067"><ele>77.0</ele><time>2026-05-01T10:05:52.768Z</time></trkpt><trkpt lat="39.4235617" lon="8.428015"><ele>77.0</ele><time>2026-05-01T10:05:53.768Z</time></trkpt><trkpt lat="39.4236217" lon="8.4279217"><ele>77.0</ele><time>2026-05-01T10:05:54.768Z</time></trkpt><trkpt lat="39.423675" lon="8.4278317"><ele>77.0</ele><time>2026-05-01T10:05:55.769Z</time></trkpt><trkpt lat="39.4237183" lon="8.4277367"><ele>77.2</ele><time>2026-05-01T10:05:56.769Z</time></trkpt><trkpt lat="39.4237533" lon="8.4276267"><ele>77.4</ele><time>2026-05-01T10:05:57.768Z</time></trkpt><trkpt lat="39.4237633" lon="8.427495"><ele>77.6</ele><time>2026-05-01T10:05:58.768Z</time></trkpt><trkpt lat="39.423765" lon="8.427355"><ele>77.8</ele><time>2026-05-01T10:05:59.768Z</time></trkpt><trkpt lat="39.4237683" lon="8.4272167"><ele>78.0</ele><time>2026-05-01T10:06:00.768Z</time></trkpt><trkpt lat="39.4237633" lon="8.4270667"><ele>77.0</ele><time>2026-05-01T10:06:01.768Z</time></trkpt><trkpt lat="39.42375" lon="8.4269167"><ele>76.0</ele><time>2026-05-01T10:06:02.768Z</time></trkpt><trkpt lat="39.423735" lon="8.42676"><ele>75.0</ele><time>2026-05-01T10:06:03.768Z</time></trkpt><trkpt lat="39.4237133" lon="8.4265983"><ele>74.0</ele><time>2026-05-01T10:06:04.769Z</time></trkpt><trkpt lat="39.423695" lon="8.426435"><ele>72.5</ele><time>2026-05-01T10:06:05.768Z</time></trkpt><trkpt lat="39.423675" lon="8.4262733"><ele>71.0</ele><time>2026-05-01T10:06:06.768Z</time></trkpt><trkpt lat="39.4236617" lon="8.4261167"><ele>69.5</ele><time>2026-05-01T10:06:07.768Z</time></trkpt><trkpt lat="39.423645" lon="8.42596"><ele>68.0</ele><time>2026-05-01T10:06:08.768Z</time></trkpt><trkpt lat="39.42363" lon="8.4258017"><ele>68.0</ele><time>2026-05-01T10:06:09.768Z</time></trkpt><trkpt lat="39.42362" lon="8.4256417"><ele>68.0</ele><time>2026-05-01T10:06:10.768Z</time></trkpt><trkpt lat="39.4236017" lon="8.425495"><ele>68.0</ele><time>2026-05-01T10:06:11.768Z</time></trkpt><trkpt lat="39.4235867" lon="8.425345"><ele>68.0</ele><time>2026-05-01T10:06:12.768Z</time></trkpt><trkpt lat="39.4235717" lon="8.4251917"><ele>67.5</ele><time>2026-05-01T10:06:13.768Z</time></trkpt><trkpt lat="39.4235733" lon="8.4250483"><ele>67.0</ele><time>2026-05-01T10:06:14.768Z</time></trkpt><trkpt lat="39.423595" lon="8.4248967"><ele>66.5</ele><time>2026-05-01T10:06:15.769Z</time></trkpt><trkpt lat="39.42363" lon="8.4247433"><ele>66.0</ele><time>2026-05-01T10:06:16.768Z</time></trkpt><trkpt lat="39.4236717" lon="8.424585"><ele>66.0</ele><time>2026-05-01T10:06:17.768Z</time></trkpt><trkpt lat="39.4237217" lon="8.42444"><ele>66.0</ele><time>2026-05-01T10:06:18.768Z</time></trkpt><trkpt lat="39.423775" lon="8.424315"><ele>66.0</ele><time>2026-05-01T10:06:19.768Z</time></trkpt><trkpt lat="39.4238233" lon="8.424195"><ele>66.0</ele><time>2026-05-01T10:06:20.768Z</time></trkpt><trkpt lat="39.423855" lon="8.4241"><ele>66.0</ele><time>2026-05-01T10:06:21.767Z</time></trkpt><trkpt lat="39.4238633" lon="8.424"><ele>66.33333333333333</ele><time>2026-05-01T10:06:22.768Z</time></trkpt><trkpt lat="39.4238467" lon="8.423905"><ele>66.66666666666667</ele><time>2026-05-01T10:06:23.767Z</time></trkpt><trkpt lat="39.4238133" lon="8.4238117"><ele>67.0</ele><time>2026-05-01T10:06:24.767Z</time></trkpt><trkpt lat="39.423775" lon="8.4237083"><ele>67.33333333333334</ele><time>2026-05-01T10:06:25.767Z</time></trkpt><trkpt lat="39.423735" lon="8.423605"><ele>67.66666666666667</ele><time>2026-05-01T10:06:26.767Z</time></trkpt><trkpt lat="39.423695" lon="8.4235"><ele>68.0</ele><time>2026-05-01T10:06:27.767Z</time></trkpt><trkpt lat="39.42366" lon="8.4233917"><ele>66.8</ele><time>2026-05-01T10:06:28.768Z</time></trkpt><trkpt lat="39.423625" lon="8.4232817"><ele>65.6</ele><time>2026-05-01T10:06:29.768Z</time></trkpt><trkpt lat="39.42359" lon="8.4231717"><ele>64.4</ele><time>2026-05-01T10:06:30.768Z</time></trkpt><trkpt lat="39.4235533" lon="8.42306"><ele>63.2</ele><time>2026-05-01T10:06:31.767Z</time></trkpt><trkpt lat="39.423515" lon="8.422945"><ele>62.0</ele><time>2026-05-01T10:06:32.767Z</time></trkpt><trkpt lat="39.423475" lon="8.4228333"><ele>60.50000000000001</ele><time>2026-05-01T10:06:33.767Z</time></trkpt><trkpt lat="39.4234317" lon="8.4227217"><ele>59.0</ele><time>2026-05-01T10:06:34.768Z</time></trkpt><trkpt lat="39.4233967" lon="8.4226217"><ele>57.5</ele><time>2026-05-01T10:06:35.767Z</time></trkpt><trkpt lat="39.423365" lon="8.4225183"><ele>56.0</ele><time>2026-05-01T10:06:36.767Z</time></trkpt><trkpt lat="39.423335" lon="8.4224233"><ele>54.50000000000001</ele><time>2026-05-01T10:06:37.767Z</time></trkpt><trkpt lat="39.4233117" lon="8.4223267"><ele>53.0</ele><time>2026-05-01T10:06:38.767Z</time></trkpt><trkpt lat="39.423285" lon="8.42223"><ele>52.333333333333336</ele><time>2026-05-01T10:06:39.767Z</time></trkpt><trkpt lat="39.42326" lon="8.4221267"><ele>51.66666666666667</ele><time>2026-05-01T10:06:40.767Z</time></trkpt><trkpt lat="39.4232333" lon="8.42202"><ele>51.0</ele><time>2026-05-01T10:06:41.767Z</time></trkpt><trkpt lat="39.42321" lon="8.42191"><ele>50.33333333333333</ele><time>2026-05-01T10:06:42.767Z</time></trkpt><trkpt lat="39.4231867" lon="8.4218"><ele>49.666666666666664</ele><time>2026-05-01T10:06:43.767Z</time></trkpt><trkpt lat="39.4231617" lon="8.4216933"><ele>49.0</ele><time>2026-05-01T10:06:44.767Z</time></trkpt><trkpt lat="39.4231317" lon="8.4215817"><ele>48.99999999999999</ele><time>2026-05-01T10:06:45.767Z</time></trkpt><trkpt lat="39.4231083" lon="8.4214683"><ele>49.0</ele><time>2026-05-01T10:06:46.767Z</time></trkpt><trkpt lat="39.423085" lon="8.4213683"><ele>49.0</ele><time>2026-05-01T10:06:47.768Z</time></trkpt><trkpt lat="39.4230567" lon="8.4212783"><ele>49.0</ele><time>2026-05-01T10:06:48.767Z</time></trkpt><trkpt lat="39.423035" lon="8.421195"><ele>48.99999999999999</ele><time>2026-05-01T10:06:49.767Z</time></trkpt><trkpt lat="39.4230133" lon="8.421115"><ele>49.0</ele><time>2026-05-01T10:06:50.767Z</time></trkpt><trkpt lat="39.4229667" lon="8.42096"><ele>48.5</ele><time>2026-05-01T10:06:52.768Z</time></trkpt><trkpt lat="39.4229167" lon="8.4208367"><ele>48.0</ele><time>2026-05-01T10:06:54.767Z</time></trkpt><trkpt lat="39.4228567" lon="8.4207133"><ele>47.5</ele><time>2026-05-01T10:06:56.768Z</time></trkpt><trkpt lat="39.4227967" lon="8.4205817"><ele>47.0</ele><time>2026-05-01T10:06:58.767Z</time></trkpt><trkpt lat="39.4227383" lon="8.4204467"><ele>45.8</ele><time>2026-05-01T10:07:00.767Z</time></trkpt><trkpt lat="39.4226883" lon="8.4203417"><ele>44.6</ele><time>2026-05-01T10:07:02.767Z</time></trkpt><trkpt lat="39.4226483" lon="8.4202367"><ele>43.4</ele><time>2026-05-01T10:07:04.767Z</time></trkpt><trkpt lat="39.4225933" lon="8.420125"><ele>42.199999999999996</ele><time>2026-05-01T10:07:06.767Z</time></trkpt><trkpt lat="39.4225383" lon="8.420005"><ele>41.0</ele><time>2026-05-01T10:07:08.768Z</time></trkpt><trkpt lat="39.4224783" lon="8.41987"><ele>41.0</ele><time>2026-05-01T10:07:10.767Z</time></trkpt><trkpt lat="39.4224283" lon="8.419755"><ele>41.0</ele><time>2026-05-01T10:07:12.767Z</time></trkpt><trkpt lat="39.4223833" lon="8.41966"><ele>41.0</ele><time>2026-05-01T10:07:14.767Z</time></trkpt><trkpt lat="39.4223417" lon="8.41958"><ele>41.0</ele><time>2026-05-01T10:07:17.768Z</time></trkpt><trkpt lat="39.4222733" lon="8.41948"><ele>41.0</ele><time>2026-05-01T10:10:54.767Z</time></trkpt><trkpt lat="39.4222217" lon="8.4193867"><ele>40.599999999999994</ele><time>2026-05-01T10:10:56.766Z</time></trkpt><trkpt lat="39.4221883" lon="8.4193117"><ele>40.199999999999996</ele><time>2026-05-01T10:10:57.766Z</time></trkpt><trkpt lat="39.4221417" lon="8.419185"><ele>39.8</ele><time>2026-05-01T10:10:58.766Z</time></trkpt><trkpt lat="39.4220733" lon="8.4190417"><ele>39.4</ele><time>2026-05-01T10:10:59.767Z</time></trkpt><trkpt lat="39.4219917" lon="8.4189117"><ele>39.0</ele><time>2026-05-01T10:11:00.766Z</time></trkpt><trkpt lat="39.4218867" lon="8.4187783"><ele>36.666666666666664</ele><time>2026-05-01T10:11:01.766Z</time></trkpt><trkpt lat="39.4217717" lon="8.4186667"><ele>34.33333333333333</ele><time>2026-05-01T10:11:02.766Z</time></trkpt><trkpt lat="39.4216417" lon="8.41856"><ele>32.0</ele><time>2026-05-01T10:11:03.766Z</time></trkpt><trkpt lat="39.4215083" lon="8.4184633"><ele>32.0</ele><time>2026-05-01T10:11:04.766Z</time></trkpt><trkpt lat="39.4213833" lon="8.418375"><ele>32.0</ele><time>2026-05-01T10:11:05.767Z</time></trkpt><trkpt lat="39.4212683" lon="8.4182967"><ele>32.0</ele><time>2026-05-01T10:11:06.766Z</time></trkpt><trkpt lat="39.42116" lon="8.4182217"><ele>32.0</ele><time>2026-05-01T10:11:07.766Z</time></trkpt><trkpt lat="39.4210617" lon="8.418145"><ele>31.6</ele><time>2026-05-01T10:11:08.766Z</time></trkpt><trkpt lat="39.4209767" lon="8.4180883"><ele>31.200000000000003</ele><time>2026-05-01T10:11:09.766Z</time></trkpt><trkpt lat="39.4209017" lon="8.4180317"><ele>30.8</ele><time>2026-05-01T10:11:10.767Z</time></trkpt><trkpt lat="39.4208217" lon="8.4179517"><ele>30.4</ele><time>2026-05-01T10:11:11.766Z</time></trkpt><trkpt lat="39.42074" lon="8.4178533"><ele>30.0</ele><time>2026-05-01T10:11:12.766Z</time></trkpt><trkpt lat="39.42067" lon="8.41772"><ele>30.0</ele><time>2026-05-01T10:11:13.766Z</time></trkpt><trkpt lat="39.4206033" lon="8.4175667"><ele>30.0</ele><time>2026-05-01T10:11:14.766Z</time></trkpt><trkpt lat="39.420545" lon="8.417415"><ele>30.0</ele><time>2026-05-01T10:11:15.766Z</time></trkpt><trkpt lat="39.4204883" lon="8.4172717"><ele>30.0</ele><time>2026-05-01T10:11:16.766Z</time></trkpt><trkpt lat="39.4204283" lon="8.4171283"><ele>31.25</ele><time>2026-05-01T10:11:17.767Z</time></trkpt><trkpt lat="39.42037" lon="8.4169817"><ele>32.5</ele><time>2026-05-01T10:11:18.766Z</time></trkpt><trkpt lat="39.42031" lon="8.4168283"><ele>33.75</ele><time>2026-05-01T10:11:19.766Z</time></trkpt><trkpt lat="39.4202533" lon="8.4166817"><ele>35.0</ele><time>2026-05-01T10:11:20.766Z</time></trkpt><trkpt lat="39.4202" lon="8.4165433"><ele>35.0</ele><time>2026-05-01T10:11:21.766Z</time></trkpt><trkpt lat="39.420145" lon="8.4164217"><ele>35.0</ele><time>2026-05-01T10:11:22.767Z</time></trkpt><trkpt lat="39.420075" lon="8.416325"><ele>35.0</ele><time>2026-05-01T10:11:23.766Z</time></trkpt><trkpt lat="39.4199867" lon="8.4162617"><ele>35.0</ele><time>2026-05-01T10:11:24.767Z</time></trkpt><trkpt lat="39.419885" lon="8.41623"><ele>35.0</ele><time>2026-05-01T10:11:25.766Z</time></trkpt><trkpt lat="39.4197717" lon="8.416205"><ele>34.0</ele><time>2026-05-01T10:11:26.766Z</time></trkpt><trkpt lat="39.4196517" lon="8.4162067"><ele>33.0</ele><time>2026-05-01T10:11:27.766Z</time></trkpt><trkpt lat="39.4195433" lon="8.4161967"><ele>32.0</ele><time>2026-05-01T10:11:28.766Z</time></trkpt><trkpt lat="39.4194533" lon="8.4161783"><ele>31.0</ele><time>2026-05-01T10:11:29.766Z</time></trkpt><trkpt lat="39.419365" lon="8.4161483"><ele>30.0</ele><time>2026-05-01T10:11:30.766Z</time></trkpt><trkpt lat="39.4193017" lon="8.4160983"><ele>30.0</ele><time>2026-05-01T10:11:31.767Z</time></trkpt><trkpt lat="39.4192317" lon="8.4159783"><ele>30.0</ele><time>2026-05-01T10:11:33.766Z</time></trkpt><trkpt lat="39.4191933" lon="8.415885"><ele>30.0</ele><time>2026-05-01T10:11:34.766Z</time></trkpt><trkpt lat="39.4191617" lon="8.41577"><ele>30.0</ele><time>2026-05-01T10:11:35.766Z</time></trkpt><trkpt lat="39.4191317" lon="8.41564"><ele>30.0</ele><time>2026-05-01T10:11:36.767Z</time></trkpt><trkpt lat="39.41911" lon="8.4155117"><ele>28.4</ele><time>2026-05-01T10:11:37.766Z</time></trkpt><trkpt lat="39.41911" lon="8.4153683"><ele>26.8</ele><time>2026-05-01T10:11:38.767Z</time></trkpt><trkpt lat="39.4191133" lon="8.4152167"><ele>25.200000000000003</ele><time>2026-05-01T10:11:39.766Z</time></trkpt><trkpt lat="39.419125" lon="8.415075"><ele>23.6</ele><time>2026-05-01T10:11:40.766Z</time></trkpt><trkpt lat="39.419125" lon="8.41494"><ele>22.0</ele><time>2026-05-01T10:11:41.766Z</time></trkpt><trkpt lat="39.4191167" lon="8.4148217"><ele>22.0</ele><time>2026-05-01T10:11:42.767Z</time></trkpt><trkpt lat="39.4191067" lon="8.41472"><ele>22.0</ele><time>2026-05-01T10:11:43.766Z</time></trkpt><trkpt lat="39.4190733" lon="8.414635"><ele>22.0</ele><time>2026-05-01T10:11:44.767Z</time></trkpt><trkpt lat="39.4190117" lon="8.4145717"><ele>22.0</ele><time>2026-05-01T10:11:45.766Z</time></trkpt><trkpt lat="39.4189367" lon="8.4145267"><ele>22.0</ele><time>2026-05-01T10:11:46.767Z</time></trkpt><trkpt lat="39.4188333" lon="8.4145"><ele>22.0</ele><time>2026-05-01T10:11:47.767Z</time></trkpt><trkpt lat="39.41873" lon="8.4144533"><ele>23.5</ele><time>2026-05-01T10:11:48.766Z</time></trkpt><trkpt lat="39.41864" lon="8.4143733"><ele>25.0</ele><time>2026-05-01T10:11:49.766Z</time></trkpt><trkpt lat="39.4185583" lon="8.4142867"><ele>26.5</ele><time>2026-05-01T10:11:50.765Z</time></trkpt><trkpt lat="39.4184883" lon="8.4141633"><ele>28.0</ele><time>2026-05-01T10:11:51.765Z</time></trkpt><trkpt lat="39.4184167" lon="8.4140333"><ele>28.0</ele><time>2026-05-01T10:11:52.765Z</time></trkpt><trkpt lat="39.41834" lon="8.4139133"><ele>27.999999999999996</ele><time>2026-05-01T10:11:53.766Z</time></trkpt><trkpt lat="39.4182717" lon="8.41379"><ele>27.999999999999996</ele><time>2026-05-01T10:11:54.765Z</time></trkpt><trkpt lat="39.4182067" lon="8.4136783"><ele>28.0</ele><time>2026-05-01T10:11:55.765Z</time></trkpt><trkpt lat="39.4181417" lon="8.41358"><ele>28.0</ele><time>2026-05-01T10:11:56.766Z</time></trkpt><trkpt lat="39.4180617" lon="8.4135017"><ele>29.25</ele><time>2026-05-01T10:11:57.765Z</time></trkpt><trkpt lat="39.4179567" lon="8.4134383"><ele>30.5</ele><time>2026-05-01T10:11:58.766Z</time></trkpt><trkpt lat="39.41784" lon="8.4133783"><ele>31.75</ele><time>2026-05-01T10:11:59.765Z</time></trkpt><trkpt lat="39.41773" lon="8.4133283"><ele>33.0</ele><time>2026-05-01T10:12:00.765Z</time></trkpt><trkpt lat="39.4176383" lon="8.4132917"><ele>33.0</ele><time>2026-05-01T10:12:01.765Z</time></trkpt><trkpt lat="39.4175733" lon="8.41324"><ele>33.0</ele><time>2026-05-01T10:12:02.765Z</time></trkpt><trkpt lat="39.4174983" lon="8.413185"><ele>33.0</ele><time>2026-05-01T10:12:03.765Z</time></trkpt><trkpt lat="39.4174183" lon="8.413105"><ele>33.0</ele><time>2026-05-01T10:12:04.765Z</time></trkpt><trkpt lat="39.41734" lon="8.4130083"><ele>33.0</ele><time>2026-05-01T10:12:05.765Z</time></trkpt><trkpt lat="39.4172767" lon="8.41291"><ele>32.5</ele><time>2026-05-01T10:12:06.766Z</time></trkpt><trkpt lat="39.417225" lon="8.41281"><ele>32.0</ele><time>2026-05-01T10:12:07.765Z</time></trkpt><trkpt lat="39.4171883" lon="8.4127067"><ele>31.5</ele><time>2026-05-01T10:12:08.765Z</time></trkpt><trkpt lat="39.4171633" lon="8.4126133"><ele>31.0</ele><time>2026-05-01T10:12:09.766Z</time></trkpt><trkpt lat="39.4171517" lon="8.4125167"><ele>30.5</ele><time>2026-05-01T10:12:10.766Z</time></trkpt><trkpt lat="39.4171567" lon="8.4124083"><ele>30.0</ele><time>2026-05-01T10:12:11.765Z</time></trkpt><trkpt lat="39.4171617" lon="8.4123017"><ele>30.0</ele><time>2026-05-01T10:12:12.766Z</time></trkpt><trkpt lat="39.417175" lon="8.4121967"><ele>30.0</ele><time>2026-05-01T10:12:13.765Z</time></trkpt><trkpt lat="39.4171833" lon="8.412095"><ele>30.0</ele><time>2026-05-01T10:12:14.765Z</time></trkpt><trkpt lat="39.4171917" lon="8.4119933"><ele>30.0</ele><time>2026-05-01T10:12:15.766Z</time></trkpt><trkpt lat="39.4172017" lon="8.4119017"><ele>30.0</ele><time>2026-05-01T10:12:16.765Z</time></trkpt><trkpt lat="39.4172" lon="8.411815"><ele>30.0</ele><time>2026-05-01T10:12:17.765Z</time></trkpt><trkpt lat="39.4172067" lon="8.411675"><ele>29.8</ele><time>2026-05-01T10:12:19.765Z</time></trkpt><trkpt lat="39.4172617" lon="8.4115583"><ele>29.6</ele><time>2026-05-01T10:12:25.765Z</time></trkpt><trkpt lat="39.41737" lon="8.411485"><ele>29.4</ele><time>2026-05-01T10:12:27.766Z</time></trkpt><trkpt lat="39.4174333" lon="8.4114683"><ele>29.2</ele><time>2026-05-01T10:12:28.766Z</time></trkpt><trkpt lat="39.4175083" lon="8.4114817"><ele>29.0</ele><time>2026-05-01T10:12:29.766Z</time></trkpt><trkpt lat="39.417595" lon="8.4115183"><ele>28.999999999999996</ele><time>2026-05-01T10:12:30.765Z</time></trkpt><trkpt lat="39.4176733" lon="8.41157"><ele>29.0</ele><time>2026-05-01T10:12:31.765Z</time></trkpt><trkpt lat="39.417735" lon="8.4116133"><ele>29.0</ele><time>2026-05-01T10:12:32.766Z</time></trkpt><trkpt lat="39.41782" lon="8.411665"><ele>29.0</ele><time>2026-05-01T10:12:34.766Z</time></trkpt><trkpt lat="39.41789" lon="8.411695"><ele>28.999999999999996</ele><time>2026-05-01T10:12:36.765Z</time></trkpt><trkpt lat="39.4179633" lon="8.4117183"><ele>29.0</ele><time>2026-05-01T10:12:38.765Z</time></trkpt><trkpt lat="39.4180367" lon="8.411745"><ele>26.999999999999996</ele><time>2026-05-01T10:12:40.766Z</time></trkpt><trkpt lat="39.41812" lon="8.4117767"><ele>25.0</ele><time>2026-05-01T10:12:42.765Z</time></trkpt><trkpt lat="39.41821" lon="8.4117933"><ele>23.0</ele><time>2026-05-01T10:12:44.765Z</time></trkpt><trkpt lat="39.4182983" lon="8.411805"><ele>21.0</ele><time>2026-05-01T10:12:46.765Z</time></trkpt><trkpt lat="39.4183733" lon="8.4118117"><ele>19.0</ele><time>2026-05-01T10:12:48.765Z</time></trkpt><trkpt lat="39.4184367" lon="8.4117783"><ele>17.0</ele><time>2026-05-01T10:12:50.765Z</time></trkpt><trkpt lat="39.41849" lon="8.41171"><ele>17.0</ele><time>2026-05-01T10:12:52.766Z</time></trkpt><trkpt lat="39.4185533" lon="8.4116317"><ele>17.0</ele><time>2026-05-01T10:12:54.766Z</time></trkpt><trkpt lat="39.418625" lon="8.411625"><ele>17.0</ele><time>2026-05-01T10:12:56.765Z</time></trkpt><trkpt lat="39.4187017" lon="8.41163"><ele>17.0</ele><time>2026-05-01T10:12:58.765Z</time></trkpt><trkpt lat="39.41863" lon="8.41159"><ele>17.0</ele><time>2026-05-01T10:17:36.763Z</time></trkpt><trkpt lat="39.41857" lon="8.4116317"><ele>17.0</ele><time>2026-05-01T10:17:37.763Z</time></trkpt><trkpt lat="39.41851" lon="8.4116733"><ele>17.0</ele><time>2026-05-01T10:17:38.763Z</time></trkpt><trkpt lat="39.4184417" lon="8.4117083"><ele>17.0</ele><time>2026-05-01T10:17:39.763Z</time></trkpt><trkpt lat="39.418375" lon="8.411735"><ele>17.0</ele><time>2026-05-01T10:17:40.763Z</time></trkpt><trkpt lat="39.418285" lon="8.4117533"><ele>17.0</ele><time>2026-05-01T10:17:41.763Z</time></trkpt><trkpt lat="39.418185" lon="8.411745"><ele>17.0</ele><time>2026-05-01T10:17:42.763Z</time></trkpt><trkpt lat="39.4180817" lon="8.4117267"><ele>17.0</ele><time>2026-05-01T10:17:43.764Z</time></trkpt><trkpt lat="39.4179717" lon="8.4116933"><ele>20.0</ele><time>2026-05-01T10:17:44.764Z</time></trkpt><trkpt lat="39.417855" lon="8.4116367"><ele>23.0</ele><time>2026-05-01T10:17:45.764Z</time></trkpt><trkpt lat="39.4177333" lon="8.4115783"><ele>26.0</ele><time>2026-05-01T10:17:46.764Z</time></trkpt><trkpt lat="39.4176067" lon="8.411525"><ele>29.0</ele><time>2026-05-01T10:17:47.763Z</time></trkpt><trkpt lat="39.417495" lon="8.411495"><ele>28.999999999999996</ele><time>2026-05-01T10:17:48.764Z</time></trkpt><trkpt lat="39.4174083" lon="8.411495"><ele>29.0</ele><time>2026-05-01T10:17:49.763Z</time></trkpt><trkpt lat="39.4173433" lon="8.411515"><ele>29.0</ele><time>2026-05-01T10:17:50.763Z</time></trkpt><trkpt lat="39.4172733" lon="8.4115183"><ele>29.0</ele><time>2026-05-01T10:17:52.763Z</time></trkpt><trkpt lat="39.41715" lon="8.4115217"><ele>28.999999999999996</ele><time>2026-05-01T10:17:55.764Z</time></trkpt><trkpt lat="39.417065" lon="8.4114917"><ele>29.0</ele><time>2026-05-01T10:17:56.763Z</time></trkpt><trkpt lat="39.416965" lon="8.4114433"><ele>29.25</ele><time>2026-05-01T10:17:57.763Z</time></trkpt><trkpt lat="39.4168583" lon="8.4113917"><ele>29.5</ele><time>2026-05-01T10:17:58.763Z</time></trkpt><trkpt lat="39.416735" lon="8.41135"><ele>29.75</ele><time>2026-05-01T10:17:59.763Z</time></trkpt><trkpt lat="39.4166067" lon="8.411305"><ele>30.0</ele><time>2026-05-01T10:18:00.764Z</time></trkpt><trkpt lat="39.41647" lon="8.4112567"><ele>32.333333333333336</ele><time>2026-05-01T10:18:01.763Z</time></trkpt><trkpt lat="39.416315" lon="8.4112083"><ele>34.66666666666667</ele><time>2026-05-01T10:18:02.763Z</time></trkpt><trkpt lat="39.4161533" lon="8.41116"><ele>37.0</ele><time>2026-05-01T10:18:03.764Z</time></trkpt><trkpt lat="39.41598" lon="8.411105"><ele>37.0</ele><time>2026-05-01T10:18:04.763Z</time></trkpt><trkpt lat="39.4158017" lon="8.4110483"><ele>37.0</ele><time>2026-05-01T10:18:05.764Z</time></trkpt><trkpt lat="39.41563" lon="8.4109917"><ele>37.0</ele><time>2026-05-01T10:18:06.764Z</time></trkpt><trkpt lat="39.4154583" lon="8.4109517"><ele>40.0</ele><time>2026-05-01T10:18:07.763Z</time></trkpt><trkpt lat="39.4152833" lon="8.4109133"><ele>43.0</ele><time>2026-05-01T10:18:08.763Z</time></trkpt><trkpt lat="39.415095" lon="8.41089"><ele>46.0</ele><time>2026-05-01T10:18:09.763Z</time></trkpt><trkpt lat="39.41492" lon="8.4108717"><ele>46.0</ele><time>2026-05-01T10:18:10.763Z</time></trkpt><trkpt lat="39.4147583" lon="8.410855"><ele>46.0</ele><time>2026-05-01T10:18:11.763Z</time></trkpt><trkpt lat="39.414625" lon="8.4108267"><ele>46.0</ele><time>2026-05-01T10:18:12.763Z</time></trkpt><trkpt lat="39.4145133" lon="8.4107633"><ele>46.0</ele><time>2026-05-01T10:18:13.764Z</time></trkpt><trkpt lat="39.4144133" lon="8.41066"><ele>47.25</ele><time>2026-05-01T10:18:14.764Z</time></trkpt><trkpt lat="39.41433" lon="8.410515"><ele>48.5</ele><time>2026-05-01T10:18:15.763Z</time></trkpt><trkpt lat="39.4142533" lon="8.410335"><ele>49.75</ele><time>2026-05-01T10:18:16.763Z</time></trkpt><trkpt lat="39.4141833" lon="8.4101617"><ele>51.0</ele><time>2026-05-01T10:18:17.764Z</time></trkpt><trkpt lat="39.4141017" lon="8.410025"><ele>51.0</ele><time>2026-05-01T10:18:18.764Z</time></trkpt><trkpt lat="39.4139933" lon="8.4099233"><ele>51.0</ele><time>2026-05-01T10:18:19.763Z</time></trkpt><trkpt lat="39.413855" lon="8.4098467"><ele>51.0</ele><time>2026-05-01T10:18:20.763Z</time></trkpt><trkpt lat="39.4137" lon="8.40979"><ele>51.0</ele><time>2026-05-01T10:18:21.763Z</time></trkpt><trkpt lat="39.413535" lon="8.4097283"><ele>51.0</ele><time>2026-05-01T10:18:22.763Z</time></trkpt><trkpt lat="39.4133667" lon="8.4096633"><ele>51.0</ele><time>2026-05-01T10:18:23.763Z</time></trkpt><trkpt lat="39.41321" lon="8.4096033"><ele>51.0</ele><time>2026-05-01T10:18:24.763Z</time></trkpt><trkpt lat="39.4130883" lon="8.409535"><ele>54.5</ele><time>2026-05-01T10:18:25.763Z</time></trkpt><trkpt lat="39.4129867" lon="8.4094267"><ele>58.0</ele><time>2026-05-01T10:18:26.764Z</time></trkpt><trkpt lat="39.41292" lon="8.4092717"><ele>61.5</ele><time>2026-05-01T10:18:27.763Z</time></trkpt><trkpt lat="39.41288" lon="8.409085"><ele>65.0</ele><time>2026-05-01T10:18:28.763Z</time></trkpt><trkpt lat="39.4128617" lon="8.4088683"><ele>64.0</ele><time>2026-05-01T10:18:29.763Z</time></trkpt><trkpt lat="39.4128483" lon="8.4086467"><ele>63.0</ele><time>2026-05-01T10:18:30.763Z</time></trkpt><trkpt lat="39.4128317" lon="8.4084417"><ele>62.0</ele><time>2026-05-01T10:18:31.763Z</time></trkpt><trkpt lat="39.4128117" lon="8.4082583"><ele>62.0</ele><time>2026-05-01T10:18:32.764Z</time></trkpt><trkpt lat="39.412775" lon="8.4081"><ele>62.0</ele><time>2026-05-01T10:18:33.763Z</time></trkpt><trkpt lat="39.4127067" lon="8.4079483"><ele>62.0</ele><time>2026-05-01T10:18:34.764Z</time></trkpt><trkpt lat="39.4126117" lon="8.4077967"><ele>62.0</ele><time>2026-05-01T10:18:35.763Z</time></trkpt><trkpt lat="39.4125017" lon="8.40764"><ele>60.333333333333336</ele><time>2026-05-01T10:18:36.763Z</time></trkpt><trkpt lat="39.412385" lon="8.4074833"><ele>58.66666666666667</ele><time>2026-05-01T10:18:37.764Z</time></trkpt><trkpt lat="39.4122733" lon="8.4073333"><ele>57.0</ele><time>2026-05-01T10:18:38.764Z</time></trkpt><trkpt lat="39.41217" lon="8.4071783"><ele>58.66666666666667</ele><time>2026-05-01T10:18:39.763Z</time></trkpt><trkpt lat="39.4120633" lon="8.40703"><ele>60.333333333333336</ele><time>2026-05-01T10:18:40.763Z</time></trkpt><trkpt lat="39.411955" lon="8.40689"><ele>62.0</ele><time>2026-05-01T10:18:41.763Z</time></trkpt><trkpt lat="39.41184" lon="8.4067783"><ele>62.0</ele><time>2026-05-01T10:18:42.764Z</time></trkpt><trkpt lat="39.4117133" lon="8.4067083"><ele>62.0</ele><time>2026-05-01T10:18:43.764Z</time></trkpt><trkpt lat="39.411575" lon="8.406645"><ele>62.0</ele><time>2026-05-01T10:18:44.763Z</time></trkpt><trkpt lat="39.4114283" lon="8.40657"><ele>62.0</ele><time>2026-05-01T10:18:45.764Z</time></trkpt><trkpt lat="39.4112817" lon="8.4064917"><ele>62.66666666666667</ele><time>2026-05-01T10:18:46.764Z</time></trkpt><trkpt lat="39.4111317" lon="8.406415"><ele>63.33333333333333</ele><time>2026-05-01T10:18:47.763Z</time></trkpt><trkpt lat="39.4109833" lon="8.4063383"><ele>64.0</ele><time>2026-05-01T10:18:48.763Z</time></trkpt><trkpt lat="39.4108433" lon="8.4062567"><ele>64.0</ele><time>2026-05-01T10:18:49.763Z</time></trkpt><trkpt lat="39.4106967" lon="8.4061817"><ele>64.0</ele><time>2026-05-01T10:18:50.763Z</time></trkpt><trkpt lat="39.410555" lon="8.40613"><ele>64.0</ele><time>2026-05-01T10:18:51.764Z</time></trkpt><trkpt lat="39.41041" lon="8.4061083"><ele>65.0</ele><time>2026-05-01T10:18:52.763Z</time></trkpt><trkpt lat="39.4102667" lon="8.4061167"><ele>66.0</ele><time>2026-05-01T10:18:53.763Z</time></trkpt><trkpt lat="39.4101183" lon="8.4061233"><ele>67.0</ele><time>2026-05-01T10:18:54.763Z</time></trkpt><trkpt lat="39.4099633" lon="8.4061183"><ele>68.0</ele><time>2026-05-01T10:18:55.763Z</time></trkpt><trkpt lat="39.4097983" lon="8.40612"><ele>67.66666666666667</ele><time>2026-05-01T10:18:56.763Z</time></trkpt><trkpt lat="39.4096267" lon="8.40612"><ele>67.33333333333333</ele><time>2026-05-01T10:18:57.763Z</time></trkpt><trkpt lat="39.4094467" lon="8.406125"><ele>67.0</ele><time>2026-05-01T10:18:58.764Z</time></trkpt><trkpt lat="39.40927" lon="8.4061267"><ele>67.0</ele><time>2026-05-01T10:18:59.763Z</time></trkpt><trkpt lat="39.409105" lon="8.4061317"><ele>67.0</ele><time>2026-05-01T10:19:00.763Z</time></trkpt><trkpt lat="39.408945" lon="8.406125"><ele>67.0</ele><time>2026-05-01T10:19:01.763Z</time></trkpt><trkpt lat="39.4087817" lon="8.4060867"><ele>69.66666666666666</ele><time>2026-05-01T10:19:02.763Z</time></trkpt><trkpt lat="39.4086183" lon="8.4060233"><ele>72.33333333333333</ele><time>2026-05-01T10:19:03.764Z</time></trkpt><trkpt lat="39.4084567" lon="8.405935"><ele>75.0</ele><time>2026-05-01T10:19:04.764Z</time></trkpt><trkpt lat="39.40829" lon="8.4058333"><ele>75.0</ele><time>2026-05-01T10:19:05.763Z</time></trkpt><trkpt lat="39.4081183" lon="8.4057283"><ele>75.0</ele><time>2026-05-01T10:19:06.763Z</time></trkpt><trkpt lat="39.4079517" lon="8.405625"><ele>75.0</ele><time>2026-05-01T10:19:07.763Z</time></trkpt><trkpt lat="39.4078" lon="8.4055367"><ele>71.33333333333333</ele><time>2026-05-01T10:19:08.764Z</time></trkpt><trkpt lat="39.407655" lon="8.4054467"><ele>67.66666666666666</ele><time>2026-05-01T10:19:09.763Z</time></trkpt><trkpt lat="39.4075183" lon="8.405365"><ele>64.0</ele><time>2026-05-01T10:19:10.763Z</time></trkpt><trkpt lat="39.4073783" lon="8.4052867"><ele>64.0</ele><time>2026-05-01T10:19:11.763Z</time></trkpt><trkpt lat="39.4072317" lon="8.4051983"><ele>64.0</ele><time>2026-05-01T10:19:12.764Z</time></trkpt><trkpt lat="39.4070783" lon="8.4051083"><ele>64.0</ele><time>2026-05-01T10:19:13.763Z</time></trkpt><trkpt lat="39.406925" lon="8.405015"><ele>67.66666666666666</ele><time>2026-05-01T10:19:14.763Z</time></trkpt><trkpt lat="39.4067717" lon="8.4049267"><ele>71.33333333333333</ele><time>2026-05-01T10:19:15.763Z</time></trkpt><trkpt lat="39.4066233" lon="8.40484"><ele>75.0</ele><time>2026-05-01T10:19:16.763Z</time></trkpt><trkpt lat="39.40648" lon="8.4047583"><ele>75.0</ele><time>2026-05-01T10:19:17.763Z</time></trkpt><trkpt lat="39.4063333" lon="8.40469"><ele>75.0</ele><time>2026-05-01T10:19:18.763Z</time></trkpt><trkpt lat="39.4061817" lon="8.4046767"><ele>75.0</ele><time>2026-05-01T10:19:19.763Z</time></trkpt><trkpt lat="39.4060367" lon="8.4047"><ele>77.66666666666667</ele><time>2026-05-01T10:19:20.763Z</time></trkpt><trkpt lat="39.405895" lon="8.4047717"><ele>80.33333333333334</ele><time>2026-05-01T10:19:21.763Z</time></trkpt><trkpt lat="39.4057417" lon="8.404845"><ele>83.0</ele><time>2026-05-01T10:19:22.764Z</time></trkpt><trkpt lat="39.4055833" lon="8.404885"><ele>80.0</ele><time>2026-05-01T10:19:23.763Z</time></trkpt><trkpt lat="39.4054183" lon="8.4049"><ele>77.0</ele><time>2026-05-01T10:19:24.764Z</time></trkpt><trkpt lat="39.4052433" lon="8.404895"><ele>74.0</ele><time>2026-05-01T10:19:25.764Z</time></trkpt><trkpt lat="39.4050717" lon="8.404895"><ele>74.0</ele><time>2026-05-01T10:19:26.763Z</time></trkpt><trkpt lat="39.4049183" lon="8.4048817"><ele>74.0</ele><time>2026-05-01T10:19:27.763Z</time></trkpt><trkpt lat="39.4047583" lon="8.4048433"><ele>74.0</ele><time>2026-05-01T10:19:28.763Z</time></trkpt><trkpt lat="39.404595" lon="8.40478"><ele>67.0</ele><time>2026-05-01T10:19:29.763Z</time></trkpt><trkpt lat="39.4044317" lon="8.4047117"><ele>60.0</ele><time>2026-05-01T10:19:30.763Z</time></trkpt><trkpt lat="39.4042667" lon="8.40464"><ele>53.0</ele><time>2026-05-01T10:19:31.763Z</time></trkpt><trkpt lat="39.4041083" lon="8.4045517"><ele>53.0</ele><time>2026-05-01T10:19:32.763Z</time></trkpt><trkpt lat="39.4039617" lon="8.404465"><ele>53.0</ele><time>2026-05-01T10:19:33.764Z</time></trkpt><trkpt lat="39.403825" lon="8.40437"><ele>53.0</ele><time>2026-05-01T10:19:34.763Z</time></trkpt><trkpt lat="39.4036933" lon="8.4042767"><ele>55.5</ele><time>2026-05-01T10:19:35.763Z</time></trkpt><trkpt lat="39.40356" lon="8.404195"><ele>58.0</ele><time>2026-05-01T10:19:36.763Z</time></trkpt><trkpt lat="39.4034267" lon="8.4041133"><ele>60.5</ele><time>2026-05-01T10:19:37.763Z</time></trkpt><trkpt lat="39.403295" lon="8.4040167"><ele>63.0</ele><time>2026-05-01T10:19:38.764Z</time></trkpt><trkpt lat="39.4031767" lon="8.4039"><ele>63.0</ele><time>2026-05-01T10:19:39.764Z</time></trkpt><trkpt lat="39.403085" lon="8.4037667"><ele>63.0</ele><time>2026-05-01T10:19:40.764Z</time></trkpt><trkpt lat="39.4029983" lon="8.403585"><ele>63.0</ele><time>2026-05-01T10:19:41.763Z</time></trkpt><trkpt lat="39.4029117" lon="8.4033917"><ele>63.0</ele><time>2026-05-01T10:19:42.764Z</time></trkpt><trkpt lat="39.402835" lon="8.4032"><ele>63.0</ele><time>2026-05-01T10:19:43.763Z</time></trkpt><trkpt lat="39.402755" lon="8.4030467"><ele>63.0</ele><time>2026-05-01T10:19:44.763Z</time></trkpt><trkpt lat="39.4026633" lon="8.402915"><ele>63.0</ele><time>2026-05-01T10:19:45.763Z</time></trkpt><trkpt lat="39.4025517" lon="8.402825"><ele>55.666666666666664</ele><time>2026-05-01T10:19:46.763Z</time></trkpt><trkpt lat="39.4024117" lon="8.4027633"><ele>48.33333333333333</ele><time>2026-05-01T10:19:47.763Z</time></trkpt><trkpt lat="39.40225" lon="8.4027317"><ele>41.0</ele><time>2026-05-01T10:19:48.763Z</time></trkpt><trkpt lat="39.40209" lon="8.4027167"><ele>41.0</ele><time>2026-05-01T10:19:49.764Z</time></trkpt><trkpt lat="39.4019283" lon="8.4026933"><ele>41.0</ele><time>2026-05-01T10:19:50.763Z</time></trkpt><trkpt lat="39.4017783" lon="8.4026617"><ele>41.0</ele><time>2026-05-01T10:19:51.763Z</time></trkpt><trkpt lat="39.4016333" lon="8.4026383"><ele>41.0</ele><time>2026-05-01T10:19:52.764Z</time></trkpt><trkpt lat="39.4014833" lon="8.4026083"><ele>41.0</ele><time>2026-05-01T10:19:53.763Z</time></trkpt><trkpt lat="39.4013383" lon="8.4025817"><ele>41.0</ele><time>2026-05-01T10:19:54.763Z</time></trkpt><trkpt lat="39.401205" lon="8.4025483"><ele>41.0</ele><time>2026-05-01T10:19:55.763Z</time></trkpt><trkpt lat="39.4010767" lon="8.4024983"><ele>37.25</ele><time>2026-05-01T10:19:56.763Z</time></trkpt><trkpt lat="39.400955" lon="8.4024083"><ele>33.5</ele><time>2026-05-01T10:19:57.764Z</time></trkpt><trkpt lat="39.400845" lon="8.4023033"><ele>29.75</ele><time>2026-05-01T10:19:58.763Z</time></trkpt><trkpt lat="39.400735" lon="8.4022067"><ele>26.0</ele><time>2026-05-01T10:19:59.763Z</time></trkpt><trkpt lat="39.4006333" lon="8.40212"><ele>26.0</ele><time>2026-05-01T10:20:00.763Z</time></trkpt><trkpt lat="39.4005267" lon="8.402075"><ele>26.0</ele><time>2026-05-01T10:20:01.763Z</time></trkpt><trkpt lat="39.4004117" lon="8.4020767"><ele>26.0</ele><time>2026-05-01T10:20:02.763Z</time></trkpt><trkpt lat="39.4002967" lon="8.40211"><ele>26.0</ele><time>2026-05-01T10:20:03.763Z</time></trkpt><trkpt lat="39.4002017" lon="8.4021533"><ele>26.0</ele><time>2026-05-01T10:20:04.763Z</time></trkpt><trkpt lat="39.400115" lon="8.4022017"><ele>32.666666666666664</ele><time>2026-05-01T10:20:05.763Z</time></trkpt><trkpt lat="39.400045" lon="8.4022417"><ele>39.33333333333333</ele><time>2026-05-01T10:20:06.763Z</time></trkpt><trkpt lat="39.3999783" lon="8.4022717"><ele>46.0</ele><time>2026-05-01T10:20:07.764Z</time></trkpt><trkpt lat="39.3998817" lon="8.4023167"><ele>52.666666666666664</ele><time>2026-05-01T10:20:09.763Z</time></trkpt><trkpt lat="39.39982" lon="8.4023833"><ele>59.333333333333336</ele><time>2026-05-01T10:21:11.762Z</time></trkpt><trkpt lat="39.39977" lon="8.4024333"><ele>66.0</ele><time>2026-05-01T10:21:14.762Z</time></trkpt><trkpt lat="39.399705" lon="8.4024867"><ele>66.0</ele><time>2026-05-01T10:21:19.762Z</time></trkpt><trkpt lat="39.3996333" lon="8.4024267"><ele>66.0</ele><time>2026-05-01T10:21:25.763Z</time></trkpt><trkpt lat="39.39957" lon="8.4024283"><ele>66.0</ele><time>2026-05-01T10:21:28.762Z</time></trkpt><trkpt lat="39.3994833" lon="8.402495"><ele>66.0</ele><time>2026-05-01T10:31:42.759Z</time></trkpt><trkpt lat="39.399475" lon="8.4025767"><ele>66.0</ele><time>2026-05-01T10:31:45.759Z</time></trkpt><trkpt lat="39.399565" lon="8.402605"><ele>66.0</ele><time>2026-05-01T10:31:48.759Z</time></trkpt><trkpt lat="39.39969" lon="8.40253"><ele>66.0</ele><time>2026-05-01T10:31:50.759Z</time></trkpt><trkpt lat="39.3997483" lon="8.4024717"><ele>66.0</ele><time>2026-05-01T10:31:51.76Z</time></trkpt><trkpt lat="39.3998183" lon="8.4024267"><ele>66.0</ele><time>2026-05-01T10:31:53.76Z</time></trkpt><trkpt lat="39.399795" lon="8.4025167"><ele>66.0</ele><time>2026-05-01T10:31:58.759Z</time></trkpt><trkpt lat="39.3997317" lon="8.4025933"><ele>66.0</ele><time>2026-05-01T10:32:00.76Z</time></trkpt><trkpt lat="39.3996733" lon="8.4026567"><ele>66.0</ele><time>2026-05-01T10:32:03.759Z</time></trkpt><trkpt lat="39.3995517" lon="8.4027483"><ele>66.0</ele><time>2026-05-01T10:32:27.758Z</time></trkpt><trkpt lat="39.3995017" lon="8.4028167"><ele>66.0</ele><time>2026-05-01T10:32:29.759Z</time></trkpt><trkpt lat="39.3995483" lon="8.4028967"><ele>66.0</ele><time>2026-05-01T10:32:32.758Z</time></trkpt><trkpt lat="39.3996333" lon="8.40288"><ele>66.0</ele><time>2026-05-01T10:32:34.758Z</time></trkpt><trkpt lat="39.3997" lon="8.4028433"><ele>66.0</ele><time>2026-05-01T10:32:35.758Z</time></trkpt><trkpt lat="39.3997817" lon="8.4028217"><ele>66.0</ele><time>2026-05-01T10:32:36.758Z</time></trkpt><trkpt lat="39.3998617" lon="8.4027683"><ele>66.0</ele><time>2026-05-01T10:32:37.759Z</time></trkpt><trkpt lat="39.3999417" lon="8.4027183"><ele>66.0</ele><time>2026-05-01T10:32:38.758Z</time></trkpt><trkpt lat="39.4000267" lon="8.4026783"><ele>66.0</ele><time>2026-05-01T10:32:39.759Z</time></trkpt><trkpt lat="39.4001117" lon="8.4026417"><ele>66.0</ele><time>2026-05-01T10:32:40.758Z</time></trkpt><trkpt lat="39.4001833" lon="8.402605"><ele>66.0</ele><time>2026-05-01T10:32:41.758Z</time></trkpt><trkpt lat="39.400245" lon="8.402575"><ele>66.0</ele><time>2026-05-01T10:32:42.758Z</time></trkpt><trkpt lat="39.4003067" lon="8.4025367"><ele>66.0</ele><time>2026-05-01T10:32:43.759Z</time></trkpt><trkpt lat="39.400375" lon="8.4025017"><ele>66.0</ele><time>2026-05-01T10:32:44.758Z</time></trkpt><trkpt lat="39.4004383" lon="8.4024917"><ele>66.0</ele><time>2026-05-01T10:32:45.759Z</time></trkpt><trkpt lat="39.40055" lon="8.40252"><ele>66.0</ele><time>2026-05-01T10:32:47.758Z</time></trkpt><trkpt lat="39.4006433" lon="8.4025917"><ele>66.0</ele><time>2026-05-01T10:32:49.758Z</time></trkpt><trkpt lat="39.400725" lon="8.40268"><ele>64.8</ele><time>2026-05-01T10:32:51.758Z</time></trkpt><trkpt lat="39.40077" lon="8.402845"><ele>63.599999999999994</ele><time>2026-05-01T10:32:53.759Z</time></trkpt><trkpt lat="39.4007733" lon="8.4029417"><ele>62.4</ele><time>2026-05-01T10:32:54.758Z</time></trkpt><trkpt lat="39.4007533" lon="8.403035"><ele>61.2</ele><time>2026-05-01T10:32:55.758Z</time></trkpt><trkpt lat="39.4006717" lon="8.4031967"><ele>60.0</ele><time>2026-05-01T10:32:57.758Z</time></trkpt><trkpt lat="39.400605" lon="8.4032933"><ele>64.0</ele><time>2026-05-01T10:32:59.758Z</time></trkpt><trkpt lat="39.4005233" lon="8.4032867"><ele>68.0</ele><time>2026-05-01T10:33:01.758Z</time></trkpt><trkpt lat="39.40046" lon="8.403275"><ele>72.0</ele><time>2026-05-01T10:33:02.758Z</time></trkpt><trkpt lat="39.4003517" lon="8.4032583"><ele>76.0</ele><time>2026-05-01T10:33:04.758Z</time></trkpt><trkpt lat="39.40029" lon="8.4032367"><ele>80.0</ele><time>2026-05-01T10:33:05.759Z</time></trkpt><trkpt lat="39.4001883" lon="8.4033"><ele>84.0</ele><time>2026-05-01T10:33:07.758Z</time></trkpt><trkpt lat="39.400135" lon="8.40336"><ele>84.0</ele><time>2026-05-01T10:33:08.758Z</time></trkpt><trkpt lat="39.4000733" lon="8.4034033"><ele>84.0</ele><time>2026-05-01T10:33:09.758Z</time></trkpt><trkpt lat="39.3998983" lon="8.403435"><ele>84.0</ele><time>2026-05-01T10:33:11.758Z</time></trkpt><trkpt lat="39.3997983" lon="8.4034533"><ele>84.0</ele><time>2026-05-01T10:33:12.758Z</time></trkpt><trkpt lat="39.3997017" lon="8.403475"><ele>84.0</ele><time>2026-05-01T10:33:13.758Z</time></trkpt><trkpt lat="39.3996083" lon="8.403495"><ele>82.33333333333333</ele><time>2026-05-01T10:33:14.758Z</time></trkpt><trkpt lat="39.3995317" lon="8.40353"><ele>80.66666666666667</ele><time>2026-05-01T10:33:15.758Z</time></trkpt><trkpt lat="39.3994583" lon="8.4035617"><ele>79.0</ele><time>2026-05-01T10:33:16.759Z</time></trkpt><trkpt lat="39.3993967" lon="8.4035817"><ele>77.33333333333334</ele><time>2026-05-01T10:33:17.759Z</time></trkpt><trkpt lat="39.3993183" lon="8.403595"><ele>75.66666666666667</ele><time>2026-05-01T10:33:18.758Z</time></trkpt><trkpt lat="39.3992317" lon="8.4036083"><ele>74.0</ele><time>2026-05-01T10:33:19.758Z</time></trkpt><trkpt lat="39.3991467" lon="8.4036183"><ele>74.0</ele><time>2026-05-01T10:33:20.759Z</time></trkpt><trkpt lat="39.3990467" lon="8.40362"><ele>74.0</ele><time>2026-05-01T10:33:21.758Z</time></trkpt><trkpt lat="39.398945" lon="8.403635"><ele>74.0</ele><time>2026-05-01T10:33:22.758Z</time></trkpt><trkpt lat="39.39884" lon="8.4036367"><ele>74.0</ele><time>2026-05-01T10:33:23.758Z</time></trkpt><trkpt lat="39.3987333" lon="8.4036417"><ele>74.0</ele><time>2026-05-01T10:33:24.758Z</time></trkpt><trkpt lat="39.3986283" lon="8.4036633"><ele>73.2</ele><time>2026-05-01T10:33:25.758Z</time></trkpt><trkpt lat="39.3985233" lon="8.4036867"><ele>72.4</ele><time>2026-05-01T10:33:26.758Z</time></trkpt><trkpt lat="39.398425" lon="8.40372"><ele>71.6</ele><time>2026-05-01T10:33:27.758Z</time></trkpt><trkpt lat="39.398335" lon="8.4037483"><ele>70.8</ele><time>2026-05-01T10:33:28.758Z</time></trkpt><trkpt lat="39.3982517" lon="8.4037717"><ele>70.0</ele><time>2026-05-01T10:33:29.758Z</time></trkpt><trkpt lat="39.398165" lon="8.4037883"><ele>70.0</ele><time>2026-05-01T10:33:30.758Z</time></trkpt><trkpt lat="39.3980817" lon="8.40381"><ele>70.0</ele><time>2026-05-01T10:33:31.759Z</time></trkpt><trkpt lat="39.3979933" lon="8.403825"><ele>70.0</ele><time>2026-05-01T10:33:32.758Z</time></trkpt><trkpt lat="39.3979" lon="8.4038367"><ele>70.0</ele><time>2026-05-01T10:33:33.759Z</time></trkpt><trkpt lat="39.3978" lon="8.40385"><ele>70.0</ele><time>2026-05-01T10:33:34.759Z</time></trkpt><trkpt lat="39.3977083" lon="8.40386"><ele>69.83333333333333</ele><time>2026-05-01T10:33:35.758Z</time></trkpt><trkpt lat="39.3976183" lon="8.403845"><ele>69.66666666666666</ele><time>2026-05-01T10:33:36.758Z</time></trkpt><trkpt lat="39.39753" lon="8.40383"><ele>69.5</ele><time>2026-05-01T10:33:37.759Z</time></trkpt><trkpt lat="39.3974483" lon="8.403825"><ele>69.33333333333333</ele><time>2026-05-01T10:33:38.759Z</time></trkpt><trkpt lat="39.3973667" lon="8.4038267"><ele>69.16666666666667</ele><time>2026-05-01T10:33:39.759Z</time></trkpt><trkpt lat="39.39728" lon="8.4038317"><ele>69.0</ele><time>2026-05-01T10:33:40.759Z</time></trkpt><trkpt lat="39.3971917" lon="8.4038417"><ele>69.8</ele><time>2026-05-01T10:33:41.758Z</time></trkpt><trkpt lat="39.3971067" lon="8.4038517"><ele>70.60000000000001</ele><time>2026-05-01T10:33:42.759Z</time></trkpt><trkpt lat="39.397025" lon="8.4038583"><ele>71.4</ele><time>2026-05-01T10:33:43.759Z</time></trkpt><trkpt lat="39.3969367" lon="8.4038517"><ele>72.2</ele><time>2026-05-01T10:33:44.759Z</time></trkpt><trkpt lat="39.396835" lon="8.4038333"><ele>73.0</ele><time>2026-05-01T10:33:45.758Z</time></trkpt><trkpt lat="39.3967283" lon="8.4037967"><ele>73.0</ele><time>2026-05-01T10:33:46.758Z</time></trkpt><trkpt lat="39.3966333" lon="8.4037783"><ele>73.0</ele><time>2026-05-01T10:33:47.759Z</time></trkpt><trkpt lat="39.3965417" lon="8.4037617"><ele>73.0</ele><time>2026-05-01T10:33:48.758Z</time></trkpt><trkpt lat="39.3964533" lon="8.40375"><ele>73.0</ele><time>2026-05-01T10:33:49.759Z</time></trkpt><trkpt lat="39.3963667" lon="8.4037267"><ele>73.0</ele><time>2026-05-01T10:33:50.758Z</time></trkpt><trkpt lat="39.3962817" lon="8.4037117"><ele>72.2</ele><time>2026-05-01T10:33:51.758Z</time></trkpt><trkpt lat="39.3961867" lon="8.4037167"><ele>71.4</ele><time>2026-05-01T10:33:52.759Z</time></trkpt><trkpt lat="39.3960867" lon="8.4037433"><ele>70.60000000000001</ele><time>2026-05-01T10:33:53.758Z</time></trkpt><trkpt lat="39.3959883" lon="8.403785"><ele>69.8</ele><time>2026-05-01T10:33:54.758Z</time></trkpt><trkpt lat="39.3959033" lon="8.4038433"><ele>69.0</ele><time>2026-05-01T10:33:55.758Z</time></trkpt><trkpt lat="39.3958233" lon="8.4039033"><ele>70.0</ele><time>2026-05-01T10:33:56.759Z</time></trkpt><trkpt lat="39.3957517" lon="8.40398"><ele>71.0</ele><time>2026-05-01T10:33:57.759Z</time></trkpt><trkpt lat="39.3956783" lon="8.40408"><ele>72.0</ele><time>2026-05-01T10:33:58.758Z</time></trkpt><trkpt lat="39.3955933" lon="8.40419"><ele>73.0</ele><time>2026-05-01T10:33:59.758Z</time></trkpt><trkpt lat="39.3954983" lon="8.4043017"><ele>74.0</ele><time>2026-05-01T10:34:00.758Z</time></trkpt><trkpt lat="39.3954133" lon="8.4044167"><ele>74.0</ele><time>2026-05-01T10:34:01.758Z</time></trkpt><trkpt lat="39.3953333" lon="8.4045283"><ele>74.0</ele><time>2026-05-01T10:34:02.758Z</time></trkpt><trkpt lat="39.395235" lon="8.4046317"><ele>74.0</ele><time>2026-05-01T10:34:03.759Z</time></trkpt><trkpt lat="39.395135" lon="8.4047183"><ele>74.0</ele><time>2026-05-01T10:34:04.758Z</time></trkpt><trkpt lat="39.39502" lon="8.4047917"><ele>78.25</ele><time>2026-05-01T10:34:05.759Z</time></trkpt><trkpt lat="39.3948983" lon="8.40486"><ele>82.5</ele><time>2026-05-01T10:34:06.758Z</time></trkpt><trkpt lat="39.3947767" lon="8.4049167"><ele>86.75</ele><time>2026-05-01T10:34:07.758Z</time></trkpt><trkpt lat="39.3946483" lon="8.404965"><ele>91.0</ele><time>2026-05-01T10:34:08.758Z</time></trkpt><trkpt lat="39.394525" lon="8.4050117"><ele>91.0</ele><time>2026-05-01T10:34:09.758Z</time></trkpt><trkpt lat="39.39441" lon="8.40503"><ele>91.0</ele><time>2026-05-01T10:34:10.759Z</time></trkpt><trkpt lat="39.3942933" lon="8.40505"><ele>91.0</ele><time>2026-05-01T10:34:11.759Z</time></trkpt><trkpt lat="39.3941783" lon="8.4050583"><ele>91.0</ele><time>2026-05-01T10:34:12.758Z</time></trkpt><trkpt lat="39.3940717" lon="8.4050617"><ele>91.0</ele><time>2026-05-01T10:34:13.759Z</time></trkpt><trkpt lat="39.39396" lon="8.4050733"><ele>91.0</ele><time>2026-05-01T10:34:14.759Z</time></trkpt><trkpt lat="39.3938467" lon="8.4051067"><ele>91.0</ele><time>2026-05-01T10:34:15.758Z</time></trkpt><trkpt lat="39.393755" lon="8.4051633"><ele>91.0</ele><time>2026-05-01T10:34:16.759Z</time></trkpt><trkpt lat="39.393695" lon="8.405215"><ele>91.0</ele><time>2026-05-01T10:34:17.759Z</time></trkpt><trkpt lat="39.3936683" lon="8.4052933"><ele>91.0</ele><time>2026-05-01T10:34:19.758Z</time></trkpt><trkpt lat="39.3937417" lon="8.4053417"><ele>91.0</ele><time>2026-05-01T10:34:21.758Z</time></trkpt><trkpt lat="39.39381" lon="8.4053517"><ele>91.0</ele><time>2026-05-01T10:34:22.759Z</time></trkpt><trkpt lat="39.3939067" lon="8.4053633"><ele>91.0</ele><time>2026-05-01T10:34:23.758Z</time></trkpt><trkpt lat="39.3940233" lon="8.4053917"><ele>91.0</ele><time>2026-05-01T10:34:24.758Z</time></trkpt><trkpt lat="39.3941367" lon="8.4054433"><ele>98.0</ele><time>2026-05-01T10:34:25.759Z</time></trkpt><trkpt lat="39.3942467" lon="8.4055217"><ele>105.0</ele><time>2026-05-01T10:34:26.758Z</time></trkpt><trkpt lat="39.3943583" lon="8.405605"><ele>112.0</ele><time>2026-05-01T10:34:27.758Z</time></trkpt><trkpt lat="39.3944733" lon="8.40567"><ele>119.0</ele><time>2026-05-01T10:34:28.758Z</time></trkpt><trkpt lat="39.3946" lon="8.4057167"><ele>118.25</ele><time>2026-05-01T10:34:29.759Z</time></trkpt><trkpt lat="39.3947433" lon="8.4057583"><ele>117.5</ele><time>2026-05-01T10:34:30.759Z</time></trkpt><trkpt lat="39.39489" lon="8.4057933"><ele>116.75</ele><time>2026-05-01T10:34:31.758Z</time></trkpt><trkpt lat="39.395035" lon="8.40583"><ele>116.0</ele><time>2026-05-01T10:34:32.758Z</time></trkpt><trkpt lat="39.39518" lon="8.4058583"><ele>116.0</ele><time>2026-05-01T10:34:33.759Z</time></trkpt><trkpt lat="39.39532" lon="8.405895"><ele>116.0</ele><time>2026-05-01T10:34:34.758Z</time></trkpt><trkpt lat="39.39546" lon="8.4059233"><ele>116.0</ele><time>2026-05-01T10:34:35.758Z</time></trkpt><trkpt lat="39.3956" lon="8.40595"><ele>116.0</ele><time>2026-05-01T10:34:36.758Z</time></trkpt><trkpt lat="39.3957383" lon="8.4059733"><ele>116.75</ele><time>2026-05-01T10:34:37.758Z</time></trkpt><trkpt lat="39.3958667" lon="8.4060083"><ele>117.5</ele><time>2026-05-01T10:34:38.758Z</time></trkpt><trkpt lat="39.3959967" lon="8.406045"><ele>118.25</ele><time>2026-05-01T10:34:39.759Z</time></trkpt><trkpt lat="39.3961167" lon="8.4060767"><ele>119.0</ele><time>2026-05-01T10:34:40.758Z</time></trkpt><trkpt lat="39.3962283" lon="8.4061217"><ele>119.0</ele><time>2026-05-01T10:34:41.758Z</time></trkpt><trkpt lat="39.3963317" lon="8.4061767"><ele>119.0</ele><time>2026-05-01T10:34:42.758Z</time></trkpt><trkpt lat="39.3964167" lon="8.4062533"><ele>119.0</ele><time>2026-05-01T10:34:43.758Z</time></trkpt><trkpt lat="39.39648" lon="8.4063517"><ele>119.0</ele><time>2026-05-01T10:34:44.759Z</time></trkpt><trkpt lat="39.3965217" lon="8.406455"><ele>119.0</ele><time>2026-05-01T10:34:45.758Z</time></trkpt><trkpt lat="39.3965783" lon="8.4065417"><ele>120.16666666666666</ele><time>2026-05-01T10:34:46.758Z</time></trkpt><trkpt lat="39.3966533" lon="8.4065867"><ele>121.33333333333333</ele><time>2026-05-01T10:34:47.758Z</time></trkpt><trkpt lat="39.3967267" lon="8.4065833"><ele>122.5</ele><time>2026-05-01T10:34:48.759Z</time></trkpt><trkpt lat="39.3968067" lon="8.4065417"><ele>123.66666666666666</ele><time>2026-05-01T10:34:49.759Z</time></trkpt><trkpt lat="39.396875" lon="8.40646"><ele>124.83333333333333</ele><time>2026-05-01T10:34:50.758Z</time></trkpt><trkpt lat="39.3969183" lon="8.4063533"><ele>126.0</ele><time>2026-05-01T10:34:51.759Z</time></trkpt><trkpt lat="39.3969433" lon="8.4062333"><ele>126.0</ele><time>2026-05-01T10:34:52.758Z</time></trkpt><trkpt lat="39.396985" lon="8.4061117"><ele>126.0</ele><time>2026-05-01T10:34:53.758Z</time></trkpt><trkpt lat="39.39705" lon="8.40599"><ele>126.0</ele><time>2026-05-01T10:34:54.759Z</time></trkpt><trkpt lat="39.397125" lon="8.4058667"><ele>126.0</ele><time>2026-05-01T10:34:55.757Z</time></trkpt><trkpt lat="39.39721" lon="8.40573"><ele>126.25</ele><time>2026-05-01T10:34:56.757Z</time></trkpt><trkpt lat="39.39729" lon="8.4055983"><ele>126.5</ele><time>2026-05-01T10:34:57.757Z</time></trkpt><trkpt lat="39.3973783" lon="8.405485"><ele>126.75</ele><time>2026-05-01T10:34:58.757Z</time></trkpt><trkpt lat="39.3974667" lon="8.4054033"><ele>127.0</ele><time>2026-05-01T10:34:59.757Z</time></trkpt><trkpt lat="39.39756" lon="8.405355"><ele>127.0</ele><time>2026-05-01T10:35:00.757Z</time></trkpt><trkpt lat="39.3976733" lon="8.4053283"><ele>127.0</ele><time>2026-05-01T10:35:01.758Z</time></trkpt><trkpt lat="39.3977983" lon="8.40533"><ele>127.0</ele><time>2026-05-01T10:35:02.757Z</time></trkpt><trkpt lat="39.3979283" lon="8.4053367"><ele>127.0</ele><time>2026-05-01T10:35:03.757Z</time></trkpt><trkpt lat="39.3980667" lon="8.40535"><ele>129.25</ele><time>2026-05-01T10:35:04.757Z</time></trkpt><trkpt lat="39.3982017" lon="8.4053683"><ele>131.5</ele><time>2026-05-01T10:35:05.757Z</time></trkpt><trkpt lat="39.39833" lon="8.4054017"><ele>133.75</ele><time>2026-05-01T10:35:06.757Z</time></trkpt><trkpt lat="39.3984617" lon="8.4054467"><ele>136.0</ele><time>2026-05-01T10:35:07.758Z</time></trkpt><trkpt lat="39.3985917" lon="8.4055117"><ele>144.5</ele><time>2026-05-01T10:35:08.757Z</time></trkpt><trkpt lat="39.3987233" lon="8.405595"><ele>153.0</ele><time>2026-05-01T10:35:09.757Z</time></trkpt><trkpt lat="39.3988567" lon="8.4056817"><ele>161.5</ele><time>2026-05-01T10:35:10.757Z</time></trkpt><trkpt lat="39.398985" lon="8.4057667"><ele>170.0</ele><time>2026-05-01T10:35:11.757Z</time></trkpt><trkpt lat="39.399115" lon="8.40585"><ele>170.0</ele><time>2026-05-01T10:35:12.757Z</time></trkpt><trkpt lat="39.399245" lon="8.40592"><ele>170.0</ele><time>2026-05-01T10:35:13.757Z</time></trkpt><trkpt lat="39.3993667" lon="8.4059617"><ele>170.0</ele><time>2026-05-01T10:35:14.757Z</time></trkpt><trkpt lat="39.399495" lon="8.4059733"><ele>170.0</ele><time>2026-05-01T10:35:15.757Z</time></trkpt><trkpt lat="39.3996267" lon="8.4059583"><ele>172.5</ele><time>2026-05-01T10:35:16.757Z</time></trkpt><trkpt lat="39.3997517" lon="8.4059117"><ele>175.0</ele><time>2026-05-01T10:35:17.758Z</time></trkpt><trkpt lat="39.39986" lon="8.4058383"><ele>177.5</ele><time>2026-05-01T10:35:18.757Z</time></trkpt><trkpt lat="39.3999683" lon="8.40576"><ele>180.0</ele><time>2026-05-01T10:35:19.757Z</time></trkpt><trkpt lat="39.40008" lon="8.40568"><ele>180.0</ele><time>2026-05-01T10:35:20.758Z</time></trkpt><trkpt lat="39.4001967" lon="8.405645"><ele>180.0</ele><time>2026-05-01T10:35:21.758Z</time></trkpt><trkpt lat="39.4003133" lon="8.4056417"><ele>180.0</ele><time>2026-05-01T10:35:22.757Z</time></trkpt><trkpt lat="39.400435" lon="8.4056483"><ele>180.0</ele><time>2026-05-01T10:35:23.757Z</time></trkpt><trkpt lat="39.4005567" lon="8.40567"><ele>182.0</ele><time>2026-05-01T10:35:24.757Z</time></trkpt><trkpt lat="39.4006767" lon="8.4057017"><ele>184.0</ele><time>2026-05-01T10:35:25.757Z</time></trkpt><trkpt lat="39.4007983" lon="8.4057483"><ele>186.0</ele><time>2026-05-01T10:35:26.757Z</time></trkpt><trkpt lat="39.40092" lon="8.4058067"><ele>188.0</ele><time>2026-05-01T10:35:27.757Z</time></trkpt><trkpt lat="39.4010367" lon="8.4058817"><ele>188.0</ele><time>2026-05-01T10:35:28.757Z</time></trkpt><trkpt lat="39.4011467" lon="8.405955"><ele>188.0</ele><time>2026-05-01T10:35:29.757Z</time></trkpt><trkpt lat="39.4012517" lon="8.406035"><ele>188.0</ele><time>2026-05-01T10:35:30.757Z</time></trkpt><trkpt lat="39.40135" lon="8.40611"><ele>188.0</ele><time>2026-05-01T10:35:31.758Z</time></trkpt><trkpt lat="39.4014467" lon="8.4062"><ele>184.5</ele><time>2026-05-01T10:35:32.758Z</time></trkpt><trkpt lat="39.4015433" lon="8.4062917"><ele>181.0</ele><time>2026-05-01T10:35:33.757Z</time></trkpt><trkpt lat="39.4016367" lon="8.4063967"><ele>177.5</ele><time>2026-05-01T10:35:34.757Z</time></trkpt><trkpt lat="39.4017233" lon="8.40651"><ele>174.0</ele><time>2026-05-01T10:35:35.757Z</time></trkpt><trkpt lat="39.4018067" lon="8.406635"><ele>181.75</ele><time>2026-05-01T10:35:36.758Z</time></trkpt><trkpt lat="39.4018833" lon="8.406765"><ele>189.5</ele><time>2026-05-01T10:35:37.758Z</time></trkpt><trkpt lat="39.401945" lon="8.4069"><ele>197.25</ele><time>2026-05-01T10:35:38.758Z</time></trkpt><trkpt lat="39.4019883" lon="8.4070367"><ele>205.0</ele><time>2026-05-01T10:35:39.757Z</time></trkpt><trkpt lat="39.4020383" lon="8.4071583"><ele>204.16666666666666</ele><time>2026-05-01T10:35:40.758Z</time></trkpt><trkpt lat="39.4021017" lon="8.407235"><ele>203.33333333333331</ele><time>2026-05-01T10:35:41.757Z</time></trkpt><trkpt lat="39.4021783" lon="8.407275"><ele>202.5</ele><time>2026-05-01T10:35:42.758Z</time></trkpt><trkpt lat="39.402265" lon="8.4072833"><ele>201.66666666666669</ele><time>2026-05-01T10:35:43.758Z</time></trkpt><trkpt lat="39.4023367" lon="8.4072183"><ele>200.83333333333334</ele><time>2026-05-01T10:35:44.758Z</time></trkpt><trkpt lat="39.4024083" lon="8.4071283"><ele>200.0</ele><time>2026-05-01T10:35:45.758Z</time></trkpt><trkpt lat="39.4024883" lon="8.407015"><ele>200.0</ele><time>2026-05-01T10:35:46.757Z</time></trkpt><trkpt lat="39.40257" lon="8.4068817"><ele>200.0</ele><time>2026-05-01T10:35:47.757Z</time></trkpt><trkpt lat="39.4026483" lon="8.4067667"><ele>200.0</ele><time>2026-05-01T10:35:48.757Z</time></trkpt><trkpt lat="39.4027167" lon="8.40668"><ele>200.0</ele><time>2026-05-01T10:35:49.757Z</time></trkpt><trkpt lat="39.40279" lon="8.4066317"><ele>200.0</ele><time>2026-05-01T10:35:50.757Z</time></trkpt><trkpt lat="39.4028733" lon="8.406635"><ele>200.0</ele><time>2026-05-01T10:35:51.757Z</time></trkpt><trkpt lat="39.4029733" lon="8.40667"><ele>200.0</ele><time>2026-05-01T10:35:52.757Z</time></trkpt><trkpt lat="39.4030867" lon="8.40671"><ele>200.0</ele><time>2026-05-01T10:35:53.758Z</time></trkpt><trkpt lat="39.4031983" lon="8.4067567"><ele>200.0</ele><time>2026-05-01T10:35:54.758Z</time></trkpt><trkpt lat="39.4033083" lon="8.4067933"><ele>202.0</ele><time>2026-05-01T10:35:55.758Z</time></trkpt><trkpt lat="39.40342" lon="8.4068317"><ele>204.0</ele><time>2026-05-01T10:35:56.758Z</time></trkpt><trkpt lat="39.4035317" lon="8.406885"><ele>206.0</ele><time>2026-05-01T10:35:57.757Z</time></trkpt><trkpt lat="39.4036483" lon="8.4069533"><ele>208.0</ele><time>2026-05-01T10:35:58.757Z</time></trkpt><trkpt lat="39.4037683" lon="8.4070317"><ele>205.5</ele><time>2026-05-01T10:35:59.757Z</time></trkpt><trkpt lat="39.4038867" lon="8.4071217"><ele>203.0</ele><time>2026-05-01T10:36:00.758Z</time></trkpt><trkpt lat="39.4039883" lon="8.4072233"><ele>200.5</ele><time>2026-05-01T10:36:01.757Z</time></trkpt><trkpt lat="39.4040767" lon="8.4073317"><ele>198.0</ele><time>2026-05-01T10:36:02.757Z</time></trkpt><trkpt lat="39.4041583" lon="8.407445"><ele>207.25</ele><time>2026-05-01T10:36:03.758Z</time></trkpt><trkpt lat="39.4042317" lon="8.4075667"><ele>216.5</ele><time>2026-05-01T10:36:04.757Z</time></trkpt><trkpt lat="39.404305" lon="8.4076817"><ele>225.75</ele><time>2026-05-01T10:36:05.758Z</time></trkpt><trkpt lat="39.4043833" lon="8.4077733"><ele>235.0</ele><time>2026-05-01T10:36:06.757Z</time></trkpt><trkpt lat="39.4044867" lon="8.4078217"><ele>235.0</ele><time>2026-05-01T10:36:07.757Z</time></trkpt><trkpt lat="39.4045983" lon="8.4078333"><ele>235.0</ele><time>2026-05-01T10:36:08.757Z</time></trkpt><trkpt lat="39.404715" lon="8.4078217"><ele>235.0</ele><time>2026-05-01T10:36:09.757Z</time></trkpt><trkpt lat="39.40483" lon="8.4078467"><ele>235.0</ele><time>2026-05-01T10:36:10.757Z</time></trkpt><trkpt lat="39.404935" lon="8.4078867"><ele>229.75</ele><time>2026-05-01T10:36:11.757Z</time></trkpt><trkpt lat="39.4050283" lon="8.4079617"><ele>224.5</ele><time>2026-05-01T10:36:12.758Z</time></trkpt><trkpt lat="39.4051033" lon="8.4080717"><ele>219.25</ele><time>2026-05-01T10:36:13.757Z</time></trkpt><trkpt lat="39.4051733" lon="8.4082117"><ele>214.0</ele><time>2026-05-01T10:36:14.758Z</time></trkpt><trkpt lat="39.405245" lon="8.4083617"><ele>220.5</ele><time>2026-05-01T10:36:15.757Z</time></trkpt><trkpt lat="39.4053067" lon="8.4085083"><ele>227.0</ele><time>2026-05-01T10:36:16.757Z</time></trkpt><trkpt lat="39.40539" lon="8.4086467"><ele>233.5</ele><time>2026-05-01T10:36:17.757Z</time></trkpt><trkpt lat="39.405475" lon="8.4087583"><ele>240.0</ele><time>2026-05-01T10:36:18.758Z</time></trkpt><trkpt lat="39.40556" lon="8.4088583"><ele>240.0</ele><time>2026-05-01T10:36:19.758Z</time></trkpt><trkpt lat="39.405635" lon="8.4089633"><ele>240.0</ele><time>2026-05-01T10:36:20.758Z</time></trkpt><trkpt lat="39.40569" lon="8.4090683"><ele>240.0</ele><time>2026-05-01T10:36:21.757Z</time></trkpt><trkpt lat="39.40573" lon="8.4091717"><ele>240.0</ele><time>2026-05-01T10:36:22.758Z</time></trkpt><trkpt lat="39.4057667" lon="8.4092883"><ele>240.0</ele><time>2026-05-01T10:36:23.757Z</time></trkpt><trkpt lat="39.405815" lon="8.4093933"><ele>240.0</ele><time>2026-05-01T10:36:24.757Z</time></trkpt><trkpt lat="39.40588" lon="8.4094783"><ele>240.0</ele><time>2026-05-01T10:36:25.757Z</time></trkpt><trkpt lat="39.4059383" lon="8.4095667"><ele>240.0</ele><time>2026-05-01T10:36:26.757Z</time></trkpt><trkpt lat="39.4059717" lon="8.409665"><ele>240.0</ele><time>2026-05-01T10:36:27.758Z</time></trkpt><trkpt lat="39.4059883" lon="8.4097733"><ele>240.0</ele><time>2026-05-01T10:36:28.757Z</time></trkpt><trkpt lat="39.4060233" lon="8.4098767"><ele>240.0</ele><time>2026-05-01T10:36:29.757Z</time></trkpt><trkpt lat="39.4060767" lon="8.4099717"><ele>238.0</ele><time>2026-05-01T10:36:30.757Z</time></trkpt><trkpt lat="39.406145" lon="8.4100383"><ele>236.0</ele><time>2026-05-01T10:36:31.757Z</time></trkpt><trkpt lat="39.4062233" lon="8.4100917"><ele>234.0</ele><time>2026-05-01T10:36:32.758Z</time></trkpt><trkpt lat="39.4062867" lon="8.4101733"><ele>232.0</ele><time>2026-05-01T10:36:33.757Z</time></trkpt><trkpt lat="39.4063367" lon="8.41028"><ele>230.0</ele><time>2026-05-01T10:36:34.757Z</time></trkpt><trkpt lat="39.40636" lon="8.4103967"><ele>230.8</ele><time>2026-05-01T10:36:35.757Z</time></trkpt><trkpt lat="39.40636" lon="8.410515"><ele>231.6</ele><time>2026-05-01T10:36:36.757Z</time></trkpt><trkpt lat="39.406335" lon="8.4106367"><ele>232.39999999999998</ele><time>2026-05-01T10:36:37.757Z</time></trkpt><trkpt lat="39.4063033" lon="8.41077"><ele>233.2</ele><time>2026-05-01T10:36:38.757Z</time></trkpt><trkpt lat="39.4062783" lon="8.4109033"><ele>234.0</ele><time>2026-05-01T10:36:39.757Z</time></trkpt><trkpt lat="39.40626" lon="8.41104"><ele>241.39999999999998</ele><time>2026-05-01T10:36:40.758Z</time></trkpt><trkpt lat="39.40624" lon="8.4111733"><ele>248.79999999999998</ele><time>2026-05-01T10:36:41.757Z</time></trkpt><trkpt lat="39.4062133" lon="8.4113167"><ele>256.20000000000005</ele><time>2026-05-01T10:36:42.757Z</time></trkpt><trkpt lat="39.4061783" lon="8.411455"><ele>263.6</ele><time>2026-05-01T10:36:43.758Z</time></trkpt><trkpt lat="39.4061267" lon="8.4115833"><ele>271.0</ele><time>2026-05-01T10:36:44.758Z</time></trkpt><trkpt lat="39.40606" lon="8.4116967"><ele>271.0</ele><time>2026-05-01T10:36:45.757Z</time></trkpt><trkpt lat="39.4059767" lon="8.4118"><ele>271.0</ele><time>2026-05-01T10:36:46.758Z</time></trkpt><trkpt lat="39.4058817" lon="8.4119017"><ele>271.0</ele><time>2026-05-01T10:36:47.758Z</time></trkpt><trkpt lat="39.405785" lon="8.412005"><ele>271.0</ele><time>2026-05-01T10:36:48.757Z</time></trkpt><trkpt lat="39.40568" lon="8.4121033"><ele>266.75</ele><time>2026-05-01T10:36:49.757Z</time></trkpt><trkpt lat="39.40557" lon="8.4122"><ele>262.5</ele><time>2026-05-01T10:36:50.758Z</time></trkpt><trkpt lat="39.4054667" lon="8.412295"><ele>258.25</ele><time>2026-05-01T10:36:51.758Z</time></trkpt><trkpt lat="39.4053667" lon="8.4123883"><ele>254.0</ele><time>2026-05-01T10:36:52.757Z</time></trkpt><trkpt lat="39.40527" lon="8.412485"><ele>262.5</ele><time>2026-05-01T10:36:53.758Z</time></trkpt><trkpt lat="39.40518" lon="8.4125967"><ele>271.0</ele><time>2026-05-01T10:36:54.757Z</time></trkpt><trkpt lat="39.4051" lon="8.4127183"><ele>279.5</ele><time>2026-05-01T10:36:55.757Z</time></trkpt><trkpt lat="39.40502" lon="8.412845"><ele>288.0</ele><time>2026-05-01T10:36:56.757Z</time></trkpt><trkpt lat="39.4049433" lon="8.4129717"><ele>286.6</ele><time>2026-05-01T10:36:57.757Z</time></trkpt><trkpt lat="39.4048767" lon="8.4131017"><ele>285.20000000000005</ele><time>2026-05-01T10:36:58.757Z</time></trkpt><trkpt lat="39.404825" lon="8.4132267"><ele>283.8</ele><time>2026-05-01T10:36:59.757Z</time></trkpt><trkpt lat="39.4047967" lon="8.4133433"><ele>282.40000000000003</ele><time>2026-05-01T10:37:00.757Z</time></trkpt><trkpt lat="39.4048033" lon="8.4134433"><ele>281.0</ele><time>2026-05-01T10:37:01.757Z</time></trkpt><trkpt lat="39.4048317" lon="8.4135333"><ele>281.0</ele><time>2026-05-01T10:37:02.758Z</time></trkpt><trkpt lat="39.4048883" lon="8.4135917"><ele>281.0</ele><time>2026-05-01T10:37:03.758Z</time></trkpt><trkpt lat="39.4049767" lon="8.4136267"><ele>281.0</ele><time>2026-05-01T10:37:04.757Z</time></trkpt><trkpt lat="39.4050817" lon="8.41365"><ele>281.0</ele><time>2026-05-01T10:37:05.757Z</time></trkpt><trkpt lat="39.4051983" lon="8.413675"><ele>281.0</ele><time>2026-05-01T10:37:06.757Z</time></trkpt><trkpt lat="39.4053" lon="8.413715"><ele>281.0</ele><time>2026-05-01T10:37:07.758Z</time></trkpt><trkpt lat="39.4053733" lon="8.41377"><ele>281.0</ele><time>2026-05-01T10:37:08.757Z</time></trkpt><trkpt lat="39.40542" lon="8.41385"><ele>281.0</ele><time>2026-05-01T10:37:09.757Z</time></trkpt><trkpt lat="39.4054433" lon="8.4139617"><ele>281.0</ele><time>2026-05-01T10:37:10.758Z</time></trkpt><trkpt lat="39.405435" lon="8.4140983"><ele>281.0</ele><time>2026-05-01T10:37:11.757Z</time></trkpt><trkpt lat="39.4054183" lon="8.4142367"><ele>285.6</ele><time>2026-05-01T10:37:12.757Z</time></trkpt><trkpt lat="39.4054067" lon="8.4143783"><ele>290.20000000000005</ele><time>2026-05-01T10:37:13.758Z</time></trkpt><trkpt lat="39.4054083" lon="8.414505"><ele>294.79999999999995</ele><time>2026-05-01T10:37:14.758Z</time></trkpt><trkpt lat="39.4054283" lon="8.4146117"><ele>299.4</ele><time>2026-05-01T10:37:15.757Z</time></trkpt><trkpt lat="39.4054783" lon="8.4147"><ele>304.0</ele><time>2026-05-01T10:37:16.757Z</time></trkpt><trkpt lat="39.4055467" lon="8.41477"><ele>306.0</ele><time>2026-05-01T10:37:17.757Z</time></trkpt><trkpt lat="39.40563" lon="8.4148083"><ele>308.0</ele><time>2026-05-01T10:37:18.758Z</time></trkpt><trkpt lat="39.4057133" lon="8.414815"><ele>310.0</ele><time>2026-05-01T10:37:19.758Z</time></trkpt><trkpt lat="39.4058233" lon="8.4147717"><ele>312.0</ele><time>2026-05-01T10:37:20.757Z</time></trkpt><trkpt lat="39.40593" lon="8.4147033"><ele>314.0</ele><time>2026-05-01T10:37:21.757Z</time></trkpt><trkpt lat="39.406025" lon="8.41466"><ele>311.2</ele><time>2026-05-01T10:37:22.757Z</time></trkpt><trkpt lat="39.4061183" lon="8.4146283"><ele>308.4</ele><time>2026-05-01T10:37:23.757Z</time></trkpt><trkpt lat="39.4062233" lon="8.4145917"><ele>305.6</ele><time>2026-05-01T10:37:24.758Z</time></trkpt><trkpt lat="39.40633" lon="8.414545"><ele>302.8</ele><time>2026-05-01T10:37:25.758Z</time></trkpt><trkpt lat="39.4064483" lon="8.4144967"><ele>300.0</ele><time>2026-05-01T10:37:26.757Z</time></trkpt><trkpt lat="39.4065767" lon="8.41444"><ele>300.0</ele><time>2026-05-01T10:37:27.757Z</time></trkpt><trkpt lat="39.406695" lon="8.41438"><ele>300.0</ele><time>2026-05-01T10:37:28.757Z</time></trkpt><trkpt lat="39.4068117" lon="8.4143267"><ele>300.0</ele><time>2026-05-01T10:37:29.757Z</time></trkpt><trkpt lat="39.4069133" lon="8.41429"><ele>300.0</ele><time>2026-05-01T10:37:30.757Z</time></trkpt><trkpt lat="39.4070017" lon="8.4142917"><ele>300.0</ele><time>2026-05-01T10:37:31.757Z</time></trkpt><trkpt lat="39.4070917" lon="8.4143067"><ele>298.6</ele><time>2026-05-01T10:37:32.757Z</time></trkpt><trkpt lat="39.4071983" lon="8.4143267"><ele>297.2</ele><time>2026-05-01T10:37:33.757Z</time></trkpt><trkpt lat="39.4073033" lon="8.4143433"><ele>295.8</ele><time>2026-05-01T10:37:34.757Z</time></trkpt><trkpt lat="39.4073983" lon="8.414365"><ele>294.4</ele><time>2026-05-01T10:37:35.758Z</time></trkpt><trkpt lat="39.407475" lon="8.4144083"><ele>293.0</ele><time>2026-05-01T10:37:36.757Z</time></trkpt><trkpt lat="39.40754" lon="8.414475"><ele>293.0</ele><time>2026-05-01T10:37:37.758Z</time></trkpt><trkpt lat="39.4075883" lon="8.414575"><ele>293.0</ele><time>2026-05-01T10:37:38.758Z</time></trkpt><trkpt lat="39.4076367" lon="8.414695"><ele>293.0</ele><time>2026-05-01T10:37:39.757Z</time></trkpt><trkpt lat="39.4076833" lon="8.414835"><ele>293.0</ele><time>2026-05-01T10:37:40.757Z</time></trkpt><trkpt lat="39.4077233" lon="8.4149867"><ele>293.0</ele><time>2026-05-01T10:37:41.757Z</time></trkpt><trkpt lat="39.4077733" lon="8.4151433"><ele>300.0</ele><time>2026-05-01T10:37:42.757Z</time></trkpt><trkpt lat="39.4078283" lon="8.415265"><ele>307.0</ele><time>2026-05-01T10:37:43.758Z</time></trkpt><trkpt lat="39.4078683" lon="8.4153683"><ele>314.0</ele><time>2026-05-01T10:37:44.757Z</time></trkpt><trkpt lat="39.407885" lon="8.4154917"><ele>321.0</ele><time>2026-05-01T10:37:45.757Z</time></trkpt><trkpt lat="39.40787" lon="8.4156333"><ele>328.0</ele><time>2026-05-01T10:37:46.757Z</time></trkpt><trkpt lat="39.407855" lon="8.41578"><ele>331.2</ele><time>2026-05-01T10:37:47.756Z</time></trkpt><trkpt lat="39.407835" lon="8.415925"><ele>334.4</ele><time>2026-05-01T10:37:48.757Z</time></trkpt><trkpt lat="39.4078" lon="8.4160233"><ele>337.59999999999997</ele><time>2026-05-01T10:37:49.756Z</time></trkpt><trkpt lat="39.4077433" lon="8.4161117"><ele>340.79999999999995</ele><time>2026-05-01T10:37:50.756Z</time></trkpt><trkpt lat="39.4076967" lon="8.4162167"><ele>344.0</ele><time>2026-05-01T10:37:51.756Z</time></trkpt><trkpt lat="39.4076867" lon="8.4163467"><ele>344.0</ele><time>2026-05-01T10:37:52.757Z</time></trkpt><trkpt lat="39.4076867" lon="8.4164833"><ele>344.0</ele><time>2026-05-01T10:37:53.757Z</time></trkpt><trkpt lat="39.407685" lon="8.41663"><ele>344.0</ele><time>2026-05-01T10:37:54.756Z</time></trkpt><trkpt lat="39.407675" lon="8.4167867"><ele>344.0</ele><time>2026-05-01T10:37:55.756Z</time></trkpt><trkpt lat="39.407665" lon="8.4169417"><ele>344.0</ele><time>2026-05-01T10:37:56.756Z</time></trkpt><trkpt lat="39.407645" lon="8.4170817"><ele>344.0</ele><time>2026-05-01T10:37:57.756Z</time></trkpt><trkpt lat="39.4076367" lon="8.4171933"><ele>344.0</ele><time>2026-05-01T10:37:58.757Z</time></trkpt><trkpt lat="39.4076467" lon="8.4172917"><ele>344.0</ele><time>2026-05-01T10:37:59.756Z</time></trkpt><trkpt lat="39.4076933" lon="8.41737"><ele>344.0</ele><time>2026-05-01T10:38:00.757Z</time></trkpt><trkpt lat="39.4077667" lon="8.4174333"><ele>344.0</ele><time>2026-05-01T10:38:01.756Z</time></trkpt><trkpt lat="39.4078767" lon="8.4174633"><ele>339.5</ele><time>2026-05-01T10:38:02.756Z</time></trkpt><trkpt lat="39.4079967" lon="8.4174767"><ele>335.0</ele><time>2026-05-01T10:38:03.757Z</time></trkpt><trkpt lat="39.408125" lon="8.41751"><ele>330.5</ele><time>2026-05-01T10:38:04.756Z</time></trkpt><trkpt lat="39.4082483" lon="8.4175767"><ele>326.0</ele><time>2026-05-01T10:38:05.756Z</time></trkpt><trkpt lat="39.4083667" lon="8.4176483"><ele>326.0</ele><time>2026-05-01T10:38:06.756Z</time></trkpt><trkpt lat="39.408485" lon="8.417685"><ele>326.0</ele><time>2026-05-01T10:38:07.756Z</time></trkpt><trkpt lat="39.4085967" lon="8.4177"><ele>326.0</ele><time>2026-05-01T10:38:08.756Z</time></trkpt><trkpt lat="39.4086967" lon="8.4177217"><ele>326.0</ele><time>2026-05-01T10:38:09.756Z</time></trkpt><trkpt lat="39.4087967" lon="8.4177633"><ele>326.0</ele><time>2026-05-01T10:38:10.756Z</time></trkpt><trkpt lat="39.40888" lon="8.41783"><ele>324.0</ele><time>2026-05-01T10:38:11.757Z</time></trkpt><trkpt lat="39.4089383" lon="8.4179033"><ele>322.0</ele><time>2026-05-01T10:38:12.756Z</time></trkpt><trkpt lat="39.4089683" lon="8.4179783"><ele>320.0</ele><time>2026-05-01T10:38:13.756Z</time></trkpt><trkpt lat="39.4089717" lon="8.41807"><ele>318.0</ele><time>2026-05-01T10:38:14.756Z</time></trkpt><trkpt lat="39.4089483" lon="8.418165"><ele>316.0</ele><time>2026-05-01T10:38:15.756Z</time></trkpt><trkpt lat="39.4088967" lon="8.418265"><ele>314.0</ele><time>2026-05-01T10:38:16.756Z</time></trkpt><trkpt lat="39.4088367" lon="8.4183767"><ele>323.2</ele><time>2026-05-01T10:38:17.756Z</time></trkpt><trkpt lat="39.408775" lon="8.4184967"><ele>332.4</ele><time>2026-05-01T10:38:18.757Z</time></trkpt><trkpt lat="39.4087117" lon="8.418615"><ele>341.6</ele><time>2026-05-01T10:38:19.756Z</time></trkpt><trkpt lat="39.4086383" lon="8.4187217"><ele>350.8</ele><time>2026-05-01T10:38:20.756Z</time></trkpt><trkpt lat="39.4085733" lon="8.4188333"><ele>360.0</ele><time>2026-05-01T10:38:21.757Z</time></trkpt><trkpt lat="39.4085183" lon="8.41896"><ele>360.0</ele><time>2026-05-01T10:38:22.756Z</time></trkpt><trkpt lat="39.4084917" lon="8.4191017"><ele>360.0</ele><time>2026-05-01T10:38:23.756Z</time></trkpt><trkpt lat="39.408475" lon="8.4192483"><ele>360.0</ele><time>2026-05-01T10:38:24.757Z</time></trkpt><trkpt lat="39.4084617" lon="8.4193933"><ele>360.0</ele><time>2026-05-01T10:38:25.756Z</time></trkpt><trkpt lat="39.4084283" lon="8.41953"><ele>358.8</ele><time>2026-05-01T10:38:26.756Z</time></trkpt><trkpt lat="39.4083833" lon="8.4196683"><ele>357.6</ele><time>2026-05-01T10:38:27.756Z</time></trkpt><trkpt lat="39.4083417" lon="8.4197917"><ele>356.4</ele><time>2026-05-01T10:38:28.756Z</time></trkpt><trkpt lat="39.4083283" lon="8.4199233"><ele>355.2</ele><time>2026-05-01T10:38:29.756Z</time></trkpt><trkpt lat="39.4083333" lon="8.4200467"><ele>354.0</ele><time>2026-05-01T10:38:30.756Z</time></trkpt><trkpt lat="39.4083567" lon="8.4201517"><ele>354.0</ele><time>2026-05-01T10:38:31.756Z</time></trkpt><trkpt lat="39.4083967" lon="8.42024"><ele>354.0</ele><time>2026-05-01T10:38:32.756Z</time></trkpt><trkpt lat="39.4084383" lon="8.42031"><ele>354.0</ele><time>2026-05-01T10:38:33.756Z</time></trkpt><trkpt lat="39.40847" lon="8.4204433"><ele>354.0</ele><time>2026-05-01T10:38:35.757Z</time></trkpt><trkpt lat="39.4084017" lon="8.42055"><ele>354.0</ele><time>2026-05-01T10:38:37.756Z</time></trkpt><trkpt lat="39.4083333" lon="8.4205867"><ele>354.0</ele><time>2026-05-01T10:38:38.756Z</time></trkpt><trkpt lat="39.4082417" lon="8.4206283"><ele>351.0</ele><time>2026-05-01T10:38:39.756Z</time></trkpt><trkpt lat="39.4081533" lon="8.4206867"><ele>348.0</ele><time>2026-05-01T10:38:40.756Z</time></trkpt><trkpt lat="39.4080767" lon="8.4207567"><ele>345.0</ele><time>2026-05-01T10:38:41.757Z</time></trkpt><trkpt lat="39.40799" lon="8.42082"><ele>342.0</ele><time>2026-05-01T10:38:42.757Z</time></trkpt><trkpt lat="39.4078933" lon="8.420875"><ele>339.0</ele><time>2026-05-01T10:38:43.757Z</time></trkpt><trkpt lat="39.4077867" lon="8.420945"><ele>344.75</ele><time>2026-05-01T10:38:44.756Z</time></trkpt><trkpt lat="39.407685" lon="8.4210383"><ele>350.5</ele><time>2026-05-01T10:38:45.757Z</time></trkpt><trkpt lat="39.4075917" lon="8.4211317"><ele>356.25</ele><time>2026-05-01T10:38:46.756Z</time></trkpt><trkpt lat="39.4075117" lon="8.42123"><ele>362.0</ele><time>2026-05-01T10:38:47.756Z</time></trkpt><trkpt lat="39.40745" lon="8.4213367"><ele>362.0</ele><time>2026-05-01T10:38:48.756Z</time></trkpt><trkpt lat="39.40741" lon="8.42145"><ele>362.0</ele><time>2026-05-01T10:38:49.757Z</time></trkpt><trkpt lat="39.4073933" lon="8.4215683"><ele>362.0</ele><time>2026-05-01T10:38:50.757Z</time></trkpt><trkpt lat="39.4073917" lon="8.421715"><ele>362.0</ele><time>2026-05-01T10:38:51.756Z</time></trkpt><trkpt lat="39.407405" lon="8.4218667"><ele>362.0</ele><time>2026-05-01T10:38:52.757Z</time></trkpt><trkpt lat="39.4074117" lon="8.422025"><ele>361.20000000000005</ele><time>2026-05-01T10:38:53.756Z</time></trkpt><trkpt lat="39.40743" lon="8.4221767"><ele>360.4</ele><time>2026-05-01T10:38:54.757Z</time></trkpt><trkpt lat="39.40744" lon="8.4223033"><ele>359.6</ele><time>2026-05-01T10:38:55.756Z</time></trkpt><trkpt lat="39.4074417" lon="8.4224083"><ele>358.79999999999995</ele><time>2026-05-01T10:38:56.757Z</time></trkpt><trkpt lat="39.4074217" lon="8.4225117"><ele>358.0</ele><time>2026-05-01T10:38:57.756Z</time></trkpt><trkpt lat="39.4073667" lon="8.4225917"><ele>358.0</ele><time>2026-05-01T10:38:58.756Z</time></trkpt><trkpt lat="39.407305" lon="8.4226817"><ele>358.0</ele><time>2026-05-01T10:38:59.756Z</time></trkpt><trkpt lat="39.40724" lon="8.4227933"><ele>358.0</ele><time>2026-05-01T10:39:00.756Z</time></trkpt><trkpt lat="39.4071717" lon="8.4229183"><ele>358.0</ele><time>2026-05-01T10:39:01.756Z</time></trkpt><trkpt lat="39.4071017" lon="8.42305"><ele>358.0</ele><time>2026-05-01T10:39:02.757Z</time></trkpt><trkpt lat="39.4070267" lon="8.4231933"><ele>363.79999999999995</ele><time>2026-05-01T10:39:03.756Z</time></trkpt><trkpt lat="39.4069767" lon="8.423335"><ele>369.6</ele><time>2026-05-01T10:39:04.756Z</time></trkpt><trkpt lat="39.4069383" lon="8.423435"><ele>375.4</ele><time>2026-05-01T10:39:05.756Z</time></trkpt><trkpt lat="39.4068517" lon="8.4235117"><ele>381.20000000000005</ele><time>2026-05-01T10:39:07.756Z</time></trkpt><trkpt lat="39.4067283" lon="8.42348"><ele>387.0</ele><time>2026-05-01T10:39:09.756Z</time></trkpt><trkpt lat="39.4066383" lon="8.4234433"><ele>387.0</ele><time>2026-05-01T10:39:10.756Z</time></trkpt><trkpt lat="39.4065317" lon="8.4234117"><ele>387.0</ele><time>2026-05-01T10:39:11.756Z</time></trkpt><trkpt lat="39.406415" lon="8.4234"><ele>387.0</ele><time>2026-05-01T10:39:12.756Z</time></trkpt><trkpt lat="39.4063017" lon="8.4233983"><ele>387.0</ele><time>2026-05-01T10:39:13.756Z</time></trkpt><trkpt lat="39.40619" lon="8.42341"><ele>390.25</ele><time>2026-05-01T10:39:14.756Z</time></trkpt><trkpt lat="39.4060733" lon="8.4234483"><ele>393.5</ele><time>2026-05-01T10:39:15.756Z</time></trkpt><trkpt lat="39.40595" lon="8.4234967"><ele>396.75</ele><time>2026-05-01T10:39:16.756Z</time></trkpt><trkpt lat="39.405815" lon="8.4235733"><ele>400.0</ele><time>2026-05-01T10:39:17.756Z</time></trkpt><trkpt lat="39.40568" lon="8.4236633"><ele>400.0</ele><time>2026-05-01T10:39:18.756Z</time></trkpt><trkpt lat="39.40556" lon="8.42375"><ele>400.0</ele><time>2026-05-01T10:39:19.756Z</time></trkpt><trkpt lat="39.4054467" lon="8.4238217"><ele>400.0</ele><time>2026-05-01T10:39:20.756Z</time></trkpt><trkpt lat="39.4053533" lon="8.4238517"><ele>400.0</ele><time>2026-05-01T10:39:21.756Z</time></trkpt><trkpt lat="39.405275" lon="8.423905"><ele>400.0</ele><time>2026-05-01T10:39:22.756Z</time></trkpt><trkpt lat="39.40521" lon="8.42399"><ele>400.2</ele><time>2026-05-01T10:39:23.756Z</time></trkpt><trkpt lat="39.4051583" lon="8.4241033"><ele>400.4</ele><time>2026-05-01T10:39:24.756Z</time></trkpt><trkpt lat="39.4051333" lon="8.424225"><ele>400.6</ele><time>2026-05-01T10:39:25.756Z</time></trkpt><trkpt lat="39.405125" lon="8.424345"><ele>400.8</ele><time>2026-05-01T10:39:26.756Z</time></trkpt><trkpt lat="39.40512" lon="8.424495"><ele>401.0</ele><time>2026-05-01T10:39:27.756Z</time></trkpt><trkpt lat="39.4051" lon="8.4246367"><ele>401.5</ele><time>2026-05-01T10:39:28.756Z</time></trkpt><trkpt lat="39.405055" lon="8.4247933"><ele>402.0</ele><time>2026-05-01T10:39:29.756Z</time></trkpt><trkpt lat="39.405" lon="8.4249433"><ele>402.5</ele><time>2026-05-01T10:39:30.756Z</time></trkpt><trkpt lat="39.40493" lon="8.4250883"><ele>403.0</ele><time>2026-05-01T10:39:31.757Z</time></trkpt><trkpt lat="39.4048433" lon="8.4252417"><ele>403.0</ele><time>2026-05-01T10:39:32.757Z</time></trkpt><trkpt lat="39.4047533" lon="8.4253967"><ele>403.0</ele><time>2026-05-01T10:39:33.756Z</time></trkpt><trkpt lat="39.4046717" lon="8.425555"><ele>403.0</ele><time>2026-05-01T10:39:34.756Z</time></trkpt><trkpt lat="39.4045933" lon="8.4257017"><ele>403.0</ele><time>2026-05-01T10:39:35.756Z</time></trkpt><trkpt lat="39.4045017" lon="8.4258333"><ele>405.25</ele><time>2026-05-01T10:39:36.756Z</time></trkpt><trkpt lat="39.4044" lon="8.4259633"><ele>407.5</ele><time>2026-05-01T10:39:37.757Z</time></trkpt><trkpt lat="39.404295" lon="8.4260817"><ele>409.75</ele><time>2026-05-01T10:39:38.756Z</time></trkpt><trkpt lat="39.4042017" lon="8.4261767"><ele>412.0</ele><time>2026-05-01T10:39:39.757Z</time></trkpt><trkpt lat="39.40414" lon="8.4262683"><ele>411.6666666666667</ele><time>2026-05-01T10:39:40.756Z</time></trkpt><trkpt lat="39.4041067" lon="8.426365"><ele>411.33333333333337</ele><time>2026-05-01T10:39:41.756Z</time></trkpt><trkpt lat="39.404095" lon="8.42646"><ele>411.0</ele><time>2026-05-01T10:39:42.757Z</time></trkpt><trkpt lat="39.4041117" lon="8.4265483"><ele>410.66666666666663</ele><time>2026-05-01T10:39:43.757Z</time></trkpt><trkpt lat="39.4041583" lon="8.4266317"><ele>410.3333333333333</ele><time>2026-05-01T10:39:44.756Z</time></trkpt><trkpt lat="39.4042333" lon="8.42671"><ele>410.0</ele><time>2026-05-01T10:39:45.756Z</time></trkpt><trkpt lat="39.4042933" lon="8.426785"><ele>409.99999999999994</ele><time>2026-05-01T10:39:46.757Z</time></trkpt><trkpt lat="39.4043183" lon="8.4268783"><ele>410.0</ele><time>2026-05-01T10:39:47.756Z</time></trkpt><trkpt lat="39.4043233" lon="8.42699"><ele>410.0</ele><time>2026-05-01T10:39:48.756Z</time></trkpt><trkpt lat="39.4043317" lon="8.4271033"><ele>410.0</ele><time>2026-05-01T10:39:49.756Z</time></trkpt><trkpt lat="39.4043483" lon="8.4272233"><ele>409.99999999999994</ele><time>2026-05-01T10:39:50.756Z</time></trkpt><trkpt lat="39.4043667" lon="8.4273417"><ele>410.0</ele><time>2026-05-01T10:39:51.756Z</time></trkpt><trkpt lat="39.4043917" lon="8.4274533"><ele>412.4</ele><time>2026-05-01T10:39:52.756Z</time></trkpt><trkpt lat="39.4044183" lon="8.4275683"><ele>414.8</ele><time>2026-05-01T10:39:53.756Z</time></trkpt><trkpt lat="39.4044467" lon="8.42768"><ele>417.20000000000005</ele><time>2026-05-01T10:39:54.757Z</time></trkpt><trkpt lat="39.4044717" lon="8.4277983"><ele>419.6</ele><time>2026-05-01T10:39:55.756Z</time></trkpt><trkpt lat="39.40449" lon="8.4279133"><ele>422.0</ele><time>2026-05-01T10:39:56.756Z</time></trkpt><trkpt lat="39.4045033" lon="8.4280367"><ele>426.40000000000003</ele><time>2026-05-01T10:39:57.757Z</time></trkpt><trkpt lat="39.404525" lon="8.4281733"><ele>430.8</ele><time>2026-05-01T10:39:58.757Z</time></trkpt><trkpt lat="39.4045433" lon="8.428305"><ele>435.2</ele><time>2026-05-01T10:39:59.756Z</time></trkpt><trkpt lat="39.404565" lon="8.4284367"><ele>439.6</ele><time>2026-05-01T10:40:00.756Z</time></trkpt><trkpt lat="39.4045817" lon="8.4285717"><ele>444.0</ele><time>2026-05-01T10:40:01.756Z</time></trkpt><trkpt lat="39.4046067" lon="8.42872"><ele>444.4</ele><time>2026-05-01T10:40:02.756Z</time></trkpt><trkpt lat="39.4046317" lon="8.4288717"><ele>444.79999999999995</ele><time>2026-05-01T10:40:03.756Z</time></trkpt><trkpt lat="39.404645" lon="8.429005"><ele>445.20000000000005</ele><time>2026-05-01T10:40:04.756Z</time></trkpt><trkpt lat="39.40466" lon="8.4291267"><ele>445.6</ele><time>2026-05-01T10:40:05.756Z</time></trkpt><trkpt lat="39.4046867" lon="8.4292417"><ele>446.0</ele><time>2026-05-01T10:40:06.756Z</time></trkpt><trkpt lat="39.404725" lon="8.4293533"><ele>446.0</ele><time>2026-05-01T10:40:07.756Z</time></trkpt><trkpt lat="39.404765" lon="8.4294767"><ele>446.0</ele><time>2026-05-01T10:40:08.756Z</time></trkpt><trkpt lat="39.4048183" lon="8.4296017"><ele>446.0</ele><time>2026-05-01T10:40:09.756Z</time></trkpt><trkpt lat="39.4048767" lon="8.4297433"><ele>446.0</ele><time>2026-05-01T10:40:10.756Z</time></trkpt><trkpt lat="39.4049317" lon="8.4298917"><ele>448.25</ele><time>2026-05-01T10:40:11.756Z</time></trkpt><trkpt lat="39.4049917" lon="8.4300367"><ele>450.5</ele><time>2026-05-01T10:40:12.756Z</time></trkpt><trkpt lat="39.4050583" lon="8.4301833"><ele>452.75</ele><time>2026-05-01T10:40:13.756Z</time></trkpt><trkpt lat="39.4051233" lon="8.4303117"><ele>455.0</ele><time>2026-05-01T10:40:14.756Z</time></trkpt><trkpt lat="39.405185" lon="8.4304333"><ele>456.5</ele><time>2026-05-01T10:40:15.756Z</time></trkpt><trkpt lat="39.4052383" lon="8.43056"><ele>458.0</ele><time>2026-05-01T10:40:16.756Z</time></trkpt><trkpt lat="39.4052833" lon="8.4306967"><ele>459.5</ele><time>2026-05-01T10:40:17.756Z</time></trkpt><trkpt lat="39.405325" lon="8.4308433"><ele>461.0</ele><time>2026-05-01T10:40:18.757Z</time></trkpt><trkpt lat="39.405375" lon="8.4309983"><ele>461.0</ele><time>2026-05-01T10:40:19.756Z</time></trkpt><trkpt lat="39.4054333" lon="8.4311617"><ele>461.0</ele><time>2026-05-01T10:40:20.757Z</time></trkpt><trkpt lat="39.4054833" lon="8.4312817"><ele>461.0</ele><time>2026-05-01T10:40:21.757Z</time></trkpt><trkpt lat="39.4055233" lon="8.43138"><ele>461.0</ele><time>2026-05-01T10:40:22.756Z</time></trkpt><trkpt lat="39.40553" lon="8.431465"><ele>461.0</ele><time>2026-05-01T10:40:23.756Z</time></trkpt><trkpt lat="39.405485" lon="8.431625"><ele>462.25</ele><time>2026-05-01T10:40:25.756Z</time></trkpt><trkpt lat="39.4054183" lon="8.4317083"><ele>463.5</ele><time>2026-05-01T10:40:26.756Z</time></trkpt><trkpt lat="39.405335" lon="8.431805"><ele>464.75</ele><time>2026-05-01T10:40:27.757Z</time></trkpt><trkpt lat="39.4052483" lon="8.4319133"><ele>466.0</ele><time>2026-05-01T10:40:28.756Z</time></trkpt><trkpt lat="39.4051583" lon="8.4320417"><ele>468.0</ele><time>2026-05-01T10:40:29.756Z</time></trkpt><trkpt lat="39.405065" lon="8.43215"><ele>470.0</ele><time>2026-05-01T10:40:30.756Z</time></trkpt><trkpt lat="39.404985" lon="8.43225"><ele>472.0</ele><time>2026-05-01T10:40:31.756Z</time></trkpt><trkpt lat="39.404915" lon="8.4323483"><ele>474.0</ele><time>2026-05-01T10:40:32.756Z</time></trkpt><trkpt lat="39.4048583" lon="8.43245"><ele>476.0</ele><time>2026-05-01T10:40:33.756Z</time></trkpt><trkpt lat="39.4048183" lon="8.4325567"><ele>476.0</ele><time>2026-05-01T10:40:34.756Z</time></trkpt><trkpt lat="39.4047817" lon="8.4326767"><ele>476.0</ele><time>2026-05-01T10:40:35.757Z</time></trkpt><trkpt lat="39.4047417" lon="8.4327833"><ele>476.0</ele><time>2026-05-01T10:40:36.756Z</time></trkpt><trkpt lat="39.40468" lon="8.4328633"><ele>476.0</ele><time>2026-05-01T10:40:37.756Z</time></trkpt><trkpt lat="39.4046033" lon="8.43293"><ele>476.0</ele><time>2026-05-01T10:40:38.755Z</time></trkpt><trkpt lat="39.404505" lon="8.43297"><ele>479.0</ele><time>2026-05-01T10:40:39.755Z</time></trkpt><trkpt lat="39.404395" lon="8.4329983"><ele>482.0</ele><time>2026-05-01T10:40:40.756Z</time></trkpt><trkpt lat="39.4042833" lon="8.4330183"><ele>485.0</ele><time>2026-05-01T10:40:41.756Z</time></trkpt><trkpt lat="39.404165" lon="8.4330433"><ele>488.0</ele><time>2026-05-01T10:40:42.756Z</time></trkpt><trkpt lat="39.404035" lon="8.4330917"><ele>488.0</ele><time>2026-05-01T10:40:43.755Z</time></trkpt><trkpt lat="39.4039083" lon="8.4331417"><ele>488.0</ele><time>2026-05-01T10:40:44.756Z</time></trkpt><trkpt lat="39.403795" lon="8.4331883"><ele>488.0</ele><time>2026-05-01T10:40:45.755Z</time></trkpt><trkpt lat="39.4036833" lon="8.4332283"><ele>488.0</ele><time>2026-05-01T10:40:46.756Z</time></trkpt><trkpt lat="39.403585" lon="8.4332767"><ele>489.75</ele><time>2026-05-01T10:40:47.755Z</time></trkpt><trkpt lat="39.4034917" lon="8.43333"><ele>491.5</ele><time>2026-05-01T10:40:48.755Z</time></trkpt><trkpt lat="39.40339" lon="8.4333967"><ele>493.25</ele><time>2026-05-01T10:40:49.755Z</time></trkpt><trkpt lat="39.4032817" lon="8.4334633"><ele>495.0</ele><time>2026-05-01T10:40:50.756Z</time></trkpt><trkpt lat="39.4031683" lon="8.4335317"><ele>495.0</ele><time>2026-05-01T10:40:51.755Z</time></trkpt><trkpt lat="39.40305" lon="8.4335967"><ele>495.0</ele><time>2026-05-01T10:40:52.755Z</time></trkpt><trkpt lat="39.402935" lon="8.43365"><ele>495.0</ele><time>2026-05-01T10:40:53.755Z</time></trkpt><trkpt lat="39.4028083" lon="8.4336867"><ele>495.0</ele><time>2026-05-01T10:40:54.755Z</time></trkpt><trkpt lat="39.4026817" lon="8.4337083"><ele>497.0</ele><time>2026-05-01T10:40:55.756Z</time></trkpt><trkpt lat="39.40255" lon="8.433735"><ele>499.0</ele><time>2026-05-01T10:40:56.755Z</time></trkpt><trkpt lat="39.4024167" lon="8.4337617"><ele>501.0</ele><time>2026-05-01T10:40:57.755Z</time></trkpt><trkpt lat="39.402295" lon="8.4337883"><ele>503.0</ele><time>2026-05-01T10:40:58.755Z</time></trkpt><trkpt lat="39.4022033" lon="8.4338083"><ele>503.8333333333333</ele><time>2026-05-01T10:40:59.755Z</time></trkpt><trkpt lat="39.4021367" lon="8.4338517"><ele>504.66666666666663</ele><time>2026-05-01T10:41:00.755Z</time></trkpt><trkpt lat="39.4020967" lon="8.4339233"><ele>505.5</ele><time>2026-05-01T10:41:01.755Z</time></trkpt><trkpt lat="39.4020817" lon="8.4340117"><ele>506.33333333333337</ele><time>2026-05-01T10:41:02.755Z</time></trkpt><trkpt lat="39.4020867" lon="8.43412"><ele>507.1666666666667</ele><time>2026-05-01T10:41:03.756Z</time></trkpt><trkpt lat="39.4021133" lon="8.4342383"><ele>508.0</ele><time>2026-05-01T10:41:04.755Z</time></trkpt><trkpt lat="39.4021617" lon="8.434365"><ele>507.59999999999997</ele><time>2026-05-01T10:41:05.755Z</time></trkpt><trkpt lat="39.40223" lon="8.4345033"><ele>507.19999999999993</ele><time>2026-05-01T10:41:06.755Z</time></trkpt><trkpt lat="39.40229" lon="8.4346283"><ele>506.8</ele><time>2026-05-01T10:41:07.756Z</time></trkpt><trkpt lat="39.4023383" lon="8.43474"><ele>506.4</ele><time>2026-05-01T10:41:08.755Z</time></trkpt><trkpt lat="39.4023783" lon="8.4348467"><ele>506.0</ele><time>2026-05-01T10:41:09.755Z</time></trkpt><trkpt lat="39.4024033" lon="8.4349583"><ele>504.6</ele><time>2026-05-01T10:41:10.756Z</time></trkpt><trkpt lat="39.4024183" lon="8.4350883"><ele>503.20000000000005</ele><time>2026-05-01T10:41:11.755Z</time></trkpt><trkpt lat="39.402445" lon="8.4351983"><ele>501.79999999999995</ele><time>2026-05-01T10:41:12.756Z</time></trkpt><trkpt lat="39.4024933" lon="8.4353033"><ele>500.4</ele><time>2026-05-01T10:41:13.756Z</time></trkpt><trkpt lat="39.4025633" lon="8.4354083"><ele>499.0</ele><time>2026-05-01T10:41:14.756Z</time></trkpt><trkpt lat="39.4026567" lon="8.4355"><ele>494.25</ele><time>2026-05-01T10:41:15.756Z</time></trkpt><trkpt lat="39.4027483" lon="8.4356067"><ele>489.5</ele><time>2026-05-01T10:41:16.756Z</time></trkpt><trkpt lat="39.4028217" lon="8.4357167"><ele>484.75</ele><time>2026-05-01T10:41:17.756Z</time></trkpt><trkpt lat="39.4028917" lon="8.4358317"><ele>480.0</ele><time>2026-05-01T10:41:18.755Z</time></trkpt><trkpt lat="39.40295" lon="8.4359467"><ele>480.0</ele><time>2026-05-01T10:41:19.755Z</time></trkpt><trkpt lat="39.4030117" lon="8.43608"><ele>480.0</ele><time>2026-05-01T10:41:20.755Z</time></trkpt><trkpt lat="39.4030783" lon="8.4362133"><ele>480.0</ele><time>2026-05-01T10:41:21.756Z</time></trkpt><trkpt lat="39.4031533" lon="8.4363367"><ele>480.0</ele><time>2026-05-01T10:41:22.755Z</time></trkpt><trkpt lat="39.4032267" lon="8.4364517"><ele>480.0</ele><time>2026-05-01T10:41:23.756Z</time></trkpt><trkpt lat="39.4033083" lon="8.4365533"><ele>480.0</ele><time>2026-05-01T10:41:24.755Z</time></trkpt><trkpt lat="39.4033967" lon="8.436655"><ele>480.0</ele><time>2026-05-01T10:41:25.755Z</time></trkpt><trkpt lat="39.4035" lon="8.436765"><ele>480.0</ele><time>2026-05-01T10:41:26.755Z</time></trkpt><trkpt lat="39.4036017" lon="8.4368733"><ele>480.0</ele><time>2026-05-01T10:41:27.755Z</time></trkpt><trkpt lat="39.40369" lon="8.4369533"><ele>480.0</ele><time>2026-05-01T10:41:28.755Z</time></trkpt><trkpt lat="39.4037717" lon="8.4370083"><ele>480.0</ele><time>2026-05-01T10:41:29.756Z</time></trkpt><trkpt lat="39.4038383" lon="8.437045"><ele>480.0</ele><time>2026-05-01T10:41:30.755Z</time></trkpt><trkpt lat="39.4038817" lon="8.437115"><ele>480.0</ele><time>2026-05-01T10:41:31.755Z</time></trkpt><trkpt lat="39.4039317" lon="8.4372233"><ele>480.0</ele><time>2026-05-01T10:41:32.755Z</time></trkpt><trkpt lat="39.4039767" lon="8.4373567"><ele>479.5</ele><time>2026-05-01T10:41:33.756Z</time></trkpt><trkpt lat="39.40402" lon="8.4375"><ele>479.0</ele><time>2026-05-01T10:41:34.755Z</time></trkpt><trkpt lat="39.40406" lon="8.4376417"><ele>478.5</ele><time>2026-05-01T10:41:35.755Z</time></trkpt><trkpt lat="39.4040983" lon="8.43779"><ele>478.0</ele><time>2026-05-01T10:41:36.756Z</time></trkpt><trkpt lat="39.4041367" lon="8.4379083"><ele>476.2</ele><time>2026-05-01T10:41:37.755Z</time></trkpt><trkpt lat="39.404195" lon="8.4380183"><ele>474.4</ele><time>2026-05-01T10:41:38.756Z</time></trkpt><trkpt lat="39.4042633" lon="8.4381217"><ele>472.59999999999997</ele><time>2026-05-01T10:41:39.755Z</time></trkpt><trkpt lat="39.4043117" lon="8.4382233"><ele>470.79999999999995</ele><time>2026-05-01T10:41:40.755Z</time></trkpt><trkpt lat="39.404345" lon="8.4383267"><ele>469.0</ele><time>2026-05-01T10:41:41.755Z</time></trkpt><trkpt lat="39.4043583" lon="8.4384567"><ele>469.0</ele><time>2026-05-01T10:41:42.755Z</time></trkpt><trkpt lat="39.40436" lon="8.4386183"><ele>469.0</ele><time>2026-05-01T10:41:43.755Z</time></trkpt><trkpt lat="39.404355" lon="8.4388"><ele>469.0</ele><time>2026-05-01T10:41:44.755Z</time></trkpt><trkpt lat="39.4043383" lon="8.4389867"><ele>469.0</ele><time>2026-05-01T10:41:45.755Z</time></trkpt><trkpt lat="39.4043217" lon="8.4391517"><ele>468.6</ele><time>2026-05-01T10:41:46.756Z</time></trkpt><trkpt lat="39.4043133" lon="8.4392833"><ele>468.2</ele><time>2026-05-01T10:41:47.756Z</time></trkpt><trkpt lat="39.40431" lon="8.43942"><ele>467.80000000000007</ele><time>2026-05-01T10:41:48.755Z</time></trkpt><trkpt lat="39.4043183" lon="8.43956"><ele>467.40000000000003</ele><time>2026-05-01T10:41:49.756Z</time></trkpt><trkpt lat="39.40433" lon="8.4396783"><ele>467.0</ele><time>2026-05-01T10:41:50.755Z</time></trkpt><trkpt lat="39.40432" lon="8.4397783"><ele>468.40000000000003</ele><time>2026-05-01T10:41:51.756Z</time></trkpt><trkpt lat="39.4043" lon="8.4398567"><ele>469.80000000000007</ele><time>2026-05-01T10:41:52.755Z</time></trkpt><trkpt lat="39.40422" lon="8.4399633"><ele>471.2</ele><time>2026-05-01T10:41:54.756Z</time></trkpt><trkpt lat="39.40412" lon="8.4399717"><ele>472.6</ele><time>2026-05-01T10:41:56.755Z</time></trkpt><trkpt lat="39.4040483" lon="8.4399333"><ele>474.0</ele><time>2026-05-01T10:41:57.755Z</time></trkpt><trkpt lat="39.4039467" lon="8.4398817"><ele>472.5</ele><time>2026-05-01T10:41:58.756Z</time></trkpt><trkpt lat="39.4038217" lon="8.4398067"><ele>471.0</ele><time>2026-05-01T10:41:59.755Z</time></trkpt><trkpt lat="39.4036967" lon="8.4397233"><ele>469.5</ele><time>2026-05-01T10:42:00.756Z</time></trkpt><trkpt lat="39.4035817" lon="8.439645"><ele>468.0</ele><time>2026-05-01T10:42:01.755Z</time></trkpt><trkpt lat="39.4034933" lon="8.43961"><ele>468.0</ele><time>2026-05-01T10:42:02.755Z</time></trkpt><trkpt lat="39.4034083" lon="8.439585"><ele>468.0</ele><time>2026-05-01T10:42:03.755Z</time></trkpt><trkpt lat="39.4033267" lon="8.4395767"><ele>468.0</ele><time>2026-05-01T10:42:04.756Z</time></trkpt><trkpt lat="39.40326" lon="8.4395967"><ele>468.0</ele><time>2026-05-01T10:42:05.755Z</time></trkpt><trkpt lat="39.4032067" lon="8.439665"><ele>468.0</ele><time>2026-05-01T10:42:06.756Z</time></trkpt><trkpt lat="39.4031567" lon="8.4397733"><ele>468.0</ele><time>2026-05-01T10:42:07.755Z</time></trkpt><trkpt lat="39.40311" lon="8.439905"><ele>470.59999999999997</ele><time>2026-05-01T10:42:08.756Z</time></trkpt><trkpt lat="39.4030683" lon="8.4400483"><ele>473.19999999999993</ele><time>2026-05-01T10:42:09.755Z</time></trkpt><trkpt lat="39.403015" lon="8.4401783"><ele>475.8</ele><time>2026-05-01T10:42:10.755Z</time></trkpt><trkpt lat="39.40295" lon="8.440295"><ele>478.4</ele><time>2026-05-01T10:42:11.755Z</time></trkpt><trkpt lat="39.40289" lon="8.4404083"><ele>481.0</ele><time>2026-05-01T10:42:12.755Z</time></trkpt><trkpt lat="39.4028433" lon="8.4405267"><ele>483.6</ele><time>2026-05-01T10:42:13.755Z</time></trkpt><trkpt lat="39.402815" lon="8.4406667"><ele>486.20000000000005</ele><time>2026-05-01T10:42:14.755Z</time></trkpt><trkpt lat="39.4027883" lon="8.4408"><ele>488.79999999999995</ele><time>2026-05-01T10:42:15.755Z</time></trkpt><trkpt lat="39.4027617" lon="8.4409"><ele>491.4</ele><time>2026-05-01T10:42:16.756Z</time></trkpt><trkpt lat="39.40273" lon="8.4410017"><ele>494.0</ele><time>2026-05-01T10:42:17.755Z</time></trkpt><trkpt lat="39.4026967" lon="8.4411017"><ele>494.0</ele><time>2026-05-01T10:42:18.755Z</time></trkpt><trkpt lat="39.4026617" lon="8.4412033"><ele>494.0</ele><time>2026-05-01T10:42:19.756Z</time></trkpt><trkpt lat="39.4026283" lon="8.4413267"><ele>494.0</ele><time>2026-05-01T10:42:20.756Z</time></trkpt><trkpt lat="39.4026033" lon="8.44146"><ele>494.0</ele><time>2026-05-01T10:42:21.756Z</time></trkpt><trkpt lat="39.40258" lon="8.4416017"><ele>494.0</ele><time>2026-05-01T10:42:22.755Z</time></trkpt><trkpt lat="39.4025617" lon="8.4417267"><ele>494.4</ele><time>2026-05-01T10:42:23.755Z</time></trkpt><trkpt lat="39.40254" lon="8.44186"><ele>494.79999999999995</ele><time>2026-05-01T10:42:24.756Z</time></trkpt><trkpt lat="39.4025183" lon="8.4419967"><ele>495.20000000000005</ele><time>2026-05-01T10:42:25.755Z</time></trkpt><trkpt lat="39.4025" lon="8.4421133"><ele>495.6</ele><time>2026-05-01T10:42:26.756Z</time></trkpt><trkpt lat="39.402465" lon="8.4422067"><ele>496.0</ele><time>2026-05-01T10:42:27.755Z</time></trkpt><trkpt lat="39.4024117" lon="8.44229"><ele>497.50000000000006</ele><time>2026-05-01T10:42:28.756Z</time></trkpt><trkpt lat="39.4023533" lon="8.442345"><ele>499.0</ele><time>2026-05-01T10:42:29.755Z</time></trkpt><trkpt lat="39.4022883" lon="8.4423667"><ele>500.5</ele><time>2026-05-01T10:42:30.755Z</time></trkpt><trkpt lat="39.4022217" lon="8.44235"><ele>502.0</ele><time>2026-05-01T10:42:31.755Z</time></trkpt><trkpt lat="39.4021433" lon="8.4423"><ele>503.50000000000006</ele><time>2026-05-01T10:42:32.755Z</time></trkpt><trkpt lat="39.402055" lon="8.442225"><ele>505.0</ele><time>2026-05-01T10:42:33.755Z</time></trkpt><trkpt lat="39.4019617" lon="8.4421617"><ele>504.8</ele><time>2026-05-01T10:42:34.755Z</time></trkpt><trkpt lat="39.4018717" lon="8.4421017"><ele>504.6</ele><time>2026-05-01T10:42:35.755Z</time></trkpt><trkpt lat="39.40178" lon="8.4420533"><ele>504.4</ele><time>2026-05-01T10:42:36.756Z</time></trkpt><trkpt lat="39.40168" lon="8.4420183"><ele>504.2</ele><time>2026-05-01T10:42:37.756Z</time></trkpt><trkpt lat="39.40159" lon="8.4419933"><ele>504.0</ele><time>2026-05-01T10:42:38.755Z</time></trkpt><trkpt lat="39.4014933" lon="8.4419783"><ele>504.0</ele><time>2026-05-01T10:42:39.755Z</time></trkpt><trkpt lat="39.4014017" lon="8.4419783"><ele>504.0</ele><time>2026-05-01T10:42:40.755Z</time></trkpt><trkpt lat="39.4013217" lon="8.4419983"><ele>504.0</ele><time>2026-05-01T10:42:41.755Z</time></trkpt><trkpt lat="39.4012417" lon="8.4420317"><ele>504.0</ele><time>2026-05-01T10:42:42.756Z</time></trkpt><trkpt lat="39.4011517" lon="8.4420783"><ele>504.0</ele><time>2026-05-01T10:42:43.755Z</time></trkpt><trkpt lat="39.4010533" lon="8.4421333"><ele>505.6</ele><time>2026-05-01T10:42:44.756Z</time></trkpt><trkpt lat="39.4009517" lon="8.4422017"><ele>507.2</ele><time>2026-05-01T10:42:45.755Z</time></trkpt><trkpt lat="39.40085" lon="8.4422617"><ele>508.80000000000007</ele><time>2026-05-01T10:42:46.755Z</time></trkpt><trkpt lat="39.4007567" lon="8.4422983"><ele>510.40000000000003</ele><time>2026-05-01T10:42:47.755Z</time></trkpt><trkpt lat="39.4006567" lon="8.4423167"><ele>512.0</ele><time>2026-05-01T10:42:48.755Z</time></trkpt><trkpt lat="39.40054" lon="8.44234"><ele>510.75</ele><time>2026-05-01T10:42:49.755Z</time></trkpt><trkpt lat="39.4004117" lon="8.4423717"><ele>509.5</ele><time>2026-05-01T10:42:50.755Z</time></trkpt><trkpt lat="39.4002833" lon="8.442405"><ele>508.25</ele><time>2026-05-01T10:42:51.756Z</time></trkpt><trkpt lat="39.4001583" lon="8.442425"><ele>507.0</ele><time>2026-05-01T10:42:52.755Z</time></trkpt><trkpt lat="39.4000433" lon="8.4424483"><ele>507.0</ele><time>2026-05-01T10:42:53.755Z</time></trkpt><trkpt lat="39.3999317" lon="8.442485"><ele>507.0</ele><time>2026-05-01T10:42:54.755Z</time></trkpt><trkpt lat="39.3998117" lon="8.4425283"><ele>507.0</ele><time>2026-05-01T10:42:55.755Z</time></trkpt><trkpt lat="39.399685" lon="8.4425633"><ele>507.0</ele><time>2026-05-01T10:42:56.755Z</time></trkpt><trkpt lat="39.3995567" lon="8.4426033"><ele>506.0</ele><time>2026-05-01T10:42:57.756Z</time></trkpt><trkpt lat="39.3994467" lon="8.4426433"><ele>505.0</ele><time>2026-05-01T10:42:58.755Z</time></trkpt><trkpt lat="39.3993417" lon="8.4426983"><ele>504.0</ele><time>2026-05-01T10:42:59.755Z</time></trkpt><trkpt lat="39.3992283" lon="8.44275"><ele>503.0</ele><time>2026-05-01T10:43:00.756Z</time></trkpt><trkpt lat="39.3991183" lon="8.44281"><ele>503.0</ele><time>2026-05-01T10:43:01.755Z</time></trkpt><trkpt lat="39.399005" lon="8.4428633"><ele>502.99999999999994</ele><time>2026-05-01T10:43:02.755Z</time></trkpt><trkpt lat="39.398895" lon="8.4429133"><ele>502.99999999999994</ele><time>2026-05-01T10:43:03.755Z</time></trkpt><trkpt lat="39.3987967" lon="8.44295"><ele>503.0</ele><time>2026-05-01T10:43:04.755Z</time></trkpt><trkpt lat="39.3987017" lon="8.4429717"><ele>503.0</ele><time>2026-05-01T10:43:05.755Z</time></trkpt><trkpt lat="39.3985967" lon="8.4429883"><ele>508.75</ele><time>2026-05-01T10:43:06.755Z</time></trkpt><trkpt lat="39.39848" lon="8.4429917"><ele>514.5</ele><time>2026-05-01T10:43:07.755Z</time></trkpt><trkpt lat="39.3983667" lon="8.44301"><ele>520.25</ele><time>2026-05-01T10:43:08.756Z</time></trkpt><trkpt lat="39.3982517" lon="8.4430383"><ele>526.0</ele><time>2026-05-01T10:43:09.756Z</time></trkpt><trkpt lat="39.3981267" lon="8.4430767"><ele>525.0</ele><time>2026-05-01T10:43:10.755Z</time></trkpt><trkpt lat="39.398" lon="8.4431267"><ele>524.0</ele><time>2026-05-01T10:43:11.756Z</time></trkpt><trkpt lat="39.3978617" lon="8.4431767"><ele>523.0</ele><time>2026-05-01T10:43:12.755Z</time></trkpt><trkpt lat="39.3977217" lon="8.443215"><ele>522.0</ele><time>2026-05-01T10:43:13.755Z</time></trkpt><trkpt lat="39.39758" lon="8.4432483"><ele>522.0</ele><time>2026-05-01T10:43:14.755Z</time></trkpt><trkpt lat="39.3974417" lon="8.4432833"><ele>522.0</ele><time>2026-05-01T10:43:15.756Z</time></trkpt><trkpt lat="39.397305" lon="8.4433167"><ele>522.0</ele><time>2026-05-01T10:43:16.755Z</time></trkpt><trkpt lat="39.3971867" lon="8.4433433"><ele>522.0</ele><time>2026-05-01T10:43:17.755Z</time></trkpt><trkpt lat="39.3970917" lon="8.443365"><ele>521.6</ele><time>2026-05-01T10:43:18.756Z</time></trkpt><trkpt lat="39.397005" lon="8.44339"><ele>521.2</ele><time>2026-05-01T10:43:19.756Z</time></trkpt><trkpt lat="39.39692" lon="8.4434483"><ele>520.8</ele><time>2026-05-01T10:43:20.754Z</time></trkpt><trkpt lat="39.3968383" lon="8.4435217"><ele>520.4</ele><time>2026-05-01T10:43:21.754Z</time></trkpt><trkpt lat="39.3967617" lon="8.4435867"><ele>520.0</ele><time>2026-05-01T10:43:22.754Z</time></trkpt><trkpt lat="39.39668" lon="8.443645"><ele>520.0</ele><time>2026-05-01T10:43:23.754Z</time></trkpt><trkpt lat="39.3965867" lon="8.44372"><ele>520.0</ele><time>2026-05-01T10:43:24.754Z</time></trkpt><trkpt lat="39.396485" lon="8.443795"><ele>520.0</ele><time>2026-05-01T10:43:25.754Z</time></trkpt><trkpt lat="39.3963933" lon="8.4438667"><ele>520.0</ele><time>2026-05-01T10:43:26.754Z</time></trkpt><trkpt lat="39.3963083" lon="8.44395"><ele>520.0</ele><time>2026-05-01T10:43:27.754Z</time></trkpt><trkpt lat="39.3962267" lon="8.4440617"><ele>518.75</ele><time>2026-05-01T10:43:28.754Z</time></trkpt><trkpt lat="39.3961517" lon="8.4441817"><ele>517.5</ele><time>2026-05-01T10:43:29.754Z</time></trkpt><trkpt lat="39.3960667" lon="8.4443083"><ele>516.25</ele><time>2026-05-01T10:43:30.755Z</time></trkpt><trkpt lat="39.395995" lon="8.4444267"><ele>515.0</ele><time>2026-05-01T10:43:31.754Z</time></trkpt><trkpt lat="39.3959267" lon="8.4445517"><ele>517.75</ele><time>2026-05-01T10:43:32.754Z</time></trkpt><trkpt lat="39.3958633" lon="8.4447017"><ele>520.5</ele><time>2026-05-01T10:43:33.754Z</time></trkpt><trkpt lat="39.39581" lon="8.4448467"><ele>523.25</ele><time>2026-05-01T10:43:34.754Z</time></trkpt><trkpt lat="39.3957583" lon="8.4449783"><ele>526.0</ele><time>2026-05-01T10:43:35.754Z</time></trkpt><trkpt lat="39.3957133" lon="8.4450917"><ele>526.0</ele><time>2026-05-01T10:43:36.755Z</time></trkpt><trkpt lat="39.3956667" lon="8.4452017"><ele>526.0</ele><time>2026-05-01T10:43:37.754Z</time></trkpt><trkpt lat="39.395625" lon="8.4452817"><ele>526.0</ele><time>2026-05-01T10:43:38.754Z</time></trkpt><trkpt lat="39.395585" lon="8.4453567"><ele>526.0</ele><time>2026-05-01T10:43:39.755Z</time></trkpt><trkpt lat="39.395555" lon="8.44544"><ele>526.0</ele><time>2026-05-01T10:43:40.754Z</time></trkpt><trkpt lat="39.395515" lon="8.4455467"><ele>526.0</ele><time>2026-05-01T10:43:41.755Z</time></trkpt><trkpt lat="39.3954733" lon="8.4456633"><ele>522.2</ele><time>2026-05-01T10:43:42.754Z</time></trkpt><trkpt lat="39.39543" lon="8.445775"><ele>518.4000000000001</ele><time>2026-05-01T10:43:43.754Z</time></trkpt><trkpt lat="39.39538" lon="8.4458883"><ele>514.6</ele><time>2026-05-01T10:43:44.755Z</time></trkpt><trkpt lat="39.3953267" lon="8.4459967"><ele>510.8</ele><time>2026-05-01T10:43:45.754Z</time></trkpt><trkpt lat="39.3952717" lon="8.4461"><ele>507.0</ele><time>2026-05-01T10:43:46.754Z</time></trkpt><trkpt lat="39.3952233" lon="8.4461933"><ele>507.0</ele><time>2026-05-01T10:43:47.754Z</time></trkpt><trkpt lat="39.3951767" lon="8.4462733"><ele>507.0</ele><time>2026-05-01T10:43:48.754Z</time></trkpt><trkpt lat="39.395115" lon="8.4463383"><ele>507.0</ele><time>2026-05-01T10:43:49.755Z</time></trkpt><trkpt lat="39.3950317" lon="8.4463933"><ele>507.0</ele><time>2026-05-01T10:43:50.754Z</time></trkpt><trkpt lat="39.39493" lon="8.4464317"><ele>507.0</ele><time>2026-05-01T10:43:51.754Z</time></trkpt><trkpt lat="39.3948433" lon="8.4464717"><ele>507.0</ele><time>2026-05-01T10:43:52.755Z</time></trkpt><trkpt lat="39.394775" lon="8.446515"><ele>506.40000000000003</ele><time>2026-05-01T10:43:53.754Z</time></trkpt><trkpt lat="39.3947033" lon="8.4465467"><ele>505.80000000000007</ele><time>2026-05-01T10:43:54.754Z</time></trkpt><trkpt lat="39.3946217" lon="8.4465467"><ele>505.2</ele><time>2026-05-01T10:43:55.754Z</time></trkpt><trkpt lat="39.394515" lon="8.4465267"><ele>504.6</ele><time>2026-05-01T10:43:56.754Z</time></trkpt><trkpt lat="39.39441" lon="8.44649"><ele>504.0</ele><time>2026-05-01T10:43:57.755Z</time></trkpt><trkpt lat="39.3943067" lon="8.4464733"><ele>504.0</ele><time>2026-05-01T10:43:58.754Z</time></trkpt><trkpt lat="39.394195" lon="8.446455"><ele>504.0</ele><time>2026-05-01T10:43:59.754Z</time></trkpt><trkpt lat="39.3940883" lon="8.4464317"><ele>504.0</ele><time>2026-05-01T10:44:00.755Z</time></trkpt><trkpt lat="39.3940017" lon="8.4463983"><ele>504.0</ele><time>2026-05-01T10:44:01.755Z</time></trkpt><trkpt lat="39.3939083" lon="8.4463667"><ele>504.0</ele><time>2026-05-01T10:44:02.754Z</time></trkpt><trkpt lat="39.3938033" lon="8.44634"><ele>503.6</ele><time>2026-05-01T10:44:03.754Z</time></trkpt><trkpt lat="39.393695" lon="8.44632"><ele>503.2</ele><time>2026-05-01T10:44:04.754Z</time></trkpt><trkpt lat="39.393575" lon="8.4463"><ele>502.80000000000007</ele><time>2026-05-01T10:44:05.754Z</time></trkpt><trkpt lat="39.3934683" lon="8.4462733"><ele>502.40000000000003</ele><time>2026-05-01T10:44:06.754Z</time></trkpt><trkpt lat="39.39338" lon="8.4462567"><ele>502.0</ele><time>2026-05-01T10:44:07.754Z</time></trkpt><trkpt lat="39.39329" lon="8.446255"><ele>502.0</ele><time>2026-05-01T10:44:08.754Z</time></trkpt><trkpt lat="39.3931933" lon="8.4462783"><ele>502.0</ele><time>2026-05-01T10:44:09.755Z</time></trkpt><trkpt lat="39.3930883" lon="8.4463283"><ele>502.0</ele><time>2026-05-01T10:44:10.754Z</time></trkpt><trkpt lat="39.392975" lon="8.4463917"><ele>502.0</ele><time>2026-05-01T10:44:11.755Z</time></trkpt><trkpt lat="39.3928583" lon="8.446465"><ele>500.0</ele><time>2026-05-01T10:44:12.755Z</time></trkpt><trkpt lat="39.3927333" lon="8.4465467"><ele>498.0</ele><time>2026-05-01T10:44:13.755Z</time></trkpt><trkpt lat="39.3926117" lon="8.4466267"><ele>496.0</ele><time>2026-05-01T10:44:14.754Z</time></trkpt><trkpt lat="39.3924917" lon="8.4467"><ele>494.0</ele><time>2026-05-01T10:44:15.754Z</time></trkpt><trkpt lat="39.3923667" lon="8.4467767"><ele>494.0</ele><time>2026-05-01T10:44:16.755Z</time></trkpt><trkpt lat="39.3922417" lon="8.4468433"><ele>494.0</ele><time>2026-05-01T10:44:17.755Z</time></trkpt><trkpt lat="39.3921183" lon="8.4469117"><ele>494.0</ele><time>2026-05-01T10:44:18.755Z</time></trkpt><trkpt lat="39.3919983" lon="8.4469667"><ele>494.0</ele><time>2026-05-01T10:44:19.755Z</time></trkpt><trkpt lat="39.391875" lon="8.4470067"><ele>492.5</ele><time>2026-05-01T10:44:20.755Z</time></trkpt><trkpt lat="39.39175" lon="8.4470567"><ele>491.0</ele><time>2026-05-01T10:44:21.754Z</time></trkpt><trkpt lat="39.3916283" lon="8.44712"><ele>489.5</ele><time>2026-05-01T10:44:22.755Z</time></trkpt><trkpt lat="39.3915033" lon="8.4471983"><ele>488.0</ele><time>2026-05-01T10:44:23.754Z</time></trkpt><trkpt lat="39.39138" lon="8.447275"><ele>492.0</ele><time>2026-05-01T10:44:24.754Z</time></trkpt><trkpt lat="39.3912517" lon="8.447355"><ele>496.0</ele><time>2026-05-01T10:44:25.754Z</time></trkpt><trkpt lat="39.3911283" lon="8.447425"><ele>500.0</ele><time>2026-05-01T10:44:26.755Z</time></trkpt><trkpt lat="39.391005" lon="8.447485"><ele>504.0</ele><time>2026-05-01T10:44:27.755Z</time></trkpt><trkpt lat="39.3908633" lon="8.44753"><ele>504.0</ele><time>2026-05-01T10:44:28.754Z</time></trkpt><trkpt lat="39.3907183" lon="8.4475717"><ele>504.0</ele><time>2026-05-01T10:44:29.754Z</time></trkpt><trkpt lat="39.3905917" lon="8.44762"><ele>504.0</ele><time>2026-05-01T10:44:30.755Z</time></trkpt><trkpt lat="39.3904983" lon="8.4476517"><ele>504.0</ele><time>2026-05-01T10:44:31.755Z</time></trkpt><trkpt lat="39.3904367" lon="8.4476783"><ele>504.0</ele><time>2026-05-01T10:44:32.755Z</time></trkpt><trkpt lat="39.3904083" lon="8.4477617"><ele>503.2</ele><time>2026-05-01T10:44:35.754Z</time></trkpt><trkpt lat="39.3903283" lon="8.4478267"><ele>502.4</ele><time>2026-05-01T10:44:39.754Z</time></trkpt><trkpt lat="39.39025" lon="8.4478133"><ele>501.6</ele><time>2026-05-01T10:44:40.754Z</time></trkpt><trkpt lat="39.39015" lon="8.4477933"><ele>500.8</ele><time>2026-05-01T10:44:41.754Z</time></trkpt><trkpt lat="39.3900617" lon="8.4477467"><ele>500.0</ele><time>2026-05-01T10:44:42.754Z</time></trkpt><trkpt lat="39.3899867" lon="8.4477"><ele>500.0</ele><time>2026-05-01T10:44:43.754Z</time></trkpt><trkpt lat="39.389905" lon="8.4476567"><ele>500.0</ele><time>2026-05-01T10:44:44.754Z</time></trkpt><trkpt lat="39.3898" lon="8.4476217"><ele>500.0</ele><time>2026-05-01T10:44:45.754Z</time></trkpt><trkpt lat="39.3896933" lon="8.4476067"><ele>500.0</ele><time>2026-05-01T10:44:46.755Z</time></trkpt><trkpt lat="39.3896033" lon="8.447595"><ele>500.0</ele><time>2026-05-01T10:44:47.755Z</time></trkpt><trkpt lat="39.3895167" lon="8.4475917"><ele>497.99999999999994</ele><time>2026-05-01T10:44:48.754Z</time></trkpt><trkpt lat="39.3894233" lon="8.447605"><ele>496.0</ele><time>2026-05-01T10:44:49.754Z</time></trkpt><trkpt lat="39.3893433" lon="8.4476433"><ele>494.0</ele><time>2026-05-01T10:44:50.754Z</time></trkpt><trkpt lat="39.38927" lon="8.4476683"><ele>492.0</ele><time>2026-05-01T10:44:51.754Z</time></trkpt><trkpt lat="39.389195" lon="8.44768"><ele>489.99999999999994</ele><time>2026-05-01T10:44:52.754Z</time></trkpt><trkpt lat="39.38911" lon="8.4476683"><ele>488.0</ele><time>2026-05-01T10:44:53.755Z</time></trkpt><trkpt lat="39.3890333" lon="8.4476483"><ele>487.99999999999994</ele><time>2026-05-01T10:44:54.754Z</time></trkpt><trkpt lat="39.388965" lon="8.4476383"><ele>488.0</ele><time>2026-05-01T10:44:55.755Z</time></trkpt><trkpt lat="39.3888933" lon="8.447655"><ele>488.0</ele><time>2026-05-01T10:44:56.755Z</time></trkpt><trkpt lat="39.3888067" lon="8.447685"><ele>488.0</ele><time>2026-05-01T10:44:57.754Z</time></trkpt><trkpt lat="39.3887133" lon="8.4477217"><ele>487.99999999999994</ele><time>2026-05-01T10:44:58.754Z</time></trkpt><trkpt lat="39.38862" lon="8.4477567"><ele>488.0</ele><time>2026-05-01T10:44:59.754Z</time></trkpt><trkpt lat="39.3885183" lon="8.4478"><ele>488.4</ele><time>2026-05-01T10:45:00.755Z</time></trkpt><trkpt lat="39.3884317" lon="8.44784"><ele>488.79999999999995</ele><time>2026-05-01T10:45:01.754Z</time></trkpt><trkpt lat="39.3883517" lon="8.4478983"><ele>489.2</ele><time>2026-05-01T10:45:02.754Z</time></trkpt><trkpt lat="39.3882733" lon="8.4479817"><ele>489.6</ele><time>2026-05-01T10:45:03.754Z</time></trkpt><trkpt lat="39.3882" lon="8.44807"><ele>490.0</ele><time>2026-05-01T10:45:04.754Z</time></trkpt><trkpt lat="39.38813" lon="8.44814"><ele>485.0</ele><time>2026-05-01T10:45:05.755Z</time></trkpt><trkpt lat="39.3880517" lon="8.4481933"><ele>480.0</ele><time>2026-05-01T10:45:06.755Z</time></trkpt><trkpt lat="39.38796" lon="8.4482533"><ele>475.0</ele><time>2026-05-01T10:45:07.754Z</time></trkpt><trkpt lat="39.387855" lon="8.4483117"><ele>470.0</ele><time>2026-05-01T10:45:08.754Z</time></trkpt><trkpt lat="39.3877533" lon="8.4483567"><ele>465.0</ele><time>2026-05-01T10:45:09.754Z</time></trkpt><trkpt lat="39.3876483" lon="8.4483967"><ele>465.0</ele><time>2026-05-01T10:45:10.754Z</time></trkpt><trkpt lat="39.3875567" lon="8.4484367"><ele>465.0</ele><time>2026-05-01T10:45:11.755Z</time></trkpt><trkpt lat="39.387485" lon="8.448465"><ele>465.0</ele><time>2026-05-01T10:45:12.754Z</time></trkpt><trkpt lat="39.3874133" lon="8.4484783"><ele>465.0</ele><time>2026-05-01T10:45:13.754Z</time></trkpt><trkpt lat="39.387345" lon="8.448465"><ele>465.0</ele><time>2026-05-01T10:45:14.755Z</time></trkpt><trkpt lat="39.3872783" lon="8.448435"><ele>465.0</ele><time>2026-05-01T10:45:15.754Z</time></trkpt><trkpt lat="39.3871783" lon="8.4483483"><ele>463.2</ele><time>2026-05-01T10:45:17.754Z</time></trkpt><trkpt lat="39.3870583" lon="8.4483067"><ele>461.4</ele><time>2026-05-01T10:45:19.754Z</time></trkpt><trkpt lat="39.38696" lon="8.448335"><ele>459.6</ele><time>2026-05-01T10:45:20.755Z</time></trkpt><trkpt lat="39.3868467" lon="8.4483733"><ele>457.8</ele><time>2026-05-01T10:45:21.755Z</time></trkpt><trkpt lat="39.3867467" lon="8.44842"><ele>456.0</ele><time>2026-05-01T10:45:22.754Z</time></trkpt><trkpt lat="39.38666" lon="8.4484517"><ele>456.0</ele><time>2026-05-01T10:45:23.754Z</time></trkpt><trkpt lat="39.3865917" lon="8.4484733"><ele>456.0</ele><time>2026-05-01T10:45:24.754Z</time></trkpt><trkpt lat="39.386495" lon="8.448515"><ele>456.0</ele><time>2026-05-01T10:45:26.754Z</time></trkpt><trkpt lat="39.3864133" lon="8.44853"><ele>456.0</ele><time>2026-05-01T10:45:28.755Z</time></trkpt><trkpt lat="39.38634" lon="8.4485983"><ele>456.0</ele><time>2026-05-01T10:45:31.754Z</time></trkpt><trkpt lat="39.3862933" lon="8.4486933"><ele>456.0</ele><time>2026-05-01T10:45:33.754Z</time></trkpt><trkpt lat="39.3862267" lon="8.44874"><ele>454.8333333333333</ele><time>2026-05-01T10:45:35.755Z</time></trkpt><trkpt lat="39.38614" lon="8.4487683"><ele>453.66666666666663</ele><time>2026-05-01T10:45:38.754Z</time></trkpt><trkpt lat="39.3860933" lon="8.4488317"><ele>452.5</ele><time>2026-05-01T10:46:02.754Z</time></trkpt><trkpt lat="39.3861033" lon="8.4489383"><ele>451.3333333333333</ele><time>2026-05-01T10:46:04.754Z</time></trkpt><trkpt lat="39.386095" lon="8.4490433"><ele>450.16666666666663</ele><time>2026-05-01T10:46:06.755Z</time></trkpt><trkpt lat="39.3860817" lon="8.4491367"><ele>449.0</ele><time>2026-05-01T10:46:08.753Z</time></trkpt><trkpt lat="39.3860917" lon="8.4492383"><ele>447.4</ele><time>2026-05-01T10:46:10.753Z</time></trkpt><trkpt lat="39.3861383" lon="8.4493917"><ele>445.79999999999995</ele><time>2026-05-01T10:46:12.753Z</time></trkpt><trkpt lat="39.3861733" lon="8.449465"><ele>444.20000000000005</ele><time>2026-05-01T10:46:13.753Z</time></trkpt><trkpt lat="39.3862267" lon="8.449585"><ele>442.6</ele><time>2026-05-01T10:46:15.753Z</time></trkpt><trkpt lat="39.38623" lon="8.44971"><ele>441.0</ele><time>2026-05-01T10:46:17.754Z</time></trkpt><trkpt lat="39.386215" lon="8.44979"><ele>441.0</ele><time>2026-05-01T10:46:18.754Z</time></trkpt><trkpt lat="39.3861933" lon="8.4498833"><ele>441.0</ele><time>2026-05-01T10:46:19.753Z</time></trkpt><trkpt lat="39.38618" lon="8.449985"><ele>441.0</ele><time>2026-05-01T10:46:20.753Z</time></trkpt><trkpt lat="39.3861683" lon="8.4500867"><ele>441.0</ele><time>2026-05-01T10:46:21.753Z</time></trkpt><trkpt lat="39.38615" lon="8.450165"><ele>441.0</ele><time>2026-05-01T10:46:22.754Z</time></trkpt><trkpt lat="39.3861683" lon="8.450255"><ele>441.0</ele><time>2026-05-01T10:46:24.754Z</time></trkpt><trkpt lat="39.386195" lon="8.4503433"><ele>441.0</ele><time>2026-05-01T10:46:25.754Z</time></trkpt><trkpt lat="39.3862583" lon="8.45045"><ele>442.0</ele><time>2026-05-01T10:46:27.753Z</time></trkpt><trkpt lat="39.3863217" lon="8.4504883"><ele>443.0</ele><time>2026-05-01T10:46:28.754Z</time></trkpt><trkpt lat="39.386405" lon="8.4505017"><ele>444.0</ele><time>2026-05-01T10:46:29.753Z</time></trkpt><trkpt lat="39.3864867" lon="8.4505117"><ele>445.0</ele><time>2026-05-01T10:46:30.753Z</time></trkpt><trkpt lat="39.3865533" lon="8.450525"><ele>446.0</ele><time>2026-05-01T10:46:31.753Z</time></trkpt><trkpt lat="39.3866217" lon="8.45055"><ele>447.0</ele><time>2026-05-01T10:46:32.753Z</time></trkpt><trkpt lat="39.3866883" lon="8.4506"><ele>443.6666666666667</ele><time>2026-05-01T10:46:33.753Z</time></trkpt><trkpt lat="39.3867483" lon="8.4506567"><ele>440.33333333333337</ele><time>2026-05-01T10:46:34.753Z</time></trkpt><trkpt lat="39.38683" lon="8.45075"><ele>437.0</ele><time>2026-05-01T10:46:36.754Z</time></trkpt><trkpt lat="39.3869167" lon="8.4507867"><ele>433.6666666666667</ele><time>2026-05-01T10:46:39.754Z</time></trkpt><trkpt lat="39.38697" lon="8.4507417"><ele>430.33333333333337</ele><time>2026-05-01T10:46:41.753Z</time></trkpt><trkpt lat="39.386945" lon="8.4506283"><ele>427.0</ele><time>2026-05-01T10:46:44.754Z</time></trkpt><trkpt lat="39.38687" lon="8.4505683"><ele>427.00000000000006</ele><time>2026-05-01T10:46:46.753Z</time></trkpt><trkpt lat="39.38684" lon="8.45048"><ele>427.0</ele><time>2026-05-01T10:46:49.753Z</time></trkpt><trkpt lat="39.3869117" lon="8.4504567"><ele>427.0</ele><time>2026-05-01T10:46:51.753Z</time></trkpt><trkpt lat="39.3870217" lon="8.4505533"><ele>427.0</ele><time>2026-05-01T10:46:53.753Z</time></trkpt><trkpt lat="39.3870867" lon="8.4506117"><ele>427.00000000000006</ele><time>2026-05-01T10:46:54.754Z</time></trkpt><trkpt lat="39.3871383" lon="8.4506717"><ele>427.0</ele><time>2026-05-01T10:46:55.754Z</time></trkpt><trkpt lat="39.38722" lon="8.4507717"><ele>427.0</ele><time>2026-05-01T10:46:57.753Z</time></trkpt><trkpt lat="39.38726" lon="8.4509133"><ele>427.00000000000006</ele><time>2026-05-01T10:46:59.753Z</time></trkpt><trkpt lat="39.3872367" lon="8.4510483"><ele>427.00000000000006</ele><time>2026-05-01T10:47:01.753Z</time></trkpt><trkpt lat="39.38719" lon="8.451155"><ele>427.0</ele><time>2026-05-01T10:47:03.754Z</time></trkpt><trkpt lat="39.3871633" lon="8.4512367"><ele>427.0</ele><time>2026-05-01T10:47:04.753Z</time></trkpt><trkpt lat="39.38712" lon="8.4513067"><ele>426.33333333333337</ele><time>2026-05-01T10:47:05.753Z</time></trkpt><trkpt lat="39.3870417" lon="8.45141"><ele>425.6666666666667</ele><time>2026-05-01T10:47:07.754Z</time></trkpt><trkpt lat="39.3869983" lon="8.4514933"><ele>425.0</ele><time>2026-05-01T10:47:09.753Z</time></trkpt><trkpt lat="39.3869883" lon="8.45163"><ele>424.33333333333337</ele><time>2026-05-01T10:47:11.753Z</time></trkpt><trkpt lat="39.3869983" lon="8.4517233"><ele>423.6666666666667</ele><time>2026-05-01T10:47:12.753Z</time></trkpt><trkpt lat="39.3869967" lon="8.451825"><ele>423.0</ele><time>2026-05-01T10:47:13.753Z</time></trkpt><trkpt lat="39.38699" lon="8.4519283"><ele>423.0</ele><time>2026-05-01T10:47:14.754Z</time></trkpt><trkpt lat="39.3869767" lon="8.4520133"><ele>423.0</ele><time>2026-05-01T10:47:15.753Z</time></trkpt><trkpt lat="39.3869467" lon="8.45217"><ele>423.0</ele><time>2026-05-01T10:47:17.753Z</time></trkpt><trkpt lat="39.3869267" lon="8.45225"><ele>423.0</ele><time>2026-05-01T10:47:18.754Z</time></trkpt><trkpt lat="39.3869017" lon="8.45234"><ele>423.0</ele><time>2026-05-01T10:47:19.754Z</time></trkpt><trkpt lat="39.3868617" lon="8.452445"><ele>423.0</ele><time>2026-05-01T10:47:20.753Z</time></trkpt><trkpt lat="39.3868183" lon="8.45255"><ele>420.2</ele><time>2026-05-01T10:47:21.753Z</time></trkpt><trkpt lat="39.386765" lon="8.452655"><ele>417.4</ele><time>2026-05-01T10:47:22.753Z</time></trkpt><trkpt lat="39.3867083" lon="8.4527567"><ele>414.59999999999997</ele><time>2026-05-01T10:47:23.753Z</time></trkpt><trkpt lat="39.386655" lon="8.452875"><ele>411.79999999999995</ele><time>2026-05-01T10:47:24.754Z</time></trkpt><trkpt lat="39.3866067" lon="8.45299"><ele>409.0</ele><time>2026-05-01T10:47:25.754Z</time></trkpt><trkpt lat="39.3865567" lon="8.4531033"><ele>408.4</ele><time>2026-05-01T10:47:26.754Z</time></trkpt><trkpt lat="39.3865117" lon="8.4532083"><ele>407.79999999999995</ele><time>2026-05-01T10:47:27.753Z</time></trkpt><trkpt lat="39.3864583" lon="8.4533183"><ele>407.20000000000005</ele><time>2026-05-01T10:47:28.753Z</time></trkpt><trkpt lat="39.38639" lon="8.4534367"><ele>406.6</ele><time>2026-05-01T10:47:29.753Z</time></trkpt><trkpt lat="39.3863317" lon="8.4535483"><ele>406.0</ele><time>2026-05-01T10:47:30.754Z</time></trkpt><trkpt lat="39.3862767" lon="8.4536483"><ele>406.0</ele><time>2026-05-01T10:47:31.753Z</time></trkpt><trkpt lat="39.3862167" lon="8.45374"><ele>406.0</ele><time>2026-05-01T10:47:32.753Z</time></trkpt><trkpt lat="39.3861333" lon="8.4538133"><ele>406.0</ele><time>2026-05-01T10:47:33.753Z</time></trkpt><trkpt lat="39.38603" lon="8.4538817"><ele>406.0</ele><time>2026-05-01T10:47:34.754Z</time></trkpt><trkpt lat="39.38592" lon="8.4539467"><ele>406.0</ele><time>2026-05-01T10:47:35.753Z</time></trkpt><trkpt lat="39.3858117" lon="8.4539967"><ele>404.75</ele><time>2026-05-01T10:47:36.753Z</time></trkpt><trkpt lat="39.3857017" lon="8.4540383"><ele>403.5</ele><time>2026-05-01T10:47:37.754Z</time></trkpt><trkpt lat="39.3855967" lon="8.45407"><ele>402.25</ele><time>2026-05-01T10:47:38.754Z</time></trkpt><trkpt lat="39.38549" lon="8.4541133"><ele>401.0</ele><time>2026-05-01T10:47:39.753Z</time></trkpt><trkpt lat="39.3853767" lon="8.4541683"><ele>401.0</ele><time>2026-05-01T10:47:40.754Z</time></trkpt><trkpt lat="39.3852633" lon="8.4542267"><ele>401.0</ele><time>2026-05-01T10:47:41.753Z</time></trkpt><trkpt lat="39.3851417" lon="8.45428"><ele>401.0</ele><time>2026-05-01T10:47:42.753Z</time></trkpt><trkpt lat="39.3850283" lon="8.4543183"><ele>401.0</ele><time>2026-05-01T10:47:43.754Z</time></trkpt><trkpt lat="39.384915" lon="8.4543717"><ele>401.0</ele><time>2026-05-01T10:47:44.753Z</time></trkpt><trkpt lat="39.3847967" lon="8.4544383"><ele>401.0</ele><time>2026-05-01T10:47:45.754Z</time></trkpt><trkpt lat="39.3846817" lon="8.4545133"><ele>401.0</ele><time>2026-05-01T10:47:46.753Z</time></trkpt><trkpt lat="39.3845883" lon="8.4546017"><ele>401.0</ele><time>2026-05-01T10:47:47.754Z</time></trkpt><trkpt lat="39.38451" lon="8.45469"><ele>400.8</ele><time>2026-05-01T10:47:48.754Z</time></trkpt><trkpt lat="39.3844333" lon="8.4547933"><ele>400.6</ele><time>2026-05-01T10:47:49.753Z</time></trkpt><trkpt lat="39.38437" lon="8.4549167"><ele>400.4</ele><time>2026-05-01T10:47:50.753Z</time></trkpt><trkpt lat="39.3843167" lon="8.4550317"><ele>400.2</ele><time>2026-05-01T10:47:51.753Z</time></trkpt><trkpt lat="39.38427" lon="8.4551533"><ele>400.0</ele><time>2026-05-01T10:47:52.754Z</time></trkpt><trkpt lat="39.3842217" lon="8.4552867"><ele>400.0</ele><time>2026-05-01T10:47:53.754Z</time></trkpt><trkpt lat="39.3841717" lon="8.4554117"><ele>400.0</ele><time>2026-05-01T10:47:54.754Z</time></trkpt><trkpt lat="39.384115" lon="8.45554"><ele>400.0</ele><time>2026-05-01T10:47:55.754Z</time></trkpt><trkpt lat="39.3840467" lon="8.45567"><ele>400.0</ele><time>2026-05-01T10:47:56.753Z</time></trkpt><trkpt lat="39.3839767" lon="8.4558117"><ele>399.8</ele><time>2026-05-01T10:47:57.753Z</time></trkpt><trkpt lat="39.3839133" lon="8.4559467"><ele>399.6</ele><time>2026-05-01T10:47:58.754Z</time></trkpt><trkpt lat="39.3838633" lon="8.4560683"><ele>399.4</ele><time>2026-05-01T10:47:59.754Z</time></trkpt><trkpt lat="39.3838" lon="8.45617"><ele>399.2</ele><time>2026-05-01T10:48:00.754Z</time></trkpt><trkpt lat="39.3837267" lon="8.4562433"><ele>399.0</ele><time>2026-05-01T10:48:01.753Z</time></trkpt><trkpt lat="39.383665" lon="8.4563067"><ele>396.5</ele><time>2026-05-01T10:48:02.754Z</time></trkpt><trkpt lat="39.383615" lon="8.4563567"><ele>394.0</ele><time>2026-05-01T10:48:03.753Z</time></trkpt><trkpt lat="39.3835467" lon="8.456385"><ele>391.5</ele><time>2026-05-01T10:48:04.753Z</time></trkpt><trkpt lat="39.3834583" lon="8.4563883"><ele>389.0</ele><time>2026-05-01T10:48:05.754Z</time></trkpt><trkpt lat="39.3833667" lon="8.45638"><ele>386.5</ele><time>2026-05-01T10:48:06.753Z</time></trkpt><trkpt lat="39.3832533" lon="8.4563383"><ele>384.0</ele><time>2026-05-01T10:48:07.754Z</time></trkpt><trkpt lat="39.3831483" lon="8.4562917"><ele>387.6</ele><time>2026-05-01T10:48:08.753Z</time></trkpt><trkpt lat="39.3830583" lon="8.4562783"><ele>391.2</ele><time>2026-05-01T10:48:09.754Z</time></trkpt><trkpt lat="39.382965" lon="8.4562733"><ele>394.8</ele><time>2026-05-01T10:48:10.753Z</time></trkpt><trkpt lat="39.3828733" lon="8.4562583"><ele>398.40000000000003</ele><time>2026-05-01T10:48:11.753Z</time></trkpt><trkpt lat="39.3827733" lon="8.456255"><ele>402.0</ele><time>2026-05-01T10:48:12.753Z</time></trkpt><trkpt lat="39.38268" lon="8.45626"><ele>403.5</ele><time>2026-05-01T10:48:13.753Z</time></trkpt><trkpt lat="39.38259" lon="8.4562717"><ele>405.0</ele><time>2026-05-01T10:48:14.753Z</time></trkpt><trkpt lat="39.3825083" lon="8.4563"><ele>406.5</ele><time>2026-05-01T10:48:15.754Z</time></trkpt><trkpt lat="39.382435" lon="8.456335"><ele>408.0</ele><time>2026-05-01T10:48:16.753Z</time></trkpt><trkpt lat="39.3823633" lon="8.4563617"><ele>409.5</ele><time>2026-05-01T10:48:17.754Z</time></trkpt><trkpt lat="39.382285" lon="8.4563883"><ele>411.0</ele><time>2026-05-01T10:48:18.753Z</time></trkpt><trkpt lat="39.3822017" lon="8.4564083"><ele>406.0</ele><time>2026-05-01T10:48:19.753Z</time></trkpt><trkpt lat="39.3821367" lon="8.456415"><ele>401.0</ele><time>2026-05-01T10:48:20.754Z</time></trkpt><trkpt lat="39.3820583" lon="8.4564717"><ele>396.0</ele><time>2026-05-01T10:48:22.753Z</time></trkpt><trkpt lat="39.3820333" lon="8.4565667"><ele>391.0</ele><time>2026-05-01T10:48:24.754Z</time></trkpt><trkpt lat="39.3820167" lon="8.4567267"><ele>386.0</ele><time>2026-05-01T10:48:26.753Z</time></trkpt><trkpt lat="39.382025" lon="8.4568867"><ele>385.99999999999994</ele><time>2026-05-01T10:48:28.753Z</time></trkpt><trkpt lat="39.3820417" lon="8.4569833"><ele>386.0</ele><time>2026-05-01T10:48:29.753Z</time></trkpt><trkpt lat="39.3820617" lon="8.457075"><ele>386.0</ele><time>2026-05-01T10:48:30.753Z</time></trkpt><trkpt lat="39.3820867" lon="8.4571767"><ele>386.0</ele><time>2026-05-01T10:48:31.753Z</time></trkpt><trkpt lat="39.38211" lon="8.4572883"><ele>385.99999999999994</ele><time>2026-05-01T10:48:32.753Z</time></trkpt><trkpt lat="39.3821283" lon="8.4573833"><ele>386.0</ele><time>2026-05-01T10:48:33.753Z</time></trkpt><trkpt lat="39.3821583" lon="8.4574817"><ele>385.6</ele><time>2026-05-01T10:48:34.753Z</time></trkpt><trkpt lat="39.3821983" lon="8.4575833"><ele>385.20000000000005</ele><time>2026-05-01T10:48:35.753Z</time></trkpt><trkpt lat="39.3822433" lon="8.4576817"><ele>384.79999999999995</ele><time>2026-05-01T10:48:36.753Z</time></trkpt><trkpt lat="39.3822917" lon="8.4577833"><ele>384.4</ele><time>2026-05-01T10:48:37.753Z</time></trkpt><trkpt lat="39.3823517" lon="8.4578983"><ele>384.0</ele><time>2026-05-01T10:48:38.754Z</time></trkpt><trkpt lat="39.38242" lon="8.458015"><ele>385.25</ele><time>2026-05-01T10:48:39.753Z</time></trkpt><trkpt lat="39.3824883" lon="8.4581333"><ele>386.5</ele><time>2026-05-01T10:48:40.753Z</time></trkpt><trkpt lat="39.3825533" lon="8.4582517"><ele>387.75</ele><time>2026-05-01T10:48:41.753Z</time></trkpt><trkpt lat="39.38262" lon="8.458365"><ele>389.0</ele><time>2026-05-01T10:48:42.753Z</time></trkpt><trkpt lat="39.3826883" lon="8.4584917"><ele>389.0</ele><time>2026-05-01T10:48:43.754Z</time></trkpt><trkpt lat="39.3827683" lon="8.458615"><ele>389.0</ele><time>2026-05-01T10:48:44.753Z</time></trkpt><trkpt lat="39.3828367" lon="8.45874"><ele>389.0</ele><time>2026-05-01T10:48:45.753Z</time></trkpt><trkpt lat="39.38291" lon="8.4588633"><ele>389.0</ele><time>2026-05-01T10:48:46.754Z</time></trkpt><trkpt lat="39.382985" lon="8.4589933"><ele>389.25</ele><time>2026-05-01T10:48:47.754Z</time></trkpt><trkpt lat="39.3830567" lon="8.4591233"><ele>389.5</ele><time>2026-05-01T10:48:48.754Z</time></trkpt><trkpt lat="39.3831233" lon="8.459255"><ele>389.75</ele><time>2026-05-01T10:48:49.753Z</time></trkpt><trkpt lat="39.3831967" lon="8.459385"><ele>390.0</ele><time>2026-05-01T10:48:50.754Z</time></trkpt><trkpt lat="39.3832783" lon="8.4595067"><ele>392.5</ele><time>2026-05-01T10:48:51.754Z</time></trkpt><trkpt lat="39.3833617" lon="8.4596367"><ele>395.0</ele><time>2026-05-01T10:48:52.753Z</time></trkpt><trkpt lat="39.3834467" lon="8.4597583"><ele>397.5</ele><time>2026-05-01T10:48:53.754Z</time></trkpt><trkpt lat="39.3835283" lon="8.459875"><ele>400.0</ele><time>2026-05-01T10:48:54.754Z</time></trkpt><trkpt lat="39.3836" lon="8.459985"><ele>400.0</ele><time>2026-05-01T10:48:55.754Z</time></trkpt><trkpt lat="39.3836717" lon="8.4600867"><ele>400.0</ele><time>2026-05-01T10:48:56.754Z</time></trkpt><trkpt lat="39.3837317" lon="8.4601983"><ele>400.0</ele><time>2026-05-01T10:48:57.753Z</time></trkpt><trkpt lat="39.38381" lon="8.4603083"><ele>400.0</ele><time>2026-05-01T10:48:58.754Z</time></trkpt><trkpt lat="39.3838867" lon="8.46042"><ele>400.0</ele><time>2026-05-01T10:48:59.752Z</time></trkpt><trkpt lat="39.3839683" lon="8.460535"><ele>400.4</ele><time>2026-05-01T10:49:00.752Z</time></trkpt><trkpt lat="39.3840517" lon="8.4606433"><ele>400.8</ele><time>2026-05-01T10:49:01.752Z</time></trkpt><trkpt lat="39.384125" lon="8.4607433"><ele>401.20000000000005</ele><time>2026-05-01T10:49:02.752Z</time></trkpt><trkpt lat="39.3841917" lon="8.4608417"><ele>401.6</ele><time>2026-05-01T10:49:03.753Z</time></trkpt><trkpt lat="39.3842583" lon="8.460945"><ele>402.0</ele><time>2026-05-01T10:49:04.752Z</time></trkpt><trkpt lat="39.3843167" lon="8.46105"><ele>402.0</ele><time>2026-05-01T10:49:05.752Z</time></trkpt><trkpt lat="39.3843833" lon="8.4611717"><ele>402.0</ele><time>2026-05-01T10:49:06.753Z</time></trkpt><trkpt lat="39.3844383" lon="8.461285"><ele>402.0</ele><time>2026-05-01T10:49:07.752Z</time></trkpt><trkpt lat="39.3844967" lon="8.4613883"><ele>402.0</ele><time>2026-05-01T10:49:08.752Z</time></trkpt><trkpt lat="39.3845617" lon="8.4614983"><ele>402.0</ele><time>2026-05-01T10:49:09.752Z</time></trkpt><trkpt lat="39.384615" lon="8.4616167"><ele>403.20000000000005</ele><time>2026-05-01T10:49:10.752Z</time></trkpt><trkpt lat="39.384675" lon="8.4617383"><ele>404.4</ele><time>2026-05-01T10:49:11.752Z</time></trkpt><trkpt lat="39.3847333" lon="8.4618483"><ele>405.6</ele><time>2026-05-01T10:49:12.753Z</time></trkpt><trkpt lat="39.38477" lon="8.4619683"><ele>406.79999999999995</ele><time>2026-05-01T10:49:13.752Z</time></trkpt><trkpt lat="39.384805" lon="8.4620867"><ele>408.0</ele><time>2026-05-01T10:49:14.752Z</time></trkpt><trkpt lat="39.3848117" lon="8.462215"><ele>409.75</ele><time>2026-05-01T10:49:15.752Z</time></trkpt><trkpt lat="39.3848017" lon="8.46235"><ele>411.5</ele><time>2026-05-01T10:49:16.752Z</time></trkpt><trkpt lat="39.3848117" lon="8.4625017"><ele>413.25</ele><time>2026-05-01T10:49:17.752Z</time></trkpt><trkpt lat="39.3848117" lon="8.4626717"><ele>415.0</ele><time>2026-05-01T10:49:18.752Z</time></trkpt><trkpt lat="39.3848133" lon="8.4628317"><ele>417.5</ele><time>2026-05-01T10:49:19.752Z</time></trkpt><trkpt lat="39.3848183" lon="8.462995"><ele>420.0</ele><time>2026-05-01T10:49:20.753Z</time></trkpt><trkpt lat="39.3848283" lon="8.4631467"><ele>422.5</ele><time>2026-05-01T10:49:21.753Z</time></trkpt><trkpt lat="39.3848367" lon="8.4633"><ele>425.0</ele><time>2026-05-01T10:49:22.752Z</time></trkpt><trkpt lat="39.3848633" lon="8.4634583"><ele>425.0</ele><time>2026-05-01T10:49:23.752Z</time></trkpt><trkpt lat="39.3848917" lon="8.4636067"><ele>425.0</ele><time>2026-05-01T10:49:24.752Z</time></trkpt><trkpt lat="39.3849" lon="8.46376"><ele>425.0</ele><time>2026-05-01T10:49:25.752Z</time></trkpt><trkpt lat="39.3849067" lon="8.4638817"><ele>425.0</ele><time>2026-05-01T10:49:26.752Z</time></trkpt><trkpt lat="39.3849217" lon="8.4640033"><ele>425.0</ele><time>2026-05-01T10:49:27.753Z</time></trkpt><trkpt lat="39.38493" lon="8.4641017"><ele>426.16666666666663</ele><time>2026-05-01T10:49:28.753Z</time></trkpt><trkpt lat="39.3849417" lon="8.4642283"><ele>427.3333333333333</ele><time>2026-05-01T10:49:30.752Z</time></trkpt><trkpt lat="39.3849283" lon="8.4643083"><ele>428.5</ele><time>2026-05-01T10:49:33.753Z</time></trkpt><trkpt lat="39.3849017" lon="8.4644233"><ele>429.66666666666663</ele><time>2026-05-01T10:50:26.752Z</time></trkpt><trkpt lat="39.3849683" lon="8.46445"><ele>430.8333333333333</ele><time>2026-05-01T10:54:38.751Z</time></trkpt><trkpt lat="39.3849483" lon="8.464565"><ele>432.0</ele><time>2026-05-01T10:54:40.751Z</time></trkpt><trkpt lat="39.38492" lon="8.464645"><ele>433.5</ele><time>2026-05-01T10:54:41.752Z</time></trkpt><trkpt lat="39.3848883" lon="8.4647433"><ele>435.0</ele><time>2026-05-01T10:54:42.751Z</time></trkpt><trkpt lat="39.3848583" lon="8.4648467"><ele>436.5</ele><time>2026-05-01T10:54:43.752Z</time></trkpt><trkpt lat="39.3848383" lon="8.4649567"><ele>438.0</ele><time>2026-05-01T10:54:44.752Z</time></trkpt><trkpt lat="39.3848333" lon="8.4650617"><ele>439.5</ele><time>2026-05-01T10:54:45.752Z</time></trkpt><trkpt lat="39.3848283" lon="8.4651767"><ele>441.0</ele><time>2026-05-01T10:54:46.751Z</time></trkpt><trkpt lat="39.3848217" lon="8.4652917"><ele>441.0</ele><time>2026-05-01T10:54:47.751Z</time></trkpt><trkpt lat="39.38481" lon="8.4653933"><ele>441.0</ele><time>2026-05-01T10:54:48.752Z</time></trkpt><trkpt lat="39.3847967" lon="8.46549"><ele>441.0</ele><time>2026-05-01T10:54:49.751Z</time></trkpt><trkpt lat="39.3847983" lon="8.4656333"><ele>441.0</ele><time>2026-05-01T10:54:51.751Z</time></trkpt><trkpt lat="39.38485" lon="8.4657117"><ele>441.0</ele><time>2026-05-01T10:54:53.752Z</time></trkpt><trkpt lat="39.3849817" lon="8.4657033"><ele>441.0</ele><time>2026-05-01T10:54:55.751Z</time></trkpt><trkpt lat="39.3850683" lon="8.465655"><ele>441.0</ele><time>2026-05-01T10:54:56.752Z</time></trkpt><trkpt lat="39.3851483" lon="8.4655767"><ele>441.0</ele><time>2026-05-01T10:54:57.751Z</time></trkpt><trkpt lat="39.38523" lon="8.4654833"><ele>441.0</ele><time>2026-05-01T10:54:58.751Z</time></trkpt><trkpt lat="39.3853067" lon="8.4654083"><ele>441.0</ele><time>2026-05-01T10:54:59.751Z</time></trkpt><trkpt lat="39.3853667" lon="8.46536"><ele>441.0</ele><time>2026-05-01T10:55:00.751Z</time></trkpt><trkpt lat="39.3854383" lon="8.46533"><ele>441.0</ele><time>2026-05-01T10:55:01.751Z</time></trkpt><trkpt lat="39.385525" lon="8.4653067"><ele>441.0</ele><time>2026-05-01T10:55:02.751Z</time></trkpt><trkpt lat="39.3856233" lon="8.4653017"><ele>441.0</ele><time>2026-05-01T10:55:03.751Z</time></trkpt><trkpt lat="39.3857283" lon="8.465295"><ele>441.0</ele><time>2026-05-01T10:55:04.751Z</time></trkpt><trkpt lat="39.3858317" lon="8.46526"><ele>441.75</ele><time>2026-05-01T10:55:05.751Z</time></trkpt><trkpt lat="39.385935" lon="8.4652217"><ele>442.5</ele><time>2026-05-01T10:55:06.752Z</time></trkpt><trkpt lat="39.386045" lon="8.46517"><ele>443.25</ele><time>2026-05-01T10:55:07.751Z</time></trkpt><trkpt lat="39.3861483" lon="8.4651217"><ele>444.0</ele><time>2026-05-01T10:55:08.751Z</time></trkpt><trkpt lat="39.3862617" lon="8.465095"><ele>446.0</ele><time>2026-05-01T10:55:09.751Z</time></trkpt><trkpt lat="39.386375" lon="8.4650883"><ele>448.0</ele><time>2026-05-01T10:55:10.751Z</time></trkpt><trkpt lat="39.3865067" lon="8.4650733"><ele>450.0</ele><time>2026-05-01T10:55:11.75Z</time></trkpt><trkpt lat="39.386635" lon="8.4650733"><ele>452.0</ele><time>2026-05-01T10:55:12.751Z</time></trkpt><trkpt lat="39.3867517" lon="8.4650767"><ele>452.0</ele><time>2026-05-01T10:55:13.75Z</time></trkpt><trkpt lat="39.3868633" lon="8.4650933"><ele>452.0</ele><time>2026-05-01T10:55:14.751Z</time></trkpt><trkpt lat="39.3869867" lon="8.4651233"><ele>452.0</ele><time>2026-05-01T10:55:15.751Z</time></trkpt><trkpt lat="39.387115" lon="8.46514"><ele>452.0</ele><time>2026-05-01T10:55:16.75Z</time></trkpt><trkpt lat="39.38724" lon="8.4651617"><ele>453.25</ele><time>2026-05-01T10:55:17.75Z</time></trkpt><trkpt lat="39.3873667" lon="8.4651817"><ele>454.5</ele><time>2026-05-01T10:55:18.751Z</time></trkpt><trkpt lat="39.387495" lon="8.465215"><ele>455.75</ele><time>2026-05-01T10:55:19.75Z</time></trkpt><trkpt lat="39.3876083" lon="8.4652533"><ele>457.0</ele><time>2026-05-01T10:55:20.75Z</time></trkpt><trkpt lat="39.3877" lon="8.4652917"><ele>457.00000000000006</ele><time>2026-05-01T10:55:21.751Z</time></trkpt><trkpt lat="39.3877583" lon="8.4653333"><ele>457.0</ele><time>2026-05-01T10:55:22.75Z</time></trkpt><trkpt lat="39.387815" lon="8.4654117"><ele>457.0</ele><time>2026-05-01T10:55:24.75Z</time></trkpt><trkpt lat="39.3877767" lon="8.465485"><ele>457.0</ele><time>2026-05-01T10:55:26.751Z</time></trkpt><trkpt lat="39.3876817" lon="8.4655117"><ele>457.00000000000006</ele><time>2026-05-01T10:55:28.75Z</time></trkpt><trkpt lat="39.387615" lon="8.4655167"><ele>457.0</ele><time>2026-05-01T10:55:29.75Z</time></trkpt><trkpt lat="39.3875383" lon="8.4655283"><ele>462.75</ele><time>2026-05-01T10:55:30.751Z</time></trkpt><trkpt lat="39.3874367" lon="8.4655533"><ele>468.5</ele><time>2026-05-01T10:55:31.751Z</time></trkpt><trkpt lat="39.3873183" lon="8.4655583"><ele>474.25</ele><time>2026-05-01T10:55:32.75Z</time></trkpt><trkpt lat="39.38719" lon="8.4655567"><ele>480.0</ele><time>2026-05-01T10:55:33.75Z</time></trkpt><trkpt lat="39.3870717" lon="8.4655467"><ele>480.0</ele><time>2026-05-01T10:55:34.751Z</time></trkpt><trkpt lat="39.3869383" lon="8.465545"><ele>480.0</ele><time>2026-05-01T10:55:35.75Z</time></trkpt><trkpt lat="39.3868233" lon="8.4655533"><ele>480.0</ele><time>2026-05-01T10:55:36.751Z</time></trkpt><trkpt lat="39.3867183" lon="8.4655833"><ele>480.0</ele><time>2026-05-01T10:55:37.75Z</time></trkpt><trkpt lat="39.3866183" lon="8.465635"><ele>480.0</ele><time>2026-05-01T10:55:38.75Z</time></trkpt><trkpt lat="39.38653" lon="8.4657017"><ele>480.0</ele><time>2026-05-01T10:55:39.75Z</time></trkpt><trkpt lat="39.3864517" lon="8.4657817"><ele>480.0</ele><time>2026-05-01T10:55:40.751Z</time></trkpt><trkpt lat="39.386385" lon="8.4658717"><ele>480.0</ele><time>2026-05-01T10:55:41.75Z</time></trkpt><trkpt lat="39.3863283" lon="8.4659767"><ele>480.0</ele><time>2026-05-01T10:55:42.75Z</time></trkpt><trkpt lat="39.3862817" lon="8.4660917"><ele>482.8</ele><time>2026-05-01T10:55:43.75Z</time></trkpt><trkpt lat="39.386235" lon="8.4662033"><ele>485.6</ele><time>2026-05-01T10:55:44.751Z</time></trkpt><trkpt lat="39.38619" lon="8.4663067"><ele>488.4</ele><time>2026-05-01T10:55:45.751Z</time></trkpt><trkpt lat="39.3861517" lon="8.4663917"><ele>491.2</ele><time>2026-05-01T10:55:46.75Z</time></trkpt><trkpt lat="39.3861267" lon="8.46648"><ele>494.0</ele><time>2026-05-01T10:55:47.75Z</time></trkpt><trkpt lat="39.386085" lon="8.46663"><ele>494.0</ele><time>2026-05-01T10:55:49.75Z</time></trkpt><trkpt lat="39.3860017" lon="8.4666533"><ele>494.0</ele><time>2026-05-01T10:55:51.75Z</time></trkpt><trkpt lat="39.3859083" lon="8.4666033"><ele>494.0</ele><time>2026-05-01T10:55:53.75Z</time></trkpt><trkpt lat="39.3858317" lon="8.4665283"><ele>494.0</ele><time>2026-05-01T10:55:54.75Z</time></trkpt><trkpt lat="39.3857483" lon="8.46644"><ele>494.0</ele><time>2026-05-01T10:55:55.75Z</time></trkpt><trkpt lat="39.3856733" lon="8.466375"><ele>493.99999999999994</ele><time>2026-05-01T10:55:56.75Z</time></trkpt><trkpt lat="39.3855883" lon="8.4663517"><ele>494.0</ele><time>2026-05-01T10:55:58.75Z</time></trkpt><trkpt lat="39.38552" lon="8.4663517"><ele>494.0</ele><time>2026-05-01T10:56:00.75Z</time></trkpt><trkpt lat="39.385595" lon="8.46639"><ele>494.0</ele><time>2026-05-01T10:56:03.751Z</time></trkpt><trkpt lat="39.3856583" lon="8.4664217"><ele>493.99999999999994</ele><time>2026-05-01T10:56:04.751Z</time></trkpt><trkpt lat="39.3857133" lon="8.466485"><ele>494.0</ele><time>2026-05-01T10:56:05.751Z</time></trkpt><trkpt lat="39.38577" lon="8.4665767"><ele>493.99999999999994</ele><time>2026-05-01T10:56:06.75Z</time></trkpt><trkpt lat="39.3858283" lon="8.46668"><ele>494.0</ele><time>2026-05-01T10:56:07.751Z</time></trkpt><trkpt lat="39.3858833" lon="8.4667733"><ele>494.0</ele><time>2026-05-01T10:56:08.751Z</time></trkpt><trkpt lat="39.3859133" lon="8.4668517"><ele>494.0</ele><time>2026-05-01T10:56:09.751Z</time></trkpt><trkpt lat="39.3859617" lon="8.46691"><ele>493.99999999999994</ele><time>2026-05-01T10:56:10.75Z</time></trkpt><trkpt lat="39.38604" lon="8.4669283"><ele>494.0</ele><time>2026-05-01T10:56:11.75Z</time></trkpt><trkpt lat="39.3861033" lon="8.4669033"><ele>494.0</ele><time>2026-05-01T10:56:12.75Z</time></trkpt><trkpt lat="39.3861717" lon="8.4668267"><ele>494.0</ele><time>2026-05-01T10:56:13.75Z</time></trkpt><trkpt lat="39.3862533" lon="8.46674"><ele>494.0</ele><time>2026-05-01T10:56:14.75Z</time></trkpt><trkpt lat="39.3863417" lon="8.4666317"><ele>494.0</ele><time>2026-05-01T10:56:15.75Z</time></trkpt><trkpt lat="39.386435" lon="8.4664883"><ele>496.79999999999995</ele><time>2026-05-01T10:56:16.751Z</time></trkpt><trkpt lat="39.3865267" lon="8.4663267"><ele>499.59999999999997</ele><time>2026-05-01T10:56:17.75Z</time></trkpt><trkpt lat="39.3865983" lon="8.46622"><ele>502.4</ele><time>2026-05-01T10:56:18.75Z</time></trkpt><trkpt lat="39.3866667" lon="8.466145"><ele>505.2</ele><time>2026-05-01T10:56:19.751Z</time></trkpt><trkpt lat="39.386745" lon="8.4661033"><ele>508.0</ele><time>2026-05-01T10:56:20.75Z</time></trkpt><trkpt lat="39.38683" lon="8.4660817"><ele>503.0</ele><time>2026-05-01T10:56:21.75Z</time></trkpt><trkpt lat="39.3869083" lon="8.4660883"><ele>497.99999999999994</ele><time>2026-05-01T10:56:22.75Z</time></trkpt><trkpt lat="39.3869933" lon="8.4660933"><ele>492.99999999999994</ele><time>2026-05-01T10:56:23.75Z</time></trkpt><trkpt lat="39.3870867" lon="8.46611"><ele>488.0</ele><time>2026-05-01T10:56:24.75Z</time></trkpt><trkpt lat="39.3871883" lon="8.4661517"><ele>483.0</ele><time>2026-05-01T10:56:25.75Z</time></trkpt><trkpt lat="39.3872983" lon="8.4662017"><ele>483.0</ele><time>2026-05-01T10:56:26.751Z</time></trkpt><trkpt lat="39.3874083" lon="8.4662533"><ele>482.99999999999994</ele><time>2026-05-01T10:56:27.751Z</time></trkpt><trkpt lat="39.3875083" lon="8.4663117"><ele>482.99999999999994</ele><time>2026-05-01T10:56:28.75Z</time></trkpt><trkpt lat="39.387605" lon="8.4663817"><ele>483.0</ele><time>2026-05-01T10:56:29.75Z</time></trkpt><trkpt lat="39.387685" lon="8.4664583"><ele>483.0</ele><time>2026-05-01T10:56:30.75Z</time></trkpt><trkpt lat="39.387765" lon="8.4665383"><ele>486.75</ele><time>2026-05-01T10:56:31.75Z</time></trkpt><trkpt lat="39.3878633" lon="8.4666183"><ele>490.5</ele><time>2026-05-01T10:56:32.75Z</time></trkpt><trkpt lat="39.3879583" lon="8.466695"><ele>494.25</ele><time>2026-05-01T10:56:33.75Z</time></trkpt><trkpt lat="39.388065" lon="8.4667733"><ele>498.0</ele><time>2026-05-01T10:56:34.75Z</time></trkpt><trkpt lat="39.3881667" lon="8.46686"><ele>498.0</ele><time>2026-05-01T10:56:35.751Z</time></trkpt><trkpt lat="39.388265" lon="8.4669483"><ele>498.0</ele><time>2026-05-01T10:56:36.751Z</time></trkpt><trkpt lat="39.3883533" lon="8.46702"><ele>498.0</ele><time>2026-05-01T10:56:37.75Z</time></trkpt><trkpt lat="39.38842" lon="8.467085"><ele>498.0</ele><time>2026-05-01T10:56:38.75Z</time></trkpt><trkpt lat="39.3884833" lon="8.4671283"><ele>498.0</ele><time>2026-05-01T10:56:39.75Z</time></trkpt><trkpt lat="39.3885483" lon="8.467135"><ele>498.0</ele><time>2026-05-01T10:56:40.75Z</time></trkpt><trkpt lat="39.388635" lon="8.46712"><ele>498.0</ele><time>2026-05-01T10:56:41.75Z</time></trkpt><trkpt lat="39.38874" lon="8.4671017"><ele>498.0</ele><time>2026-05-01T10:56:42.75Z</time></trkpt><trkpt lat="39.3888583" lon="8.467085"><ele>498.0</ele><time>2026-05-01T10:56:43.751Z</time></trkpt><trkpt lat="39.3889733" lon="8.4671"><ele>498.0</ele><time>2026-05-01T10:56:44.751Z</time></trkpt><trkpt lat="39.38909" lon="8.4671117"><ele>501.8333333333333</ele><time>2026-05-01T10:56:45.75Z</time></trkpt><trkpt lat="39.3891817" lon="8.4671317"><ele>505.66666666666663</ele><time>2026-05-01T10:56:46.75Z</time></trkpt><trkpt lat="39.3892567" lon="8.4671317"><ele>509.5</ele><time>2026-05-01T10:56:47.75Z</time></trkpt><trkpt lat="39.3893217" lon="8.4671267"><ele>513.3333333333333</ele><time>2026-05-01T10:56:48.75Z</time></trkpt><trkpt lat="39.3893717" lon="8.467195"><ele>517.1666666666666</ele><time>2026-05-01T10:56:50.75Z</time></trkpt><trkpt lat="39.38934" lon="8.4672667"><ele>521.0</ele><time>2026-05-01T10:56:53.75Z</time></trkpt><trkpt lat="39.3892533" lon="8.4672483"><ele>521.0</ele><time>2026-05-01T10:56:59.75Z</time></trkpt><trkpt lat="39.3891867" lon="8.4672433"><ele>521.0</ele><time>2026-05-01T10:57:00.75Z</time></trkpt><trkpt lat="39.3890917" lon="8.4672417"><ele>521.0</ele><time>2026-05-01T10:57:01.75Z</time></trkpt><trkpt lat="39.388985" lon="8.4672483"><ele>521.0</ele><time>2026-05-01T10:57:02.751Z</time></trkpt><trkpt lat="39.3888783" lon="8.4672833"><ele>521.0</ele><time>2026-05-01T10:57:03.75Z</time></trkpt><trkpt lat="39.3887833" lon="8.4673317"><ele>521.0</ele><time>2026-05-01T10:57:04.75Z</time></trkpt><trkpt lat="39.388705" lon="8.4673733"><ele>521.0</ele><time>2026-05-01T10:57:05.75Z</time></trkpt><trkpt lat="39.3886167" lon="8.467415"><ele>521.0</ele><time>2026-05-01T10:57:07.751Z</time></trkpt><trkpt lat="39.38876" lon="8.46744"><ele>521.0</ele><time>2026-05-01T10:57:12.75Z</time></trkpt><trkpt lat="39.3888933" lon="8.4674067"><ele>521.0</ele><time>2026-05-01T10:57:14.75Z</time></trkpt><trkpt lat="39.3889917" lon="8.4674183"><ele>521.0</ele><time>2026-05-01T10:57:15.75Z</time></trkpt><trkpt lat="39.3890917" lon="8.467455"><ele>521.0</ele><time>2026-05-01T10:57:16.75Z</time></trkpt><trkpt lat="39.3891933" lon="8.4675117"><ele>521.0</ele><time>2026-05-01T10:57:17.75Z</time></trkpt><trkpt lat="39.38928" lon="8.46757"><ele>521.0</ele><time>2026-05-01T10:57:18.75Z</time></trkpt><trkpt lat="39.3893517" lon="8.4676183"><ele>521.0</ele><time>2026-05-01T10:57:19.751Z</time></trkpt><trkpt lat="39.38943" lon="8.46769"><ele>521.0</ele><time>2026-05-01T10:57:21.751Z</time></trkpt><trkpt lat="39.3893883" lon="8.4677717"><ele>521.0</ele><time>2026-05-01T10:57:24.751Z</time></trkpt><trkpt lat="39.3892933" lon="8.467745"><ele>521.0</ele><time>2026-05-01T10:57:26.75Z</time></trkpt><trkpt lat="39.3892083" lon="8.4677367"><ele>521.0</ele><time>2026-05-01T10:57:28.751Z</time></trkpt><trkpt lat="39.3891783" lon="8.467815"><ele>521.0</ele><time>2026-05-01T10:57:30.75Z</time></trkpt><trkpt lat="39.38926" lon="8.4679417"><ele>524.0</ele><time>2026-05-01T10:57:32.75Z</time></trkpt><trkpt lat="39.38935" lon="8.4680067"><ele>527.0</ele><time>2026-05-01T10:57:33.75Z</time></trkpt><trkpt lat="39.389475" lon="8.4680783"><ele>530.0</ele><time>2026-05-01T10:57:34.751Z</time></trkpt><trkpt lat="39.3895883" lon="8.4681467"><ele>533.0</ele><time>2026-05-01T10:57:35.751Z</time></trkpt><trkpt lat="39.38969" lon="8.4681967"><ele>533.0</ele><time>2026-05-01T10:57:36.75Z</time></trkpt><trkpt lat="39.3897817" lon="8.4682333"><ele>533.0</ele><time>2026-05-01T10:57:37.751Z</time></trkpt><trkpt lat="39.3899033" lon="8.4682467"><ele>533.0</ele><time>2026-05-01T10:57:38.75Z</time></trkpt><trkpt lat="39.39001" lon="8.4682617"><ele>533.0</ele><time>2026-05-01T10:57:39.75Z</time></trkpt><trkpt lat="39.3900867" lon="8.4682667"><ele>533.0</ele><time>2026-05-01T10:57:40.75Z</time></trkpt><trkpt lat="39.390135" lon="8.4683483"><ele>533.0</ele><time>2026-05-01T10:57:42.751Z</time></trkpt><trkpt lat="39.3900917" lon="8.4684617"><ele>533.0</ele><time>2026-05-01T10:57:44.75Z</time></trkpt><trkpt lat="39.3899583" lon="8.4685017"><ele>533.0</ele><time>2026-05-01T10:57:46.75Z</time></trkpt><trkpt lat="39.3898917" lon="8.4685233"><ele>533.0</ele><time>2026-05-01T10:57:47.75Z</time></trkpt><trkpt lat="39.3898383" lon="8.4685733"><ele>533.0</ele><time>2026-05-01T10:57:48.751Z</time></trkpt><trkpt lat="39.3897867" lon="8.468645"><ele>533.0</ele><time>2026-05-01T10:57:49.75Z</time></trkpt><trkpt lat="39.389735" lon="8.468745"><ele>531.1999999999999</ele><time>2026-05-01T10:57:50.75Z</time></trkpt><trkpt lat="39.3896783" lon="8.4688517"><ele>529.4</ele><time>2026-05-01T10:57:51.75Z</time></trkpt><trkpt lat="39.3896233" lon="8.468945"><ele>527.5999999999999</ele><time>2026-05-01T10:57:52.75Z</time></trkpt><trkpt lat="39.389575" lon="8.4690817"><ele>525.8</ele><time>2026-05-01T10:57:53.75Z</time></trkpt><trkpt lat="39.38953" lon="8.4692233"><ele>524.0</ele><time>2026-05-01T10:57:54.751Z</time></trkpt><trkpt lat="39.3894917" lon="8.4693717"><ele>523.6</ele><time>2026-05-01T10:57:55.75Z</time></trkpt><trkpt lat="39.38945" lon="8.46951"><ele>523.2</ele><time>2026-05-01T10:57:56.751Z</time></trkpt><trkpt lat="39.3894183" lon="8.4696383"><ele>522.8000000000001</ele><time>2026-05-01T10:57:57.75Z</time></trkpt><trkpt lat="39.3893783" lon="8.4697567"><ele>522.4</ele><time>2026-05-01T10:57:58.75Z</time></trkpt><trkpt lat="39.38933" lon="8.4698333"><ele>522.0</ele><time>2026-05-01T10:57:59.75Z</time></trkpt><trkpt lat="39.3892633" lon="8.46988"><ele>522.0</ele><time>2026-05-01T10:58:00.75Z</time></trkpt><trkpt lat="39.38918" lon="8.4698983"><ele>522.0</ele><time>2026-05-01T10:58:01.751Z</time></trkpt><trkpt lat="39.3890883" lon="8.4698917"><ele>522.0</ele><time>2026-05-01T10:58:02.751Z</time></trkpt><trkpt lat="39.3890067" lon="8.4698617"><ele>522.0</ele><time>2026-05-01T10:58:03.75Z</time></trkpt><trkpt lat="39.3889433" lon="8.469805"><ele>522.0</ele><time>2026-05-01T10:58:04.75Z</time></trkpt><trkpt lat="39.3888733" lon="8.4697183"><ele>522.0</ele><time>2026-05-01T10:58:05.75Z</time></trkpt><trkpt lat="39.3887933" lon="8.4696233"><ele>526.8000000000001</ele><time>2026-05-01T10:58:06.751Z</time></trkpt><trkpt lat="39.388685" lon="8.46955"><ele>531.6</ele><time>2026-05-01T10:58:07.751Z</time></trkpt><trkpt lat="39.3885833" lon="8.4694983"><ele>536.4000000000001</ele><time>2026-05-01T10:58:08.751Z</time></trkpt><trkpt lat="39.3884933" lon="8.469465"><ele>541.2</ele><time>2026-05-01T10:58:09.751Z</time></trkpt><trkpt lat="39.38841" lon="8.4694483"><ele>546.0</ele><time>2026-05-01T10:58:10.751Z</time></trkpt><trkpt lat="39.38832" lon="8.4694383"><ele>546.0</ele><time>2026-05-01T10:58:11.75Z</time></trkpt><trkpt lat="39.38824" lon="8.46946"><ele>546.0</ele><time>2026-05-01T10:58:12.75Z</time></trkpt><trkpt lat="39.3881583" lon="8.4694883"><ele>546.0</ele><time>2026-05-01T10:58:13.749Z</time></trkpt><trkpt lat="39.388075" lon="8.4695333"><ele>546.0</ele><time>2026-05-01T10:58:14.75Z</time></trkpt><trkpt lat="39.38798" lon="8.4695917"><ele>546.0</ele><time>2026-05-01T10:58:15.749Z</time></trkpt><trkpt lat="39.387885" lon="8.469655"><ele>545.5</ele><time>2026-05-01T10:58:16.749Z</time></trkpt><trkpt lat="39.3878067" lon="8.4697133"><ele>545.0</ele><time>2026-05-01T10:58:17.75Z</time></trkpt><trkpt lat="39.3877367" lon="8.469765"><ele>544.5</ele><time>2026-05-01T10:58:18.749Z</time></trkpt><trkpt lat="39.3876617" lon="8.4698133"><ele>544.0</ele><time>2026-05-01T10:58:19.749Z</time></trkpt><trkpt lat="39.3875917" lon="8.4698583"><ele>543.5</ele><time>2026-05-01T10:58:20.749Z</time></trkpt><trkpt lat="39.3875317" lon="8.4699167"><ele>543.0</ele><time>2026-05-01T10:58:21.749Z</time></trkpt><trkpt lat="39.3874867" lon="8.4699883"><ele>543.0</ele><time>2026-05-01T10:58:22.749Z</time></trkpt><trkpt lat="39.387455" lon="8.470065"><ele>543.0</ele><time>2026-05-01T10:58:23.749Z</time></trkpt><trkpt lat="39.3874733" lon="8.4702233"><ele>543.0</ele><time>2026-05-01T10:58:25.749Z</time></trkpt><trkpt lat="39.3875283" lon="8.4703367"><ele>543.0</ele><time>2026-05-01T10:58:26.75Z</time></trkpt><trkpt lat="39.3875967" lon="8.4704533"><ele>543.0</ele><time>2026-05-01T10:58:27.75Z</time></trkpt><trkpt lat="39.3876467" lon="8.4705567"><ele>542.1666666666666</ele><time>2026-05-01T10:58:28.75Z</time></trkpt><trkpt lat="39.3876733" lon="8.4706633"><ele>541.3333333333334</ele><time>2026-05-01T10:58:29.749Z</time></trkpt><trkpt lat="39.3876833" lon="8.47076"><ele>540.5</ele><time>2026-05-01T10:58:30.749Z</time></trkpt><trkpt lat="39.3876817" lon="8.4708767"><ele>539.6666666666667</ele><time>2026-05-01T10:58:31.749Z</time></trkpt><trkpt lat="39.3876867" lon="8.470965"><ele>538.8333333333334</ele><time>2026-05-01T10:58:32.749Z</time></trkpt><trkpt lat="39.3876633" lon="8.471075"><ele>538.0</ele><time>2026-05-01T10:58:33.75Z</time></trkpt><trkpt lat="39.3876133" lon="8.4711667"><ele>538.0</ele><time>2026-05-01T10:58:34.749Z</time></trkpt><trkpt lat="39.3875417" lon="8.4712483"><ele>538.0</ele><time>2026-05-01T10:58:35.749Z</time></trkpt><trkpt lat="39.3874533" lon="8.471335"><ele>538.0</ele><time>2026-05-01T10:58:36.749Z</time></trkpt><trkpt lat="39.38735" lon="8.4714267"><ele>538.0</ele><time>2026-05-01T10:58:37.749Z</time></trkpt><trkpt lat="39.3872333" lon="8.471525"><ele>537.4</ele><time>2026-05-01T10:58:38.749Z</time></trkpt><trkpt lat="39.3871183" lon="8.4716167"><ele>536.8</ele><time>2026-05-01T10:58:39.75Z</time></trkpt><trkpt lat="39.38703" lon="8.4717"><ele>536.2</ele><time>2026-05-01T10:58:40.749Z</time></trkpt><trkpt lat="39.386965" lon="8.4717533"><ele>535.6</ele><time>2026-05-01T10:58:41.749Z</time></trkpt><trkpt lat="39.3868967" lon="8.47178"><ele>535.0</ele><time>2026-05-01T10:58:42.749Z</time></trkpt><trkpt lat="39.386815" lon="8.47177"><ele>535.0</ele><time>2026-05-01T10:58:43.749Z</time></trkpt><trkpt lat="39.386715" lon="8.4717433"><ele>535.0</ele><time>2026-05-01T10:58:44.75Z</time></trkpt><trkpt lat="39.38661" lon="8.4717167"><ele>535.0</ele><time>2026-05-01T10:58:45.75Z</time></trkpt><trkpt lat="39.3865133" lon="8.4716917"><ele>535.0</ele><time>2026-05-01T10:58:46.75Z</time></trkpt><trkpt lat="39.386425" lon="8.4716433"><ele>535.0</ele><time>2026-05-01T10:58:47.749Z</time></trkpt><trkpt lat="39.3863417" lon="8.47159"><ele>535.8333333333334</ele><time>2026-05-01T10:58:48.749Z</time></trkpt><trkpt lat="39.3862617" lon="8.4715517"><ele>536.6666666666667</ele><time>2026-05-01T10:58:49.749Z</time></trkpt><trkpt lat="39.38618" lon="8.4715317"><ele>537.5</ele><time>2026-05-01T10:58:50.749Z</time></trkpt><trkpt lat="39.3860967" lon="8.47154"><ele>538.3333333333334</ele><time>2026-05-01T10:58:51.75Z</time></trkpt><trkpt lat="39.3860133" lon="8.4715833"><ele>539.1666666666666</ele><time>2026-05-01T10:58:52.749Z</time></trkpt><trkpt lat="39.3859267" lon="8.4716117"><ele>540.0</ele><time>2026-05-01T10:58:53.749Z</time></trkpt><trkpt lat="39.38585" lon="8.4716333"><ele>540.0</ele><time>2026-05-01T10:58:54.75Z</time></trkpt><trkpt lat="39.3857583" lon="8.471695"><ele>540.0</ele><time>2026-05-01T10:58:56.749Z</time></trkpt><trkpt lat="39.3857183" lon="8.4718283"><ele>540.0</ele><time>2026-05-01T10:58:58.75Z</time></trkpt><trkpt lat="39.3857033" lon="8.47192"><ele>540.0</ele><time>2026-05-01T10:58:59.749Z</time></trkpt><trkpt lat="39.38567" lon="8.4719917"><ele>540.0</ele><time>2026-05-01T10:59:00.75Z</time></trkpt><trkpt lat="39.3856117" lon="8.472045"><ele>540.0</ele><time>2026-05-01T10:59:01.749Z</time></trkpt><trkpt lat="39.385535" lon="8.472075"><ele>537.5</ele><time>2026-05-01T10:59:02.749Z</time></trkpt><trkpt lat="39.385465" lon="8.4721083"><ele>535.0</ele><time>2026-05-01T10:59:03.75Z</time></trkpt><trkpt lat="39.3854067" lon="8.4721433"><ele>532.5</ele><time>2026-05-01T10:59:04.749Z</time></trkpt><trkpt lat="39.3853533" lon="8.4722167"><ele>530.0</ele><time>2026-05-01T10:59:05.749Z</time></trkpt><trkpt lat="39.3853017" lon="8.4722717"><ele>527.5</ele><time>2026-05-01T10:59:06.75Z</time></trkpt><trkpt lat="39.385205" lon="8.47228"><ele>525.0</ele><time>2026-05-01T10:59:08.749Z</time></trkpt><trkpt lat="39.38511" lon="8.47215"><ele>529.8</ele><time>2026-05-01T10:59:10.749Z</time></trkpt><trkpt lat="39.38506" lon="8.4720683"><ele>534.6</ele><time>2026-05-01T10:59:11.75Z</time></trkpt><trkpt lat="39.38499" lon="8.4720017"><ele>539.4</ele><time>2026-05-01T10:59:12.749Z</time></trkpt><trkpt lat="39.3848867" lon="8.47196"><ele>544.2</ele><time>2026-05-01T10:59:13.75Z</time></trkpt><trkpt lat="39.3847683" lon="8.4719467"><ele>549.0</ele><time>2026-05-01T10:59:14.749Z</time></trkpt><trkpt lat="39.3846683" lon="8.4719367"><ele>550.5</ele><time>2026-05-01T10:59:15.749Z</time></trkpt><trkpt lat="39.3845933" lon="8.4719417"><ele>552.0</ele><time>2026-05-01T10:59:16.749Z</time></trkpt><trkpt lat="39.3845233" lon="8.47197"><ele>553.5</ele><time>2026-05-01T10:59:17.75Z</time></trkpt><trkpt lat="39.38446" lon="8.4720433"><ele>555.0</ele><time>2026-05-01T10:59:18.749Z</time></trkpt><trkpt lat="39.3843933" lon="8.47213"><ele>556.5</ele><time>2026-05-01T10:59:19.75Z</time></trkpt><trkpt lat="39.3843217" lon="8.47224"><ele>558.0</ele><time>2026-05-01T10:59:20.749Z</time></trkpt><trkpt lat="39.3842567" lon="8.4723167"><ele>554.0</ele><time>2026-05-01T10:59:21.75Z</time></trkpt><trkpt lat="39.3841717" lon="8.4723983"><ele>550.0</ele><time>2026-05-01T10:59:22.75Z</time></trkpt><trkpt lat="39.384095" lon="8.4724633"><ele>546.0</ele><time>2026-05-01T10:59:23.75Z</time></trkpt><trkpt lat="39.3840267" lon="8.4724867"><ele>542.0</ele><time>2026-05-01T10:59:24.75Z</time></trkpt><trkpt lat="39.3839583" lon="8.4724733"><ele>538.0</ele><time>2026-05-01T10:59:25.75Z</time></trkpt><trkpt lat="39.3838967" lon="8.472425"><ele>534.0</ele><time>2026-05-01T10:59:26.749Z</time></trkpt><trkpt lat="39.3838383" lon="8.4723483"><ele>534.0</ele><time>2026-05-01T10:59:27.749Z</time></trkpt><trkpt lat="39.3837767" lon="8.4722533"><ele>534.0</ele><time>2026-05-01T10:59:28.749Z</time></trkpt><trkpt lat="39.383725" lon="8.4721367"><ele>534.0</ele><time>2026-05-01T10:59:29.749Z</time></trkpt><trkpt lat="39.3836783" lon="8.47203"><ele>534.0</ele><time>2026-05-01T10:59:30.749Z</time></trkpt><trkpt lat="39.3836283" lon="8.4719533"><ele>534.0</ele><time>2026-05-01T10:59:31.749Z</time></trkpt><trkpt lat="39.3835733" lon="8.4718917"><ele>534.0</ele><time>2026-05-01T10:59:32.75Z</time></trkpt><trkpt lat="39.3835233" lon="8.4718317"><ele>538.0</ele><time>2026-05-01T10:59:33.749Z</time></trkpt><trkpt lat="39.38347" lon="8.4717783"><ele>542.0</ele><time>2026-05-01T10:59:34.749Z</time></trkpt><trkpt lat="39.3833617" lon="8.47175"><ele>546.0</ele><time>2026-05-01T10:59:36.749Z</time></trkpt><trkpt lat="39.3832917" lon="8.4718033"><ele>550.0</ele><time>2026-05-01T10:59:38.75Z</time></trkpt><trkpt lat="39.383235" lon="8.4719367"><ele>554.0</ele><time>2026-05-01T10:59:40.749Z</time></trkpt><trkpt lat="39.3831817" lon="8.4719967"><ele>558.0</ele><time>2026-05-01T10:59:41.75Z</time></trkpt><trkpt lat="39.3831117" lon="8.4720367"><ele>558.0</ele><time>2026-05-01T10:59:42.749Z</time></trkpt><trkpt lat="39.3830283" lon="8.4720533"><ele>558.0</ele><time>2026-05-01T10:59:43.749Z</time></trkpt><trkpt lat="39.3829367" lon="8.472045"><ele>558.0</ele><time>2026-05-01T10:59:44.749Z</time></trkpt><trkpt lat="39.38284" lon="8.4720367"><ele>558.0</ele><time>2026-05-01T10:59:45.749Z</time></trkpt><trkpt lat="39.3827517" lon="8.4720367"><ele>558.0</ele><time>2026-05-01T10:59:46.749Z</time></trkpt><trkpt lat="39.382665" lon="8.47203"><ele>558.0</ele><time>2026-05-01T10:59:47.75Z</time></trkpt><trkpt lat="39.3825783" lon="8.4720117"><ele>559.1999999999999</ele><time>2026-05-01T10:59:48.749Z</time></trkpt><trkpt lat="39.38248" lon="8.4719983"><ele>560.4</ele><time>2026-05-01T10:59:49.75Z</time></trkpt><trkpt lat="39.3823717" lon="8.471985"><ele>561.5999999999999</ele><time>2026-05-01T10:59:50.749Z</time></trkpt><trkpt lat="39.3822633" lon="8.4719733"><ele>562.8</ele><time>2026-05-01T10:59:51.749Z</time></trkpt><trkpt lat="39.3821717" lon="8.4719483"><ele>564.0</ele><time>2026-05-01T10:59:52.75Z</time></trkpt><trkpt lat="39.3820883" lon="8.4719383"><ele>564.8</ele><time>2026-05-01T10:59:53.75Z</time></trkpt><trkpt lat="39.382005" lon="8.471945"><ele>565.5999999999999</ele><time>2026-05-01T10:59:54.749Z</time></trkpt><trkpt lat="39.3819183" lon="8.4719683"><ele>566.4</ele><time>2026-05-01T10:59:55.749Z</time></trkpt><trkpt lat="39.381825" lon="8.4720167"><ele>567.1999999999999</ele><time>2026-05-01T10:59:56.749Z</time></trkpt><trkpt lat="39.38173" lon="8.472085"><ele>568.0</ele><time>2026-05-01T10:59:57.749Z</time></trkpt><trkpt lat="39.3816367" lon="8.4721433"><ele>565.3333333333334</ele><time>2026-05-01T10:59:58.75Z</time></trkpt><trkpt lat="39.38155" lon="8.4722133"><ele>562.6666666666667</ele><time>2026-05-01T10:59:59.749Z</time></trkpt><trkpt lat="39.381475" lon="8.4723017"><ele>560.0</ele><time>2026-05-01T11:00:00.749Z</time></trkpt><trkpt lat="39.3814117" lon="8.4723833"><ele>557.3333333333334</ele><time>2026-05-01T11:00:01.749Z</time></trkpt><trkpt lat="39.38136" lon="8.4724483"><ele>554.6666666666666</ele><time>2026-05-01T11:00:02.749Z</time></trkpt><trkpt lat="39.3813183" lon="8.47254"><ele>552.0</ele><time>2026-05-01T11:00:03.749Z</time></trkpt><trkpt lat="39.3812833" lon="8.4726283"><ele>552.0</ele><time>2026-05-01T11:00:04.749Z</time></trkpt><trkpt lat="39.3811733" lon="8.4727217"><ele>552.0</ele><time>2026-05-01T11:00:06.749Z</time></trkpt><trkpt lat="39.3810817" lon="8.4727483"><ele>552.0</ele><time>2026-05-01T11:00:07.75Z</time></trkpt><trkpt lat="39.3809967" lon="8.4727617"><ele>552.0</ele><time>2026-05-01T11:00:08.749Z</time></trkpt><trkpt lat="39.38093" lon="8.47278"><ele>552.0</ele><time>2026-05-01T11:00:09.749Z</time></trkpt><trkpt lat="39.380865" lon="8.4728267"><ele>552.0</ele><time>2026-05-01T11:00:10.75Z</time></trkpt><trkpt lat="39.3807833" lon="8.47292"><ele>552.0</ele><time>2026-05-01T11:00:11.749Z</time></trkpt><trkpt lat="39.38071" lon="8.473005"><ele>552.0</ele><time>2026-05-01T11:00:12.749Z</time></trkpt><trkpt lat="39.3806467" lon="8.473065"><ele>552.0</ele><time>2026-05-01T11:00:13.749Z</time></trkpt><trkpt lat="39.3805733" lon="8.473085"><ele>552.0</ele><time>2026-05-01T11:00:14.75Z</time></trkpt><trkpt lat="39.38049" lon="8.4730983"><ele>552.0</ele><time>2026-05-01T11:00:15.75Z</time></trkpt><trkpt lat="39.380405" lon="8.4731117"><ele>549.0</ele><time>2026-05-01T11:00:16.75Z</time></trkpt><trkpt lat="39.38032" lon="8.47313"><ele>546.0</ele><time>2026-05-01T11:00:17.749Z</time></trkpt><trkpt lat="39.38023" lon="8.47316"><ele>543.0</ele><time>2026-05-01T11:00:18.749Z</time></trkpt><trkpt lat="39.3801183" lon="8.4732083"><ele>540.0</ele><time>2026-05-01T11:00:19.75Z</time></trkpt><trkpt lat="39.3800133" lon="8.4732283"><ele>537.0</ele><time>2026-05-01T11:00:20.749Z</time></trkpt><trkpt lat="39.3799183" lon="8.4732317"><ele>537.0</ele><time>2026-05-01T11:00:21.75Z</time></trkpt><trkpt lat="39.3798233" lon="8.4732383"><ele>537.0</ele><time>2026-05-01T11:00:22.749Z</time></trkpt><trkpt lat="39.3797317" lon="8.4732567"><ele>537.0</ele><time>2026-05-01T11:00:23.75Z</time></trkpt><trkpt lat="39.3796483" lon="8.4732667"><ele>537.0</ele><time>2026-05-01T11:00:24.75Z</time></trkpt><trkpt lat="39.379565" lon="8.4733083"><ele>537.0</ele><time>2026-05-01T11:00:25.749Z</time></trkpt><trkpt lat="39.379485" lon="8.4733617"><ele>538.8333333333334</ele><time>2026-05-01T11:00:26.75Z</time></trkpt><trkpt lat="39.3794133" lon="8.4734183"><ele>540.6666666666666</ele><time>2026-05-01T11:00:27.749Z</time></trkpt><trkpt lat="39.37935" lon="8.4734833"><ele>542.5</ele><time>2026-05-01T11:00:28.749Z</time></trkpt><trkpt lat="39.379285" lon="8.4735433"><ele>544.3333333333333</ele><time>2026-05-01T11:00:29.75Z</time></trkpt><trkpt lat="39.3792217" lon="8.473575"><ele>546.1666666666666</ele><time>2026-05-01T11:00:30.75Z</time></trkpt><trkpt lat="39.37915" lon="8.4736017"><ele>548.0</ele><time>2026-05-01T11:00:31.75Z</time></trkpt><trkpt lat="39.379075" lon="8.4736117"><ele>548.0</ele><time>2026-05-01T11:00:32.75Z</time></trkpt><trkpt lat="39.379005" lon="8.4736117"><ele>548.0</ele><time>2026-05-01T11:00:33.749Z</time></trkpt><trkpt lat="39.3789317" lon="8.473605"><ele>548.0</ele><time>2026-05-01T11:00:34.749Z</time></trkpt><trkpt lat="39.3788433" lon="8.4735867"><ele>548.0</ele><time>2026-05-01T11:00:35.749Z</time></trkpt><trkpt lat="39.3787567" lon="8.4735633"><ele>548.0</ele><time>2026-05-01T11:00:36.749Z</time></trkpt><trkpt lat="39.37868" lon="8.473585"><ele>548.0</ele><time>2026-05-01T11:00:37.749Z</time></trkpt><trkpt lat="39.3785967" lon="8.4736217"><ele>549.8</ele><time>2026-05-01T11:00:39.749Z</time></trkpt><trkpt lat="39.3785633" lon="8.4737067"><ele>551.5999999999999</ele><time>2026-05-01T11:00:40.749Z</time></trkpt><trkpt lat="39.37855" lon="8.4738217"><ele>553.4000000000001</ele><time>2026-05-01T11:00:41.75Z</time></trkpt><trkpt lat="39.3785617" lon="8.4739533"><ele>555.2</ele><time>2026-05-01T11:00:42.749Z</time></trkpt><trkpt lat="39.3785833" lon="8.47408"><ele>557.0</ele><time>2026-05-01T11:00:43.749Z</time></trkpt><trkpt lat="39.3786117" lon="8.4741867"><ele>557.0</ele><time>2026-05-01T11:00:44.75Z</time></trkpt><trkpt lat="39.378655" lon="8.4742933"><ele>557.0</ele><time>2026-05-01T11:00:45.749Z</time></trkpt><trkpt lat="39.3786983" lon="8.4743983"><ele>557.0</ele><time>2026-05-01T11:00:46.749Z</time></trkpt><trkpt lat="39.378755" lon="8.4745067"><ele>557.0</ele><time>2026-05-01T11:00:47.749Z</time></trkpt><trkpt lat="39.3788167" lon="8.4746217"><ele>557.0</ele><time>2026-05-01T11:00:48.749Z</time></trkpt><trkpt lat="39.3788833" lon="8.4747217"><ele>551.4</ele><time>2026-05-01T11:00:49.75Z</time></trkpt><trkpt lat="39.3789533" lon="8.4748133"><ele>545.8000000000001</ele><time>2026-05-01T11:00:50.75Z</time></trkpt><trkpt lat="39.3790233" lon="8.4748967"><ele>540.2</ele><time>2026-05-01T11:00:51.749Z</time></trkpt><trkpt lat="39.3790983" lon="8.47497"><ele>534.6</ele><time>2026-05-01T11:00:52.749Z</time></trkpt><trkpt lat="39.3791583" lon="8.4750483"><ele>529.0</ele><time>2026-05-01T11:00:53.749Z</time></trkpt><trkpt lat="39.3792067" lon="8.47519"><ele>529.0</ele><time>2026-05-01T11:00:55.749Z</time></trkpt><trkpt lat="39.379215" lon="8.4752783"><ele>529.0</ele><time>2026-05-01T11:00:56.749Z</time></trkpt><trkpt lat="39.3791967" lon="8.4753633"><ele>529.0</ele><time>2026-05-01T11:00:57.75Z</time></trkpt><trkpt lat="39.3791033" lon="8.47547"><ele>529.0</ele><time>2026-05-01T11:00:59.749Z</time></trkpt><trkpt lat="39.379015" lon="8.47553"><ele>529.0</ele><time>2026-05-01T11:01:00.749Z</time></trkpt><trkpt lat="39.3789117" lon="8.4755833"><ele>530.4</ele><time>2026-05-01T11:01:01.75Z</time></trkpt><trkpt lat="39.3788317" lon="8.4756183"><ele>531.8</ele><time>2026-05-01T11:01:02.749Z</time></trkpt><trkpt lat="39.3787083" lon="8.47564"><ele>533.2</ele><time>2026-05-01T11:01:04.749Z</time></trkpt><trkpt lat="39.3786217" lon="8.4756533"><ele>534.6</ele><time>2026-05-01T11:01:05.748Z</time></trkpt><trkpt lat="39.37852" lon="8.4756633"><ele>536.0</ele><time>2026-05-01T11:01:06.748Z</time></trkpt><trkpt lat="39.3784133" lon="8.47569"><ele>536.0</ele><time>2026-05-01T11:01:07.748Z</time></trkpt><trkpt lat="39.3783067" lon="8.4757417"><ele>536.0</ele><time>2026-05-01T11:01:08.749Z</time></trkpt><trkpt lat="39.3782033" lon="8.475805"><ele>536.0</ele><time>2026-05-01T11:01:09.748Z</time></trkpt><trkpt lat="39.3781083" lon="8.4758567"><ele>536.0</ele><time>2026-05-01T11:01:10.748Z</time></trkpt><trkpt lat="39.3780067" lon="8.4758917"><ele>536.0</ele><time>2026-05-01T11:01:11.748Z</time></trkpt><trkpt lat="39.3779083" lon="8.4759083"><ele>539.6</ele><time>2026-05-01T11:01:12.748Z</time></trkpt><trkpt lat="39.377805" lon="8.4759083"><ele>543.2</ele><time>2026-05-01T11:01:13.748Z</time></trkpt><trkpt lat="39.377705" lon="8.4759"><ele>546.8</ele><time>2026-05-01T11:01:14.748Z</time></trkpt><trkpt lat="39.3776183" lon="8.4758967"><ele>550.4</ele><time>2026-05-01T11:01:15.749Z</time></trkpt><trkpt lat="39.3775467" lon="8.4759067"><ele>554.0</ele><time>2026-05-01T11:01:16.749Z</time></trkpt><trkpt lat="39.3774617" lon="8.476"><ele>554.0</ele><time>2026-05-01T11:01:18.748Z</time></trkpt><trkpt lat="39.3774833" lon="8.4761817"><ele>554.0</ele><time>2026-05-01T11:01:20.748Z</time></trkpt><trkpt lat="39.37753" lon="8.4763017"><ele>554.0</ele><time>2026-05-01T11:01:21.748Z</time></trkpt><trkpt lat="39.3775667" lon="8.4764317"><ele>554.0</ele><time>2026-05-01T11:01:22.748Z</time></trkpt><trkpt lat="39.3775867" lon="8.4765467"><ele>554.0</ele><time>2026-05-01T11:01:23.748Z</time></trkpt><trkpt lat="39.377595" lon="8.476655"><ele>550.6</ele><time>2026-05-01T11:01:24.748Z</time></trkpt><trkpt lat="39.3775817" lon="8.4767633"><ele>547.2</ele><time>2026-05-01T11:01:25.748Z</time></trkpt><trkpt lat="39.3775417" lon="8.47687"><ele>543.8000000000001</ele><time>2026-05-01T11:01:26.749Z</time></trkpt><trkpt lat="39.3774783" lon="8.4769633"><ele>540.4</ele><time>2026-05-01T11:01:27.749Z</time></trkpt><trkpt lat="39.37741" lon="8.4770383"><ele>537.0</ele><time>2026-05-01T11:01:28.748Z</time></trkpt><trkpt lat="39.3773233" lon="8.4771083"><ele>539.2</ele><time>2026-05-01T11:01:29.749Z</time></trkpt><trkpt lat="39.3772317" lon="8.477185"><ele>541.4000000000001</ele><time>2026-05-01T11:01:30.748Z</time></trkpt><trkpt lat="39.3771383" lon="8.4772633"><ele>543.5999999999999</ele><time>2026-05-01T11:01:31.749Z</time></trkpt><trkpt lat="39.3770517" lon="8.4773267"><ele>545.8</ele><time>2026-05-01T11:01:32.748Z</time></trkpt><trkpt lat="39.3769717" lon="8.4773883"><ele>548.0</ele><time>2026-05-01T11:01:33.748Z</time></trkpt><trkpt lat="39.376895" lon="8.4774467"><ele>548.0</ele><time>2026-05-01T11:01:34.748Z</time></trkpt><trkpt lat="39.3768083" lon="8.4775133"><ele>548.0</ele><time>2026-05-01T11:01:35.748Z</time></trkpt><trkpt lat="39.376715" lon="8.4775833"><ele>548.0</ele><time>2026-05-01T11:01:36.749Z</time></trkpt><trkpt lat="39.37664" lon="8.47766"><ele>548.0</ele><time>2026-05-01T11:01:37.748Z</time></trkpt><trkpt lat="39.3765833" lon="8.4777283"><ele>548.0</ele><time>2026-05-01T11:01:38.748Z</time></trkpt><trkpt lat="39.3765317" lon="8.477795"><ele>548.0</ele><time>2026-05-01T11:01:39.748Z</time></trkpt><trkpt lat="39.3764817" lon="8.477865"><ele>548.0</ele><time>2026-05-01T11:01:40.748Z</time></trkpt><trkpt lat="39.3764333" lon="8.477925"><ele>548.0</ele><time>2026-05-01T11:01:41.749Z</time></trkpt><trkpt lat="39.3763533" lon="8.4780533"><ele>548.0</ele><time>2026-05-01T11:01:43.749Z</time></trkpt><trkpt lat="39.376315" lon="8.47812"><ele>548.0</ele><time>2026-05-01T11:01:44.748Z</time></trkpt><trkpt lat="39.376285" lon="8.478195"><ele>548.0</ele><time>2026-05-01T11:01:45.748Z</time></trkpt><trkpt lat="39.3762567" lon="8.4783483"><ele>545.6666666666666</ele><time>2026-05-01T11:01:47.749Z</time></trkpt><trkpt lat="39.376285" lon="8.4784767"><ele>543.3333333333333</ele><time>2026-05-01T11:01:49.748Z</time></trkpt><trkpt lat="39.3763667" lon="8.47854"><ele>541.0</ele><time>2026-05-01T11:01:51.748Z</time></trkpt><trkpt lat="39.376435" lon="8.4785333"><ele>538.6666666666666</ele><time>2026-05-01T11:01:52.748Z</time></trkpt><trkpt lat="39.3765067" lon="8.4785267"><ele>536.3333333333334</ele><time>2026-05-01T11:01:53.749Z</time></trkpt><trkpt lat="39.3765867" lon="8.4785433"><ele>534.0</ele><time>2026-05-01T11:01:55.748Z</time></trkpt><trkpt lat="39.3766517" lon="8.4785867"><ele>534.0</ele><time>2026-05-01T11:01:57.748Z</time></trkpt><trkpt lat="39.3767417" lon="8.4786517"><ele>534.0</ele><time>2026-05-01T11:01:59.748Z</time></trkpt><trkpt lat="39.3767933" lon="8.478705"><ele>534.0</ele><time>2026-05-01T11:02:00.748Z</time></trkpt><trkpt lat="39.3768367" lon="8.4787817"><ele>534.0</ele><time>2026-05-01T11:02:01.748Z</time></trkpt><trkpt lat="39.3768767" lon="8.4788633"><ele>534.0</ele><time>2026-05-01T11:02:02.748Z</time></trkpt><trkpt lat="39.37691" lon="8.4789433"><ele>534.0</ele><time>2026-05-01T11:02:03.749Z</time></trkpt><trkpt lat="39.37694" lon="8.4790183"><ele>536.8</ele><time>2026-05-01T11:02:04.748Z</time></trkpt><trkpt lat="39.3769967" lon="8.4791317"><ele>539.5999999999999</ele><time>2026-05-01T11:02:06.748Z</time></trkpt><trkpt lat="39.3770717" lon="8.4792"><ele>542.4</ele><time>2026-05-01T11:02:08.749Z</time></trkpt><trkpt lat="39.3771883" lon="8.4791783"><ele>545.1999999999999</ele><time>2026-05-01T11:02:10.749Z</time></trkpt><trkpt lat="39.3772517" lon="8.47914"><ele>548.0</ele><time>2026-05-01T11:02:11.748Z</time></trkpt><trkpt lat="39.3773583" lon="8.4790917"><ele>548.0000000000001</ele><time>2026-05-01T11:02:13.748Z</time></trkpt><trkpt lat="39.3774667" lon="8.4790967"><ele>548.0</ele><time>2026-05-01T11:02:15.748Z</time></trkpt><trkpt lat="39.3775317" lon="8.4790983"><ele>548.0</ele><time>2026-05-01T11:02:16.748Z</time></trkpt><trkpt lat="39.3776033" lon="8.479095"><ele>548.0</ele><time>2026-05-01T11:02:17.749Z</time></trkpt><trkpt lat="39.3776717" lon="8.4790767"><ele>548.0</ele><time>2026-05-01T11:02:18.748Z</time></trkpt><trkpt lat="39.3777317" lon="8.4790517"><ele>548.0000000000001</ele><time>2026-05-01T11:02:19.748Z</time></trkpt><trkpt lat="39.3777967" lon="8.4790317"><ele>548.0</ele><time>2026-05-01T11:02:20.749Z</time></trkpt><trkpt lat="39.37786" lon="8.4790167"><ele>548.0000000000001</ele><time>2026-05-01T11:02:21.749Z</time></trkpt><trkpt lat="39.37793" lon="8.47899"><ele>548.0</ele><time>2026-05-01T11:02:22.748Z</time></trkpt><trkpt lat="39.3779967" lon="8.4789517"><ele>548.0</ele><time>2026-05-01T11:02:23.748Z</time></trkpt><trkpt lat="39.378065" lon="8.4789067"><ele>548.0</ele><time>2026-05-01T11:02:24.749Z</time></trkpt><trkpt lat="39.3781317" lon="8.4788583"><ele>548.0</ele><time>2026-05-01T11:02:25.748Z</time></trkpt><trkpt lat="39.3782" lon="8.47883"><ele>548.0000000000001</ele><time>2026-05-01T11:02:26.748Z</time></trkpt><trkpt lat="39.3782717" lon="8.4788183"><ele>548.0</ele><time>2026-05-01T11:02:27.748Z</time></trkpt><trkpt lat="39.3783483" lon="8.4788083"><ele>547.6666666666666</ele><time>2026-05-01T11:02:28.748Z</time></trkpt><trkpt lat="39.3784267" lon="8.4788017"><ele>547.3333333333333</ele><time>2026-05-01T11:02:29.748Z</time></trkpt><trkpt lat="39.3785217" lon="8.4788"><ele>547.0</ele><time>2026-05-01T11:02:30.748Z</time></trkpt><trkpt lat="39.3786067" lon="8.4787967"><ele>546.6666666666666</ele><time>2026-05-01T11:02:31.749Z</time></trkpt><trkpt lat="39.378695" lon="8.4787967"><ele>546.3333333333334</ele><time>2026-05-01T11:02:32.748Z</time></trkpt><trkpt lat="39.3787783" lon="8.4788083"><ele>546.0</ele><time>2026-05-01T11:02:33.748Z</time></trkpt><trkpt lat="39.3788517" lon="8.478815"><ele>546.0</ele><time>2026-05-01T11:02:34.748Z</time></trkpt><trkpt lat="39.3789283" lon="8.478825"><ele>546.0</ele><time>2026-05-01T11:02:35.748Z</time></trkpt><trkpt lat="39.3790083" lon="8.47884"><ele>546.0</ele><time>2026-05-01T11:02:36.749Z</time></trkpt><trkpt lat="39.379095" lon="8.4788467"><ele>546.0</ele><time>2026-05-01T11:02:37.749Z</time></trkpt><trkpt lat="39.3791867" lon="8.4788567"><ele>546.0</ele><time>2026-05-01T11:02:38.749Z</time></trkpt><trkpt lat="39.3792717" lon="8.4788733"><ele>546.0</ele><time>2026-05-01T11:02:39.748Z</time></trkpt><trkpt lat="39.37936" lon="8.4788917"><ele>546.0</ele><time>2026-05-01T11:02:40.748Z</time></trkpt><trkpt lat="39.379445" lon="8.4789217"><ele>546.0</ele><time>2026-05-01T11:02:41.748Z</time></trkpt><trkpt lat="39.3795183" lon="8.4789633"><ele>546.0</ele><time>2026-05-01T11:02:42.749Z</time></trkpt><trkpt lat="39.3795783" lon="8.479"><ele>546.0</ele><time>2026-05-01T11:02:43.748Z</time></trkpt><trkpt lat="39.379655" lon="8.47913"><ele>546.0</ele><time>2026-05-01T11:02:45.748Z</time></trkpt><trkpt lat="39.379675" lon="8.4792167"><ele>546.0</ele><time>2026-05-01T11:02:46.748Z</time></trkpt><trkpt lat="39.3796717" lon="8.4793683"><ele>546.0</ele><time>2026-05-01T11:02:48.749Z</time></trkpt><trkpt lat="39.3796533" lon="8.4794483"><ele>546.0</ele><time>2026-05-01T11:02:49.748Z</time></trkpt><trkpt lat="39.3796217" lon="8.4795333"><ele>546.0</ele><time>2026-05-01T11:02:50.748Z</time></trkpt><trkpt lat="39.37959" lon="8.4796283"><ele>546.0</ele><time>2026-05-01T11:02:51.748Z</time></trkpt><trkpt lat="39.37955" lon="8.4797233"><ele>546.0</ele><time>2026-05-01T11:02:52.748Z</time></trkpt><trkpt lat="39.37952" lon="8.4798133"><ele>546.0</ele><time>2026-05-01T11:02:53.748Z</time></trkpt><trkpt lat="39.379455" lon="8.4799567"><ele>547.0</ele><time>2026-05-01T11:02:55.748Z</time></trkpt><trkpt lat="39.379415" lon="8.4800367"><ele>548.0</ele><time>2026-05-01T11:02:56.749Z</time></trkpt><trkpt lat="39.379375" lon="8.48012"><ele>549.0</ele><time>2026-05-01T11:02:57.749Z</time></trkpt><trkpt lat="39.3793283" lon="8.48019"><ele>550.0</ele><time>2026-05-01T11:02:58.748Z</time></trkpt><trkpt lat="39.3792783" lon="8.480255"><ele>551.0</ele><time>2026-05-01T11:02:59.748Z</time></trkpt><trkpt lat="39.379225" lon="8.4803167"><ele>552.0</ele><time>2026-05-01T11:03:00.748Z</time></trkpt><trkpt lat="39.3791533" lon="8.4803867"><ele>550.8333333333334</ele><time>2026-05-01T11:03:01.749Z</time></trkpt><trkpt lat="39.37909" lon="8.4804417"><ele>549.6666666666666</ele><time>2026-05-01T11:03:02.748Z</time></trkpt><trkpt lat="39.3790367" lon="8.4805017"><ele>548.5</ele><time>2026-05-01T11:03:03.748Z</time></trkpt><trkpt lat="39.3789867" lon="8.480575"><ele>547.3333333333333</ele><time>2026-05-01T11:03:04.749Z</time></trkpt><trkpt lat="39.37895" lon="8.4806717"><ele>546.1666666666666</ele><time>2026-05-01T11:03:05.748Z</time></trkpt><trkpt lat="39.37892" lon="8.4807567"><ele>545.0</ele><time>2026-05-01T11:03:06.748Z</time></trkpt><trkpt lat="39.378885" lon="8.4809033"><ele>545.0</ele><time>2026-05-01T11:03:08.748Z</time></trkpt><trkpt lat="39.3789067" lon="8.4810283"><ele>545.0</ele><time>2026-05-01T11:03:10.748Z</time></trkpt><trkpt lat="39.3790283" lon="8.4810833"><ele>545.0</ele><time>2026-05-01T11:03:12.748Z</time></trkpt><trkpt lat="39.3791217" lon="8.481095"><ele>545.0</ele><time>2026-05-01T11:03:13.749Z</time></trkpt><trkpt lat="39.3792267" lon="8.4811217"><ele>545.0</ele><time>2026-05-01T11:03:14.748Z</time></trkpt><trkpt lat="39.3793167" lon="8.4811633"><ele>545.0</ele><time>2026-05-01T11:03:15.748Z</time></trkpt><trkpt lat="39.3793883" lon="8.4812083"><ele>545.0</ele><time>2026-05-01T11:03:16.748Z</time></trkpt><trkpt lat="39.3794533" lon="8.4812567"><ele>545.0</ele><time>2026-05-01T11:03:17.749Z</time></trkpt><trkpt lat="39.3795067" lon="8.4813167"><ele>545.0</ele><time>2026-05-01T11:03:18.749Z</time></trkpt><trkpt lat="39.379535" lon="8.48139"><ele>545.0</ele><time>2026-05-01T11:03:19.749Z</time></trkpt><trkpt lat="39.3795667" lon="8.4814783"><ele>545.0</ele><time>2026-05-01T11:03:20.748Z</time></trkpt><trkpt lat="39.3795783" lon="8.4815667"><ele>545.0</ele><time>2026-05-01T11:03:21.749Z</time></trkpt><trkpt lat="39.3795617" lon="8.481735"><ele>547.2</ele><time>2026-05-01T11:03:23.748Z</time></trkpt><trkpt lat="39.379535" lon="8.4818467"><ele>549.4</ele><time>2026-05-01T11:03:24.748Z</time></trkpt><trkpt lat="39.3795067" lon="8.48197"><ele>551.6</ele><time>2026-05-01T11:03:25.748Z</time></trkpt><trkpt lat="39.379475" lon="8.4820867"><ele>553.8</ele><time>2026-05-01T11:03:26.748Z</time></trkpt><trkpt lat="39.3794417" lon="8.4821917"><ele>556.0</ele><time>2026-05-01T11:03:27.748Z</time></trkpt><trkpt lat="39.37942" lon="8.4823017"><ele>556.5</ele><time>2026-05-01T11:03:28.748Z</time></trkpt><trkpt lat="39.379405" lon="8.4824133"><ele>557.0</ele><time>2026-05-01T11:03:29.749Z</time></trkpt><trkpt lat="39.3793967" lon="8.4825167"><ele>557.5</ele><time>2026-05-01T11:03:30.748Z</time></trkpt><trkpt lat="39.3793933" lon="8.482605"><ele>558.0</ele><time>2026-05-01T11:03:31.748Z</time></trkpt><trkpt lat="39.3793917" lon="8.482695"><ele>558.5</ele><time>2026-05-01T11:03:32.749Z</time></trkpt><trkpt lat="39.3794033" lon="8.4827817"><ele>559.0</ele><time>2026-05-01T11:03:33.748Z</time></trkpt><trkpt lat="39.3794733" lon="8.4829133"><ele>559.0</ele><time>2026-05-01T11:03:35.748Z</time></trkpt><trkpt lat="39.37955" lon="8.4829633"><ele>559.0</ele><time>2026-05-01T11:03:36.748Z</time></trkpt><trkpt lat="39.3796467" lon="8.4830033"><ele>559.0</ele><time>2026-05-01T11:03:37.748Z</time></trkpt><trkpt lat="39.3797417" lon="8.4830433"><ele>559.0</ele><time>2026-05-01T11:03:38.749Z</time></trkpt><trkpt lat="39.379815" lon="8.48308"><ele>559.0</ele><time>2026-05-01T11:03:39.748Z</time></trkpt><trkpt lat="39.3798883" lon="8.483105"><ele>559.0</ele><time>2026-05-01T11:03:40.748Z</time></trkpt><trkpt lat="39.379955" lon="8.4831333"><ele>559.0</ele><time>2026-05-01T11:03:41.748Z</time></trkpt><trkpt lat="39.38003" lon="8.4831517"><ele>559.0</ele><time>2026-05-01T11:03:42.748Z</time></trkpt><trkpt lat="39.3801033" lon="8.483155"><ele>559.0</ele><time>2026-05-01T11:03:43.749Z</time></trkpt><trkpt lat="39.380175" lon="8.483165"><ele>559.0</ele><time>2026-05-01T11:03:44.749Z</time></trkpt><trkpt lat="39.3802467" lon="8.48318"><ele>559.0</ele><time>2026-05-01T11:03:45.749Z</time></trkpt><trkpt lat="39.3803167" lon="8.4831983"><ele>559.0</ele><time>2026-05-01T11:03:46.748Z</time></trkpt><trkpt lat="39.3803883" lon="8.4832183"><ele>559.0</ele><time>2026-05-01T11:03:47.748Z</time></trkpt><trkpt lat="39.3804567" lon="8.48322"><ele>559.1666666666667</ele><time>2026-05-01T11:03:48.748Z</time></trkpt><trkpt lat="39.3805317" lon="8.4832083"><ele>559.3333333333334</ele><time>2026-05-01T11:03:49.748Z</time></trkpt><trkpt lat="39.3806067" lon="8.483175"><ele>559.5</ele><time>2026-05-01T11:03:50.749Z</time></trkpt><trkpt lat="39.3806867" lon="8.4831233"><ele>559.6666666666666</ele><time>2026-05-01T11:03:51.748Z</time></trkpt><trkpt lat="39.3807667" lon="8.483075"><ele>559.8333333333333</ele><time>2026-05-01T11:03:52.748Z</time></trkpt><trkpt lat="39.38084" lon="8.483035"><ele>560.0</ele><time>2026-05-01T11:03:53.748Z</time></trkpt><trkpt lat="39.3809133" lon="8.4830017"><ele>560.0</ele><time>2026-05-01T11:03:54.747Z</time></trkpt><trkpt lat="39.380975" lon="8.4829833"><ele>560.0</ele><time>2026-05-01T11:03:55.748Z</time></trkpt><trkpt lat="39.38104" lon="8.4829517"><ele>560.0</ele><time>2026-05-01T11:03:56.747Z</time></trkpt><trkpt lat="39.3811017" lon="8.4829017"><ele>560.0</ele><time>2026-05-01T11:03:57.747Z</time></trkpt><trkpt lat="39.3811383" lon="8.4828083"><ele>560.0</ele><time>2026-05-01T11:03:58.747Z</time></trkpt><trkpt lat="39.381195" lon="8.4827467"><ele>560.0</ele><time>2026-05-01T11:03:59.747Z</time></trkpt><trkpt lat="39.3812617" lon="8.4826983"><ele>560.0</ele><time>2026-05-01T11:04:00.748Z</time></trkpt><trkpt lat="39.3813317" lon="8.4826633"><ele>556.8333333333333</ele><time>2026-05-01T11:04:01.747Z</time></trkpt><trkpt lat="39.3813983" lon="8.4826317"><ele>553.6666666666666</ele><time>2026-05-01T11:04:02.747Z</time></trkpt><trkpt lat="39.3814767" lon="8.4826033"><ele>550.5</ele><time>2026-05-01T11:04:03.748Z</time></trkpt><trkpt lat="39.3815617" lon="8.482585"><ele>547.3333333333334</ele><time>2026-05-01T11:04:04.747Z</time></trkpt><trkpt lat="39.38165" lon="8.482575"><ele>544.1666666666667</ele><time>2026-05-01T11:04:05.747Z</time></trkpt><trkpt lat="39.381735" lon="8.4825467"><ele>541.0</ele><time>2026-05-01T11:04:06.748Z</time></trkpt><trkpt lat="39.3818133" lon="8.482505"><ele>541.0</ele><time>2026-05-01T11:04:07.747Z</time></trkpt><trkpt lat="39.38189" lon="8.4824533"><ele>541.0</ele><time>2026-05-01T11:04:08.747Z</time></trkpt><trkpt lat="39.38197" lon="8.4824083"><ele>541.0</ele><time>2026-05-01T11:04:09.747Z</time></trkpt><trkpt lat="39.3820533" lon="8.482365"><ele>541.0</ele><time>2026-05-01T11:04:10.747Z</time></trkpt><trkpt lat="39.3821317" lon="8.4823383"><ele>541.0</ele><time>2026-05-01T11:04:11.747Z</time></trkpt><trkpt lat="39.382215" lon="8.4823233"><ele>541.0</ele><time>2026-05-01T11:04:12.748Z</time></trkpt><trkpt lat="39.3822983" lon="8.4823083"><ele>544.6</ele><time>2026-05-01T11:04:13.748Z</time></trkpt><trkpt lat="39.3823833" lon="8.4822667"><ele>548.2</ele><time>2026-05-01T11:04:14.747Z</time></trkpt><trkpt lat="39.3824717" lon="8.4822033"><ele>551.8</ele><time>2026-05-01T11:04:15.747Z</time></trkpt><trkpt lat="39.3825517" lon="8.4821383"><ele>555.4</ele><time>2026-05-01T11:04:16.747Z</time></trkpt><trkpt lat="39.3826367" lon="8.48209"><ele>559.0</ele><time>2026-05-01T11:04:17.747Z</time></trkpt><trkpt lat="39.3827283" lon="8.482055"><ele>554.8333333333334</ele><time>2026-05-01T11:04:18.748Z</time></trkpt><trkpt lat="39.382825" lon="8.4820233"><ele>550.6666666666667</ele><time>2026-05-01T11:04:19.747Z</time></trkpt><trkpt lat="39.3829133" lon="8.48198"><ele>546.5</ele><time>2026-05-01T11:04:20.747Z</time></trkpt><trkpt lat="39.3829867" lon="8.4819383"><ele>542.3333333333334</ele><time>2026-05-01T11:04:21.747Z</time></trkpt><trkpt lat="39.3830583" lon="8.4819033"><ele>538.1666666666666</ele><time>2026-05-01T11:04:22.747Z</time></trkpt><trkpt lat="39.38313" lon="8.481885"><ele>534.0</ele><time>2026-05-01T11:04:23.748Z</time></trkpt><trkpt lat="39.3832067" lon="8.4818817"><ele>534.0</ele><time>2026-05-01T11:04:24.747Z</time></trkpt><trkpt lat="39.383285" lon="8.4818933"><ele>534.0</ele><time>2026-05-01T11:04:25.748Z</time></trkpt><trkpt lat="39.3833733" lon="8.481915"><ele>534.0</ele><time>2026-05-01T11:04:26.747Z</time></trkpt><trkpt lat="39.38346" lon="8.4819367"><ele>534.0</ele><time>2026-05-01T11:04:27.747Z</time></trkpt><trkpt lat="39.3835617" lon="8.4819633"><ele>534.0</ele><time>2026-05-01T11:04:28.747Z</time></trkpt><trkpt lat="39.3836617" lon="8.4819917"><ele>534.0</ele><time>2026-05-01T11:04:29.747Z</time></trkpt><trkpt lat="39.3837617" lon="8.482005"><ele>534.0</ele><time>2026-05-01T11:04:30.747Z</time></trkpt><trkpt lat="39.383865" lon="8.4820117"><ele>534.0</ele><time>2026-05-01T11:04:31.747Z</time></trkpt><trkpt lat="39.383965" lon="8.4820167"><ele>534.0</ele><time>2026-05-01T11:04:32.748Z</time></trkpt><trkpt lat="39.38406" lon="8.4820283"><ele>534.0</ele><time>2026-05-01T11:04:33.748Z</time></trkpt><trkpt lat="39.3841333" lon="8.4820533"><ele>532.3333333333334</ele><time>2026-05-01T11:04:34.747Z</time></trkpt><trkpt lat="39.3842017" lon="8.4820867"><ele>530.6666666666666</ele><time>2026-05-01T11:04:35.748Z</time></trkpt><trkpt lat="39.3842567" lon="8.4821383"><ele>529.0</ele><time>2026-05-01T11:04:36.747Z</time></trkpt><trkpt lat="39.38432" lon="8.48222"><ele>527.3333333333333</ele><time>2026-05-01T11:04:37.747Z</time></trkpt><trkpt lat="39.3843867" lon="8.4823"><ele>525.6666666666666</ele><time>2026-05-01T11:04:38.747Z</time></trkpt><trkpt lat="39.38444" lon="8.4823767"><ele>524.0</ele><time>2026-05-01T11:04:39.747Z</time></trkpt><trkpt lat="39.38449" lon="8.4824483"><ele>528.0</ele><time>2026-05-01T11:04:40.747Z</time></trkpt><trkpt lat="39.3845317" lon="8.4825283"><ele>532.0</ele><time>2026-05-01T11:04:41.747Z</time></trkpt><trkpt lat="39.384565" lon="8.48262"><ele>536.0</ele><time>2026-05-01T11:04:42.747Z</time></trkpt><trkpt lat="39.384585" lon="8.4827367"><ele>540.0</ele><time>2026-05-01T11:04:43.747Z</time></trkpt><trkpt lat="39.3845983" lon="8.4828183"><ele>544.0</ele><time>2026-05-01T11:04:44.747Z</time></trkpt><trkpt lat="39.3846033" lon="8.482905"><ele>548.0</ele><time>2026-05-01T11:04:45.747Z</time></trkpt><trkpt lat="39.3846033" lon="8.483"><ele>548.0</ele><time>2026-05-01T11:04:46.747Z</time></trkpt><trkpt lat="39.384585" lon="8.48308"><ele>548.0</ele><time>2026-05-01T11:04:47.747Z</time></trkpt><trkpt lat="39.38455" lon="8.483165"><ele>548.0</ele><time>2026-05-01T11:04:48.748Z</time></trkpt><trkpt lat="39.384485" lon="8.4832383"><ele>548.0</ele><time>2026-05-01T11:04:49.747Z</time></trkpt><trkpt lat="39.3844083" lon="8.4833067"><ele>548.0</ele><time>2026-05-01T11:04:50.747Z</time></trkpt><trkpt lat="39.3843333" lon="8.4833617"><ele>548.0</ele><time>2026-05-01T11:04:51.747Z</time></trkpt><trkpt lat="39.3842683" lon="8.4834083"><ele>548.0</ele><time>2026-05-01T11:04:52.747Z</time></trkpt><trkpt lat="39.3841433" lon="8.4834333"><ele>548.0</ele><time>2026-05-01T11:04:54.747Z</time></trkpt><trkpt lat="39.3840767" lon="8.4834117"><ele>548.0</ele><time>2026-05-01T11:04:55.748Z</time></trkpt><trkpt lat="39.3840017" lon="8.4833733"><ele>548.0</ele><time>2026-05-01T11:04:56.748Z</time></trkpt><trkpt lat="39.3839067" lon="8.4833483"><ele>548.0</ele><time>2026-05-01T11:04:57.747Z</time></trkpt><trkpt lat="39.3838167" lon="8.4833183"><ele>549.8</ele><time>2026-05-01T11:04:58.748Z</time></trkpt><trkpt lat="39.3837167" lon="8.4833417"><ele>551.5999999999999</ele><time>2026-05-01T11:04:59.747Z</time></trkpt><trkpt lat="39.383605" lon="8.48338"><ele>553.4000000000001</ele><time>2026-05-01T11:05:00.747Z</time></trkpt><trkpt lat="39.3834983" lon="8.483425"><ele>555.2</ele><time>2026-05-01T11:05:01.747Z</time></trkpt><trkpt lat="39.3833983" lon="8.48347"><ele>557.0</ele><time>2026-05-01T11:05:02.747Z</time></trkpt><trkpt lat="39.383295" lon="8.48351"><ele>557.0</ele><time>2026-05-01T11:05:03.747Z</time></trkpt><trkpt lat="39.3832083" lon="8.4835533"><ele>557.0</ele><time>2026-05-01T11:05:04.747Z</time></trkpt><trkpt lat="39.3831167" lon="8.4835983"><ele>557.0</ele><time>2026-05-01T11:05:05.748Z</time></trkpt><trkpt lat="39.3830333" lon="8.48365"><ele>557.0</ele><time>2026-05-01T11:05:06.747Z</time></trkpt><trkpt lat="39.3829533" lon="8.4837133"><ele>557.0</ele><time>2026-05-01T11:05:07.747Z</time></trkpt><trkpt lat="39.3828767" lon="8.4837933"><ele>558.0</ele><time>2026-05-01T11:05:08.747Z</time></trkpt><trkpt lat="39.382815" lon="8.4838833"><ele>559.0</ele><time>2026-05-01T11:05:09.747Z</time></trkpt><trkpt lat="39.3827633" lon="8.4839833"><ele>560.0</ele><time>2026-05-01T11:05:10.747Z</time></trkpt><trkpt lat="39.382715" lon="8.48409"><ele>561.0</ele><time>2026-05-01T11:05:11.747Z</time></trkpt><trkpt lat="39.38267" lon="8.4841967"><ele>562.0</ele><time>2026-05-01T11:05:12.747Z</time></trkpt><trkpt lat="39.3826217" lon="8.4843033"><ele>562.0</ele><time>2026-05-01T11:05:13.747Z</time></trkpt><trkpt lat="39.3825867" lon="8.4844183"><ele>562.0</ele><time>2026-05-01T11:05:14.747Z</time></trkpt><trkpt lat="39.382565" lon="8.4845167"><ele>562.0</ele><time>2026-05-01T11:05:15.747Z</time></trkpt><trkpt lat="39.382565" lon="8.4846317"><ele>562.0</ele><time>2026-05-01T11:05:16.747Z</time></trkpt><trkpt lat="39.3825833" lon="8.4847333"><ele>562.0</ele><time>2026-05-01T11:05:17.747Z</time></trkpt><trkpt lat="39.3826233" lon="8.4848367"><ele>562.0</ele><time>2026-05-01T11:05:18.748Z</time></trkpt><trkpt lat="39.3826683" lon="8.4849467"><ele>561.5714285714287</ele><time>2026-05-01T11:05:19.747Z</time></trkpt><trkpt lat="39.3827133" lon="8.4850467"><ele>561.1428571428571</ele><time>2026-05-01T11:05:20.748Z</time></trkpt><trkpt lat="39.3827483" lon="8.485135"><ele>560.7142857142858</ele><time>2026-05-01T11:05:21.747Z</time></trkpt><trkpt lat="39.3827733" lon="8.48522"><ele>560.2857142857143</ele><time>2026-05-01T11:05:22.747Z</time></trkpt><trkpt lat="39.3827917" lon="8.485305"><ele>559.8571428571429</ele><time>2026-05-01T11:05:23.747Z</time></trkpt><trkpt lat="39.382795" lon="8.48539"><ele>559.4285714285714</ele><time>2026-05-01T11:05:24.747Z</time></trkpt><trkpt lat="39.3828117" lon="8.485475"><ele>559.0</ele><time>2026-05-01T11:05:25.748Z</time></trkpt><trkpt lat="39.382825" lon="8.48556"><ele>558.6</ele><time>2026-05-01T11:05:26.747Z</time></trkpt><trkpt lat="39.38285" lon="8.4857117"><ele>558.2</ele><time>2026-05-01T11:05:28.747Z</time></trkpt><trkpt lat="39.3828617" lon="8.4857967"><ele>557.8000000000001</ele><time>2026-05-01T11:05:29.747Z</time></trkpt><trkpt lat="39.3828683" lon="8.4859483"><ele>557.4</ele><time>2026-05-01T11:05:31.747Z</time></trkpt><trkpt lat="39.3828583" lon="8.4861217"><ele>557.0</ele><time>2026-05-01T11:05:33.748Z</time></trkpt><trkpt lat="39.38281" lon="8.48626"><ele>553.5</ele><time>2026-05-01T11:05:35.747Z</time></trkpt><trkpt lat="39.3827133" lon="8.486335"><ele>550.0</ele><time>2026-05-01T11:05:37.748Z</time></trkpt><trkpt lat="39.382635" lon="8.4863583"><ele>546.5</ele><time>2026-05-01T11:05:38.748Z</time></trkpt><trkpt lat="39.3825583" lon="8.4863833"><ele>543.0</ele><time>2026-05-01T11:05:39.747Z</time></trkpt><trkpt lat="39.382475" lon="8.4864067"><ele>539.5</ele><time>2026-05-01T11:05:40.747Z</time></trkpt><trkpt lat="39.3823917" lon="8.4864283"><ele>536.0</ele><time>2026-05-01T11:05:41.748Z</time></trkpt><trkpt lat="39.3823183" lon="8.4864467"><ele>536.0</ele><time>2026-05-01T11:05:42.747Z</time></trkpt><trkpt lat="39.3822517" lon="8.486455"><ele>536.0</ele><time>2026-05-01T11:05:43.747Z</time></trkpt><trkpt lat="39.3821283" lon="8.4864467"><ele>536.0</ele><time>2026-05-01T11:05:45.748Z</time></trkpt><trkpt lat="39.38206" lon="8.4864383"><ele>536.0</ele><time>2026-05-01T11:05:46.747Z</time></trkpt><trkpt lat="39.3819867" lon="8.4864233"><ele>536.0</ele><time>2026-05-01T11:05:47.747Z</time></trkpt><trkpt lat="39.3819033" lon="8.4864"><ele>536.0</ele><time>2026-05-01T11:05:48.747Z</time></trkpt><trkpt lat="39.3818233" lon="8.486385"><ele>538.0</ele><time>2026-05-01T11:05:49.747Z</time></trkpt><trkpt lat="39.3817433" lon="8.4863817"><ele>540.0</ele><time>2026-05-01T11:05:50.747Z</time></trkpt><trkpt lat="39.381655" lon="8.4863733"><ele>542.0</ele><time>2026-05-01T11:05:51.747Z</time></trkpt><trkpt lat="39.381575" lon="8.4863683"><ele>544.0</ele><time>2026-05-01T11:05:52.747Z</time></trkpt><trkpt lat="39.3815" lon="8.4863467"><ele>546.0</ele><time>2026-05-01T11:05:53.747Z</time></trkpt><trkpt lat="39.3814167" lon="8.486345"><ele>548.0</ele><time>2026-05-01T11:05:54.747Z</time></trkpt><trkpt lat="39.3813433" lon="8.48635"><ele>550.6666666666666</ele><time>2026-05-01T11:05:55.747Z</time></trkpt><trkpt lat="39.38128" lon="8.4863517"><ele>553.3333333333333</ele><time>2026-05-01T11:05:56.748Z</time></trkpt><trkpt lat="39.381175" lon="8.48643"><ele>556.0</ele><time>2026-05-01T11:05:58.747Z</time></trkpt><trkpt lat="39.3811283" lon="8.4864933"><ele>558.6666666666666</ele><time>2026-05-01T11:05:59.747Z</time></trkpt><trkpt lat="39.381085" lon="8.4865567"><ele>561.3333333333334</ele><time>2026-05-01T11:06:00.748Z</time></trkpt><trkpt lat="39.3810333" lon="8.486635"><ele>564.0</ele><time>2026-05-01T11:06:01.747Z</time></trkpt><trkpt lat="39.3809767" lon="8.4867683"><ele>564.0</ele><time>2026-05-01T11:06:03.747Z</time></trkpt><trkpt lat="39.38102" lon="8.4869233"><ele>564.0</ele><time>2026-05-01T11:06:06.747Z</time></trkpt><trkpt lat="39.3810667" lon="8.48701"><ele>564.0</ele><time>2026-05-01T11:06:07.747Z</time></trkpt><trkpt lat="39.3811317" lon="8.487095"><ele>564.0</ele><time>2026-05-01T11:06:08.747Z</time></trkpt><trkpt lat="39.3812167" lon="8.4871783"><ele>564.0</ele><time>2026-05-01T11:06:09.747Z</time></trkpt><trkpt lat="39.381295" lon="8.4872617"><ele>560.2</ele><time>2026-05-01T11:06:10.747Z</time></trkpt><trkpt lat="39.38137" lon="8.487355"><ele>556.4</ele><time>2026-05-01T11:06:11.748Z</time></trkpt><trkpt lat="39.3814383" lon="8.4874417"><ele>552.6</ele><time>2026-05-01T11:06:12.747Z</time></trkpt><trkpt lat="39.3815133" lon="8.4875217"><ele>548.8</ele><time>2026-05-01T11:06:13.748Z</time></trkpt><trkpt lat="39.381585" lon="8.4876083"><ele>545.0</ele><time>2026-05-01T11:06:14.747Z</time></trkpt><trkpt lat="39.3816517" lon="8.4877117"><ele>545.0</ele><time>2026-05-01T11:06:15.748Z</time></trkpt><trkpt lat="39.3817017" lon="8.4878167"><ele>545.0</ele><time>2026-05-01T11:06:16.748Z</time></trkpt><trkpt lat="39.3817467" lon="8.4879233"><ele>545.0</ele><time>2026-05-01T11:06:17.747Z</time></trkpt><trkpt lat="39.3817817" lon="8.4880117"><ele>545.0</ele><time>2026-05-01T11:06:18.747Z</time></trkpt><trkpt lat="39.381805" lon="8.4881133"><ele>545.0</ele><time>2026-05-01T11:06:19.747Z</time></trkpt><trkpt lat="39.3818133" lon="8.4882233"><ele>545.0</ele><time>2026-05-01T11:06:20.747Z</time></trkpt><trkpt lat="39.3818" lon="8.4883383"><ele>544.2</ele><time>2026-05-01T11:06:21.747Z</time></trkpt><trkpt lat="39.38177" lon="8.488465"><ele>543.4</ele><time>2026-05-01T11:06:22.748Z</time></trkpt><trkpt lat="39.38173" lon="8.4885933"><ele>542.6</ele><time>2026-05-01T11:06:23.747Z</time></trkpt><trkpt lat="39.381685" lon="8.488725"><ele>541.8</ele><time>2026-05-01T11:06:24.747Z</time></trkpt><trkpt lat="39.381635" lon="8.4888517"><ele>541.0</ele><time>2026-05-01T11:06:25.747Z</time></trkpt><trkpt lat="39.3815867" lon="8.4889567"><ele>541.0</ele><time>2026-05-01T11:06:26.748Z</time></trkpt><trkpt lat="39.381535" lon="8.48906"><ele>541.0</ele><time>2026-05-01T11:06:27.748Z</time></trkpt><trkpt lat="39.3814733" lon="8.48916"><ele>541.0</ele><time>2026-05-01T11:06:28.747Z</time></trkpt><trkpt lat="39.3814083" lon="8.48928"><ele>541.0</ele><time>2026-05-01T11:06:29.748Z</time></trkpt><trkpt lat="39.3813433" lon="8.4893933"><ele>541.0</ele><time>2026-05-01T11:06:30.747Z</time></trkpt><trkpt lat="39.3812817" lon="8.4894917"><ele>541.6</ele><time>2026-05-01T11:06:31.747Z</time></trkpt><trkpt lat="39.3812067" lon="8.4895933"><ele>542.2</ele><time>2026-05-01T11:06:32.748Z</time></trkpt><trkpt lat="39.3811267" lon="8.4896917"><ele>542.8</ele><time>2026-05-01T11:06:33.747Z</time></trkpt><trkpt lat="39.381045" lon="8.48979"><ele>543.4</ele><time>2026-05-01T11:06:34.748Z</time></trkpt><trkpt lat="39.3809767" lon="8.4898933"><ele>544.0</ele><time>2026-05-01T11:06:35.748Z</time></trkpt><trkpt lat="39.380915" lon="8.489975"><ele>544.0</ele><time>2026-05-01T11:06:36.747Z</time></trkpt><trkpt lat="39.380855" lon="8.4900433"><ele>544.0</ele><time>2026-05-01T11:06:37.748Z</time></trkpt><trkpt lat="39.3807917" lon="8.4901017"><ele>544.0</ele><time>2026-05-01T11:06:38.748Z</time></trkpt><trkpt lat="39.380725" lon="8.4901367"><ele>544.0</ele><time>2026-05-01T11:06:39.748Z</time></trkpt><trkpt lat="39.3806533" lon="8.4901467"><ele>544.0</ele><time>2026-05-01T11:06:40.748Z</time></trkpt><trkpt lat="39.38057" lon="8.4901233"><ele>544.0</ele><time>2026-05-01T11:06:41.747Z</time></trkpt><trkpt lat="39.3804767" lon="8.4900683"><ele>546.0</ele><time>2026-05-01T11:06:42.748Z</time></trkpt><trkpt lat="39.3803967" lon="8.4900133"><ele>548.0</ele><time>2026-05-01T11:06:43.748Z</time></trkpt><trkpt lat="39.3803267" lon="8.4899667"><ele>550.0</ele><time>2026-05-01T11:06:44.747Z</time></trkpt><trkpt lat="39.38024" lon="8.4899367"><ele>552.0</ele><time>2026-05-01T11:06:45.747Z</time></trkpt><trkpt lat="39.3801383" lon="8.4899233"><ele>554.0</ele><time>2026-05-01T11:06:46.747Z</time></trkpt><trkpt lat="39.38003" lon="8.4899283"><ele>554.0</ele><time>2026-05-01T11:06:47.746Z</time></trkpt><trkpt lat="39.3799083" lon="8.4899567"><ele>554.0</ele><time>2026-05-01T11:06:48.746Z</time></trkpt><trkpt lat="39.3798017" lon="8.489965"><ele>554.0</ele><time>2026-05-01T11:06:49.746Z</time></trkpt><trkpt lat="39.379715" lon="8.4899117"><ele>554.0</ele><time>2026-05-01T11:06:50.746Z</time></trkpt><trkpt lat="39.379625" lon="8.4899217"><ele>554.0</ele><time>2026-05-01T11:06:51.747Z</time></trkpt><trkpt lat="39.3795367" lon="8.4899583"><ele>554.3333333333333</ele><time>2026-05-01T11:06:52.747Z</time></trkpt><trkpt lat="39.3794483" lon="8.4899817"><ele>554.6666666666666</ele><time>2026-05-01T11:06:53.746Z</time></trkpt><trkpt lat="39.379365" lon="8.4899883"><ele>555.0</ele><time>2026-05-01T11:06:54.746Z</time></trkpt><trkpt lat="39.3792917" lon="8.48998"><ele>555.3333333333334</ele><time>2026-05-01T11:06:55.746Z</time></trkpt><trkpt lat="39.3792233" lon="8.4899467"><ele>555.6666666666667</ele><time>2026-05-01T11:06:56.746Z</time></trkpt><trkpt lat="39.3791467" lon="8.489915"><ele>556.0</ele><time>2026-05-01T11:06:57.746Z</time></trkpt><trkpt lat="39.3790783" lon="8.489925"><ele>556.0</ele><time>2026-05-01T11:06:58.746Z</time></trkpt><trkpt lat="39.3789967" lon="8.4900317"><ele>556.0</ele><time>2026-05-01T11:07:00.746Z</time></trkpt><trkpt lat="39.378975" lon="8.4901567"><ele>556.0</ele><time>2026-05-01T11:07:01.746Z</time></trkpt><trkpt lat="39.3789617" lon="8.4903083"><ele>556.0</ele><time>2026-05-01T11:07:02.746Z</time></trkpt><trkpt lat="39.378945" lon="8.490435"><ele>556.0</ele><time>2026-05-01T11:07:03.746Z</time></trkpt><trkpt lat="39.3789183" lon="8.4905317"><ele>556.2</ele><time>2026-05-01T11:07:04.746Z</time></trkpt><trkpt lat="39.378875" lon="8.4905933"><ele>556.4000000000001</ele><time>2026-05-01T11:07:05.746Z</time></trkpt><trkpt lat="39.3787917" lon="8.49065"><ele>556.6</ele><time>2026-05-01T11:07:07.747Z</time></trkpt><trkpt lat="39.3787" lon="8.4906317"><ele>556.8000000000001</ele><time>2026-05-01T11:07:09.746Z</time></trkpt><trkpt lat="39.378615" lon="8.490535"><ele>557.0</ele><time>2026-05-01T11:07:11.747Z</time></trkpt><trkpt lat="39.3785583" lon="8.4904033"><ele>557.0</ele><time>2026-05-01T11:07:13.747Z</time></trkpt><trkpt lat="39.378535" lon="8.490325"><ele>557.0</ele><time>2026-05-01T11:07:14.746Z</time></trkpt><trkpt lat="39.3785" lon="8.4902367"><ele>557.0</ele><time>2026-05-01T11:07:15.746Z</time></trkpt><trkpt lat="39.3784683" lon="8.490155"><ele>557.0</ele><time>2026-05-01T11:07:16.747Z</time></trkpt><trkpt lat="39.3784317" lon="8.49008"><ele>557.0</ele><time>2026-05-01T11:07:17.746Z</time></trkpt><trkpt lat="39.378365" lon="8.4899583"><ele>557.0</ele><time>2026-05-01T11:07:19.747Z</time></trkpt><trkpt lat="39.378255" lon="8.48991"><ele>557.0</ele><time>2026-05-01T11:07:21.746Z</time></trkpt><trkpt lat="39.3781217" lon="8.4899717"><ele>557.0</ele><time>2026-05-01T11:07:23.747Z</time></trkpt><trkpt lat="39.378055" lon="8.4900733"><ele>557.0</ele><time>2026-05-01T11:07:24.746Z</time></trkpt><trkpt lat="39.378" lon="8.4901983"><ele>557.0</ele><time>2026-05-01T11:07:25.746Z</time></trkpt><trkpt lat="39.3779533" lon="8.4903167"><ele>556.6</ele><time>2026-05-01T11:07:26.746Z</time></trkpt><trkpt lat="39.3779067" lon="8.49045"><ele>556.2</ele><time>2026-05-01T11:07:27.746Z</time></trkpt><trkpt lat="39.3778783" lon="8.49058"><ele>555.8</ele><time>2026-05-01T11:07:28.746Z</time></trkpt><trkpt lat="39.37785" lon="8.4907083"><ele>555.4</ele><time>2026-05-01T11:07:29.746Z</time></trkpt><trkpt lat="39.37783" lon="8.49082"><ele>555.0</ele><time>2026-05-01T11:07:30.746Z</time></trkpt><trkpt lat="39.3778067" lon="8.4909283"><ele>555.0</ele><time>2026-05-01T11:07:31.747Z</time></trkpt><trkpt lat="39.37777" lon="8.4910217"><ele>555.0</ele><time>2026-05-01T11:07:32.747Z</time></trkpt><trkpt lat="39.3777183" lon="8.491095"><ele>555.0</ele><time>2026-05-01T11:07:33.746Z</time></trkpt><trkpt lat="39.3776483" lon="8.4911633"><ele>555.0</ele><time>2026-05-01T11:07:34.747Z</time></trkpt><trkpt lat="39.3775667" lon="8.4912167"><ele>555.0</ele><time>2026-05-01T11:07:35.746Z</time></trkpt><trkpt lat="39.3774917" lon="8.4912483"><ele>555.0</ele><time>2026-05-01T11:07:36.747Z</time></trkpt><trkpt lat="39.377385" lon="8.4912817"><ele>555.0</ele><time>2026-05-01T11:07:38.746Z</time></trkpt><trkpt lat="39.3773067" lon="8.4912167"><ele>555.0</ele><time>2026-05-01T11:07:40.746Z</time></trkpt><trkpt lat="39.3772367" lon="8.4910517"><ele>555.0</ele><time>2026-05-01T11:07:42.746Z</time></trkpt><trkpt lat="39.37719" lon="8.49094"><ele>555.0</ele><time>2026-05-01T11:07:43.746Z</time></trkpt><trkpt lat="39.3771433" lon="8.4908267"><ele>555.0</ele><time>2026-05-01T11:07:44.746Z</time></trkpt><trkpt lat="39.3770983" lon="8.4907233"><ele>554.2</ele><time>2026-05-01T11:07:45.746Z</time></trkpt><trkpt lat="39.3770417" lon="8.490625"><ele>553.4</ele><time>2026-05-01T11:07:46.747Z</time></trkpt><trkpt lat="39.3769767" lon="8.490525"><ele>552.6</ele><time>2026-05-01T11:07:47.746Z</time></trkpt><trkpt lat="39.376905" lon="8.4904383"><ele>551.8</ele><time>2026-05-01T11:07:48.747Z</time></trkpt><trkpt lat="39.3768117" lon="8.4903617"><ele>551.0</ele><time>2026-05-01T11:07:49.746Z</time></trkpt><trkpt lat="39.3767333" lon="8.4903017"><ele>555.0</ele><time>2026-05-01T11:07:50.747Z</time></trkpt><trkpt lat="39.3766617" lon="8.4902467"><ele>559.0</ele><time>2026-05-01T11:07:51.747Z</time></trkpt><trkpt lat="39.3766067" lon="8.4901917"><ele>563.0</ele><time>2026-05-01T11:07:52.746Z</time></trkpt><trkpt lat="39.37651" lon="8.4901517"><ele>567.0</ele><time>2026-05-01T11:07:54.746Z</time></trkpt><trkpt lat="39.376425" lon="8.4902433"><ele>571.0</ele><time>2026-05-01T11:07:56.747Z</time></trkpt><trkpt lat="39.3763883" lon="8.4903433"><ele>566.0</ele><time>2026-05-01T11:07:57.747Z</time></trkpt><trkpt lat="39.3763733" lon="8.4905"><ele>561.0</ele><time>2026-05-01T11:07:58.746Z</time></trkpt><trkpt lat="39.3763767" lon="8.4906917"><ele>556.0</ele><time>2026-05-01T11:07:59.746Z</time></trkpt><trkpt lat="39.3763933" lon="8.490845"><ele>551.0</ele><time>2026-05-01T11:08:00.747Z</time></trkpt><trkpt lat="39.3764017" lon="8.49096"><ele>551.0</ele><time>2026-05-01T11:08:01.746Z</time></trkpt><trkpt lat="39.3763817" lon="8.4910567"><ele>551.0</ele><time>2026-05-01T11:08:02.746Z</time></trkpt><trkpt lat="39.37635" lon="8.4911367"><ele>551.0</ele><time>2026-05-01T11:08:03.747Z</time></trkpt><trkpt lat="39.3763533" lon="8.4912867"><ele>551.0</ele><time>2026-05-01T11:08:05.746Z</time></trkpt><trkpt lat="39.3763567" lon="8.4913833"><ele>551.0</ele><time>2026-05-01T11:08:06.746Z</time></trkpt><trkpt lat="39.3763483" lon="8.491485"><ele>551.0</ele><time>2026-05-01T11:08:07.747Z</time></trkpt><trkpt lat="39.37633" lon="8.4915817"><ele>551.2</ele><time>2026-05-01T11:08:08.746Z</time></trkpt><trkpt lat="39.3763083" lon="8.4917"><ele>551.4000000000001</ele><time>2026-05-01T11:08:09.746Z</time></trkpt><trkpt lat="39.3762783" lon="8.4918217"><ele>551.6</ele><time>2026-05-01T11:08:10.746Z</time></trkpt><trkpt lat="39.3762467" lon="8.4919533"><ele>551.8000000000001</ele><time>2026-05-01T11:08:11.746Z</time></trkpt><trkpt lat="39.3762083" lon="8.4920567"><ele>552.0</ele><time>2026-05-01T11:08:12.746Z</time></trkpt><trkpt lat="39.3761633" lon="8.49216"><ele>552.0</ele><time>2026-05-01T11:08:13.747Z</time></trkpt><trkpt lat="39.376115" lon="8.4922317"><ele>552.0</ele><time>2026-05-01T11:08:14.746Z</time></trkpt><trkpt lat="39.37605" lon="8.492275"><ele>552.0</ele><time>2026-05-01T11:08:15.746Z</time></trkpt><trkpt lat="39.3759733" lon="8.49229"><ele>552.0</ele><time>2026-05-01T11:08:16.747Z</time></trkpt><trkpt lat="39.37587" lon="8.492285"><ele>552.0</ele><time>2026-05-01T11:08:17.746Z</time></trkpt><trkpt lat="39.3757633" lon="8.4923"><ele>552.0</ele><time>2026-05-01T11:08:18.746Z</time></trkpt><trkpt lat="39.37566" lon="8.4923167"><ele>552.0</ele><time>2026-05-01T11:08:19.746Z</time></trkpt><trkpt lat="39.3755617" lon="8.49236"><ele>552.0</ele><time>2026-05-01T11:08:20.747Z</time></trkpt><trkpt lat="39.375475" lon="8.49242"><ele>552.0</ele><time>2026-05-01T11:08:21.746Z</time></trkpt><trkpt lat="39.3754083" lon="8.4925533"><ele>552.0</ele><time>2026-05-01T11:08:22.746Z</time></trkpt><trkpt lat="39.3753683" lon="8.4926833"><ele>552.0</ele><time>2026-05-01T11:08:23.746Z</time></trkpt><trkpt lat="39.3753317" lon="8.4927817"><ele>552.0</ele><time>2026-05-01T11:08:24.747Z</time></trkpt><trkpt lat="39.37529" lon="8.49285"><ele>552.0</ele><time>2026-05-01T11:08:25.747Z</time></trkpt><trkpt lat="39.3752333" lon="8.4929167"><ele>552.0</ele><time>2026-05-01T11:08:26.746Z</time></trkpt><trkpt lat="39.3751617" lon="8.4929717"><ele>552.0</ele><time>2026-05-01T11:08:27.746Z</time></trkpt><trkpt lat="39.3750817" lon="8.493005"><ele>552.0</ele><time>2026-05-01T11:08:28.746Z</time></trkpt><trkpt lat="39.3750017" lon="8.4930117"><ele>552.0</ele><time>2026-05-01T11:08:29.747Z</time></trkpt><trkpt lat="39.37493" lon="8.49303"><ele>552.0</ele><time>2026-05-01T11:08:30.746Z</time></trkpt><trkpt lat="39.3748667" lon="8.4930717"><ele>552.0</ele><time>2026-05-01T11:08:31.746Z</time></trkpt><trkpt lat="39.3748267" lon="8.4931467"><ele>552.0</ele><time>2026-05-01T11:08:32.746Z</time></trkpt><trkpt lat="39.3748067" lon="8.4932467"><ele>552.0</ele><time>2026-05-01T11:08:33.746Z</time></trkpt><trkpt lat="39.374795" lon="8.4933583"><ele>552.0</ele><time>2026-05-01T11:08:34.746Z</time></trkpt><trkpt lat="39.3747667" lon="8.49346"><ele>552.0</ele><time>2026-05-01T11:08:35.747Z</time></trkpt><trkpt lat="39.3747133" lon="8.4935583"><ele>550.0</ele><time>2026-05-01T11:08:36.747Z</time></trkpt><trkpt lat="39.3746617" lon="8.4936633"><ele>548.0</ele><time>2026-05-01T11:08:37.746Z</time></trkpt><trkpt lat="39.3746383" lon="8.49378"><ele>546.0</ele><time>2026-05-01T11:08:38.747Z</time></trkpt><trkpt lat="39.3746367" lon="8.4939267"><ele>544.0</ele><time>2026-05-01T11:08:39.746Z</time></trkpt><trkpt lat="39.3746783" lon="8.4940733"><ele>542.0</ele><time>2026-05-01T11:08:40.746Z</time></trkpt><trkpt lat="39.37472" lon="8.4942033"><ele>542.0</ele><time>2026-05-01T11:08:41.746Z</time></trkpt><trkpt lat="39.3747333" lon="8.4942983"><ele>542.0</ele><time>2026-05-01T11:08:42.746Z</time></trkpt><trkpt lat="39.374735" lon="8.494395"><ele>542.0</ele><time>2026-05-01T11:08:43.746Z</time></trkpt><trkpt lat="39.3747033" lon="8.4944833"><ele>542.0</ele><time>2026-05-01T11:08:44.747Z</time></trkpt><trkpt lat="39.3746433" lon="8.4946117"><ele>542.0</ele><time>2026-05-01T11:08:45.746Z</time></trkpt><trkpt lat="39.3745733" lon="8.494725"><ele>545.8000000000001</ele><time>2026-05-01T11:08:46.747Z</time></trkpt><trkpt lat="39.3745033" lon="8.4948167"><ele>549.6</ele><time>2026-05-01T11:08:47.746Z</time></trkpt><trkpt lat="39.374425" lon="8.4949017"><ele>553.4000000000001</ele><time>2026-05-01T11:08:48.747Z</time></trkpt><trkpt lat="39.37434" lon="8.4949567"><ele>557.2</ele><time>2026-05-01T11:08:49.747Z</time></trkpt><trkpt lat="39.3742633" lon="8.4950317"><ele>561.0</ele><time>2026-05-01T11:08:50.746Z</time></trkpt><trkpt lat="39.37421" lon="8.4951033"><ele>561.0</ele><time>2026-05-01T11:08:51.746Z</time></trkpt><trkpt lat="39.3741783" lon="8.4952033"><ele>561.0</ele><time>2026-05-01T11:08:52.747Z</time></trkpt><trkpt lat="39.3741633" lon="8.49531"><ele>561.0</ele><time>2026-05-01T11:08:53.747Z</time></trkpt><trkpt lat="39.3741733" lon="8.495425"><ele>561.0</ele><time>2026-05-01T11:08:54.747Z</time></trkpt><trkpt lat="39.3742167" lon="8.4955517"><ele>561.0</ele><time>2026-05-01T11:08:55.747Z</time></trkpt><trkpt lat="39.37425" lon="8.4956567"><ele>559.3333333333334</ele><time>2026-05-01T11:08:56.746Z</time></trkpt><trkpt lat="39.3742633" lon="8.495755"><ele>557.6666666666666</ele><time>2026-05-01T11:08:57.747Z</time></trkpt><trkpt lat="39.3742567" lon="8.4958467"><ele>556.0</ele><time>2026-05-01T11:08:58.747Z</time></trkpt><trkpt lat="39.374225" lon="8.4959583"><ele>554.3333333333333</ele><time>2026-05-01T11:08:59.746Z</time></trkpt><trkpt lat="39.374175" lon="8.4960867"><ele>552.6666666666666</ele><time>2026-05-01T11:09:00.746Z</time></trkpt><trkpt lat="39.37413" lon="8.496175"><ele>551.0</ele><time>2026-05-01T11:09:01.746Z</time></trkpt><trkpt lat="39.3740933" lon="8.49627"><ele>549.75</ele><time>2026-05-01T11:09:02.747Z</time></trkpt><trkpt lat="39.37405" lon="8.49641"><ele>548.5</ele><time>2026-05-01T11:09:03.746Z</time></trkpt><trkpt lat="39.3739983" lon="8.4965533"><ele>547.25</ele><time>2026-05-01T11:09:04.747Z</time></trkpt><trkpt lat="39.3739333" lon="8.49669"><ele>546.0</ele><time>2026-05-01T11:09:05.746Z</time></trkpt><trkpt lat="39.3738667" lon="8.49682"><ele>546.2</ele><time>2026-05-01T11:09:06.746Z</time></trkpt><trkpt lat="39.37379" lon="8.4969283"><ele>546.4000000000001</ele><time>2026-05-01T11:09:07.746Z</time></trkpt><trkpt lat="39.373735" lon="8.4970333"><ele>546.6</ele><time>2026-05-01T11:09:08.746Z</time></trkpt><trkpt lat="39.37369" lon="8.497105"><ele>546.8000000000001</ele><time>2026-05-01T11:09:09.747Z</time></trkpt><trkpt lat="39.3736617" lon="8.4972"><ele>547.0</ele><time>2026-05-01T11:09:11.746Z</time></trkpt><trkpt lat="39.37375" lon="8.497195"><ele>546.75</ele><time>2026-05-01T11:09:15.746Z</time></trkpt><trkpt lat="39.3737983" lon="8.4971317"><ele>546.5</ele><time>2026-05-01T11:09:16.747Z</time></trkpt><trkpt lat="39.373865" lon="8.4970317"><ele>546.25</ele><time>2026-05-01T11:09:17.747Z</time></trkpt><trkpt lat="39.3739483" lon="8.4968983"><ele>546.0</ele><time>2026-05-01T11:09:18.746Z</time></trkpt><trkpt lat="39.37406" lon="8.4967183"><ele>546.0</ele><time>2026-05-01T11:09:19.746Z</time></trkpt><trkpt lat="39.37419" lon="8.496525"><ele>546.0</ele><time>2026-05-01T11:09:20.747Z</time></trkpt><trkpt lat="39.3743233" lon="8.4963167"><ele>546.0</ele><time>2026-05-01T11:09:21.746Z</time></trkpt><trkpt lat="39.3744333" lon="8.49612"><ele>547.25</ele><time>2026-05-01T11:09:22.746Z</time></trkpt><trkpt lat="39.3745217" lon="8.49594"><ele>548.5</ele><time>2026-05-01T11:09:23.747Z</time></trkpt><trkpt lat="39.374585" lon="8.4957783"><ele>549.75</ele><time>2026-05-01T11:09:24.746Z</time></trkpt><trkpt lat="39.3746117" lon="8.4956267"><ele>551.0</ele><time>2026-05-01T11:09:25.747Z</time></trkpt><trkpt lat="39.37461" lon="8.4954883"><ele>553.0</ele><time>2026-05-01T11:09:26.746Z</time></trkpt><trkpt lat="39.374595" lon="8.4953633"><ele>555.0</ele><time>2026-05-01T11:09:27.746Z</time></trkpt><trkpt lat="39.3745933" lon="8.4952467"><ele>557.0</ele><time>2026-05-01T11:09:28.746Z</time></trkpt><trkpt lat="39.3746333" lon="8.4951417"><ele>559.0</ele><time>2026-05-01T11:09:29.747Z</time></trkpt><trkpt lat="39.3747067" lon="8.4950533"><ele>561.0</ele><time>2026-05-01T11:09:30.746Z</time></trkpt><trkpt lat="39.3748217" lon="8.4949767"><ele>556.25</ele><time>2026-05-01T11:09:31.746Z</time></trkpt><trkpt lat="39.37494" lon="8.4948883"><ele>551.5</ele><time>2026-05-01T11:09:32.746Z</time></trkpt><trkpt lat="39.3750583" lon="8.49476"><ele>546.75</ele><time>2026-05-01T11:09:33.746Z</time></trkpt><trkpt lat="39.375145" lon="8.4945983"><ele>542.0</ele><time>2026-05-01T11:09:34.746Z</time></trkpt><trkpt lat="39.3752067" lon="8.4944283"><ele>542.0</ele><time>2026-05-01T11:09:35.746Z</time></trkpt><trkpt lat="39.3752517" lon="8.4942767"><ele>542.0</ele><time>2026-05-01T11:09:36.747Z</time></trkpt><trkpt lat="39.3752583" lon="8.4941533"><ele>542.0</ele><time>2026-05-01T11:09:37.746Z</time></trkpt><trkpt lat="39.3752267" lon="8.4940633"><ele>542.0</ele><time>2026-05-01T11:09:38.746Z</time></trkpt><trkpt lat="39.3751783" lon="8.4939683"><ele>542.0</ele><time>2026-05-01T11:09:39.746Z</time></trkpt><trkpt lat="39.3751683" lon="8.4938683"><ele>542.0</ele><time>2026-05-01T11:09:40.747Z</time></trkpt><trkpt lat="39.3751833" lon="8.4937567"><ele>542.0</ele><time>2026-05-01T11:09:41.746Z</time></trkpt><trkpt lat="39.3752183" lon="8.493625"><ele>542.0</ele><time>2026-05-01T11:09:42.747Z</time></trkpt><trkpt lat="39.375315" lon="8.4934667"><ele>542.0</ele><time>2026-05-01T11:09:43.747Z</time></trkpt><trkpt lat="39.3754767" lon="8.4933167"><ele>536.3333333333333</ele><time>2026-05-01T11:09:44.746Z</time></trkpt><trkpt lat="39.37564" lon="8.4931933"><ele>530.6666666666666</ele><time>2026-05-01T11:09:45.747Z</time></trkpt><trkpt lat="39.375785" lon="8.4930567"><ele>525.0</ele><time>2026-05-01T11:09:46.746Z</time></trkpt><trkpt lat="39.3759017" lon="8.4929233"><ele>531.75</ele><time>2026-05-01T11:09:47.746Z</time></trkpt><trkpt lat="39.3760033" lon="8.4928267"><ele>538.5</ele><time>2026-05-01T11:09:48.746Z</time></trkpt><trkpt lat="39.3761017" lon="8.4927733"><ele>545.25</ele><time>2026-05-01T11:09:49.747Z</time></trkpt><trkpt lat="39.37622" lon="8.4927917"><ele>552.0</ele><time>2026-05-01T11:09:50.746Z</time></trkpt><trkpt lat="39.3763333" lon="8.4928667"><ele>542.25</ele><time>2026-05-01T11:09:51.745Z</time></trkpt><trkpt lat="39.3764633" lon="8.4929917"><ele>532.5</ele><time>2026-05-01T11:09:52.745Z</time></trkpt><trkpt lat="39.3765717" lon="8.4930967"><ele>522.75</ele><time>2026-05-01T11:09:53.746Z</time></trkpt><trkpt lat="39.3766717" lon="8.4931767"><ele>513.0</ele><time>2026-05-01T11:09:54.745Z</time></trkpt><trkpt lat="39.376795" lon="8.4931417"><ele>513.0</ele><time>2026-05-01T11:09:55.745Z</time></trkpt><trkpt lat="39.3769183" lon="8.49306"><ele>513.0</ele><time>2026-05-01T11:09:56.745Z</time></trkpt><trkpt lat="39.3770517" lon="8.4929817"><ele>513.0</ele><time>2026-05-01T11:09:57.745Z</time></trkpt><trkpt lat="39.377175" lon="8.4928867"><ele>513.0</ele><time>2026-05-01T11:09:58.746Z</time></trkpt><trkpt lat="39.3772883" lon="8.4927833"><ele>513.1999999999999</ele><time>2026-05-01T11:09:59.746Z</time></trkpt><trkpt lat="39.3773783" lon="8.4927067"><ele>513.4</ele><time>2026-05-01T11:10:00.746Z</time></trkpt><trkpt lat="39.3774267" lon="8.4925967"><ele>513.5999999999999</ele><time>2026-05-01T11:10:01.745Z</time></trkpt><trkpt lat="39.37743" lon="8.4924833"><ele>513.8</ele><time>2026-05-01T11:10:02.746Z</time></trkpt><trkpt lat="39.377405" lon="8.492385"><ele>514.0</ele><time>2026-05-01T11:10:03.745Z</time></trkpt><trkpt lat="39.377385" lon="8.49228"><ele>514.0</ele><time>2026-05-01T11:10:04.745Z</time></trkpt><trkpt lat="39.3774" lon="8.4921817"><ele>514.0</ele><time>2026-05-01T11:10:05.746Z</time></trkpt><trkpt lat="39.3774367" lon="8.492105"><ele>514.0</ele><time>2026-05-01T11:10:06.745Z</time></trkpt><trkpt lat="39.3775" lon="8.4920733"><ele>514.0</ele><time>2026-05-01T11:10:07.745Z</time></trkpt><trkpt lat="39.3775983" lon="8.4920483"><ele>514.0</ele><time>2026-05-01T11:10:08.746Z</time></trkpt><trkpt lat="39.377735" lon="8.49204"><ele>513.25</ele><time>2026-05-01T11:10:09.745Z</time></trkpt><trkpt lat="39.3779117" lon="8.49204"><ele>512.5</ele><time>2026-05-01T11:10:10.745Z</time></trkpt><trkpt lat="39.378055" lon="8.49205"><ele>511.75</ele><time>2026-05-01T11:10:11.745Z</time></trkpt><trkpt lat="39.378175" lon="8.4921033"><ele>511.0</ele><time>2026-05-01T11:10:12.745Z</time></trkpt><trkpt lat="39.3782667" lon="8.4921933"><ele>511.0</ele><time>2026-05-01T11:10:13.745Z</time></trkpt><trkpt lat="39.378365" lon="8.4923083"><ele>511.0</ele><time>2026-05-01T11:10:14.746Z</time></trkpt><trkpt lat="39.3784533" lon="8.492465"><ele>511.0</ele><time>2026-05-01T11:10:15.745Z</time></trkpt><trkpt lat="39.37854" lon="8.4926633"><ele>511.0</ele><time>2026-05-01T11:10:16.746Z</time></trkpt><trkpt lat="39.3786367" lon="8.4928817"><ele>511.0</ele><time>2026-05-01T11:10:17.745Z</time></trkpt><trkpt lat="39.3787367" lon="8.493035"><ele>511.0</ele><time>2026-05-01T11:10:18.746Z</time></trkpt><trkpt lat="39.3788217" lon="8.493205"><ele>509.0</ele><time>2026-05-01T11:10:19.745Z</time></trkpt><trkpt lat="39.3788933" lon="8.4933567"><ele>507.0</ele><time>2026-05-01T11:10:20.746Z</time></trkpt><trkpt lat="39.3789633" lon="8.4935067"><ele>505.0</ele><time>2026-05-01T11:10:21.745Z</time></trkpt><trkpt lat="39.3790383" lon="8.4936417"><ele>503.0</ele><time>2026-05-01T11:10:22.745Z</time></trkpt><trkpt lat="39.3791133" lon="8.493755"><ele>500.0</ele><time>2026-05-01T11:10:23.745Z</time></trkpt><trkpt lat="39.3792067" lon="8.4938533"><ele>496.99999999999994</ele><time>2026-05-01T11:10:24.745Z</time></trkpt><trkpt lat="39.3792967" lon="8.4939383"><ele>493.99999999999994</ele><time>2026-05-01T11:10:25.745Z</time></trkpt><trkpt lat="39.379385" lon="8.494015"><ele>491.0</ele><time>2026-05-01T11:10:26.745Z</time></trkpt><trkpt lat="39.3794667" lon="8.4940833"><ele>488.0</ele><time>2026-05-01T11:10:27.746Z</time></trkpt><trkpt lat="39.379545" lon="8.4941417"><ele>487.99999999999994</ele><time>2026-05-01T11:10:28.746Z</time></trkpt><trkpt lat="39.3796217" lon="8.4941983"><ele>488.0</ele><time>2026-05-01T11:10:29.745Z</time></trkpt><trkpt lat="39.3796983" lon="8.49421"><ele>488.0</ele><time>2026-05-01T11:10:30.745Z</time></trkpt><trkpt lat="39.3797883" lon="8.4941983"><ele>488.0</ele><time>2026-05-01T11:10:31.745Z</time></trkpt><trkpt lat="39.3798717" lon="8.4941517"><ele>487.99999999999994</ele><time>2026-05-01T11:10:32.745Z</time></trkpt><trkpt lat="39.3799367" lon="8.49406"><ele>488.0</ele><time>2026-05-01T11:10:33.745Z</time></trkpt><trkpt lat="39.37999" lon="8.4939533"><ele>487.8333333333333</ele><time>2026-05-01T11:10:34.745Z</time></trkpt><trkpt lat="39.38003" lon="8.493845"><ele>487.66666666666663</ele><time>2026-05-01T11:10:35.745Z</time></trkpt><trkpt lat="39.38007" lon="8.49375"><ele>487.5</ele><time>2026-05-01T11:10:36.746Z</time></trkpt><trkpt lat="39.3801183" lon="8.4936683"><ele>487.33333333333337</ele><time>2026-05-01T11:10:37.746Z</time></trkpt><trkpt lat="39.380185" lon="8.4936067"><ele>487.1666666666667</ele><time>2026-05-01T11:10:38.745Z</time></trkpt><trkpt lat="39.3802517" lon="8.493555"><ele>487.0</ele><time>2026-05-01T11:10:39.745Z</time></trkpt><trkpt lat="39.3803267" lon="8.49353"><ele>489.0</ele><time>2026-05-01T11:10:40.745Z</time></trkpt><trkpt lat="39.3804" lon="8.4935017"><ele>491.00000000000006</ele><time>2026-05-01T11:10:41.745Z</time></trkpt><trkpt lat="39.3804867" lon="8.4934783"><ele>493.00000000000006</ele><time>2026-05-01T11:10:42.746Z</time></trkpt><trkpt lat="39.3805767" lon="8.4934783"><ele>495.0</ele><time>2026-05-01T11:10:43.746Z</time></trkpt><trkpt lat="39.3806667" lon="8.4935217"><ele>497.0</ele><time>2026-05-01T11:10:44.745Z</time></trkpt><trkpt lat="39.3807583" lon="8.4935833"><ele>496.99999999999994</ele><time>2026-05-01T11:10:45.745Z</time></trkpt><trkpt lat="39.3808183" lon="8.49367"><ele>497.0</ele><time>2026-05-01T11:10:46.745Z</time></trkpt><trkpt lat="39.3808733" lon="8.4937467"><ele>497.0</ele><time>2026-05-01T11:10:47.745Z</time></trkpt><trkpt lat="39.3809283" lon="8.4938267"><ele>497.0</ele><time>2026-05-01T11:10:48.745Z</time></trkpt><trkpt lat="39.381" lon="8.493895"><ele>496.99999999999994</ele><time>2026-05-01T11:10:49.746Z</time></trkpt><trkpt lat="39.3810883" lon="8.4939467"><ele>497.0</ele><time>2026-05-01T11:10:50.746Z</time></trkpt><trkpt lat="39.3811767" lon="8.4939733"><ele>494.8333333333333</ele><time>2026-05-01T11:10:51.746Z</time></trkpt><trkpt lat="39.381255" lon="8.4939933"><ele>492.66666666666663</ele><time>2026-05-01T11:10:52.745Z</time></trkpt><trkpt lat="39.3813417" lon="8.4939917"><ele>490.5</ele><time>2026-05-01T11:10:53.745Z</time></trkpt><trkpt lat="39.381435" lon="8.4939567"><ele>488.33333333333337</ele><time>2026-05-01T11:10:54.746Z</time></trkpt><trkpt lat="39.3815133" lon="8.4938983"><ele>486.1666666666667</ele><time>2026-05-01T11:10:55.746Z</time></trkpt><trkpt lat="39.38158" lon="8.49382"><ele>484.0</ele><time>2026-05-01T11:10:56.745Z</time></trkpt><trkpt lat="39.381645" lon="8.4937483"><ele>484.0</ele><time>2026-05-01T11:10:57.745Z</time></trkpt><trkpt lat="39.38171" lon="8.4936783"><ele>484.0</ele><time>2026-05-01T11:10:58.745Z</time></trkpt><trkpt lat="39.38176" lon="8.4936033"><ele>484.0</ele><time>2026-05-01T11:10:59.745Z</time></trkpt><trkpt lat="39.3818" lon="8.493495"><ele>484.0</ele><time>2026-05-01T11:11:00.745Z</time></trkpt><trkpt lat="39.3818233" lon="8.49337"><ele>484.0</ele><time>2026-05-01T11:11:01.746Z</time></trkpt><trkpt lat="39.3818233" lon="8.4932183"><ele>484.0</ele><time>2026-05-01T11:11:02.745Z</time></trkpt><trkpt lat="39.3818233" lon="8.493035"><ele>484.0</ele><time>2026-05-01T11:11:03.746Z</time></trkpt><trkpt lat="39.381835" lon="8.49282"><ele>484.0</ele><time>2026-05-01T11:11:04.745Z</time></trkpt><trkpt lat="39.3818483" lon="8.492585"><ele>484.0</ele><time>2026-05-01T11:11:05.745Z</time></trkpt><trkpt lat="39.38185" lon="8.492375"><ele>484.0</ele><time>2026-05-01T11:11:06.745Z</time></trkpt><trkpt lat="39.3818417" lon="8.4921933"><ele>484.0</ele><time>2026-05-01T11:11:07.745Z</time></trkpt><trkpt lat="39.381815" lon="8.492035"><ele>484.0</ele><time>2026-05-01T11:11:08.746Z</time></trkpt><trkpt lat="39.3817967" lon="8.4918833"><ele>483.79999999999995</ele><time>2026-05-01T11:11:09.746Z</time></trkpt><trkpt lat="39.3818183" lon="8.4917617"><ele>483.59999999999997</ele><time>2026-05-01T11:11:10.745Z</time></trkpt><trkpt lat="39.381875" lon="8.4916667"><ele>483.4</ele><time>2026-05-01T11:11:11.745Z</time></trkpt><trkpt lat="39.3819633" lon="8.4916017"><ele>483.2</ele><time>2026-05-01T11:11:12.746Z</time></trkpt><trkpt lat="39.3821" lon="8.4915367"><ele>483.0</ele><time>2026-05-01T11:11:13.746Z</time></trkpt><trkpt lat="39.38223" lon="8.4914783"><ele>479.75</ele><time>2026-05-01T11:11:14.745Z</time></trkpt><trkpt lat="39.3823533" lon="8.491435"><ele>476.5</ele><time>2026-05-01T11:11:15.745Z</time></trkpt><trkpt lat="39.382475" lon="8.4914467"><ele>473.25</ele><time>2026-05-01T11:11:16.745Z</time></trkpt><trkpt lat="39.3825833" lon="8.49152"><ele>470.0</ele><time>2026-05-01T11:11:17.745Z</time></trkpt><trkpt lat="39.3826567" lon="8.49168"><ele>470.0</ele><time>2026-05-01T11:11:18.746Z</time></trkpt><trkpt lat="39.3827133" lon="8.49187"><ele>470.0</ele><time>2026-05-01T11:11:19.746Z</time></trkpt><trkpt lat="39.3827567" lon="8.4920817"><ele>470.0</ele><time>2026-05-01T11:11:20.745Z</time></trkpt><trkpt lat="39.3828033" lon="8.4923117"><ele>466.66666666666663</ele><time>2026-05-01T11:11:21.745Z</time></trkpt><trkpt lat="39.382865" lon="8.4925417"><ele>463.33333333333337</ele><time>2026-05-01T11:11:22.746Z</time></trkpt><trkpt lat="39.38292" lon="8.492785"><ele>460.0</ele><time>2026-05-01T11:11:23.745Z</time></trkpt><trkpt lat="39.3829783" lon="8.4930317"><ele>460.6666666666667</ele><time>2026-05-01T11:11:24.746Z</time></trkpt><trkpt lat="39.3830433" lon="8.4932917"><ele>461.33333333333337</ele><time>2026-05-01T11:11:25.745Z</time></trkpt><trkpt lat="39.3831133" lon="8.4935617"><ele>462.0</ele><time>2026-05-01T11:11:26.745Z</time></trkpt><trkpt lat="39.3831833" lon="8.493835"><ele>458.33333333333337</ele><time>2026-05-01T11:11:27.745Z</time></trkpt><trkpt lat="39.3832433" lon="8.4940933"><ele>454.6666666666667</ele><time>2026-05-01T11:11:28.745Z</time></trkpt><trkpt lat="39.3833" lon="8.494325"><ele>451.0</ele><time>2026-05-01T11:11:29.746Z</time></trkpt><trkpt lat="39.383325" lon="8.494555"><ele>448.33333333333337</ele><time>2026-05-01T11:11:30.746Z</time></trkpt><trkpt lat="39.3833967" lon="8.4947583"><ele>445.66666666666663</ele><time>2026-05-01T11:11:31.746Z</time></trkpt><trkpt lat="39.3834783" lon="8.4949667"><ele>443.0</ele><time>2026-05-01T11:11:32.745Z</time></trkpt><trkpt lat="39.38357" lon="8.495155"><ele>443.0</ele><time>2026-05-01T11:11:33.745Z</time></trkpt><trkpt lat="39.3836633" lon="8.4953267"><ele>443.0</ele><time>2026-05-01T11:11:34.745Z</time></trkpt><trkpt lat="39.3837517" lon="8.4954817"><ele>443.0</ele><time>2026-05-01T11:11:35.745Z</time></trkpt><trkpt lat="39.3838583" lon="8.4955817"><ele>443.0</ele><time>2026-05-01T11:11:36.745Z</time></trkpt><trkpt lat="39.3839733" lon="8.495605"><ele>443.25</ele><time>2026-05-01T11:11:37.746Z</time></trkpt><trkpt lat="39.3840867" lon="8.4955883"><ele>443.5</ele><time>2026-05-01T11:11:38.745Z</time></trkpt><trkpt lat="39.3842" lon="8.4955183"><ele>443.75</ele><time>2026-05-01T11:11:39.745Z</time></trkpt><trkpt lat="39.3843067" lon="8.495385"><ele>444.0</ele><time>2026-05-01T11:11:40.745Z</time></trkpt><trkpt lat="39.38438" lon="8.4952133"><ele>444.66666666666663</ele><time>2026-05-01T11:11:41.745Z</time></trkpt><trkpt lat="39.3844317" lon="8.4950133"><ele>445.3333333333333</ele><time>2026-05-01T11:11:42.745Z</time></trkpt><trkpt lat="39.3844633" lon="8.4948033"><ele>446.0</ele><time>2026-05-01T11:11:43.745Z</time></trkpt><trkpt lat="39.3844517" lon="8.4946"><ele>446.25</ele><time>2026-05-01T11:11:44.745Z</time></trkpt><trkpt lat="39.3844117" lon="8.49442"><ele>446.5</ele><time>2026-05-01T11:11:45.745Z</time></trkpt><trkpt lat="39.3843617" lon="8.494245"><ele>446.75</ele><time>2026-05-01T11:11:46.745Z</time></trkpt><trkpt lat="39.3843533" lon="8.4940667"><ele>447.0</ele><time>2026-05-01T11:11:47.745Z</time></trkpt><trkpt lat="39.384415" lon="8.4938883"><ele>448.66666666666663</ele><time>2026-05-01T11:11:48.745Z</time></trkpt><trkpt lat="39.3844567" lon="8.49369"><ele>450.3333333333333</ele><time>2026-05-01T11:11:49.745Z</time></trkpt><trkpt lat="39.3845383" lon="8.4934733"><ele>452.0</ele><time>2026-05-01T11:11:50.745Z</time></trkpt><trkpt lat="39.3846033" lon="8.4932867"><ele>452.0</ele><time>2026-05-01T11:11:51.746Z</time></trkpt><trkpt lat="39.3846667" lon="8.4931217"><ele>452.0</ele><time>2026-05-01T11:11:52.745Z</time></trkpt><trkpt lat="39.384735" lon="8.493025"><ele>452.0</ele><time>2026-05-01T11:11:53.745Z</time></trkpt><trkpt lat="39.38483" lon="8.4929817"><ele>452.0</ele><time>2026-05-01T11:11:54.746Z</time></trkpt><trkpt lat="39.3849383" lon="8.4929717"><ele>448.75</ele><time>2026-05-01T11:11:55.745Z</time></trkpt><trkpt lat="39.3850433" lon="8.4929117"><ele>445.5</ele><time>2026-05-01T11:11:56.745Z</time></trkpt><trkpt lat="39.3851233" lon="8.4927933"><ele>442.25</ele><time>2026-05-01T11:11:57.746Z</time></trkpt><trkpt lat="39.3851883" lon="8.4926333"><ele>439.0</ele><time>2026-05-01T11:11:58.745Z</time></trkpt><trkpt lat="39.385275" lon="8.49249"><ele>439.0</ele><time>2026-05-01T11:11:59.745Z</time></trkpt><trkpt lat="39.3853767" lon="8.4923667"><ele>439.0</ele><time>2026-05-01T11:12:00.745Z</time></trkpt><trkpt lat="39.3854667" lon="8.4922283"><ele>439.0</ele><time>2026-05-01T11:12:01.745Z</time></trkpt><trkpt lat="39.3855367" lon="8.4920533"><ele>439.0</ele><time>2026-05-01T11:12:02.745Z</time></trkpt><trkpt lat="39.385585" lon="8.4918617"><ele>434.75</ele><time>2026-05-01T11:12:03.745Z</time></trkpt><trkpt lat="39.3856417" lon="8.4916967"><ele>430.5</ele><time>2026-05-01T11:12:04.745Z</time></trkpt><trkpt lat="39.3857283" lon="8.4915817"><ele>426.25</ele><time>2026-05-01T11:12:05.745Z</time></trkpt><trkpt lat="39.3858333" lon="8.4915267"><ele>422.0</ele><time>2026-05-01T11:12:06.745Z</time></trkpt><trkpt lat="39.3859617" lon="8.4915167"><ele>422.0</ele><time>2026-05-01T11:12:07.746Z</time></trkpt><trkpt lat="39.3860767" lon="8.4915433"><ele>422.0</ele><time>2026-05-01T11:12:08.746Z</time></trkpt><trkpt lat="39.3861883" lon="8.49157"><ele>422.0</ele><time>2026-05-01T11:12:09.745Z</time></trkpt><trkpt lat="39.3862767" lon="8.49155"><ele>422.0</ele><time>2026-05-01T11:12:10.745Z</time></trkpt><trkpt lat="39.3863617" lon="8.4914733"><ele>422.0</ele><time>2026-05-01T11:12:11.745Z</time></trkpt><trkpt lat="39.3864267" lon="8.4913517"><ele>418.75</ele><time>2026-05-01T11:12:12.746Z</time></trkpt><trkpt lat="39.386475" lon="8.4911817"><ele>415.5</ele><time>2026-05-01T11:12:13.745Z</time></trkpt><trkpt lat="39.38654" lon="8.4910033"><ele>412.25</ele><time>2026-05-01T11:12:14.745Z</time></trkpt><trkpt lat="39.3866183" lon="8.4908533"><ele>409.0</ele><time>2026-05-01T11:12:15.745Z</time></trkpt><trkpt lat="39.3866867" lon="8.490725"><ele>409.0</ele><time>2026-05-01T11:12:16.746Z</time></trkpt><trkpt lat="39.3867233" lon="8.4905933"><ele>409.0</ele><time>2026-05-01T11:12:17.745Z</time></trkpt><trkpt lat="39.38671" lon="8.4904533"><ele>409.0</ele><time>2026-05-01T11:12:18.745Z</time></trkpt><trkpt lat="39.386655" lon="8.4903333"><ele>409.0</ele><time>2026-05-01T11:12:19.745Z</time></trkpt><trkpt lat="39.386555" lon="8.4902133"><ele>407.6666666666667</ele><time>2026-05-01T11:12:20.745Z</time></trkpt><trkpt lat="39.38644" lon="8.4901117"><ele>406.33333333333337</ele><time>2026-05-01T11:12:21.745Z</time></trkpt><trkpt lat="39.3862883" lon="8.4900417"><ele>405.0</ele><time>2026-05-01T11:12:22.745Z</time></trkpt><trkpt lat="39.3861183" lon="8.4900017"><ele>405.0</ele><time>2026-05-01T11:12:23.745Z</time></trkpt><trkpt lat="39.38593" lon="8.48996"><ele>405.0</ele><time>2026-05-01T11:12:24.746Z</time></trkpt><trkpt lat="39.38577" lon="8.4899233"><ele>405.0</ele><time>2026-05-01T11:12:25.745Z</time></trkpt><trkpt lat="39.385615" lon="8.4898867"><ele>407.6</ele><time>2026-05-01T11:12:26.745Z</time></trkpt><trkpt lat="39.385485" lon="8.4898483"><ele>410.2</ele><time>2026-05-01T11:12:27.745Z</time></trkpt><trkpt lat="39.3853933" lon="8.4897883"><ele>412.79999999999995</ele><time>2026-05-01T11:12:28.746Z</time></trkpt><trkpt lat="39.3853333" lon="8.4896883"><ele>415.4</ele><time>2026-05-01T11:12:29.746Z</time></trkpt><trkpt lat="39.3853033" lon="8.4895517"><ele>418.0</ele><time>2026-05-01T11:12:30.746Z</time></trkpt><trkpt lat="39.3853" lon="8.48938"><ele>418.0</ele><time>2026-05-01T11:12:31.746Z</time></trkpt><trkpt lat="39.3853267" lon="8.48918"><ele>418.0</ele><time>2026-05-01T11:12:32.745Z</time></trkpt><trkpt lat="39.3853433" lon="8.4890083"><ele>418.0</ele><time>2026-05-01T11:12:33.745Z</time></trkpt><trkpt lat="39.3853783" lon="8.4888917"><ele>418.0</ele><time>2026-05-01T11:12:34.746Z</time></trkpt><trkpt lat="39.385435" lon="8.4888217"><ele>412.25</ele><time>2026-05-01T11:12:35.745Z</time></trkpt><trkpt lat="39.3855333" lon="8.48881"><ele>406.5</ele><time>2026-05-01T11:12:36.745Z</time></trkpt><trkpt lat="39.385655" lon="8.4888233"><ele>400.75</ele><time>2026-05-01T11:12:37.745Z</time></trkpt><trkpt lat="39.385805" lon="8.488875"><ele>395.0</ele><time>2026-05-01T11:12:38.745Z</time></trkpt><trkpt lat="39.3859767" lon="8.488945"><ele>395.0</ele><time>2026-05-01T11:12:39.746Z</time></trkpt><trkpt lat="39.3861183" lon="8.48897"><ele>395.0</ele><time>2026-05-01T11:12:40.746Z</time></trkpt><trkpt lat="39.3862767" lon="8.4889083"><ele>395.0</ele><time>2026-05-01T11:12:41.745Z</time></trkpt><trkpt lat="39.3864267" lon="8.488795"><ele>394.66666666666663</ele><time>2026-05-01T11:12:42.746Z</time></trkpt><trkpt lat="39.38658" lon="8.4886583"><ele>394.33333333333337</ele><time>2026-05-01T11:12:43.746Z</time></trkpt><trkpt lat="39.3867183" lon="8.4885433"><ele>394.0</ele><time>2026-05-01T11:12:44.746Z</time></trkpt><trkpt lat="39.3868417" lon="8.488465"><ele>394.0</ele><time>2026-05-01T11:12:45.745Z</time></trkpt><trkpt lat="39.3869467" lon="8.4884133"><ele>394.0</ele><time>2026-05-01T11:12:46.745Z</time></trkpt><trkpt lat="39.38705" lon="8.4883567"><ele>394.0</ele><time>2026-05-01T11:12:47.745Z</time></trkpt><trkpt lat="39.3871333" lon="8.4882717"><ele>394.0</ele><time>2026-05-01T11:12:48.746Z</time></trkpt><trkpt lat="39.387195" lon="8.4881383"><ele>389.0</ele><time>2026-05-01T11:12:49.746Z</time></trkpt><trkpt lat="39.3872117" lon="8.4879683"><ele>384.0</ele><time>2026-05-01T11:12:50.746Z</time></trkpt><trkpt lat="39.3872233" lon="8.4877483"><ele>379.0</ele><time>2026-05-01T11:12:51.745Z</time></trkpt><trkpt lat="39.3872333" lon="8.487535"><ele>379.0</ele><time>2026-05-01T11:12:52.745Z</time></trkpt><trkpt lat="39.3872733" lon="8.487365"><ele>379.0</ele><time>2026-05-01T11:12:53.745Z</time></trkpt><trkpt lat="39.3873417" lon="8.487245"><ele>379.0</ele><time>2026-05-01T11:12:54.745Z</time></trkpt><trkpt lat="39.3874183" lon="8.48719"><ele>379.0</ele><time>2026-05-01T11:12:55.744Z</time></trkpt><trkpt lat="39.38751" lon="8.4871867"><ele>379.0</ele><time>2026-05-01T11:12:56.745Z</time></trkpt><trkpt lat="39.3876033" lon="8.48725"><ele>379.0</ele><time>2026-05-01T11:12:57.744Z</time></trkpt><trkpt lat="39.3876683" lon="8.48737"><ele>379.0</ele><time>2026-05-01T11:12:58.745Z</time></trkpt><trkpt lat="39.3877233" lon="8.4875183"><ele>379.0</ele><time>2026-05-01T11:12:59.744Z</time></trkpt><trkpt lat="39.3877833" lon="8.48769"><ele>379.0</ele><time>2026-05-01T11:13:00.744Z</time></trkpt><trkpt lat="39.3878667" lon="8.487845"><ele>376.79999999999995</ele><time>2026-05-01T11:13:01.745Z</time></trkpt><trkpt lat="39.3879517" lon="8.4879533"><ele>374.59999999999997</ele><time>2026-05-01T11:13:02.744Z</time></trkpt><trkpt lat="39.38803" lon="8.488"><ele>372.4</ele><time>2026-05-01T11:13:03.745Z</time></trkpt><trkpt lat="39.388115" lon="8.4879917"><ele>370.2</ele><time>2026-05-01T11:13:04.744Z</time></trkpt><trkpt lat="39.3881933" lon="8.487945"><ele>368.0</ele><time>2026-05-01T11:13:05.745Z</time></trkpt><trkpt lat="39.3882517" lon="8.4878483"><ele>366.75</ele><time>2026-05-01T11:13:06.745Z</time></trkpt><trkpt lat="39.3882617" lon="8.487715"><ele>365.5</ele><time>2026-05-01T11:13:07.744Z</time></trkpt><trkpt lat="39.388245" lon="8.4875333"><ele>364.25</ele><time>2026-05-01T11:13:08.745Z</time></trkpt><trkpt lat="39.3881817" lon="8.48732"><ele>363.0</ele><time>2026-05-01T11:13:09.744Z</time></trkpt><trkpt lat="39.3881667" lon="8.4871267"><ele>363.5</ele><time>2026-05-01T11:13:10.745Z</time></trkpt><trkpt lat="39.3882033" lon="8.4869683"><ele>364.0</ele><time>2026-05-01T11:13:11.744Z</time></trkpt><trkpt lat="39.3882717" lon="8.4868217"><ele>364.5</ele><time>2026-05-01T11:13:12.744Z</time></trkpt><trkpt lat="39.3883417" lon="8.486655"><ele>365.0</ele><time>2026-05-01T11:13:13.744Z</time></trkpt><trkpt lat="39.3884" lon="8.486475"><ele>365.0</ele><time>2026-05-01T11:13:14.744Z</time></trkpt><trkpt lat="39.3884167" lon="8.4862767"><ele>365.0</ele><time>2026-05-01T11:13:15.744Z</time></trkpt><trkpt lat="39.3883917" lon="8.4860733"><ele>365.0</ele><time>2026-05-01T11:13:16.744Z</time></trkpt><trkpt lat="39.3883283" lon="8.485885"><ele>362.5</ele><time>2026-05-01T11:13:17.744Z</time></trkpt><trkpt lat="39.3882317" lon="8.4857283"><ele>360.0</ele><time>2026-05-01T11:13:18.744Z</time></trkpt><trkpt lat="39.3881217" lon="8.4855883"><ele>357.5</ele><time>2026-05-01T11:13:19.744Z</time></trkpt><trkpt lat="39.3880117" lon="8.48548"><ele>355.0</ele><time>2026-05-01T11:13:20.744Z</time></trkpt><trkpt lat="39.3879267" lon="8.4853833"><ele>354.4</ele><time>2026-05-01T11:13:21.744Z</time></trkpt><trkpt lat="39.387895" lon="8.485275"><ele>353.8</ele><time>2026-05-01T11:13:22.744Z</time></trkpt><trkpt lat="39.3879167" lon="8.4851733"><ele>353.20000000000005</ele><time>2026-05-01T11:13:23.744Z</time></trkpt><trkpt lat="39.3879567" lon="8.4850867"><ele>352.6</ele><time>2026-05-01T11:13:24.744Z</time></trkpt><trkpt lat="39.3880583" lon="8.48502"><ele>352.0</ele><time>2026-05-01T11:13:25.744Z</time></trkpt><trkpt lat="39.3882217" lon="8.48495"><ele>352.0</ele><time>2026-05-01T11:13:26.744Z</time></trkpt><trkpt lat="39.3884067" lon="8.4848683"><ele>352.0</ele><time>2026-05-01T11:13:27.744Z</time></trkpt><trkpt lat="39.38856" lon="8.484755"><ele>352.0</ele><time>2026-05-01T11:13:28.745Z</time></trkpt><trkpt lat="39.3887083" lon="8.48463"><ele>349.0</ele><time>2026-05-01T11:13:29.745Z</time></trkpt><trkpt lat="39.388845" lon="8.4844683"><ele>346.0</ele><time>2026-05-01T11:13:30.744Z</time></trkpt><trkpt lat="39.3889683" lon="8.484295"><ele>343.0</ele><time>2026-05-01T11:13:31.744Z</time></trkpt><trkpt lat="39.3890833" lon="8.48414"><ele>343.0</ele><time>2026-05-01T11:13:32.744Z</time></trkpt><trkpt lat="39.3892117" lon="8.484025"><ele>343.0</ele><time>2026-05-01T11:13:33.745Z</time></trkpt><trkpt lat="39.3893633" lon="8.4839367"><ele>343.0</ele><time>2026-05-01T11:13:34.745Z</time></trkpt><trkpt lat="39.3895233" lon="8.4838483"><ele>340.0</ele><time>2026-05-01T11:13:35.744Z</time></trkpt><trkpt lat="39.3896883" lon="8.4837267"><ele>337.0</ele><time>2026-05-01T11:13:36.744Z</time></trkpt><trkpt lat="39.3898483" lon="8.4835783"><ele>334.0</ele><time>2026-05-01T11:13:37.744Z</time></trkpt><trkpt lat="39.3900033" lon="8.483425"><ele>334.0</ele><time>2026-05-01T11:13:38.744Z</time></trkpt><trkpt lat="39.3901533" lon="8.4833117"><ele>334.0</ele><time>2026-05-01T11:13:39.744Z</time></trkpt><trkpt lat="39.390315" lon="8.4832483"><ele>334.0</ele><time>2026-05-01T11:13:40.745Z</time></trkpt><trkpt lat="39.390475" lon="8.4832067"><ele>330.0</ele><time>2026-05-01T11:13:41.745Z</time></trkpt><trkpt lat="39.3905967" lon="8.483085"><ele>326.0</ele><time>2026-05-01T11:13:42.744Z</time></trkpt><trkpt lat="39.3906883" lon="8.482955"><ele>322.0</ele><time>2026-05-01T11:13:43.745Z</time></trkpt><trkpt lat="39.39074" lon="8.48284"><ele>318.0</ele><time>2026-05-01T11:13:44.744Z</time></trkpt><trkpt lat="39.3907467" lon="8.4827367"><ele>318.0</ele><time>2026-05-01T11:13:45.745Z</time></trkpt><trkpt lat="39.3907267" lon="8.4826467"><ele>318.0</ele><time>2026-05-01T11:13:46.744Z</time></trkpt><trkpt lat="39.3906783" lon="8.4825683"><ele>318.0</ele><time>2026-05-01T11:13:47.744Z</time></trkpt><trkpt lat="39.3905983" lon="8.4825217"><ele>318.0</ele><time>2026-05-01T11:13:48.745Z</time></trkpt><trkpt lat="39.3904933" lon="8.4825117"><ele>318.0</ele><time>2026-05-01T11:13:49.745Z</time></trkpt><trkpt lat="39.3903467" lon="8.4825183"><ele>320.0</ele><time>2026-05-01T11:13:50.744Z</time></trkpt><trkpt lat="39.3901767" lon="8.4825067"><ele>322.0</ele><time>2026-05-01T11:13:51.744Z</time></trkpt><trkpt lat="39.3900067" lon="8.482465"><ele>324.0</ele><time>2026-05-01T11:13:52.744Z</time></trkpt><trkpt lat="39.389805" lon="8.4823833"><ele>328.0</ele><time>2026-05-01T11:13:53.744Z</time></trkpt><trkpt lat="39.3896067" lon="8.4822883"><ele>332.0</ele><time>2026-05-01T11:13:54.745Z</time></trkpt><trkpt lat="39.3894183" lon="8.4822133"><ele>336.0</ele><time>2026-05-01T11:13:55.744Z</time></trkpt><trkpt lat="39.38926" lon="8.482155"><ele>331.25</ele><time>2026-05-01T11:13:56.744Z</time></trkpt><trkpt lat="39.3891417" lon="8.4820917"><ele>326.5</ele><time>2026-05-01T11:13:57.744Z</time></trkpt><trkpt lat="39.38905" lon="8.4819917"><ele>321.75</ele><time>2026-05-01T11:13:58.744Z</time></trkpt><trkpt lat="39.3889733" lon="8.48183"><ele>317.0</ele><time>2026-05-01T11:13:59.744Z</time></trkpt><trkpt lat="39.3888967" lon="8.4816217"><ele>320.0</ele><time>2026-05-01T11:14:00.744Z</time></trkpt><trkpt lat="39.3888267" lon="8.4814317"><ele>323.0</ele><time>2026-05-01T11:14:01.745Z</time></trkpt><trkpt lat="39.3887533" lon="8.4812783"><ele>326.0</ele><time>2026-05-01T11:14:02.744Z</time></trkpt><trkpt lat="39.3886667" lon="8.4811733"><ele>329.0</ele><time>2026-05-01T11:14:03.745Z</time></trkpt><trkpt lat="39.3885867" lon="8.481105"><ele>329.0</ele><time>2026-05-01T11:14:04.744Z</time></trkpt><trkpt lat="39.38855" lon="8.481015"><ele>329.0</ele><time>2026-05-01T11:14:05.745Z</time></trkpt><trkpt lat="39.3885467" lon="8.4809067"><ele>329.0</ele><time>2026-05-01T11:14:06.744Z</time></trkpt><trkpt lat="39.3885733" lon="8.4807983"><ele>329.0</ele><time>2026-05-01T11:14:07.744Z</time></trkpt><trkpt lat="39.388615" lon="8.4806983"><ele>329.0</ele><time>2026-05-01T11:14:08.744Z</time></trkpt><trkpt lat="39.388675" lon="8.4806267"><ele>329.0</ele><time>2026-05-01T11:14:09.744Z</time></trkpt><trkpt lat="39.3887667" lon="8.4805867"><ele>329.0</ele><time>2026-05-01T11:14:11.745Z</time></trkpt><trkpt lat="39.3888367" lon="8.4806833"><ele>329.0</ele><time>2026-05-01T11:14:24.744Z</time></trkpt><trkpt lat="39.3888933" lon="8.48078"><ele>329.0</ele><time>2026-05-01T11:14:25.744Z</time></trkpt><trkpt lat="39.3889733" lon="8.48088"><ele>329.0</ele><time>2026-05-01T11:14:26.744Z</time></trkpt><trkpt lat="39.38908" lon="8.48098"><ele>329.0</ele><time>2026-05-01T11:14:27.744Z</time></trkpt><trkpt lat="39.3892217" lon="8.4811117"><ele>325.0</ele><time>2026-05-01T11:14:28.744Z</time></trkpt><trkpt lat="39.3893917" lon="8.48125"><ele>321.0</ele><time>2026-05-01T11:14:29.744Z</time></trkpt><trkpt lat="39.3895717" lon="8.4813867"><ele>317.0</ele><time>2026-05-01T11:14:30.744Z</time></trkpt><trkpt lat="39.38973" lon="8.4814967"><ele>314.0</ele><time>2026-05-01T11:14:31.744Z</time></trkpt><trkpt lat="39.3898783" lon="8.4815767"><ele>311.0</ele><time>2026-05-01T11:14:32.744Z</time></trkpt><trkpt lat="39.390025" lon="8.4816117"><ele>308.0</ele><time>2026-05-01T11:14:33.745Z</time></trkpt><trkpt lat="39.3901917" lon="8.4816067"><ele>308.0</ele><time>2026-05-01T11:14:34.744Z</time></trkpt><trkpt lat="39.3903733" lon="8.4815733"><ele>308.0</ele><time>2026-05-01T11:14:35.744Z</time></trkpt><trkpt lat="39.3905683" lon="8.481525"><ele>308.0</ele><time>2026-05-01T11:14:36.744Z</time></trkpt><trkpt lat="39.3907783" lon="8.4814767"><ele>306.6666666666667</ele><time>2026-05-01T11:14:37.744Z</time></trkpt><trkpt lat="39.39099" lon="8.481435"><ele>305.3333333333333</ele><time>2026-05-01T11:14:38.744Z</time></trkpt><trkpt lat="39.3912033" lon="8.481395"><ele>304.0</ele><time>2026-05-01T11:14:39.745Z</time></trkpt><trkpt lat="39.3913983" lon="8.4813667"><ele>301.3333333333333</ele><time>2026-05-01T11:14:40.745Z</time></trkpt><trkpt lat="39.3915883" lon="8.481335"><ele>298.6666666666667</ele><time>2026-05-01T11:14:41.745Z</time></trkpt><trkpt lat="39.3917583" lon="8.4812983"><ele>296.0</ele><time>2026-05-01T11:14:42.744Z</time></trkpt><trkpt lat="39.3918933" lon="8.481275"><ele>296.0</ele><time>2026-05-01T11:14:43.744Z</time></trkpt><trkpt lat="39.3920217" lon="8.4812883"><ele>296.0</ele><time>2026-05-01T11:14:44.744Z</time></trkpt><trkpt lat="39.3921283" lon="8.4813483"><ele>296.0</ele><time>2026-05-01T11:14:45.744Z</time></trkpt><trkpt lat="39.3922533" lon="8.48145"><ele>296.0</ele><time>2026-05-01T11:14:46.745Z</time></trkpt><trkpt lat="39.3923567" lon="8.4815817"><ele>296.6</ele><time>2026-05-01T11:14:47.744Z</time></trkpt><trkpt lat="39.3924317" lon="8.4817167"><ele>297.20000000000005</ele><time>2026-05-01T11:14:48.745Z</time></trkpt><trkpt lat="39.3924583" lon="8.4818583"><ele>297.79999999999995</ele><time>2026-05-01T11:14:49.744Z</time></trkpt><trkpt lat="39.3924717" lon="8.4819933"><ele>298.4</ele><time>2026-05-01T11:14:50.744Z</time></trkpt><trkpt lat="39.3924283" lon="8.4821133"><ele>299.0</ele><time>2026-05-01T11:14:51.744Z</time></trkpt><trkpt lat="39.3923567" lon="8.482235"><ele>299.33333333333337</ele><time>2026-05-01T11:14:52.744Z</time></trkpt><trkpt lat="39.3922433" lon="8.4823583"><ele>299.6666666666667</ele><time>2026-05-01T11:14:53.744Z</time></trkpt><trkpt lat="39.3921183" lon="8.4824983"><ele>300.0</ele><time>2026-05-01T11:14:54.744Z</time></trkpt><trkpt lat="39.3919967" lon="8.4826567"><ele>300.3333333333333</ele><time>2026-05-01T11:14:55.744Z</time></trkpt><trkpt lat="39.3918717" lon="8.482835"><ele>300.66666666666663</ele><time>2026-05-01T11:14:56.744Z</time></trkpt><trkpt lat="39.3917733" lon="8.4830217"><ele>301.0</ele><time>2026-05-01T11:14:57.744Z</time></trkpt><trkpt lat="39.3916917" lon="8.4832117"><ele>302.0</ele><time>2026-05-01T11:14:58.744Z</time></trkpt><trkpt lat="39.391635" lon="8.4834117"><ele>303.0</ele><time>2026-05-01T11:14:59.745Z</time></trkpt><trkpt lat="39.391595" lon="8.483655"><ele>304.0</ele><time>2026-05-01T11:15:00.744Z</time></trkpt><trkpt lat="39.3915433" lon="8.483905"><ele>304.0</ele><time>2026-05-01T11:15:01.744Z</time></trkpt><trkpt lat="39.3914717" lon="8.4841283"><ele>304.0</ele><time>2026-05-01T11:15:02.744Z</time></trkpt><trkpt lat="39.3913783" lon="8.484335"><ele>304.0</ele><time>2026-05-01T11:15:03.744Z</time></trkpt><trkpt lat="39.3912633" lon="8.484535"><ele>302.0</ele><time>2026-05-01T11:15:04.745Z</time></trkpt><trkpt lat="39.391155" lon="8.4847417"><ele>300.0</ele><time>2026-05-01T11:15:05.744Z</time></trkpt><trkpt lat="39.39105" lon="8.4849567"><ele>298.0</ele><time>2026-05-01T11:15:06.745Z</time></trkpt><trkpt lat="39.39094" lon="8.4851733"><ele>298.0</ele><time>2026-05-01T11:15:07.745Z</time></trkpt><trkpt lat="39.3908317" lon="8.4853917"><ele>298.0</ele><time>2026-05-01T11:15:08.744Z</time></trkpt><trkpt lat="39.3907383" lon="8.4856183"><ele>298.0</ele><time>2026-05-01T11:15:09.744Z</time></trkpt><trkpt lat="39.390645" lon="8.4858483"><ele>301.66666666666663</ele><time>2026-05-01T11:15:10.744Z</time></trkpt><trkpt lat="39.3905867" lon="8.48606"><ele>305.3333333333333</ele><time>2026-05-01T11:15:11.745Z</time></trkpt><trkpt lat="39.39055" lon="8.48627"><ele>309.0</ele><time>2026-05-01T11:15:12.744Z</time></trkpt><trkpt lat="39.390535" lon="8.486505"><ele>308.3333333333333</ele><time>2026-05-01T11:15:13.744Z</time></trkpt><trkpt lat="39.3905617" lon="8.4867467"><ele>307.66666666666663</ele><time>2026-05-01T11:15:14.744Z</time></trkpt><trkpt lat="39.39061" lon="8.486995"><ele>307.0</ele><time>2026-05-01T11:15:15.744Z</time></trkpt><trkpt lat="39.3906683" lon="8.4872517"><ele>307.0</ele><time>2026-05-01T11:15:16.745Z</time></trkpt><trkpt lat="39.3907283" lon="8.48751"><ele>307.0</ele><time>2026-05-01T11:15:17.744Z</time></trkpt><trkpt lat="39.390775" lon="8.4877617"><ele>307.0</ele><time>2026-05-01T11:15:18.744Z</time></trkpt><trkpt lat="39.3908133" lon="8.4879867"><ele>306.66666666666663</ele><time>2026-05-01T11:15:19.744Z</time></trkpt><trkpt lat="39.3908583" lon="8.4882117"><ele>306.3333333333333</ele><time>2026-05-01T11:15:20.745Z</time></trkpt><trkpt lat="39.39089" lon="8.4884233"><ele>306.0</ele><time>2026-05-01T11:15:21.745Z</time></trkpt><trkpt lat="39.3909233" lon="8.4886433"><ele>307.6666666666667</ele><time>2026-05-01T11:15:22.745Z</time></trkpt><trkpt lat="39.3909467" lon="8.4888717"><ele>309.33333333333337</ele><time>2026-05-01T11:15:23.744Z</time></trkpt><trkpt lat="39.3909617" lon="8.4891083"><ele>311.0</ele><time>2026-05-01T11:15:24.744Z</time></trkpt><trkpt lat="39.3909617" lon="8.4893417"><ele>311.0</ele><time>2026-05-01T11:15:25.744Z</time></trkpt><trkpt lat="39.3909517" lon="8.4895733"><ele>311.0</ele><time>2026-05-01T11:15:26.744Z</time></trkpt><trkpt lat="39.39093" lon="8.4897983"><ele>311.0</ele><time>2026-05-01T11:15:27.744Z</time></trkpt><trkpt lat="39.3908917" lon="8.4900267"><ele>311.6666666666667</ele><time>2026-05-01T11:15:28.744Z</time></trkpt><trkpt lat="39.390855" lon="8.490275"><ele>312.3333333333333</ele><time>2026-05-01T11:15:29.744Z</time></trkpt><trkpt lat="39.390815" lon="8.490525"><ele>313.0</ele><time>2026-05-01T11:15:30.745Z</time></trkpt><trkpt lat="39.39079" lon="8.49079"><ele>315.0</ele><time>2026-05-01T11:15:31.744Z</time></trkpt><trkpt lat="39.3907567" lon="8.49105"><ele>317.0</ele><time>2026-05-01T11:15:32.745Z</time></trkpt><trkpt lat="39.3907183" lon="8.4913067"><ele>319.0</ele><time>2026-05-01T11:15:33.745Z</time></trkpt><trkpt lat="39.390685" lon="8.49156"><ele>322.3333333333333</ele><time>2026-05-01T11:15:34.744Z</time></trkpt><trkpt lat="39.3906567" lon="8.491815"><ele>325.6666666666667</ele><time>2026-05-01T11:15:35.744Z</time></trkpt><trkpt lat="39.3906167" lon="8.4920583"><ele>329.0</ele><time>2026-05-01T11:15:36.744Z</time></trkpt><trkpt lat="39.3905733" lon="8.4922917"><ele>331.0</ele><time>2026-05-01T11:15:37.744Z</time></trkpt><trkpt lat="39.3905483" lon="8.4925267"><ele>333.0</ele><time>2026-05-01T11:15:38.745Z</time></trkpt><trkpt lat="39.3905117" lon="8.49276"><ele>335.0</ele><time>2026-05-01T11:15:39.744Z</time></trkpt><trkpt lat="39.3904667" lon="8.493"><ele>327.33333333333337</ele><time>2026-05-01T11:15:40.745Z</time></trkpt><trkpt lat="39.3904167" lon="8.4932233"><ele>319.6666666666667</ele><time>2026-05-01T11:15:41.745Z</time></trkpt><trkpt lat="39.3903667" lon="8.49343"><ele>312.0</ele><time>2026-05-01T11:15:42.744Z</time></trkpt><trkpt lat="39.3903217" lon="8.4936267"><ele>313.25</ele><time>2026-05-01T11:15:43.745Z</time></trkpt><trkpt lat="39.3902617" lon="8.4938017"><ele>314.5</ele><time>2026-05-01T11:15:44.744Z</time></trkpt><trkpt lat="39.3902083" lon="8.4939667"><ele>315.75</ele><time>2026-05-01T11:15:45.744Z</time></trkpt><trkpt lat="39.39017" lon="8.4941217"><ele>317.0</ele><time>2026-05-01T11:15:46.744Z</time></trkpt><trkpt lat="39.3901317" lon="8.4942633"><ele>317.0</ele><time>2026-05-01T11:15:47.744Z</time></trkpt><trkpt lat="39.39011" lon="8.4943917"><ele>317.0</ele><time>2026-05-01T11:15:48.744Z</time></trkpt><trkpt lat="39.390115" lon="8.49452"><ele>317.0</ele><time>2026-05-01T11:15:49.744Z</time></trkpt><trkpt lat="39.3901617" lon="8.49465"><ele>317.0</ele><time>2026-05-01T11:15:50.745Z</time></trkpt><trkpt lat="39.390235" lon="8.4947983"><ele>317.0</ele><time>2026-05-01T11:15:51.745Z</time></trkpt><trkpt lat="39.3903333" lon="8.494955"><ele>319.5</ele><time>2026-05-01T11:15:52.745Z</time></trkpt><trkpt lat="39.3904017" lon="8.4951117"><ele>322.0</ele><time>2026-05-01T11:15:53.744Z</time></trkpt><trkpt lat="39.3904483" lon="8.4952667"><ele>324.5</ele><time>2026-05-01T11:15:54.745Z</time></trkpt><trkpt lat="39.390455" lon="8.49544"><ele>327.0</ele><time>2026-05-01T11:15:55.744Z</time></trkpt><trkpt lat="39.3904167" lon="8.495625"><ele>328.6</ele><time>2026-05-01T11:15:56.745Z</time></trkpt><trkpt lat="39.3903633" lon="8.4957867"><ele>330.20000000000005</ele><time>2026-05-01T11:15:57.744Z</time></trkpt><trkpt lat="39.3903367" lon="8.4959217"><ele>331.8</ele><time>2026-05-01T11:15:58.744Z</time></trkpt><trkpt lat="39.39033" lon="8.49603"><ele>333.4</ele><time>2026-05-01T11:15:59.745Z</time></trkpt><trkpt lat="39.39035" lon="8.4961183"><ele>335.0</ele><time>2026-05-01T11:16:00.744Z</time></trkpt><trkpt lat="39.3903867" lon="8.4961933"><ele>335.0</ele><time>2026-05-01T11:16:01.744Z</time></trkpt><trkpt lat="39.390465" lon="8.4962517"><ele>335.0</ele><time>2026-05-01T11:16:02.744Z</time></trkpt><trkpt lat="39.3905517" lon="8.4962917"><ele>335.0</ele><time>2026-05-01T11:16:03.744Z</time></trkpt><trkpt lat="39.3906067" lon="8.4963483"><ele>335.0</ele><time>2026-05-01T11:16:04.744Z</time></trkpt><trkpt lat="39.3906383" lon="8.4964383"><ele>335.0</ele><time>2026-05-01T11:16:05.744Z</time></trkpt><trkpt lat="39.390645" lon="8.4965633"><ele>335.0</ele><time>2026-05-01T11:16:06.745Z</time></trkpt><trkpt lat="39.39063" lon="8.4967"><ele>334.5</ele><time>2026-05-01T11:16:07.745Z</time></trkpt><trkpt lat="39.3905933" lon="8.4968667"><ele>334.0</ele><time>2026-05-01T11:16:08.745Z</time></trkpt><trkpt lat="39.3905683" lon="8.497055"><ele>333.5</ele><time>2026-05-01T11:16:09.745Z</time></trkpt><trkpt lat="39.39055" lon="8.4972433"><ele>333.0</ele><time>2026-05-01T11:16:10.744Z</time></trkpt><trkpt lat="39.3905417" lon="8.49745"><ele>332.79999999999995</ele><time>2026-05-01T11:16:11.744Z</time></trkpt><trkpt lat="39.3905117" lon="8.4976383"><ele>332.6</ele><time>2026-05-01T11:16:12.744Z</time></trkpt><trkpt lat="39.39046" lon="8.4977683"><ele>332.4</ele><time>2026-05-01T11:16:13.744Z</time></trkpt><trkpt lat="39.3904283" lon="8.49787"><ele>332.20000000000005</ele><time>2026-05-01T11:16:14.744Z</time></trkpt><trkpt lat="39.3904083" lon="8.4979917"><ele>332.0</ele><time>2026-05-01T11:16:16.743Z</time></trkpt><trkpt lat="39.39048" lon="8.49808"><ele>332.40000000000003</ele><time>2026-05-01T11:16:19.743Z</time></trkpt><trkpt lat="39.390545" lon="8.4981083"><ele>332.8</ele><time>2026-05-01T11:16:20.744Z</time></trkpt><trkpt lat="39.390635" lon="8.49813"><ele>333.2</ele><time>2026-05-01T11:16:21.743Z</time></trkpt><trkpt lat="39.3907417" lon="8.4981567"><ele>333.6</ele><time>2026-05-01T11:16:22.743Z</time></trkpt><trkpt lat="39.3908417" lon="8.4981933"><ele>334.0</ele><time>2026-05-01T11:16:23.743Z</time></trkpt><trkpt lat="39.3909133" lon="8.498265"><ele>334.0</ele><time>2026-05-01T11:16:24.743Z</time></trkpt><trkpt lat="39.39096" lon="8.4983767"><ele>334.0</ele><time>2026-05-01T11:16:25.743Z</time></trkpt><trkpt lat="39.3909883" lon="8.498505"><ele>334.0</ele><time>2026-05-01T11:16:26.743Z</time></trkpt><trkpt lat="39.39103" lon="8.4986567"><ele>334.0</ele><time>2026-05-01T11:16:27.744Z</time></trkpt><trkpt lat="39.3910917" lon="8.4987933"><ele>334.0</ele><time>2026-05-01T11:16:28.743Z</time></trkpt><trkpt lat="39.39118" lon="8.4989183"><ele>336.0</ele><time>2026-05-01T11:16:29.744Z</time></trkpt><trkpt lat="39.3912883" lon="8.4990383"><ele>338.0</ele><time>2026-05-01T11:16:30.743Z</time></trkpt><trkpt lat="39.3913967" lon="8.4991483"><ele>340.0</ele><time>2026-05-01T11:16:31.744Z</time></trkpt><trkpt lat="39.3914767" lon="8.4992583"><ele>342.0</ele><time>2026-05-01T11:16:32.743Z</time></trkpt><trkpt lat="39.3915433" lon="8.4993683"><ele>342.0</ele><time>2026-05-01T11:16:33.743Z</time></trkpt><trkpt lat="39.39158" lon="8.499465"><ele>342.0</ele><time>2026-05-01T11:16:34.744Z</time></trkpt><trkpt lat="39.39158" lon="8.4995567"><ele>342.0</ele><time>2026-05-01T11:16:35.744Z</time></trkpt><trkpt lat="39.3915567" lon="8.4996483"><ele>342.0</ele><time>2026-05-01T11:16:36.743Z</time></trkpt><trkpt lat="39.3915117" lon="8.4997367"><ele>342.0</ele><time>2026-05-01T11:16:37.743Z</time></trkpt><trkpt lat="39.3914583" lon="8.4998333"><ele>342.0</ele><time>2026-05-01T11:16:38.743Z</time></trkpt><trkpt lat="39.3914233" lon="8.49993"><ele>342.0</ele><time>2026-05-01T11:16:39.744Z</time></trkpt><trkpt lat="39.3914" lon="8.5000283"><ele>342.0</ele><time>2026-05-01T11:16:40.743Z</time></trkpt><trkpt lat="39.391405" lon="8.5001433"><ele>342.0</ele><time>2026-05-01T11:16:41.743Z</time></trkpt><trkpt lat="39.3914383" lon="8.5002617"><ele>342.0</ele><time>2026-05-01T11:16:42.743Z</time></trkpt><trkpt lat="39.39149" lon="8.50039"><ele>342.0</ele><time>2026-05-01T11:16:43.743Z</time></trkpt><trkpt lat="39.3915317" lon="8.5005217"><ele>343.5</ele><time>2026-05-01T11:16:44.743Z</time></trkpt><trkpt lat="39.391555" lon="8.5006633"><ele>345.0</ele><time>2026-05-01T11:16:45.743Z</time></trkpt><trkpt lat="39.3915683" lon="8.5007983"><ele>346.5</ele><time>2026-05-01T11:16:46.743Z</time></trkpt><trkpt lat="39.3915583" lon="8.5009517"><ele>348.0</ele><time>2026-05-01T11:16:47.744Z</time></trkpt><trkpt lat="39.3915483" lon="8.501125"><ele>350.25</ele><time>2026-05-01T11:16:48.743Z</time></trkpt><trkpt lat="39.3915267" lon="8.5012917"><ele>352.5</ele><time>2026-05-01T11:16:49.743Z</time></trkpt><trkpt lat="39.3915033" lon="8.501455"><ele>354.75</ele><time>2026-05-01T11:16:50.743Z</time></trkpt><trkpt lat="39.3914867" lon="8.5016183"><ele>357.0</ele><time>2026-05-01T11:16:51.743Z</time></trkpt><trkpt lat="39.3914883" lon="8.501785"><ele>357.0</ele><time>2026-05-01T11:16:52.743Z</time></trkpt><trkpt lat="39.3914967" lon="8.50195"><ele>357.0</ele><time>2026-05-01T11:16:53.743Z</time></trkpt><trkpt lat="39.3915183" lon="8.5021183"><ele>357.0</ele><time>2026-05-01T11:16:54.744Z</time></trkpt><trkpt lat="39.39155" lon="8.50229"><ele>357.0</ele><time>2026-05-01T11:16:55.743Z</time></trkpt><trkpt lat="39.3915917" lon="8.5024767"><ele>357.75</ele><time>2026-05-01T11:16:56.744Z</time></trkpt><trkpt lat="39.39164" lon="8.50266"><ele>358.5</ele><time>2026-05-01T11:16:57.744Z</time></trkpt><trkpt lat="39.391685" lon="8.50283"><ele>359.25</ele><time>2026-05-01T11:16:58.743Z</time></trkpt><trkpt lat="39.391725" lon="8.502995"><ele>360.0</ele><time>2026-05-01T11:16:59.743Z</time></trkpt><trkpt lat="39.391765" lon="8.5031633"><ele>361.0</ele><time>2026-05-01T11:17:00.743Z</time></trkpt><trkpt lat="39.391795" lon="8.5033167"><ele>362.0</ele><time>2026-05-01T11:17:01.743Z</time></trkpt><trkpt lat="39.3918333" lon="8.5034567"><ele>363.0</ele><time>2026-05-01T11:17:02.743Z</time></trkpt><trkpt lat="39.391895" lon="8.503585"><ele>364.0</ele><time>2026-05-01T11:17:03.743Z</time></trkpt><trkpt lat="39.3919817" lon="8.50371"><ele>363.5</ele><time>2026-05-01T11:17:04.743Z</time></trkpt><trkpt lat="39.392075" lon="8.5038267"><ele>363.0</ele><time>2026-05-01T11:17:05.743Z</time></trkpt><trkpt lat="39.392175" lon="8.5039367"><ele>362.5</ele><time>2026-05-01T11:17:06.743Z</time></trkpt><trkpt lat="39.39226" lon="8.5040367"><ele>362.0</ele><time>2026-05-01T11:17:07.744Z</time></trkpt><trkpt lat="39.392315" lon="8.50411"><ele>362.0</ele><time>2026-05-01T11:17:08.743Z</time></trkpt><trkpt lat="39.3923467" lon="8.5041933"><ele>362.0</ele><time>2026-05-01T11:17:09.743Z</time></trkpt><trkpt lat="39.3923667" lon="8.50435"><ele>362.0</ele><time>2026-05-01T11:17:11.743Z</time></trkpt><trkpt lat="39.3923567" lon="8.504445"><ele>362.0</ele><time>2026-05-01T11:17:12.743Z</time></trkpt><trkpt lat="39.39233" lon="8.5045483"><ele>362.0</ele><time>2026-05-01T11:17:13.743Z</time></trkpt><trkpt lat="39.392295" lon="8.5046583"><ele>362.0</ele><time>2026-05-01T11:17:14.743Z</time></trkpt><trkpt lat="39.3922617" lon="8.50477"><ele>363.0</ele><time>2026-05-01T11:17:15.743Z</time></trkpt><trkpt lat="39.3922217" lon="8.5048817"><ele>364.0</ele><time>2026-05-01T11:17:16.743Z</time></trkpt><trkpt lat="39.3921783" lon="8.50499"><ele>365.0</ele><time>2026-05-01T11:17:17.744Z</time></trkpt><trkpt lat="39.3921183" lon="8.505085"><ele>366.0</ele><time>2026-05-01T11:17:18.743Z</time></trkpt><trkpt lat="39.3920433" lon="8.50519"><ele>367.0</ele><time>2026-05-01T11:17:19.744Z</time></trkpt><trkpt lat="39.39198" lon="8.5053067"><ele>368.75</ele><time>2026-05-01T11:17:20.743Z</time></trkpt><trkpt lat="39.3919267" lon="8.5054383"><ele>370.5</ele><time>2026-05-01T11:17:21.743Z</time></trkpt><trkpt lat="39.3918867" lon="8.5055933"><ele>372.25</ele><time>2026-05-01T11:17:22.744Z</time></trkpt><trkpt lat="39.3918433" lon="8.5057517"><ele>374.0</ele><time>2026-05-01T11:17:23.744Z</time></trkpt><trkpt lat="39.3918167" lon="8.505925"><ele>374.0</ele><time>2026-05-01T11:17:24.744Z</time></trkpt><trkpt lat="39.391775" lon="8.5060967"><ele>374.0</ele><time>2026-05-01T11:17:25.744Z</time></trkpt><trkpt lat="39.3917417" lon="8.5062483"><ele>374.0</ele><time>2026-05-01T11:17:26.743Z</time></trkpt><trkpt lat="39.391715" lon="8.50637"><ele>374.0</ele><time>2026-05-01T11:17:27.743Z</time></trkpt><trkpt lat="39.39167" lon="8.5064867"><ele>373.75</ele><time>2026-05-01T11:17:28.743Z</time></trkpt><trkpt lat="39.3916067" lon="8.50659"><ele>373.5</ele><time>2026-05-01T11:17:29.743Z</time></trkpt><trkpt lat="39.391525" lon="8.5066967"><ele>373.25</ele><time>2026-05-01T11:17:30.744Z</time></trkpt><trkpt lat="39.39145" lon="8.5068267"><ele>373.0</ele><time>2026-05-01T11:17:31.743Z</time></trkpt><trkpt lat="39.3913917" lon="8.5069783"><ele>374.79999999999995</ele><time>2026-05-01T11:17:32.743Z</time></trkpt><trkpt lat="39.3913567" lon="8.5071333"><ele>376.6</ele><time>2026-05-01T11:17:33.743Z</time></trkpt><trkpt lat="39.3913333" lon="8.50729"><ele>378.4</ele><time>2026-05-01T11:17:34.743Z</time></trkpt><trkpt lat="39.3913283" lon="8.507425"><ele>380.20000000000005</ele><time>2026-05-01T11:17:35.743Z</time></trkpt><trkpt lat="39.39133" lon="8.50755"><ele>382.0</ele><time>2026-05-01T11:17:36.743Z</time></trkpt><trkpt lat="39.3913183" lon="8.5076383"><ele>383.0</ele><time>2026-05-01T11:17:37.743Z</time></trkpt><trkpt lat="39.39129" lon="8.507725"><ele>384.0</ele><time>2026-05-01T11:17:38.744Z</time></trkpt><trkpt lat="39.3912483" lon="8.5078167"><ele>385.0</ele><time>2026-05-01T11:17:39.743Z</time></trkpt><trkpt lat="39.3911967" lon="8.5079117"><ele>386.0</ele><time>2026-05-01T11:17:40.744Z</time></trkpt><trkpt lat="39.3911417" lon="8.507995"><ele>387.00000000000006</ele><time>2026-05-01T11:17:41.744Z</time></trkpt><trkpt lat="39.391085" lon="8.50806"><ele>388.0</ele><time>2026-05-01T11:17:42.743Z</time></trkpt><trkpt lat="39.391025" lon="8.5081167"><ele>388.0</ele><time>2026-05-01T11:17:43.743Z</time></trkpt><trkpt lat="39.390945" lon="8.5081417"><ele>388.0</ele><time>2026-05-01T11:17:44.743Z</time></trkpt><trkpt lat="39.3908483" lon="8.508175"><ele>388.0</ele><time>2026-05-01T11:17:45.743Z</time></trkpt><trkpt lat="39.3907567" lon="8.508215"><ele>388.0</ele><time>2026-05-01T11:17:46.744Z</time></trkpt><trkpt lat="39.390665" lon="8.5082483"><ele>388.0</ele><time>2026-05-01T11:17:47.743Z</time></trkpt><trkpt lat="39.390575" lon="8.5083217"><ele>393.0</ele><time>2026-05-01T11:17:48.743Z</time></trkpt><trkpt lat="39.3904867" lon="8.5084"><ele>398.0</ele><time>2026-05-01T11:17:49.744Z</time></trkpt><trkpt lat="39.3904033" lon="8.5085267"><ele>403.0</ele><time>2026-05-01T11:17:50.744Z</time></trkpt><trkpt lat="39.3903267" lon="8.5086417"><ele>408.0</ele><time>2026-05-01T11:17:51.743Z</time></trkpt><trkpt lat="39.3902667" lon="8.5087867"><ele>408.0</ele><time>2026-05-01T11:17:52.743Z</time></trkpt><trkpt lat="39.39021" lon="8.50896"><ele>408.0</ele><time>2026-05-01T11:17:53.744Z</time></trkpt><trkpt lat="39.3901483" lon="8.5091217"><ele>408.0</ele><time>2026-05-01T11:17:54.743Z</time></trkpt><trkpt lat="39.3900867" lon="8.5092933"><ele>408.0</ele><time>2026-05-01T11:17:55.744Z</time></trkpt><trkpt lat="39.3900233" lon="8.509465"><ele>407.25</ele><time>2026-05-01T11:17:56.744Z</time></trkpt><trkpt lat="39.389965" lon="8.5096333"><ele>406.5</ele><time>2026-05-01T11:17:57.743Z</time></trkpt><trkpt lat="39.389905" lon="8.5098017"><ele>405.75</ele><time>2026-05-01T11:17:58.744Z</time></trkpt><trkpt lat="39.3898467" lon="8.50997"><ele>405.0</ele><time>2026-05-01T11:17:59.743Z</time></trkpt><trkpt lat="39.3897867" lon="8.5101317"><ele>405.0</ele><time>2026-05-01T11:18:00.744Z</time></trkpt><trkpt lat="39.3897183" lon="8.5103417"><ele>405.0</ele><time>2026-05-01T11:18:01.743Z</time></trkpt><trkpt lat="39.38965" lon="8.5105383"><ele>405.0</ele><time>2026-05-01T11:18:02.743Z</time></trkpt><trkpt lat="39.3895583" lon="8.5107017"><ele>409.33333333333337</ele><time>2026-05-01T11:18:03.743Z</time></trkpt><trkpt lat="39.3894583" lon="8.5108717"><ele>413.6666666666667</ele><time>2026-05-01T11:18:04.743Z</time></trkpt><trkpt lat="39.3893567" lon="8.51106"><ele>418.0</ele><time>2026-05-01T11:18:05.743Z</time></trkpt><trkpt lat="39.3892683" lon="8.511235"><ele>416.0</ele><time>2026-05-01T11:18:06.743Z</time></trkpt><trkpt lat="39.389175" lon="8.5114267"><ele>414.0</ele><time>2026-05-01T11:18:07.743Z</time></trkpt><trkpt lat="39.3890783" lon="8.5116183"><ele>412.0</ele><time>2026-05-01T11:18:08.743Z</time></trkpt><trkpt lat="39.3890033" lon="8.5118183"><ele>412.0</ele><time>2026-05-01T11:18:09.743Z</time></trkpt><trkpt lat="39.3889183" lon="8.51203"><ele>412.0</ele><time>2026-05-01T11:18:10.744Z</time></trkpt><trkpt lat="39.3888367" lon="8.5122467"><ele>412.0</ele><time>2026-05-01T11:18:11.744Z</time></trkpt><trkpt lat="39.3887683" lon="8.5124583"><ele>411.33333333333337</ele><time>2026-05-01T11:18:12.744Z</time></trkpt><trkpt lat="39.388695" lon="8.5126567"><ele>410.66666666666663</ele><time>2026-05-01T11:18:13.743Z</time></trkpt><trkpt lat="39.3886267" lon="8.5128317"><ele>410.0</ele><time>2026-05-01T11:18:14.743Z</time></trkpt><trkpt lat="39.3885567" lon="8.5129767"><ele>410.0</ele><time>2026-05-01T11:18:15.743Z</time></trkpt><trkpt lat="39.3884833" lon="8.5131083"><ele>410.0</ele><time>2026-05-01T11:18:16.743Z</time></trkpt><trkpt lat="39.3884133" lon="8.5132183"><ele>410.0</ele><time>2026-05-01T11:18:17.744Z</time></trkpt><trkpt lat="39.38836" lon="8.513305"><ele>410.0</ele><time>2026-05-01T11:18:18.744Z</time></trkpt><trkpt lat="39.3883117" lon="8.5133983"><ele>410.0</ele><time>2026-05-01T11:18:19.744Z</time></trkpt><trkpt lat="39.3882767" lon="8.5135133"><ele>410.0</ele><time>2026-05-01T11:18:20.743Z</time></trkpt><trkpt lat="39.3882583" lon="8.5136583"><ele>410.0</ele><time>2026-05-01T11:18:21.743Z</time></trkpt><trkpt lat="39.38825" lon="8.513825"><ele>410.0</ele><time>2026-05-01T11:18:22.744Z</time></trkpt><trkpt lat="39.3882367" lon="8.5140133"><ele>410.0</ele><time>2026-05-01T11:18:23.743Z</time></trkpt><trkpt lat="39.388215" lon="8.5141917"><ele>411.75</ele><time>2026-05-01T11:18:24.744Z</time></trkpt><trkpt lat="39.38819" lon="8.514345"><ele>413.5</ele><time>2026-05-01T11:18:25.744Z</time></trkpt><trkpt lat="39.3881767" lon="8.5144833"><ele>415.25</ele><time>2026-05-01T11:18:26.743Z</time></trkpt><trkpt lat="39.388195" lon="8.5146367"><ele>417.0</ele><time>2026-05-01T11:18:27.744Z</time></trkpt><trkpt lat="39.3882417" lon="8.5148067"><ele>419.66666666666663</ele><time>2026-05-01T11:18:28.744Z</time></trkpt><trkpt lat="39.3883017" lon="8.5149933"><ele>422.3333333333333</ele><time>2026-05-01T11:18:29.743Z</time></trkpt><trkpt lat="39.38836" lon="8.5151967"><ele>425.0</ele><time>2026-05-01T11:18:30.744Z</time></trkpt><trkpt lat="39.3884233" lon="8.5154017"><ele>426.75</ele><time>2026-05-01T11:18:31.744Z</time></trkpt><trkpt lat="39.3884867" lon="8.5155767"><ele>428.5</ele><time>2026-05-01T11:18:32.743Z</time></trkpt><trkpt lat="39.3885317" lon="8.5157233"><ele>430.25</ele><time>2026-05-01T11:18:33.743Z</time></trkpt><trkpt lat="39.3885683" lon="8.5158367"><ele>432.0</ele><time>2026-05-01T11:18:34.743Z</time></trkpt><trkpt lat="39.3885867" lon="8.5159567"><ele>432.0</ele><time>2026-05-01T11:18:35.743Z</time></trkpt><trkpt lat="39.3885883" lon="8.5161017"><ele>432.0</ele><time>2026-05-01T11:18:36.743Z</time></trkpt><trkpt lat="39.388575" lon="8.51627"><ele>432.0</ele><time>2026-05-01T11:18:37.743Z</time></trkpt><trkpt lat="39.3885817" lon="8.516465"><ele>432.0</ele><time>2026-05-01T11:18:38.743Z</time></trkpt><trkpt lat="39.3885967" lon="8.516645"><ele>434.25</ele><time>2026-05-01T11:18:39.743Z</time></trkpt><trkpt lat="39.3886283" lon="8.5168083"><ele>436.5</ele><time>2026-05-01T11:18:40.743Z</time></trkpt><trkpt lat="39.3886733" lon="8.516995"><ele>438.75</ele><time>2026-05-01T11:18:41.743Z</time></trkpt><trkpt lat="39.3887217" lon="8.517185"><ele>441.0</ele><time>2026-05-01T11:18:42.743Z</time></trkpt><trkpt lat="39.3887767" lon="8.5173867"><ele>439.25</ele><time>2026-05-01T11:18:43.744Z</time></trkpt><trkpt lat="39.38883" lon="8.5175583"><ele>437.5</ele><time>2026-05-01T11:18:44.743Z</time></trkpt><trkpt lat="39.3888683" lon="8.5177167"><ele>435.75</ele><time>2026-05-01T11:18:45.743Z</time></trkpt><trkpt lat="39.38891" lon="8.5178717"><ele>434.0</ele><time>2026-05-01T11:18:46.743Z</time></trkpt><trkpt lat="39.3889183" lon="8.51803"><ele>434.0</ele><time>2026-05-01T11:18:47.743Z</time></trkpt><trkpt lat="39.388905" lon="8.518195"><ele>434.0</ele><time>2026-05-01T11:18:48.743Z</time></trkpt><trkpt lat="39.38888" lon="8.5183733"><ele>434.0</ele><time>2026-05-01T11:18:49.743Z</time></trkpt><trkpt lat="39.388865" lon="8.5185467"><ele>434.0</ele><time>2026-05-01T11:18:50.743Z</time></trkpt><trkpt lat="39.3888667" lon="8.5187317"><ele>435.66666666666663</ele><time>2026-05-01T11:18:51.743Z</time></trkpt><trkpt lat="39.3888767" lon="8.51892"><ele>437.33333333333337</ele><time>2026-05-01T11:18:52.743Z</time></trkpt><trkpt lat="39.3889083" lon="8.5191217"><ele>439.0</ele><time>2026-05-01T11:18:53.743Z</time></trkpt><trkpt lat="39.3889317" lon="8.5193167"><ele>439.0</ele><time>2026-05-01T11:18:54.744Z</time></trkpt><trkpt lat="39.388965" lon="8.5195017"><ele>439.0</ele><time>2026-05-01T11:18:55.743Z</time></trkpt><trkpt lat="39.38901" lon="8.519675"><ele>439.0</ele><time>2026-05-01T11:18:56.743Z</time></trkpt><trkpt lat="39.38904" lon="8.5198567"><ele>439.0</ele><time>2026-05-01T11:18:57.744Z</time></trkpt><trkpt lat="39.38906" lon="8.5200517"><ele>440.0</ele><time>2026-05-01T11:18:58.744Z</time></trkpt><trkpt lat="39.3890783" lon="8.5202367"><ele>441.0</ele><time>2026-05-01T11:18:59.744Z</time></trkpt><trkpt lat="39.389105" lon="8.5204083"><ele>442.0</ele><time>2026-05-01T11:19:00.743Z</time></trkpt><trkpt lat="39.38914" lon="8.5205683"><ele>443.0</ele><time>2026-05-01T11:19:01.743Z</time></trkpt><trkpt lat="39.3891883" lon="8.5207433"><ele>446.0</ele><time>2026-05-01T11:19:02.743Z</time></trkpt><trkpt lat="39.3892383" lon="8.520915"><ele>449.0</ele><time>2026-05-01T11:19:03.743Z</time></trkpt><trkpt lat="39.3893" lon="8.5210917"><ele>452.0</ele><time>2026-05-01T11:19:04.744Z</time></trkpt><trkpt lat="39.3893733" lon="8.52127"><ele>455.0</ele><time>2026-05-01T11:19:05.743Z</time></trkpt><trkpt lat="39.3894433" lon="8.52142"><ele>456.8</ele><time>2026-05-01T11:19:06.743Z</time></trkpt><trkpt lat="39.38951" lon="8.52155"><ele>458.6</ele><time>2026-05-01T11:19:07.743Z</time></trkpt><trkpt lat="39.3895583" lon="8.5216517"><ele>460.4</ele><time>2026-05-01T11:19:08.743Z</time></trkpt><trkpt lat="39.38958" lon="8.521765"><ele>462.2</ele><time>2026-05-01T11:19:09.743Z</time></trkpt><trkpt lat="39.3895833" lon="8.5218883"><ele>464.0</ele><time>2026-05-01T11:19:10.743Z</time></trkpt><trkpt lat="39.3895617" lon="8.5220267"><ele>464.0</ele><time>2026-05-01T11:19:11.743Z</time></trkpt><trkpt lat="39.3895267" lon="8.5221683"><ele>464.0</ele><time>2026-05-01T11:19:12.743Z</time></trkpt><trkpt lat="39.389495" lon="8.52235"><ele>464.0</ele><time>2026-05-01T11:19:13.744Z</time></trkpt><trkpt lat="39.3894617" lon="8.5225567"><ele>464.0</ele><time>2026-05-01T11:19:14.744Z</time></trkpt><trkpt lat="39.389435" lon="8.52274"><ele>465.5</ele><time>2026-05-01T11:19:15.743Z</time></trkpt><trkpt lat="39.3894133" lon="8.5229067"><ele>467.0</ele><time>2026-05-01T11:19:16.744Z</time></trkpt><trkpt lat="39.38941" lon="8.5230717"><ele>468.5</ele><time>2026-05-01T11:19:17.743Z</time></trkpt><trkpt lat="39.3894183" lon="8.52324"><ele>470.0</ele><time>2026-05-01T11:19:18.743Z</time></trkpt><trkpt lat="39.38944" lon="8.5234117"><ele>470.0</ele><time>2026-05-01T11:19:19.743Z</time></trkpt><trkpt lat="39.3894783" lon="8.523595"><ele>470.0</ele><time>2026-05-01T11:19:20.743Z</time></trkpt><trkpt lat="39.3895083" lon="8.5237733"><ele>470.0</ele><time>2026-05-01T11:19:21.743Z</time></trkpt><trkpt lat="39.3895267" lon="8.5239633"><ele>470.0</ele><time>2026-05-01T11:19:22.743Z</time></trkpt><trkpt lat="39.3895383" lon="8.5241483"><ele>473.0</ele><time>2026-05-01T11:19:23.744Z</time></trkpt><trkpt lat="39.3895483" lon="8.5243067"><ele>476.0</ele><time>2026-05-01T11:19:24.743Z</time></trkpt><trkpt lat="39.3895683" lon="8.5244533"><ele>479.0</ele><time>2026-05-01T11:19:25.743Z</time></trkpt><trkpt lat="39.3895917" lon="8.5246117"><ele>482.0</ele><time>2026-05-01T11:19:26.743Z</time></trkpt><trkpt lat="39.38963" lon="8.524785"><ele>481.0</ele><time>2026-05-01T11:19:27.743Z</time></trkpt><trkpt lat="39.3896733" lon="8.5249717"><ele>480.0</ele><time>2026-05-01T11:19:28.742Z</time></trkpt><trkpt lat="39.38972" lon="8.5251567"><ele>479.0</ele><time>2026-05-01T11:19:29.742Z</time></trkpt><trkpt lat="39.3897633" lon="8.5253533"><ele>480.0</ele><time>2026-05-01T11:19:30.742Z</time></trkpt><trkpt lat="39.3898" lon="8.5255433"><ele>481.0</ele><time>2026-05-01T11:19:31.742Z</time></trkpt><trkpt lat="39.3898333" lon="8.5257033"><ele>482.0</ele><time>2026-05-01T11:19:32.742Z</time></trkpt><trkpt lat="39.38986" lon="8.5258283"><ele>483.0</ele><time>2026-05-01T11:19:33.742Z</time></trkpt><trkpt lat="39.3898717" lon="8.52596"><ele>483.0</ele><time>2026-05-01T11:19:34.743Z</time></trkpt><trkpt lat="39.3898617" lon="8.5261"><ele>483.0</ele><time>2026-05-01T11:19:35.742Z</time></trkpt><trkpt lat="39.3898317" lon="8.526245"><ele>483.0</ele><time>2026-05-01T11:19:36.742Z</time></trkpt><trkpt lat="39.389805" lon="8.526405"><ele>483.0</ele><time>2026-05-01T11:19:37.742Z</time></trkpt><trkpt lat="39.3897883" lon="8.5265617"><ele>484.59999999999997</ele><time>2026-05-01T11:19:38.742Z</time></trkpt><trkpt lat="39.3898" lon="8.526715"><ele>486.19999999999993</ele><time>2026-05-01T11:19:39.743Z</time></trkpt><trkpt lat="39.38983" lon="8.526855"><ele>487.8</ele><time>2026-05-01T11:19:40.743Z</time></trkpt><trkpt lat="39.3898483" lon="8.5269583"><ele>489.4</ele><time>2026-05-01T11:19:41.742Z</time></trkpt><trkpt lat="39.3898417" lon="8.5270567"><ele>491.0</ele><time>2026-05-01T11:19:42.743Z</time></trkpt><trkpt lat="39.389815" lon="8.5271483"><ele>492.6</ele><time>2026-05-01T11:19:43.743Z</time></trkpt><trkpt lat="39.3897683" lon="8.52725"><ele>494.20000000000005</ele><time>2026-05-01T11:19:44.743Z</time></trkpt><trkpt lat="39.3897067" lon="8.52734"><ele>495.79999999999995</ele><time>2026-05-01T11:19:45.743Z</time></trkpt><trkpt lat="39.38965" lon="8.52742"><ele>497.4</ele><time>2026-05-01T11:19:46.743Z</time></trkpt><trkpt lat="39.3895717" lon="8.527525"><ele>499.0</ele><time>2026-05-01T11:19:48.742Z</time></trkpt><trkpt lat="39.3896117" lon="8.5276067"><ele>499.0</ele><time>2026-05-01T11:19:50.742Z</time></trkpt><trkpt lat="39.389755" lon="8.5276017"><ele>499.0</ele><time>2026-05-01T11:19:52.742Z</time></trkpt><trkpt lat="39.38985" lon="8.5275583"><ele>499.0</ele><time>2026-05-01T11:19:53.742Z</time></trkpt><trkpt lat="39.3899383" lon="8.5275217"><ele>499.0</ele><time>2026-05-01T11:19:54.743Z</time></trkpt><trkpt lat="39.3900117" lon="8.52751"><ele>499.0</ele><time>2026-05-01T11:19:55.742Z</time></trkpt><trkpt lat="39.3900817" lon="8.5275383"><ele>499.00000000000006</ele><time>2026-05-01T11:19:56.742Z</time></trkpt><trkpt lat="39.3901583" lon="8.5275983"><ele>499.0</ele><time>2026-05-01T11:19:57.742Z</time></trkpt><trkpt lat="39.39023" lon="8.527635"><ele>499.0</ele><time>2026-05-01T11:19:58.742Z</time></trkpt><trkpt lat="39.3903017" lon="8.5276517"><ele>499.0</ele><time>2026-05-01T11:19:59.742Z</time></trkpt><trkpt lat="39.39038" lon="8.5276333"><ele>499.00000000000006</ele><time>2026-05-01T11:20:00.743Z</time></trkpt><trkpt lat="39.3904617" lon="8.52757"><ele>499.0</ele><time>2026-05-01T11:20:01.742Z</time></trkpt><trkpt lat="39.390535" lon="8.5274767"><ele>503.6</ele><time>2026-05-01T11:20:02.742Z</time></trkpt><trkpt lat="39.39058" lon="8.5273533"><ele>508.2</ele><time>2026-05-01T11:20:03.742Z</time></trkpt><trkpt lat="39.390605" lon="8.52722"><ele>512.8000000000001</ele><time>2026-05-01T11:20:04.742Z</time></trkpt><trkpt lat="39.3905983" lon="8.5270833"><ele>517.4</ele><time>2026-05-01T11:20:05.743Z</time></trkpt><trkpt lat="39.390585" lon="8.52699"><ele>522.0</ele><time>2026-05-01T11:20:06.742Z</time></trkpt><trkpt lat="39.3906483" lon="8.5269717"><ele>522.0</ele><time>2026-05-01T11:20:09.742Z</time></trkpt><trkpt lat="39.3906817" lon="8.527105"><ele>522.0</ele><time>2026-05-01T11:20:11.743Z</time></trkpt><trkpt lat="39.3907017" lon="8.52725"><ele>522.0</ele><time>2026-05-01T11:20:12.742Z</time></trkpt><trkpt lat="39.39072" lon="8.5274017"><ele>522.0</ele><time>2026-05-01T11:20:13.742Z</time></trkpt><trkpt lat="39.3907267" lon="8.5275517"><ele>522.0</ele><time>2026-05-01T11:20:14.743Z</time></trkpt><trkpt lat="39.3907217" lon="8.5277083"><ele>522.0</ele><time>2026-05-01T11:20:15.742Z</time></trkpt><trkpt lat="39.39072" lon="8.5278417"><ele>522.0</ele><time>2026-05-01T11:20:16.743Z</time></trkpt><trkpt lat="39.3906983" lon="8.5279517"><ele>522.0</ele><time>2026-05-01T11:20:17.743Z</time></trkpt><trkpt lat="39.3906533" lon="8.5280617"><ele>522.0</ele><time>2026-05-01T11:20:18.742Z</time></trkpt><trkpt lat="39.3905983" lon="8.52818"><ele>521.1666666666666</ele><time>2026-05-01T11:20:19.742Z</time></trkpt><trkpt lat="39.3905467" lon="8.52829"><ele>520.3333333333334</ele><time>2026-05-01T11:20:20.742Z</time></trkpt><trkpt lat="39.39049" lon="8.5283733"><ele>519.5</ele><time>2026-05-01T11:20:21.742Z</time></trkpt><trkpt lat="39.3904283" lon="8.528415"><ele>518.6666666666667</ele><time>2026-05-01T11:20:22.742Z</time></trkpt><trkpt lat="39.3903633" lon="8.5284483"><ele>517.8333333333334</ele><time>2026-05-01T11:20:23.742Z</time></trkpt><trkpt lat="39.3902917" lon="8.5284617"><ele>517.0</ele><time>2026-05-01T11:20:24.743Z</time></trkpt><trkpt lat="39.3902033" lon="8.5284533"><ele>517.0</ele><time>2026-05-01T11:20:25.742Z</time></trkpt><trkpt lat="39.390095" lon="8.5284467"><ele>517.0</ele><time>2026-05-01T11:20:26.742Z</time></trkpt><trkpt lat="39.389985" lon="8.5284567"><ele>517.0</ele><time>2026-05-01T11:20:27.743Z</time></trkpt><trkpt lat="39.3898933" lon="8.5285017"><ele>517.0</ele><time>2026-05-01T11:20:28.742Z</time></trkpt><trkpt lat="39.38983" lon="8.5285733"><ele>517.0</ele><time>2026-05-01T11:20:29.743Z</time></trkpt><trkpt lat="39.3897683" lon="8.528685"><ele>518.5</ele><time>2026-05-01T11:20:30.743Z</time></trkpt><trkpt lat="39.38971" lon="8.528835"><ele>520.0</ele><time>2026-05-01T11:20:31.742Z</time></trkpt><trkpt lat="39.38965" lon="8.5290083"><ele>521.5</ele><time>2026-05-01T11:20:32.742Z</time></trkpt><trkpt lat="39.3896017" lon="8.529185"><ele>523.0</ele><time>2026-05-01T11:20:33.742Z</time></trkpt><trkpt lat="39.3895467" lon="8.5293867"><ele>525.8</ele><time>2026-05-01T11:20:34.743Z</time></trkpt><trkpt lat="39.3895117" lon="8.5295783"><ele>528.5999999999999</ele><time>2026-05-01T11:20:35.742Z</time></trkpt><trkpt lat="39.3894767" lon="8.5297333"><ele>531.4000000000001</ele><time>2026-05-01T11:20:36.742Z</time></trkpt><trkpt lat="39.389455" lon="8.5298483"><ele>534.2</ele><time>2026-05-01T11:20:37.742Z</time></trkpt><trkpt lat="39.3894183" lon="8.52994"><ele>537.0</ele><time>2026-05-01T11:20:38.742Z</time></trkpt><trkpt lat="39.38937" lon="8.5300167"><ele>537.0</ele><time>2026-05-01T11:20:39.742Z</time></trkpt><trkpt lat="39.3892967" lon="8.5300783"><ele>537.0</ele><time>2026-05-01T11:20:40.742Z</time></trkpt><trkpt lat="39.389205" lon="8.5301"><ele>537.0</ele><time>2026-05-01T11:20:41.742Z</time></trkpt><trkpt lat="39.3891" lon="8.5300933"><ele>537.0</ele><time>2026-05-01T11:20:42.742Z</time></trkpt><trkpt lat="39.3890017" lon="8.53005"><ele>537.0</ele><time>2026-05-01T11:20:43.742Z</time></trkpt><trkpt lat="39.3889217" lon="8.5299733"><ele>537.0</ele><time>2026-05-01T11:20:44.743Z</time></trkpt><trkpt lat="39.38885" lon="8.52987"><ele>537.0</ele><time>2026-05-01T11:20:45.742Z</time></trkpt><trkpt lat="39.38878" lon="8.5297467"><ele>537.0</ele><time>2026-05-01T11:20:46.742Z</time></trkpt><trkpt lat="39.3887" lon="8.529585"><ele>537.0</ele><time>2026-05-01T11:20:47.742Z</time></trkpt><trkpt lat="39.3886083" lon="8.5294333"><ele>537.25</ele><time>2026-05-01T11:20:48.743Z</time></trkpt><trkpt lat="39.3885033" lon="8.5293067"><ele>537.5</ele><time>2026-05-01T11:20:49.742Z</time></trkpt><trkpt lat="39.3884083" lon="8.529185"><ele>537.75</ele><time>2026-05-01T11:20:50.743Z</time></trkpt><trkpt lat="39.388325" lon="8.5291083"><ele>538.0</ele><time>2026-05-01T11:20:51.742Z</time></trkpt><trkpt lat="39.388265" lon="8.52904"><ele>538.0</ele><time>2026-05-01T11:20:52.743Z</time></trkpt><trkpt lat="39.3881867" lon="8.529"><ele>538.0</ele><time>2026-05-01T11:20:53.743Z</time></trkpt><trkpt lat="39.388095" lon="8.5289833"><ele>538.0</ele><time>2026-05-01T11:20:54.743Z</time></trkpt><trkpt lat="39.38799" lon="8.52899"><ele>538.0</ele><time>2026-05-01T11:20:55.742Z</time></trkpt><trkpt lat="39.38787" lon="8.5290117"><ele>538.0</ele><time>2026-05-01T11:20:56.742Z</time></trkpt><trkpt lat="39.3877633" lon="8.52902"><ele>536.8333333333334</ele><time>2026-05-01T11:20:57.742Z</time></trkpt><trkpt lat="39.3876783" lon="8.5290367"><ele>535.6666666666667</ele><time>2026-05-01T11:20:58.743Z</time></trkpt><trkpt lat="39.387615" lon="8.5290833"><ele>534.5</ele><time>2026-05-01T11:20:59.743Z</time></trkpt><trkpt lat="39.387585" lon="8.52917"><ele>533.3333333333334</ele><time>2026-05-01T11:21:00.742Z</time></trkpt><trkpt lat="39.3875833" lon="8.529285"><ele>532.1666666666666</ele><time>2026-05-01T11:21:01.742Z</time></trkpt><trkpt lat="39.3876017" lon="8.5294367"><ele>531.0</ele><time>2026-05-01T11:21:02.743Z</time></trkpt><trkpt lat="39.387625" lon="8.5296333"><ele>531.0</ele><time>2026-05-01T11:21:03.742Z</time></trkpt><trkpt lat="39.38764" lon="8.5298433"><ele>531.0</ele><time>2026-05-01T11:21:04.742Z</time></trkpt><trkpt lat="39.3876517" lon="8.5300183"><ele>531.0</ele><time>2026-05-01T11:21:05.742Z</time></trkpt><trkpt lat="39.38766" lon="8.5301567"><ele>531.0</ele><time>2026-05-01T11:21:06.742Z</time></trkpt><trkpt lat="39.38765" lon="8.5302817"><ele>531.0</ele><time>2026-05-01T11:21:07.742Z</time></trkpt><trkpt lat="39.3876133" lon="8.530385"><ele>531.0</ele><time>2026-05-01T11:21:08.742Z</time></trkpt><trkpt lat="39.387565" lon="8.5304717"><ele>531.0</ele><time>2026-05-01T11:21:09.742Z</time></trkpt><trkpt lat="39.3875067" lon="8.5305367"><ele>531.0</ele><time>2026-05-01T11:21:10.742Z</time></trkpt><trkpt lat="39.38744" lon="8.5306067"><ele>531.0</ele><time>2026-05-01T11:21:11.743Z</time></trkpt><trkpt lat="39.3873883" lon="8.5307017"><ele>531.0</ele><time>2026-05-01T11:21:12.742Z</time></trkpt><trkpt lat="39.3873583" lon="8.53082"><ele>532.5</ele><time>2026-05-01T11:21:13.742Z</time></trkpt><trkpt lat="39.387335" lon="8.5309733"><ele>534.0</ele><time>2026-05-01T11:21:14.742Z</time></trkpt><trkpt lat="39.3873117" lon="8.5311267"><ele>535.5</ele><time>2026-05-01T11:21:15.742Z</time></trkpt><trkpt lat="39.3872767" lon="8.531275"><ele>537.0</ele><time>2026-05-01T11:21:16.743Z</time></trkpt><trkpt lat="39.387255" lon="8.5314"><ele>537.0</ele><time>2026-05-01T11:21:17.742Z</time></trkpt><trkpt lat="39.38724" lon="8.5315017"><ele>537.0</ele><time>2026-05-01T11:21:18.742Z</time></trkpt><trkpt lat="39.387235" lon="8.5316017"><ele>537.0</ele><time>2026-05-01T11:21:19.743Z</time></trkpt><trkpt lat="39.38726" lon="8.53168"><ele>537.0</ele><time>2026-05-01T11:21:20.742Z</time></trkpt><trkpt lat="39.3873133" lon="8.531735"><ele>537.0</ele><time>2026-05-01T11:21:21.742Z</time></trkpt><trkpt lat="39.387385" lon="8.5317783"><ele>537.0</ele><time>2026-05-01T11:21:22.742Z</time></trkpt><trkpt lat="39.387495" lon="8.5317967"><ele>537.0</ele><time>2026-05-01T11:21:23.742Z</time></trkpt><trkpt lat="39.3876117" lon="8.531805"><ele>537.0</ele><time>2026-05-01T11:21:24.743Z</time></trkpt><trkpt lat="39.3877067" lon="8.53183"><ele>537.0</ele><time>2026-05-01T11:21:25.742Z</time></trkpt><trkpt lat="39.3877817" lon="8.5318817"><ele>537.0</ele><time>2026-05-01T11:21:26.743Z</time></trkpt><trkpt lat="39.3878317" lon="8.5319567"><ele>537.0</ele><time>2026-05-01T11:21:27.743Z</time></trkpt><trkpt lat="39.3878567" lon="8.5321483"><ele>534.2</ele><time>2026-05-01T11:21:29.742Z</time></trkpt><trkpt lat="39.3878417" lon="8.5322717"><ele>531.4000000000001</ele><time>2026-05-01T11:21:30.743Z</time></trkpt><trkpt lat="39.3878367" lon="8.5323783"><ele>528.5999999999999</ele><time>2026-05-01T11:21:31.743Z</time></trkpt><trkpt lat="39.387835" lon="8.5325433"><ele>525.8</ele><time>2026-05-01T11:21:32.742Z</time></trkpt><trkpt lat="39.3878333" lon="8.5327167"><ele>523.0</ele><time>2026-05-01T11:21:33.742Z</time></trkpt><trkpt lat="39.3878217" lon="8.5328667"><ele>522.6666666666667</ele><time>2026-05-01T11:21:34.742Z</time></trkpt><trkpt lat="39.3878117" lon="8.5329833"><ele>522.3333333333334</ele><time>2026-05-01T11:21:35.742Z</time></trkpt><trkpt lat="39.387815" lon="8.5330783"><ele>522.0</ele><time>2026-05-01T11:21:36.742Z</time></trkpt><trkpt lat="39.3878317" lon="8.5331717"><ele>521.6666666666666</ele><time>2026-05-01T11:21:37.743Z</time></trkpt><trkpt lat="39.3878783" lon="8.5332683"><ele>521.3333333333333</ele><time>2026-05-01T11:21:38.742Z</time></trkpt><trkpt lat="39.3879483" lon="8.5333467"><ele>521.0</ele><time>2026-05-01T11:21:39.742Z</time></trkpt><trkpt lat="39.3880383" lon="8.5334133"><ele>525.4</ele><time>2026-05-01T11:21:40.742Z</time></trkpt><trkpt lat="39.3881317" lon="8.533465"><ele>529.8</ele><time>2026-05-01T11:21:41.742Z</time></trkpt><trkpt lat="39.3882083" lon="8.5335183"><ele>534.1999999999999</ele><time>2026-05-01T11:21:42.743Z</time></trkpt><trkpt lat="39.3882567" lon="8.5336467"><ele>538.6</ele><time>2026-05-01T11:21:44.742Z</time></trkpt><trkpt lat="39.3882183" lon="8.5337617"><ele>543.0</ele><time>2026-05-01T11:21:46.742Z</time></trkpt><trkpt lat="39.3880833" lon="8.5337867"><ele>538.25</ele><time>2026-05-01T11:21:48.742Z</time></trkpt><trkpt lat="39.387965" lon="8.5337733"><ele>533.5</ele><time>2026-05-01T11:21:49.742Z</time></trkpt><trkpt lat="39.3878167" lon="8.5337333"><ele>528.75</ele><time>2026-05-01T11:21:50.742Z</time></trkpt><trkpt lat="39.387685" lon="8.533695"><ele>524.0</ele><time>2026-05-01T11:21:51.743Z</time></trkpt><trkpt lat="39.387565" lon="8.5336683"><ele>524.0</ele><time>2026-05-01T11:21:52.742Z</time></trkpt><trkpt lat="39.3874517" lon="8.5336633"><ele>524.0</ele><time>2026-05-01T11:21:53.742Z</time></trkpt><trkpt lat="39.3873483" lon="8.5336867"><ele>524.0</ele><time>2026-05-01T11:21:54.742Z</time></trkpt><trkpt lat="39.38725" lon="8.5337467"><ele>524.0</ele><time>2026-05-01T11:21:55.742Z</time></trkpt><trkpt lat="39.3871617" lon="8.5338417"><ele>524.0</ele><time>2026-05-01T11:21:56.743Z</time></trkpt><trkpt lat="39.3870933" lon="8.5339717"><ele>520.25</ele><time>2026-05-01T11:21:57.742Z</time></trkpt><trkpt lat="39.3870317" lon="8.53411"><ele>516.5</ele><time>2026-05-01T11:21:58.743Z</time></trkpt><trkpt lat="39.386975" lon="8.5342433"><ele>512.75</ele><time>2026-05-01T11:21:59.743Z</time></trkpt><trkpt lat="39.3869383" lon="8.5343933"><ele>509.0</ele><time>2026-05-01T11:22:00.742Z</time></trkpt><trkpt lat="39.38693" lon="8.5345483"><ele>510.0</ele><time>2026-05-01T11:22:01.742Z</time></trkpt><trkpt lat="39.3869467" lon="8.5347167"><ele>511.0</ele><time>2026-05-01T11:22:02.742Z</time></trkpt><trkpt lat="39.3869683" lon="8.5349"><ele>512.0</ele><time>2026-05-01T11:22:03.742Z</time></trkpt><trkpt lat="39.3869617" lon="8.535065"><ele>513.0</ele><time>2026-05-01T11:22:04.742Z</time></trkpt><trkpt lat="39.3869533" lon="8.5352183"><ele>513.0</ele><time>2026-05-01T11:22:05.742Z</time></trkpt><trkpt lat="39.3869367" lon="8.535375"><ele>513.0</ele><time>2026-05-01T11:22:06.742Z</time></trkpt><trkpt lat="39.3869117" lon="8.5355133"><ele>513.0</ele><time>2026-05-01T11:22:07.742Z</time></trkpt><trkpt lat="39.3868583" lon="8.5356417"><ele>513.0</ele><time>2026-05-01T11:22:08.742Z</time></trkpt><trkpt lat="39.38678" lon="8.5357633"><ele>513.0</ele><time>2026-05-01T11:22:09.743Z</time></trkpt><trkpt lat="39.3866833" lon="8.535885"><ele>513.0</ele><time>2026-05-01T11:22:10.742Z</time></trkpt><trkpt lat="39.38658" lon="8.536005"><ele>513.0</ele><time>2026-05-01T11:22:11.743Z</time></trkpt><trkpt lat="39.3864833" lon="8.5361"><ele>513.0</ele><time>2026-05-01T11:22:12.742Z</time></trkpt><trkpt lat="39.3863933" lon="8.5361667"><ele>515.25</ele><time>2026-05-01T11:22:13.742Z</time></trkpt><trkpt lat="39.3862917" lon="8.5361933"><ele>517.5</ele><time>2026-05-01T11:22:14.742Z</time></trkpt><trkpt lat="39.38617" lon="8.5361867"><ele>519.75</ele><time>2026-05-01T11:22:15.743Z</time></trkpt><trkpt lat="39.38603" lon="8.5361867"><ele>522.0</ele><time>2026-05-01T11:22:16.742Z</time></trkpt><trkpt lat="39.3858967" lon="8.5362083"><ele>519.0</ele><time>2026-05-01T11:22:17.742Z</time></trkpt><trkpt lat="39.3857583" lon="8.5362767"><ele>516.0</ele><time>2026-05-01T11:22:18.742Z</time></trkpt><trkpt lat="39.3856167" lon="8.536365"><ele>513.0</ele><time>2026-05-01T11:22:19.742Z</time></trkpt><trkpt lat="39.3854733" lon="8.5364367"><ele>513.0</ele><time>2026-05-01T11:22:20.742Z</time></trkpt><trkpt lat="39.3853217" lon="8.5365033"><ele>513.0</ele><time>2026-05-01T11:22:21.742Z</time></trkpt><trkpt lat="39.3851683" lon="8.53658"><ele>513.0</ele><time>2026-05-01T11:22:22.742Z</time></trkpt><trkpt lat="39.3850183" lon="8.5366567"><ele>513.0</ele><time>2026-05-01T11:22:23.742Z</time></trkpt><trkpt lat="39.384885" lon="8.5367283"><ele>513.0</ele><time>2026-05-01T11:22:24.742Z</time></trkpt><trkpt lat="39.3847617" lon="8.53679"><ele>513.0</ele><time>2026-05-01T11:22:25.742Z</time></trkpt><trkpt lat="39.3846633" lon="8.5368317"><ele>513.0</ele><time>2026-05-01T11:22:26.742Z</time></trkpt><trkpt lat="39.384575" lon="8.5368517"><ele>513.6</ele><time>2026-05-01T11:22:27.742Z</time></trkpt><trkpt lat="39.3845067" lon="8.5368633"><ele>514.1999999999999</ele><time>2026-05-01T11:22:28.743Z</time></trkpt><trkpt lat="39.38442" lon="8.53688"><ele>514.8</ele><time>2026-05-01T11:22:30.743Z</time></trkpt><trkpt lat="39.3843533" lon="8.5368667"><ele>515.4</ele><time>2026-05-01T11:22:32.742Z</time></trkpt><trkpt lat="39.3842633" lon="8.53674"><ele>516.0</ele><time>2026-05-01T11:22:34.742Z</time></trkpt><trkpt lat="39.384195" lon="8.53664"><ele>516.0</ele><time>2026-05-01T11:22:35.742Z</time></trkpt><trkpt lat="39.3841033" lon="8.53653"><ele>516.0</ele><time>2026-05-01T11:22:36.742Z</time></trkpt><trkpt lat="39.38399" lon="8.5364133"><ele>516.0</ele><time>2026-05-01T11:22:37.742Z</time></trkpt><trkpt lat="39.3838583" lon="8.5362783"><ele>516.0</ele><time>2026-05-01T11:22:38.742Z</time></trkpt><trkpt lat="39.3837183" lon="8.5361433"><ele>519.25</ele><time>2026-05-01T11:22:39.742Z</time></trkpt><trkpt lat="39.38358" lon="8.5360317"><ele>522.5</ele><time>2026-05-01T11:22:40.742Z</time></trkpt><trkpt lat="39.3834717" lon="8.5359567"><ele>525.75</ele><time>2026-05-01T11:22:41.742Z</time></trkpt><trkpt lat="39.383405" lon="8.5359133"><ele>529.0</ele><time>2026-05-01T11:22:42.742Z</time></trkpt><trkpt lat="39.3834883" lon="8.5359783"><ele>529.0</ele><time>2026-05-01T11:23:06.742Z</time></trkpt><trkpt lat="39.3836" lon="8.5360917"><ele>529.0</ele><time>2026-05-01T11:23:08.742Z</time></trkpt><trkpt lat="39.3836983" lon="8.53617"><ele>529.0</ele><time>2026-05-01T11:23:09.742Z</time></trkpt><trkpt lat="39.383815" lon="8.536275"><ele>529.0</ele><time>2026-05-01T11:23:10.742Z</time></trkpt><trkpt lat="39.3839267" lon="8.5363783"><ele>526.4</ele><time>2026-05-01T11:23:11.742Z</time></trkpt><trkpt lat="39.3840283" lon="8.5364867"><ele>523.8</ele><time>2026-05-01T11:23:12.742Z</time></trkpt><trkpt lat="39.3841117" lon="8.5365717"><ele>521.2</ele><time>2026-05-01T11:23:13.741Z</time></trkpt><trkpt lat="39.38419" lon="8.53665"><ele>518.6</ele><time>2026-05-01T11:23:14.741Z</time></trkpt><trkpt lat="39.38426" lon="8.53672"><ele>516.0</ele><time>2026-05-01T11:23:15.741Z</time></trkpt><trkpt lat="39.384315" lon="8.5367917"><ele>516.0</ele><time>2026-05-01T11:23:16.741Z</time></trkpt><trkpt lat="39.3843667" lon="8.53689"><ele>516.0</ele><time>2026-05-01T11:23:17.741Z</time></trkpt><trkpt lat="39.3844217" lon="8.5370033"><ele>516.0</ele><time>2026-05-01T11:23:18.741Z</time></trkpt><trkpt lat="39.3844867" lon="8.53712"><ele>516.0</ele><time>2026-05-01T11:23:19.741Z</time></trkpt><trkpt lat="39.3845483" lon="8.5372383"><ele>516.0</ele><time>2026-05-01T11:23:20.742Z</time></trkpt><trkpt lat="39.3846033" lon="8.5373517"><ele>515.6666666666666</ele><time>2026-05-01T11:23:21.742Z</time></trkpt><trkpt lat="39.3846583" lon="8.5374633"><ele>515.3333333333334</ele><time>2026-05-01T11:23:22.742Z</time></trkpt><trkpt lat="39.38471" lon="8.537565"><ele>515.0</ele><time>2026-05-01T11:23:23.741Z</time></trkpt><trkpt lat="39.3847567" lon="8.53765"><ele>514.6666666666667</ele><time>2026-05-01T11:23:24.741Z</time></trkpt><trkpt lat="39.384805" lon="8.537725"><ele>514.3333333333334</ele><time>2026-05-01T11:23:25.741Z</time></trkpt><trkpt lat="39.3848567" lon="8.5377917"><ele>514.0</ele><time>2026-05-01T11:23:26.742Z</time></trkpt><trkpt lat="39.38492" lon="8.5378567"><ele>514.8333333333334</ele><time>2026-05-01T11:23:27.741Z</time></trkpt><trkpt lat="39.3849917" lon="8.5379133"><ele>515.6666666666667</ele><time>2026-05-01T11:23:28.742Z</time></trkpt><trkpt lat="39.38508" lon="8.5379567"><ele>516.5</ele><time>2026-05-01T11:23:29.741Z</time></trkpt><trkpt lat="39.3851683" lon="8.5380033"><ele>517.3333333333334</ele><time>2026-05-01T11:23:30.741Z</time></trkpt><trkpt lat="39.38525" lon="8.5380467"><ele>518.1666666666666</ele><time>2026-05-01T11:23:31.741Z</time></trkpt><trkpt lat="39.3853283" lon="8.53809"><ele>519.0</ele><time>2026-05-01T11:23:32.741Z</time></trkpt><trkpt lat="39.3854133" lon="8.5381317"><ele>519.0</ele><time>2026-05-01T11:23:33.741Z</time></trkpt><trkpt lat="39.3854833" lon="8.5381833"><ele>519.0</ele><time>2026-05-01T11:23:34.742Z</time></trkpt><trkpt lat="39.3855583" lon="8.5382333"><ele>519.0</ele><time>2026-05-01T11:23:35.741Z</time></trkpt><trkpt lat="39.3856283" lon="8.5382733"><ele>519.0</ele><time>2026-05-01T11:23:36.742Z</time></trkpt><trkpt lat="39.3856967" lon="8.5383167"><ele>519.0</ele><time>2026-05-01T11:23:37.741Z</time></trkpt><trkpt lat="39.3857633" lon="8.5383617"><ele>519.0</ele><time>2026-05-01T11:23:38.741Z</time></trkpt><trkpt lat="39.38583" lon="8.5384067"><ele>519.5</ele><time>2026-05-01T11:23:39.741Z</time></trkpt><trkpt lat="39.3858983" lon="8.5384517"><ele>520.0</ele><time>2026-05-01T11:23:40.741Z</time></trkpt><trkpt lat="39.38597" lon="8.5385017"><ele>520.5</ele><time>2026-05-01T11:23:41.741Z</time></trkpt><trkpt lat="39.3860483" lon="8.53855"><ele>521.0</ele><time>2026-05-01T11:23:42.741Z</time></trkpt><trkpt lat="39.3861283" lon="8.538605"><ele>521.5</ele><time>2026-05-01T11:23:43.741Z</time></trkpt><trkpt lat="39.3862083" lon="8.5386667"><ele>522.0</ele><time>2026-05-01T11:23:44.741Z</time></trkpt><trkpt lat="39.3862867" lon="8.53873"><ele>524.5</ele><time>2026-05-01T11:23:45.741Z</time></trkpt><trkpt lat="39.3863567" lon="8.5387917"><ele>527.0</ele><time>2026-05-01T11:23:46.741Z</time></trkpt><trkpt lat="39.38643" lon="8.5388467"><ele>529.5</ele><time>2026-05-01T11:23:47.741Z</time></trkpt><trkpt lat="39.3865083" lon="8.5388967"><ele>532.0</ele><time>2026-05-01T11:23:48.741Z</time></trkpt><trkpt lat="39.3865883" lon="8.5389417"><ele>534.5</ele><time>2026-05-01T11:23:49.741Z</time></trkpt><trkpt lat="39.3866667" lon="8.5389767"><ele>537.0</ele><time>2026-05-01T11:23:50.742Z</time></trkpt><trkpt lat="39.3867383" lon="8.538995"><ele>537.0</ele><time>2026-05-01T11:23:51.741Z</time></trkpt><trkpt lat="39.3868067" lon="8.5390067"><ele>537.0</ele><time>2026-05-01T11:23:52.741Z</time></trkpt><trkpt lat="39.3869333" lon="8.5390333"><ele>537.0</ele><time>2026-05-01T11:23:54.742Z</time></trkpt><trkpt lat="39.3869983" lon="8.53905"><ele>537.0</ele><time>2026-05-01T11:23:55.741Z</time></trkpt><trkpt lat="39.387125" lon="8.5391017"><ele>537.0</ele><time>2026-05-01T11:23:57.742Z</time></trkpt><trkpt lat="39.3871933" lon="8.5391367"><ele>536.4285714285713</ele><time>2026-05-01T11:23:58.741Z</time></trkpt><trkpt lat="39.387265" lon="8.5391667"><ele>535.8571428571429</ele><time>2026-05-01T11:23:59.741Z</time></trkpt><trkpt lat="39.3873383" lon="8.539195"><ele>535.2857142857142</ele><time>2026-05-01T11:24:00.741Z</time></trkpt><trkpt lat="39.3874017" lon="8.5392183"><ele>534.7142857142857</ele><time>2026-05-01T11:24:01.741Z</time></trkpt><trkpt lat="39.3874633" lon="8.5392483"><ele>534.1428571428571</ele><time>2026-05-01T11:24:02.741Z</time></trkpt><trkpt lat="39.3875233" lon="8.53928"><ele>533.5714285714286</ele><time>2026-05-01T11:24:03.741Z</time></trkpt><trkpt lat="39.387595" lon="8.53932"><ele>533.0</ele><time>2026-05-01T11:24:04.741Z</time></trkpt><trkpt lat="39.3876783" lon="8.5393533"><ele>533.0</ele><time>2026-05-01T11:24:05.741Z</time></trkpt><trkpt lat="39.3877433" lon="8.5393817"><ele>533.0</ele><time>2026-05-01T11:24:06.742Z</time></trkpt><trkpt lat="39.3878233" lon="8.5394083"><ele>533.0</ele><time>2026-05-01T11:24:07.742Z</time></trkpt><trkpt lat="39.3878933" lon="8.5394367"><ele>533.0</ele><time>2026-05-01T11:24:08.741Z</time></trkpt><trkpt lat="39.3879633" lon="8.539475"><ele>533.0</ele><time>2026-05-01T11:24:09.742Z</time></trkpt><trkpt lat="39.38807" lon="8.5395717"><ele>533.0</ele><time>2026-05-01T11:24:11.742Z</time></trkpt><trkpt lat="39.388185" lon="8.5396617"><ele>534.4285714285714</ele><time>2026-05-01T11:24:13.741Z</time></trkpt><trkpt lat="39.3882433" lon="8.5397167"><ele>535.8571428571428</ele><time>2026-05-01T11:24:14.741Z</time></trkpt><trkpt lat="39.3882933" lon="8.5397767"><ele>537.2857142857142</ele><time>2026-05-01T11:24:15.741Z</time></trkpt><trkpt lat="39.3883417" lon="8.5398333"><ele>538.7142857142857</ele><time>2026-05-01T11:24:16.741Z</time></trkpt><trkpt lat="39.3883933" lon="8.5398917"><ele>540.1428571428571</ele><time>2026-05-01T11:24:17.741Z</time></trkpt><trkpt lat="39.3884367" lon="8.5399517"><ele>541.5714285714286</ele><time>2026-05-01T11:24:18.742Z</time></trkpt><trkpt lat="39.3884833" lon="8.5400233"><ele>543.0</ele><time>2026-05-01T11:24:19.741Z</time></trkpt><trkpt lat="39.388535" lon="8.54009"><ele>543.0</ele><time>2026-05-01T11:24:20.741Z</time></trkpt><trkpt lat="39.3885933" lon="8.5401567"><ele>543.0</ele><time>2026-05-01T11:24:21.742Z</time></trkpt><trkpt lat="39.3886517" lon="8.5402183"><ele>543.0</ele><time>2026-05-01T11:24:22.742Z</time></trkpt><trkpt lat="39.3887083" lon="8.5402733"><ele>543.0</ele><time>2026-05-01T11:24:23.741Z</time></trkpt><trkpt lat="39.388775" lon="8.54031"><ele>543.0</ele><time>2026-05-01T11:24:24.741Z</time></trkpt><trkpt lat="39.3888483" lon="8.54033"><ele>543.0</ele><time>2026-05-01T11:24:25.742Z</time></trkpt><trkpt lat="39.3889317" lon="8.5403233"><ele>544.0</ele><time>2026-05-01T11:24:26.741Z</time></trkpt><trkpt lat="39.38902" lon="8.5403033"><ele>545.0</ele><time>2026-05-01T11:24:27.742Z</time></trkpt><trkpt lat="39.3891233" lon="8.540275"><ele>546.0</ele><time>2026-05-01T11:24:28.741Z</time></trkpt><trkpt lat="39.38923" lon="8.5402517"><ele>547.0</ele><time>2026-05-01T11:24:29.741Z</time></trkpt><trkpt lat="39.3893417" lon="8.540235"><ele>548.0</ele><time>2026-05-01T11:24:30.741Z</time></trkpt><trkpt lat="39.3894583" lon="8.5402183"><ele>548.0</ele><time>2026-05-01T11:24:31.741Z</time></trkpt><trkpt lat="39.3895767" lon="8.5401933"><ele>548.0</ele><time>2026-05-01T11:24:32.741Z</time></trkpt><trkpt lat="39.3896983" lon="8.5401733"><ele>548.0</ele><time>2026-05-01T11:24:33.742Z</time></trkpt><trkpt lat="39.3898033" lon="8.5401433"><ele>548.0</ele><time>2026-05-01T11:24:34.741Z</time></trkpt><trkpt lat="39.3899" lon="8.5401083"><ele>548.1999999999999</ele><time>2026-05-01T11:24:35.742Z</time></trkpt><trkpt lat="39.3899983" lon="8.540065"><ele>548.4</ele><time>2026-05-01T11:24:36.741Z</time></trkpt><trkpt lat="39.39011" lon="8.5400233"><ele>548.5999999999999</ele><time>2026-05-01T11:24:37.741Z</time></trkpt><trkpt lat="39.390215" lon="8.53999"><ele>548.8</ele><time>2026-05-01T11:24:38.742Z</time></trkpt><trkpt lat="39.390315" lon="8.5399633"><ele>549.0</ele><time>2026-05-01T11:24:39.742Z</time></trkpt><trkpt lat="39.3904167" lon="8.5399417"><ele>549.0</ele><time>2026-05-01T11:24:40.741Z</time></trkpt><trkpt lat="39.390505" lon="8.5399317"><ele>549.0</ele><time>2026-05-01T11:24:41.741Z</time></trkpt><trkpt lat="39.3905917" lon="8.5399333"><ele>549.0</ele><time>2026-05-01T11:24:42.742Z</time></trkpt><trkpt lat="39.3906667" lon="8.53995"><ele>549.0</ele><time>2026-05-01T11:24:43.741Z</time></trkpt><trkpt lat="39.39073" lon="8.5399733"><ele>549.0</ele><time>2026-05-01T11:24:44.742Z</time></trkpt><trkpt lat="39.3908267" lon="8.5400767"><ele>549.0</ele><time>2026-05-01T11:24:46.741Z</time></trkpt><trkpt lat="39.3908533" lon="8.5401533"><ele>548.6</ele><time>2026-05-01T11:24:47.742Z</time></trkpt><trkpt lat="39.3908417" lon="8.5403183"><ele>548.2</ele><time>2026-05-01T11:24:49.742Z</time></trkpt><trkpt lat="39.3908317" lon="8.5404017"><ele>547.8000000000001</ele><time>2026-05-01T11:24:50.741Z</time></trkpt><trkpt lat="39.3908683" lon="8.54056"><ele>547.4</ele><time>2026-05-01T11:24:52.741Z</time></trkpt><trkpt lat="39.3909183" lon="8.540625"><ele>547.0</ele><time>2026-05-01T11:24:53.742Z</time></trkpt><trkpt lat="39.3910017" lon="8.540685"><ele>548.5</ele><time>2026-05-01T11:24:54.742Z</time></trkpt><trkpt lat="39.3911267" lon="8.5407283"><ele>550.0</ele><time>2026-05-01T11:24:55.741Z</time></trkpt><trkpt lat="39.39126" lon="8.5407817"><ele>551.5</ele><time>2026-05-01T11:24:56.741Z</time></trkpt><trkpt lat="39.3913767" lon="8.5408317"><ele>553.0</ele><time>2026-05-01T11:24:57.741Z</time></trkpt><trkpt lat="39.3914817" lon="8.5408833"><ele>549.8</ele><time>2026-05-01T11:24:58.741Z</time></trkpt><trkpt lat="39.3915733" lon="8.5409183"><ele>546.5999999999999</ele><time>2026-05-01T11:24:59.742Z</time></trkpt><trkpt lat="39.3916617" lon="8.5409467"><ele>543.4000000000001</ele><time>2026-05-01T11:25:00.741Z</time></trkpt><trkpt lat="39.3917617" lon="8.540955"><ele>540.2</ele><time>2026-05-01T11:25:01.741Z</time></trkpt><trkpt lat="39.3918767" lon="8.5409333"><ele>537.0</ele><time>2026-05-01T11:25:02.741Z</time></trkpt><trkpt lat="39.3919883" lon="8.5409217"><ele>537.0</ele><time>2026-05-01T11:25:03.741Z</time></trkpt><trkpt lat="39.39208" lon="8.5409283"><ele>537.0</ele><time>2026-05-01T11:25:04.742Z</time></trkpt><trkpt lat="39.3921583" lon="8.5409717"><ele>537.0</ele><time>2026-05-01T11:25:05.741Z</time></trkpt><trkpt lat="39.3922417" lon="8.5410383"><ele>537.0</ele><time>2026-05-01T11:25:06.741Z</time></trkpt><trkpt lat="39.3923317" lon="8.5411117"><ele>537.0</ele><time>2026-05-01T11:25:07.741Z</time></trkpt><trkpt lat="39.39242" lon="8.5411833"><ele>539.5</ele><time>2026-05-01T11:25:08.741Z</time></trkpt><trkpt lat="39.3925217" lon="8.5412533"><ele>542.0</ele><time>2026-05-01T11:25:09.742Z</time></trkpt><trkpt lat="39.392625" lon="8.54132"><ele>544.5</ele><time>2026-05-01T11:25:10.741Z</time></trkpt><trkpt lat="39.3927283" lon="8.5413883"><ele>547.0</ele><time>2026-05-01T11:25:11.741Z</time></trkpt><trkpt lat="39.3928267" lon="8.5414617"><ele>547.0</ele><time>2026-05-01T11:25:12.741Z</time></trkpt><trkpt lat="39.39292" lon="8.5415283"><ele>547.0</ele><time>2026-05-01T11:25:13.741Z</time></trkpt><trkpt lat="39.3930183" lon="8.54158"><ele>547.0</ele><time>2026-05-01T11:25:14.741Z</time></trkpt><trkpt lat="39.39312" lon="8.5416117"><ele>547.0</ele><time>2026-05-01T11:25:15.741Z</time></trkpt><trkpt lat="39.3932283" lon="8.5416167"><ele>547.0</ele><time>2026-05-01T11:25:16.742Z</time></trkpt><trkpt lat="39.3933467" lon="8.541595"><ele>545.4</ele><time>2026-05-01T11:25:17.742Z</time></trkpt><trkpt lat="39.3934667" lon="8.54157"><ele>543.8000000000001</ele><time>2026-05-01T11:25:18.741Z</time></trkpt><trkpt lat="39.3935733" lon="8.54155"><ele>542.2</ele><time>2026-05-01T11:25:19.741Z</time></trkpt><trkpt lat="39.3936717" lon="8.5415083"><ele>540.6</ele><time>2026-05-01T11:25:20.742Z</time></trkpt><trkpt lat="39.3937533" lon="8.541475"><ele>539.0</ele><time>2026-05-01T11:25:21.741Z</time></trkpt><trkpt lat="39.3938217" lon="8.5414517"><ele>538.8333333333333</ele><time>2026-05-01T11:25:22.741Z</time></trkpt><trkpt lat="39.3938883" lon="8.541465"><ele>538.6666666666666</ele><time>2026-05-01T11:25:23.742Z</time></trkpt><trkpt lat="39.3939467" lon="8.5415117"><ele>538.5</ele><time>2026-05-01T11:25:24.741Z</time></trkpt><trkpt lat="39.394005" lon="8.541585"><ele>538.3333333333334</ele><time>2026-05-01T11:25:25.741Z</time></trkpt><trkpt lat="39.3940433" lon="8.5417067"><ele>538.1666666666667</ele><time>2026-05-01T11:25:26.742Z</time></trkpt><trkpt lat="39.3940617" lon="8.5418517"><ele>538.0</ele><time>2026-05-01T11:25:27.741Z</time></trkpt><trkpt lat="39.3940967" lon="8.5419867"><ele>536.0</ele><time>2026-05-01T11:25:28.741Z</time></trkpt><trkpt lat="39.394135" lon="8.5421133"><ele>534.0</ele><time>2026-05-01T11:25:29.741Z</time></trkpt><trkpt lat="39.39417" lon="8.5422233"><ele>532.0</ele><time>2026-05-01T11:25:30.741Z</time></trkpt><trkpt lat="39.3942017" lon="8.542325"><ele>530.0</ele><time>2026-05-01T11:25:31.741Z</time></trkpt><trkpt lat="39.3942283" lon="8.5424317"><ele>528.0</ele><time>2026-05-01T11:25:32.742Z</time></trkpt><trkpt lat="39.3942417" lon="8.5425317"><ele>526.0</ele><time>2026-05-01T11:25:33.741Z</time></trkpt><trkpt lat="39.394245" lon="8.542625"><ele>526.0</ele><time>2026-05-01T11:25:34.741Z</time></trkpt><trkpt lat="39.3942267" lon="8.5427233"><ele>526.0</ele><time>2026-05-01T11:25:35.742Z</time></trkpt><trkpt lat="39.39418" lon="8.542815"><ele>526.0</ele><time>2026-05-01T11:25:36.741Z</time></trkpt><trkpt lat="39.3941083" lon="8.5428833"><ele>526.0</ele><time>2026-05-01T11:25:37.741Z</time></trkpt><trkpt lat="39.3940233" lon="8.54293"><ele>526.0</ele><time>2026-05-01T11:25:38.741Z</time></trkpt><trkpt lat="39.39394" lon="8.5429717"><ele>526.0</ele><time>2026-05-01T11:25:39.741Z</time></trkpt><trkpt lat="39.3938717" lon="8.5430267"><ele>531.75</ele><time>2026-05-01T11:25:40.741Z</time></trkpt><trkpt lat="39.3938117" lon="8.54311"><ele>537.5</ele><time>2026-05-01T11:25:41.742Z</time></trkpt><trkpt lat="39.393775" lon="8.54323"><ele>543.25</ele><time>2026-05-01T11:25:42.741Z</time></trkpt><trkpt lat="39.39375" lon="8.5434017"><ele>549.0</ele><time>2026-05-01T11:25:43.741Z</time></trkpt><trkpt lat="39.3937383" lon="8.5435883"><ele>545.0</ele><time>2026-05-01T11:25:44.741Z</time></trkpt><trkpt lat="39.3937283" lon="8.5437617"><ele>541.0</ele><time>2026-05-01T11:25:45.741Z</time></trkpt><trkpt lat="39.3937133" lon="8.5439133"><ele>537.0</ele><time>2026-05-01T11:25:46.741Z</time></trkpt><trkpt lat="39.3936933" lon="8.5440567"><ele>533.0</ele><time>2026-05-01T11:25:47.741Z</time></trkpt><trkpt lat="39.3936533" lon="8.5441983"><ele>533.0</ele><time>2026-05-01T11:25:48.742Z</time></trkpt><trkpt lat="39.3936033" lon="8.5443383"><ele>533.0</ele><time>2026-05-01T11:25:49.741Z</time></trkpt><trkpt lat="39.3935483" lon="8.544495"><ele>533.0</ele><time>2026-05-01T11:25:50.741Z</time></trkpt><trkpt lat="39.3935033" lon="8.5446483"><ele>533.0</ele><time>2026-05-01T11:25:51.742Z</time></trkpt><trkpt lat="39.3934633" lon="8.54479"><ele>529.8</ele><time>2026-05-01T11:25:52.741Z</time></trkpt><trkpt lat="39.3934433" lon="8.544925"><ele>526.5999999999999</ele><time>2026-05-01T11:25:53.741Z</time></trkpt><trkpt lat="39.3934367" lon="8.5450417"><ele>523.4000000000001</ele><time>2026-05-01T11:25:54.741Z</time></trkpt><trkpt lat="39.3934267" lon="8.5451333"><ele>520.2</ele><time>2026-05-01T11:25:55.741Z</time></trkpt><trkpt lat="39.393405" lon="8.5452133"><ele>517.0</ele><time>2026-05-01T11:25:56.742Z</time></trkpt><trkpt lat="39.393305" lon="8.5453017"><ele>513.2</ele><time>2026-05-01T11:25:58.741Z</time></trkpt><trkpt lat="39.3932183" lon="8.5454183"><ele>509.40000000000003</ele><time>2026-05-01T11:26:00.741Z</time></trkpt><trkpt lat="39.3931967" lon="8.5455267"><ele>505.59999999999997</ele><time>2026-05-01T11:26:01.741Z</time></trkpt><trkpt lat="39.3931967" lon="8.54565"><ele>501.79999999999995</ele><time>2026-05-01T11:26:02.741Z</time></trkpt><trkpt lat="39.3932267" lon="8.5457833"><ele>498.0</ele><time>2026-05-01T11:26:03.741Z</time></trkpt><trkpt lat="39.393265" lon="8.5459033"><ele>498.0</ele><time>2026-05-01T11:26:04.741Z</time></trkpt><trkpt lat="39.393295" lon="8.5460117"><ele>497.99999999999994</ele><time>2026-05-01T11:26:05.741Z</time></trkpt><trkpt lat="39.3932883" lon="8.5461117"><ele>497.99999999999994</ele><time>2026-05-01T11:26:06.741Z</time></trkpt><trkpt lat="39.39325" lon="8.546225"><ele>498.0</ele><time>2026-05-01T11:26:07.741Z</time></trkpt><trkpt lat="39.3932033" lon="8.546345"><ele>498.0</ele><time>2026-05-01T11:26:08.742Z</time></trkpt><trkpt lat="39.3931583" lon="8.5464833"><ele>498.4</ele><time>2026-05-01T11:26:09.741Z</time></trkpt><trkpt lat="39.3931333" lon="8.5466133"><ele>498.79999999999995</ele><time>2026-05-01T11:26:10.741Z</time></trkpt><trkpt lat="39.393105" lon="8.5467367"><ele>499.2</ele><time>2026-05-01T11:26:11.741Z</time></trkpt><trkpt lat="39.3931" lon="8.5468767"><ele>499.6</ele><time>2026-05-01T11:26:12.741Z</time></trkpt><trkpt lat="39.3931367" lon="8.54703"><ele>500.0</ele><time>2026-05-01T11:26:13.74Z</time></trkpt><trkpt lat="39.3932017" lon="8.5471983"><ele>500.0</ele><time>2026-05-01T11:26:14.74Z</time></trkpt><trkpt lat="39.39327" lon="8.54735"><ele>500.0</ele><time>2026-05-01T11:26:15.74Z</time></trkpt><trkpt lat="39.3933283" lon="8.5474783"><ele>500.0</ele><time>2026-05-01T11:26:16.741Z</time></trkpt><trkpt lat="39.3934117" lon="8.5476017"><ele>500.0</ele><time>2026-05-01T11:26:17.74Z</time></trkpt><trkpt lat="39.3935067" lon="8.5477183"><ele>500.0</ele><time>2026-05-01T11:26:18.74Z</time></trkpt><trkpt lat="39.393595" lon="8.54783"><ele>500.0</ele><time>2026-05-01T11:26:19.74Z</time></trkpt><trkpt lat="39.39366" lon="8.54791"><ele>500.0</ele><time>2026-05-01T11:26:20.741Z</time></trkpt><trkpt lat="39.39369" lon="8.5479917"><ele>500.0</ele><time>2026-05-01T11:26:21.74Z</time></trkpt><trkpt lat="39.3936767" lon="8.5481417"><ele>500.0</ele><time>2026-05-01T11:26:23.74Z</time></trkpt><trkpt lat="39.393565" lon="8.5482467"><ele>500.4</ele><time>2026-05-01T11:26:25.74Z</time></trkpt><trkpt lat="39.393485" lon="8.5482717"><ele>500.8</ele><time>2026-05-01T11:26:26.74Z</time></trkpt><trkpt lat="39.3934067" lon="8.5482983"><ele>501.20000000000005</ele><time>2026-05-01T11:26:27.74Z</time></trkpt><trkpt lat="39.3933267" lon="8.5483517"><ele>501.6</ele><time>2026-05-01T11:26:28.74Z</time></trkpt><trkpt lat="39.3932617" lon="8.5484517"><ele>502.0</ele><time>2026-05-01T11:26:29.74Z</time></trkpt><trkpt lat="39.3932067" lon="8.5485617"><ele>502.0</ele><time>2026-05-01T11:26:30.74Z</time></trkpt><trkpt lat="39.3932017" lon="8.5486983"><ele>502.00000000000006</ele><time>2026-05-01T11:26:32.74Z</time></trkpt><trkpt lat="39.3932433" lon="8.5487917"><ele>502.00000000000006</ele><time>2026-05-01T11:26:33.74Z</time></trkpt><trkpt lat="39.3932933" lon="8.548855"><ele>502.0</ele><time>2026-05-01T11:26:34.74Z</time></trkpt><trkpt lat="39.3934267" lon="8.548905"><ele>502.0</ele><time>2026-05-01T11:26:36.74Z</time></trkpt><trkpt lat="39.393535" lon="8.548905"><ele>503.0</ele><time>2026-05-01T11:26:37.74Z</time></trkpt><trkpt lat="39.393675" lon="8.54887"><ele>504.0</ele><time>2026-05-01T11:26:38.741Z</time></trkpt><trkpt lat="39.3938433" lon="8.5488233"><ele>505.0</ele><time>2026-05-01T11:26:39.74Z</time></trkpt><trkpt lat="39.3940033" lon="8.5487983"><ele>503.25</ele><time>2026-05-01T11:26:40.74Z</time></trkpt><trkpt lat="39.3941483" lon="8.5487733"><ele>501.5</ele><time>2026-05-01T11:26:41.74Z</time></trkpt><trkpt lat="39.394275" lon="8.548745"><ele>499.75</ele><time>2026-05-01T11:26:42.74Z</time></trkpt><trkpt lat="39.3944033" lon="8.5487317"><ele>498.0</ele><time>2026-05-01T11:26:43.74Z</time></trkpt><trkpt lat="39.3945233" lon="8.5487517"><ele>498.0</ele><time>2026-05-01T11:26:44.74Z</time></trkpt><trkpt lat="39.3946367" lon="8.5487833"><ele>498.0</ele><time>2026-05-01T11:26:45.74Z</time></trkpt><trkpt lat="39.3947617" lon="8.54882"><ele>498.0</ele><time>2026-05-01T11:26:46.74Z</time></trkpt><trkpt lat="39.3948867" lon="8.5488667"><ele>498.0</ele><time>2026-05-01T11:26:47.741Z</time></trkpt><trkpt lat="39.3950167" lon="8.5489117"><ele>495.75</ele><time>2026-05-01T11:26:48.741Z</time></trkpt><trkpt lat="39.3951467" lon="8.5489633"><ele>493.5</ele><time>2026-05-01T11:26:49.74Z</time></trkpt><trkpt lat="39.3952667" lon="8.549005"><ele>491.25</ele><time>2026-05-01T11:26:50.741Z</time></trkpt><trkpt lat="39.3953667" lon="8.5490483"><ele>489.0</ele><time>2026-05-01T11:26:51.74Z</time></trkpt><trkpt lat="39.3954433" lon="8.5491033"><ele>489.4</ele><time>2026-05-01T11:26:52.741Z</time></trkpt><trkpt lat="39.395505" lon="8.5491883"><ele>489.79999999999995</ele><time>2026-05-01T11:26:53.74Z</time></trkpt><trkpt lat="39.39556" lon="8.5493117"><ele>490.20000000000005</ele><time>2026-05-01T11:26:54.741Z</time></trkpt><trkpt lat="39.3956033" lon="8.5494517"><ele>490.6</ele><time>2026-05-01T11:26:55.74Z</time></trkpt><trkpt lat="39.3956517" lon="8.5496067"><ele>491.0</ele><time>2026-05-01T11:26:56.741Z</time></trkpt><trkpt lat="39.3957017" lon="8.549745"><ele>491.0</ele><time>2026-05-01T11:26:57.741Z</time></trkpt><trkpt lat="39.3957533" lon="8.5498733"><ele>491.0</ele><time>2026-05-01T11:26:58.74Z</time></trkpt><trkpt lat="39.3958167" lon="8.5499983"><ele>491.0</ele><time>2026-05-01T11:26:59.74Z</time></trkpt><trkpt lat="39.3958933" lon="8.5501167"><ele>491.0</ele><time>2026-05-01T11:27:00.741Z</time></trkpt><trkpt lat="39.3959867" lon="8.5502267"><ele>491.0</ele><time>2026-05-01T11:27:01.74Z</time></trkpt><trkpt lat="39.396095" lon="8.5503333"><ele>491.0</ele><time>2026-05-01T11:27:02.741Z</time></trkpt><trkpt lat="39.3962" lon="8.55045"><ele>491.0</ele><time>2026-05-01T11:27:03.74Z</time></trkpt><trkpt lat="39.3963183" lon="8.5505733"><ele>491.0</ele><time>2026-05-01T11:27:04.74Z</time></trkpt><trkpt lat="39.3964383" lon="8.55071"><ele>494.75</ele><time>2026-05-01T11:27:05.741Z</time></trkpt><trkpt lat="39.3965567" lon="8.5508283"><ele>498.5</ele><time>2026-05-01T11:27:06.741Z</time></trkpt><trkpt lat="39.3966583" lon="8.5509333"><ele>502.25</ele><time>2026-05-01T11:27:07.74Z</time></trkpt><trkpt lat="39.39675" lon="8.55104"><ele>506.0</ele><time>2026-05-01T11:27:08.74Z</time></trkpt><trkpt lat="39.39684" lon="8.5511467"><ele>509.4</ele><time>2026-05-01T11:27:09.74Z</time></trkpt><trkpt lat="39.3969267" lon="8.5512433"><ele>512.8</ele><time>2026-05-01T11:27:10.74Z</time></trkpt><trkpt lat="39.3970167" lon="8.5513167"><ele>516.1999999999999</ele><time>2026-05-01T11:27:11.74Z</time></trkpt><trkpt lat="39.3970967" lon="8.5513817"><ele>519.6</ele><time>2026-05-01T11:27:12.741Z</time></trkpt><trkpt lat="39.3971717" lon="8.5514333"><ele>523.0</ele><time>2026-05-01T11:27:13.74Z</time></trkpt><trkpt lat="39.3972417" lon="8.5515317"><ele>523.1999999999999</ele><time>2026-05-01T11:27:15.74Z</time></trkpt><trkpt lat="39.397315" lon="8.5516767"><ele>523.4</ele><time>2026-05-01T11:27:17.741Z</time></trkpt><trkpt lat="39.3973267" lon="8.5517583"><ele>523.5999999999999</ele><time>2026-05-01T11:27:18.74Z</time></trkpt><trkpt lat="39.3973483" lon="8.5519267"><ele>523.8</ele><time>2026-05-01T11:27:20.74Z</time></trkpt><trkpt lat="39.3973633" lon="8.5520133"><ele>524.0</ele><time>2026-05-01T11:27:21.741Z</time></trkpt><trkpt lat="39.3973733" lon="8.552155"><ele>524.0</ele><time>2026-05-01T11:27:23.74Z</time></trkpt><trkpt lat="39.39734" lon="8.55229"><ele>524.0</ele><time>2026-05-01T11:27:25.74Z</time></trkpt><trkpt lat="39.3972883" lon="8.5524283"><ele>524.0</ele><time>2026-05-01T11:27:27.74Z</time></trkpt><trkpt lat="39.3972467" lon="8.55249"><ele>524.0</ele><time>2026-05-01T11:27:28.74Z</time></trkpt><trkpt lat="39.397165" lon="8.552605"><ele>524.0</ele><time>2026-05-01T11:27:30.741Z</time></trkpt><trkpt lat="39.397075" lon="8.552715"><ele>527.4</ele><time>2026-05-01T11:27:32.74Z</time></trkpt><trkpt lat="39.3970033" lon="8.55281"><ele>530.8</ele><time>2026-05-01T11:27:34.74Z</time></trkpt><trkpt lat="39.39697" lon="8.5529583"><ele>534.2</ele><time>2026-05-01T11:27:36.74Z</time></trkpt><trkpt lat="39.3969767" lon="8.5530417"><ele>537.6</ele><time>2026-05-01T11:27:37.741Z</time></trkpt><trkpt lat="39.396995" lon="8.55313"><ele>541.0</ele><time>2026-05-01T11:27:38.74Z</time></trkpt><trkpt lat="39.39705" lon="8.553245"><ele>541.0</ele><time>2026-05-01T11:27:39.74Z</time></trkpt><trkpt lat="39.3971067" lon="8.5533517"><ele>541.0</ele><time>2026-05-01T11:27:40.741Z</time></trkpt><trkpt lat="39.3971583" lon="8.5534517"><ele>541.0</ele><time>2026-05-01T11:27:41.74Z</time></trkpt><trkpt lat="39.3972083" lon="8.553545"><ele>541.0</ele><time>2026-05-01T11:27:42.741Z</time></trkpt><trkpt lat="39.3972483" lon="8.5536383"><ele>541.0</ele><time>2026-05-01T11:27:43.74Z</time></trkpt><trkpt lat="39.3972883" lon="8.5537317"><ele>541.0</ele><time>2026-05-01T11:27:44.74Z</time></trkpt><trkpt lat="39.3973233" lon="8.5538117"><ele>541.6</ele><time>2026-05-01T11:27:45.74Z</time></trkpt><trkpt lat="39.3974" lon="8.5539267"><ele>542.2</ele><time>2026-05-01T11:27:47.74Z</time></trkpt><trkpt lat="39.397435" lon="8.5539967"><ele>542.8</ele><time>2026-05-01T11:27:48.74Z</time></trkpt><trkpt lat="39.39748" lon="8.5540833"><ele>543.4</ele><time>2026-05-01T11:27:49.74Z</time></trkpt><trkpt lat="39.3975267" lon="8.5541967"><ele>544.0</ele><time>2026-05-01T11:27:50.74Z</time></trkpt><trkpt lat="39.3975517" lon="8.554325"><ele>544.0</ele><time>2026-05-01T11:27:51.74Z</time></trkpt><trkpt lat="39.39758" lon="8.55447"><ele>544.0</ele><time>2026-05-01T11:27:52.74Z</time></trkpt><trkpt lat="39.39762" lon="8.5546283"><ele>544.0</ele><time>2026-05-01T11:27:53.74Z</time></trkpt><trkpt lat="39.397655" lon="8.5547833"><ele>544.0</ele><time>2026-05-01T11:27:54.74Z</time></trkpt><trkpt lat="39.397675" lon="8.55494"><ele>543.75</ele><time>2026-05-01T11:27:55.74Z</time></trkpt><trkpt lat="39.3977" lon="8.5550917"><ele>543.5</ele><time>2026-05-01T11:27:56.74Z</time></trkpt><trkpt lat="39.3977267" lon="8.5552383"><ele>543.25</ele><time>2026-05-01T11:27:57.74Z</time></trkpt><trkpt lat="39.397765" lon="8.555385"><ele>543.0</ele><time>2026-05-01T11:27:58.74Z</time></trkpt><trkpt lat="39.3978383" lon="8.55555"><ele>544.75</ele><time>2026-05-01T11:27:59.74Z</time></trkpt><trkpt lat="39.3979083" lon="8.5557"><ele>546.5</ele><time>2026-05-01T11:28:00.74Z</time></trkpt><trkpt lat="39.3979717" lon="8.5558367"><ele>548.25</ele><time>2026-05-01T11:28:01.741Z</time></trkpt><trkpt lat="39.39801" lon="8.5559733"><ele>550.0</ele><time>2026-05-01T11:28:02.74Z</time></trkpt><trkpt lat="39.3980483" lon="8.55609"><ele>550.0</ele><time>2026-05-01T11:28:03.74Z</time></trkpt><trkpt lat="39.39808" lon="8.556195"><ele>550.0</ele><time>2026-05-01T11:28:04.74Z</time></trkpt><trkpt lat="39.398125" lon="8.5562883"><ele>550.0</ele><time>2026-05-01T11:28:05.74Z</time></trkpt><trkpt lat="39.39818" lon="8.5563833"><ele>550.0</ele><time>2026-05-01T11:28:06.74Z</time></trkpt><trkpt lat="39.3982317" lon="8.5564733"><ele>550.0</ele><time>2026-05-01T11:28:07.74Z</time></trkpt><trkpt lat="39.398285" lon="8.5565533"><ele>550.0</ele><time>2026-05-01T11:28:08.74Z</time></trkpt><trkpt lat="39.3983417" lon="8.5566283"><ele>549.6666666666667</ele><time>2026-05-01T11:28:09.74Z</time></trkpt><trkpt lat="39.3984083" lon="8.5566783"><ele>549.3333333333334</ele><time>2026-05-01T11:28:10.74Z</time></trkpt><trkpt lat="39.3984867" lon="8.5567183"><ele>549.0</ele><time>2026-05-01T11:28:11.74Z</time></trkpt><trkpt lat="39.3985683" lon="8.5567667"><ele>548.6666666666666</ele><time>2026-05-01T11:28:12.741Z</time></trkpt><trkpt lat="39.3986533" lon="8.5568117"><ele>548.3333333333333</ele><time>2026-05-01T11:28:13.741Z</time></trkpt><trkpt lat="39.3987233" lon="8.55688"><ele>548.0</ele><time>2026-05-01T11:28:14.74Z</time></trkpt><trkpt lat="39.39879" lon="8.5569517"><ele>547.8333333333333</ele><time>2026-05-01T11:28:15.74Z</time></trkpt><trkpt lat="39.3988517" lon="8.5570417"><ele>547.6666666666666</ele><time>2026-05-01T11:28:16.74Z</time></trkpt><trkpt lat="39.39891" lon="8.5571233"><ele>547.5</ele><time>2026-05-01T11:28:17.74Z</time></trkpt><trkpt lat="39.3989683" lon="8.5572083"><ele>547.3333333333334</ele><time>2026-05-01T11:28:18.74Z</time></trkpt><trkpt lat="39.3990283" lon="8.5572917"><ele>547.1666666666667</ele><time>2026-05-01T11:28:19.74Z</time></trkpt><trkpt lat="39.3990967" lon="8.55737"><ele>547.0</ele><time>2026-05-01T11:28:20.74Z</time></trkpt><trkpt lat="39.39916" lon="8.5574467"><ele>547.0</ele><time>2026-05-01T11:28:21.74Z</time></trkpt><trkpt lat="39.39922" lon="8.5575183"><ele>547.0</ele><time>2026-05-01T11:28:22.74Z</time></trkpt><trkpt lat="39.3992767" lon="8.55761"><ele>547.0</ele><time>2026-05-01T11:28:23.741Z</time></trkpt><trkpt lat="39.39932" lon="8.5576967"><ele>547.0</ele><time>2026-05-01T11:28:24.74Z</time></trkpt><trkpt lat="39.3993533" lon="8.5578017"><ele>547.0</ele><time>2026-05-01T11:28:25.74Z</time></trkpt><trkpt lat="39.3993817" lon="8.557905"><ele>547.0</ele><time>2026-05-01T11:28:26.74Z</time></trkpt><trkpt lat="39.3994017" lon="8.55801"><ele>546.8333333333334</ele><time>2026-05-01T11:28:27.74Z</time></trkpt><trkpt lat="39.3994167" lon="8.5581067"><ele>546.6666666666667</ele><time>2026-05-01T11:28:28.74Z</time></trkpt><trkpt lat="39.3994383" lon="8.5582017"><ele>546.5</ele><time>2026-05-01T11:28:29.741Z</time></trkpt><trkpt lat="39.3994833" lon="8.5582817"><ele>546.3333333333334</ele><time>2026-05-01T11:28:30.74Z</time></trkpt><trkpt lat="39.3995383" lon="8.5583583"><ele>546.1666666666666</ele><time>2026-05-01T11:28:31.74Z</time></trkpt><trkpt lat="39.3996067" lon="8.5584167"><ele>546.0</ele><time>2026-05-01T11:28:32.74Z</time></trkpt><trkpt lat="39.39969" lon="8.5584533"><ele>548.5</ele><time>2026-05-01T11:28:33.741Z</time></trkpt><trkpt lat="39.3997717" lon="8.558485"><ele>551.0</ele><time>2026-05-01T11:28:34.74Z</time></trkpt><trkpt lat="39.3998567" lon="8.5585033"><ele>553.5</ele><time>2026-05-01T11:28:35.741Z</time></trkpt><trkpt lat="39.3999417" lon="8.5585267"><ele>556.0</ele><time>2026-05-01T11:28:36.74Z</time></trkpt><trkpt lat="39.4000267" lon="8.5585583"><ele>558.5</ele><time>2026-05-01T11:28:37.74Z</time></trkpt><trkpt lat="39.4001017" lon="8.5586017"><ele>561.0</ele><time>2026-05-01T11:28:38.74Z</time></trkpt><trkpt lat="39.4001633" lon="8.5586583"><ele>562.7142857142857</ele><time>2026-05-01T11:28:39.74Z</time></trkpt><trkpt lat="39.4002133" lon="8.558725"><ele>564.4285714285713</ele><time>2026-05-01T11:28:40.74Z</time></trkpt><trkpt lat="39.4002617" lon="8.55879"><ele>566.1428571428571</ele><time>2026-05-01T11:28:41.74Z</time></trkpt><trkpt lat="39.4003133" lon="8.55884"><ele>567.8571428571429</ele><time>2026-05-01T11:28:42.74Z</time></trkpt><trkpt lat="39.4003717" lon="8.55889"><ele>569.5714285714287</ele><time>2026-05-01T11:28:43.74Z</time></trkpt><trkpt lat="39.400435" lon="8.55894"><ele>571.2857142857143</ele><time>2026-05-01T11:28:44.741Z</time></trkpt><trkpt lat="39.4005" lon="8.55899"><ele>573.0</ele><time>2026-05-01T11:28:45.741Z</time></trkpt><trkpt lat="39.400555" lon="8.5590433"><ele>573.0</ele><time>2026-05-01T11:28:46.74Z</time></trkpt><trkpt lat="39.4006167" lon="8.5591517"><ele>573.0</ele><time>2026-05-01T11:28:48.741Z</time></trkpt><trkpt lat="39.4006167" lon="8.5592767"><ele>573.0</ele><time>2026-05-01T11:28:50.741Z</time></trkpt><trkpt lat="39.4005967" lon="8.5594117"><ele>573.0</ele><time>2026-05-01T11:28:52.74Z</time></trkpt><trkpt lat="39.4005617" lon="8.55958"><ele>573.0</ele><time>2026-05-01T11:28:54.74Z</time></trkpt><trkpt lat="39.4005483" lon="8.5596883"><ele>572.6666666666666</ele><time>2026-05-01T11:28:55.741Z</time></trkpt><trkpt lat="39.4005267" lon="8.559795"><ele>572.3333333333334</ele><time>2026-05-01T11:28:56.74Z</time></trkpt><trkpt lat="39.4005067" lon="8.5598767"><ele>572.0</ele><time>2026-05-01T11:28:57.741Z</time></trkpt><trkpt lat="39.4004817" lon="8.5599617"><ele>571.6666666666667</ele><time>2026-05-01T11:28:58.74Z</time></trkpt><trkpt lat="39.4004467" lon="8.5600617"><ele>571.3333333333334</ele><time>2026-05-01T11:28:59.741Z</time></trkpt><trkpt lat="39.4004217" lon="8.5601767"><ele>571.0</ele><time>2026-05-01T11:29:00.741Z</time></trkpt><trkpt lat="39.400405" lon="8.5602983"><ele>567.8</ele><time>2026-05-01T11:29:01.74Z</time></trkpt><trkpt lat="39.4004" lon="8.5604033"><ele>564.6</ele><time>2026-05-01T11:29:02.74Z</time></trkpt><trkpt lat="39.40039" lon="8.5605233"><ele>561.4</ele><time>2026-05-01T11:29:04.74Z</time></trkpt><trkpt lat="39.4003867" lon="8.560635"><ele>558.2</ele><time>2026-05-01T11:29:10.74Z</time></trkpt><trkpt lat="39.4003367" lon="8.56077"><ele>555.0</ele><time>2026-05-01T11:29:12.741Z</time></trkpt><trkpt lat="39.40028" lon="8.560885"><ele>555.0</ele><time>2026-05-01T11:29:14.74Z</time></trkpt><trkpt lat="39.4002467" lon="8.5609667"><ele>555.0</ele><time>2026-05-01T11:29:16.741Z</time></trkpt><trkpt lat="39.4003017" lon="8.56103"><ele>555.0</ele><time>2026-05-01T11:29:23.74Z</time></trkpt><trkpt lat="39.4003767" lon="8.5609833"><ele>555.0</ele><time>2026-05-01T11:29:25.741Z</time></trkpt><trkpt lat="39.400465" lon="8.5609267"><ele>555.0</ele><time>2026-05-01T11:29:27.74Z</time></trkpt><trkpt lat="39.4005667" lon="8.5608617"><ele>555.0</ele><time>2026-05-01T11:29:29.74Z</time></trkpt><trkpt lat="39.4006617" lon="8.5607983"><ele>557.2857142857143</ele><time>2026-05-01T11:29:31.74Z</time></trkpt><trkpt lat="39.4007283" lon="8.5606967"><ele>559.5714285714286</ele><time>2026-05-01T11:29:33.74Z</time></trkpt><trkpt lat="39.4007567" lon="8.560615"><ele>561.8571428571429</ele><time>2026-05-01T11:29:34.74Z</time></trkpt><trkpt lat="39.4007767" lon="8.560525"><ele>564.1428571428571</ele><time>2026-05-01T11:29:35.739Z</time></trkpt><trkpt lat="39.4007833" lon="8.56044"><ele>566.4285714285714</ele><time>2026-05-01T11:29:36.739Z</time></trkpt><trkpt lat="39.4007833" lon="8.5603517"><ele>568.7142857142858</ele><time>2026-05-01T11:29:37.739Z</time></trkpt><trkpt lat="39.4007867" lon="8.5602683"><ele>571.0</ele><time>2026-05-01T11:29:38.739Z</time></trkpt><trkpt lat="39.4008417" lon="8.5601267"><ele>571.0</ele><time>2026-05-01T11:29:40.739Z</time></trkpt><trkpt lat="39.4008967" lon="8.5600583"><ele>571.0</ele><time>2026-05-01T11:29:41.74Z</time></trkpt><trkpt lat="39.4009433" lon="8.5599917"><ele>571.0</ele><time>2026-05-01T11:29:42.74Z</time></trkpt><trkpt lat="39.401015" lon="8.5599117"><ele>571.0</ele><time>2026-05-01T11:29:44.739Z</time></trkpt><trkpt lat="39.4010917" lon="8.5598883"><ele>571.0</ele><time>2026-05-01T11:29:46.74Z</time></trkpt><trkpt lat="39.4011883" lon="8.55984"><ele>571.0</ele><time>2026-05-01T11:29:49.739Z</time></trkpt><trkpt lat="39.4012633" lon="8.559745"><ele>571.0</ele><time>2026-05-01T11:29:51.739Z</time></trkpt><trkpt lat="39.4012833" lon="8.5596417"><ele>571.0</ele><time>2026-05-01T11:29:53.739Z</time></trkpt><trkpt lat="39.4013117" lon="8.5595367"><ele>571.0</ele><time>2026-05-01T11:29:57.739Z</time></trkpt><trkpt lat="39.4013783" lon="8.55954"><ele>571.0</ele><time>2026-05-01T11:30:00.739Z</time></trkpt><trkpt lat="39.4013817" lon="8.5596833"><ele>571.0</ele><time>2026-05-01T11:30:03.74Z</time></trkpt><trkpt lat="39.4013433" lon="8.559825"><ele>571.0</ele><time>2026-05-01T11:30:05.739Z</time></trkpt><trkpt lat="39.4013183" lon="8.5599117"><ele>571.0</ele><time>2026-05-01T11:30:06.739Z</time></trkpt><trkpt lat="39.4012917" lon="8.5600033"><ele>571.0</ele><time>2026-05-01T11:30:07.739Z</time></trkpt><trkpt lat="39.4012583" lon="8.5601017"><ele>571.0</ele><time>2026-05-01T11:30:08.739Z</time></trkpt><trkpt lat="39.4012233" lon="8.5601933"><ele>571.0</ele><time>2026-05-01T11:30:09.739Z</time></trkpt><trkpt lat="39.401185" lon="8.56028"><ele>571.0</ele><time>2026-05-01T11:30:10.739Z</time></trkpt><trkpt lat="39.40115" lon="8.5603633"><ele>571.6666666666667</ele><time>2026-05-01T11:30:11.739Z</time></trkpt><trkpt lat="39.4011183" lon="8.5604383"><ele>572.3333333333334</ele><time>2026-05-01T11:30:12.739Z</time></trkpt><trkpt lat="39.401095" lon="8.560545"><ele>573.0</ele><time>2026-05-01T11:30:14.74Z</time></trkpt><trkpt lat="39.4011017" lon="8.560645"><ele>573.6666666666666</ele><time>2026-05-01T11:30:20.74Z</time></trkpt><trkpt lat="39.401065" lon="8.5608033"><ele>574.3333333333333</ele><time>2026-05-01T11:30:22.739Z</time></trkpt><trkpt lat="39.4010483" lon="8.56089"><ele>575.0</ele><time>2026-05-01T11:30:23.739Z</time></trkpt><trkpt lat="39.4010333" lon="8.5610567"><ele>575.0</ele><time>2026-05-01T11:30:25.74Z</time></trkpt><trkpt lat="39.4010333" lon="8.5611567"><ele>575.0</ele><time>2026-05-01T11:30:26.739Z</time></trkpt><trkpt lat="39.40102" lon="8.5613583"><ele>575.0</ele><time>2026-05-01T11:30:28.739Z</time></trkpt><trkpt lat="39.4010133" lon="8.5614667"><ele>575.0</ele><time>2026-05-01T11:30:29.74Z</time></trkpt><trkpt lat="39.401005" lon="8.5615733"><ele>575.0</ele><time>2026-05-01T11:30:30.739Z</time></trkpt><trkpt lat="39.4009917" lon="8.5616783"><ele>575.5714285714286</ele><time>2026-05-01T11:30:31.739Z</time></trkpt><trkpt lat="39.4009783" lon="8.56178"><ele>576.1428571428571</ele><time>2026-05-01T11:30:32.74Z</time></trkpt><trkpt lat="39.400965" lon="8.5618833"><ele>576.7142857142857</ele><time>2026-05-01T11:30:33.739Z</time></trkpt><trkpt lat="39.400955" lon="8.56198"><ele>577.2857142857142</ele><time>2026-05-01T11:30:34.739Z</time></trkpt><trkpt lat="39.40096" lon="8.5620617"><ele>577.8571428571429</ele><time>2026-05-01T11:30:35.74Z</time></trkpt><trkpt lat="39.4009717" lon="8.5621433"><ele>578.4285714285713</ele><time>2026-05-01T11:30:36.739Z</time></trkpt><trkpt lat="39.4009917" lon="8.5622283"><ele>579.0</ele><time>2026-05-01T11:30:37.74Z</time></trkpt><trkpt lat="39.401015" lon="8.5623133"><ele>579.1428571428571</ele><time>2026-05-01T11:30:38.739Z</time></trkpt><trkpt lat="39.4010433" lon="8.5623983"><ele>579.2857142857142</ele><time>2026-05-01T11:30:39.74Z</time></trkpt><trkpt lat="39.40108" lon="8.5624867"><ele>579.4285714285714</ele><time>2026-05-01T11:30:40.739Z</time></trkpt><trkpt lat="39.4011217" lon="8.5625683"><ele>579.5714285714286</ele><time>2026-05-01T11:30:41.74Z</time></trkpt><trkpt lat="39.40116" lon="8.5626467"><ele>579.7142857142858</ele><time>2026-05-01T11:30:42.739Z</time></trkpt><trkpt lat="39.4011967" lon="8.5627267"><ele>579.8571428571429</ele><time>2026-05-01T11:30:43.739Z</time></trkpt><trkpt lat="39.40124" lon="8.5628"><ele>580.0</ele><time>2026-05-01T11:30:44.739Z</time></trkpt><trkpt lat="39.4012933" lon="8.562855"><ele>579.0</ele><time>2026-05-01T11:30:45.739Z</time></trkpt><trkpt lat="39.4013667" lon="8.5629033"><ele>578.0</ele><time>2026-05-01T11:30:46.739Z</time></trkpt><trkpt lat="39.40144" lon="8.5629317"><ele>577.0</ele><time>2026-05-01T11:30:47.739Z</time></trkpt><trkpt lat="39.401515" lon="8.5629517"><ele>576.0</ele><time>2026-05-01T11:30:48.74Z</time></trkpt><trkpt lat="39.401595" lon="8.562965"><ele>575.0</ele><time>2026-05-01T11:30:49.74Z</time></trkpt><trkpt lat="39.401665" lon="8.5629817"><ele>574.0</ele><time>2026-05-01T11:30:50.739Z</time></trkpt><trkpt lat="39.4017283" lon="8.5630017"><ele>574.0</ele><time>2026-05-01T11:30:51.74Z</time></trkpt><trkpt lat="39.401845" lon="8.5630367"><ele>574.0</ele><time>2026-05-01T11:30:53.74Z</time></trkpt><trkpt lat="39.40197" lon="8.5630767"><ele>574.0</ele><time>2026-05-01T11:30:55.739Z</time></trkpt><trkpt lat="39.4020317" lon="8.5630933"><ele>574.0</ele><time>2026-05-01T11:30:56.739Z</time></trkpt><trkpt lat="39.4021317" lon="8.563125"><ele>574.0</ele><time>2026-05-01T11:30:58.74Z</time></trkpt><trkpt lat="39.402245" lon="8.5631467"><ele>576.8333333333334</ele><time>2026-05-01T11:31:00.74Z</time></trkpt><trkpt lat="39.4023117" lon="8.5631533"><ele>579.6666666666667</ele><time>2026-05-01T11:31:01.739Z</time></trkpt><trkpt lat="39.4023817" lon="8.563145"><ele>582.5</ele><time>2026-05-01T11:31:02.74Z</time></trkpt><trkpt lat="39.402455" lon="8.5631333"><ele>585.3333333333334</ele><time>2026-05-01T11:31:03.74Z</time></trkpt><trkpt lat="39.4025333" lon="8.563115"><ele>588.1666666666666</ele><time>2026-05-01T11:31:04.739Z</time></trkpt><trkpt lat="39.4026067" lon="8.5630817"><ele>591.0</ele><time>2026-05-01T11:31:05.74Z</time></trkpt><trkpt lat="39.402685" lon="8.5630417"><ele>591.0</ele><time>2026-05-01T11:31:06.74Z</time></trkpt><trkpt lat="39.4027517" lon="8.5629933"><ele>591.0</ele><time>2026-05-01T11:31:07.739Z</time></trkpt><trkpt lat="39.4028167" lon="8.5629283"><ele>591.0</ele><time>2026-05-01T11:31:08.739Z</time></trkpt><trkpt lat="39.4028617" lon="8.5628633"><ele>591.0</ele><time>2026-05-01T11:31:09.74Z</time></trkpt><trkpt lat="39.4029017" lon="8.562755"><ele>591.0</ele><time>2026-05-01T11:31:11.74Z</time></trkpt><trkpt lat="39.4029333" lon="8.5626733"><ele>591.0</ele><time>2026-05-01T11:31:39.739Z</time></trkpt><trkpt lat="39.402975" lon="8.56257"><ele>593.3333333333334</ele><time>2026-05-01T11:31:41.739Z</time></trkpt><trkpt lat="39.4030083" lon="8.562475"><ele>595.6666666666666</ele><time>2026-05-01T11:31:43.739Z</time></trkpt><trkpt lat="39.403055" lon="8.5623617"><ele>598.0</ele><time>2026-05-01T11:31:45.739Z</time></trkpt><trkpt lat="39.4030867" lon="8.56228"><ele>600.3333333333333</ele><time>2026-05-01T11:31:46.74Z</time></trkpt><trkpt lat="39.4031217" lon="8.5621917"><ele>602.6666666666666</ele><time>2026-05-01T11:31:47.739Z</time></trkpt><trkpt lat="39.4031483" lon="8.5621133"><ele>605.0</ele><time>2026-05-01T11:31:48.739Z</time></trkpt><trkpt lat="39.40319" lon="8.561985"><ele>605.1428571428571</ele><time>2026-05-01T11:31:50.739Z</time></trkpt><trkpt lat="39.403215" lon="8.5618867"><ele>605.2857142857143</ele><time>2026-05-01T11:31:52.739Z</time></trkpt><trkpt lat="39.4032383" lon="8.56181"><ele>605.4285714285714</ele><time>2026-05-01T11:31:54.739Z</time></trkpt><trkpt lat="39.4032283" lon="8.56171"><ele>605.5714285714286</ele><time>2026-05-01T11:31:56.74Z</time></trkpt><trkpt lat="39.4031933" lon="8.56164"><ele>605.7142857142857</ele><time>2026-05-01T11:31:58.74Z</time></trkpt><trkpt lat="39.4031567" lon="8.5615717"><ele>605.8571428571429</ele><time>2026-05-01T11:32:07.739Z</time></trkpt><trkpt lat="39.4031233" lon="8.5614867"><ele>606.0</ele><time>2026-05-01T11:32:09.739Z</time></trkpt><trkpt lat="39.4030417" lon="8.5613567"><ele>605.0</ele><time>2026-05-01T11:32:47.739Z</time></trkpt><trkpt lat="39.4029967" lon="8.5612717"><ele>604.0</ele><time>2026-05-01T11:32:48.739Z</time></trkpt><trkpt lat="39.4029533" lon="8.5611983"><ele>603.0</ele><time>2026-05-01T11:32:49.739Z</time></trkpt><trkpt lat="39.4028933" lon="8.5610867"><ele>602.0</ele><time>2026-05-01T11:32:51.739Z</time></trkpt><trkpt lat="39.4028833" lon="8.5609617"><ele>601.0</ele><time>2026-05-01T11:32:53.739Z</time></trkpt><trkpt lat="39.4028767" lon="8.56084"><ele>600.0</ele><time>2026-05-01T11:32:55.739Z</time></trkpt><trkpt lat="39.4028333" lon="8.560695"><ele>599.9999999999999</ele><time>2026-05-01T11:32:57.74Z</time></trkpt><trkpt lat="39.402805" lon="8.560615"><ele>600.0</ele><time>2026-05-01T11:32:58.74Z</time></trkpt><trkpt lat="39.4027783" lon="8.5605367"><ele>600.0</ele><time>2026-05-01T11:32:59.739Z</time></trkpt><trkpt lat="39.4027433" lon="8.560465"><ele>600.0</ele><time>2026-05-01T11:33:00.739Z</time></trkpt><trkpt lat="39.4027067" lon="8.56039"><ele>600.0</ele><time>2026-05-01T11:33:01.74Z</time></trkpt><trkpt lat="39.4026583" lon="8.5603133"><ele>599.9999999999999</ele><time>2026-05-01T11:33:02.74Z</time></trkpt><trkpt lat="39.4026133" lon="8.5602333"><ele>600.0</ele><time>2026-05-01T11:33:03.74Z</time></trkpt><trkpt lat="39.4025667" lon="8.5601567"><ele>601.1666666666666</ele><time>2026-05-01T11:33:04.739Z</time></trkpt><trkpt lat="39.4025133" lon="8.560095"><ele>602.3333333333334</ele><time>2026-05-01T11:33:05.74Z</time></trkpt><trkpt lat="39.4024567" lon="8.5600333"><ele>603.5</ele><time>2026-05-01T11:33:06.739Z</time></trkpt><trkpt lat="39.4023983" lon="8.5599733"><ele>604.6666666666667</ele><time>2026-05-01T11:33:07.739Z</time></trkpt><trkpt lat="39.40235" lon="8.5599133"><ele>605.8333333333334</ele><time>2026-05-01T11:33:08.74Z</time></trkpt><trkpt lat="39.4022717" lon="8.559765"><ele>607.0</ele><time>2026-05-01T11:33:10.74Z</time></trkpt><trkpt lat="39.4022283" lon="8.5596817"><ele>607.0</ele><time>2026-05-01T11:33:11.74Z</time></trkpt><trkpt lat="39.4021733" lon="8.5595967"><ele>607.0</ele><time>2026-05-01T11:33:12.739Z</time></trkpt><trkpt lat="39.4021183" lon="8.55952"><ele>607.0</ele><time>2026-05-01T11:33:13.739Z</time></trkpt><trkpt lat="39.4020683" lon="8.5594583"><ele>607.0</ele><time>2026-05-01T11:33:14.74Z</time></trkpt><trkpt lat="39.4020017" lon="8.5593483"><ele>607.0</ele><time>2026-05-01T11:33:16.739Z</time></trkpt><trkpt lat="39.4019717" lon="8.5592083"><ele>607.8333333333334</ele><time>2026-05-01T11:33:18.739Z</time></trkpt><trkpt lat="39.402025" lon="8.5590733"><ele>608.6666666666667</ele><time>2026-05-01T11:33:20.739Z</time></trkpt><trkpt lat="39.402075" lon="8.559005"><ele>609.5</ele><time>2026-05-01T11:33:21.739Z</time></trkpt><trkpt lat="39.4021333" lon="8.558935"><ele>610.3333333333334</ele><time>2026-05-01T11:33:22.739Z</time></trkpt><trkpt lat="39.4021917" lon="8.5588583"><ele>611.1666666666666</ele><time>2026-05-01T11:33:23.738Z</time></trkpt><trkpt lat="39.4022533" lon="8.5587933"><ele>612.0</ele><time>2026-05-01T11:33:24.738Z</time></trkpt><trkpt lat="39.4023183" lon="8.5587167"><ele>611.2</ele><time>2026-05-01T11:33:25.738Z</time></trkpt><trkpt lat="39.4023817" lon="8.5586283"><ele>610.4000000000001</ele><time>2026-05-01T11:33:26.739Z</time></trkpt><trkpt lat="39.402445" lon="8.5585433"><ele>609.5999999999999</ele><time>2026-05-01T11:33:27.738Z</time></trkpt><trkpt lat="39.4025133" lon="8.5584667"><ele>608.8</ele><time>2026-05-01T11:33:28.738Z</time></trkpt><trkpt lat="39.4025833" lon="8.5583967"><ele>608.0</ele><time>2026-05-01T11:33:29.738Z</time></trkpt><trkpt lat="39.4026583" lon="8.5583283"><ele>608.0</ele><time>2026-05-01T11:33:30.738Z</time></trkpt><trkpt lat="39.4027333" lon="8.55827"><ele>608.0</ele><time>2026-05-01T11:33:31.738Z</time></trkpt><trkpt lat="39.4028133" lon="8.5581967"><ele>608.0</ele><time>2026-05-01T11:33:32.739Z</time></trkpt><trkpt lat="39.4028733" lon="8.558115"><ele>608.0</ele><time>2026-05-01T11:33:33.738Z</time></trkpt><trkpt lat="39.4029217" lon="8.5580233"><ele>608.0</ele><time>2026-05-01T11:33:34.738Z</time></trkpt><trkpt lat="39.40296" lon="8.55792"><ele>608.0</ele><time>2026-05-01T11:33:35.738Z</time></trkpt><trkpt lat="39.4029967" lon="8.557815"><ele>608.3333333333333</ele><time>2026-05-01T11:33:36.738Z</time></trkpt><trkpt lat="39.4030167" lon="8.5577133"><ele>608.6666666666666</ele><time>2026-05-01T11:33:37.738Z</time></trkpt><trkpt lat="39.4030317" lon="8.5576033"><ele>609.0</ele><time>2026-05-01T11:33:38.738Z</time></trkpt><trkpt lat="39.403045" lon="8.5574917"><ele>609.3333333333334</ele><time>2026-05-01T11:33:39.738Z</time></trkpt><trkpt lat="39.403055" lon="8.557385"><ele>609.6666666666667</ele><time>2026-05-01T11:33:40.738Z</time></trkpt><trkpt lat="39.4030617" lon="8.5572817"><ele>610.0</ele><time>2026-05-01T11:33:41.739Z</time></trkpt><trkpt lat="39.403065" lon="8.5571717"><ele>610.0</ele><time>2026-05-01T11:33:42.738Z</time></trkpt><trkpt lat="39.4030683" lon="8.557065"><ele>610.0</ele><time>2026-05-01T11:33:43.738Z</time></trkpt><trkpt lat="39.4030683" lon="8.5569517"><ele>610.0</ele><time>2026-05-01T11:33:44.739Z</time></trkpt><trkpt lat="39.403075" lon="8.5568333"><ele>610.0</ele><time>2026-05-01T11:33:45.738Z</time></trkpt><trkpt lat="39.4030917" lon="8.5567017"><ele>610.0</ele><time>2026-05-01T11:33:46.738Z</time></trkpt><trkpt lat="39.4031117" lon="8.556575"><ele>608.1666666666667</ele><time>2026-05-01T11:33:47.739Z</time></trkpt><trkpt lat="39.4031383" lon="8.556465"><ele>606.3333333333334</ele><time>2026-05-01T11:33:48.738Z</time></trkpt><trkpt lat="39.40318" lon="8.55637"><ele>604.5</ele><time>2026-05-01T11:33:49.738Z</time></trkpt><trkpt lat="39.4032133" lon="8.5562667"><ele>602.6666666666666</ele><time>2026-05-01T11:33:50.738Z</time></trkpt><trkpt lat="39.4032433" lon="8.5561917"><ele>600.8333333333333</ele><time>2026-05-01T11:33:51.739Z</time></trkpt><trkpt lat="39.403265" lon="8.5561083"><ele>599.0</ele><time>2026-05-01T11:33:53.738Z</time></trkpt><trkpt lat="39.4032883" lon="8.5560317"><ele>598.3333333333333</ele><time>2026-05-01T11:36:57.738Z</time></trkpt><trkpt lat="39.4033617" lon="8.5559517"><ele>597.6666666666666</ele><time>2026-05-01T11:36:59.739Z</time></trkpt><trkpt lat="39.403435" lon="8.5559033"><ele>597.0</ele><time>2026-05-01T11:37:01.738Z</time></trkpt><trkpt lat="39.4035117" lon="8.55585"><ele>596.3333333333334</ele><time>2026-05-01T11:37:05.739Z</time></trkpt><trkpt lat="39.4035617" lon="8.5557933"><ele>595.6666666666667</ele><time>2026-05-01T11:37:07.738Z</time></trkpt><trkpt lat="39.4036467" lon="8.5556883"><ele>595.0</ele><time>2026-05-01T11:37:16.739Z</time></trkpt><trkpt lat="39.403705" lon="8.5556283"><ele>595.0</ele><time>2026-05-01T11:37:17.738Z</time></trkpt><trkpt lat="39.40376" lon="8.5555683"><ele>595.0</ele><time>2026-05-01T11:37:18.738Z</time></trkpt><trkpt lat="39.4038083" lon="8.5555117"><ele>595.0</ele><time>2026-05-01T11:37:19.737Z</time></trkpt><trkpt lat="39.40386" lon="8.5554533"><ele>595.0</ele><time>2026-05-01T11:37:20.738Z</time></trkpt><trkpt lat="39.4039083" lon="8.5553917"><ele>595.0</ele><time>2026-05-01T11:37:21.738Z</time></trkpt><trkpt lat="39.40395" lon="8.5553283"><ele>595.0</ele><time>2026-05-01T11:37:22.737Z</time></trkpt><trkpt lat="39.404" lon="8.5552183"><ele>595.0</ele><time>2026-05-01T11:37:24.738Z</time></trkpt><trkpt lat="39.4040317" lon="8.5551433"><ele>594.8571428571429</ele><time>2026-05-01T11:37:26.737Z</time></trkpt><trkpt lat="39.4040733" lon="8.55506"><ele>594.7142857142858</ele><time>2026-05-01T11:37:28.737Z</time></trkpt><trkpt lat="39.4041133" lon="8.5549733"><ele>594.5714285714286</ele><time>2026-05-01T11:37:30.737Z</time></trkpt><trkpt lat="39.40412" lon="8.554885"><ele>594.4285714285714</ele><time>2026-05-01T11:37:32.737Z</time></trkpt><trkpt lat="39.4040783" lon="8.55482"><ele>594.2857142857143</ele><time>2026-05-01T11:37:34.737Z</time></trkpt><trkpt lat="39.4040083" lon="8.554775"><ele>594.1428571428571</ele><time>2026-05-01T11:37:36.737Z</time></trkpt><trkpt lat="39.403945" lon="8.5547883"><ele>594.0</ele><time>2026-05-01T11:37:38.737Z</time></trkpt><trkpt lat="39.403945" lon="8.554885"><ele>594.0</ele><time>2026-05-01T11:37:41.737Z</time></trkpt><trkpt lat="39.4039867" lon="8.5549683"><ele>594.0</ele><time>2026-05-01T11:37:43.738Z</time></trkpt><trkpt lat="39.4040383" lon="8.55502"><ele>594.0</ele><time>2026-05-01T11:37:46.737Z</time></trkpt><trkpt lat="39.404115" lon="8.5550783"><ele>594.0</ele><time>2026-05-01T11:38:29.738Z</time></trkpt><trkpt lat="39.4041983" lon="8.55512"><ele>594.0</ele><time>2026-05-01T11:38:31.737Z</time></trkpt><trkpt lat="39.4042683" lon="8.555035"><ele>594.0</ele><time>2026-05-01T11:38:34.738Z</time></trkpt><trkpt lat="39.4042717" lon="8.5549"><ele>594.0</ele><time>2026-05-01T11:38:36.737Z</time></trkpt><trkpt lat="39.4042517" lon="8.5548167"><ele>594.0</ele><time>2026-05-01T11:38:37.738Z</time></trkpt><trkpt lat="39.4042183" lon="8.55472"><ele>594.0</ele><time>2026-05-01T11:38:38.737Z</time></trkpt><trkpt lat="39.40418" lon="8.55461"><ele>594.0</ele><time>2026-05-01T11:38:39.738Z</time></trkpt><trkpt lat="39.4041533" lon="8.554495"><ele>594.0</ele><time>2026-05-01T11:38:40.737Z</time></trkpt><trkpt lat="39.404145" lon="8.5543933"><ele>594.0</ele><time>2026-05-01T11:38:41.737Z</time></trkpt><trkpt lat="39.404155" lon="8.554295"><ele>595.8</ele><time>2026-05-01T11:38:42.737Z</time></trkpt><trkpt lat="39.4041933" lon="8.5541967"><ele>597.5999999999999</ele><time>2026-05-01T11:38:43.738Z</time></trkpt><trkpt lat="39.404245" lon="8.554095"><ele>599.4</ele><time>2026-05-01T11:38:44.737Z</time></trkpt><trkpt lat="39.4042983" lon="8.5539917"><ele>601.1999999999999</ele><time>2026-05-01T11:38:45.738Z</time></trkpt><trkpt lat="39.40436" lon="8.553915"><ele>603.0</ele><time>2026-05-01T11:38:46.737Z</time></trkpt><trkpt lat="39.4044317" lon="8.55383"><ele>603.0</ele><time>2026-05-01T11:38:47.737Z</time></trkpt><trkpt lat="39.404515" lon="8.5537517"><ele>603.0</ele><time>2026-05-01T11:38:48.737Z</time></trkpt><trkpt lat="39.4046117" lon="8.5536967"><ele>603.0</ele><time>2026-05-01T11:38:49.738Z</time></trkpt><trkpt lat="39.4046883" lon="8.5536283"><ele>603.0</ele><time>2026-05-01T11:38:50.737Z</time></trkpt><trkpt lat="39.40476" lon="8.553535"><ele>603.0</ele><time>2026-05-01T11:38:51.737Z</time></trkpt><trkpt lat="39.4048367" lon="8.55341"><ele>599.4</ele><time>2026-05-01T11:38:52.737Z</time></trkpt><trkpt lat="39.4049167" lon="8.5532867"><ele>595.8</ele><time>2026-05-01T11:38:53.737Z</time></trkpt><trkpt lat="39.4050033" lon="8.553185"><ele>592.2</ele><time>2026-05-01T11:38:54.737Z</time></trkpt><trkpt lat="39.4050917" lon="8.5531133"><ele>588.6</ele><time>2026-05-01T11:38:55.738Z</time></trkpt><trkpt lat="39.4051767" lon="8.5530417"><ele>585.0</ele><time>2026-05-01T11:38:56.738Z</time></trkpt><trkpt lat="39.4052633" lon="8.5529617"><ele>585.0</ele><time>2026-05-01T11:38:57.738Z</time></trkpt><trkpt lat="39.4053467" lon="8.552895"><ele>585.0</ele><time>2026-05-01T11:38:58.738Z</time></trkpt><trkpt lat="39.4054317" lon="8.5528283"><ele>585.0</ele><time>2026-05-01T11:38:59.737Z</time></trkpt><trkpt lat="39.4055117" lon="8.5527433"><ele>585.0</ele><time>2026-05-01T11:39:00.737Z</time></trkpt><trkpt lat="39.40559" lon="8.552655"><ele>585.0</ele><time>2026-05-01T11:39:01.738Z</time></trkpt><trkpt lat="39.4056617" lon="8.5525733"><ele>582.6666666666666</ele><time>2026-05-01T11:39:02.737Z</time></trkpt><trkpt lat="39.405735" lon="8.55249"><ele>580.3333333333334</ele><time>2026-05-01T11:39:03.737Z</time></trkpt><trkpt lat="39.4057983" lon="8.5524167"><ele>578.0</ele><time>2026-05-01T11:39:04.737Z</time></trkpt><trkpt lat="39.4058567" lon="8.552335"><ele>575.6666666666667</ele><time>2026-05-01T11:39:05.737Z</time></trkpt><trkpt lat="39.4059067" lon="8.5522483"><ele>573.3333333333334</ele><time>2026-05-01T11:39:06.738Z</time></trkpt><trkpt lat="39.4059567" lon="8.5521683"><ele>571.0</ele><time>2026-05-01T11:39:07.738Z</time></trkpt><trkpt lat="39.40601" lon="8.5520833"><ele>574.1666666666667</ele><time>2026-05-01T11:39:08.738Z</time></trkpt><trkpt lat="39.4060633" lon="8.5520033"><ele>577.3333333333334</ele><time>2026-05-01T11:39:09.737Z</time></trkpt><trkpt lat="39.406115" lon="8.55193"><ele>580.5</ele><time>2026-05-01T11:39:10.738Z</time></trkpt><trkpt lat="39.4061633" lon="8.5518683"><ele>583.6666666666666</ele><time>2026-05-01T11:39:11.738Z</time></trkpt><trkpt lat="39.406245" lon="8.5518017"><ele>586.8333333333333</ele><time>2026-05-01T11:39:12.737Z</time></trkpt><trkpt lat="39.406325" lon="8.551735"><ele>590.0</ele><time>2026-05-01T11:39:13.737Z</time></trkpt><trkpt lat="39.4064067" lon="8.55167"><ele>581.4</ele><time>2026-05-01T11:39:14.738Z</time></trkpt><trkpt lat="39.4064783" lon="8.5516167"><ele>572.8</ele><time>2026-05-01T11:39:15.737Z</time></trkpt><trkpt lat="39.4065817" lon="8.5515417"><ele>564.2</ele><time>2026-05-01T11:39:17.737Z</time></trkpt><trkpt lat="39.40666" lon="8.5514767"><ele>555.6</ele><time>2026-05-01T11:39:19.737Z</time></trkpt><trkpt lat="39.40662" lon="8.5515517"><ele>547.0</ele><time>2026-05-01T11:39:25.738Z</time></trkpt><trkpt lat="39.4065833" lon="8.551685"><ele>547.0</ele><time>2026-05-01T11:39:27.738Z</time></trkpt><trkpt lat="39.4065433" lon="8.5517617"><ele>547.0</ele><time>2026-05-01T11:39:28.737Z</time></trkpt><trkpt lat="39.4064833" lon="8.5518567"><ele>547.0</ele><time>2026-05-01T11:39:29.737Z</time></trkpt><trkpt lat="39.40642" lon="8.5519583"><ele>547.0</ele><time>2026-05-01T11:39:30.738Z</time></trkpt><trkpt lat="39.4063633" lon="8.5520617"><ele>547.0</ele><time>2026-05-01T11:39:31.737Z</time></trkpt><trkpt lat="39.4063217" lon="8.5521833"><ele>543.8333333333334</ele><time>2026-05-01T11:39:32.737Z</time></trkpt><trkpt lat="39.4062983" lon="8.5522983"><ele>540.6666666666667</ele><time>2026-05-01T11:39:33.738Z</time></trkpt><trkpt lat="39.4062817" lon="8.5524"><ele>537.5</ele><time>2026-05-01T11:39:34.737Z</time></trkpt><trkpt lat="39.4062583" lon="8.552485"><ele>534.3333333333334</ele><time>2026-05-01T11:39:35.737Z</time></trkpt><trkpt lat="39.4062467" lon="8.55259"><ele>531.1666666666666</ele><time>2026-05-01T11:39:37.738Z</time></trkpt><trkpt lat="39.4063133" lon="8.5525933"><ele>528.0</ele><time>2026-05-01T11:39:39.737Z</time></trkpt><trkpt lat="39.4063717" lon="8.5524867"><ele>528.0</ele><time>2026-05-01T11:39:41.737Z</time></trkpt><trkpt lat="39.406405" lon="8.5524133"><ele>528.0</ele><time>2026-05-01T11:39:42.737Z</time></trkpt><trkpt lat="39.4064483" lon="8.5523467"><ele>528.0</ele><time>2026-05-01T11:39:43.737Z</time></trkpt><trkpt lat="39.4065233" lon="8.552245"><ele>528.0</ele><time>2026-05-01T11:39:45.738Z</time></trkpt><trkpt lat="39.40661" lon="8.5521333"><ele>528.0</ele><time>2026-05-01T11:39:47.737Z</time></trkpt><trkpt lat="39.4066883" lon="8.5520617"><ele>531.8</ele><time>2026-05-01T11:39:48.738Z</time></trkpt><trkpt lat="39.40676" lon="8.5519767"><ele>535.5999999999999</ele><time>2026-05-01T11:39:49.738Z</time></trkpt><trkpt lat="39.4068383" lon="8.5518917"><ele>539.4000000000001</ele><time>2026-05-01T11:39:50.737Z</time></trkpt><trkpt lat="39.406915" lon="8.5518083"><ele>543.2</ele><time>2026-05-01T11:39:51.738Z</time></trkpt><trkpt lat="39.40698" lon="8.5517367"><ele>547.0</ele><time>2026-05-01T11:39:52.737Z</time></trkpt><trkpt lat="39.40705" lon="8.5516517"><ele>547.0</ele><time>2026-05-01T11:39:53.738Z</time></trkpt><trkpt lat="39.4071183" lon="8.5515683"><ele>547.0</ele><time>2026-05-01T11:39:54.737Z</time></trkpt><trkpt lat="39.407175" lon="8.5514833"><ele>547.0</ele><time>2026-05-01T11:39:55.737Z</time></trkpt><trkpt lat="39.407225" lon="8.5513967"><ele>547.0</ele><time>2026-05-01T11:39:56.737Z</time></trkpt><trkpt lat="39.407275" lon="8.551315"><ele>547.0</ele><time>2026-05-01T11:39:57.738Z</time></trkpt><trkpt lat="39.407325" lon="8.55122"><ele>547.0</ele><time>2026-05-01T11:39:58.737Z</time></trkpt><trkpt lat="39.4073833" lon="8.551125"><ele>540.8000000000001</ele><time>2026-05-01T11:39:59.737Z</time></trkpt><trkpt lat="39.4074417" lon="8.5510167"><ele>534.6</ele><time>2026-05-01T11:40:00.738Z</time></trkpt><trkpt lat="39.4075" lon="8.55092"><ele>528.4000000000001</ele><time>2026-05-01T11:40:01.737Z</time></trkpt><trkpt lat="39.4075567" lon="8.5508417"><ele>522.2</ele><time>2026-05-01T11:40:02.737Z</time></trkpt><trkpt lat="39.4076233" lon="8.5507617"><ele>516.0</ele><time>2026-05-01T11:40:03.738Z</time></trkpt><trkpt lat="39.4076967" lon="8.5506717"><ele>516.0</ele><time>2026-05-01T11:40:04.738Z</time></trkpt><trkpt lat="39.4077717" lon="8.550565"><ele>516.0</ele><time>2026-05-01T11:40:05.737Z</time></trkpt><trkpt lat="39.4078217" lon="8.550445"><ele>516.0</ele><time>2026-05-01T11:40:06.737Z</time></trkpt><trkpt lat="39.4078683" lon="8.5503233"><ele>516.0</ele><time>2026-05-01T11:40:07.737Z</time></trkpt><trkpt lat="39.407915" lon="8.5502033"><ele>516.0</ele><time>2026-05-01T11:40:08.738Z</time></trkpt><trkpt lat="39.4079617" lon="8.5500867"><ele>508.4</ele><time>2026-05-01T11:40:09.737Z</time></trkpt><trkpt lat="39.4080017" lon="8.54998"><ele>500.8</ele><time>2026-05-01T11:40:10.738Z</time></trkpt><trkpt lat="39.4080533" lon="8.5498667"><ele>493.19999999999993</ele><time>2026-05-01T11:40:11.738Z</time></trkpt><trkpt lat="39.4080983" lon="8.54975"><ele>485.59999999999997</ele><time>2026-05-01T11:40:12.737Z</time></trkpt><trkpt lat="39.408135" lon="8.5496467"><ele>478.0</ele><time>2026-05-01T11:40:13.738Z</time></trkpt><trkpt lat="39.4081733" lon="8.5495483"><ele>480.33333333333337</ele><time>2026-05-01T11:40:14.737Z</time></trkpt><trkpt lat="39.4082083" lon="8.549465"><ele>482.6666666666667</ele><time>2026-05-01T11:40:15.737Z</time></trkpt><trkpt lat="39.4082833" lon="8.54935"><ele>485.0</ele><time>2026-05-01T11:40:17.737Z</time></trkpt><trkpt lat="39.40836" lon="8.5493283"><ele>487.33333333333337</ele><time>2026-05-01T11:40:18.737Z</time></trkpt><trkpt lat="39.40844" lon="8.54932"><ele>489.6666666666667</ele><time>2026-05-01T11:40:19.737Z</time></trkpt><trkpt lat="39.4085033" lon="8.5493017"><ele>492.0</ele><time>2026-05-01T11:40:20.738Z</time></trkpt><trkpt lat="39.408575" lon="8.5492583"><ele>492.0</ele><time>2026-05-01T11:40:21.737Z</time></trkpt><trkpt lat="39.4086167" lon="8.54919"><ele>492.0</ele><time>2026-05-01T11:40:22.737Z</time></trkpt><trkpt lat="39.408645" lon="8.5491"><ele>492.0</ele><time>2026-05-01T11:40:23.737Z</time></trkpt><trkpt lat="39.4086633" lon="8.548995"><ele>492.0</ele><time>2026-05-01T11:40:24.738Z</time></trkpt><trkpt lat="39.4086817" lon="8.5488883"><ele>492.0</ele><time>2026-05-01T11:40:25.737Z</time></trkpt><trkpt lat="39.40869" lon="8.5487933"><ele>492.0</ele><time>2026-05-01T11:40:26.737Z</time></trkpt><trkpt lat="39.4087067" lon="8.5487"><ele>492.5</ele><time>2026-05-01T11:40:27.737Z</time></trkpt><trkpt lat="39.4087417" lon="8.5486117"><ele>493.0</ele><time>2026-05-01T11:40:28.737Z</time></trkpt><trkpt lat="39.4087783" lon="8.5485433"><ele>493.5</ele><time>2026-05-01T11:40:29.737Z</time></trkpt><trkpt lat="39.4088083" lon="8.54847"><ele>494.0</ele><time>2026-05-01T11:40:30.737Z</time></trkpt><trkpt lat="39.4088217" lon="8.5483167"><ele>494.5</ele><time>2026-05-01T11:40:32.738Z</time></trkpt><trkpt lat="39.4088283" lon="8.548235"><ele>495.0</ele><time>2026-05-01T11:40:33.737Z</time></trkpt><trkpt lat="39.408805" lon="8.548115"><ele>495.0</ele><time>2026-05-01T11:40:35.738Z</time></trkpt><trkpt lat="39.4087917" lon="8.5479817"><ele>495.0</ele><time>2026-05-01T11:40:37.737Z</time></trkpt><trkpt lat="39.4088017" lon="8.5478267"><ele>495.0</ele><time>2026-05-01T11:40:39.737Z</time></trkpt><trkpt lat="39.4088167" lon="8.5476683"><ele>495.0</ele><time>2026-05-01T11:40:41.737Z</time></trkpt><trkpt lat="39.4088183" lon="8.547515"><ele>494.4</ele><time>2026-05-01T11:40:43.737Z</time></trkpt><trkpt lat="39.408825" lon="8.5474333"><ele>493.8</ele><time>2026-05-01T11:40:44.738Z</time></trkpt><trkpt lat="39.4088617" lon="8.547325"><ele>493.20000000000005</ele><time>2026-05-01T11:40:45.737Z</time></trkpt><trkpt lat="39.408915" lon="8.5472167"><ele>492.6</ele><time>2026-05-01T11:40:46.737Z</time></trkpt><trkpt lat="39.4089767" lon="8.547105"><ele>492.0</ele><time>2026-05-01T11:40:47.737Z</time></trkpt><trkpt lat="39.4090433" lon="8.5469983"><ele>483.20000000000005</ele><time>2026-05-01T11:40:48.738Z</time></trkpt><trkpt lat="39.40911" lon="8.5468967"><ele>474.40000000000003</ele><time>2026-05-01T11:40:49.737Z</time></trkpt><trkpt lat="39.409175" lon="8.5467933"><ele>465.59999999999997</ele><time>2026-05-01T11:40:50.738Z</time></trkpt><trkpt lat="39.4092317" lon="8.5466817"><ele>456.79999999999995</ele><time>2026-05-01T11:40:51.738Z</time></trkpt><trkpt lat="39.4092617" lon="8.5465683"><ele>448.0</ele><time>2026-05-01T11:40:52.737Z</time></trkpt><trkpt lat="39.4092617" lon="8.5464867"><ele>448.00000000000006</ele><time>2026-05-01T11:40:53.737Z</time></trkpt><trkpt lat="39.409265" lon="8.5463917"><ele>448.0</ele><time>2026-05-01T11:40:54.737Z</time></trkpt><trkpt lat="39.4092683" lon="8.54631"><ele>448.0</ele><time>2026-05-01T11:40:55.737Z</time></trkpt><trkpt lat="39.409285" lon="8.5462233"><ele>448.0</ele><time>2026-05-01T11:40:57.737Z</time></trkpt><trkpt lat="39.4093167" lon="8.5461483"><ele>448.00000000000006</ele><time>2026-05-01T11:40:58.737Z</time></trkpt><trkpt lat="39.4093733" lon="8.54603"><ele>448.0</ele><time>2026-05-01T11:40:59.738Z</time></trkpt><trkpt lat="39.409445" lon="8.5459217"><ele>449.4</ele><time>2026-05-01T11:41:00.738Z</time></trkpt><trkpt lat="39.40952" lon="8.5457983"><ele>450.79999999999995</ele><time>2026-05-01T11:41:01.737Z</time></trkpt><trkpt lat="39.4096033" lon="8.545705"><ele>452.2</ele><time>2026-05-01T11:41:02.737Z</time></trkpt><trkpt lat="39.40967" lon="8.5456233"><ele>453.6</ele><time>2026-05-01T11:41:03.737Z</time></trkpt><trkpt lat="39.4097117" lon="8.5455433"><ele>455.0</ele><time>2026-05-01T11:41:04.737Z</time></trkpt><trkpt lat="39.4097233" lon="8.5454533"><ele>448.66666666666663</ele><time>2026-05-01T11:41:05.737Z</time></trkpt><trkpt lat="39.4097283" lon="8.5453567"><ele>442.3333333333333</ele><time>2026-05-01T11:41:06.738Z</time></trkpt><trkpt lat="39.4097233" lon="8.54525"><ele>436.0</ele><time>2026-05-01T11:41:07.738Z</time></trkpt><trkpt lat="39.409735" lon="8.54513"><ele>429.66666666666663</ele><time>2026-05-01T11:41:08.737Z</time></trkpt><trkpt lat="39.40977" lon="8.5450233"><ele>423.3333333333333</ele><time>2026-05-01T11:41:09.737Z</time></trkpt><trkpt lat="39.409795" lon="8.5449083"><ele>417.0</ele><time>2026-05-01T11:41:11.737Z</time></trkpt><trkpt lat="39.4098733" lon="8.5448117"><ele>417.0</ele><time>2026-05-01T11:41:13.737Z</time></trkpt><trkpt lat="39.4099233" lon="8.5447433"><ele>417.0</ele><time>2026-05-01T11:41:14.736Z</time></trkpt><trkpt lat="39.4099783" lon="8.5446567"><ele>417.0</ele><time>2026-05-01T11:41:15.737Z</time></trkpt><trkpt lat="39.4100233" lon="8.5445567"><ele>417.0</ele><time>2026-05-01T11:41:16.737Z</time></trkpt><trkpt lat="39.4100617" lon="8.5444683"><ele>417.0</ele><time>2026-05-01T11:41:17.736Z</time></trkpt><trkpt lat="39.41006" lon="8.5443867"><ele>417.0</ele><time>2026-05-01T11:41:18.736Z</time></trkpt><trkpt lat="39.410055" lon="8.54429"><ele>419.1666666666667</ele><time>2026-05-01T11:41:19.736Z</time></trkpt><trkpt lat="39.4100617" lon="8.5441767"><ele>421.33333333333337</ele><time>2026-05-01T11:41:20.736Z</time></trkpt><trkpt lat="39.4100733" lon="8.5440533"><ele>423.5</ele><time>2026-05-01T11:41:21.737Z</time></trkpt><trkpt lat="39.4101083" lon="8.5439217"><ele>425.6666666666667</ele><time>2026-05-01T11:41:22.736Z</time></trkpt><trkpt lat="39.4101417" lon="8.5438383"><ele>427.83333333333337</ele><time>2026-05-01T11:41:23.736Z</time></trkpt><trkpt lat="39.4101933" lon="8.5437583"><ele>430.0</ele><time>2026-05-01T11:41:24.736Z</time></trkpt><trkpt lat="39.4102483" lon="8.5436833"><ele>431.33333333333337</ele><time>2026-05-01T11:41:25.736Z</time></trkpt><trkpt lat="39.4103083" lon="8.543625"><ele>432.6666666666667</ele><time>2026-05-01T11:41:26.737Z</time></trkpt><trkpt lat="39.410395" lon="8.543605"><ele>434.0</ele><time>2026-05-01T11:41:27.736Z</time></trkpt><trkpt lat="39.4104933" lon="8.5435683"><ele>435.33333333333337</ele><time>2026-05-01T11:41:28.737Z</time></trkpt><trkpt lat="39.4105633" lon="8.5435083"><ele>436.6666666666667</ele><time>2026-05-01T11:41:29.737Z</time></trkpt><trkpt lat="39.4106083" lon="8.543425"><ele>438.0</ele><time>2026-05-01T11:41:30.736Z</time></trkpt><trkpt lat="39.4106267" lon="8.54332"><ele>434.0</ele><time>2026-05-01T11:41:31.736Z</time></trkpt><trkpt lat="39.410635" lon="8.5432067"><ele>430.0</ele><time>2026-05-01T11:41:32.736Z</time></trkpt><trkpt lat="39.4106533" lon="8.5431167"><ele>426.0</ele><time>2026-05-01T11:41:33.736Z</time></trkpt><trkpt lat="39.4106833" lon="8.543045"><ele>422.0</ele><time>2026-05-01T11:41:34.736Z</time></trkpt><trkpt lat="39.41072" lon="8.5429783"><ele>418.0</ele><time>2026-05-01T11:41:35.736Z</time></trkpt><trkpt lat="39.41071" lon="8.5428383"><ele>414.0</ele><time>2026-05-01T11:41:37.737Z</time></trkpt><trkpt lat="39.4106017" lon="8.5427817"><ele>413.6666666666667</ele><time>2026-05-01T11:41:39.736Z</time></trkpt><trkpt lat="39.41053" lon="8.5427917"><ele>413.33333333333337</ele><time>2026-05-01T11:41:40.737Z</time></trkpt><trkpt lat="39.41046" lon="8.542825"><ele>413.0</ele><time>2026-05-01T11:41:41.737Z</time></trkpt><trkpt lat="39.41038" lon="8.54288"><ele>412.6666666666667</ele><time>2026-05-01T11:41:42.736Z</time></trkpt><trkpt lat="39.4102967" lon="8.5429367"><ele>412.33333333333337</ele><time>2026-05-01T11:41:43.736Z</time></trkpt><trkpt lat="39.4102083" lon="8.5429867"><ele>412.0</ele><time>2026-05-01T11:41:44.736Z</time></trkpt><trkpt lat="39.410115" lon="8.54303"><ele>416.33333333333337</ele><time>2026-05-01T11:41:45.736Z</time></trkpt><trkpt lat="39.410025" lon="8.5430733"><ele>420.6666666666667</ele><time>2026-05-01T11:41:46.736Z</time></trkpt><trkpt lat="39.4099367" lon="8.5431183"><ele>425.0</ele><time>2026-05-01T11:41:47.736Z</time></trkpt><trkpt lat="39.40986" lon="8.5431583"><ele>429.33333333333337</ele><time>2026-05-01T11:41:48.736Z</time></trkpt><trkpt lat="39.40978" lon="8.543185"><ele>433.6666666666667</ele><time>2026-05-01T11:41:49.736Z</time></trkpt><trkpt lat="39.4096933" lon="8.5431967"><ele>438.0</ele><time>2026-05-01T11:41:50.736Z</time></trkpt><trkpt lat="39.4096067" lon="8.5432"><ele>440.5</ele><time>2026-05-01T11:41:51.737Z</time></trkpt><trkpt lat="39.409525" lon="8.5432217"><ele>443.0</ele><time>2026-05-01T11:41:52.736Z</time></trkpt><trkpt lat="39.4094333" lon="8.5432533"><ele>445.5</ele><time>2026-05-01T11:41:53.736Z</time></trkpt><trkpt lat="39.4093383" lon="8.5432817"><ele>448.0</ele><time>2026-05-01T11:41:54.736Z</time></trkpt><trkpt lat="39.40927" lon="8.5432767"><ele>450.5</ele><time>2026-05-01T11:41:55.737Z</time></trkpt><trkpt lat="39.409185" lon="8.5433"><ele>453.0</ele><time>2026-05-01T11:41:56.736Z</time></trkpt><trkpt lat="39.4091017" lon="8.5433217"><ele>453.0</ele><time>2026-05-01T11:41:57.736Z</time></trkpt><trkpt lat="39.4090283" lon="8.5433383"><ele>452.99999999999994</ele><time>2026-05-01T11:41:58.736Z</time></trkpt><trkpt lat="39.4089333" lon="8.5432917"><ele>452.99999999999994</ele><time>2026-05-01T11:42:00.737Z</time></trkpt><trkpt lat="39.4089067" lon="8.5431333"><ele>453.0</ele><time>2026-05-01T11:42:02.736Z</time></trkpt><trkpt lat="39.408895" lon="8.5430083"><ele>453.0</ele><time>2026-05-01T11:42:03.736Z</time></trkpt><trkpt lat="39.4088717" lon="8.54289"><ele>453.0</ele><time>2026-05-01T11:42:04.736Z</time></trkpt><trkpt lat="39.4088367" lon="8.5427467"><ele>452.99999999999994</ele><time>2026-05-01T11:42:05.736Z</time></trkpt><trkpt lat="39.4087917" lon="8.542615"><ele>452.99999999999994</ele><time>2026-05-01T11:42:06.737Z</time></trkpt><trkpt lat="39.4087467" lon="8.5425017"><ele>453.0</ele><time>2026-05-01T11:42:07.736Z</time></trkpt><trkpt lat="39.4086933" lon="8.5424233"><ele>453.0</ele><time>2026-05-01T11:42:08.737Z</time></trkpt><trkpt lat="39.4086267" lon="8.5423683"><ele>453.0</ele><time>2026-05-01T11:42:09.736Z</time></trkpt><trkpt lat="39.4085417" lon="8.5423217"><ele>452.99999999999994</ele><time>2026-05-01T11:42:10.737Z</time></trkpt><trkpt lat="39.4084433" lon="8.54232"><ele>452.99999999999994</ele><time>2026-05-01T11:42:11.737Z</time></trkpt><trkpt lat="39.4083583" lon="8.5423567"><ele>453.0</ele><time>2026-05-01T11:42:12.736Z</time></trkpt><trkpt lat="39.4082867" lon="8.5424317"><ele>453.0</ele><time>2026-05-01T11:42:13.736Z</time></trkpt><trkpt lat="39.40822" lon="8.5425483"><ele>453.0</ele><time>2026-05-01T11:42:14.736Z</time></trkpt><trkpt lat="39.408155" lon="8.54266"><ele>453.0</ele><time>2026-05-01T11:42:15.737Z</time></trkpt><trkpt lat="39.4081017" lon="8.5427433"><ele>453.0</ele><time>2026-05-01T11:42:16.736Z</time></trkpt><trkpt lat="39.4080483" lon="8.54282"><ele>453.0</ele><time>2026-05-01T11:42:17.736Z</time></trkpt><trkpt lat="39.4079867" lon="8.542875"><ele>453.0</ele><time>2026-05-01T11:42:18.736Z</time></trkpt><trkpt lat="39.407925" lon="8.5429167"><ele>453.0</ele><time>2026-05-01T11:42:19.736Z</time></trkpt><trkpt lat="39.4078567" lon="8.5429283"><ele>452.59999999999997</ele><time>2026-05-01T11:42:20.737Z</time></trkpt><trkpt lat="39.40779" lon="8.542925"><ele>452.19999999999993</ele><time>2026-05-01T11:42:21.736Z</time></trkpt><trkpt lat="39.4076733" lon="8.5429433"><ele>451.8</ele><time>2026-05-01T11:42:23.736Z</time></trkpt><trkpt lat="39.40762" lon="8.5429883"><ele>451.4</ele><time>2026-05-01T11:42:24.736Z</time></trkpt><trkpt lat="39.4075133" lon="8.5430433"><ele>451.0</ele><time>2026-05-01T11:42:26.736Z</time></trkpt><trkpt lat="39.407395" lon="8.5430383"><ele>451.00000000000006</ele><time>2026-05-01T11:42:28.736Z</time></trkpt><trkpt lat="39.40728" lon="8.5430433"><ele>451.0</ele><time>2026-05-01T11:42:30.736Z</time></trkpt><trkpt lat="39.4071733" lon="8.5430867"><ele>451.0</ele><time>2026-05-01T11:42:32.736Z</time></trkpt><trkpt lat="39.4071133" lon="8.543115"><ele>451.0</ele><time>2026-05-01T11:42:33.737Z</time></trkpt><trkpt lat="39.4070517" lon="8.54315"><ele>451.00000000000006</ele><time>2026-05-01T11:42:34.736Z</time></trkpt><trkpt lat="39.4069967" lon="8.5431933"><ele>451.0</ele><time>2026-05-01T11:42:35.736Z</time></trkpt><trkpt lat="39.4069417" lon="8.543245"><ele>449.0</ele><time>2026-05-01T11:42:36.736Z</time></trkpt><trkpt lat="39.40686" lon="8.5432883"><ele>447.0</ele><time>2026-05-01T11:42:38.737Z</time></trkpt><trkpt lat="39.4067933" lon="8.543265"><ele>445.0</ele><time>2026-05-01T11:42:40.736Z</time></trkpt><trkpt lat="39.4067417" lon="8.5431967"><ele>443.0</ele><time>2026-05-01T11:42:42.736Z</time></trkpt><trkpt lat="39.4067883" lon="8.5430417"><ele>441.0</ele><time>2026-05-01T11:42:44.736Z</time></trkpt><trkpt lat="39.4068433" lon="8.5428867"><ele>439.0</ele><time>2026-05-01T11:42:46.737Z</time></trkpt><trkpt lat="39.4069217" lon="8.5427633"><ele>437.0</ele><time>2026-05-01T11:42:48.736Z</time></trkpt><trkpt lat="39.406965" lon="8.5426383"><ele>435.0</ele><time>2026-05-01T11:42:50.737Z</time></trkpt><trkpt lat="39.4069567" lon="8.542525"><ele>433.0</ele><time>2026-05-01T11:42:52.736Z</time></trkpt><trkpt lat="39.4069217" lon="8.5424433"><ele>431.0</ele><time>2026-05-01T11:42:53.736Z</time></trkpt><trkpt lat="39.4068867" lon="8.542365"><ele>430.99999999999994</ele><time>2026-05-01T11:42:54.736Z</time></trkpt><trkpt lat="39.4068633" lon="8.5422833"><ele>431.0</ele><time>2026-05-01T11:42:55.737Z</time></trkpt><trkpt lat="39.4068733" lon="8.5421333"><ele>431.0</ele><time>2026-05-01T11:42:57.736Z</time></trkpt><trkpt lat="39.4068917" lon="8.542045"><ele>431.0</ele><time>2026-05-01T11:42:58.736Z</time></trkpt><trkpt lat="39.40694" lon="8.5419133"><ele>430.99999999999994</ele><time>2026-05-01T11:43:00.736Z</time></trkpt><trkpt lat="39.4069633" lon="8.5418317"><ele>431.0</ele><time>2026-05-01T11:43:01.737Z</time></trkpt><trkpt lat="39.40699" lon="8.5417433"><ele>431.16666666666663</ele><time>2026-05-01T11:43:02.736Z</time></trkpt><trkpt lat="39.4070267" lon="8.541645"><ele>431.3333333333333</ele><time>2026-05-01T11:43:03.736Z</time></trkpt><trkpt lat="39.40705" lon="8.5415333"><ele>431.5</ele><time>2026-05-01T11:43:04.736Z</time></trkpt><trkpt lat="39.4070567" lon="8.5414333"><ele>431.66666666666663</ele><time>2026-05-01T11:43:05.737Z</time></trkpt><trkpt lat="39.407055" lon="8.5413217"><ele>431.8333333333333</ele><time>2026-05-01T11:43:06.737Z</time></trkpt><trkpt lat="39.4070467" lon="8.54122"><ele>432.0</ele><time>2026-05-01T11:43:07.736Z</time></trkpt><trkpt lat="39.407025" lon="8.5411233"><ele>430.0</ele><time>2026-05-01T11:43:09.737Z</time></trkpt><trkpt lat="39.4070033" lon="8.5410383"><ele>428.0</ele><time>2026-05-01T11:43:10.736Z</time></trkpt><trkpt lat="39.4069783" lon="8.5409517"><ele>426.0</ele><time>2026-05-01T11:43:11.736Z</time></trkpt><trkpt lat="39.40693" lon="8.54085"><ele>424.0</ele><time>2026-05-01T11:43:12.736Z</time></trkpt><trkpt lat="39.4068783" lon="8.5407433"><ele>422.0</ele><time>2026-05-01T11:43:13.737Z</time></trkpt><trkpt lat="39.4068333" lon="8.540635"><ele>420.0</ele><time>2026-05-01T11:43:14.737Z</time></trkpt><trkpt lat="39.4067983" lon="8.5405267"><ele>420.0</ele><time>2026-05-01T11:43:15.736Z</time></trkpt><trkpt lat="39.4067767" lon="8.5404183"><ele>420.0</ele><time>2026-05-01T11:43:16.737Z</time></trkpt><trkpt lat="39.4067617" lon="8.5403117"><ele>420.0</ele><time>2026-05-01T11:43:17.736Z</time></trkpt><trkpt lat="39.4067517" lon="8.5402"><ele>420.0</ele><time>2026-05-01T11:43:18.736Z</time></trkpt><trkpt lat="39.4067433" lon="8.5401083"><ele>420.0</ele><time>2026-05-01T11:43:19.736Z</time></trkpt><trkpt lat="39.4067333" lon="8.5400183"><ele>420.0</ele><time>2026-05-01T11:43:20.736Z</time></trkpt><trkpt lat="39.4067067" lon="8.539855"><ele>416.2</ele><time>2026-05-01T11:43:22.737Z</time></trkpt><trkpt lat="39.40668" lon="8.539775"><ele>412.4</ele><time>2026-05-01T11:43:23.736Z</time></trkpt><trkpt lat="39.4066617" lon="8.5396333"><ele>408.6</ele><time>2026-05-01T11:43:25.736Z</time></trkpt><trkpt lat="39.4066517" lon="8.5395433"><ele>404.8</ele><time>2026-05-01T11:43:27.736Z</time></trkpt><trkpt lat="39.4065733" lon="8.539625"><ele>401.0</ele><time>2026-05-01T11:43:31.736Z</time></trkpt><trkpt lat="39.4065433" lon="8.5397733"><ele>400.99999999999994</ele><time>2026-05-01T11:43:33.736Z</time></trkpt><trkpt lat="39.4065267" lon="8.5398583"><ele>401.0</ele><time>2026-05-01T11:43:34.736Z</time></trkpt><trkpt lat="39.406475" lon="8.5399483"><ele>401.0</ele><time>2026-05-01T11:43:36.736Z</time></trkpt><trkpt lat="39.40639" lon="8.539965"><ele>401.0</ele><time>2026-05-01T11:43:38.736Z</time></trkpt><trkpt lat="39.406305" lon="8.5398633"><ele>400.99999999999994</ele><time>2026-05-01T11:43:40.736Z</time></trkpt><trkpt lat="39.4062783" lon="8.5397883"><ele>401.0</ele><time>2026-05-01T11:43:41.736Z</time></trkpt><trkpt lat="39.4062617" lon="8.5396517"><ele>400.99999999999994</ele><time>2026-05-01T11:43:43.736Z</time></trkpt><trkpt lat="39.4062567" lon="8.5395633"><ele>401.0</ele><time>2026-05-01T11:43:44.737Z</time></trkpt><trkpt lat="39.4062417" lon="8.5394817"><ele>401.0</ele><time>2026-05-01T11:43:45.737Z</time></trkpt><trkpt lat="39.4062117" lon="8.5394"><ele>401.0</ele><time>2026-05-01T11:43:46.736Z</time></trkpt><trkpt lat="39.40616" lon="8.539305"><ele>400.99999999999994</ele><time>2026-05-01T11:43:47.736Z</time></trkpt><trkpt lat="39.4061033" lon="8.5392083"><ele>401.0</ele><time>2026-05-01T11:43:48.737Z</time></trkpt><trkpt lat="39.4060483" lon="8.5391083"><ele>396.49999999999994</ele><time>2026-05-01T11:43:49.736Z</time></trkpt><trkpt lat="39.406" lon="8.539015"><ele>392.0</ele><time>2026-05-01T11:43:50.736Z</time></trkpt><trkpt lat="39.4059633" lon="8.5389133"><ele>387.5</ele><time>2026-05-01T11:43:51.736Z</time></trkpt><trkpt lat="39.405935" lon="8.538805"><ele>383.0</ele><time>2026-05-01T11:43:52.736Z</time></trkpt><trkpt lat="39.4059167" lon="8.5386783"><ele>378.5</ele><time>2026-05-01T11:43:53.736Z</time></trkpt><trkpt lat="39.4059083" lon="8.538585"><ele>374.0</ele><time>2026-05-01T11:43:54.737Z</time></trkpt><trkpt lat="39.4059233" lon="8.5384433"><ele>371.6666666666667</ele><time>2026-05-01T11:43:56.736Z</time></trkpt><trkpt lat="39.4059833" lon="8.5383167"><ele>369.33333333333337</ele><time>2026-05-01T11:43:58.736Z</time></trkpt><trkpt lat="39.4060367" lon="8.53826"><ele>367.0</ele><time>2026-05-01T11:43:59.736Z</time></trkpt><trkpt lat="39.4060917" lon="8.5382017"><ele>364.6666666666667</ele><time>2026-05-01T11:44:00.736Z</time></trkpt><trkpt lat="39.406145" lon="8.53815"><ele>362.3333333333333</ele><time>2026-05-01T11:44:01.737Z</time></trkpt><trkpt lat="39.4062283" lon="8.5380967"><ele>360.0</ele><time>2026-05-01T11:44:03.737Z</time></trkpt><trkpt lat="39.40633" lon="8.5380717"><ele>360.0</ele><time>2026-05-01T11:44:05.737Z</time></trkpt><trkpt lat="39.4063933" lon="8.5380417"><ele>360.0</ele><time>2026-05-01T11:44:06.736Z</time></trkpt><trkpt lat="39.40647" lon="8.5379983"><ele>360.0</ele><time>2026-05-01T11:44:07.737Z</time></trkpt><trkpt lat="39.4065467" lon="8.5379383"><ele>360.0</ele><time>2026-05-01T11:44:08.736Z</time></trkpt><trkpt lat="39.406615" lon="8.5378667"><ele>360.0</ele><time>2026-05-01T11:44:09.737Z</time></trkpt><trkpt lat="39.4066683" lon="8.5377817"><ele>360.0</ele><time>2026-05-01T11:44:10.736Z</time></trkpt><trkpt lat="39.4067117" lon="8.537665"><ele>354.75</ele><time>2026-05-01T11:44:11.736Z</time></trkpt><trkpt lat="39.4067283" lon="8.5375083"><ele>349.5</ele><time>2026-05-01T11:44:12.736Z</time></trkpt><trkpt lat="39.4067567" lon="8.5373683"><ele>344.25</ele><time>2026-05-01T11:44:13.736Z</time></trkpt><trkpt lat="39.4067883" lon="8.5372133"><ele>339.0</ele><time>2026-05-01T11:44:14.737Z</time></trkpt><trkpt lat="39.4068083" lon="8.5370733"><ele>336.79999999999995</ele><time>2026-05-01T11:44:15.736Z</time></trkpt><trkpt lat="39.4068217" lon="8.5369417"><ele>334.59999999999997</ele><time>2026-05-01T11:44:16.736Z</time></trkpt><trkpt lat="39.4068233" lon="8.5368167"><ele>332.4</ele><time>2026-05-01T11:44:17.737Z</time></trkpt><trkpt lat="39.4068" lon="8.5366683"><ele>330.2</ele><time>2026-05-01T11:44:18.737Z</time></trkpt><trkpt lat="39.4067567" lon="8.5365217"><ele>328.0</ele><time>2026-05-01T11:44:19.737Z</time></trkpt><trkpt lat="39.4066983" lon="8.536395"><ele>328.0</ele><time>2026-05-01T11:44:20.736Z</time></trkpt><trkpt lat="39.4066433" lon="8.536295"><ele>328.0</ele><time>2026-05-01T11:44:21.737Z</time></trkpt><trkpt lat="39.4065783" lon="8.536205"><ele>328.0</ele><time>2026-05-01T11:44:22.737Z</time></trkpt><trkpt lat="39.40651" lon="8.5361367"><ele>328.0</ele><time>2026-05-01T11:44:23.736Z</time></trkpt><trkpt lat="39.40644" lon="8.536115"><ele>328.0</ele><time>2026-05-01T11:44:24.736Z</time></trkpt><trkpt lat="39.4063583" lon="8.5361083"><ele>328.0</ele><time>2026-05-01T11:44:25.737Z</time></trkpt><trkpt lat="39.4062683" lon="8.5361083"><ele>326.8333333333333</ele><time>2026-05-01T11:44:26.736Z</time></trkpt><trkpt lat="39.4062" lon="8.5361017"><ele>325.66666666666663</ele><time>2026-05-01T11:44:27.736Z</time></trkpt><trkpt lat="39.4061267" lon="8.5360817"><ele>324.5</ele><time>2026-05-01T11:44:28.736Z</time></trkpt><trkpt lat="39.4060267" lon="8.5359767"><ele>323.3333333333333</ele><time>2026-05-01T11:44:30.736Z</time></trkpt><trkpt lat="39.4059917" lon="8.5358883"><ele>322.1666666666667</ele><time>2026-05-01T11:44:31.735Z</time></trkpt><trkpt lat="39.4059783" lon="8.5357933"><ele>321.0</ele><time>2026-05-01T11:44:32.736Z</time></trkpt><trkpt lat="39.4060217" lon="8.53562"><ele>321.0</ele><time>2026-05-01T11:44:34.736Z</time></trkpt><trkpt lat="39.4060483" lon="8.535535"><ele>321.0</ele><time>2026-05-01T11:44:35.735Z</time></trkpt><trkpt lat="39.4060517" lon="8.5354367"><ele>321.0</ele><time>2026-05-01T11:44:36.735Z</time></trkpt><trkpt lat="39.4060417" lon="8.5353333"><ele>321.0</ele><time>2026-05-01T11:44:37.735Z</time></trkpt><trkpt lat="39.40602" lon="8.5352467"><ele>321.0</ele><time>2026-05-01T11:44:38.736Z</time></trkpt><trkpt lat="39.4060133" lon="8.535095"><ele>321.0</ele><time>2026-05-01T11:44:40.735Z</time></trkpt><trkpt lat="39.4060717" lon="8.5350117"><ele>318.5</ele><time>2026-05-01T11:44:42.735Z</time></trkpt><trkpt lat="39.4061633" lon="8.53486"><ele>316.0</ele><time>2026-05-01T11:44:44.735Z</time></trkpt><trkpt lat="39.4062167" lon="8.5347783"><ele>313.5</ele><time>2026-05-01T11:44:45.736Z</time></trkpt><trkpt lat="39.406285" lon="8.534665"><ele>311.0</ele><time>2026-05-01T11:44:47.735Z</time></trkpt><trkpt lat="39.4062917" lon="8.5345267"><ele>309.0</ele><time>2026-05-01T11:44:49.735Z</time></trkpt><trkpt lat="39.4062283" lon="8.534395"><ele>307.0</ele><time>2026-05-01T11:44:51.736Z</time></trkpt><trkpt lat="39.406195" lon="8.5342817"><ele>305.0</ele><time>2026-05-01T11:44:52.735Z</time></trkpt><trkpt lat="39.4061683" lon="8.5341817"><ele>303.0</ele><time>2026-05-01T11:44:53.736Z</time></trkpt><trkpt lat="39.4061333" lon="8.5340733"><ele>301.0</ele><time>2026-05-01T11:44:54.735Z</time></trkpt><trkpt lat="39.4060983" lon="8.5339683"><ele>301.0</ele><time>2026-05-01T11:44:55.735Z</time></trkpt><trkpt lat="39.4060833" lon="8.5338767"><ele>301.0</ele><time>2026-05-01T11:44:56.735Z</time></trkpt><trkpt lat="39.4061133" lon="8.5337483"><ele>301.0</ele><time>2026-05-01T11:44:58.735Z</time></trkpt><trkpt lat="39.4061633" lon="8.533655"><ele>301.0</ele><time>2026-05-01T11:45:00.735Z</time></trkpt><trkpt lat="39.4062033" lon="8.53357"><ele>301.0</ele><time>2026-05-01T11:45:01.735Z</time></trkpt><trkpt lat="39.4062417" lon="8.5334767"><ele>301.0</ele><time>2026-05-01T11:45:02.736Z</time></trkpt><trkpt lat="39.406295" lon="8.5333867"><ele>297.66666666666663</ele><time>2026-05-01T11:45:03.735Z</time></trkpt><trkpt lat="39.4063533" lon="8.5333017"><ele>294.3333333333333</ele><time>2026-05-01T11:45:04.735Z</time></trkpt><trkpt lat="39.4064117" lon="8.5332233"><ele>291.0</ele><time>2026-05-01T11:45:05.736Z</time></trkpt><trkpt lat="39.4064767" lon="8.533135"><ele>287.6666666666667</ele><time>2026-05-01T11:45:06.735Z</time></trkpt><trkpt lat="39.4065467" lon="8.5330617"><ele>284.33333333333337</ele><time>2026-05-01T11:45:07.735Z</time></trkpt><trkpt lat="39.4066083" lon="8.5329883"><ele>281.0</ele><time>2026-05-01T11:45:08.736Z</time></trkpt><trkpt lat="39.4066533" lon="8.532915"><ele>280.33333333333337</ele><time>2026-05-01T11:45:09.736Z</time></trkpt><trkpt lat="39.4066883" lon="8.53281"><ele>279.6666666666667</ele><time>2026-05-01T11:45:10.735Z</time></trkpt><trkpt lat="39.4067117" lon="8.5327183"><ele>279.0</ele><time>2026-05-01T11:45:11.736Z</time></trkpt><trkpt lat="39.4067733" lon="8.5325833"><ele>278.3333333333333</ele><time>2026-05-01T11:45:13.735Z</time></trkpt><trkpt lat="39.40683" lon="8.53253"><ele>277.66666666666663</ele><time>2026-05-01T11:45:14.736Z</time></trkpt><trkpt lat="39.4069017" lon="8.5324767"><ele>277.0</ele><time>2026-05-01T11:45:15.735Z</time></trkpt><trkpt lat="39.40699" lon="8.53243"><ele>277.0</ele><time>2026-05-01T11:45:16.735Z</time></trkpt><trkpt lat="39.40708" lon="8.5323933"><ele>277.0</ele><time>2026-05-01T11:45:17.735Z</time></trkpt><trkpt lat="39.4071667" lon="8.5323683"><ele>277.0</ele><time>2026-05-01T11:45:18.735Z</time></trkpt><trkpt lat="39.4072733" lon="8.5323533"><ele>277.0</ele><time>2026-05-01T11:45:19.735Z</time></trkpt><trkpt lat="39.4073717" lon="8.532345"><ele>277.0</ele><time>2026-05-01T11:45:20.735Z</time></trkpt><trkpt lat="39.4074733" lon="8.5323383"><ele>273.4</ele><time>2026-05-01T11:45:21.735Z</time></trkpt><trkpt lat="39.407575" lon="8.5323467"><ele>269.79999999999995</ele><time>2026-05-01T11:45:22.735Z</time></trkpt><trkpt lat="39.407675" lon="8.5323567"><ele>266.2</ele><time>2026-05-01T11:45:23.735Z</time></trkpt><trkpt lat="39.4077767" lon="8.53237"><ele>262.59999999999997</ele><time>2026-05-01T11:45:24.735Z</time></trkpt><trkpt lat="39.4078767" lon="8.5323883"><ele>259.0</ele><time>2026-05-01T11:45:25.735Z</time></trkpt><trkpt lat="39.4079733" lon="8.5324033"><ele>258.0</ele><time>2026-05-01T11:45:26.735Z</time></trkpt><trkpt lat="39.40807" lon="8.5324117"><ele>257.0</ele><time>2026-05-01T11:45:27.735Z</time></trkpt><trkpt lat="39.4081717" lon="8.5324117"><ele>255.99999999999997</ele><time>2026-05-01T11:45:28.736Z</time></trkpt><trkpt lat="39.4082583" lon="8.5323833"><ele>255.0</ele><time>2026-05-01T11:45:29.735Z</time></trkpt><trkpt lat="39.40836" lon="8.5323167"><ele>254.0</ele><time>2026-05-01T11:45:30.736Z</time></trkpt><trkpt lat="39.4084417" lon="8.532215"><ele>254.00000000000003</ele><time>2026-05-01T11:45:31.735Z</time></trkpt><trkpt lat="39.4085133" lon="8.5320983"><ele>254.0</ele><time>2026-05-01T11:45:32.735Z</time></trkpt><trkpt lat="39.4085567" lon="8.5319817"><ele>254.0</ele><time>2026-05-01T11:45:33.735Z</time></trkpt><trkpt lat="39.4085883" lon="8.53188"><ele>254.0</ele><time>2026-05-01T11:45:34.735Z</time></trkpt><trkpt lat="39.40859" lon="8.5317867"><ele>254.00000000000003</ele><time>2026-05-01T11:45:35.736Z</time></trkpt><trkpt lat="39.4085583" lon="8.5317017"><ele>254.0</ele><time>2026-05-01T11:45:36.735Z</time></trkpt><trkpt lat="39.4085083" lon="8.53163"><ele>252.39999999999998</ele><time>2026-05-01T11:45:37.736Z</time></trkpt><trkpt lat="39.4084217" lon="8.5315667"><ele>250.79999999999998</ele><time>2026-05-01T11:45:38.736Z</time></trkpt><trkpt lat="39.4083083" lon="8.531525"><ele>249.20000000000002</ele><time>2026-05-01T11:45:39.735Z</time></trkpt><trkpt lat="39.4082167" lon="8.5314783"><ele>247.60000000000002</ele><time>2026-05-01T11:45:40.735Z</time></trkpt><trkpt lat="39.40816" lon="8.5314233"><ele>246.0</ele><time>2026-05-01T11:45:41.735Z</time></trkpt><trkpt lat="39.4081267" lon="8.5313317"><ele>244.60000000000002</ele><time>2026-05-01T11:45:42.735Z</time></trkpt><trkpt lat="39.4081133" lon="8.5312183"><ele>243.20000000000002</ele><time>2026-05-01T11:45:43.735Z</time></trkpt><trkpt lat="39.4081267" lon="8.53109"><ele>241.79999999999998</ele><time>2026-05-01T11:45:44.736Z</time></trkpt><trkpt lat="39.4081633" lon="8.5309483"><ele>240.39999999999998</ele><time>2026-05-01T11:45:45.735Z</time></trkpt><trkpt lat="39.4082117" lon="8.5308217"><ele>239.0</ele><time>2026-05-01T11:45:46.735Z</time></trkpt><trkpt lat="39.4082717" lon="8.530705"><ele>239.0</ele><time>2026-05-01T11:45:47.735Z</time></trkpt><trkpt lat="39.4083417" lon="8.5305817"><ele>239.0</ele><time>2026-05-01T11:45:48.735Z</time></trkpt><trkpt lat="39.4084" lon="8.5304533"><ele>239.0</ele><time>2026-05-01T11:45:49.736Z</time></trkpt><trkpt lat="39.4084583" lon="8.53031"><ele>239.0</ele><time>2026-05-01T11:45:50.735Z</time></trkpt><trkpt lat="39.4085217" lon="8.5301783"><ele>239.0</ele><time>2026-05-01T11:45:51.736Z</time></trkpt><trkpt lat="39.408595" lon="8.5300583"><ele>238.99999999999997</ele><time>2026-05-01T11:45:52.735Z</time></trkpt><trkpt lat="39.4086733" lon="8.529955"><ele>238.99999999999997</ele><time>2026-05-01T11:45:53.736Z</time></trkpt><trkpt lat="39.40875" lon="8.5298617"><ele>239.0</ele><time>2026-05-01T11:45:54.736Z</time></trkpt><trkpt lat="39.4088133" lon="8.5297667"><ele>239.0</ele><time>2026-05-01T11:45:55.735Z</time></trkpt><trkpt lat="39.4088567" lon="8.5296517"><ele>234.25</ele><time>2026-05-01T11:45:56.735Z</time></trkpt><trkpt lat="39.40888" lon="8.5295067"><ele>229.5</ele><time>2026-05-01T11:45:57.736Z</time></trkpt><trkpt lat="39.4088933" lon="8.5293317"><ele>224.75</ele><time>2026-05-01T11:45:58.735Z</time></trkpt><trkpt lat="39.4089117" lon="8.529185"><ele>220.0</ele><time>2026-05-01T11:45:59.735Z</time></trkpt><trkpt lat="39.4089233" lon="8.5290767"><ele>220.0</ele><time>2026-05-01T11:46:00.735Z</time></trkpt><trkpt lat="39.4089517" lon="8.5289817"><ele>220.0</ele><time>2026-05-01T11:46:01.736Z</time></trkpt><trkpt lat="39.409" lon="8.5288683"><ele>220.0</ele><time>2026-05-01T11:46:02.736Z</time></trkpt><trkpt lat="39.4090667" lon="8.5287483"><ele>220.0</ele><time>2026-05-01T11:46:03.735Z</time></trkpt><trkpt lat="39.40915" lon="8.5286233"><ele>220.0</ele><time>2026-05-01T11:46:04.735Z</time></trkpt><trkpt lat="39.409235" lon="8.5285133"><ele>218.8</ele><time>2026-05-01T11:46:05.735Z</time></trkpt><trkpt lat="39.4093083" lon="8.5283967"><ele>217.6</ele><time>2026-05-01T11:46:06.735Z</time></trkpt><trkpt lat="39.4093717" lon="8.5282883"><ele>216.39999999999998</ele><time>2026-05-01T11:46:07.735Z</time></trkpt><trkpt lat="39.40942" lon="8.52818"><ele>215.2</ele><time>2026-05-01T11:46:08.736Z</time></trkpt><trkpt lat="39.4094633" lon="8.52808"><ele>214.0</ele><time>2026-05-01T11:46:09.735Z</time></trkpt><trkpt lat="39.4095167" lon="8.527955"><ele>215.66666666666666</ele><time>2026-05-01T11:46:11.735Z</time></trkpt><trkpt lat="39.4095517" lon="8.5278533"><ele>217.33333333333331</ele><time>2026-05-01T11:46:13.735Z</time></trkpt><trkpt lat="39.4095833" lon="8.52775"><ele>219.0</ele><time>2026-05-01T11:46:15.736Z</time></trkpt><trkpt lat="39.4095833" lon="8.5276383"><ele>220.66666666666669</ele><time>2026-05-01T11:46:18.735Z</time></trkpt><trkpt lat="39.4095317" lon="8.5275417"><ele>222.33333333333334</ele><time>2026-05-01T11:46:21.735Z</time></trkpt><trkpt lat="39.4095117" lon="8.5274483"><ele>224.0</ele><time>2026-05-01T11:46:23.736Z</time></trkpt><trkpt lat="39.4095367" lon="8.5273433"><ele>224.00000000000003</ele><time>2026-05-01T11:46:25.736Z</time></trkpt><trkpt lat="39.4095883" lon="8.527255"><ele>224.0</ele><time>2026-05-01T11:46:27.735Z</time></trkpt><trkpt lat="39.4096517" lon="8.5271633"><ele>224.0</ele><time>2026-05-01T11:46:29.735Z</time></trkpt><trkpt lat="39.4096983" lon="8.5271"><ele>224.0</ele><time>2026-05-01T11:46:30.735Z</time></trkpt><trkpt lat="39.40974" lon="8.5270183"><ele>224.00000000000003</ele><time>2026-05-01T11:46:31.735Z</time></trkpt><trkpt lat="39.409785" lon="8.5269283"><ele>224.0</ele><time>2026-05-01T11:46:32.735Z</time></trkpt><trkpt lat="39.40983" lon="8.526835"><ele>221.00000000000003</ele><time>2026-05-01T11:46:33.736Z</time></trkpt><trkpt lat="39.40987" lon="8.5267433"><ele>218.0</ele><time>2026-05-01T11:46:34.735Z</time></trkpt><trkpt lat="39.409895" lon="8.5266517"><ele>215.0</ele><time>2026-05-01T11:46:35.735Z</time></trkpt><trkpt lat="39.4099367" lon="8.5265517"><ele>212.0</ele><time>2026-05-01T11:46:36.735Z</time></trkpt><trkpt lat="39.4099833" lon="8.5264467"><ele>209.00000000000003</ele><time>2026-05-01T11:46:37.736Z</time></trkpt><trkpt lat="39.41002" lon="8.5263617"><ele>206.0</ele><time>2026-05-01T11:46:38.735Z</time></trkpt><trkpt lat="39.4100567" lon="8.526295"><ele>207.83333333333334</ele><time>2026-05-01T11:46:39.735Z</time></trkpt><trkpt lat="39.4100917" lon="8.526225"><ele>209.66666666666669</ele><time>2026-05-01T11:46:40.735Z</time></trkpt><trkpt lat="39.41013" lon="8.5261483"><ele>211.5</ele><time>2026-05-01T11:46:41.735Z</time></trkpt><trkpt lat="39.4101683" lon="8.5260583"><ele>213.33333333333331</ele><time>2026-05-01T11:46:42.735Z</time></trkpt><trkpt lat="39.410215" lon="8.5259567"><ele>215.16666666666666</ele><time>2026-05-01T11:46:43.735Z</time></trkpt><trkpt lat="39.4102467" lon="8.5258683"><ele>217.0</ele><time>2026-05-01T11:46:44.735Z</time></trkpt><trkpt lat="39.4102717" lon="8.5257683"><ele>216.99999999999997</ele><time>2026-05-01T11:46:45.736Z</time></trkpt><trkpt lat="39.410285" lon="8.5256667"><ele>217.0</ele><time>2026-05-01T11:46:46.735Z</time></trkpt><trkpt lat="39.4102817" lon="8.525575"><ele>217.0</ele><time>2026-05-01T11:46:47.736Z</time></trkpt><trkpt lat="39.4102533" lon="8.5254417"><ele>217.0</ele><time>2026-05-01T11:46:49.735Z</time></trkpt><trkpt lat="39.4102633" lon="8.525355"><ele>216.99999999999997</ele><time>2026-05-01T11:46:50.735Z</time></trkpt><trkpt lat="39.4102983" lon="8.5252617"><ele>217.0</ele><time>2026-05-01T11:46:51.735Z</time></trkpt><trkpt lat="39.4103533" lon="8.5251617"><ele>219.0</ele><time>2026-05-01T11:46:52.735Z</time></trkpt><trkpt lat="39.4104133" lon="8.5250833"><ele>221.0</ele><time>2026-05-01T11:46:53.735Z</time></trkpt><trkpt lat="39.4105033" lon="8.5249967"><ele>223.0</ele><time>2026-05-01T11:46:54.736Z</time></trkpt><trkpt lat="39.4105783" lon="8.524915"><ele>225.0</ele><time>2026-05-01T11:46:55.736Z</time></trkpt><trkpt lat="39.4106583" lon="8.5248283"><ele>227.0</ele><time>2026-05-01T11:46:56.735Z</time></trkpt><trkpt lat="39.4107167" lon="8.52475"><ele>222.0</ele><time>2026-05-01T11:46:57.736Z</time></trkpt><trkpt lat="39.4107567" lon="8.5246717"><ele>217.00000000000003</ele><time>2026-05-01T11:46:58.735Z</time></trkpt><trkpt lat="39.4107733" lon="8.5245917"><ele>212.0</ele><time>2026-05-01T11:46:59.735Z</time></trkpt><trkpt lat="39.4107717" lon="8.5245067"><ele>207.0</ele><time>2026-05-01T11:47:00.735Z</time></trkpt><trkpt lat="39.410765" lon="8.5244133"><ele>202.0</ele><time>2026-05-01T11:47:01.735Z</time></trkpt><trkpt lat="39.41076" lon="8.5243183"><ele>197.0</ele><time>2026-05-01T11:47:02.735Z</time></trkpt><trkpt lat="39.4107767" lon="8.524225"><ele>192.0</ele><time>2026-05-01T11:47:03.735Z</time></trkpt><trkpt lat="39.4108067" lon="8.5241367"><ele>192.0</ele><time>2026-05-01T11:47:04.736Z</time></trkpt><trkpt lat="39.4108517" lon="8.52403"><ele>192.0</ele><time>2026-05-01T11:47:05.735Z</time></trkpt><trkpt lat="39.4108933" lon="8.5239067"><ele>192.0</ele><time>2026-05-01T11:47:06.736Z</time></trkpt><trkpt lat="39.4109217" lon="8.5237883"><ele>192.0</ele><time>2026-05-01T11:47:07.735Z</time></trkpt><trkpt lat="39.4109383" lon="8.5236817"><ele>192.0</ele><time>2026-05-01T11:47:08.735Z</time></trkpt><trkpt lat="39.41094" lon="8.5235733"><ele>192.39999999999998</ele><time>2026-05-01T11:47:09.735Z</time></trkpt><trkpt lat="39.41094" lon="8.5234483"><ele>192.79999999999998</ele><time>2026-05-01T11:47:10.735Z</time></trkpt><trkpt lat="39.4109433" lon="8.5233183"><ele>193.2</ele><time>2026-05-01T11:47:11.736Z</time></trkpt><trkpt lat="39.41093" lon="8.5231783"><ele>193.6</ele><time>2026-05-01T11:47:12.736Z</time></trkpt><trkpt lat="39.4109083" lon="8.5230533"><ele>194.0</ele><time>2026-05-01T11:47:13.736Z</time></trkpt><trkpt lat="39.41088" lon="8.522915"><ele>192.0</ele><time>2026-05-01T11:47:14.735Z</time></trkpt><trkpt lat="39.41085" lon="8.5227583"><ele>190.0</ele><time>2026-05-01T11:47:15.735Z</time></trkpt><trkpt lat="39.41081" lon="8.5225883"><ele>188.0</ele><time>2026-05-01T11:47:16.736Z</time></trkpt><trkpt lat="39.4107733" lon="8.522435"><ele>186.0</ele><time>2026-05-01T11:47:17.736Z</time></trkpt><trkpt lat="39.4107617" lon="8.522295"><ele>186.0</ele><time>2026-05-01T11:47:18.735Z</time></trkpt><trkpt lat="39.41076" lon="8.5221567"><ele>186.0</ele><time>2026-05-01T11:47:19.735Z</time></trkpt><trkpt lat="39.4107667" lon="8.522015"><ele>186.0</ele><time>2026-05-01T11:47:20.735Z</time></trkpt><trkpt lat="39.4107733" lon="8.521865"><ele>186.0</ele><time>2026-05-01T11:47:21.735Z</time></trkpt><trkpt lat="39.4107733" lon="8.5217033"><ele>185.83333333333334</ele><time>2026-05-01T11:47:22.736Z</time></trkpt><trkpt lat="39.4107733" lon="8.5215633"><ele>185.66666666666666</ele><time>2026-05-01T11:47:23.735Z</time></trkpt><trkpt lat="39.410775" lon="8.5214417"><ele>185.5</ele><time>2026-05-01T11:47:24.735Z</time></trkpt><trkpt lat="39.4107933" lon="8.5213517"><ele>185.33333333333331</ele><time>2026-05-01T11:47:25.736Z</time></trkpt><trkpt lat="39.410815" lon="8.5212517"><ele>185.16666666666666</ele><time>2026-05-01T11:47:26.735Z</time></trkpt><trkpt lat="39.4108517" lon="8.5211517"><ele>185.0</ele><time>2026-05-01T11:47:27.735Z</time></trkpt><trkpt lat="39.410905" lon="8.521055"><ele>186.6</ele><time>2026-05-01T11:47:28.736Z</time></trkpt><trkpt lat="39.4109717" lon="8.5209733"><ele>188.2</ele><time>2026-05-01T11:47:29.736Z</time></trkpt><trkpt lat="39.4110367" lon="8.5209217"><ele>189.8</ele><time>2026-05-01T11:47:30.735Z</time></trkpt><trkpt lat="39.41112" lon="8.520875"><ele>191.4</ele><time>2026-05-01T11:47:31.735Z</time></trkpt><trkpt lat="39.41124" lon="8.52083"><ele>193.0</ele><time>2026-05-01T11:47:33.735Z</time></trkpt><trkpt lat="39.411305" lon="8.5207783"><ele>193.0</ele><time>2026-05-01T11:47:34.735Z</time></trkpt><trkpt lat="39.4113533" lon="8.5206633"><ele>193.0</ele><time>2026-05-01T11:47:36.735Z</time></trkpt><trkpt lat="39.4113333" lon="8.5205183"><ele>193.0</ele><time>2026-05-01T11:47:38.734Z</time></trkpt><trkpt lat="39.411265" lon="8.5204067"><ele>193.0</ele><time>2026-05-01T11:47:39.734Z</time></trkpt><trkpt lat="39.411205" lon="8.520285"><ele>193.0</ele><time>2026-05-01T11:47:40.734Z</time></trkpt><trkpt lat="39.41113" lon="8.520145"><ele>193.25</ele><time>2026-05-01T11:47:41.735Z</time></trkpt><trkpt lat="39.4110783" lon="8.520015"><ele>193.5</ele><time>2026-05-01T11:47:42.734Z</time></trkpt><trkpt lat="39.4110633" lon="8.5198633"><ele>193.75</ele><time>2026-05-01T11:47:43.734Z</time></trkpt><trkpt lat="39.4110783" lon="8.519705"><ele>194.0</ele><time>2026-05-01T11:47:44.734Z</time></trkpt><trkpt lat="39.4111283" lon="8.5195717"><ele>192.6</ele><time>2026-05-01T11:47:45.734Z</time></trkpt><trkpt lat="39.4111767" lon="8.519445"><ele>191.2</ele><time>2026-05-01T11:47:46.734Z</time></trkpt><trkpt lat="39.411215" lon="8.5193283"><ele>189.79999999999998</ele><time>2026-05-01T11:47:47.735Z</time></trkpt><trkpt lat="39.4112483" lon="8.519205"><ele>188.39999999999998</ele><time>2026-05-01T11:47:48.734Z</time></trkpt><trkpt lat="39.4112667" lon="8.5190617"><ele>187.0</ele><time>2026-05-01T11:47:49.734Z</time></trkpt><trkpt lat="39.4112883" lon="8.518915"><ele>182.6</ele><time>2026-05-01T11:47:50.735Z</time></trkpt><trkpt lat="39.4113367" lon="8.5187833"><ele>178.2</ele><time>2026-05-01T11:47:51.734Z</time></trkpt><trkpt lat="39.411395" lon="8.5186767"><ele>173.8</ele><time>2026-05-01T11:47:52.734Z</time></trkpt><trkpt lat="39.41145" lon="8.5185467"><ele>169.4</ele><time>2026-05-01T11:47:53.735Z</time></trkpt><trkpt lat="39.4114883" lon="8.5184167"><ele>165.0</ele><time>2026-05-01T11:47:54.734Z</time></trkpt><trkpt lat="39.4115" lon="8.5183017"><ele>165.0</ele><time>2026-05-01T11:47:55.735Z</time></trkpt><trkpt lat="39.4114917" lon="8.5182083"><ele>165.0</ele><time>2026-05-01T11:47:56.734Z</time></trkpt><trkpt lat="39.4114633" lon="8.51813"><ele>165.0</ele><time>2026-05-01T11:47:57.734Z</time></trkpt><trkpt lat="39.411415" lon="8.5180633"><ele>165.0</ele><time>2026-05-01T11:47:58.735Z</time></trkpt><trkpt lat="39.4113583" lon="8.51801"><ele>165.0</ele><time>2026-05-01T11:47:59.734Z</time></trkpt><trkpt lat="39.411275" lon="8.5179833"><ele>165.0</ele><time>2026-05-01T11:48:00.734Z</time></trkpt><trkpt lat="39.41117" lon="8.5179717"><ele>167.0</ele><time>2026-05-01T11:48:01.734Z</time></trkpt><trkpt lat="39.4110467" lon="8.51798"><ele>169.0</ele><time>2026-05-01T11:48:02.735Z</time></trkpt><trkpt lat="39.4109333" lon="8.5179933"><ele>171.0</ele><time>2026-05-01T11:48:03.734Z</time></trkpt><trkpt lat="39.4108383" lon="8.518005"><ele>173.0</ele><time>2026-05-01T11:48:04.735Z</time></trkpt><trkpt lat="39.41076" lon="8.51802"><ele>175.0</ele><time>2026-05-01T11:48:05.734Z</time></trkpt><trkpt lat="39.410695" lon="8.5180167"><ele>175.0</ele><time>2026-05-01T11:48:06.734Z</time></trkpt><trkpt lat="39.410625" lon="8.5179283"><ele>175.0</ele><time>2026-05-01T11:48:08.735Z</time></trkpt><trkpt lat="39.4106517" lon="8.5177567"><ele>175.0</ele><time>2026-05-01T11:48:10.735Z</time></trkpt><trkpt lat="39.4106967" lon="8.5176683"><ele>175.0</ele><time>2026-05-01T11:48:11.735Z</time></trkpt><trkpt lat="39.41077" lon="8.517585"><ele>175.0</ele><time>2026-05-01T11:48:12.734Z</time></trkpt><trkpt lat="39.41088" lon="8.5175033"><ele>175.5</ele><time>2026-05-01T11:48:13.734Z</time></trkpt><trkpt lat="39.411" lon="8.5174283"><ele>176.0</ele><time>2026-05-01T11:48:14.734Z</time></trkpt><trkpt lat="39.411105" lon="8.51737"><ele>176.5</ele><time>2026-05-01T11:48:15.734Z</time></trkpt><trkpt lat="39.4112133" lon="8.51736"><ele>177.0</ele><time>2026-05-01T11:48:16.734Z</time></trkpt><trkpt lat="39.4113233" lon="8.5173767"><ele>177.0</ele><time>2026-05-01T11:48:17.734Z</time></trkpt><trkpt lat="39.411435" lon="8.5173617"><ele>177.0</ele><time>2026-05-01T11:48:18.735Z</time></trkpt><trkpt lat="39.4115317" lon="8.5173767"><ele>177.0</ele><time>2026-05-01T11:48:19.735Z</time></trkpt><trkpt lat="39.4116183" lon="8.5174367"><ele>177.0</ele><time>2026-05-01T11:48:20.734Z</time></trkpt><trkpt lat="39.4117117" lon="8.5175233"><ele>177.0</ele><time>2026-05-01T11:48:21.734Z</time></trkpt><trkpt lat="39.4118083" lon="8.5176183"><ele>177.0</ele><time>2026-05-01T11:48:22.734Z</time></trkpt><trkpt lat="39.4119267" lon="8.5177067"><ele>177.0</ele><time>2026-05-01T11:48:23.734Z</time></trkpt><trkpt lat="39.4120333" lon="8.517795"><ele>177.0</ele><time>2026-05-01T11:48:24.734Z</time></trkpt><trkpt lat="39.4121183" lon="8.5178833"><ele>177.0</ele><time>2026-05-01T11:48:25.734Z</time></trkpt><trkpt lat="39.4121883" lon="8.517985"><ele>179.6</ele><time>2026-05-01T11:48:26.735Z</time></trkpt><trkpt lat="39.41224" lon="8.5180833"><ele>182.2</ele><time>2026-05-01T11:48:27.735Z</time></trkpt><trkpt lat="39.412255" lon="8.518205"><ele>184.8</ele><time>2026-05-01T11:48:28.734Z</time></trkpt><trkpt lat="39.41225" lon="8.518325"><ele>187.4</ele><time>2026-05-01T11:48:29.734Z</time></trkpt><trkpt lat="39.4122217" lon="8.51844"><ele>190.0</ele><time>2026-05-01T11:48:30.734Z</time></trkpt><trkpt lat="39.41218" lon="8.5185533"><ele>187.66666666666669</ele><time>2026-05-01T11:48:31.734Z</time></trkpt><trkpt lat="39.412155" lon="8.51865"><ele>185.33333333333334</ele><time>2026-05-01T11:48:32.734Z</time></trkpt><trkpt lat="39.4121583" lon="8.5187417"><ele>183.0</ele><time>2026-05-01T11:48:33.735Z</time></trkpt><trkpt lat="39.4121883" lon="8.5188467"><ele>180.66666666666666</ele><time>2026-05-01T11:48:34.735Z</time></trkpt><trkpt lat="39.412235" lon="8.5189533"><ele>178.33333333333331</ele><time>2026-05-01T11:48:35.734Z</time></trkpt><trkpt lat="39.4122683" lon="8.5190617"><ele>176.0</ele><time>2026-05-01T11:48:36.734Z</time></trkpt><trkpt lat="39.4122817" lon="8.519185"><ele>176.0</ele><time>2026-05-01T11:48:37.735Z</time></trkpt><trkpt lat="39.412275" lon="8.5193267"><ele>176.0</ele><time>2026-05-01T11:48:38.734Z</time></trkpt><trkpt lat="39.4122483" lon="8.5194783"><ele>176.0</ele><time>2026-05-01T11:48:39.735Z</time></trkpt><trkpt lat="39.4122117" lon="8.5195917"><ele>176.0</ele><time>2026-05-01T11:48:40.735Z</time></trkpt><trkpt lat="39.4122017" lon="8.5196933"><ele>176.0</ele><time>2026-05-01T11:48:41.735Z</time></trkpt><trkpt lat="39.4122133" lon="8.5197783"><ele>173.16666666666666</ele><time>2026-05-01T11:48:42.734Z</time></trkpt><trkpt lat="39.41226" lon="8.5198717"><ele>170.33333333333331</ele><time>2026-05-01T11:48:43.734Z</time></trkpt><trkpt lat="39.412325" lon="8.5199617"><ele>167.5</ele><time>2026-05-01T11:48:44.735Z</time></trkpt><trkpt lat="39.4123917" lon="8.52003"><ele>164.66666666666666</ele><time>2026-05-01T11:48:45.734Z</time></trkpt><trkpt lat="39.4124583" lon="8.5200667"><ele>161.83333333333334</ele><time>2026-05-01T11:48:46.734Z</time></trkpt><trkpt lat="39.4125317" lon="8.520055"><ele>159.0</ele><time>2026-05-01T11:48:47.734Z</time></trkpt><trkpt lat="39.412605" lon="8.5199883"><ele>159.0</ele><time>2026-05-01T11:48:48.734Z</time></trkpt><trkpt lat="39.4126833" lon="8.519915"><ele>159.0</ele><time>2026-05-01T11:48:49.735Z</time></trkpt><trkpt lat="39.412765" lon="8.5198267"><ele>159.0</ele><time>2026-05-01T11:48:50.734Z</time></trkpt><trkpt lat="39.412865" lon="8.519725"><ele>159.0</ele><time>2026-05-01T11:48:51.734Z</time></trkpt><trkpt lat="39.4129633" lon="8.51959"><ele>162.75</ele><time>2026-05-01T11:48:52.735Z</time></trkpt><trkpt lat="39.413075" lon="8.5194517"><ele>166.5</ele><time>2026-05-01T11:48:53.734Z</time></trkpt><trkpt lat="39.4131733" lon="8.5193317"><ele>170.25</ele><time>2026-05-01T11:48:54.734Z</time></trkpt><trkpt lat="39.41327" lon="8.519225"><ele>174.0</ele><time>2026-05-01T11:48:55.734Z</time></trkpt><trkpt lat="39.4133517" lon="8.5191233"><ele>174.0</ele><time>2026-05-01T11:48:56.734Z</time></trkpt><trkpt lat="39.4134117" lon="8.5190633"><ele>174.0</ele><time>2026-05-01T11:48:57.734Z</time></trkpt><trkpt lat="39.4135217" lon="8.5190333"><ele>174.0</ele><time>2026-05-01T11:48:59.735Z</time></trkpt><trkpt lat="39.4135967" lon="8.5190517"><ele>174.0</ele><time>2026-05-01T11:49:00.734Z</time></trkpt><trkpt lat="39.4137" lon="8.51907"><ele>174.0</ele><time>2026-05-01T11:49:01.734Z</time></trkpt><trkpt lat="39.4138167" lon="8.5190983"><ele>174.2</ele><time>2026-05-01T11:49:02.735Z</time></trkpt><trkpt lat="39.4139283" lon="8.51913"><ele>174.39999999999998</ele><time>2026-05-01T11:49:03.734Z</time></trkpt><trkpt lat="39.4140367" lon="8.519165"><ele>174.6</ele><time>2026-05-01T11:49:04.734Z</time></trkpt><trkpt lat="39.4141317" lon="8.51923"><ele>174.8</ele><time>2026-05-01T11:49:05.734Z</time></trkpt><trkpt lat="39.4142167" lon="8.5193183"><ele>175.0</ele><time>2026-05-01T11:49:06.734Z</time></trkpt><trkpt lat="39.4143117" lon="8.5194267"><ele>175.0</ele><time>2026-05-01T11:49:07.735Z</time></trkpt><trkpt lat="39.4144133" lon="8.519545"><ele>175.0</ele><time>2026-05-01T11:49:08.734Z</time></trkpt><trkpt lat="39.414525" lon="8.5196433"><ele>175.0</ele><time>2026-05-01T11:49:09.734Z</time></trkpt><trkpt lat="39.4146183" lon="8.5197367"><ele>175.0</ele><time>2026-05-01T11:49:10.734Z</time></trkpt><trkpt lat="39.4146933" lon="8.5198117"><ele>171.2</ele><time>2026-05-01T11:49:11.734Z</time></trkpt><trkpt lat="39.4147667" lon="8.5198717"><ele>167.4</ele><time>2026-05-01T11:49:12.735Z</time></trkpt><trkpt lat="39.4148883" lon="8.5198583"><ele>163.6</ele><time>2026-05-01T11:49:14.734Z</time></trkpt><trkpt lat="39.414965" lon="8.5197783"><ele>159.8</ele><time>2026-05-01T11:49:15.735Z</time></trkpt><trkpt lat="39.4150567" lon="8.5196867"><ele>156.0</ele><time>2026-05-01T11:49:16.734Z</time></trkpt><trkpt lat="39.4151583" lon="8.5195983"><ele>159.0</ele><time>2026-05-01T11:49:17.735Z</time></trkpt><trkpt lat="39.415265" lon="8.5195"><ele>162.0</ele><time>2026-05-01T11:49:18.734Z</time></trkpt><trkpt lat="39.41535" lon="8.5194"><ele>165.0</ele><time>2026-05-01T11:49:19.734Z</time></trkpt><trkpt lat="39.415395" lon="8.51929"><ele>168.0</ele><time>2026-05-01T11:49:20.734Z</time></trkpt><trkpt lat="39.4154217" lon="8.5191767"><ele>171.0</ele><time>2026-05-01T11:49:21.734Z</time></trkpt><trkpt lat="39.415425" lon="8.5190783"><ele>171.0</ele><time>2026-05-01T11:49:22.734Z</time></trkpt><trkpt lat="39.4154" lon="8.518965"><ele>171.0</ele><time>2026-05-01T11:49:23.735Z</time></trkpt><trkpt lat="39.415355" lon="8.518855"><ele>171.0</ele><time>2026-05-01T11:49:24.734Z</time></trkpt><trkpt lat="39.4153167" lon="8.5187583"><ele>171.0</ele><time>2026-05-01T11:49:25.734Z</time></trkpt><trkpt lat="39.415315" lon="8.5186767"><ele>171.0</ele><time>2026-05-01T11:49:26.734Z</time></trkpt><trkpt lat="39.4153483" lon="8.5185917"><ele>171.0</ele><time>2026-05-01T11:49:27.734Z</time></trkpt><trkpt lat="39.4154067" lon="8.5185117"><ele>168.0</ele><time>2026-05-01T11:49:28.734Z</time></trkpt><trkpt lat="39.4154917" lon="8.5184233"><ele>165.0</ele><time>2026-05-01T11:49:29.734Z</time></trkpt><trkpt lat="39.4155367" lon="8.5183217"><ele>162.0</ele><time>2026-05-01T11:49:30.734Z</time></trkpt><trkpt lat="39.415575" lon="8.5182067"><ele>159.0</ele><time>2026-05-01T11:49:31.734Z</time></trkpt><trkpt lat="39.4156033" lon="8.5181183"><ele>156.0</ele><time>2026-05-01T11:49:32.734Z</time></trkpt><trkpt lat="39.4156717" lon="8.5180417"><ele>156.0</ele><time>2026-05-01T11:49:34.735Z</time></trkpt><trkpt lat="39.4157417" lon="8.5180783"><ele>156.0</ele><time>2026-05-01T11:49:35.735Z</time></trkpt><trkpt lat="39.4158033" lon="8.5181383"><ele>156.0</ele><time>2026-05-01T11:49:36.734Z</time></trkpt><trkpt lat="39.41586" lon="8.5182483"><ele>156.0</ele><time>2026-05-01T11:49:37.734Z</time></trkpt><trkpt lat="39.4159183" lon="8.5183717"><ele>156.0</ele><time>2026-05-01T11:49:38.734Z</time></trkpt><trkpt lat="39.415985" lon="8.5184717"><ele>156.0</ele><time>2026-05-01T11:49:39.734Z</time></trkpt><trkpt lat="39.4160517" lon="8.5185333"><ele>156.0</ele><time>2026-05-01T11:49:40.734Z</time></trkpt><trkpt lat="39.4161183" lon="8.5185733"><ele>156.0</ele><time>2026-05-01T11:49:41.734Z</time></trkpt><trkpt lat="39.4161933" lon="8.5185633"><ele>156.0</ele><time>2026-05-01T11:49:42.734Z</time></trkpt><trkpt lat="39.4162783" lon="8.5185067"><ele>156.0</ele><time>2026-05-01T11:49:43.734Z</time></trkpt><trkpt lat="39.4163783" lon="8.51843"><ele>156.0</ele><time>2026-05-01T11:49:44.735Z</time></trkpt><trkpt lat="39.41648" lon="8.51834"><ele>153.4</ele><time>2026-05-01T11:49:45.734Z</time></trkpt><trkpt lat="39.41657" lon="8.518245"><ele>150.8</ele><time>2026-05-01T11:49:46.734Z</time></trkpt><trkpt lat="39.4166283" lon="8.518155"><ele>148.20000000000002</ele><time>2026-05-01T11:49:47.734Z</time></trkpt><trkpt lat="39.4166583" lon="8.5180617"><ele>145.6</ele><time>2026-05-01T11:49:48.734Z</time></trkpt><trkpt lat="39.41666" lon="8.5179583"><ele>143.0</ele><time>2026-05-01T11:49:49.734Z</time></trkpt><trkpt lat="39.4166317" lon="8.5178417"><ele>143.0</ele><time>2026-05-01T11:49:50.734Z</time></trkpt><trkpt lat="39.4165767" lon="8.517695"><ele>143.0</ele><time>2026-05-01T11:49:51.734Z</time></trkpt><trkpt lat="39.4165" lon="8.517525"><ele>143.0</ele><time>2026-05-01T11:49:52.734Z</time></trkpt><trkpt lat="39.416415" lon="8.5173533"><ele>143.0</ele><time>2026-05-01T11:49:53.735Z</time></trkpt><trkpt lat="39.4163433" lon="8.5172133"><ele>150.75</ele><time>2026-05-01T11:49:54.734Z</time></trkpt><trkpt lat="39.4162933" lon="8.5171017"><ele>158.5</ele><time>2026-05-01T11:49:55.734Z</time></trkpt><trkpt lat="39.41626" lon="8.5169817"><ele>166.25</ele><time>2026-05-01T11:49:56.735Z</time></trkpt><trkpt lat="39.4162467" lon="8.516825"><ele>174.0</ele><time>2026-05-01T11:49:57.734Z</time></trkpt><trkpt lat="39.4162483" lon="8.5166417"><ele>175.2</ele><time>2026-05-01T11:49:58.735Z</time></trkpt><trkpt lat="39.4162517" lon="8.5164867"><ele>176.39999999999998</ele><time>2026-05-01T11:49:59.734Z</time></trkpt><trkpt lat="39.4162567" lon="8.5163667"><ele>177.6</ele><time>2026-05-01T11:50:00.735Z</time></trkpt><trkpt lat="39.4162733" lon="8.5162667"><ele>178.8</ele><time>2026-05-01T11:50:01.734Z</time></trkpt><trkpt lat="39.41631" lon="8.5161517"><ele>180.0</ele><time>2026-05-01T11:50:02.734Z</time></trkpt><trkpt lat="39.41637" lon="8.516005"><ele>175.0</ele><time>2026-05-01T11:50:03.734Z</time></trkpt><trkpt lat="39.4164217" lon="8.5158867"><ele>170.0</ele><time>2026-05-01T11:50:04.734Z</time></trkpt><trkpt lat="39.41647" lon="8.51581"><ele>165.0</ele><time>2026-05-01T11:50:05.734Z</time></trkpt><trkpt lat="39.416535" lon="8.5157583"><ele>160.0</ele><time>2026-05-01T11:50:06.734Z</time></trkpt><trkpt lat="39.4166317" lon="8.5157033"><ele>155.0</ele><time>2026-05-01T11:50:07.734Z</time></trkpt><trkpt lat="39.4167483" lon="8.515645"><ele>155.0</ele><time>2026-05-01T11:50:08.734Z</time></trkpt><trkpt lat="39.416865" lon="8.515595"><ele>155.0</ele><time>2026-05-01T11:50:09.734Z</time></trkpt><trkpt lat="39.4169617" lon="8.515575"><ele>155.0</ele><time>2026-05-01T11:50:10.734Z</time></trkpt><trkpt lat="39.4170383" lon="8.5155617"><ele>155.0</ele><time>2026-05-01T11:50:11.734Z</time></trkpt><trkpt lat="39.4170983" lon="8.5155267"><ele>155.0</ele><time>2026-05-01T11:50:12.735Z</time></trkpt><trkpt lat="39.41714" lon="8.51546"><ele>155.0</ele><time>2026-05-01T11:50:13.734Z</time></trkpt><trkpt lat="39.4171617" lon="8.5153717"><ele>153.0</ele><time>2026-05-01T11:50:14.735Z</time></trkpt><trkpt lat="39.417165" lon="8.5152667"><ele>151.0</ele><time>2026-05-01T11:50:15.734Z</time></trkpt><trkpt lat="39.4171667" lon="8.51516"><ele>149.0</ele><time>2026-05-01T11:50:16.734Z</time></trkpt><trkpt lat="39.41718" lon="8.5150683"><ele>147.0</ele><time>2026-05-01T11:50:17.734Z</time></trkpt><trkpt lat="39.4172183" lon="8.5149917"><ele>145.0</ele><time>2026-05-01T11:50:18.735Z</time></trkpt><trkpt lat="39.4172717" lon="8.514925"><ele>143.0</ele><time>2026-05-01T11:50:19.734Z</time></trkpt><trkpt lat="39.41734" lon="8.51487"><ele>143.0</ele><time>2026-05-01T11:50:20.734Z</time></trkpt><trkpt lat="39.41741" lon="8.5148"><ele>143.0</ele><time>2026-05-01T11:50:21.734Z</time></trkpt><trkpt lat="39.4174467" lon="8.5147133"><ele>143.0</ele><time>2026-05-01T11:50:22.735Z</time></trkpt><trkpt lat="39.4174617" lon="8.5146267"><ele>143.0</ele><time>2026-05-01T11:50:23.734Z</time></trkpt><trkpt lat="39.4174633" lon="8.5145283"><ele>143.0</ele><time>2026-05-01T11:50:24.735Z</time></trkpt><trkpt lat="39.4174567" lon="8.514405"><ele>143.0</ele><time>2026-05-01T11:50:25.734Z</time></trkpt><trkpt lat="39.4174317" lon="8.5142783"><ele>143.0</ele><time>2026-05-01T11:50:26.734Z</time></trkpt><trkpt lat="39.4173883" lon="8.5141683"><ele>143.0</ele><time>2026-05-01T11:50:27.734Z</time></trkpt><trkpt lat="39.417345" lon="8.5140867"><ele>143.0</ele><time>2026-05-01T11:50:28.734Z</time></trkpt><trkpt lat="39.4172817" lon="8.51401"><ele>143.0</ele><time>2026-05-01T11:50:29.734Z</time></trkpt><trkpt lat="39.4172067" lon="8.5139267"><ele>143.0</ele><time>2026-05-01T11:50:30.734Z</time></trkpt><trkpt lat="39.4171317" lon="8.513835"><ele>144.20000000000002</ele><time>2026-05-01T11:50:31.734Z</time></trkpt><trkpt lat="39.4170583" lon="8.5137333"><ele>145.4</ele><time>2026-05-01T11:50:32.733Z</time></trkpt><trkpt lat="39.4170033" lon="8.5136317"><ele>146.60000000000002</ele><time>2026-05-01T11:50:33.733Z</time></trkpt><trkpt lat="39.416945" lon="8.5135233"><ele>147.8</ele><time>2026-05-01T11:50:34.733Z</time></trkpt><trkpt lat="39.416865" lon="8.5134317"><ele>149.0</ele><time>2026-05-01T11:50:35.734Z</time></trkpt><trkpt lat="39.4167667" lon="8.51335"><ele>149.0</ele><time>2026-05-01T11:50:36.733Z</time></trkpt><trkpt lat="39.4166517" lon="8.51328"><ele>149.0</ele><time>2026-05-01T11:50:37.733Z</time></trkpt><trkpt lat="39.41653" lon="8.5132317"><ele>149.0</ele><time>2026-05-01T11:50:38.733Z</time></trkpt><trkpt lat="39.4164267" lon="8.5132083"><ele>149.0</ele><time>2026-05-01T11:50:39.734Z</time></trkpt><trkpt lat="39.4163333" lon="8.5131917"><ele>151.83333333333331</ele><time>2026-05-01T11:50:40.733Z</time></trkpt><trkpt lat="39.4162483" lon="8.513155"><ele>154.66666666666666</ele><time>2026-05-01T11:50:41.733Z</time></trkpt><trkpt lat="39.416175" lon="8.5130967"><ele>157.5</ele><time>2026-05-01T11:50:42.734Z</time></trkpt><trkpt lat="39.4161267" lon="8.51302"><ele>160.33333333333334</ele><time>2026-05-01T11:50:43.733Z</time></trkpt><trkpt lat="39.41609" lon="8.5129317"><ele>163.16666666666669</ele><time>2026-05-01T11:50:44.733Z</time></trkpt><trkpt lat="39.41609" lon="8.5127983"><ele>166.0</ele><time>2026-05-01T11:50:45.734Z</time></trkpt><trkpt lat="39.4161067" lon="8.51266"><ele>166.0</ele><time>2026-05-01T11:50:46.734Z</time></trkpt><trkpt lat="39.4161183" lon="8.5125433"><ele>166.0</ele><time>2026-05-01T11:50:47.734Z</time></trkpt><trkpt lat="39.416115" lon="8.51244"><ele>166.0</ele><time>2026-05-01T11:50:48.733Z</time></trkpt><trkpt lat="39.416105" lon="8.512345"><ele>166.0</ele><time>2026-05-01T11:50:49.733Z</time></trkpt><trkpt lat="39.4160783" lon="8.5122217"><ele>166.0</ele><time>2026-05-01T11:50:50.733Z</time></trkpt><trkpt lat="39.4160717" lon="8.512095"><ele>166.0</ele><time>2026-05-01T11:50:51.734Z</time></trkpt><trkpt lat="39.416085" lon="8.5119333"><ele>166.8</ele><time>2026-05-01T11:50:52.733Z</time></trkpt><trkpt lat="39.416095" lon="8.5117633"><ele>167.60000000000002</ele><time>2026-05-01T11:50:53.733Z</time></trkpt><trkpt lat="39.4161033" lon="8.511615"><ele>168.4</ele><time>2026-05-01T11:50:54.733Z</time></trkpt><trkpt lat="39.416105" lon="8.5114733"><ele>169.2</ele><time>2026-05-01T11:50:55.734Z</time></trkpt><trkpt lat="39.4161033" lon="8.5113583"><ele>170.0</ele><time>2026-05-01T11:50:56.734Z</time></trkpt><trkpt lat="39.4161017" lon="8.51126"><ele>170.2</ele><time>2026-05-01T11:50:57.733Z</time></trkpt><trkpt lat="39.4161567" lon="8.5111317"><ele>170.4</ele><time>2026-05-01T11:50:59.734Z</time></trkpt><trkpt lat="39.4162483" lon="8.51112"><ele>170.60000000000002</ele><time>2026-05-01T11:51:01.733Z</time></trkpt><trkpt lat="39.416365" lon="8.5111917"><ele>170.8</ele><time>2026-05-01T11:51:03.733Z</time></trkpt><trkpt lat="39.416415" lon="8.51128"><ele>171.0</ele><time>2026-05-01T11:51:04.733Z</time></trkpt><trkpt lat="39.41645" lon="8.5114067"><ele>167.8</ele><time>2026-05-01T11:51:05.733Z</time></trkpt><trkpt lat="39.4164917" lon="8.51154"><ele>164.60000000000002</ele><time>2026-05-01T11:51:06.734Z</time></trkpt><trkpt lat="39.41654" lon="8.5116583"><ele>161.4</ele><time>2026-05-01T11:51:07.734Z</time></trkpt><trkpt lat="39.416605" lon="8.5117567"><ele>158.2</ele><time>2026-05-01T11:51:08.733Z</time></trkpt><trkpt lat="39.41669" lon="8.511835"><ele>155.0</ele><time>2026-05-01T11:51:09.734Z</time></trkpt><trkpt lat="39.4167767" lon="8.5118867"><ele>155.0</ele><time>2026-05-01T11:51:10.734Z</time></trkpt><trkpt lat="39.4168617" lon="8.5119083"><ele>155.0</ele><time>2026-05-01T11:51:11.734Z</time></trkpt><trkpt lat="39.416945" lon="8.5118833"><ele>155.0</ele><time>2026-05-01T11:51:12.733Z</time></trkpt><trkpt lat="39.4170317" lon="8.5118483"><ele>155.0</ele><time>2026-05-01T11:51:13.733Z</time></trkpt><trkpt lat="39.417125" lon="8.51182"><ele>155.0</ele><time>2026-05-01T11:51:14.733Z</time></trkpt><trkpt lat="39.41724" lon="8.5118067"><ele>156.8</ele><time>2026-05-01T11:51:15.733Z</time></trkpt><trkpt lat="39.4173567" lon="8.5117917"><ele>158.6</ele><time>2026-05-01T11:51:16.734Z</time></trkpt><trkpt lat="39.4174467" lon="8.5117733"><ele>160.39999999999998</ele><time>2026-05-01T11:51:17.733Z</time></trkpt><trkpt lat="39.41752" lon="8.511795"><ele>162.2</ele><time>2026-05-01T11:51:18.733Z</time></trkpt><trkpt lat="39.4175883" lon="8.5118383"><ele>164.0</ele><time>2026-05-01T11:51:19.733Z</time></trkpt><trkpt lat="39.41766" lon="8.5119117"><ele>164.0</ele><time>2026-05-01T11:51:20.733Z</time></trkpt><trkpt lat="39.4177167" lon="8.512025"><ele>164.0</ele><time>2026-05-01T11:51:21.733Z</time></trkpt><trkpt lat="39.4177517" lon="8.5121617"><ele>164.0</ele><time>2026-05-01T11:51:22.733Z</time></trkpt><trkpt lat="39.41779" lon="8.5122883"><ele>164.0</ele><time>2026-05-01T11:51:23.733Z</time></trkpt><trkpt lat="39.417825" lon="8.5124017"><ele>164.0</ele><time>2026-05-01T11:51:24.733Z</time></trkpt><trkpt lat="39.4178683" lon="8.5124817"><ele>161.39999999999998</ele><time>2026-05-01T11:51:25.734Z</time></trkpt><trkpt lat="39.4179367" lon="8.51253"><ele>158.79999999999998</ele><time>2026-05-01T11:51:26.733Z</time></trkpt><trkpt lat="39.41802" lon="8.512555"><ele>156.2</ele><time>2026-05-01T11:51:27.733Z</time></trkpt><trkpt lat="39.4181183" lon="8.5125517"><ele>153.6</ele><time>2026-05-01T11:51:28.733Z</time></trkpt><trkpt lat="39.418225" lon="8.5125217"><ele>151.0</ele><time>2026-05-01T11:51:29.734Z</time></trkpt><trkpt lat="39.4183367" lon="8.512495"><ele>151.0</ele><time>2026-05-01T11:51:30.733Z</time></trkpt><trkpt lat="39.41846" lon="8.5125033"><ele>151.0</ele><time>2026-05-01T11:51:31.733Z</time></trkpt><trkpt lat="39.4185833" lon="8.512515"><ele>151.0</ele><time>2026-05-01T11:51:32.734Z</time></trkpt><trkpt lat="39.4186867" lon="8.5125217"><ele>151.0</ele><time>2026-05-01T11:51:33.733Z</time></trkpt><trkpt lat="39.4187917" lon="8.5125083"><ele>148.0</ele><time>2026-05-01T11:51:34.733Z</time></trkpt><trkpt lat="39.4188783" lon="8.51248"><ele>145.0</ele><time>2026-05-01T11:51:35.733Z</time></trkpt><trkpt lat="39.41896" lon="8.5124333"><ele>142.0</ele><time>2026-05-01T11:51:36.733Z</time></trkpt><trkpt lat="39.4190283" lon="8.512345"><ele>139.0</ele><time>2026-05-01T11:51:37.734Z</time></trkpt><trkpt lat="39.4191067" lon="8.512225"><ele>136.0</ele><time>2026-05-01T11:51:38.733Z</time></trkpt><trkpt lat="39.4191867" lon="8.51211"><ele>139.8</ele><time>2026-05-01T11:51:39.733Z</time></trkpt><trkpt lat="39.4192683" lon="8.5120183"><ele>143.6</ele><time>2026-05-01T11:51:40.733Z</time></trkpt><trkpt lat="39.4193283" lon="8.5119183"><ele>147.4</ele><time>2026-05-01T11:51:41.733Z</time></trkpt><trkpt lat="39.41937" lon="8.511815"><ele>151.2</ele><time>2026-05-01T11:51:42.733Z</time></trkpt><trkpt lat="39.419395" lon="8.51171"><ele>155.0</ele><time>2026-05-01T11:51:43.733Z</time></trkpt><trkpt lat="39.4194233" lon="8.511615"><ele>155.0</ele><time>2026-05-01T11:51:44.733Z</time></trkpt><trkpt lat="39.419465" lon="8.5115517"><ele>155.0</ele><time>2026-05-01T11:51:45.734Z</time></trkpt><trkpt lat="39.4195233" lon="8.51151"><ele>155.0</ele><time>2026-05-01T11:51:46.733Z</time></trkpt><trkpt lat="39.41959" lon="8.5115033"><ele>155.0</ele><time>2026-05-01T11:51:47.733Z</time></trkpt><trkpt lat="39.4196633" lon="8.5115117"><ele>155.0</ele><time>2026-05-01T11:51:48.733Z</time></trkpt><trkpt lat="39.419745" lon="8.5114967"><ele>155.0</ele><time>2026-05-01T11:51:49.734Z</time></trkpt><trkpt lat="39.4198067" lon="8.5114567"><ele>155.0</ele><time>2026-05-01T11:51:50.733Z</time></trkpt><trkpt lat="39.4198717" lon="8.5114083"><ele>152.5</ele><time>2026-05-01T11:51:51.733Z</time></trkpt><trkpt lat="39.4199333" lon="8.511355"><ele>150.0</ele><time>2026-05-01T11:51:52.733Z</time></trkpt><trkpt lat="39.4200333" lon="8.5113867"><ele>147.5</ele><time>2026-05-01T11:51:54.734Z</time></trkpt><trkpt lat="39.42009" lon="8.511525"><ele>145.0</ele><time>2026-05-01T11:51:56.733Z</time></trkpt><trkpt lat="39.4201167" lon="8.511605"><ele>142.5</ele><time>2026-05-01T11:51:57.733Z</time></trkpt><trkpt lat="39.4201633" lon="8.511665"><ele>140.0</ele><time>2026-05-01T11:51:58.733Z</time></trkpt><trkpt lat="39.4202417" lon="8.51169"><ele>140.0</ele><time>2026-05-01T11:51:59.733Z</time></trkpt><trkpt lat="39.4203267" lon="8.5116867"><ele>140.0</ele><time>2026-05-01T11:52:00.733Z</time></trkpt><trkpt lat="39.4204117" lon="8.51167"><ele>140.0</ele><time>2026-05-01T11:52:01.734Z</time></trkpt><trkpt lat="39.4205033" lon="8.51165"><ele>140.0</ele><time>2026-05-01T11:52:02.733Z</time></trkpt><trkpt lat="39.42059" lon="8.5116217"><ele>140.0</ele><time>2026-05-01T11:52:03.733Z</time></trkpt><trkpt lat="39.4206583" lon="8.511565"><ele>140.0</ele><time>2026-05-01T11:52:04.733Z</time></trkpt><trkpt lat="39.4207167" lon="8.511475"><ele>139.0</ele><time>2026-05-01T11:52:05.733Z</time></trkpt><trkpt lat="39.4207783" lon="8.5113683"><ele>138.0</ele><time>2026-05-01T11:52:06.733Z</time></trkpt><trkpt lat="39.4208417" lon="8.5112717"><ele>137.0</ele><time>2026-05-01T11:52:07.733Z</time></trkpt><trkpt lat="39.4209167" lon="8.5111933"><ele>136.0</ele><time>2026-05-01T11:52:08.733Z</time></trkpt><trkpt lat="39.420995" lon="8.5111367"><ele>135.0</ele><time>2026-05-01T11:52:09.733Z</time></trkpt><trkpt lat="39.4210683" lon="8.5111067"><ele>136.66666666666666</ele><time>2026-05-01T11:52:10.734Z</time></trkpt><trkpt lat="39.4211467" lon="8.5110683"><ele>138.33333333333334</ele><time>2026-05-01T11:52:11.734Z</time></trkpt><trkpt lat="39.4212183" lon="8.5110233"><ele>140.0</ele><time>2026-05-01T11:52:12.733Z</time></trkpt><trkpt lat="39.4212833" lon="8.5109633"><ele>141.66666666666669</ele><time>2026-05-01T11:52:13.733Z</time></trkpt><trkpt lat="39.42134" lon="8.5109017"><ele>143.33333333333334</ele><time>2026-05-01T11:52:14.734Z</time></trkpt><trkpt lat="39.4214183" lon="8.5108917"><ele>145.0</ele><time>2026-05-01T11:52:16.733Z</time></trkpt><trkpt lat="39.4215817" lon="8.5109433"><ele>145.0</ele><time>2026-05-01T11:52:18.733Z</time></trkpt><trkpt lat="39.421695" lon="8.510965"><ele>145.0</ele><time>2026-05-01T11:52:19.733Z</time></trkpt><trkpt lat="39.4217983" lon="8.510975"><ele>145.0</ele><time>2026-05-01T11:52:20.733Z</time></trkpt><trkpt lat="39.4218867" lon="8.5109567"><ele>145.0</ele><time>2026-05-01T11:52:21.734Z</time></trkpt><trkpt lat="39.42196" lon="8.5109133"><ele>145.0</ele><time>2026-05-01T11:52:22.733Z</time></trkpt><trkpt lat="39.422015" lon="8.5108433"><ele>145.0</ele><time>2026-05-01T11:52:23.734Z</time></trkpt><trkpt lat="39.42205" lon="8.5107533"><ele>145.0</ele><time>2026-05-01T11:52:24.733Z</time></trkpt><trkpt lat="39.4220617" lon="8.5106567"><ele>145.0</ele><time>2026-05-01T11:52:25.734Z</time></trkpt><trkpt lat="39.4220383" lon="8.5105567"><ele>145.0</ele><time>2026-05-01T11:52:26.733Z</time></trkpt><trkpt lat="39.421995" lon="8.510455"><ele>145.0</ele><time>2026-05-01T11:52:27.733Z</time></trkpt><trkpt lat="39.4219783" lon="8.51036"><ele>145.0</ele><time>2026-05-01T11:52:28.733Z</time></trkpt><trkpt lat="39.4219867" lon="8.51027"><ele>142.83333333333334</ele><time>2026-05-01T11:52:29.733Z</time></trkpt><trkpt lat="39.4220183" lon="8.5101867"><ele>140.66666666666669</ele><time>2026-05-01T11:52:30.734Z</time></trkpt><trkpt lat="39.4220633" lon="8.5101167"><ele>138.5</ele><time>2026-05-01T11:52:31.733Z</time></trkpt><trkpt lat="39.4221683" lon="8.510065"><ele>136.33333333333334</ele><time>2026-05-01T11:52:33.734Z</time></trkpt><trkpt lat="39.4222217" lon="8.50999"><ele>134.16666666666666</ele><time>2026-05-01T11:52:34.733Z</time></trkpt><trkpt lat="39.4222483" lon="8.5098983"><ele>132.0</ele><time>2026-05-01T11:52:35.733Z</time></trkpt><trkpt lat="39.422265" lon="8.5097833"><ele>132.0</ele><time>2026-05-01T11:52:36.733Z</time></trkpt><trkpt lat="39.4222883" lon="8.50966"><ele>132.0</ele><time>2026-05-01T11:52:37.733Z</time></trkpt><trkpt lat="39.4223217" lon="8.5095367"><ele>132.0</ele><time>2026-05-01T11:52:38.733Z</time></trkpt><trkpt lat="39.4223633" lon="8.5094017"><ele>132.0</ele><time>2026-05-01T11:52:39.733Z</time></trkpt><trkpt lat="39.4224017" lon="8.50925"><ele>132.0</ele><time>2026-05-01T11:52:40.733Z</time></trkpt><trkpt lat="39.4224317" lon="8.5090867"><ele>134.6</ele><time>2026-05-01T11:52:41.733Z</time></trkpt><trkpt lat="39.4224517" lon="8.5089383"><ele>137.2</ele><time>2026-05-01T11:52:42.733Z</time></trkpt><trkpt lat="39.4224783" lon="8.50881"><ele>139.8</ele><time>2026-05-01T11:52:43.733Z</time></trkpt><trkpt lat="39.4225267" lon="8.508705"><ele>142.4</ele><time>2026-05-01T11:52:44.733Z</time></trkpt><trkpt lat="39.4225933" lon="8.50862"><ele>145.0</ele><time>2026-05-01T11:52:45.733Z</time></trkpt><trkpt lat="39.4226767" lon="8.5085433"><ele>143.8</ele><time>2026-05-01T11:52:46.733Z</time></trkpt><trkpt lat="39.4227683" lon="8.5084733"><ele>142.6</ele><time>2026-05-01T11:52:47.733Z</time></trkpt><trkpt lat="39.422855" lon="8.5084267"><ele>141.4</ele><time>2026-05-01T11:52:48.734Z</time></trkpt><trkpt lat="39.4229783" lon="8.5083733"><ele>140.2</ele><time>2026-05-01T11:52:49.733Z</time></trkpt><trkpt lat="39.4230783" lon="8.5083583"><ele>139.0</ele><time>2026-05-01T11:52:50.733Z</time></trkpt><trkpt lat="39.4231867" lon="8.5083233"><ele>139.0</ele><time>2026-05-01T11:52:51.733Z</time></trkpt><trkpt lat="39.4232867" lon="8.5082717"><ele>139.0</ele><time>2026-05-01T11:52:52.733Z</time></trkpt><trkpt lat="39.4233683" lon="8.5082133"><ele>139.0</ele><time>2026-05-01T11:52:53.733Z</time></trkpt><trkpt lat="39.42344" lon="8.508135"><ele>139.0</ele><time>2026-05-01T11:52:54.734Z</time></trkpt><trkpt lat="39.423485" lon="8.5080367"><ele>139.0</ele><time>2026-05-01T11:52:55.733Z</time></trkpt><trkpt lat="39.42351" lon="8.5079183"><ele>141.0</ele><time>2026-05-01T11:52:56.734Z</time></trkpt><trkpt lat="39.42352" lon="8.5078"><ele>143.0</ele><time>2026-05-01T11:52:57.733Z</time></trkpt><trkpt lat="39.4235183" lon="8.5076833"><ele>145.0</ele><time>2026-05-01T11:52:58.733Z</time></trkpt><trkpt lat="39.4235217" lon="8.5075517"><ele>147.0</ele><time>2026-05-01T11:52:59.734Z</time></trkpt><trkpt lat="39.4235317" lon="8.50744"><ele>149.0</ele><time>2026-05-01T11:53:00.733Z</time></trkpt><trkpt lat="39.42353" lon="8.5073483"><ele>151.0</ele><time>2026-05-01T11:53:01.733Z</time></trkpt><trkpt lat="39.4235" lon="8.507255"><ele>151.0</ele><time>2026-05-01T11:53:02.733Z</time></trkpt><trkpt lat="39.4234783" lon="8.5071567"><ele>151.0</ele><time>2026-05-01T11:53:03.734Z</time></trkpt><trkpt lat="39.4234817" lon="8.5070517"><ele>151.0</ele><time>2026-05-01T11:53:04.733Z</time></trkpt><trkpt lat="39.4234983" lon="8.5069333"><ele>151.0</ele><time>2026-05-01T11:53:05.733Z</time></trkpt><trkpt lat="39.4235133" lon="8.5068"><ele>151.0</ele><time>2026-05-01T11:53:06.734Z</time></trkpt><trkpt lat="39.4235133" lon="8.506675"><ele>151.4</ele><time>2026-05-01T11:53:07.733Z</time></trkpt><trkpt lat="39.4235067" lon="8.5065533"><ele>151.8</ele><time>2026-05-01T11:53:08.733Z</time></trkpt><trkpt lat="39.423505" lon="8.5064383"><ele>152.20000000000002</ele><time>2026-05-01T11:53:09.733Z</time></trkpt><trkpt lat="39.4235117" lon="8.5063"><ele>152.6</ele><time>2026-05-01T11:53:10.733Z</time></trkpt><trkpt lat="39.42353" lon="8.506155"><ele>153.0</ele><time>2026-05-01T11:53:11.733Z</time></trkpt><trkpt lat="39.42356" lon="8.5060233"><ele>155.0</ele><time>2026-05-01T11:53:12.734Z</time></trkpt><trkpt lat="39.4236033" lon="8.5059267"><ele>157.0</ele><time>2026-05-01T11:53:13.733Z</time></trkpt><trkpt lat="39.4236533" lon="8.5058333"><ele>159.0</ele><time>2026-05-01T11:53:14.733Z</time></trkpt><trkpt lat="39.42372" lon="8.5057617"><ele>161.0</ele><time>2026-05-01T11:53:15.733Z</time></trkpt><trkpt lat="39.4237933" lon="8.5056967"><ele>163.0</ele><time>2026-05-01T11:53:16.733Z</time></trkpt><trkpt lat="39.4238733" lon="8.5056167"><ele>161.8</ele><time>2026-05-01T11:53:17.733Z</time></trkpt><trkpt lat="39.4239617" lon="8.5055317"><ele>160.60000000000002</ele><time>2026-05-01T11:53:18.733Z</time></trkpt><trkpt lat="39.4240467" lon="8.5054583"><ele>159.39999999999998</ele><time>2026-05-01T11:53:19.734Z</time></trkpt><trkpt lat="39.4241417" lon="8.5053983"><ele>158.2</ele><time>2026-05-01T11:53:20.734Z</time></trkpt><trkpt lat="39.4242533" lon="8.505355"><ele>157.0</ele><time>2026-05-01T11:53:21.734Z</time></trkpt><trkpt lat="39.4243667" lon="8.5053"><ele>157.0</ele><time>2026-05-01T11:53:22.733Z</time></trkpt><trkpt lat="39.4244733" lon="8.505275"><ele>157.0</ele><time>2026-05-01T11:53:23.733Z</time></trkpt><trkpt lat="39.4245733" lon="8.505205"><ele>157.0</ele><time>2026-05-01T11:53:24.732Z</time></trkpt><trkpt lat="39.4246733" lon="8.5051133"><ele>157.0</ele><time>2026-05-01T11:53:25.732Z</time></trkpt><trkpt lat="39.4247683" lon="8.5050317"><ele>152.6</ele><time>2026-05-01T11:53:26.732Z</time></trkpt><trkpt lat="39.4248567" lon="8.504945"><ele>148.2</ele><time>2026-05-01T11:53:27.732Z</time></trkpt><trkpt lat="39.4249383" lon="8.5048383"><ele>143.8</ele><time>2026-05-01T11:53:28.732Z</time></trkpt><trkpt lat="39.42502" lon="8.5047367"><ele>139.4</ele><time>2026-05-01T11:53:29.733Z</time></trkpt><trkpt lat="39.4250717" lon="8.5046417"><ele>135.0</ele><time>2026-05-01T11:53:30.733Z</time></trkpt><trkpt lat="39.425105" lon="8.5045467"><ele>135.0</ele><time>2026-05-01T11:53:31.733Z</time></trkpt><trkpt lat="39.425125" lon="8.50444"><ele>135.0</ele><time>2026-05-01T11:53:32.732Z</time></trkpt><trkpt lat="39.4251283" lon="8.5043367"><ele>135.0</ele><time>2026-05-01T11:53:33.733Z</time></trkpt><trkpt lat="39.4251083" lon="8.504235"><ele>135.0</ele><time>2026-05-01T11:53:34.733Z</time></trkpt><trkpt lat="39.4250667" lon="8.5041417"><ele>135.0</ele><time>2026-05-01T11:53:35.733Z</time></trkpt><trkpt lat="39.4250033" lon="8.5040633"><ele>135.0</ele><time>2026-05-01T11:53:36.732Z</time></trkpt><trkpt lat="39.4249283" lon="8.504"><ele>135.0</ele><time>2026-05-01T11:53:37.732Z</time></trkpt><trkpt lat="39.42486" lon="8.5039433"><ele>135.0</ele><time>2026-05-01T11:53:38.733Z</time></trkpt><trkpt lat="39.4248083" lon="8.50387"><ele>135.0</ele><time>2026-05-01T11:53:39.732Z</time></trkpt><trkpt lat="39.4247883" lon="8.5037667"><ele>135.0</ele><time>2026-05-01T11:53:40.733Z</time></trkpt><trkpt lat="39.4247883" lon="8.50363"><ele>135.0</ele><time>2026-05-01T11:53:41.732Z</time></trkpt><trkpt lat="39.4248033" lon="8.5034583"><ele>133.5</ele><time>2026-05-01T11:53:42.732Z</time></trkpt><trkpt lat="39.4248383" lon="8.503255"><ele>132.0</ele><time>2026-05-01T11:53:43.732Z</time></trkpt><trkpt lat="39.4248783" lon="8.5030633"><ele>130.5</ele><time>2026-05-01T11:53:44.732Z</time></trkpt><trkpt lat="39.424915" lon="8.5029033"><ele>129.0</ele><time>2026-05-01T11:53:45.732Z</time></trkpt><trkpt lat="39.4249433" lon="8.5027567"><ele>129.0</ele><time>2026-05-01T11:53:46.733Z</time></trkpt><trkpt lat="39.4249633" lon="8.50263"><ele>129.0</ele><time>2026-05-01T11:53:47.732Z</time></trkpt><trkpt lat="39.4249767" lon="8.502505"><ele>129.0</ele><time>2026-05-01T11:53:48.732Z</time></trkpt><trkpt lat="39.424985" lon="8.502395"><ele>129.0</ele><time>2026-05-01T11:53:49.732Z</time></trkpt><trkpt lat="39.4249767" lon="8.5022933"><ele>129.0</ele><time>2026-05-01T11:53:50.732Z</time></trkpt><trkpt lat="39.424915" lon="8.50214"><ele>130.0</ele><time>2026-05-01T11:53:52.732Z</time></trkpt><trkpt lat="39.4248383" lon="8.5020783"><ele>131.0</ele><time>2026-05-01T11:53:53.732Z</time></trkpt><trkpt lat="39.42474" lon="8.5020233"><ele>132.0</ele><time>2026-05-01T11:53:54.732Z</time></trkpt><trkpt lat="39.424615" lon="8.501965"><ele>133.0</ele><time>2026-05-01T11:53:55.732Z</time></trkpt><trkpt lat="39.4244883" lon="8.50188"><ele>133.0</ele><time>2026-05-01T11:53:56.733Z</time></trkpt><trkpt lat="39.4243767" lon="8.5018033"><ele>133.0</ele><time>2026-05-01T11:53:57.732Z</time></trkpt><trkpt lat="39.4242817" lon="8.5017183"><ele>133.0</ele><time>2026-05-01T11:53:58.733Z</time></trkpt><trkpt lat="39.4242067" lon="8.5016483"><ele>133.0</ele><time>2026-05-01T11:53:59.732Z</time></trkpt><trkpt lat="39.4241417" lon="8.5015833"><ele>133.0</ele><time>2026-05-01T11:54:00.732Z</time></trkpt><trkpt lat="39.4240767" lon="8.5015333"><ele>133.0</ele><time>2026-05-01T11:54:01.732Z</time></trkpt><trkpt lat="39.4239683" lon="8.501545"><ele>133.0</ele><time>2026-05-01T11:54:03.732Z</time></trkpt><trkpt lat="39.4238933" lon="8.5016"><ele>133.0</ele><time>2026-05-01T11:54:04.732Z</time></trkpt><trkpt lat="39.4238" lon="8.5016767"><ele>133.0</ele><time>2026-05-01T11:54:05.732Z</time></trkpt><trkpt lat="39.4236967" lon="8.5017467"><ele>133.0</ele><time>2026-05-01T11:54:06.733Z</time></trkpt><trkpt lat="39.4235933" lon="8.5018"><ele>132.4</ele><time>2026-05-01T11:54:07.732Z</time></trkpt><trkpt lat="39.4235033" lon="8.5018117"><ele>131.8</ele><time>2026-05-01T11:54:08.732Z</time></trkpt><trkpt lat="39.423405" lon="8.50179"><ele>131.2</ele><time>2026-05-01T11:54:09.733Z</time></trkpt><trkpt lat="39.4233083" lon="8.5017417"><ele>130.6</ele><time>2026-05-01T11:54:10.732Z</time></trkpt><trkpt lat="39.423215" lon="8.501685"><ele>130.0</ele><time>2026-05-01T11:54:11.733Z</time></trkpt><trkpt lat="39.4231333" lon="8.50163"><ele>130.0</ele><time>2026-05-01T11:54:12.733Z</time></trkpt><trkpt lat="39.4230483" lon="8.5016167"><ele>130.0</ele><time>2026-05-01T11:54:13.732Z</time></trkpt><trkpt lat="39.4229467" lon="8.5016233"><ele>130.0</ele><time>2026-05-01T11:54:14.733Z</time></trkpt><trkpt lat="39.42284" lon="8.5016483"><ele>130.0</ele><time>2026-05-01T11:54:15.733Z</time></trkpt><trkpt lat="39.422715" lon="8.5016817"><ele>130.0</ele><time>2026-05-01T11:54:16.732Z</time></trkpt><trkpt lat="39.4225933" lon="8.5017183"><ele>129.6</ele><time>2026-05-01T11:54:17.733Z</time></trkpt><trkpt lat="39.4224883" lon="8.501745"><ele>129.2</ele><time>2026-05-01T11:54:18.732Z</time></trkpt><trkpt lat="39.422395" lon="8.5017683"><ele>128.8</ele><time>2026-05-01T11:54:19.733Z</time></trkpt><trkpt lat="39.4223067" lon="8.5018133"><ele>128.4</ele><time>2026-05-01T11:54:20.732Z</time></trkpt><trkpt lat="39.4222117" lon="8.5018733"><ele>128.0</ele><time>2026-05-01T11:54:21.733Z</time></trkpt><trkpt lat="39.4221133" lon="8.5019383"><ele>127.83333333333333</ele><time>2026-05-01T11:54:22.732Z</time></trkpt><trkpt lat="39.4220283" lon="8.5020017"><ele>127.66666666666666</ele><time>2026-05-01T11:54:23.733Z</time></trkpt><trkpt lat="39.4219483" lon="8.50204"><ele>127.5</ele><time>2026-05-01T11:54:24.732Z</time></trkpt><trkpt lat="39.42187" lon="8.50205"><ele>127.33333333333334</ele><time>2026-05-01T11:54:25.732Z</time></trkpt><trkpt lat="39.421795" lon="8.5020417"><ele>127.16666666666667</ele><time>2026-05-01T11:54:26.732Z</time></trkpt><trkpt lat="39.4217117" lon="8.5020133"><ele>127.0</ele><time>2026-05-01T11:54:27.732Z</time></trkpt><trkpt lat="39.42163" lon="8.5019683"><ele>127.00000000000001</ele><time>2026-05-01T11:54:28.732Z</time></trkpt><trkpt lat="39.421555" lon="8.5019267"><ele>127.0</ele><time>2026-05-01T11:54:29.732Z</time></trkpt><trkpt lat="39.4214967" lon="8.5018883"><ele>127.0</ele><time>2026-05-01T11:54:30.732Z</time></trkpt><trkpt lat="39.4214233" lon="8.5018133"><ele>127.0</ele><time>2026-05-01T11:54:32.732Z</time></trkpt><trkpt lat="39.421365" lon="8.50174"><ele>127.00000000000001</ele><time>2026-05-01T11:54:35.733Z</time></trkpt><trkpt lat="39.4213217" lon="8.5016783"><ele>127.0</ele><time>2026-05-01T11:54:38.732Z</time></trkpt><trkpt lat="39.4212817" lon="8.501605"><ele>154.0</ele><time>2026-05-01T11:54:42.733Z</time></trkpt></trkseg></trk></gpx>